<?xml version="1.0" encoding="UTF-8" standalone="no" ?>
<gpx xmlns="http://www.topografix.com/GPX/1/1" xmlns:xsi="http://www.w3.org/2001/XMLSchema-instance" xsi:schemaLocation="http://www.topografix.com/GPX/1/1 http://www.topografix.com/GPX/1/1/gpx.xsd" version="1.1" creator="VisuGPX - https://www.visugpx.com">
  <metadata>
    <name>Tour d'Europe: étape 027</name>
    <desc><![CDATA[Étape 027]]></desc>
  </metadata>
  <trk>
    <name><![CDATA[Tour d'Europe: étape 027]]></name>
    <trkseg>
      <trkpt lat="60.39007" lon="5.32028">
        <ele>78.500541</ele>
        <time>2020-07-25T07:28:47.366Z</time>
      </trkpt>
      <trkpt lat="60.39024" lon="5.32025">
        <ele>78.500541</ele>
        <time>2020-07-25T07:28:48.976Z</time>
      </trkpt>
      <trkpt lat="60.39038" lon="5.32047">
        <ele>78.500541</ele>
        <time>2020-07-25T07:31:34.946Z</time>
      </trkpt>
      <trkpt lat="60.39023" lon="5.32084">
        <ele>78.500541</ele>
        <time>2020-07-25T07:31:49.977Z</time>
      </trkpt>
      <trkpt lat="60.39018" lon="5.32105">
        <ele>78.500541</ele>
        <time>2020-07-25T07:31:54.989Z</time>
      </trkpt>
      <trkpt lat="60.39018" lon="5.32123">
        <ele>78.500541</ele>
        <time>2020-07-25T07:31:58.006Z</time>
      </trkpt>
      <trkpt lat="60.39026" lon="5.32137">
        <ele>78.500541</ele>
        <time>2020-07-25T07:32:01.962Z</time>
      </trkpt>
      <trkpt lat="60.39032" lon="5.3215">
        <ele>79.008656</ele>
        <time>2020-07-25T07:32:05.948Z</time>
      </trkpt>
      <trkpt lat="60.3904" lon="5.32163">
        <ele>79.657499</ele>
        <time>2020-07-25T07:32:09.960Z</time>
      </trkpt>
      <trkpt lat="60.3905" lon="5.32173">
        <ele>80.395787</ele>
        <time>2020-07-25T07:32:13.964Z</time>
      </trkpt>
      <trkpt lat="60.39061" lon="5.32184">
        <ele>81.162741</ele>
        <time>2020-07-25T07:32:17.988Z</time>
      </trkpt>
      <trkpt lat="60.3907" lon="5.32191">
        <ele>81.768063</ele>
        <time>2020-07-25T07:32:20.977Z</time>
      </trkpt>
      <trkpt lat="60.3908" lon="5.32201">
        <ele>82.488289</ele>
        <time>2020-07-25T07:32:24.975Z</time>
      </trkpt>
      <trkpt lat="60.39087" lon="5.32213">
        <ele>83.107689</ele>
        <time>2020-07-25T07:32:32.984Z</time>
      </trkpt>
      <trkpt lat="60.39097" lon="5.32223">
        <ele>83.797281</ele>
        <time>2020-07-25T07:32:36.985Z</time>
      </trkpt>
      <trkpt lat="60.39106" lon="5.32241">
        <ele>84.617365</ele>
        <time>2020-07-25T07:32:39.975Z</time>
      </trkpt>
      <trkpt lat="60.39115" lon="5.32255">
        <ele>85.332092</ele>
        <time>2020-07-25T07:32:41.954Z</time>
      </trkpt>
      <trkpt lat="60.39126" lon="5.32263">
        <ele>86.112811</ele>
        <time>2020-07-25T07:32:43.955Z</time>
      </trkpt>
      <trkpt lat="60.39137" lon="5.32272">
        <ele>86.851483</ele>
        <time>2020-07-25T07:32:46.011Z</time>
      </trkpt>
      <trkpt lat="60.39148" lon="5.32286">
        <ele>87.675658</ele>
        <time>2020-07-25T07:32:48.988Z</time>
      </trkpt>
      <trkpt lat="60.39156" lon="5.32293">
        <ele>88.26565</ele>
        <time>2020-07-25T07:32:50.962Z</time>
      </trkpt>
      <trkpt lat="60.39169" lon="5.323">
        <ele>89.099108</ele>
        <time>2020-07-25T07:32:52.952Z</time>
      </trkpt>
      <trkpt lat="60.3918" lon="5.32309">
        <ele>89.893757</ele>
        <time>2020-07-25T07:32:55.003Z</time>
      </trkpt>
      <trkpt lat="60.3919" lon="5.32318">
        <ele>89.824772</ele>
        <time>2020-07-25T07:32:57.966Z</time>
      </trkpt>
      <trkpt lat="60.392" lon="5.32326">
        <ele>89.491931</ele>
        <time>2020-07-25T07:33:00.957Z</time>
      </trkpt>
      <trkpt lat="60.39209" lon="5.32336">
        <ele>89.160964</ele>
        <time>2020-07-25T07:33:03.991Z</time>
      </trkpt>
      <trkpt lat="60.3922" lon="5.32343">
        <ele>88.813044</ele>
        <time>2020-07-25T07:33:06.943Z</time>
      </trkpt>
      <trkpt lat="60.39231" lon="5.32351">
        <ele>88.460815</ele>
        <time>2020-07-25T07:33:09.971Z</time>
      </trkpt>
      <trkpt lat="60.3924" lon="5.32358">
        <ele>88.155806</ele>
        <time>2020-07-25T07:33:12.988Z</time>
      </trkpt>
      <trkpt lat="60.39249" lon="5.3237">
        <ele>87.846799</ele>
        <time>2020-07-25T07:33:15.967Z</time>
      </trkpt>
      <trkpt lat="60.39257" lon="5.32377">
        <ele>87.569062</ele>
        <time>2020-07-25T07:33:18.967Z</time>
      </trkpt>
      <trkpt lat="60.39265" lon="5.32384">
        <ele>87.290752</ele>
        <time>2020-07-25T07:33:21.963Z</time>
      </trkpt>
      <trkpt lat="60.39274" lon="5.32394">
        <ele>86.982723</ele>
        <time>2020-07-25T07:33:25.009Z</time>
      </trkpt>
      <trkpt lat="60.39282" lon="5.32402">
        <ele>86.707303</ele>
        <time>2020-07-25T07:33:28.024Z</time>
      </trkpt>
      <trkpt lat="60.39292" lon="5.32415">
        <ele>86.358499</ele>
        <time>2020-07-25T07:33:31.947Z</time>
      </trkpt>
      <trkpt lat="60.393" lon="5.32426">
        <ele>86.059659</ele>
        <time>2020-07-25T07:33:34.970Z</time>
      </trkpt>
      <trkpt lat="60.39309" lon="5.32438">
        <ele>85.709779</ele>
        <time>2020-07-25T07:33:38.975Z</time>
      </trkpt>
      <trkpt lat="60.39319" lon="5.32444">
        <ele>85.407809</ele>
        <time>2020-07-25T07:33:42.995Z</time>
      </trkpt>
      <trkpt lat="60.39329" lon="5.32448">
        <ele>85.085907</ele>
        <time>2020-07-25T07:33:46.951Z</time>
      </trkpt>
      <trkpt lat="60.3934" lon="5.32448">
        <ele>84.742741</ele>
        <time>2020-07-25T07:33:50.980Z</time>
      </trkpt>
      <trkpt lat="60.39348" lon="5.32463">
        <ele>84.072187</ele>
        <time>2020-07-25T07:33:54.996Z</time>
      </trkpt>
      <trkpt lat="60.39356" lon="5.32471">
        <ele>83.100823</ele>
        <time>2020-07-25T07:33:58.989Z</time>
      </trkpt>
      <trkpt lat="60.39365" lon="5.32475">
        <ele>82.102834</ele>
        <time>2020-07-25T07:34:01.975Z</time>
      </trkpt>
      <trkpt lat="60.39375" lon="5.32491">
        <ele>80.787449</ele>
        <time>2020-07-25T07:34:04.965Z</time>
      </trkpt>
      <trkpt lat="60.39385" lon="5.32505">
        <ele>79.473645</ele>
        <time>2020-07-25T07:34:07.940Z</time>
      </trkpt>
      <trkpt lat="60.39395" lon="5.32517">
        <ele>78.214772</ele>
        <time>2020-07-25T07:34:11.950Z</time>
      </trkpt>
      <trkpt lat="60.39403" lon="5.32529">
        <ele>77.089089</ele>
        <time>2020-07-25T07:34:14.974Z</time>
      </trkpt>
      <trkpt lat="60.39414" lon="5.32538">
        <ele>75.85491</ele>
        <time>2020-07-25T07:34:17.964Z</time>
      </trkpt>
      <trkpt lat="60.39425" lon="5.3253">
        <ele>74.600269</ele>
        <time>2020-07-25T07:34:20.964Z</time>
      </trkpt>
      <trkpt lat="60.39431" lon="5.32513">
        <ele>73.516732</ele>
        <time>2020-07-25T07:34:23.961Z</time>
      </trkpt>
      <trkpt lat="60.39437" lon="5.32498">
        <ele>72.494731</ele>
        <time>2020-07-25T07:34:26.944Z</time>
      </trkpt>
      <trkpt lat="60.39441" lon="5.32481">
        <ele>71.45601</ele>
        <time>2020-07-25T07:34:30.974Z</time>
      </trkpt>
      <trkpt lat="60.39446" lon="5.32462">
        <ele>70.302371</ele>
        <time>2020-07-25T07:34:35.962Z</time>
      </trkpt>
      <trkpt lat="60.39479" lon="5.32575">
        <ele>64.599675</ele>
        <time>2020-07-25T07:41:06.966Z</time>
      </trkpt>
      <trkpt lat="60.39492" lon="5.32585">
        <ele>64.194774</ele>
        <time>2020-07-25T07:41:08.978Z</time>
      </trkpt>
      <trkpt lat="60.39503" lon="5.32593">
        <ele>63.819056</ele>
        <time>2020-07-25T07:41:11.987Z</time>
      </trkpt>
      <trkpt lat="60.39515" lon="5.32602">
        <ele>63.431104</ele>
        <time>2020-07-25T07:41:14.967Z</time>
      </trkpt>
      <trkpt lat="60.39527" lon="5.32609">
        <ele>63.06601</ele>
        <time>2020-07-25T07:41:17.967Z</time>
      </trkpt>
      <trkpt lat="60.39539" lon="5.32611">
        <ele>62.698301</ele>
        <time>2020-07-25T07:41:20.995Z</time>
      </trkpt>
      <trkpt lat="60.39551" lon="5.32606">
        <ele>62.309295</ele>
        <time>2020-07-25T07:41:23.940Z</time>
      </trkpt>
      <trkpt lat="60.3956" lon="5.32596">
        <ele>62.008834</ele>
        <time>2020-07-25T07:41:25.969Z</time>
      </trkpt>
      <trkpt lat="60.39568" lon="5.32586">
        <ele>61.704735</ele>
        <time>2020-07-25T07:41:27.945Z</time>
      </trkpt>
      <trkpt lat="60.39576" lon="5.32575">
        <ele>61.403482</ele>
        <time>2020-07-25T07:41:29.944Z</time>
      </trkpt>
      <trkpt lat="60.39585" lon="5.32561">
        <ele>61.063128</ele>
        <time>2020-07-25T07:41:31.953Z</time>
      </trkpt>
      <trkpt lat="60.39594" lon="5.32544">
        <ele>60.706596</ele>
        <time>2020-07-25T07:41:33.943Z</time>
      </trkpt>
      <trkpt lat="60.39601" lon="5.3253">
        <ele>60.382163</ele>
        <time>2020-07-25T07:41:35.956Z</time>
      </trkpt>
      <trkpt lat="60.39609" lon="5.32517">
        <ele>60.080953</ele>
        <time>2020-07-25T07:41:37.936Z</time>
      </trkpt>
      <trkpt lat="60.39617" lon="5.32502">
        <ele>59.753717</ele>
        <time>2020-07-25T07:41:39.947Z</time>
      </trkpt>
      <trkpt lat="60.39625" lon="5.32489">
        <ele>59.408179</ele>
        <time>2020-07-25T07:41:41.940Z</time>
      </trkpt>
      <trkpt lat="60.39633" lon="5.32475">
        <ele>59.031814</ele>
        <time>2020-07-25T07:41:43.944Z</time>
      </trkpt>
      <trkpt lat="60.39641" lon="5.32461">
        <ele>58.649825</ele>
        <time>2020-07-25T07:41:45.952Z</time>
      </trkpt>
      <trkpt lat="60.39649" lon="5.32446">
        <ele>58.276134</ele>
        <time>2020-07-25T07:41:47.963Z</time>
      </trkpt>
      <trkpt lat="60.39657" lon="5.32431">
        <ele>57.886763</ele>
        <time>2020-07-25T07:41:49.947Z</time>
      </trkpt>
      <trkpt lat="60.39664" lon="5.32413">
        <ele>57.493462</ele>
        <time>2020-07-25T07:41:51.954Z</time>
      </trkpt>
      <trkpt lat="60.39669" lon="5.32394">
        <ele>57.095741</ele>
        <time>2020-07-25T07:41:53.956Z</time>
      </trkpt>
      <trkpt lat="60.39675" lon="5.32373">
        <ele>56.690688</ele>
        <time>2020-07-25T07:41:55.951Z</time>
      </trkpt>
      <trkpt lat="60.39682" lon="5.32355">
        <ele>56.292276</ele>
        <time>2020-07-25T07:41:57.962Z</time>
      </trkpt>
      <trkpt lat="60.3969" lon="5.32337">
        <ele>55.863648</ele>
        <time>2020-07-25T07:41:59.947Z</time>
      </trkpt>
      <trkpt lat="60.39697" lon="5.32319">
        <ele>55.451454</ele>
        <time>2020-07-25T07:42:01.979Z</time>
      </trkpt>
      <trkpt lat="60.39704" lon="5.32301">
        <ele>55.064861</ele>
        <time>2020-07-25T07:42:03.953Z</time>
      </trkpt>
      <trkpt lat="60.39709" lon="5.32284">
        <ele>54.704415</ele>
        <time>2020-07-25T07:42:05.952Z</time>
      </trkpt>
      <trkpt lat="60.39716" lon="5.3227">
        <ele>54.367276</ele>
        <time>2020-07-25T07:42:07.958Z</time>
      </trkpt>
      <trkpt lat="60.39723" lon="5.32255">
        <ele>54.007774</ele>
        <time>2020-07-25T07:42:09.955Z</time>
      </trkpt>
      <trkpt lat="60.3973" lon="5.3224">
        <ele>53.635814</ele>
        <time>2020-07-25T07:42:11.968Z</time>
      </trkpt>
      <trkpt lat="60.39738" lon="5.32225">
        <ele>53.255164</ele>
        <time>2020-07-25T07:42:13.949Z</time>
      </trkpt>
      <trkpt lat="60.39745" lon="5.32209">
        <ele>53.263396</ele>
        <time>2020-07-25T07:42:15.972Z</time>
      </trkpt>
      <trkpt lat="60.39753" lon="5.32194">
        <ele>53.273198</ele>
        <time>2020-07-25T07:42:17.962Z</time>
      </trkpt>
      <trkpt lat="60.39763" lon="5.32184">
        <ele>53.283055</ele>
        <time>2020-07-25T07:42:19.963Z</time>
      </trkpt>
      <trkpt lat="60.39773" lon="5.32173">
        <ele>53.293792</ele>
        <time>2020-07-25T07:42:21.948Z</time>
      </trkpt>
      <trkpt lat="60.39783" lon="5.32159">
        <ele>53.304354</ele>
        <time>2020-07-25T07:42:23.941Z</time>
      </trkpt>
      <trkpt lat="60.3979" lon="5.32144">
        <ele>53.313851</ele>
        <time>2020-07-25T07:42:25.947Z</time>
      </trkpt>
      <trkpt lat="60.39797" lon="5.32128">
        <ele>53.323128</ele>
        <time>2020-07-25T07:42:27.955Z</time>
      </trkpt>
      <trkpt lat="60.39804" lon="5.32113">
        <ele>53.332404</ele>
        <time>2020-07-25T07:42:29.960Z</time>
      </trkpt>
      <trkpt lat="60.39811" lon="5.32099">
        <ele>53.341395</ele>
        <time>2020-07-25T07:42:31.959Z</time>
      </trkpt>
      <trkpt lat="60.39818" lon="5.32085">
        <ele>53.350445</ele>
        <time>2020-07-25T07:42:33.959Z</time>
      </trkpt>
      <trkpt lat="60.39825" lon="5.32071">
        <ele>53.359498</ele>
        <time>2020-07-25T07:42:35.962Z</time>
      </trkpt>
      <trkpt lat="60.39832" lon="5.32059">
        <ele>53.367999</ele>
        <time>2020-07-25T07:42:37.940Z</time>
      </trkpt>
      <trkpt lat="60.39841" lon="5.32043">
        <ele>53.378987</ele>
        <time>2020-07-25T07:42:40.941Z</time>
      </trkpt>
      <trkpt lat="60.39851" lon="5.32022">
        <ele>53.391782</ele>
        <time>2020-07-25T07:42:43.952Z</time>
      </trkpt>
      <trkpt lat="60.39858" lon="5.32007">
        <ele>53.401409</ele>
        <time>2020-07-25T07:42:45.963Z</time>
      </trkpt>
      <trkpt lat="60.39866" lon="5.31991">
        <ele>53.411323</ele>
        <time>2020-07-25T07:42:47.950Z</time>
      </trkpt>
      <trkpt lat="60.39871" lon="5.31973">
        <ele>53.645372</ele>
        <time>2020-07-25T07:42:49.977Z</time>
      </trkpt>
      <trkpt lat="60.39876" lon="5.31952">
        <ele>54.322719</ele>
        <time>2020-07-25T07:42:51.951Z</time>
      </trkpt>
      <trkpt lat="60.39879" lon="5.31932">
        <ele>54.952701</ele>
        <time>2020-07-25T07:42:53.985Z</time>
      </trkpt>
      <trkpt lat="60.39881" lon="5.31907">
        <ele>55.711694</ele>
        <time>2020-07-25T07:42:55.946Z</time>
      </trkpt>
      <trkpt lat="60.39881" lon="5.31883">
        <ele>56.405091</ele>
        <time>2020-07-25T07:42:57.967Z</time>
      </trkpt>
      <trkpt lat="60.3988" lon="5.31863">
        <ele>57.022414</ele>
        <time>2020-07-25T07:42:59.947Z</time>
      </trkpt>
      <trkpt lat="60.39881" lon="5.31843">
        <ele>57.60666</ele>
        <time>2020-07-25T07:43:01.948Z</time>
      </trkpt>
      <trkpt lat="60.39884" lon="5.31826">
        <ele>58.161467</ele>
        <time>2020-07-25T07:43:03.980Z</time>
      </trkpt>
      <trkpt lat="60.39889" lon="5.31808">
        <ele>58.754379</ele>
        <time>2020-07-25T07:43:05.952Z</time>
      </trkpt>
      <trkpt lat="60.39896" lon="5.31794">
        <ele>59.342534</ele>
        <time>2020-07-25T07:43:07.966Z</time>
      </trkpt>
      <trkpt lat="60.39904" lon="5.3178">
        <ele>59.990098</ele>
        <time>2020-07-25T07:43:09.968Z</time>
      </trkpt>
      <trkpt lat="60.39913" lon="5.31765">
        <ele>60.661047</ele>
        <time>2020-07-25T07:43:11.976Z</time>
      </trkpt>
      <trkpt lat="60.39922" lon="5.3175">
        <ele>61.382626</ele>
        <time>2020-07-25T07:43:13.971Z</time>
      </trkpt>
      <trkpt lat="60.39931" lon="5.31734">
        <ele>62.115153</ele>
        <time>2020-07-25T07:43:15.954Z</time>
      </trkpt>
      <trkpt lat="60.39941" lon="5.31718">
        <ele>62.852974</ele>
        <time>2020-07-25T07:43:17.944Z</time>
      </trkpt>
      <trkpt lat="60.39949" lon="5.317">
        <ele>63.589195</ele>
        <time>2020-07-25T07:43:19.966Z</time>
      </trkpt>
      <trkpt lat="60.39957" lon="5.31682">
        <ele>64.264802</ele>
        <time>2020-07-25T07:43:21.949Z</time>
      </trkpt>
      <trkpt lat="60.39967" lon="5.31669">
        <ele>64.43385</ele>
        <time>2020-07-25T07:43:23.961Z</time>
      </trkpt>
      <trkpt lat="60.39977" lon="5.31659">
        <ele>64.599235</ele>
        <time>2020-07-25T07:43:25.942Z</time>
      </trkpt>
      <trkpt lat="60.39986" lon="5.31652">
        <ele>64.751106</ele>
        <time>2020-07-25T07:43:27.942Z</time>
      </trkpt>
      <trkpt lat="60.39996" lon="5.31646">
        <ele>64.897326</ele>
        <time>2020-07-25T07:43:29.971Z</time>
      </trkpt>
      <trkpt lat="60.40005" lon="5.31639">
        <ele>65.043584</ele>
        <time>2020-07-25T07:43:31.949Z</time>
      </trkpt>
      <trkpt lat="60.40014" lon="5.31631">
        <ele>65.191499</ele>
        <time>2020-07-25T07:43:33.962Z</time>
      </trkpt>
      <trkpt lat="60.40023" lon="5.31624">
        <ele>65.339456</ele>
        <time>2020-07-25T07:43:35.965Z</time>
      </trkpt>
      <trkpt lat="60.40033" lon="5.31615">
        <ele>65.495905</ele>
        <time>2020-07-25T07:43:37.950Z</time>
      </trkpt>
      <trkpt lat="60.40043" lon="5.31604">
        <ele>65.664277</ele>
        <time>2020-07-25T07:43:39.958Z</time>
      </trkpt>
      <trkpt lat="60.40052" lon="5.31593">
        <ele>65.826466</ele>
        <time>2020-07-25T07:43:41.963Z</time>
      </trkpt>
      <trkpt lat="60.40061" lon="5.31583">
        <ele>65.983118</ele>
        <time>2020-07-25T07:43:43.963Z</time>
      </trkpt>
      <trkpt lat="60.4007" lon="5.31573">
        <ele>66.126522</ele>
        <time>2020-07-25T07:43:45.953Z</time>
      </trkpt>
      <trkpt lat="60.40078" lon="5.31563">
        <ele>66.270677</ele>
        <time>2020-07-25T07:43:47.973Z</time>
      </trkpt>
      <trkpt lat="60.40087" lon="5.31552">
        <ele>66.426794</ele>
        <time>2020-07-25T07:43:49.994Z</time>
      </trkpt>
      <trkpt lat="60.40096" lon="5.31541">
        <ele>66.58291</ele>
        <time>2020-07-25T07:43:51.951Z</time>
      </trkpt>
      <trkpt lat="60.40107" lon="5.31532">
        <ele>66.763252</ele>
        <time>2020-07-25T07:43:53.943Z</time>
      </trkpt>
      <trkpt lat="60.40119" lon="5.31535">
        <ele>66.892087</ele>
        <time>2020-07-25T07:43:55.947Z</time>
      </trkpt>
      <trkpt lat="60.40127" lon="5.31549">
        <ele>66.615836</ele>
        <time>2020-07-25T07:43:57.980Z</time>
      </trkpt>
      <trkpt lat="60.4013" lon="5.31573">
        <ele>66.290485</ele>
        <time>2020-07-25T07:43:59.946Z</time>
      </trkpt>
      <trkpt lat="60.40132" lon="5.31598">
        <ele>65.96241</ele>
        <time>2020-07-25T07:44:01.965Z</time>
      </trkpt>
      <trkpt lat="60.40134" lon="5.31621">
        <ele>65.660365</ele>
        <time>2020-07-25T07:44:03.947Z</time>
      </trkpt>
      <trkpt lat="60.40137" lon="5.31643">
        <ele>65.356003</ele>
        <time>2020-07-25T07:44:05.944Z</time>
      </trkpt>
      <trkpt lat="60.4014" lon="5.31666">
        <ele>65.047221</ele>
        <time>2020-07-25T07:44:07.943Z</time>
      </trkpt>
      <trkpt lat="60.40144" lon="5.31689">
        <ele>64.732189</ele>
        <time>2020-07-25T07:44:09.972Z</time>
      </trkpt>
      <trkpt lat="60.40148" lon="5.31712">
        <ele>64.407583</ele>
        <time>2020-07-25T07:44:11.953Z</time>
      </trkpt>
      <trkpt lat="60.40155" lon="5.31732">
        <ele>64.094308</ele>
        <time>2020-07-25T07:44:13.958Z</time>
      </trkpt>
      <trkpt lat="60.40161" lon="5.31751">
        <ele>63.800797</ele>
        <time>2020-07-25T07:44:15.948Z</time>
      </trkpt>
      <trkpt lat="60.40168" lon="5.31768">
        <ele>63.514658</ele>
        <time>2020-07-25T07:44:17.953Z</time>
      </trkpt>
      <trkpt lat="60.40175" lon="5.31783">
        <ele>63.240811</ele>
        <time>2020-07-25T07:44:19.947Z</time>
      </trkpt>
      <trkpt lat="60.40182" lon="5.31798">
        <ele>62.977253</ele>
        <time>2020-07-25T07:44:21.953Z</time>
      </trkpt>
      <trkpt lat="60.40187" lon="5.31814">
        <ele>62.713785</ele>
        <time>2020-07-25T07:44:23.948Z</time>
      </trkpt>
      <trkpt lat="60.40192" lon="5.31832">
        <ele>62.436695</ele>
        <time>2020-07-25T07:44:26.010Z</time>
      </trkpt>
      <trkpt lat="60.40196" lon="5.31851">
        <ele>62.168376</ele>
        <time>2020-07-25T07:44:27.943Z</time>
      </trkpt>
      <trkpt lat="60.40198" lon="5.31871">
        <ele>61.898139</ele>
        <time>2020-07-25T07:44:29.957Z</time>
      </trkpt>
      <trkpt lat="60.40198" lon="5.31892">
        <ele>61.607189</ele>
        <time>2020-07-25T07:44:31.943Z</time>
      </trkpt>
      <trkpt lat="60.40197" lon="5.31914">
        <ele>61.310634</ele>
        <time>2020-07-25T07:44:33.961Z</time>
      </trkpt>
      <trkpt lat="60.40195" lon="5.31934">
        <ele>61.033098</ele>
        <time>2020-07-25T07:44:35.955Z</time>
      </trkpt>
      <trkpt lat="60.40194" lon="5.31956">
        <ele>60.741593</ele>
        <time>2020-07-25T07:44:37.955Z</time>
      </trkpt>
      <trkpt lat="60.40193" lon="5.31977">
        <ele>60.448103</ele>
        <time>2020-07-25T07:44:39.954Z</time>
      </trkpt>
      <trkpt lat="60.40194" lon="5.31999">
        <ele>60.153522</ele>
        <time>2020-07-25T07:44:41.962Z</time>
      </trkpt>
      <trkpt lat="60.40198" lon="5.32019">
        <ele>59.864744</ele>
        <time>2020-07-25T07:44:43.952Z</time>
      </trkpt>
      <trkpt lat="60.40204" lon="5.32035">
        <ele>59.592688</ele>
        <time>2020-07-25T07:44:45.952Z</time>
      </trkpt>
      <trkpt lat="60.40212" lon="5.32048">
        <ele>59.304463</ele>
        <time>2020-07-25T07:44:47.972Z</time>
      </trkpt>
      <trkpt lat="60.40221" lon="5.3206">
        <ele>59.006177</ele>
        <time>2020-07-25T07:44:49.944Z</time>
      </trkpt>
      <trkpt lat="60.4023" lon="5.32071">
        <ele>58.726049</ele>
        <time>2020-07-25T07:44:51.977Z</time>
      </trkpt>
      <trkpt lat="60.40238" lon="5.32084">
        <ele>58.434479</ele>
        <time>2020-07-25T07:44:53.954Z</time>
      </trkpt>
      <trkpt lat="60.40247" lon="5.32095">
        <ele>58.139841</ele>
        <time>2020-07-25T07:44:55.991Z</time>
      </trkpt>
      <trkpt lat="60.40257" lon="5.32106">
        <ele>57.829667</ele>
        <time>2020-07-25T07:44:57.969Z</time>
      </trkpt>
      <trkpt lat="60.40267" lon="5.32118">
        <ele>57.516433</ele>
        <time>2020-07-25T07:44:59.957Z</time>
      </trkpt>
      <trkpt lat="60.40276" lon="5.32129">
        <ele>57.225331</ele>
        <time>2020-07-25T07:45:01.949Z</time>
      </trkpt>
      <trkpt lat="60.40285" lon="5.32139">
        <ele>58.22699</ele>
        <time>2020-07-25T07:45:03.960Z</time>
      </trkpt>
      <trkpt lat="60.40296" lon="5.32146">
        <ele>59.348154</ele>
        <time>2020-07-25T07:45:05.946Z</time>
      </trkpt>
      <trkpt lat="60.40306" lon="5.3215">
        <ele>60.465287</ele>
        <time>2020-07-25T07:45:07.958Z</time>
      </trkpt>
      <trkpt lat="60.40317" lon="5.32152">
        <ele>61.555331</ele>
        <time>2020-07-25T07:45:09.945Z</time>
      </trkpt>
      <trkpt lat="60.40327" lon="5.3215">
        <ele>62.606107</ele>
        <time>2020-07-25T07:45:11.954Z</time>
      </trkpt>
      <trkpt lat="60.40338" lon="5.32147">
        <ele>63.714937</ele>
        <time>2020-07-25T07:45:13.939Z</time>
      </trkpt>
      <trkpt lat="60.40349" lon="5.32143">
        <ele>64.83023</ele>
        <time>2020-07-25T07:45:15.957Z</time>
      </trkpt>
      <trkpt lat="60.40358" lon="5.32142">
        <ele>65.775362</ele>
        <time>2020-07-25T07:45:17.966Z</time>
      </trkpt>
      <trkpt lat="60.4037" lon="5.32148">
        <ele>67.078144</ele>
        <time>2020-07-25T07:45:20.967Z</time>
      </trkpt>
      <trkpt lat="60.40541" lon="5.32334">
        <ele>70.357244</ele>
        <time>2020-07-25T07:45:55.074Z</time>
      </trkpt>
      <trkpt lat="60.40531" lon="5.32361">
        <ele>69.534811</ele>
        <time>2020-07-25T07:45:58.960Z</time>
      </trkpt>
      <trkpt lat="60.40542" lon="5.32373">
        <ele>68.936306</ele>
        <time>2020-07-25T07:46:00.949Z</time>
      </trkpt>
      <trkpt lat="60.40553" lon="5.32385">
        <ele>68.345151</ele>
        <time>2020-07-25T07:46:03.937Z</time>
      </trkpt>
      <trkpt lat="60.40564" lon="5.3239">
        <ele>67.766009</ele>
        <time>2020-07-25T07:46:06.945Z</time>
      </trkpt>
      <trkpt lat="60.40576" lon="5.32386">
        <ele>67.21603</ele>
        <time>2020-07-25T07:46:08.936Z</time>
      </trkpt>
      <trkpt lat="60.40587" lon="5.32377">
        <ele>67.080204</ele>
        <time>2020-07-25T07:46:10.940Z</time>
      </trkpt>
      <trkpt lat="60.40597" lon="5.32365">
        <ele>67.179105</ele>
        <time>2020-07-25T07:46:12.943Z</time>
      </trkpt>
      <trkpt lat="60.40606" lon="5.32353">
        <ele>67.267849</ele>
        <time>2020-07-25T07:46:14.945Z</time>
      </trkpt>
      <trkpt lat="60.40616" lon="5.32341">
        <ele>67.35964</ele>
        <time>2020-07-25T07:46:16.950Z</time>
      </trkpt>
      <trkpt lat="60.40625" lon="5.32331">
        <ele>67.44773</ele>
        <time>2020-07-25T07:46:18.943Z</time>
      </trkpt>
      <trkpt lat="60.40635" lon="5.3232">
        <ele>67.536874</ele>
        <time>2020-07-25T07:46:20.945Z</time>
      </trkpt>
      <trkpt lat="60.40645" lon="5.32308">
        <ele>67.631815</ele>
        <time>2020-07-25T07:46:22.955Z</time>
      </trkpt>
      <trkpt lat="60.40654" lon="5.32295">
        <ele>67.72305</ele>
        <time>2020-07-25T07:46:24.968Z</time>
      </trkpt>
      <trkpt lat="60.40663" lon="5.32283">
        <ele>67.809515</ele>
        <time>2020-07-25T07:46:26.963Z</time>
      </trkpt>
      <trkpt lat="60.40672" lon="5.32271">
        <ele>67.898514</ele>
        <time>2020-07-25T07:46:28.957Z</time>
      </trkpt>
      <trkpt lat="60.40682" lon="5.32261">
        <ele>67.988782</ele>
        <time>2020-07-25T07:46:30.975Z</time>
      </trkpt>
      <trkpt lat="60.40691" lon="5.32251">
        <ele>68.077062</ele>
        <time>2020-07-25T07:46:32.956Z</time>
      </trkpt>
      <trkpt lat="60.407" lon="5.32241">
        <ele>68.162948</ele>
        <time>2020-07-25T07:46:34.980Z</time>
      </trkpt>
      <trkpt lat="60.40711" lon="5.32232">
        <ele>68.255286</ele>
        <time>2020-07-25T07:46:36.937Z</time>
      </trkpt>
      <trkpt lat="60.40722" lon="5.32226">
        <ele>68.35378</ele>
        <time>2020-07-25T07:46:38.997Z</time>
      </trkpt>
      <trkpt lat="60.40733" lon="5.32226">
        <ele>68.443098</ele>
        <time>2020-07-25T07:46:40.955Z</time>
      </trkpt>
      <trkpt lat="60.40745" lon="5.32227">
        <ele>68.101161</ele>
        <time>2020-07-25T07:46:42.959Z</time>
      </trkpt>
      <trkpt lat="60.40756" lon="5.32231">
        <ele>67.362612</ele>
        <time>2020-07-25T07:46:44.957Z</time>
      </trkpt>
      <trkpt lat="60.40767" lon="5.32236">
        <ele>66.621054</ele>
        <time>2020-07-25T07:46:46.968Z</time>
      </trkpt>
      <trkpt lat="60.4078" lon="5.3224">
        <ele>65.816098</ele>
        <time>2020-07-25T07:46:48.946Z</time>
      </trkpt>
      <trkpt lat="60.40791" lon="5.32244">
        <ele>65.051025</ele>
        <time>2020-07-25T07:46:50.956Z</time>
      </trkpt>
      <trkpt lat="60.40802" lon="5.32247">
        <ele>64.308223</ele>
        <time>2020-07-25T07:46:52.947Z</time>
      </trkpt>
      <trkpt lat="60.40815" lon="5.32248">
        <ele>63.49942</ele>
        <time>2020-07-25T07:46:54.972Z</time>
      </trkpt>
      <trkpt lat="60.40827" lon="5.32248">
        <ele>62.697273</ele>
        <time>2020-07-25T07:46:56.999Z</time>
      </trkpt>
      <trkpt lat="60.40839" lon="5.32248">
        <ele>61.934218</ele>
        <time>2020-07-25T07:46:58.945Z</time>
      </trkpt>
      <trkpt lat="60.4085" lon="5.3225">
        <ele>61.20895</ele>
        <time>2020-07-25T07:47:00.950Z</time>
      </trkpt>
      <trkpt lat="60.40859" lon="5.32254">
        <ele>60.591736</ele>
        <time>2020-07-25T07:47:02.980Z</time>
      </trkpt>
      <trkpt lat="60.40871" lon="5.32257">
        <ele>59.80971</ele>
        <time>2020-07-25T07:47:05.987Z</time>
      </trkpt>
      <trkpt lat="60.40882" lon="5.32255">
        <ele>59.101524</ele>
        <time>2020-07-25T07:47:07.952Z</time>
      </trkpt>
      <trkpt lat="60.40894" lon="5.32252">
        <ele>58.293606</ele>
        <time>2020-07-25T07:47:10.965Z</time>
      </trkpt>
      <trkpt lat="60.40905" lon="5.32258">
        <ele>57.546032</ele>
        <time>2020-07-25T07:47:13.964Z</time>
      </trkpt>
      <trkpt lat="60.40916" lon="5.32263">
        <ele>56.824513</ele>
        <time>2020-07-25T07:47:16.939Z</time>
      </trkpt>
      <trkpt lat="60.40928" lon="5.32266">
        <ele>56.698338</ele>
        <time>2020-07-25T07:47:19.955Z</time>
      </trkpt>
      <trkpt lat="60.40937" lon="5.32268">
        <ele>56.643476</ele>
        <time>2020-07-25T07:47:21.971Z</time>
      </trkpt>
      <trkpt lat="60.40949" lon="5.32271">
        <ele>56.570663</ele>
        <time>2020-07-25T07:47:24.957Z</time>
      </trkpt>
      <trkpt lat="60.40959" lon="5.32274">
        <ele>56.516138</ele>
        <time>2020-07-25T07:47:26.950Z</time>
      </trkpt>
      <trkpt lat="60.40968" lon="5.32281">
        <ele>56.458831</ele>
        <time>2020-07-25T07:47:28.955Z</time>
      </trkpt>
      <trkpt lat="60.40977" lon="5.32288">
        <ele>56.401276</ele>
        <time>2020-07-25T07:47:30.966Z</time>
      </trkpt>
      <trkpt lat="60.40988" lon="5.32291">
        <ele>56.336461</ele>
        <time>2020-07-25T07:47:32.966Z</time>
      </trkpt>
      <trkpt lat="60.41" lon="5.32296">
        <ele>56.263706</ele>
        <time>2020-07-25T07:47:34.950Z</time>
      </trkpt>
      <trkpt lat="60.41014" lon="5.32299">
        <ele>56.185078</ele>
        <time>2020-07-25T07:47:36.957Z</time>
      </trkpt>
      <trkpt lat="60.41025" lon="5.32305">
        <ele>56.119359</ele>
        <time>2020-07-25T07:47:38.969Z</time>
      </trkpt>
      <trkpt lat="60.41036" lon="5.32311">
        <ele>56.052212</ele>
        <time>2020-07-25T07:47:40.968Z</time>
      </trkpt>
      <trkpt lat="60.41046" lon="5.32317">
        <ele>55.987464</ele>
        <time>2020-07-25T07:47:42.952Z</time>
      </trkpt>
      <trkpt lat="60.41058" lon="5.32322">
        <ele>55.919184</ele>
        <time>2020-07-25T07:47:44.962Z</time>
      </trkpt>
      <trkpt lat="60.41068" lon="5.32325">
        <ele>55.860876</ele>
        <time>2020-07-25T07:47:46.943Z</time>
      </trkpt>
      <trkpt lat="60.41077" lon="5.3233">
        <ele>55.803138</ele>
        <time>2020-07-25T07:47:48.986Z</time>
      </trkpt>
      <trkpt lat="60.4109" lon="5.32332">
        <ele>55.730703</ele>
        <time>2020-07-25T07:47:51.946Z</time>
      </trkpt>
      <trkpt lat="60.41102" lon="5.32337">
        <ele>55.985559</ele>
        <time>2020-07-25T07:47:54.947Z</time>
      </trkpt>
      <trkpt lat="60.41112" lon="5.32337">
        <ele>56.243169</ele>
        <time>2020-07-25T07:47:56.949Z</time>
      </trkpt>
      <trkpt lat="60.41121" lon="5.32337">
        <ele>56.500722</ele>
        <time>2020-07-25T07:47:58.975Z</time>
      </trkpt>
      <trkpt lat="60.41131" lon="5.32336">
        <ele>56.761334</ele>
        <time>2020-07-25T07:48:00.962Z</time>
      </trkpt>
      <trkpt lat="60.4114" lon="5.32335">
        <ele>57.019653</ele>
        <time>2020-07-25T07:48:02.946Z</time>
      </trkpt>
      <trkpt lat="60.4115" lon="5.32332">
        <ele>57.288473</ele>
        <time>2020-07-25T07:48:04.948Z</time>
      </trkpt>
      <trkpt lat="60.4116" lon="5.32329">
        <ele>57.57375</ele>
        <time>2020-07-25T07:48:06.954Z</time>
      </trkpt>
      <trkpt lat="60.4117" lon="5.32325">
        <ele>57.8547</ele>
        <time>2020-07-25T07:48:08.941Z</time>
      </trkpt>
      <trkpt lat="60.41181" lon="5.32321">
        <ele>58.159964</ele>
        <time>2020-07-25T07:48:10.944Z</time>
      </trkpt>
      <trkpt lat="60.41192" lon="5.32314">
        <ele>58.471457</ele>
        <time>2020-07-25T07:48:12.946Z</time>
      </trkpt>
      <trkpt lat="60.41203" lon="5.32313">
        <ele>58.784519</ele>
        <time>2020-07-25T07:48:14.945Z</time>
      </trkpt>
      <trkpt lat="60.41215" lon="5.32311">
        <ele>59.094449</ele>
        <time>2020-07-25T07:48:16.935Z</time>
      </trkpt>
      <trkpt lat="60.41226" lon="5.32306">
        <ele>59.402858</ele>
        <time>2020-07-25T07:48:18.949Z</time>
      </trkpt>
      <trkpt lat="60.41236" lon="5.32301">
        <ele>59.697167</ele>
        <time>2020-07-25T07:48:20.951Z</time>
      </trkpt>
      <trkpt lat="60.41245" lon="5.32296">
        <ele>59.957104</ele>
        <time>2020-07-25T07:48:22.956Z</time>
      </trkpt>
      <trkpt lat="60.41254" lon="5.32291">
        <ele>60.212025</ele>
        <time>2020-07-25T07:48:24.950Z</time>
      </trkpt>
      <trkpt lat="60.41263" lon="5.32285">
        <ele>60.460348</ele>
        <time>2020-07-25T07:48:26.944Z</time>
      </trkpt>
      <trkpt lat="60.41274" lon="5.32277">
        <ele>61.40644</ele>
        <time>2020-07-25T07:48:29.974Z</time>
      </trkpt>
      <trkpt lat="60.41283" lon="5.32271">
        <ele>62.824594</ele>
        <time>2020-07-25T07:48:32.953Z</time>
      </trkpt>
      <trkpt lat="60.41293" lon="5.32266">
        <ele>64.215018</ele>
        <time>2020-07-25T07:48:35.950Z</time>
      </trkpt>
      <trkpt lat="60.41301" lon="5.32256">
        <ele>65.62492</ele>
        <time>2020-07-25T07:48:39.949Z</time>
      </trkpt>
      <trkpt lat="60.4131" lon="5.32245">
        <ele>67.036079</ele>
        <time>2020-07-25T07:48:43.963Z</time>
      </trkpt>
      <trkpt lat="60.4132" lon="5.32237">
        <ele>68.635365</ele>
        <time>2020-07-25T07:48:47.970Z</time>
      </trkpt>
      <trkpt lat="60.41331" lon="5.3223">
        <ele>70.261692</ele>
        <time>2020-07-25T07:48:51.945Z</time>
      </trkpt>
      <trkpt lat="60.41342" lon="5.32221">
        <ele>71.968806</ele>
        <time>2020-07-25T07:48:55.937Z</time>
      </trkpt>
      <trkpt lat="60.41351" lon="5.32215">
        <ele>73.285384</ele>
        <time>2020-07-25T07:48:58.941Z</time>
      </trkpt>
      <trkpt lat="60.41359" lon="5.32209">
        <ele>74.588439</ele>
        <time>2020-07-25T07:49:01.938Z</time>
      </trkpt>
      <trkpt lat="60.41369" lon="5.322">
        <ele>76.1158</ele>
        <time>2020-07-25T07:49:05.954Z</time>
      </trkpt>
      <trkpt lat="60.41379" lon="5.32189">
        <ele>77.715524</ele>
        <time>2020-07-25T07:49:09.953Z</time>
      </trkpt>
      <trkpt lat="60.41388" lon="5.32177">
        <ele>79.327609</ele>
        <time>2020-07-25T07:49:13.956Z</time>
      </trkpt>
      <trkpt lat="60.41399" lon="5.32166">
        <ele>81.039699</ele>
        <time>2020-07-25T07:49:17.968Z</time>
      </trkpt>
      <trkpt lat="60.41407" lon="5.32155">
        <ele>82.383005</ele>
        <time>2020-07-25T07:49:20.958Z</time>
      </trkpt>
      <trkpt lat="60.41416" lon="5.32144">
        <ele>84.002286</ele>
        <time>2020-07-25T07:49:24.954Z</time>
      </trkpt>
      <trkpt lat="60.41424" lon="5.32134">
        <ele>85.315079</ele>
        <time>2020-07-25T07:49:27.948Z</time>
      </trkpt>
      <trkpt lat="60.41432" lon="5.32123">
        <ele>86.40243</ele>
        <time>2020-07-25T07:49:31.954Z</time>
      </trkpt>
      <trkpt lat="60.41441" lon="5.32111">
        <ele>86.133504</ele>
        <time>2020-07-25T07:49:35.957Z</time>
      </trkpt>
      <trkpt lat="60.4145" lon="5.32104">
        <ele>85.919625</ele>
        <time>2020-07-25T07:49:38.971Z</time>
      </trkpt>
      <trkpt lat="60.4146" lon="5.32093">
        <ele>85.633574</ele>
        <time>2020-07-25T07:49:42.969Z</time>
      </trkpt>
      <trkpt lat="60.4147" lon="5.32081">
        <ele>85.368149</ele>
        <time>2020-07-25T07:49:46.948Z</time>
      </trkpt>
      <trkpt lat="60.41478" lon="5.32071">
        <ele>85.141179</ele>
        <time>2020-07-25T07:49:50.949Z</time>
      </trkpt>
      <trkpt lat="60.41487" lon="5.3206">
        <ele>84.892632</ele>
        <time>2020-07-25T07:49:54.952Z</time>
      </trkpt>
      <trkpt lat="60.41496" lon="5.32049">
        <ele>84.642048</ele>
        <time>2020-07-25T07:49:58.951Z</time>
      </trkpt>
      <trkpt lat="60.41504" lon="5.32036">
        <ele>84.389022</ele>
        <time>2020-07-25T07:50:02.963Z</time>
      </trkpt>
      <trkpt lat="60.41513" lon="5.32025">
        <ele>84.147982</ele>
        <time>2020-07-25T07:50:06.950Z</time>
      </trkpt>
      <trkpt lat="60.4152" lon="5.32011">
        <ele>83.901092</ele>
        <time>2020-07-25T07:50:10.953Z</time>
      </trkpt>
      <trkpt lat="60.41529" lon="5.31997">
        <ele>83.632142</ele>
        <time>2020-07-25T07:50:14.944Z</time>
      </trkpt>
      <trkpt lat="60.41536" lon="5.31985">
        <ele>83.418683</ele>
        <time>2020-07-25T07:50:17.944Z</time>
      </trkpt>
      <trkpt lat="60.41543" lon="5.31965">
        <ele>83.128987</ele>
        <time>2020-07-25T07:50:21.951Z</time>
      </trkpt>
      <trkpt lat="60.41549" lon="5.31946">
        <ele>82.866005</ele>
        <time>2020-07-25T07:50:24.953Z</time>
      </trkpt>
      <trkpt lat="60.41556" lon="5.31924">
        <ele>82.563245</ele>
        <time>2020-07-25T07:50:27.955Z</time>
      </trkpt>
      <trkpt lat="60.41564" lon="5.31902">
        <ele>82.243515</ele>
        <time>2020-07-25T07:50:30.957Z</time>
      </trkpt>
      <trkpt lat="60.4157" lon="5.31885">
        <ele>82.292585</ele>
        <time>2020-07-25T07:50:32.944Z</time>
      </trkpt>
      <trkpt lat="60.41576" lon="5.31867">
        <ele>82.530326</ele>
        <time>2020-07-25T07:50:34.971Z</time>
      </trkpt>
      <trkpt lat="60.41583" lon="5.3185">
        <ele>82.760354</ele>
        <time>2020-07-25T07:50:36.941Z</time>
      </trkpt>
      <trkpt lat="60.41588" lon="5.31833">
        <ele>82.980646</ele>
        <time>2020-07-25T07:50:38.946Z</time>
      </trkpt>
      <trkpt lat="60.41594" lon="5.31815">
        <ele>83.200217</ele>
        <time>2020-07-25T07:50:40.976Z</time>
      </trkpt>
      <trkpt lat="60.41598" lon="5.31798">
        <ele>83.410842</ele>
        <time>2020-07-25T07:50:42.958Z</time>
      </trkpt>
      <trkpt lat="60.41603" lon="5.31781">
        <ele>83.622539</ele>
        <time>2020-07-25T07:50:44.945Z</time>
      </trkpt>
      <trkpt lat="60.41608" lon="5.31764">
        <ele>83.821517</ele>
        <time>2020-07-25T07:50:46.949Z</time>
      </trkpt>
      <trkpt lat="60.41614" lon="5.3174">
        <ele>84.114989</ele>
        <time>2020-07-25T07:50:49.948Z</time>
      </trkpt>
      <trkpt lat="60.4162" lon="5.31715">
        <ele>84.404628</ele>
        <time>2020-07-25T07:50:52.951Z</time>
      </trkpt>
      <trkpt lat="60.41624" lon="5.31699">
        <ele>84.600929</ele>
        <time>2020-07-25T07:50:54.950Z</time>
      </trkpt>
      <trkpt lat="60.4163" lon="5.31678">
        <ele>84.868204</ele>
        <time>2020-07-25T07:50:57.965Z</time>
      </trkpt>
      <trkpt lat="60.41636" lon="5.31657">
        <ele>85.122258</ele>
        <time>2020-07-25T07:51:00.962Z</time>
      </trkpt>
      <trkpt lat="60.41642" lon="5.31639">
        <ele>85.356762</ele>
        <time>2020-07-25T07:51:03.942Z</time>
      </trkpt>
      <trkpt lat="60.41647" lon="5.31621">
        <ele>85.578796</ele>
        <time>2020-07-25T07:51:06.954Z</time>
      </trkpt>
      <trkpt lat="60.41654" lon="5.31601">
        <ele>85.828415</ele>
        <time>2020-07-25T07:51:10.943Z</time>
      </trkpt>
      <trkpt lat="60.4166" lon="5.31581">
        <ele>86.017796</ele>
        <time>2020-07-25T07:51:14.951Z</time>
      </trkpt>
      <trkpt lat="60.41665" lon="5.31562">
        <ele>85.943763</ele>
        <time>2020-07-25T07:51:17.937Z</time>
      </trkpt>
      <trkpt lat="60.41671" lon="5.31545">
        <ele>85.872881</ele>
        <time>2020-07-25T07:51:21.001Z</time>
      </trkpt>
      <trkpt lat="60.41677" lon="5.3153">
        <ele>85.80604</ele>
        <time>2020-07-25T07:51:23.963Z</time>
      </trkpt>
      <trkpt lat="60.41683" lon="5.31516">
        <ele>85.741459</ele>
        <time>2020-07-25T07:51:26.960Z</time>
      </trkpt>
      <trkpt lat="60.41688" lon="5.315">
        <ele>85.674057</ele>
        <time>2020-07-25T07:51:29.949Z</time>
      </trkpt>
      <trkpt lat="60.41694" lon="5.31484">
        <ele>85.609507</ele>
        <time>2020-07-25T07:51:32.943Z</time>
      </trkpt>
      <trkpt lat="60.41699" lon="5.31468">
        <ele>85.540999</ele>
        <time>2020-07-25T07:51:35.957Z</time>
      </trkpt>
      <trkpt lat="60.41707" lon="5.31452">
        <ele>85.462036</ele>
        <time>2020-07-25T07:51:38.942Z</time>
      </trkpt>
      <trkpt lat="60.41714" lon="5.31436">
        <ele>85.387565</ele>
        <time>2020-07-25T07:51:41.961Z</time>
      </trkpt>
      <trkpt lat="60.41722" lon="5.31423">
        <ele>85.318973</ele>
        <time>2020-07-25T07:51:44.949Z</time>
      </trkpt>
      <trkpt lat="60.41728" lon="5.3141">
        <ele>85.255074</ele>
        <time>2020-07-25T07:51:47.955Z</time>
      </trkpt>
      <trkpt lat="60.41737" lon="5.31395">
        <ele>85.174566</ele>
        <time>2020-07-25T07:51:51.959Z</time>
      </trkpt>
      <trkpt lat="60.41746" lon="5.31382">
        <ele>85.09945</ele>
        <time>2020-07-25T07:51:55.957Z</time>
      </trkpt>
      <trkpt lat="60.41754" lon="5.3137">
        <ele>85.02839</ele>
        <time>2020-07-25T07:51:59.946Z</time>
      </trkpt>
      <trkpt lat="60.41762" lon="5.31357">
        <ele>84.954532</ele>
        <time>2020-07-25T07:52:03.958Z</time>
      </trkpt>
      <trkpt lat="60.41768" lon="5.31342">
        <ele>84.886551</ele>
        <time>2020-07-25T07:52:07.963Z</time>
      </trkpt>
      <trkpt lat="60.41773" lon="5.31322">
        <ele>84.807312</ele>
        <time>2020-07-25T07:52:11.953Z</time>
      </trkpt>
      <trkpt lat="60.41779" lon="5.31303">
        <ele>84.928429</ele>
        <time>2020-07-25T07:52:15.948Z</time>
      </trkpt>
      <trkpt lat="60.41787" lon="5.31291">
        <ele>85.189799</ele>
        <time>2020-07-25T07:52:19.969Z</time>
      </trkpt>
      <trkpt lat="60.41796" lon="5.31294">
        <ele>85.436944</ele>
        <time>2020-07-25T07:52:22.946Z</time>
      </trkpt>
      <trkpt lat="60.41805" lon="5.31286">
        <ele>85.687566</ele>
        <time>2020-07-25T07:52:25.969Z</time>
      </trkpt>
      <trkpt lat="60.41812" lon="5.31271">
        <ele>85.955699</ele>
        <time>2020-07-25T07:52:28.945Z</time>
      </trkpt>
      <trkpt lat="60.41818" lon="5.31257">
        <ele>86.211794</ele>
        <time>2020-07-25T07:52:31.946Z</time>
      </trkpt>
      <trkpt lat="60.41827" lon="5.31241">
        <ele>86.510945</ele>
        <time>2020-07-25T07:52:35.945Z</time>
      </trkpt>
      <trkpt lat="60.41836" lon="5.31227">
        <ele>86.821938</ele>
        <time>2020-07-25T07:52:39.953Z</time>
      </trkpt>
      <trkpt lat="60.41843" lon="5.31216">
        <ele>87.06363</ele>
        <time>2020-07-25T07:52:42.954Z</time>
      </trkpt>
      <trkpt lat="60.41852" lon="5.31199">
        <ele>87.384069</ele>
        <time>2020-07-25T07:52:46.948Z</time>
      </trkpt>
      <trkpt lat="60.41859" lon="5.31186">
        <ele>87.62902</ele>
        <time>2020-07-25T07:52:49.942Z</time>
      </trkpt>
      <trkpt lat="60.41867" lon="5.31171">
        <ele>87.930844</ele>
        <time>2020-07-25T07:52:53.954Z</time>
      </trkpt>
      <trkpt lat="60.41875" lon="5.31157">
        <ele>88.21014</ele>
        <time>2020-07-25T07:52:57.950Z</time>
      </trkpt>
      <trkpt lat="60.41884" lon="5.31141">
        <ele>88.526894</ele>
        <time>2020-07-25T07:53:01.945Z</time>
      </trkpt>
      <trkpt lat="60.41894" lon="5.31129">
        <ele>88.824966</ele>
        <time>2020-07-25T07:53:05.974Z</time>
      </trkpt>
      <trkpt lat="60.419" lon="5.3111">
        <ele>89.11892</ele>
        <time>2020-07-25T07:53:09.949Z</time>
      </trkpt>
      <trkpt lat="60.41899" lon="5.3109">
        <ele>89.378152</ele>
        <time>2020-07-25T07:53:12.945Z</time>
      </trkpt>
      <trkpt lat="60.41899" lon="5.31068">
        <ele>89.6573</ele>
        <time>2020-07-25T07:53:16.954Z</time>
      </trkpt>
      <trkpt lat="60.41909" lon="5.31063">
        <ele>89.890464</ele>
        <time>2020-07-25T07:53:20.984Z</time>
      </trkpt>
      <trkpt lat="60.4192" lon="5.31057">
        <ele>90.172758</ele>
        <time>2020-07-25T07:53:24.975Z</time>
      </trkpt>
      <trkpt lat="60.41929" lon="5.31052">
        <ele>90.400934</ele>
        <time>2020-07-25T07:53:27.961Z</time>
      </trkpt>
      <trkpt lat="60.41939" lon="5.31044">
        <ele>90.679635</ele>
        <time>2020-07-25T07:53:30.963Z</time>
      </trkpt>
      <trkpt lat="60.41952" lon="5.31037">
        <ele>90.998387</ele>
        <time>2020-07-25T07:53:33.944Z</time>
      </trkpt>
      <trkpt lat="60.41963" lon="5.31029">
        <ele>91.288043</ele>
        <time>2020-07-25T07:53:36.973Z</time>
      </trkpt>
      <trkpt lat="60.41973" lon="5.31019">
        <ele>91.560101</ele>
        <time>2020-07-25T07:53:39.944Z</time>
      </trkpt>
      <trkpt lat="60.41983" lon="5.31008">
        <ele>91.84089</ele>
        <time>2020-07-25T07:53:42.954Z</time>
      </trkpt>
      <trkpt lat="60.41993" lon="5.30994">
        <ele>92.132619</ele>
        <time>2020-07-25T07:53:45.961Z</time>
      </trkpt>
      <trkpt lat="60.42" lon="5.30983">
        <ele>92.358676</ele>
        <time>2020-07-25T07:53:47.979Z</time>
      </trkpt>
      <trkpt lat="60.42008" lon="5.3097">
        <ele>92.608241</ele>
        <time>2020-07-25T07:53:49.967Z</time>
      </trkpt>
      <trkpt lat="60.42017" lon="5.30956">
        <ele>92.866539</ele>
        <time>2020-07-25T07:53:51.946Z</time>
      </trkpt>
      <trkpt lat="60.42025" lon="5.30943">
        <ele>93.120334</ele>
        <time>2020-07-25T07:53:53.959Z</time>
      </trkpt>
      <trkpt lat="60.42033" lon="5.30931">
        <ele>93.37533</ele>
        <time>2020-07-25T07:53:55.955Z</time>
      </trkpt>
      <trkpt lat="60.42042" lon="5.30918">
        <ele>93.642283</ele>
        <time>2020-07-25T07:53:57.963Z</time>
      </trkpt>
      <trkpt lat="60.4205" lon="5.30905">
        <ele>93.902439</ele>
        <time>2020-07-25T07:53:59.942Z</time>
      </trkpt>
      <trkpt lat="60.42058" lon="5.30894">
        <ele>94.325801</ele>
        <time>2020-07-25T07:54:01.951Z</time>
      </trkpt>
      <trkpt lat="60.42068" lon="5.30877">
        <ele>94.962373</ele>
        <time>2020-07-25T07:54:04.958Z</time>
      </trkpt>
      <trkpt lat="60.42079" lon="5.30862">
        <ele>95.603033</ele>
        <time>2020-07-25T07:54:07.955Z</time>
      </trkpt>
      <trkpt lat="60.4209" lon="5.30847">
        <ele>96.242149</ele>
        <time>2020-07-25T07:54:10.943Z</time>
      </trkpt>
      <trkpt lat="60.42099" lon="5.30833">
        <ele>96.812691</ele>
        <time>2020-07-25T07:54:13.942Z</time>
      </trkpt>
      <trkpt lat="60.42107" lon="5.30821">
        <ele>97.29073</ele>
        <time>2020-07-25T07:54:16.991Z</time>
      </trkpt>
      <trkpt lat="60.42116" lon="5.30808">
        <ele>97.816773</ele>
        <time>2020-07-25T07:54:20.963Z</time>
      </trkpt>
      <trkpt lat="60.42125" lon="5.30795">
        <ele>98.343292</ele>
        <time>2020-07-25T07:54:25.944Z</time>
      </trkpt>
      <trkpt lat="60.42133" lon="5.30785">
        <ele>98.83166</ele>
        <time>2020-07-25T07:54:29.973Z</time>
      </trkpt>
      <trkpt lat="60.42142" lon="5.30774">
        <ele>99.328609</ele>
        <time>2020-07-25T07:54:34.947Z</time>
      </trkpt>
      <trkpt lat="60.4215" lon="5.30763">
        <ele>99.787754</ele>
        <time>2020-07-25T07:54:39.964Z</time>
      </trkpt>
      <trkpt lat="60.42158" lon="5.3075">
        <ele>100.31036</ele>
        <time>2020-07-25T07:54:44.945Z</time>
      </trkpt>
      <trkpt lat="60.42166" lon="5.30738">
        <ele>100.779656</ele>
        <time>2020-07-25T07:54:48.979Z</time>
      </trkpt>
      <trkpt lat="60.42173" lon="5.30725">
        <ele>101.238923</ele>
        <time>2020-07-25T07:54:52.953Z</time>
      </trkpt>
      <trkpt lat="60.4218" lon="5.30713">
        <ele>101.683395</ele>
        <time>2020-07-25T07:54:56.984Z</time>
      </trkpt>
      <trkpt lat="60.42187" lon="5.30702">
        <ele>102.133278</ele>
        <time>2020-07-25T07:55:00.944Z</time>
      </trkpt>
      <trkpt lat="60.42195" lon="5.30688">
        <ele>102.633985</ele>
        <time>2020-07-25T07:55:05.952Z</time>
      </trkpt>
      <trkpt lat="60.42202" lon="5.30676">
        <ele>103.184528</ele>
        <time>2020-07-25T07:55:10.969Z</time>
      </trkpt>
      <trkpt lat="60.4221" lon="5.30663">
        <ele>103.764238</ele>
        <time>2020-07-25T07:55:15.950Z</time>
      </trkpt>
      <trkpt lat="60.42218" lon="5.30649">
        <ele>104.38155</ele>
        <time>2020-07-25T07:55:21.948Z</time>
      </trkpt>
      <trkpt lat="60.42225" lon="5.30636">
        <ele>104.965244</ele>
        <time>2020-07-25T07:55:26.964Z</time>
      </trkpt>
      <trkpt lat="60.42232" lon="5.30623">
        <ele>105.524801</ele>
        <time>2020-07-25T07:55:31.943Z</time>
      </trkpt>
      <trkpt lat="60.4224" lon="5.30611">
        <ele>106.11095</ele>
        <time>2020-07-25T07:55:37.957Z</time>
      </trkpt>
      <trkpt lat="60.42247" lon="5.30598">
        <ele>106.654322</ele>
        <time>2020-07-25T07:55:43.964Z</time>
      </trkpt>
      <trkpt lat="60.42255" lon="5.30586">
        <ele>107.218529</ele>
        <time>2020-07-25T07:55:52.003Z</time>
      </trkpt>
      <trkpt lat="60.42262" lon="5.30574">
        <ele>107.776362</ele>
        <time>2020-07-25T07:55:57.977Z</time>
      </trkpt>
      <trkpt lat="60.42271" lon="5.30564">
        <ele>108.401382</ele>
        <time>2020-07-25T07:56:04.959Z</time>
      </trkpt>
      <trkpt lat="60.42281" lon="5.30558">
        <ele>109.005439</ele>
        <time>2020-07-25T07:56:08.989Z</time>
      </trkpt>
      <trkpt lat="60.42291" lon="5.30546">
        <ele>109.678165</ele>
        <time>2020-07-25T07:56:12.967Z</time>
      </trkpt>
      <trkpt lat="60.42299" lon="5.30537">
        <ele>110.214364</ele>
        <time>2020-07-25T07:56:16.964Z</time>
      </trkpt>
      <trkpt lat="60.42307" lon="5.30526">
        <ele>110.798869</ele>
        <time>2020-07-25T07:56:22.974Z</time>
      </trkpt>
      <trkpt lat="60.42315" lon="5.30514">
        <ele>111.369449</ele>
        <time>2020-07-25T07:56:28.986Z</time>
      </trkpt>
      <trkpt lat="60.42323" lon="5.30504">
        <ele>111.909904</ele>
        <time>2020-07-25T07:56:33.957Z</time>
      </trkpt>
      <trkpt lat="60.42332" lon="5.30492">
        <ele>112.572285</ele>
        <time>2020-07-25T07:56:38.969Z</time>
      </trkpt>
      <trkpt lat="60.4234" lon="5.30483">
        <ele>113.107638</ele>
        <time>2020-07-25T07:56:42.982Z</time>
      </trkpt>
      <trkpt lat="60.42348" lon="5.30469">
        <ele>112.967308</ele>
        <time>2020-07-25T07:56:46.957Z</time>
      </trkpt>
      <trkpt lat="60.42368" lon="5.30443">
        <ele>112.07044</ele>
        <time>2020-07-25T07:59:03.971Z</time>
      </trkpt>
      <trkpt lat="60.42378" lon="5.30433">
        <ele>111.642292</ele>
        <time>2020-07-25T07:59:06.972Z</time>
      </trkpt>
      <trkpt lat="60.42388" lon="5.30422">
        <ele>111.197117</ele>
        <time>2020-07-25T07:59:09.952Z</time>
      </trkpt>
      <trkpt lat="60.42399" lon="5.30412">
        <ele>110.765577</ele>
        <time>2020-07-25T07:59:12.955Z</time>
      </trkpt>
      <trkpt lat="60.42406" lon="5.304">
        <ele>110.419342</ele>
        <time>2020-07-25T07:59:16.962Z</time>
      </trkpt>
      <trkpt lat="60.42416" lon="5.304">
        <ele>110.023171</ele>
        <time>2020-07-25T07:59:23.964Z</time>
      </trkpt>
      <trkpt lat="60.42426" lon="5.30397">
        <ele>109.638908</ele>
        <time>2020-07-25T07:59:28.976Z</time>
      </trkpt>
      <trkpt lat="60.42429" lon="5.30377">
        <ele>109.231514</ele>
        <time>2020-07-25T07:59:32.980Z</time>
      </trkpt>
      <trkpt lat="60.42431" lon="5.30351">
        <ele>108.748256</ele>
        <time>2020-07-25T07:59:35.944Z</time>
      </trkpt>
      <trkpt lat="60.42433" lon="5.30331">
        <ele>108.358523</ele>
        <time>2020-07-25T07:59:37.980Z</time>
      </trkpt>
      <trkpt lat="60.42435" lon="5.3031">
        <ele>107.959048</ele>
        <time>2020-07-25T07:59:39.985Z</time>
      </trkpt>
      <trkpt lat="60.42436" lon="5.3029">
        <ele>107.570608</ele>
        <time>2020-07-25T07:59:41.967Z</time>
      </trkpt>
      <trkpt lat="60.42438" lon="5.30268">
        <ele>107.148874</ele>
        <time>2020-07-25T07:59:44.966Z</time>
      </trkpt>
      <trkpt lat="60.4244" lon="5.30242">
        <ele>106.659815</ele>
        <time>2020-07-25T07:59:47.952Z</time>
      </trkpt>
      <trkpt lat="60.42443" lon="5.30221">
        <ele>106.197457</ele>
        <time>2020-07-25T07:59:50.018Z</time>
      </trkpt>
      <trkpt lat="60.42449" lon="5.302">
        <ele>105.602516</ele>
        <time>2020-07-25T07:59:51.975Z</time>
      </trkpt>
      <trkpt lat="60.42458" lon="5.30178">
        <ele>104.873786</ele>
        <time>2020-07-25T07:59:53.983Z</time>
      </trkpt>
      <trkpt lat="60.4247" lon="5.30154">
        <ele>104.040895</ele>
        <time>2020-07-25T07:59:55.985Z</time>
      </trkpt>
      <trkpt lat="60.42482" lon="5.30136">
        <ele>103.253968</ele>
        <time>2020-07-25T07:59:57.965Z</time>
      </trkpt>
      <trkpt lat="60.42495" lon="5.30116">
        <ele>102.445428</ele>
        <time>2020-07-25T07:59:59.955Z</time>
      </trkpt>
      <trkpt lat="60.42508" lon="5.30096">
        <ele>101.594423</ele>
        <time>2020-07-25T08:00:01.955Z</time>
      </trkpt>
      <trkpt lat="60.42522" lon="5.3008">
        <ele>100.784362</ele>
        <time>2020-07-25T08:00:03.988Z</time>
      </trkpt>
      <trkpt lat="60.42533" lon="5.30061">
        <ele>100.051358</ele>
        <time>2020-07-25T08:00:05.980Z</time>
      </trkpt>
      <trkpt lat="60.42544" lon="5.30039">
        <ele>99.275427</ele>
        <time>2020-07-25T08:00:07.953Z</time>
      </trkpt>
      <trkpt lat="60.42556" lon="5.30017">
        <ele>98.479223</ele>
        <time>2020-07-25T08:00:09.976Z</time>
      </trkpt>
      <trkpt lat="60.42568" lon="5.29997">
        <ele>97.665798</ele>
        <time>2020-07-25T08:00:12.001Z</time>
      </trkpt>
      <trkpt lat="60.4258" lon="5.29979">
        <ele>97.429276</ele>
        <time>2020-07-25T08:00:13.959Z</time>
      </trkpt>
      <trkpt lat="60.4259" lon="5.29962">
        <ele>97.649189</ele>
        <time>2020-07-25T08:00:15.954Z</time>
      </trkpt>
      <trkpt lat="60.42598" lon="5.29946">
        <ele>97.84182</ele>
        <time>2020-07-25T08:00:17.979Z</time>
      </trkpt>
      <trkpt lat="60.42605" lon="5.29933">
        <ele>98.005256</ele>
        <time>2020-07-25T08:00:20.003Z</time>
      </trkpt>
      <trkpt lat="60.42615" lon="5.29916">
        <ele>98.22001</ele>
        <time>2020-07-25T08:00:22.972Z</time>
      </trkpt>
      <trkpt lat="60.42624" lon="5.29899">
        <ele>98.428995</ele>
        <time>2020-07-25T08:00:25.980Z</time>
      </trkpt>
      <trkpt lat="60.42632" lon="5.29885">
        <ele>98.622971</ele>
        <time>2020-07-25T08:00:28.975Z</time>
      </trkpt>
      <trkpt lat="60.4264" lon="5.29872">
        <ele>98.78868</ele>
        <time>2020-07-25T08:00:31.961Z</time>
      </trkpt>
      <trkpt lat="60.42649" lon="5.29855">
        <ele>98.994831</ele>
        <time>2020-07-25T08:00:34.972Z</time>
      </trkpt>
      <trkpt lat="60.42659" lon="5.29842">
        <ele>99.193367</ele>
        <time>2020-07-25T08:00:37.970Z</time>
      </trkpt>
      <trkpt lat="60.42667" lon="5.29832">
        <ele>99.359722</ele>
        <time>2020-07-25T08:00:40.960Z</time>
      </trkpt>
      <trkpt lat="60.42675" lon="5.29819">
        <ele>99.53519</ele>
        <time>2020-07-25T08:00:43.971Z</time>
      </trkpt>
      <trkpt lat="60.42682" lon="5.29805">
        <ele>99.705341</ele>
        <time>2020-07-25T08:00:46.991Z</time>
      </trkpt>
      <trkpt lat="60.42689" lon="5.29793">
        <ele>99.859781</ele>
        <time>2020-07-25T08:00:49.974Z</time>
      </trkpt>
      <trkpt lat="60.42695" lon="5.2978">
        <ele>100.013073</ele>
        <time>2020-07-25T08:00:52.954Z</time>
      </trkpt>
      <trkpt lat="60.42703" lon="5.29767">
        <ele>100.176206</ele>
        <time>2020-07-25T08:00:55.960Z</time>
      </trkpt>
      <trkpt lat="60.42712" lon="5.29753">
        <ele>100.414565</ele>
        <time>2020-07-25T08:00:59.966Z</time>
      </trkpt>
      <trkpt lat="60.4272" lon="5.29736">
        <ele>101.237615</ele>
        <time>2020-07-25T08:01:03.979Z</time>
      </trkpt>
      <trkpt lat="60.42726" lon="5.29718">
        <ele>101.978971</ele>
        <time>2020-07-25T08:01:06.965Z</time>
      </trkpt>
      <trkpt lat="60.42733" lon="5.29698">
        <ele>102.825631</ele>
        <time>2020-07-25T08:01:09.982Z</time>
      </trkpt>
      <trkpt lat="60.4274" lon="5.29682">
        <ele>103.535468</ele>
        <time>2020-07-25T08:01:12.960Z</time>
      </trkpt>
      <trkpt lat="60.42746" lon="5.29668">
        <ele>104.176947</ele>
        <time>2020-07-25T08:01:15.964Z</time>
      </trkpt>
      <trkpt lat="60.42752" lon="5.29654">
        <ele>104.826049</ele>
        <time>2020-07-25T08:01:18.947Z</time>
      </trkpt>
      <trkpt lat="60.42759" lon="5.29635">
        <ele>105.640633</ele>
        <time>2020-07-25T08:01:22.943Z</time>
      </trkpt>
      <trkpt lat="60.42764" lon="5.29619">
        <ele>106.286594</ele>
        <time>2020-07-25T08:01:26.004Z</time>
      </trkpt>
      <trkpt lat="60.42769" lon="5.29603">
        <ele>106.944082</ele>
        <time>2020-07-25T08:01:28.961Z</time>
      </trkpt>
      <trkpt lat="60.42774" lon="5.29587">
        <ele>107.603896</ele>
        <time>2020-07-25T08:01:31.949Z</time>
      </trkpt>
      <trkpt lat="60.4278" lon="5.29569">
        <ele>108.334145</ele>
        <time>2020-07-25T08:01:34.950Z</time>
      </trkpt>
      <trkpt lat="60.42785" lon="5.29551">
        <ele>109.058465</ele>
        <time>2020-07-25T08:01:37.977Z</time>
      </trkpt>
      <trkpt lat="60.4279" lon="5.29531">
        <ele>109.811625</ele>
        <time>2020-07-25T08:01:40.975Z</time>
      </trkpt>
      <trkpt lat="60.42794" lon="5.29507">
        <ele>110.707338</ele>
        <time>2020-07-25T08:01:43.951Z</time>
      </trkpt>
      <trkpt lat="60.428" lon="5.29482">
        <ele>111.655342</ele>
        <time>2020-07-25T08:01:46.968Z</time>
      </trkpt>
      <trkpt lat="60.42805" lon="5.29457">
        <ele>112.565735</ele>
        <time>2020-07-25T08:01:49.959Z</time>
      </trkpt>
      <trkpt lat="60.42809" lon="5.29434">
        <ele>112.566473</ele>
        <time>2020-07-25T08:01:53.001Z</time>
      </trkpt>
      <trkpt lat="60.42812" lon="5.2941">
        <ele>112.007985</ele>
        <time>2020-07-25T08:01:55.952Z</time>
      </trkpt>
      <trkpt lat="60.42816" lon="5.29385">
        <ele>111.40626</ele>
        <time>2020-07-25T08:01:58.985Z</time>
      </trkpt>
      <trkpt lat="60.42821" lon="5.29361">
        <ele>110.818743</ele>
        <time>2020-07-25T08:02:01.964Z</time>
      </trkpt>
      <trkpt lat="60.42825" lon="5.29337">
        <ele>110.242456</ele>
        <time>2020-07-25T08:02:04.954Z</time>
      </trkpt>
      <trkpt lat="60.4283" lon="5.29315">
        <ele>109.681022</ele>
        <time>2020-07-25T08:02:07.988Z</time>
      </trkpt>
      <trkpt lat="60.42835" lon="5.29292">
        <ele>109.106697</ele>
        <time>2020-07-25T08:02:10.960Z</time>
      </trkpt>
      <trkpt lat="60.4284" lon="5.29269">
        <ele>108.54134</ele>
        <time>2020-07-25T08:02:13.954Z</time>
      </trkpt>
      <trkpt lat="60.42846" lon="5.29248">
        <ele>107.992344</ele>
        <time>2020-07-25T08:02:16.960Z</time>
      </trkpt>
      <trkpt lat="60.42852" lon="5.29227">
        <ele>107.440412</ele>
        <time>2020-07-25T08:02:19.967Z</time>
      </trkpt>
      <trkpt lat="60.42857" lon="5.29209">
        <ele>106.974545</ele>
        <time>2020-07-25T08:02:22.963Z</time>
      </trkpt>
      <trkpt lat="60.42863" lon="5.29194">
        <ele>106.525749</ele>
        <time>2020-07-25T08:02:25.969Z</time>
      </trkpt>
      <trkpt lat="60.42871" lon="5.29177">
        <ele>106.002454</ele>
        <time>2020-07-25T08:02:28.957Z</time>
      </trkpt>
      <trkpt lat="60.42881" lon="5.29171">
        <ele>105.512359</ele>
        <time>2020-07-25T08:02:31.992Z</time>
      </trkpt>
      <trkpt lat="60.4289" lon="5.29155">
        <ele>104.97241</ele>
        <time>2020-07-25T08:02:34.972Z</time>
      </trkpt>
      <trkpt lat="60.42898" lon="5.29141">
        <ele>104.648704</ele>
        <time>2020-07-25T08:02:37.986Z</time>
      </trkpt>
      <trkpt lat="60.42905" lon="5.29125">
        <ele>104.806193</ele>
        <time>2020-07-25T08:02:40.947Z</time>
      </trkpt>
      <trkpt lat="60.42913" lon="5.29113">
        <ele>104.948142</ele>
        <time>2020-07-25T08:02:43.990Z</time>
      </trkpt>
      <trkpt lat="60.42921" lon="5.29103">
        <ele>105.086063</ele>
        <time>2020-07-25T08:02:46.959Z</time>
      </trkpt>
      <trkpt lat="60.42929" lon="5.29093">
        <ele>105.222374</ele>
        <time>2020-07-25T08:02:49.947Z</time>
      </trkpt>
      <trkpt lat="60.42937" lon="5.29083">
        <ele>105.353362</ele>
        <time>2020-07-25T08:02:52.968Z</time>
      </trkpt>
      <trkpt lat="60.42946" lon="5.2907">
        <ele>105.520064</ele>
        <time>2020-07-25T08:02:56.956Z</time>
      </trkpt>
      <trkpt lat="60.42956" lon="5.29057">
        <ele>105.689112</ele>
        <time>2020-07-25T08:03:00.954Z</time>
      </trkpt>
      <trkpt lat="60.42964" lon="5.29046">
        <ele>105.826922</ele>
        <time>2020-07-25T08:03:03.980Z</time>
      </trkpt>
      <trkpt lat="60.42972" lon="5.29035">
        <ele>105.963117</ele>
        <time>2020-07-25T08:03:06.965Z</time>
      </trkpt>
      <trkpt lat="60.42979" lon="5.29024">
        <ele>106.096545</ele>
        <time>2020-07-25T08:03:09.974Z</time>
      </trkpt>
      <trkpt lat="60.42988" lon="5.2901">
        <ele>106.257208</ele>
        <time>2020-07-25T08:03:13.971Z</time>
      </trkpt>
      <trkpt lat="60.42996" lon="5.28997">
        <ele>106.410029</ele>
        <time>2020-07-25T08:03:17.972Z</time>
      </trkpt>
      <trkpt lat="60.43004" lon="5.28982">
        <ele>106.564728</ele>
        <time>2020-07-25T08:03:21.964Z</time>
      </trkpt>
      <trkpt lat="60.43011" lon="5.28969">
        <ele>106.713325</ele>
        <time>2020-07-25T08:03:25.983Z</time>
      </trkpt>
      <trkpt lat="60.4302" lon="5.28953">
        <ele>106.875455</ele>
        <time>2020-07-25T08:03:29.983Z</time>
      </trkpt>
      <trkpt lat="60.43027" lon="5.28941">
        <ele>107.012482</ele>
        <time>2020-07-25T08:03:32.994Z</time>
      </trkpt>
      <trkpt lat="60.43034" lon="5.28928">
        <ele>107.156711</ele>
        <time>2020-07-25T08:03:35.996Z</time>
      </trkpt>
      <trkpt lat="60.43042" lon="5.28913">
        <ele>107.263593</ele>
        <time>2020-07-25T08:03:39.969Z</time>
      </trkpt>
      <trkpt lat="60.43049" lon="5.28898">
        <ele>107.342034</ele>
        <time>2020-07-25T08:03:42.980Z</time>
      </trkpt>
      <trkpt lat="60.43056" lon="5.28882">
        <ele>107.423475</ele>
        <time>2020-07-25T08:03:45.993Z</time>
      </trkpt>
      <trkpt lat="60.43062" lon="5.28869">
        <ele>107.491885</ele>
        <time>2020-07-25T08:03:48.952Z</time>
      </trkpt>
      <trkpt lat="60.43068" lon="5.28854">
        <ele>107.565258</ele>
        <time>2020-07-25T08:03:51.962Z</time>
      </trkpt>
      <trkpt lat="60.43076" lon="5.28838">
        <ele>107.648568</ele>
        <time>2020-07-25T08:03:54.967Z</time>
      </trkpt>
      <trkpt lat="60.43083" lon="5.28821">
        <ele>107.732707</ele>
        <time>2020-07-25T08:03:57.967Z</time>
      </trkpt>
      <trkpt lat="60.4309" lon="5.28804">
        <ele>107.81754</ele>
        <time>2020-07-25T08:04:00.964Z</time>
      </trkpt>
      <trkpt lat="60.43097" lon="5.28787">
        <ele>107.904163</ele>
        <time>2020-07-25T08:04:04.003Z</time>
      </trkpt>
      <trkpt lat="60.43105" lon="5.28768">
        <ele>107.99628</ele>
        <time>2020-07-25T08:04:06.974Z</time>
      </trkpt>
      <trkpt lat="60.43111" lon="5.28752">
        <ele>108.070806</ele>
        <time>2020-07-25T08:04:08.973Z</time>
      </trkpt>
      <trkpt lat="60.43117" lon="5.28737">
        <ele>108.143917</ele>
        <time>2020-07-25T08:04:10.992Z</time>
      </trkpt>
      <trkpt lat="60.43123" lon="5.28721">
        <ele>108.222713</ele>
        <time>2020-07-25T08:04:12.971Z</time>
      </trkpt>
      <trkpt lat="60.4313" lon="5.28704">
        <ele>108.306188</ele>
        <time>2020-07-25T08:04:14.968Z</time>
      </trkpt>
      <trkpt lat="60.43138" lon="5.28685">
        <ele>108.399018</ele>
        <time>2020-07-25T08:04:16.965Z</time>
      </trkpt>
      <trkpt lat="60.43147" lon="5.28667">
        <ele>108.492584</ele>
        <time>2020-07-25T08:04:19.027Z</time>
      </trkpt>
      <trkpt lat="60.43156" lon="5.2865">
        <ele>108.588936</ele>
        <time>2020-07-25T08:04:20.975Z</time>
      </trkpt>
      <trkpt lat="60.43166" lon="5.28634">
        <ele>108.346261</ele>
        <time>2020-07-25T08:04:22.980Z</time>
      </trkpt>
      <trkpt lat="60.43175" lon="5.28621">
        <ele>108.096499</ele>
        <time>2020-07-25T08:04:24.963Z</time>
      </trkpt>
      <trkpt lat="60.43185" lon="5.28609">
        <ele>107.842709</ele>
        <time>2020-07-25T08:04:26.976Z</time>
      </trkpt>
      <trkpt lat="60.43196" lon="5.28598">
        <ele>107.576969</ele>
        <time>2020-07-25T08:04:28.975Z</time>
      </trkpt>
      <trkpt lat="60.43208" lon="5.28588">
        <ele>107.304784</ele>
        <time>2020-07-25T08:04:30.955Z</time>
      </trkpt>
      <trkpt lat="60.43219" lon="5.28579">
        <ele>107.034161</ele>
        <time>2020-07-25T08:04:32.971Z</time>
      </trkpt>
      <trkpt lat="60.43231" lon="5.28573">
        <ele>106.773943</ele>
        <time>2020-07-25T08:04:35.000Z</time>
      </trkpt>
      <trkpt lat="60.43243" lon="5.28569">
        <ele>106.512361</ele>
        <time>2020-07-25T08:04:36.965Z</time>
      </trkpt>
      <trkpt lat="60.43255" lon="5.28565">
        <ele>106.252015</ele>
        <time>2020-07-25T08:04:38.963Z</time>
      </trkpt>
      <trkpt lat="60.43267" lon="5.28563">
        <ele>105.987151</ele>
        <time>2020-07-25T08:04:41.009Z</time>
      </trkpt>
      <trkpt lat="60.43279" lon="5.28559">
        <ele>105.731242</ele>
        <time>2020-07-25T08:04:42.963Z</time>
      </trkpt>
      <trkpt lat="60.43291" lon="5.28554">
        <ele>105.47222</ele>
        <time>2020-07-25T08:04:44.970Z</time>
      </trkpt>
      <trkpt lat="60.43302" lon="5.28552">
        <ele>105.221993</ele>
        <time>2020-07-25T08:04:46.957Z</time>
      </trkpt>
      <trkpt lat="60.43313" lon="5.28548">
        <ele>104.98069</ele>
        <time>2020-07-25T08:04:49.011Z</time>
      </trkpt>
      <trkpt lat="60.43324" lon="5.28542">
        <ele>104.746168</ele>
        <time>2020-07-25T08:04:50.970Z</time>
      </trkpt>
      <trkpt lat="60.43335" lon="5.28533">
        <ele>104.768547</ele>
        <time>2020-07-25T08:04:52.961Z</time>
      </trkpt>
      <trkpt lat="60.43345" lon="5.28526">
        <ele>104.83702</ele>
        <time>2020-07-25T08:04:54.987Z</time>
      </trkpt>
      <trkpt lat="60.43356" lon="5.2852">
        <ele>104.905065</ele>
        <time>2020-07-25T08:04:56.956Z</time>
      </trkpt>
      <trkpt lat="60.43367" lon="5.28511">
        <ele>104.979093</ele>
        <time>2020-07-25T08:04:58.966Z</time>
      </trkpt>
      <trkpt lat="60.43378" lon="5.28501">
        <ele>105.049319</ele>
        <time>2020-07-25T08:05:00.966Z</time>
      </trkpt>
      <trkpt lat="60.43389" lon="5.28492">
        <ele>105.122983</ele>
        <time>2020-07-25T08:05:02.965Z</time>
      </trkpt>
      <trkpt lat="60.434" lon="5.28485">
        <ele>105.194461</ele>
        <time>2020-07-25T08:05:04.988Z</time>
      </trkpt>
      <trkpt lat="60.4341" lon="5.2848">
        <ele>105.260799</ele>
        <time>2020-07-25T08:05:06.969Z</time>
      </trkpt>
      <trkpt lat="60.43421" lon="5.28476">
        <ele>105.329429</ele>
        <time>2020-07-25T08:05:08.976Z</time>
      </trkpt>
      <trkpt lat="60.43431" lon="5.28475">
        <ele>105.392237</ele>
        <time>2020-07-25T08:05:10.966Z</time>
      </trkpt>
      <trkpt lat="60.43443" lon="5.28475">
        <ele>105.460518</ele>
        <time>2020-07-25T08:05:12.981Z</time>
      </trkpt>
      <trkpt lat="60.43454" lon="5.28478">
        <ele>105.53095</ele>
        <time>2020-07-25T08:05:14.956Z</time>
      </trkpt>
      <trkpt lat="60.43464" lon="5.28481">
        <ele>105.59397</ele>
        <time>2020-07-25T08:05:16.964Z</time>
      </trkpt>
      <trkpt lat="60.43473" lon="5.28486">
        <ele>105.653306</ele>
        <time>2020-07-25T08:05:18.995Z</time>
      </trkpt>
      <trkpt lat="60.43483" lon="5.28492">
        <ele>105.715369</ele>
        <time>2020-07-25T08:05:20.963Z</time>
      </trkpt>
      <trkpt lat="60.43493" lon="5.285">
        <ele>105.7824</ele>
        <time>2020-07-25T08:05:22.973Z</time>
      </trkpt>
      <trkpt lat="60.43504" lon="5.28511">
        <ele>105.646242</ele>
        <time>2020-07-25T08:05:24.972Z</time>
      </trkpt>
      <trkpt lat="60.43515" lon="5.28522">
        <ele>105.359096</ele>
        <time>2020-07-25T08:05:26.993Z</time>
      </trkpt>
      <trkpt lat="60.43525" lon="5.28535">
        <ele>105.081011</ele>
        <time>2020-07-25T08:05:29.005Z</time>
      </trkpt>
      <trkpt lat="60.43535" lon="5.28547">
        <ele>104.808401</ele>
        <time>2020-07-25T08:05:30.973Z</time>
      </trkpt>
      <trkpt lat="60.43546" lon="5.28559">
        <ele>104.533473</ele>
        <time>2020-07-25T08:05:32.968Z</time>
      </trkpt>
      <trkpt lat="60.43555" lon="5.28569">
        <ele>104.297388</ele>
        <time>2020-07-25T08:05:34.966Z</time>
      </trkpt>
      <trkpt lat="60.43564" lon="5.28575">
        <ele>104.065625</ele>
        <time>2020-07-25T08:05:36.955Z</time>
      </trkpt>
      <trkpt lat="60.43574" lon="5.28582">
        <ele>103.824372</ele>
        <time>2020-07-25T08:05:38.962Z</time>
      </trkpt>
      <trkpt lat="60.43584" lon="5.28587">
        <ele>103.590784</ele>
        <time>2020-07-25T08:05:40.970Z</time>
      </trkpt>
      <trkpt lat="60.43594" lon="5.28591">
        <ele>103.350858</ele>
        <time>2020-07-25T08:05:42.976Z</time>
      </trkpt>
      <trkpt lat="60.43604" lon="5.28594">
        <ele>103.110334</ele>
        <time>2020-07-25T08:05:44.973Z</time>
      </trkpt>
      <trkpt lat="60.43614" lon="5.28596">
        <ele>102.875534</ele>
        <time>2020-07-25T08:05:46.970Z</time>
      </trkpt>
      <trkpt lat="60.43624" lon="5.28598">
        <ele>102.643267</ele>
        <time>2020-07-25T08:05:48.987Z</time>
      </trkpt>
      <trkpt lat="60.43636" lon="5.286">
        <ele>102.382942</ele>
        <time>2020-07-25T08:05:50.996Z</time>
      </trkpt>
      <trkpt lat="60.43648" lon="5.28603">
        <ele>102.09927</ele>
        <time>2020-07-25T08:05:52.970Z</time>
      </trkpt>
      <trkpt lat="60.43661" lon="5.28606">
        <ele>101.799266</ele>
        <time>2020-07-25T08:05:54.988Z</time>
      </trkpt>
      <trkpt lat="60.43673" lon="5.28608">
        <ele>101.493353</ele>
        <time>2020-07-25T08:05:56.953Z</time>
      </trkpt>
      <trkpt lat="60.43686" lon="5.28611">
        <ele>101.146857</ele>
        <time>2020-07-25T08:05:59.019Z</time>
      </trkpt>
      <trkpt lat="60.43699" lon="5.28613">
        <ele>100.797853</ele>
        <time>2020-07-25T08:06:00.956Z</time>
      </trkpt>
      <trkpt lat="60.43712" lon="5.28616">
        <ele>100.458985</ele>
        <time>2020-07-25T08:06:02.952Z</time>
      </trkpt>
      <trkpt lat="60.43724" lon="5.28619">
        <ele>100.138707</ele>
        <time>2020-07-25T08:06:04.961Z</time>
      </trkpt>
      <trkpt lat="60.43735" lon="5.28622">
        <ele>99.836698</ele>
        <time>2020-07-25T08:06:07.002Z</time>
      </trkpt>
      <trkpt lat="60.43745" lon="5.28626">
        <ele>99.564325</ele>
        <time>2020-07-25T08:06:08.963Z</time>
      </trkpt>
      <trkpt lat="60.43755" lon="5.28631">
        <ele>99.303067</ele>
        <time>2020-07-25T08:06:11.002Z</time>
      </trkpt>
      <trkpt lat="60.43764" lon="5.28635">
        <ele>99.040605</ele>
        <time>2020-07-25T08:06:12.972Z</time>
      </trkpt>
      <trkpt lat="60.43774" lon="5.28637">
        <ele>98.784723</ele>
        <time>2020-07-25T08:06:14.957Z</time>
      </trkpt>
      <trkpt lat="60.43784" lon="5.2864">
        <ele>98.514605</ele>
        <time>2020-07-25T08:06:16.964Z</time>
      </trkpt>
      <trkpt lat="60.43794" lon="5.28642">
        <ele>98.257971</ele>
        <time>2020-07-25T08:06:18.962Z</time>
      </trkpt>
      <trkpt lat="60.43803" lon="5.28644">
        <ele>98.018304</ele>
        <time>2020-07-25T08:06:20.972Z</time>
      </trkpt>
      <trkpt lat="60.43813" lon="5.28645">
        <ele>97.757904</ele>
        <time>2020-07-25T08:06:22.987Z</time>
      </trkpt>
      <trkpt lat="60.43823" lon="5.28647">
        <ele>97.47104</ele>
        <time>2020-07-25T08:06:24.972Z</time>
      </trkpt>
      <trkpt lat="60.43836" lon="5.28646">
        <ele>97.139565</ele>
        <time>2020-07-25T08:06:27.009Z</time>
      </trkpt>
      <trkpt lat="60.43849" lon="5.28646">
        <ele>96.890906</ele>
        <time>2020-07-25T08:06:28.976Z</time>
      </trkpt>
      <trkpt lat="60.43862" lon="5.28642">
        <ele>96.915114</ele>
        <time>2020-07-25T08:06:30.962Z</time>
      </trkpt>
      <trkpt lat="60.43876" lon="5.28635">
        <ele>96.941002</ele>
        <time>2020-07-25T08:06:32.969Z</time>
      </trkpt>
      <trkpt lat="60.43889" lon="5.28623">
        <ele>96.96721</ele>
        <time>2020-07-25T08:06:34.971Z</time>
      </trkpt>
      <trkpt lat="60.43901" lon="5.28607">
        <ele>96.993407</ele>
        <time>2020-07-25T08:06:36.955Z</time>
      </trkpt>
      <trkpt lat="60.43912" lon="5.28589">
        <ele>97.019769</ele>
        <time>2020-07-25T08:06:38.974Z</time>
      </trkpt>
      <trkpt lat="60.43925" lon="5.28571">
        <ele>97.047382</ele>
        <time>2020-07-25T08:06:40.995Z</time>
      </trkpt>
      <trkpt lat="60.43938" lon="5.28552">
        <ele>97.076816</ele>
        <time>2020-07-25T08:06:42.962Z</time>
      </trkpt>
      <trkpt lat="60.43951" lon="5.28533">
        <ele>97.106021</ele>
        <time>2020-07-25T08:06:44.973Z</time>
      </trkpt>
      <trkpt lat="60.43964" lon="5.28516">
        <ele>97.13473</ele>
        <time>2020-07-25T08:06:46.953Z</time>
      </trkpt>
      <trkpt lat="60.43976" lon="5.28498">
        <ele>97.161198</ele>
        <time>2020-07-25T08:06:48.961Z</time>
      </trkpt>
      <trkpt lat="60.43988" lon="5.28482">
        <ele>97.186891</ele>
        <time>2020-07-25T08:06:50.988Z</time>
      </trkpt>
      <trkpt lat="60.43997" lon="5.28468">
        <ele>97.207936</ele>
        <time>2020-07-25T08:06:52.964Z</time>
      </trkpt>
      <trkpt lat="60.44004" lon="5.28457">
        <ele>97.399349</ele>
        <time>2020-07-25T08:06:54.970Z</time>
      </trkpt>
      <trkpt lat="60.44012" lon="5.28446">
        <ele>97.650292</ele>
        <time>2020-07-25T08:06:56.972Z</time>
      </trkpt>
      <trkpt lat="60.44021" lon="5.28435">
        <ele>97.914253</ele>
        <time>2020-07-25T08:06:58.984Z</time>
      </trkpt>
      <trkpt lat="60.44029" lon="5.28423">
        <ele>98.169554</ele>
        <time>2020-07-25T08:07:00.995Z</time>
      </trkpt>
      <trkpt lat="60.44037" lon="5.28411">
        <ele>98.445077</ele>
        <time>2020-07-25T08:07:02.966Z</time>
      </trkpt>
      <trkpt lat="60.44046" lon="5.28398">
        <ele>98.737458</ele>
        <time>2020-07-25T08:07:04.975Z</time>
      </trkpt>
      <trkpt lat="60.44056" lon="5.28384">
        <ele>99.049886</ele>
        <time>2020-07-25T08:07:06.960Z</time>
      </trkpt>
      <trkpt lat="60.44066" lon="5.2837">
        <ele>99.355897</ele>
        <time>2020-07-25T08:07:08.960Z</time>
      </trkpt>
      <trkpt lat="60.44076" lon="5.28356">
        <ele>99.675689</ele>
        <time>2020-07-25T08:07:10.964Z</time>
      </trkpt>
      <trkpt lat="60.44086" lon="5.28342">
        <ele>99.993162</ele>
        <time>2020-07-25T08:07:12.997Z</time>
      </trkpt>
      <trkpt lat="60.44096" lon="5.28332">
        <ele>100.294448</ele>
        <time>2020-07-25T08:07:14.970Z</time>
      </trkpt>
      <trkpt lat="60.44106" lon="5.28324">
        <ele>100.578539</ele>
        <time>2020-07-25T08:07:16.987Z</time>
      </trkpt>
      <trkpt lat="60.44117" lon="5.28319">
        <ele>100.862488</ele>
        <time>2020-07-25T08:07:18.974Z</time>
      </trkpt>
      <trkpt lat="60.44127" lon="5.28315">
        <ele>101.126066</ele>
        <time>2020-07-25T08:07:20.986Z</time>
      </trkpt>
      <trkpt lat="60.44136" lon="5.28312">
        <ele>101.377802</ele>
        <time>2020-07-25T08:07:22.984Z</time>
      </trkpt>
      <trkpt lat="60.44145" lon="5.28309">
        <ele>101.625229</ele>
        <time>2020-07-25T08:07:24.979Z</time>
      </trkpt>
      <trkpt lat="60.44154" lon="5.28306">
        <ele>101.864698</ele>
        <time>2020-07-25T08:07:26.959Z</time>
      </trkpt>
      <trkpt lat="60.44164" lon="5.28303">
        <ele>101.920354</ele>
        <time>2020-07-25T08:07:28.984Z</time>
      </trkpt>
      <trkpt lat="60.44174" lon="5.28301">
        <ele>101.919468</ele>
        <time>2020-07-25T08:07:30.949Z</time>
      </trkpt>
      <trkpt lat="60.44184" lon="5.28297">
        <ele>101.918597</ele>
        <time>2020-07-25T08:07:32.986Z</time>
      </trkpt>
      <trkpt lat="60.44193" lon="5.28292">
        <ele>101.91772</ele>
        <time>2020-07-25T08:07:34.987Z</time>
      </trkpt>
      <trkpt lat="60.44203" lon="5.28287">
        <ele>101.916816</ele>
        <time>2020-07-25T08:07:36.988Z</time>
      </trkpt>
      <trkpt lat="60.44212" lon="5.28281">
        <ele>101.915943</ele>
        <time>2020-07-25T08:07:38.948Z</time>
      </trkpt>
      <trkpt lat="60.44222" lon="5.28275">
        <ele>101.915077</ele>
        <time>2020-07-25T08:07:40.964Z</time>
      </trkpt>
      <trkpt lat="60.44231" lon="5.2827">
        <ele>101.914249</ele>
        <time>2020-07-25T08:07:42.994Z</time>
      </trkpt>
      <trkpt lat="60.4424" lon="5.28265">
        <ele>101.913436</ele>
        <time>2020-07-25T08:07:44.964Z</time>
      </trkpt>
      <trkpt lat="60.44248" lon="5.28258">
        <ele>101.912612</ele>
        <time>2020-07-25T08:07:46.977Z</time>
      </trkpt>
      <trkpt lat="60.44257" lon="5.28252">
        <ele>101.911813</ele>
        <time>2020-07-25T08:07:48.968Z</time>
      </trkpt>
      <trkpt lat="60.44266" lon="5.28246">
        <ele>101.910954</ele>
        <time>2020-07-25T08:07:50.969Z</time>
      </trkpt>
      <trkpt lat="60.44275" lon="5.28242">
        <ele>101.910132</ele>
        <time>2020-07-25T08:07:52.966Z</time>
      </trkpt>
      <trkpt lat="60.44288" lon="5.28232">
        <ele>101.908942</ele>
        <time>2020-07-25T08:07:55.951Z</time>
      </trkpt>
      <trkpt lat="60.44297" lon="5.28227">
        <ele>101.908054</ele>
        <time>2020-07-25T08:07:57.963Z</time>
      </trkpt>
      <trkpt lat="60.44308" lon="5.28221">
        <ele>101.907088</ele>
        <time>2020-07-25T08:07:59.961Z</time>
      </trkpt>
      <trkpt lat="60.44318" lon="5.28217">
        <ele>101.906177</ele>
        <time>2020-07-25T08:08:01.972Z</time>
      </trkpt>
      <trkpt lat="60.44329" lon="5.28212">
        <ele>101.905154</ele>
        <time>2020-07-25T08:08:03.967Z</time>
      </trkpt>
      <trkpt lat="60.44339" lon="5.28206">
        <ele>101.796974</ele>
        <time>2020-07-25T08:08:05.965Z</time>
      </trkpt>
      <trkpt lat="60.4435" lon="5.28202">
        <ele>101.682723</ele>
        <time>2020-07-25T08:08:07.960Z</time>
      </trkpt>
      <trkpt lat="60.44359" lon="5.28198">
        <ele>101.570863</ele>
        <time>2020-07-25T08:08:09.988Z</time>
      </trkpt>
      <trkpt lat="60.44372" lon="5.2819">
        <ele>101.426204</ele>
        <time>2020-07-25T08:08:12.984Z</time>
      </trkpt>
      <trkpt lat="60.44384" lon="5.28184">
        <ele>101.288579</ele>
        <time>2020-07-25T08:08:15.969Z</time>
      </trkpt>
      <trkpt lat="60.44396" lon="5.28175">
        <ele>101.150322</ele>
        <time>2020-07-25T08:08:18.972Z</time>
      </trkpt>
      <trkpt lat="60.44408" lon="5.28163">
        <ele>101.004469</ele>
        <time>2020-07-25T08:08:21.976Z</time>
      </trkpt>
      <trkpt lat="60.44419" lon="5.2815">
        <ele>100.857876</ele>
        <time>2020-07-25T08:08:24.957Z</time>
      </trkpt>
      <trkpt lat="60.44428" lon="5.28144">
        <ele>100.756472</ele>
        <time>2020-07-25T08:08:26.962Z</time>
      </trkpt>
      <trkpt lat="60.44438" lon="5.28141">
        <ele>100.646035</ele>
        <time>2020-07-25T08:08:28.974Z</time>
      </trkpt>
      <trkpt lat="60.44448" lon="5.2814">
        <ele>100.532132</ele>
        <time>2020-07-25T08:08:30.971Z</time>
      </trkpt>
      <trkpt lat="60.44458" lon="5.28149">
        <ele>100.409872</ele>
        <time>2020-07-25T08:08:32.984Z</time>
      </trkpt>
      <trkpt lat="60.44469" lon="5.2816">
        <ele>100.276824</ele>
        <time>2020-07-25T08:08:34.956Z</time>
      </trkpt>
      <trkpt lat="60.4448" lon="5.28171">
        <ele>100.144971</ele>
        <time>2020-07-25T08:08:36.969Z</time>
      </trkpt>
      <trkpt lat="60.44489" lon="5.28182">
        <ele>100.020679</ele>
        <time>2020-07-25T08:08:38.989Z</time>
      </trkpt>
      <trkpt lat="60.44499" lon="5.28194">
        <ele>99.940935</ele>
        <time>2020-07-25T08:08:40.960Z</time>
      </trkpt>
      <trkpt lat="60.44508" lon="5.28206">
        <ele>100.080415</ele>
        <time>2020-07-25T08:08:42.983Z</time>
      </trkpt>
      <trkpt lat="60.44515" lon="5.28219">
        <ele>100.208428</ele>
        <time>2020-07-25T08:08:44.954Z</time>
      </trkpt>
      <trkpt lat="60.44521" lon="5.28242">
        <ele>100.385316</ele>
        <time>2020-07-25T08:08:47.973Z</time>
      </trkpt>
      <trkpt lat="60.44523" lon="5.28264">
        <ele>100.530628</ele>
        <time>2020-07-25T08:08:50.956Z</time>
      </trkpt>
      <trkpt lat="60.44525" lon="5.2829">
        <ele>100.702068</ele>
        <time>2020-07-25T08:08:53.998Z</time>
      </trkpt>
      <trkpt lat="60.44525" lon="5.28317">
        <ele>100.875129</ele>
        <time>2020-07-25T08:08:56.955Z</time>
      </trkpt>
      <trkpt lat="60.44524" lon="5.28342">
        <ele>101.039644</ele>
        <time>2020-07-25T08:08:59.965Z</time>
      </trkpt>
      <trkpt lat="60.44522" lon="5.28364">
        <ele>101.190383</ele>
        <time>2020-07-25T08:09:02.985Z</time>
      </trkpt>
      <trkpt lat="60.44519" lon="5.28388">
        <ele>101.353087</ele>
        <time>2020-07-25T08:09:05.953Z</time>
      </trkpt>
      <trkpt lat="60.44517" lon="5.28412">
        <ele>101.514147</ele>
        <time>2020-07-25T08:09:08.963Z</time>
      </trkpt>
      <trkpt lat="60.44513" lon="5.28436">
        <ele>101.677317</ele>
        <time>2020-07-25T08:09:11.975Z</time>
      </trkpt>
      <trkpt lat="60.4451" lon="5.28459">
        <ele>101.833599</ele>
        <time>2020-07-25T08:09:14.980Z</time>
      </trkpt>
      <trkpt lat="60.44508" lon="5.28485">
        <ele>102.004571</ele>
        <time>2020-07-25T08:09:18.024Z</time>
      </trkpt>
      <trkpt lat="60.44506" lon="5.28512">
        <ele>102.183986</ele>
        <time>2020-07-25T08:09:21.002Z</time>
      </trkpt>
      <trkpt lat="60.44505" lon="5.28533">
        <ele>102.277945</ele>
        <time>2020-07-25T08:09:22.977Z</time>
      </trkpt>
      <trkpt lat="60.44504" lon="5.28557">
        <ele>101.962361</ele>
        <time>2020-07-25T08:09:24.979Z</time>
      </trkpt>
      <trkpt lat="60.44503" lon="5.28586">
        <ele>101.584919</ele>
        <time>2020-07-25T08:09:26.976Z</time>
      </trkpt>
      <trkpt lat="60.445" lon="5.28614">
        <ele>101.195999</ele>
        <time>2020-07-25T08:09:28.994Z</time>
      </trkpt>
      <trkpt lat="60.44496" lon="5.28639">
        <ele>100.851478</ele>
        <time>2020-07-25T08:09:30.951Z</time>
      </trkpt>
      <trkpt lat="60.44494" lon="5.28662">
        <ele>100.541628</ele>
        <time>2020-07-25T08:09:32.964Z</time>
      </trkpt>
      <trkpt lat="60.44491" lon="5.28685">
        <ele>100.233026</ele>
        <time>2020-07-25T08:09:34.952Z</time>
      </trkpt>
      <trkpt lat="60.44488" lon="5.2871">
        <ele>99.893664</ele>
        <time>2020-07-25T08:09:36.958Z</time>
      </trkpt>
      <trkpt lat="60.44487" lon="5.2874">
        <ele>99.498782</ele>
        <time>2020-07-25T08:09:38.972Z</time>
      </trkpt>
      <trkpt lat="60.44485" lon="5.28767">
        <ele>99.134187</ele>
        <time>2020-07-25T08:09:40.956Z</time>
      </trkpt>
      <trkpt lat="60.44483" lon="5.28795">
        <ele>98.759392</ele>
        <time>2020-07-25T08:09:42.985Z</time>
      </trkpt>
      <trkpt lat="60.44479" lon="5.28822">
        <ele>98.392565</ele>
        <time>2020-07-25T08:09:44.978Z</time>
      </trkpt>
      <trkpt lat="60.44474" lon="5.28849">
        <ele>98.019351</ele>
        <time>2020-07-25T08:09:46.954Z</time>
      </trkpt>
      <trkpt lat="60.44468" lon="5.28874">
        <ele>97.637305</ele>
        <time>2020-07-25T08:09:48.986Z</time>
      </trkpt>
      <trkpt lat="60.4446" lon="5.289">
        <ele>96.845366</ele>
        <time>2020-07-25T08:09:51.005Z</time>
      </trkpt>
      <trkpt lat="60.44453" lon="5.28927">
        <ele>95.825278</ele>
        <time>2020-07-25T08:09:52.975Z</time>
      </trkpt>
      <trkpt lat="60.44445" lon="5.28954">
        <ele>94.776516</ele>
        <time>2020-07-25T08:09:54.960Z</time>
      </trkpt>
      <trkpt lat="60.44437" lon="5.28979">
        <ele>93.772252</ele>
        <time>2020-07-25T08:09:56.971Z</time>
      </trkpt>
      <trkpt lat="60.44429" lon="5.29002">
        <ele>92.846103</ele>
        <time>2020-07-25T08:09:58.957Z</time>
      </trkpt>
      <trkpt lat="60.44421" lon="5.29027">
        <ele>91.869687</ele>
        <time>2020-07-25T08:10:00.984Z</time>
      </trkpt>
      <trkpt lat="60.44413" lon="5.29052">
        <ele>90.862473</ele>
        <time>2020-07-25T08:10:02.966Z</time>
      </trkpt>
      <trkpt lat="60.44404" lon="5.29077">
        <ele>89.802249</ele>
        <time>2020-07-25T08:10:04.973Z</time>
      </trkpt>
      <trkpt lat="60.44394" lon="5.291">
        <ele>88.802388</ele>
        <time>2020-07-25T08:10:06.956Z</time>
      </trkpt>
      <trkpt lat="60.44386" lon="5.2912">
        <ele>87.934052</ele>
        <time>2020-07-25T08:10:08.972Z</time>
      </trkpt>
      <trkpt lat="60.44378" lon="5.29139">
        <ele>87.120728</ele>
        <time>2020-07-25T08:10:10.975Z</time>
      </trkpt>
      <trkpt lat="60.4437" lon="5.29158">
        <ele>86.270233</ele>
        <time>2020-07-25T08:10:12.992Z</time>
      </trkpt>
      <trkpt lat="60.44361" lon="5.29178">
        <ele>85.368386</ele>
        <time>2020-07-25T08:10:14.967Z</time>
      </trkpt>
      <trkpt lat="60.44353" lon="5.29198">
        <ele>85.443198</ele>
        <time>2020-07-25T08:10:16.975Z</time>
      </trkpt>
      <trkpt lat="60.44346" lon="5.29218">
        <ele>85.554993</ele>
        <time>2020-07-25T08:10:18.986Z</time>
      </trkpt>
      <trkpt lat="60.44342" lon="5.29241">
        <ele>85.666965</ele>
        <time>2020-07-25T08:10:20.975Z</time>
      </trkpt>
      <trkpt lat="60.4434" lon="5.29264">
        <ele>85.778024</ele>
        <time>2020-07-25T08:10:22.995Z</time>
      </trkpt>
      <trkpt lat="60.4434" lon="5.29287">
        <ele>85.885734</ele>
        <time>2020-07-25T08:10:24.955Z</time>
      </trkpt>
      <trkpt lat="60.4434" lon="5.2931">
        <ele>85.992512</ele>
        <time>2020-07-25T08:10:26.957Z</time>
      </trkpt>
      <trkpt lat="60.44341" lon="5.29332">
        <ele>86.095116</ele>
        <time>2020-07-25T08:10:29.015Z</time>
      </trkpt>
      <trkpt lat="60.4434" lon="5.29354">
        <ele>86.196565</ele>
        <time>2020-07-25T08:10:31.007Z</time>
      </trkpt>
      <trkpt lat="60.44336" lon="5.29375">
        <ele>86.299905</ele>
        <time>2020-07-25T08:10:32.980Z</time>
      </trkpt>
      <trkpt lat="60.44331" lon="5.29394">
        <ele>86.400856</ele>
        <time>2020-07-25T08:10:34.971Z</time>
      </trkpt>
      <trkpt lat="60.44324" lon="5.29409">
        <ele>86.499518</ele>
        <time>2020-07-25T08:10:36.955Z</time>
      </trkpt>
      <trkpt lat="60.44316" lon="5.29422">
        <ele>86.593042</ele>
        <time>2020-07-25T08:10:38.977Z</time>
      </trkpt>
      <trkpt lat="60.44308" lon="5.29432">
        <ele>86.684294</ele>
        <time>2020-07-25T08:10:40.952Z</time>
      </trkpt>
      <trkpt lat="60.443" lon="5.29441">
        <ele>86.772645</ele>
        <time>2020-07-25T08:10:42.963Z</time>
      </trkpt>
      <trkpt lat="60.44291" lon="5.29451">
        <ele>86.865294</ele>
        <time>2020-07-25T08:10:44.975Z</time>
      </trkpt>
      <trkpt lat="60.44283" lon="5.29461">
        <ele>86.95936</ele>
        <time>2020-07-25T08:10:47.047Z</time>
      </trkpt>
      <trkpt lat="60.44274" lon="5.2947">
        <ele>87.065595</ele>
        <time>2020-07-25T08:10:48.972Z</time>
      </trkpt>
      <trkpt lat="60.44265" lon="5.29481">
        <ele>87.229835</ele>
        <time>2020-07-25T08:10:50.984Z</time>
      </trkpt>
      <trkpt lat="60.44258" lon="5.29495">
        <ele>87.396372</ele>
        <time>2020-07-25T08:10:52.982Z</time>
      </trkpt>
      <trkpt lat="60.44251" lon="5.29511">
        <ele>87.562578</ele>
        <time>2020-07-25T08:10:54.988Z</time>
      </trkpt>
      <trkpt lat="60.44245" lon="5.29529">
        <ele>87.725281</ele>
        <time>2020-07-25T08:10:56.972Z</time>
      </trkpt>
      <trkpt lat="60.44239" lon="5.29547">
        <ele>87.898225</ele>
        <time>2020-07-25T08:10:58.990Z</time>
      </trkpt>
      <trkpt lat="60.44233" lon="5.29566">
        <ele>88.073557</ele>
        <time>2020-07-25T08:11:01.031Z</time>
      </trkpt>
      <trkpt lat="60.44227" lon="5.29582">
        <ele>88.232647</ele>
        <time>2020-07-25T08:11:02.976Z</time>
      </trkpt>
      <trkpt lat="60.44222" lon="5.296">
        <ele>88.392298</ele>
        <time>2020-07-25T08:11:04.961Z</time>
      </trkpt>
      <trkpt lat="60.44216" lon="5.29616">
        <ele>88.557965</ele>
        <time>2020-07-25T08:11:06.984Z</time>
      </trkpt>
      <trkpt lat="60.44208" lon="5.29634">
        <ele>88.739039</ele>
        <time>2020-07-25T08:11:08.968Z</time>
      </trkpt>
      <trkpt lat="60.442" lon="5.29648">
        <ele>88.913261</ele>
        <time>2020-07-25T08:11:10.977Z</time>
      </trkpt>
      <trkpt lat="60.44192" lon="5.29665">
        <ele>89.090959</ele>
        <time>2020-07-25T08:11:12.974Z</time>
      </trkpt>
      <trkpt lat="60.44184" lon="5.2968">
        <ele>89.259126</ele>
        <time>2020-07-25T08:11:14.974Z</time>
      </trkpt>
      <trkpt lat="60.44177" lon="5.29694">
        <ele>89.420366</ele>
        <time>2020-07-25T08:11:16.997Z</time>
      </trkpt>
      <trkpt lat="60.44169" lon="5.29708">
        <ele>89.582399</ele>
        <time>2020-07-25T08:11:18.964Z</time>
      </trkpt>
      <trkpt lat="60.44164" lon="5.29723">
        <ele>89.733309</ele>
        <time>2020-07-25T08:11:20.994Z</time>
      </trkpt>
      <trkpt lat="60.44158" lon="5.2974">
        <ele>89.870387</ele>
        <time>2020-07-25T08:11:22.975Z</time>
      </trkpt>
      <trkpt lat="60.44154" lon="5.29758">
        <ele>89.798069</ele>
        <time>2020-07-25T08:11:24.949Z</time>
      </trkpt>
      <trkpt lat="60.44149" lon="5.29777">
        <ele>89.722639</ele>
        <time>2020-07-25T08:11:26.954Z</time>
      </trkpt>
      <trkpt lat="60.44144" lon="5.29797">
        <ele>89.644683</ele>
        <time>2020-07-25T08:11:28.988Z</time>
      </trkpt>
      <trkpt lat="60.44139" lon="5.29817">
        <ele>89.567355</ele>
        <time>2020-07-25T08:11:30.962Z</time>
      </trkpt>
      <trkpt lat="60.44135" lon="5.29836">
        <ele>89.492829</ele>
        <time>2020-07-25T08:11:32.968Z</time>
      </trkpt>
      <trkpt lat="60.44131" lon="5.29854">
        <ele>89.421817</ele>
        <time>2020-07-25T08:11:34.979Z</time>
      </trkpt>
      <trkpt lat="60.44125" lon="5.29878">
        <ele>89.329962</ele>
        <time>2020-07-25T08:11:37.976Z</time>
      </trkpt>
      <trkpt lat="60.44121" lon="5.29894">
        <ele>89.266061</ele>
        <time>2020-07-25T08:11:39.976Z</time>
      </trkpt>
      <trkpt lat="60.44115" lon="5.29911">
        <ele>89.19499</ele>
        <time>2020-07-25T08:11:41.983Z</time>
      </trkpt>
      <trkpt lat="60.4411" lon="5.29928">
        <ele>89.121372</ele>
        <time>2020-07-25T08:11:44.000Z</time>
      </trkpt>
      <trkpt lat="60.44104" lon="5.29947">
        <ele>89.045056</ele>
        <time>2020-07-25T08:11:45.960Z</time>
      </trkpt>
      <trkpt lat="60.44097" lon="5.29966">
        <ele>88.961742</ele>
        <time>2020-07-25T08:11:47.979Z</time>
      </trkpt>
      <trkpt lat="60.4409" lon="5.29986">
        <ele>88.876429</ele>
        <time>2020-07-25T08:11:49.987Z</time>
      </trkpt>
      <trkpt lat="60.44084" lon="5.30005">
        <ele>88.796649</ele>
        <time>2020-07-25T08:11:51.957Z</time>
      </trkpt>
      <trkpt lat="60.44077" lon="5.30022">
        <ele>88.717992</ele>
        <time>2020-07-25T08:11:54.012Z</time>
      </trkpt>
      <trkpt lat="60.4407" lon="5.30037">
        <ele>88.641332</ele>
        <time>2020-07-25T08:11:55.964Z</time>
      </trkpt>
      <trkpt lat="60.44061" lon="5.30049">
        <ele>88.64302</ele>
        <time>2020-07-25T08:11:57.985Z</time>
      </trkpt>
      <trkpt lat="60.44053" lon="5.30061">
        <ele>88.787828</ele>
        <time>2020-07-25T08:11:59.958Z</time>
      </trkpt>
      <trkpt lat="60.44044" lon="5.30072">
        <ele>88.93506</ele>
        <time>2020-07-25T08:12:01.977Z</time>
      </trkpt>
      <trkpt lat="60.44036" lon="5.30083">
        <ele>89.078656</ele>
        <time>2020-07-25T08:12:03.956Z</time>
      </trkpt>
      <trkpt lat="60.44027" lon="5.30094">
        <ele>89.230669</ele>
        <time>2020-07-25T08:12:05.953Z</time>
      </trkpt>
      <trkpt lat="60.44018" lon="5.30105">
        <ele>89.379495</ele>
        <time>2020-07-25T08:12:07.965Z</time>
      </trkpt>
      <trkpt lat="60.4401" lon="5.30116">
        <ele>89.522328</ele>
        <time>2020-07-25T08:12:09.983Z</time>
      </trkpt>
      <trkpt lat="60.44002" lon="5.30127">
        <ele>89.661534</ele>
        <time>2020-07-25T08:12:11.952Z</time>
      </trkpt>
      <trkpt lat="60.43993" lon="5.30139">
        <ele>89.805116</ele>
        <time>2020-07-25T08:12:13.972Z</time>
      </trkpt>
      <trkpt lat="60.43985" lon="5.30152">
        <ele>89.956012</ele>
        <time>2020-07-25T08:12:15.968Z</time>
      </trkpt>
      <trkpt lat="60.43976" lon="5.30165">
        <ele>90.114202</ele>
        <time>2020-07-25T08:12:17.986Z</time>
      </trkpt>
      <trkpt lat="60.43969" lon="5.3018">
        <ele>90.262537</ele>
        <time>2020-07-25T08:12:19.964Z</time>
      </trkpt>
      <trkpt lat="60.43962" lon="5.30195">
        <ele>90.4113</ele>
        <time>2020-07-25T08:12:22.042Z</time>
      </trkpt>
      <trkpt lat="60.43954" lon="5.30211">
        <ele>90.566112</ele>
        <time>2020-07-25T08:12:23.974Z</time>
      </trkpt>
      <trkpt lat="60.43947" lon="5.30226">
        <ele>90.720442</ele>
        <time>2020-07-25T08:12:26.011Z</time>
      </trkpt>
      <trkpt lat="60.4394" lon="5.30242">
        <ele>90.868032</ele>
        <time>2020-07-25T08:12:28.015Z</time>
      </trkpt>
      <trkpt lat="60.43932" lon="5.30257">
        <ele>91.02154</ele>
        <time>2020-07-25T08:12:29.966Z</time>
      </trkpt>
      <trkpt lat="60.43923" lon="5.30267">
        <ele>91.169946</ele>
        <time>2020-07-25T08:12:31.966Z</time>
      </trkpt>
      <trkpt lat="60.43919" lon="5.30286">
        <ele>90.619236</ele>
        <time>2020-07-25T08:12:35.958Z</time>
      </trkpt>
      <trkpt lat="60.43913" lon="5.30303">
        <ele>90.002477</ele>
        <time>2020-07-25T08:12:39.970Z</time>
      </trkpt>
      <trkpt lat="60.43905" lon="5.30323">
        <ele>89.291224</ele>
        <time>2020-07-25T08:12:42.968Z</time>
      </trkpt>
      <trkpt lat="60.439" lon="5.30339">
        <ele>88.735098</ele>
        <time>2020-07-25T08:12:44.983Z</time>
      </trkpt>
      <trkpt lat="60.43894" lon="5.30357">
        <ele>88.127854</ele>
        <time>2020-07-25T08:12:46.978Z</time>
      </trkpt>
      <trkpt lat="60.43889" lon="5.30376">
        <ele>87.517486</ele>
        <time>2020-07-25T08:12:48.969Z</time>
      </trkpt>
      <trkpt lat="60.43886" lon="5.30395">
        <ele>86.934762</ele>
        <time>2020-07-25T08:12:50.984Z</time>
      </trkpt>
      <trkpt lat="60.43883" lon="5.30415">
        <ele>86.335912</ele>
        <time>2020-07-25T08:12:52.990Z</time>
      </trkpt>
      <trkpt lat="60.43879" lon="5.30436">
        <ele>85.713523</ele>
        <time>2020-07-25T08:12:54.982Z</time>
      </trkpt>
      <trkpt lat="60.43875" lon="5.30456">
        <ele>85.073048</ele>
        <time>2020-07-25T08:12:56.965Z</time>
      </trkpt>
      <trkpt lat="60.43872" lon="5.30475">
        <ele>84.490525</ele>
        <time>2020-07-25T08:12:58.973Z</time>
      </trkpt>
      <trkpt lat="60.43868" lon="5.30495">
        <ele>83.885705</ele>
        <time>2020-07-25T08:13:00.982Z</time>
      </trkpt>
      <trkpt lat="60.43864" lon="5.30515">
        <ele>83.280231</ele>
        <time>2020-07-25T08:13:02.952Z</time>
      </trkpt>
      <trkpt lat="60.43861" lon="5.30537">
        <ele>82.634884</ele>
        <time>2020-07-25T08:13:04.997Z</time>
      </trkpt>
      <trkpt lat="60.43858" lon="5.30557">
        <ele>82.010596</ele>
        <time>2020-07-25T08:13:06.963Z</time>
      </trkpt>
      <trkpt lat="60.43855" lon="5.30575">
        <ele>81.481371</ele>
        <time>2020-07-25T08:13:08.967Z</time>
      </trkpt>
      <trkpt lat="60.4385" lon="5.30594">
        <ele>80.88923</ele>
        <time>2020-07-25T08:13:11.007Z</time>
      </trkpt>
      <trkpt lat="60.43845" lon="5.30614">
        <ele>80.337507</ele>
        <time>2020-07-25T08:13:12.954Z</time>
      </trkpt>
      <trkpt lat="60.43839" lon="5.30633">
        <ele>79.813186</ele>
        <time>2020-07-25T08:13:14.969Z</time>
      </trkpt>
      <trkpt lat="60.43834" lon="5.30651">
        <ele>79.329543</ele>
        <time>2020-07-25T08:13:16.949Z</time>
      </trkpt>
      <trkpt lat="60.43829" lon="5.30669">
        <ele>78.846537</ele>
        <time>2020-07-25T08:13:18.971Z</time>
      </trkpt>
      <trkpt lat="60.43823" lon="5.30689">
        <ele>78.316888</ele>
        <time>2020-07-25T08:13:20.983Z</time>
      </trkpt>
      <trkpt lat="60.43818" lon="5.30711">
        <ele>77.745817</ele>
        <time>2020-07-25T08:13:22.971Z</time>
      </trkpt>
      <trkpt lat="60.43812" lon="5.30735">
        <ele>77.118579</ele>
        <time>2020-07-25T08:13:24.955Z</time>
      </trkpt>
      <trkpt lat="60.43807" lon="5.30759">
        <ele>76.507768</ele>
        <time>2020-07-25T08:13:26.951Z</time>
      </trkpt>
      <trkpt lat="60.438" lon="5.30781">
        <ele>75.913848</ele>
        <time>2020-07-25T08:13:28.959Z</time>
      </trkpt>
      <trkpt lat="60.43793" lon="5.30801">
        <ele>75.341478</ele>
        <time>2020-07-25T08:13:30.954Z</time>
      </trkpt>
      <trkpt lat="60.43784" lon="5.30816">
        <ele>74.810206</ele>
        <time>2020-07-25T08:13:32.983Z</time>
      </trkpt>
      <trkpt lat="60.43776" lon="5.3083">
        <ele>74.299665</ele>
        <time>2020-07-25T08:13:34.960Z</time>
      </trkpt>
      <trkpt lat="60.43767" lon="5.30844">
        <ele>73.75551</ele>
        <time>2020-07-25T08:13:36.982Z</time>
      </trkpt>
      <trkpt lat="60.43757" lon="5.3086">
        <ele>73.192529</ele>
        <time>2020-07-25T08:13:38.973Z</time>
      </trkpt>
      <trkpt lat="60.43748" lon="5.30876">
        <ele>72.614278</ele>
        <time>2020-07-25T08:13:40.955Z</time>
      </trkpt>
      <trkpt lat="60.43738" lon="5.30893">
        <ele>72.220594</ele>
        <time>2020-07-25T08:13:42.971Z</time>
      </trkpt>
      <trkpt lat="60.43729" lon="5.30909">
        <ele>72.049311</ele>
        <time>2020-07-25T08:13:44.956Z</time>
      </trkpt>
      <trkpt lat="60.4372" lon="5.30922">
        <ele>71.896492</ele>
        <time>2020-07-25T08:13:46.982Z</time>
      </trkpt>
      <trkpt lat="60.43711" lon="5.30937">
        <ele>71.734633</ele>
        <time>2020-07-25T08:13:48.969Z</time>
      </trkpt>
      <trkpt lat="60.43703" lon="5.30952">
        <ele>71.577026</ele>
        <time>2020-07-25T08:13:50.955Z</time>
      </trkpt>
      <trkpt lat="60.43696" lon="5.30969">
        <ele>71.421215</ele>
        <time>2020-07-25T08:13:52.976Z</time>
      </trkpt>
      <trkpt lat="60.43689" lon="5.30988">
        <ele>71.257998</ele>
        <time>2020-07-25T08:13:54.975Z</time>
      </trkpt>
      <trkpt lat="60.43683" lon="5.31007">
        <ele>71.098103</ele>
        <time>2020-07-25T08:13:56.979Z</time>
      </trkpt>
      <trkpt lat="60.43678" lon="5.31029">
        <ele>70.928392</ele>
        <time>2020-07-25T08:13:58.956Z</time>
      </trkpt>
      <trkpt lat="60.43675" lon="5.31054">
        <ele>70.746545</ele>
        <time>2020-07-25T08:14:00.969Z</time>
      </trkpt>
      <trkpt lat="60.43673" lon="5.31079">
        <ele>70.571923</ele>
        <time>2020-07-25T08:14:02.972Z</time>
      </trkpt>
      <trkpt lat="60.43671" lon="5.31102">
        <ele>70.405132</ele>
        <time>2020-07-25T08:14:04.988Z</time>
      </trkpt>
      <trkpt lat="60.43668" lon="5.31126">
        <ele>70.233086</ele>
        <time>2020-07-25T08:14:06.963Z</time>
      </trkpt>
      <trkpt lat="60.43666" lon="5.31149">
        <ele>70.07003</ele>
        <time>2020-07-25T08:14:08.964Z</time>
      </trkpt>
      <trkpt lat="60.43666" lon="5.31173">
        <ele>69.899673</ele>
        <time>2020-07-25T08:14:10.997Z</time>
      </trkpt>
      <trkpt lat="60.43667" lon="5.31197">
        <ele>69.705215</ele>
        <time>2020-07-25T08:14:12.980Z</time>
      </trkpt>
      <trkpt lat="60.43669" lon="5.31222">
        <ele>69.391118</ele>
        <time>2020-07-25T08:14:14.984Z</time>
      </trkpt>
      <trkpt lat="60.43669" lon="5.31247">
        <ele>69.086006</ele>
        <time>2020-07-25T08:14:16.958Z</time>
      </trkpt>
      <trkpt lat="60.43665" lon="5.31272">
        <ele>68.753516</ele>
        <time>2020-07-25T08:14:18.973Z</time>
      </trkpt>
      <trkpt lat="60.43659" lon="5.31294">
        <ele>68.445049</ele>
        <time>2020-07-25T08:14:20.969Z</time>
      </trkpt>
      <trkpt lat="60.43652" lon="5.31313">
        <ele>68.159061</ele>
        <time>2020-07-25T08:14:22.998Z</time>
      </trkpt>
      <trkpt lat="60.43646" lon="5.31332">
        <ele>67.875968</ele>
        <time>2020-07-25T08:14:24.984Z</time>
      </trkpt>
      <trkpt lat="60.4364" lon="5.31352">
        <ele>67.597088</ele>
        <time>2020-07-25T08:14:26.953Z</time>
      </trkpt>
      <trkpt lat="60.43635" lon="5.31373">
        <ele>67.307985</ele>
        <time>2020-07-25T08:14:28.960Z</time>
      </trkpt>
      <trkpt lat="60.4363" lon="5.31395">
        <ele>67.007603</ele>
        <time>2020-07-25T08:14:30.953Z</time>
      </trkpt>
      <trkpt lat="60.43626" lon="5.31418">
        <ele>66.697408</ele>
        <time>2020-07-25T08:14:32.955Z</time>
      </trkpt>
      <trkpt lat="60.43621" lon="5.31442">
        <ele>66.377701</ele>
        <time>2020-07-25T08:14:34.980Z</time>
      </trkpt>
      <trkpt lat="60.43618" lon="5.31467">
        <ele>66.06161</ele>
        <time>2020-07-25T08:14:36.956Z</time>
      </trkpt>
      <trkpt lat="60.43617" lon="5.31493">
        <ele>65.750585</ele>
        <time>2020-07-25T08:14:38.971Z</time>
      </trkpt>
      <trkpt lat="60.4362" lon="5.31514">
        <ele>65.482304</ele>
        <time>2020-07-25T08:14:40.975Z</time>
      </trkpt>
      <trkpt lat="60.43625" lon="5.31532">
        <ele>65.235617</ele>
        <time>2020-07-25T08:14:42.978Z</time>
      </trkpt>
      <trkpt lat="60.43632" lon="5.31546">
        <ele>65.044032</ele>
        <time>2020-07-25T08:14:44.958Z</time>
      </trkpt>
      <trkpt lat="60.4364" lon="5.31561">
        <ele>64.844938</ele>
        <time>2020-07-25T08:14:46.985Z</time>
      </trkpt>
      <trkpt lat="60.43647" lon="5.31577">
        <ele>64.653151</ele>
        <time>2020-07-25T08:14:48.965Z</time>
      </trkpt>
      <trkpt lat="60.4365" lon="5.31598">
        <ele>64.457982</ele>
        <time>2020-07-25T08:14:50.987Z</time>
      </trkpt>
      <trkpt lat="60.4365" lon="5.31617">
        <ele>64.28726</ele>
        <time>2020-07-25T08:14:52.965Z</time>
      </trkpt>
      <trkpt lat="60.43646" lon="5.31637">
        <ele>64.094139</ele>
        <time>2020-07-25T08:14:54.955Z</time>
      </trkpt>
      <trkpt lat="60.43641" lon="5.31657">
        <ele>63.884957</ele>
        <time>2020-07-25T08:14:56.963Z</time>
      </trkpt>
      <trkpt lat="60.43634" lon="5.31674">
        <ele>63.680548</ele>
        <time>2020-07-25T08:14:59.007Z</time>
      </trkpt>
      <trkpt lat="60.43627" lon="5.31689">
        <ele>63.497188</ele>
        <time>2020-07-25T08:15:00.966Z</time>
      </trkpt>
      <trkpt lat="60.4362" lon="5.31704">
        <ele>63.322228</ele>
        <time>2020-07-25T08:15:02.968Z</time>
      </trkpt>
      <trkpt lat="60.43614" lon="5.31717">
        <ele>63.157084</ele>
        <time>2020-07-25T08:15:04.971Z</time>
      </trkpt>
      <trkpt lat="60.43606" lon="5.31736">
        <ele>62.930298</ele>
        <time>2020-07-25T08:15:07.961Z</time>
      </trkpt>
      <trkpt lat="60.43602" lon="5.31759">
        <ele>62.708603</ele>
        <time>2020-07-25T08:15:10.967Z</time>
      </trkpt>
      <trkpt lat="60.436" lon="5.31776">
        <ele>62.542312</ele>
        <time>2020-07-25T08:15:12.965Z</time>
      </trkpt>
      <trkpt lat="60.43599" lon="5.31803">
        <ele>62.305332</ele>
        <time>2020-07-25T08:15:15.984Z</time>
      </trkpt>
      <trkpt lat="60.43602" lon="5.31828">
        <ele>62.070853</ele>
        <time>2020-07-25T08:15:18.955Z</time>
      </trkpt>
      <trkpt lat="60.43606" lon="5.31852">
        <ele>62.369084</ele>
        <time>2020-07-25T08:15:21.967Z</time>
      </trkpt>
      <trkpt lat="60.43612" lon="5.31873">
        <ele>63.120327</ele>
        <time>2020-07-25T08:15:24.961Z</time>
      </trkpt>
      <trkpt lat="60.43618" lon="5.31895">
        <ele>63.865897</ele>
        <time>2020-07-25T08:15:27.975Z</time>
      </trkpt>
      <trkpt lat="60.43623" lon="5.31914">
        <ele>64.532363</ele>
        <time>2020-07-25T08:15:30.988Z</time>
      </trkpt>
      <trkpt lat="60.43628" lon="5.31933">
        <ele>65.184223</ele>
        <time>2020-07-25T08:15:33.968Z</time>
      </trkpt>
      <trkpt lat="60.43632" lon="5.31952">
        <ele>65.831047</ele>
        <time>2020-07-25T08:15:36.970Z</time>
      </trkpt>
      <trkpt lat="60.43638" lon="5.31974">
        <ele>66.567477</ele>
        <time>2020-07-25T08:15:39.964Z</time>
      </trkpt>
      <trkpt lat="60.43644" lon="5.31997">
        <ele>67.358964</ele>
        <time>2020-07-25T08:15:42.956Z</time>
      </trkpt>
      <trkpt lat="60.4365" lon="5.32019">
        <ele>68.112227</ele>
        <time>2020-07-25T08:15:45.972Z</time>
      </trkpt>
      <trkpt lat="60.43659" lon="5.32031">
        <ele>68.803854</ele>
        <time>2020-07-25T08:15:48.959Z</time>
      </trkpt>
      <trkpt lat="60.43666" lon="5.32047">
        <ele>69.447509</ele>
        <time>2020-07-25T08:15:51.983Z</time>
      </trkpt>
      <trkpt lat="60.43671" lon="5.32066">
        <ele>70.111569</ele>
        <time>2020-07-25T08:15:54.954Z</time>
      </trkpt>
      <trkpt lat="60.43679" lon="5.32085">
        <ele>70.867974</ele>
        <time>2020-07-25T08:15:58.003Z</time>
      </trkpt>
      <trkpt lat="60.43688" lon="5.32101">
        <ele>71.589032</ele>
        <time>2020-07-25T08:16:00.983Z</time>
      </trkpt>
      <trkpt lat="60.43696" lon="5.32113">
        <ele>72.20215</ele>
        <time>2020-07-25T08:16:04.003Z</time>
      </trkpt>
      <trkpt lat="60.43703" lon="5.32124">
        <ele>72.769112</ele>
        <time>2020-07-25T08:16:06.954Z</time>
      </trkpt>
      <trkpt lat="60.43714" lon="5.32133">
        <ele>73.535675</ele>
        <time>2020-07-25T08:16:10.963Z</time>
      </trkpt>
      <trkpt lat="60.43723" lon="5.32139">
        <ele>74.212542</ele>
        <time>2020-07-25T08:16:14.960Z</time>
      </trkpt>
      <trkpt lat="60.43734" lon="5.32145">
        <ele>74.969402</ele>
        <time>2020-07-25T08:16:19.992Z</time>
      </trkpt>
      <trkpt lat="60.43743" lon="5.3215">
        <ele>75.633258</ele>
        <time>2020-07-25T08:16:24.959Z</time>
      </trkpt>
      <trkpt lat="60.43753" lon="5.32156">
        <ele>76.401327</ele>
        <time>2020-07-25T08:16:29.977Z</time>
      </trkpt>
      <trkpt lat="60.43762" lon="5.3216">
        <ele>77.052664</ele>
        <time>2020-07-25T08:16:33.977Z</time>
      </trkpt>
      <trkpt lat="60.43772" lon="5.32164">
        <ele>77.720289</ele>
        <time>2020-07-25T08:16:37.955Z</time>
      </trkpt>
      <trkpt lat="60.43782" lon="5.3217">
        <ele>78.439909</ele>
        <time>2020-07-25T08:16:42.966Z</time>
      </trkpt>
      <trkpt lat="60.43791" lon="5.32176">
        <ele>79.147684</ele>
        <time>2020-07-25T08:16:47.972Z</time>
      </trkpt>
      <trkpt lat="60.43801" lon="5.32182">
        <ele>79.830927</ele>
        <time>2020-07-25T08:16:53.972Z</time>
      </trkpt>
      <trkpt lat="60.4381" lon="5.32191">
        <ele>80.557962</ele>
        <time>2020-07-25T08:16:59.979Z</time>
      </trkpt>
      <trkpt lat="60.4382" lon="5.32199">
        <ele>81.288351</ele>
        <time>2020-07-25T08:17:05.963Z</time>
      </trkpt>
      <trkpt lat="60.43828" lon="5.32211">
        <ele>81.978426</ele>
        <time>2020-07-25T08:17:11.955Z</time>
      </trkpt>
      <trkpt lat="60.43835" lon="5.32222">
        <ele>82.604051</ele>
        <time>2020-07-25T08:17:16.981Z</time>
      </trkpt>
      <trkpt lat="60.43843" lon="5.32234">
        <ele>83.275657</ele>
        <time>2020-07-25T08:17:21.979Z</time>
      </trkpt>
      <trkpt lat="60.43851" lon="5.32248">
        <ele>84.021674</ele>
        <time>2020-07-25T08:17:27.981Z</time>
      </trkpt>
      <trkpt lat="60.43858" lon="5.32261">
        <ele>84.719407</ele>
        <time>2020-07-25T08:17:33.967Z</time>
      </trkpt>
      <trkpt lat="60.43867" lon="5.32273">
        <ele>85.457713</ele>
        <time>2020-07-25T08:17:39.961Z</time>
      </trkpt>
      <trkpt lat="60.43876" lon="5.32286">
        <ele>85.63474</ele>
        <time>2020-07-25T08:17:44.989Z</time>
      </trkpt>
      <trkpt lat="60.43885" lon="5.32298">
        <ele>85.678856</ele>
        <time>2020-07-25T08:17:50.015Z</time>
      </trkpt>
      <trkpt lat="60.43894" lon="5.32307">
        <ele>85.717476</ele>
        <time>2020-07-25T08:17:53.969Z</time>
      </trkpt>
      <trkpt lat="60.43904" lon="5.32315">
        <ele>85.762051</ele>
        <time>2020-07-25T08:17:57.988Z</time>
      </trkpt>
      <trkpt lat="60.43914" lon="5.32322">
        <ele>85.800524</ele>
        <time>2020-07-25T08:18:00.958Z</time>
      </trkpt>
      <trkpt lat="60.43925" lon="5.32327">
        <ele>85.848407</ele>
        <time>2020-07-25T08:18:03.976Z</time>
      </trkpt>
      <trkpt lat="60.43938" lon="5.32329">
        <ele>85.899301</ele>
        <time>2020-07-25T08:18:06.967Z</time>
      </trkpt>
      <trkpt lat="60.43949" lon="5.3233">
        <ele>85.940956</ele>
        <time>2020-07-25T08:18:10.014Z</time>
      </trkpt>
      <trkpt lat="60.43959" lon="5.32329">
        <ele>85.983808</ele>
        <time>2020-07-25T08:18:13.974Z</time>
      </trkpt>
      <trkpt lat="60.4397" lon="5.32325">
        <ele>86.025006</ele>
        <time>2020-07-25T08:18:16.964Z</time>
      </trkpt>
      <trkpt lat="60.4398" lon="5.32321">
        <ele>86.068538</ele>
        <time>2020-07-25T08:18:19.977Z</time>
      </trkpt>
      <trkpt lat="60.43991" lon="5.32318">
        <ele>86.10898</ele>
        <time>2020-07-25T08:18:22.969Z</time>
      </trkpt>
      <trkpt lat="60.44" lon="5.32314">
        <ele>86.145215</ele>
        <time>2020-07-25T08:18:25.965Z</time>
      </trkpt>
      <trkpt lat="60.44011" lon="5.32313">
        <ele>86.191638</ele>
        <time>2020-07-25T08:18:29.963Z</time>
      </trkpt>
      <trkpt lat="60.44022" lon="5.32313">
        <ele>86.234437</ele>
        <time>2020-07-25T08:18:33.949Z</time>
      </trkpt>
      <trkpt lat="60.44033" lon="5.32313">
        <ele>86.27881</ele>
        <time>2020-07-25T08:18:38.954Z</time>
      </trkpt>
      <trkpt lat="60.44043" lon="5.32313">
        <ele>86.336895</ele>
        <time>2020-07-25T08:18:42.963Z</time>
      </trkpt>
      <trkpt lat="60.44052" lon="5.32314">
        <ele>86.608425</ele>
        <time>2020-07-25T08:18:46.967Z</time>
      </trkpt>
      <trkpt lat="60.44062" lon="5.32319">
        <ele>86.924508</ele>
        <time>2020-07-25T08:18:51.982Z</time>
      </trkpt>
      <trkpt lat="60.44073" lon="5.32322">
        <ele>87.247405</ele>
        <time>2020-07-25T08:18:55.982Z</time>
      </trkpt>
      <trkpt lat="60.44084" lon="5.32325">
        <ele>87.574801</ele>
        <time>2020-07-25T08:18:59.963Z</time>
      </trkpt>
      <trkpt lat="60.44095" lon="5.32326">
        <ele>87.890288</ele>
        <time>2020-07-25T08:19:03.966Z</time>
      </trkpt>
      <trkpt lat="60.44105" lon="5.32324">
        <ele>88.186378</ele>
        <time>2020-07-25T08:19:07.954Z</time>
      </trkpt>
      <trkpt lat="60.44116" lon="5.3232">
        <ele>88.509275</ele>
        <time>2020-07-25T08:19:11.971Z</time>
      </trkpt>
      <trkpt lat="60.44126" lon="5.32316">
        <ele>88.831724</ele>
        <time>2020-07-25T08:19:15.994Z</time>
      </trkpt>
      <trkpt lat="60.44136" lon="5.3231">
        <ele>89.133098</ele>
        <time>2020-07-25T08:19:19.985Z</time>
      </trkpt>
      <trkpt lat="60.44145" lon="5.32304">
        <ele>89.40122</ele>
        <time>2020-07-25T08:19:23.969Z</time>
      </trkpt>
      <trkpt lat="60.44154" lon="5.32297">
        <ele>89.683366</ele>
        <time>2020-07-25T08:19:27.963Z</time>
      </trkpt>
      <trkpt lat="60.44163" lon="5.32291">
        <ele>89.965919</ele>
        <time>2020-07-25T08:19:31.972Z</time>
      </trkpt>
      <trkpt lat="60.44172" lon="5.32285">
        <ele>90.258708</ele>
        <time>2020-07-25T08:19:35.978Z</time>
      </trkpt>
      <trkpt lat="60.44182" lon="5.32279">
        <ele>90.561319</ele>
        <time>2020-07-25T08:19:39.954Z</time>
      </trkpt>
      <trkpt lat="60.44192" lon="5.32275">
        <ele>90.863293</ele>
        <time>2020-07-25T08:19:43.960Z</time>
      </trkpt>
      <trkpt lat="60.44202" lon="5.3227">
        <ele>91.17552</ele>
        <time>2020-07-25T08:19:47.990Z</time>
      </trkpt>
      <trkpt lat="60.44212" lon="5.32272">
        <ele>91.454471</ele>
        <time>2020-07-25T08:19:51.976Z</time>
      </trkpt>
      <trkpt lat="60.44223" lon="5.32268">
        <ele>91.776012</ele>
        <time>2020-07-25T08:19:55.972Z</time>
      </trkpt>
      <trkpt lat="60.44233" lon="5.32259">
        <ele>92.05191</ele>
        <time>2020-07-25T08:19:58.971Z</time>
      </trkpt>
      <trkpt lat="60.44242" lon="5.32252">
        <ele>92.291107</ele>
        <time>2020-07-25T08:20:01.967Z</time>
      </trkpt>
      <trkpt lat="60.44253" lon="5.32251">
        <ele>92.558033</ele>
        <time>2020-07-25T08:20:07.971Z</time>
      </trkpt>
      <trkpt lat="60.44262" lon="5.32243">
        <ele>92.805308</ele>
        <time>2020-07-25T08:20:10.974Z</time>
      </trkpt>
      <trkpt lat="60.4427" lon="5.32235">
        <ele>93.035264</ele>
        <time>2020-07-25T08:20:13.979Z</time>
      </trkpt>
      <trkpt lat="60.4428" lon="5.32225">
        <ele>93.337198</ele>
        <time>2020-07-25T08:20:17.968Z</time>
      </trkpt>
      <trkpt lat="60.44289" lon="5.32217">
        <ele>93.57449</ele>
        <time>2020-07-25T08:20:20.986Z</time>
      </trkpt>
      <trkpt lat="60.44299" lon="5.32209">
        <ele>93.840561</ele>
        <time>2020-07-25T08:20:24.037Z</time>
      </trkpt>
      <trkpt lat="60.44308" lon="5.32206">
        <ele>94.091591</ele>
        <time>2020-07-25T08:20:26.999Z</time>
      </trkpt>
      <trkpt lat="60.44318" lon="5.32211">
        <ele>94.347959</ele>
        <time>2020-07-25T08:20:29.982Z</time>
      </trkpt>
      <trkpt lat="60.44327" lon="5.32223">
        <ele>94.617358</ele>
        <time>2020-07-25T08:20:32.959Z</time>
      </trkpt>
      <trkpt lat="60.44333" lon="5.32242">
        <ele>94.898645</ele>
        <time>2020-07-25T08:20:35.971Z</time>
      </trkpt>
      <trkpt lat="60.44336" lon="5.32264">
        <ele>95.175393</ele>
        <time>2020-07-25T08:20:38.989Z</time>
      </trkpt>
      <trkpt lat="60.44336" lon="5.32285">
        <ele>95.444278</ele>
        <time>2020-07-25T08:20:41.975Z</time>
      </trkpt>
      <trkpt lat="60.44336" lon="5.32304">
        <ele>95.67924</ele>
        <time>2020-07-25T08:20:44.960Z</time>
      </trkpt>
      <trkpt lat="60.44334" lon="5.32322">
        <ele>95.906809</ele>
        <time>2020-07-25T08:20:47.968Z</time>
      </trkpt>
      <trkpt lat="60.44331" lon="5.32344">
        <ele>96.230221</ele>
        <time>2020-07-25T08:20:52.004Z</time>
      </trkpt>
      <trkpt lat="60.44327" lon="5.32362">
        <ele>96.819098</ele>
        <time>2020-07-25T08:20:54.971Z</time>
      </trkpt>
      <trkpt lat="60.44323" lon="5.32379">
        <ele>97.399861</ele>
        <time>2020-07-25T08:20:58.015Z</time>
      </trkpt>
      <trkpt lat="60.44317" lon="5.32394">
        <ele>97.968946</ele>
        <time>2020-07-25T08:21:00.966Z</time>
      </trkpt>
      <trkpt lat="60.44309" lon="5.3241">
        <ele>98.670565</ele>
        <time>2020-07-25T08:21:05.975Z</time>
      </trkpt>
      <trkpt lat="60.44302" lon="5.32427">
        <ele>99.360793</ele>
        <time>2020-07-25T08:21:10.972Z</time>
      </trkpt>
      <trkpt lat="60.44296" lon="5.32444">
        <ele>99.981106</ele>
        <time>2020-07-25T08:21:14.983Z</time>
      </trkpt>
      <trkpt lat="60.44289" lon="5.32461">
        <ele>100.650341</ele>
        <time>2020-07-25T08:21:19.988Z</time>
      </trkpt>
      <trkpt lat="60.44284" lon="5.3248">
        <ele>101.295901</ele>
        <time>2020-07-25T08:21:24.954Z</time>
      </trkpt>
      <trkpt lat="60.44279" lon="5.32498">
        <ele>101.940562</ele>
        <time>2020-07-25T08:21:29.988Z</time>
      </trkpt>
      <trkpt lat="60.44275" lon="5.32516">
        <ele>102.522772</ele>
        <time>2020-07-25T08:21:33.971Z</time>
      </trkpt>
      <trkpt lat="60.44272" lon="5.32536">
        <ele>103.156012</ele>
        <time>2020-07-25T08:21:38.966Z</time>
      </trkpt>
      <trkpt lat="60.4427" lon="5.32556">
        <ele>103.788421</ele>
        <time>2020-07-25T08:21:43.968Z</time>
      </trkpt>
      <trkpt lat="60.44271" lon="5.32577">
        <ele>104.411442</ele>
        <time>2020-07-25T08:21:48.964Z</time>
      </trkpt>
      <trkpt lat="60.44275" lon="5.32593">
        <ele>104.971585</ele>
        <time>2020-07-25T08:21:52.966Z</time>
      </trkpt>
      <trkpt lat="60.44281" lon="5.32608">
        <ele>105.56198</ele>
        <time>2020-07-25T08:21:57.987Z</time>
      </trkpt>
      <trkpt lat="60.4429" lon="5.32621">
        <ele>106.231219</ele>
        <time>2020-07-25T08:22:02.994Z</time>
      </trkpt>
      <trkpt lat="60.44298" lon="5.3263">
        <ele>106.81803</ele>
        <time>2020-07-25T08:22:06.965Z</time>
      </trkpt>
      <trkpt lat="60.44307" lon="5.32636">
        <ele>107.25091</ele>
        <time>2020-07-25T08:22:10.961Z</time>
      </trkpt>
      <trkpt lat="60.44317" lon="5.32638">
        <ele>107.296468</ele>
        <time>2020-07-25T08:22:14.994Z</time>
      </trkpt>
      <trkpt lat="60.44327" lon="5.32638">
        <ele>107.345257</ele>
        <time>2020-07-25T08:22:18.941Z</time>
      </trkpt>
      <trkpt lat="60.44337" lon="5.32637">
        <ele>107.394581</ele>
        <time>2020-07-25T08:22:22.964Z</time>
      </trkpt>
      <trkpt lat="60.44347" lon="5.32635">
        <ele>107.446407</ele>
        <time>2020-07-25T08:22:26.965Z</time>
      </trkpt>
      <trkpt lat="60.44359" lon="5.32634">
        <ele>107.502159</ele>
        <time>2020-07-25T08:22:30.956Z</time>
      </trkpt>
      <trkpt lat="60.44368" lon="5.32633">
        <ele>107.548559</ele>
        <time>2020-07-25T08:22:33.954Z</time>
      </trkpt>
      <trkpt lat="60.44378" lon="5.3263">
        <ele>107.596329</ele>
        <time>2020-07-25T08:22:36.960Z</time>
      </trkpt>
      <trkpt lat="60.44387" lon="5.32628">
        <ele>107.642099</ele>
        <time>2020-07-25T08:22:39.984Z</time>
      </trkpt>
      <trkpt lat="60.44397" lon="5.32625">
        <ele>107.689291</ele>
        <time>2020-07-25T08:22:42.972Z</time>
      </trkpt>
      <trkpt lat="60.44407" lon="5.32622">
        <ele>107.737927</ele>
        <time>2020-07-25T08:22:45.972Z</time>
      </trkpt>
      <trkpt lat="60.44416" lon="5.32618">
        <ele>107.786038</ele>
        <time>2020-07-25T08:22:48.957Z</time>
      </trkpt>
      <trkpt lat="60.44426" lon="5.32613">
        <ele>107.836232</ele>
        <time>2020-07-25T08:22:51.988Z</time>
      </trkpt>
      <trkpt lat="60.44436" lon="5.32607">
        <ele>107.885974</ele>
        <time>2020-07-25T08:22:55.005Z</time>
      </trkpt>
      <trkpt lat="60.44445" lon="5.32602">
        <ele>107.932168</ele>
        <time>2020-07-25T08:22:57.973Z</time>
      </trkpt>
      <trkpt lat="60.44454" lon="5.32595">
        <ele>107.980004</ele>
        <time>2020-07-25T08:23:00.972Z</time>
      </trkpt>
      <trkpt lat="60.44465" lon="5.32586">
        <ele>108.036974</ele>
        <time>2020-07-25T08:23:04.998Z</time>
      </trkpt>
      <trkpt lat="60.44475" lon="5.32578">
        <ele>108.087163</ele>
        <time>2020-07-25T08:23:08.961Z</time>
      </trkpt>
      <trkpt lat="60.44485" lon="5.32568">
        <ele>108.110042</ele>
        <time>2020-07-25T08:23:12.962Z</time>
      </trkpt>
      <trkpt lat="60.44489" lon="5.32549">
        <ele>108.098714</ele>
        <time>2020-07-25T08:23:16.000Z</time>
      </trkpt>
      <trkpt lat="60.44497" lon="5.32532">
        <ele>108.085105</ele>
        <time>2020-07-25T08:23:19.964Z</time>
      </trkpt>
      <trkpt lat="60.44506" lon="5.32524">
        <ele>108.074057</ele>
        <time>2020-07-25T08:23:22.958Z</time>
      </trkpt>
      <trkpt lat="60.44514" lon="5.32516">
        <ele>108.063471</ele>
        <time>2020-07-25T08:23:25.957Z</time>
      </trkpt>
      <trkpt lat="60.44523" lon="5.32508">
        <ele>108.052534</ele>
        <time>2020-07-25T08:23:28.976Z</time>
      </trkpt>
      <trkpt lat="60.44532" lon="5.32499">
        <ele>108.041368</ele>
        <time>2020-07-25T08:23:31.982Z</time>
      </trkpt>
      <trkpt lat="60.44542" lon="5.32487">
        <ele>108.02798</ele>
        <time>2020-07-25T08:23:35.962Z</time>
      </trkpt>
      <trkpt lat="60.4455" lon="5.32478">
        <ele>108.01749</ele>
        <time>2020-07-25T08:23:38.974Z</time>
      </trkpt>
      <trkpt lat="60.4456" lon="5.32466">
        <ele>108.004008</ele>
        <time>2020-07-25T08:23:42.953Z</time>
      </trkpt>
      <trkpt lat="60.44569" lon="5.32454">
        <ele>107.991623</ele>
        <time>2020-07-25T08:23:46.959Z</time>
      </trkpt>
      <trkpt lat="60.44579" lon="5.32444">
        <ele>107.978724</ele>
        <time>2020-07-25T08:23:50.951Z</time>
      </trkpt>
      <trkpt lat="60.44587" lon="5.32435">
        <ele>107.968337</ele>
        <time>2020-07-25T08:23:53.959Z</time>
      </trkpt>
      <trkpt lat="60.44595" lon="5.32425">
        <ele>107.957681</ele>
        <time>2020-07-25T08:23:56.969Z</time>
      </trkpt>
      <trkpt lat="60.44604" lon="5.32415">
        <ele>107.945866</ele>
        <time>2020-07-25T08:23:59.971Z</time>
      </trkpt>
      <trkpt lat="60.44615" lon="5.32402">
        <ele>107.93213</ele>
        <time>2020-07-25T08:24:02.965Z</time>
      </trkpt>
      <trkpt lat="60.44624" lon="5.32391">
        <ele>107.919186</ele>
        <time>2020-07-25T08:24:05.954Z</time>
      </trkpt>
      <trkpt lat="60.44634" lon="5.3238">
        <ele>107.889607</ele>
        <time>2020-07-25T08:24:08.952Z</time>
      </trkpt>
      <trkpt lat="60.44646" lon="5.32366">
        <ele>107.815769</ele>
        <time>2020-07-25T08:24:11.960Z</time>
      </trkpt>
      <trkpt lat="60.44655" lon="5.32356">
        <ele>107.760751</ele>
        <time>2020-07-25T08:24:13.952Z</time>
      </trkpt>
      <trkpt lat="60.44663" lon="5.32345">
        <ele>107.704606</ele>
        <time>2020-07-25T08:24:15.955Z</time>
      </trkpt>
      <trkpt lat="60.44673" lon="5.32331">
        <ele>107.638398</ele>
        <time>2020-07-25T08:24:17.953Z</time>
      </trkpt>
      <trkpt lat="60.44684" lon="5.32316">
        <ele>107.566229</ele>
        <time>2020-07-25T08:24:19.956Z</time>
      </trkpt>
      <trkpt lat="60.44694" lon="5.32301">
        <ele>107.49406</ele>
        <time>2020-07-25T08:24:21.963Z</time>
      </trkpt>
      <trkpt lat="60.44707" lon="5.32286">
        <ele>107.414742</ele>
        <time>2020-07-25T08:24:24.003Z</time>
      </trkpt>
      <trkpt lat="60.4472" lon="5.3227">
        <ele>107.330837</ele>
        <time>2020-07-25T08:24:25.973Z</time>
      </trkpt>
      <trkpt lat="60.44731" lon="5.32255">
        <ele>107.255287</ele>
        <time>2020-07-25T08:24:27.961Z</time>
      </trkpt>
      <trkpt lat="60.44742" lon="5.32243">
        <ele>107.187743</ele>
        <time>2020-07-25T08:24:29.948Z</time>
      </trkpt>
      <trkpt lat="60.44752" lon="5.3223">
        <ele>107.120866</ele>
        <time>2020-07-25T08:24:31.964Z</time>
      </trkpt>
      <trkpt lat="60.44763" lon="5.32218">
        <ele>107.052294</ele>
        <time>2020-07-25T08:24:33.967Z</time>
      </trkpt>
      <trkpt lat="60.44773" lon="5.32207">
        <ele>106.987976</ele>
        <time>2020-07-25T08:24:35.954Z</time>
      </trkpt>
      <trkpt lat="60.44783" lon="5.32196">
        <ele>106.927414</ele>
        <time>2020-07-25T08:24:37.989Z</time>
      </trkpt>
      <trkpt lat="60.44792" lon="5.32186">
        <ele>106.832124</ele>
        <time>2020-07-25T08:24:39.959Z</time>
      </trkpt>
      <trkpt lat="60.44802" lon="5.32176">
        <ele>106.723477</ele>
        <time>2020-07-25T08:24:41.975Z</time>
      </trkpt>
      <trkpt lat="60.44812" lon="5.32166">
        <ele>106.60923</ele>
        <time>2020-07-25T08:24:43.946Z</time>
      </trkpt>
      <trkpt lat="60.4482" lon="5.32152">
        <ele>106.499478</ele>
        <time>2020-07-25T08:24:45.993Z</time>
      </trkpt>
      <trkpt lat="60.44829" lon="5.32138">
        <ele>106.386031</ele>
        <time>2020-07-25T08:24:47.966Z</time>
      </trkpt>
      <trkpt lat="60.44838" lon="5.32124">
        <ele>106.274079</ele>
        <time>2020-07-25T08:24:49.947Z</time>
      </trkpt>
      <trkpt lat="60.44848" lon="5.3211">
        <ele>106.150332</ele>
        <time>2020-07-25T08:24:51.948Z</time>
      </trkpt>
      <trkpt lat="60.44857" lon="5.32097">
        <ele>106.038459</ele>
        <time>2020-07-25T08:24:53.965Z</time>
      </trkpt>
      <trkpt lat="60.44865" lon="5.32085">
        <ele>105.944498</ele>
        <time>2020-07-25T08:24:55.968Z</time>
      </trkpt>
      <trkpt lat="60.44872" lon="5.32072">
        <ele>105.84541</ele>
        <time>2020-07-25T08:24:57.949Z</time>
      </trkpt>
      <trkpt lat="60.44882" lon="5.32058">
        <ele>105.723593</ele>
        <time>2020-07-25T08:25:00.959Z</time>
      </trkpt>
      <trkpt lat="60.44892" lon="5.32044">
        <ele>105.606722</ele>
        <time>2020-07-25T08:25:03.957Z</time>
      </trkpt>
      <trkpt lat="60.44902" lon="5.3203">
        <ele>105.48382</ele>
        <time>2020-07-25T08:25:06.954Z</time>
      </trkpt>
      <trkpt lat="60.4491" lon="5.32021">
        <ele>105.390184</ele>
        <time>2020-07-25T08:25:08.974Z</time>
      </trkpt>
      <trkpt lat="60.44921" lon="5.32006">
        <ele>105.257543</ele>
        <time>2020-07-25T08:25:11.955Z</time>
      </trkpt>
      <trkpt lat="60.44933" lon="5.31991">
        <ele>105.117375</ele>
        <time>2020-07-25T08:25:15.031Z</time>
      </trkpt>
      <trkpt lat="60.44942" lon="5.31981">
        <ele>105.224508</ele>
        <time>2020-07-25T08:25:16.946Z</time>
      </trkpt>
      <trkpt lat="60.44953" lon="5.31972">
        <ele>105.354566</ele>
        <time>2020-07-25T08:25:18.961Z</time>
      </trkpt>
      <trkpt lat="60.44963" lon="5.31968">
        <ele>105.469657</ele>
        <time>2020-07-25T08:25:20.955Z</time>
      </trkpt>
      <trkpt lat="60.44971" lon="5.31963">
        <ele>105.574772</ele>
        <time>2020-07-25T08:25:22.951Z</time>
      </trkpt>
      <trkpt lat="60.4498" lon="5.31954">
        <ele>105.686345</ele>
        <time>2020-07-25T08:25:24.972Z</time>
      </trkpt>
      <trkpt lat="60.44989" lon="5.31947">
        <ele>105.799567</ele>
        <time>2020-07-25T08:25:26.971Z</time>
      </trkpt>
      <trkpt lat="60.44998" lon="5.31942">
        <ele>105.905153</ele>
        <time>2020-07-25T08:25:28.977Z</time>
      </trkpt>
      <trkpt lat="60.4501" lon="5.31935">
        <ele>106.04893</ele>
        <time>2020-07-25T08:25:31.968Z</time>
      </trkpt>
      <trkpt lat="60.45022" lon="5.31926">
        <ele>106.195131</ele>
        <time>2020-07-25T08:25:34.966Z</time>
      </trkpt>
      <trkpt lat="60.45034" lon="5.31918">
        <ele>106.344593</ele>
        <time>2020-07-25T08:25:37.999Z</time>
      </trkpt>
      <trkpt lat="60.45046" lon="5.31911">
        <ele>106.487107</ele>
        <time>2020-07-25T08:25:40.945Z</time>
      </trkpt>
      <trkpt lat="60.45058" lon="5.31906">
        <ele>106.624634</ele>
        <time>2020-07-25T08:25:43.974Z</time>
      </trkpt>
      <trkpt lat="60.45068" lon="5.319">
        <ele>106.747836</ele>
        <time>2020-07-25T08:25:46.985Z</time>
      </trkpt>
      <trkpt lat="60.45078" lon="5.31895">
        <ele>106.862951</ele>
        <time>2020-07-25T08:25:49.966Z</time>
      </trkpt>
      <trkpt lat="60.4509" lon="5.31889">
        <ele>107.001223</ele>
        <time>2020-07-25T08:25:53.956Z</time>
      </trkpt>
      <trkpt lat="60.451" lon="5.31883">
        <ele>107.12101</ele>
        <time>2020-07-25T08:25:57.952Z</time>
      </trkpt>
      <trkpt lat="60.4511" lon="5.31877">
        <ele>107.557614</ele>
        <time>2020-07-25T08:26:01.959Z</time>
      </trkpt>
      <trkpt lat="60.45121" lon="5.31871">
        <ele>108.261778</ele>
        <time>2020-07-25T08:26:05.951Z</time>
      </trkpt>
      <trkpt lat="60.45132" lon="5.31868">
        <ele>108.959234</ele>
        <time>2020-07-25T08:26:09.968Z</time>
      </trkpt>
      <trkpt lat="60.45141" lon="5.31865">
        <ele>109.554876</ele>
        <time>2020-07-25T08:26:12.968Z</time>
      </trkpt>
      <trkpt lat="60.45151" lon="5.3186">
        <ele>110.194096</ele>
        <time>2020-07-25T08:26:15.956Z</time>
      </trkpt>
      <trkpt lat="60.45162" lon="5.31856">
        <ele>110.923749</ele>
        <time>2020-07-25T08:26:19.967Z</time>
      </trkpt>
      <trkpt lat="60.45172" lon="5.3185">
        <ele>111.568944</ele>
        <time>2020-07-25T08:26:23.957Z</time>
      </trkpt>
      <trkpt lat="60.45182" lon="5.31844">
        <ele>112.196866</ele>
        <time>2020-07-25T08:26:27.955Z</time>
      </trkpt>
      <trkpt lat="60.45193" lon="5.31837">
        <ele>112.940921</ele>
        <time>2020-07-25T08:26:31.976Z</time>
      </trkpt>
      <trkpt lat="60.45204" lon="5.31829">
        <ele>113.694318</ele>
        <time>2020-07-25T08:26:35.951Z</time>
      </trkpt>
      <trkpt lat="60.45213" lon="5.31823">
        <ele>114.30702</ele>
        <time>2020-07-25T08:26:38.951Z</time>
      </trkpt>
      <trkpt lat="60.45224" lon="5.31817">
        <ele>114.991236</ele>
        <time>2020-07-25T08:26:41.952Z</time>
      </trkpt>
      <trkpt lat="60.45235" lon="5.31814">
        <ele>115.676713</ele>
        <time>2020-07-25T08:26:44.957Z</time>
      </trkpt>
      <trkpt lat="60.45245" lon="5.3181">
        <ele>116.367442</ele>
        <time>2020-07-25T08:26:48.003Z</time>
      </trkpt>
      <trkpt lat="60.45255" lon="5.31807">
        <ele>117.001512</ele>
        <time>2020-07-25T08:26:50.955Z</time>
      </trkpt>
      <trkpt lat="60.45266" lon="5.31804">
        <ele>117.664553</ele>
        <time>2020-07-25T08:26:53.967Z</time>
      </trkpt>
      <trkpt lat="60.45277" lon="5.318">
        <ele>118.386145</ele>
        <time>2020-07-25T08:26:56.964Z</time>
      </trkpt>
      <trkpt lat="60.45288" lon="5.31793">
        <ele>119.074277</ele>
        <time>2020-07-25T08:26:59.964Z</time>
      </trkpt>
      <trkpt lat="60.453" lon="5.31788">
        <ele>119.732484</ele>
        <time>2020-07-25T08:27:02.972Z</time>
      </trkpt>
      <trkpt lat="60.45311" lon="5.31781">
        <ele>120.403031</ele>
        <time>2020-07-25T08:27:05.993Z</time>
      </trkpt>
      <trkpt lat="60.45321" lon="5.31776">
        <ele>121.008203</ele>
        <time>2020-07-25T08:27:08.951Z</time>
      </trkpt>
      <trkpt lat="60.45333" lon="5.31775">
        <ele>121.649634</ele>
        <time>2020-07-25T08:27:12.969Z</time>
      </trkpt>
      <trkpt lat="60.45343" lon="5.31776">
        <ele>122.257274</ele>
        <time>2020-07-25T08:27:16.953Z</time>
      </trkpt>
      <trkpt lat="60.45354" lon="5.31777">
        <ele>122.87608</ele>
        <time>2020-07-25T08:27:21.964Z</time>
      </trkpt>
      <trkpt lat="60.45364" lon="5.31776">
        <ele>123.455609</ele>
        <time>2020-07-25T08:27:26.964Z</time>
      </trkpt>
      <trkpt lat="60.45375" lon="5.31777">
        <ele>124.052281</ele>
        <time>2020-07-25T08:27:31.952Z</time>
      </trkpt>
      <trkpt lat="60.45385" lon="5.31778">
        <ele>124.609812</ele>
        <time>2020-07-25T08:27:36.983Z</time>
      </trkpt>
      <trkpt lat="60.45395" lon="5.31782">
        <ele>125.214146</ele>
        <time>2020-07-25T08:27:41.954Z</time>
      </trkpt>
      <trkpt lat="60.45405" lon="5.31785">
        <ele>125.794277</ele>
        <time>2020-07-25T08:27:46.952Z</time>
      </trkpt>
      <trkpt lat="60.45415" lon="5.31789">
        <ele>126.35103</ele>
        <time>2020-07-25T08:27:51.952Z</time>
      </trkpt>
      <trkpt lat="60.45425" lon="5.31792">
        <ele>126.945701</ele>
        <time>2020-07-25T08:27:56.943Z</time>
      </trkpt>
      <trkpt lat="60.45436" lon="5.31796">
        <ele>127.573353</ele>
        <time>2020-07-25T08:28:01.992Z</time>
      </trkpt>
      <trkpt lat="60.45446" lon="5.31799">
        <ele>128.113813</ele>
        <time>2020-07-25T08:28:06.977Z</time>
      </trkpt>
      <trkpt lat="60.45455" lon="5.31799">
        <ele>128.676087</ele>
        <time>2020-07-25T08:28:11.973Z</time>
      </trkpt>
      <trkpt lat="60.45466" lon="5.31807">
        <ele>129.071151</ele>
        <time>2020-07-25T08:28:16.972Z</time>
      </trkpt>
      <trkpt lat="60.45476" lon="5.31809">
        <ele>129.433605</ele>
        <time>2020-07-25T08:28:21.023Z</time>
      </trkpt>
      <trkpt lat="60.45487" lon="5.31812">
        <ele>129.77462</ele>
        <time>2020-07-25T08:28:24.957Z</time>
      </trkpt>
      <trkpt lat="60.45496" lon="5.31816">
        <ele>130.110063</ele>
        <time>2020-07-25T08:28:29.968Z</time>
      </trkpt>
      <trkpt lat="60.45507" lon="5.31819">
        <ele>130.452939</ele>
        <time>2020-07-25T08:28:34.971Z</time>
      </trkpt>
      <trkpt lat="60.45516" lon="5.31822">
        <ele>130.760677</ele>
        <time>2020-07-25T08:28:39.980Z</time>
      </trkpt>
      <trkpt lat="60.45525" lon="5.31823">
        <ele>131.068466</ele>
        <time>2020-07-25T08:28:44.982Z</time>
      </trkpt>
      <trkpt lat="60.45535" lon="5.31826">
        <ele>131.412113</ele>
        <time>2020-07-25T08:28:50.966Z</time>
      </trkpt>
      <trkpt lat="60.45545" lon="5.31828">
        <ele>131.7475</ele>
        <time>2020-07-25T08:28:55.965Z</time>
      </trkpt>
      <trkpt lat="60.45555" lon="5.31832">
        <ele>132.07491</ele>
        <time>2020-07-25T08:29:00.977Z</time>
      </trkpt>
      <trkpt lat="60.45565" lon="5.31837">
        <ele>132.421052</ele>
        <time>2020-07-25T08:29:05.991Z</time>
      </trkpt>
      <trkpt lat="60.45575" lon="5.31837">
        <ele>132.778515</ele>
        <time>2020-07-25T08:29:10.986Z</time>
      </trkpt>
      <trkpt lat="60.45583" lon="5.31826">
        <ele>133.086315</ele>
        <time>2020-07-25T08:29:14.965Z</time>
      </trkpt>
      <trkpt lat="60.45582" lon="5.31805">
        <ele>133.434473</ele>
        <time>2020-07-25T08:29:18.980Z</time>
      </trkpt>
      <trkpt lat="60.45575" lon="5.31789">
        <ele>133.779942</ele>
        <time>2020-07-25T08:29:21.974Z</time>
      </trkpt>
      <trkpt lat="60.45566" lon="5.3178">
        <ele>134.115938</ele>
        <time>2020-07-25T08:29:24.956Z</time>
      </trkpt>
      <trkpt lat="60.45558" lon="5.31769">
        <ele>134.45129</ele>
        <time>2020-07-25T08:29:29.973Z</time>
      </trkpt>
      <trkpt lat="60.4555" lon="5.31758">
        <ele>134.766768</ele>
        <time>2020-07-25T08:29:34.989Z</time>
      </trkpt>
      <trkpt lat="60.45543" lon="5.31748">
        <ele>135.499857</ele>
        <time>2020-07-25T08:29:39.982Z</time>
      </trkpt>
      <trkpt lat="60.45535" lon="5.31734">
        <ele>136.343681</ele>
        <time>2020-07-25T08:29:45.972Z</time>
      </trkpt>
      <trkpt lat="60.45529" lon="5.31719">
        <ele>137.127813</ele>
        <time>2020-07-25T08:29:51.976Z</time>
      </trkpt>
      <trkpt lat="60.45523" lon="5.31704">
        <ele>137.913443</ele>
        <time>2020-07-25T08:29:57.956Z</time>
      </trkpt>
      <trkpt lat="60.45517" lon="5.31687">
        <ele>138.770382</ele>
        <time>2020-07-25T08:30:04.976Z</time>
      </trkpt>
      <trkpt lat="60.45513" lon="5.31668">
        <ele>139.627028</ele>
        <time>2020-07-25T08:30:10.962Z</time>
      </trkpt>
      <trkpt lat="60.4551" lon="5.31648">
        <ele>140.443127</ele>
        <time>2020-07-25T08:30:16.967Z</time>
      </trkpt>
      <trkpt lat="60.45508" lon="5.31629">
        <ele>141.217931</ele>
        <time>2020-07-25T08:30:22.965Z</time>
      </trkpt>
      <trkpt lat="60.45509" lon="5.3161">
        <ele>141.982807</ele>
        <time>2020-07-25T08:30:29.964Z</time>
      </trkpt>
      <trkpt lat="60.45508" lon="5.31592">
        <ele>142.72121</ele>
        <time>2020-07-25T08:30:36.959Z</time>
      </trkpt>
      <trkpt lat="60.45508" lon="5.31571">
        <ele>143.562904</ele>
        <time>2020-07-25T08:30:44.968Z</time>
      </trkpt>
      <trkpt lat="60.45509" lon="5.31551">
        <ele>144.400175</ele>
        <time>2020-07-25T08:30:51.957Z</time>
      </trkpt>
      <trkpt lat="60.4551" lon="5.31531">
        <ele>145.207086</ele>
        <time>2020-07-25T08:30:57.951Z</time>
      </trkpt>
      <trkpt lat="60.45513" lon="5.3151">
        <ele>146.082137</ele>
        <time>2020-07-25T08:31:03.992Z</time>
      </trkpt>
      <trkpt lat="60.45515" lon="5.31492">
        <ele>146.828467</ele>
        <time>2020-07-25T08:31:08.956Z</time>
      </trkpt>
      <trkpt lat="60.45518" lon="5.31473">
        <ele>147.619974</ele>
        <time>2020-07-25T08:31:14.003Z</time>
      </trkpt>
      <trkpt lat="60.45522" lon="5.31455">
        <ele>148.440754</ele>
        <time>2020-07-25T08:31:17.956Z</time>
      </trkpt>
      <trkpt lat="60.45526" lon="5.31438">
        <ele>149.226118</ele>
        <time>2020-07-25T08:31:21.011Z</time>
      </trkpt>
      <trkpt lat="60.45534" lon="5.31417">
        <ele>149.329057</ele>
        <time>2020-07-25T08:31:23.955Z</time>
      </trkpt>
      <trkpt lat="60.45539" lon="5.31401">
        <ele>149.128082</ele>
        <time>2020-07-25T08:31:25.966Z</time>
      </trkpt>
      <trkpt lat="60.45547" lon="5.31383">
        <ele>148.892666</ele>
        <time>2020-07-25T08:31:27.965Z</time>
      </trkpt>
      <trkpt lat="60.45556" lon="5.31364">
        <ele>148.628464</ele>
        <time>2020-07-25T08:31:29.984Z</time>
      </trkpt>
      <trkpt lat="60.45565" lon="5.31342">
        <ele>148.340592</ele>
        <time>2020-07-25T08:31:31.995Z</time>
      </trkpt>
      <trkpt lat="60.45573" lon="5.3132">
        <ele>148.06809</ele>
        <time>2020-07-25T08:31:33.972Z</time>
      </trkpt>
      <trkpt lat="60.45581" lon="5.31298">
        <ele>147.797172</ele>
        <time>2020-07-25T08:31:35.975Z</time>
      </trkpt>
      <trkpt lat="60.4559" lon="5.31275">
        <ele>147.507994</ele>
        <time>2020-07-25T08:31:37.984Z</time>
      </trkpt>
      <trkpt lat="60.45597" lon="5.31253">
        <ele>147.241404</ele>
        <time>2020-07-25T08:31:39.988Z</time>
      </trkpt>
      <trkpt lat="60.45605" lon="5.31232">
        <ele>146.970881</ele>
        <time>2020-07-25T08:31:41.977Z</time>
      </trkpt>
      <trkpt lat="60.45613" lon="5.3121">
        <ele>146.708239</ele>
        <time>2020-07-25T08:31:43.970Z</time>
      </trkpt>
      <trkpt lat="60.45621" lon="5.31186">
        <ele>146.416041</ele>
        <time>2020-07-25T08:31:45.991Z</time>
      </trkpt>
      <trkpt lat="60.45628" lon="5.31161">
        <ele>146.128723</ele>
        <time>2020-07-25T08:31:47.962Z</time>
      </trkpt>
      <trkpt lat="60.45635" lon="5.31136">
        <ele>145.830932</ele>
        <time>2020-07-25T08:31:50.010Z</time>
      </trkpt>
      <trkpt lat="60.4564" lon="5.31111">
        <ele>145.447636</ele>
        <time>2020-07-25T08:31:51.968Z</time>
      </trkpt>
      <trkpt lat="60.45645" lon="5.31086">
        <ele>145.056642</ele>
        <time>2020-07-25T08:31:53.955Z</time>
      </trkpt>
      <trkpt lat="60.45649" lon="5.31062">
        <ele>144.687807</ele>
        <time>2020-07-25T08:31:55.967Z</time>
      </trkpt>
      <trkpt lat="60.45654" lon="5.31037">
        <ele>144.317023</ele>
        <time>2020-07-25T08:31:57.964Z</time>
      </trkpt>
      <trkpt lat="60.45658" lon="5.31013">
        <ele>143.959522</ele>
        <time>2020-07-25T08:31:59.966Z</time>
      </trkpt>
      <trkpt lat="60.45661" lon="5.30989">
        <ele>143.599031</ele>
        <time>2020-07-25T08:32:01.949Z</time>
      </trkpt>
      <trkpt lat="60.45663" lon="5.30967">
        <ele>143.280251</ele>
        <time>2020-07-25T08:32:03.999Z</time>
      </trkpt>
      <trkpt lat="60.45665" lon="5.30946">
        <ele>142.976949</ele>
        <time>2020-07-25T08:32:05.967Z</time>
      </trkpt>
      <trkpt lat="60.45667" lon="5.30927">
        <ele>142.690121</ele>
        <time>2020-07-25T08:32:07.956Z</time>
      </trkpt>
      <trkpt lat="60.45669" lon="5.30907">
        <ele>142.410815</ele>
        <time>2020-07-25T08:32:09.976Z</time>
      </trkpt>
      <trkpt lat="60.45671" lon="5.30889">
        <ele>142.142522</ele>
        <time>2020-07-25T08:32:11.961Z</time>
      </trkpt>
      <trkpt lat="60.45672" lon="5.3087">
        <ele>141.862199</ele>
        <time>2020-07-25T08:32:13.976Z</time>
      </trkpt>
      <trkpt lat="60.45675" lon="5.30843">
        <ele>141.478209</ele>
        <time>2020-07-25T08:32:16.974Z</time>
      </trkpt>
      <trkpt lat="60.45678" lon="5.30818">
        <ele>141.111361</ele>
        <time>2020-07-25T08:32:19.957Z</time>
      </trkpt>
      <trkpt lat="60.4568" lon="5.308">
        <ele>140.843069</ele>
        <time>2020-07-25T08:32:21.972Z</time>
      </trkpt>
      <trkpt lat="60.45683" lon="5.3078">
        <ele>140.477374</ele>
        <time>2020-07-25T08:32:23.982Z</time>
      </trkpt>
      <trkpt lat="60.45687" lon="5.3076">
        <ele>139.978722</ele>
        <time>2020-07-25T08:32:25.974Z</time>
      </trkpt>
      <trkpt lat="60.45691" lon="5.30739">
        <ele>139.442582</ele>
        <time>2020-07-25T08:32:27.974Z</time>
      </trkpt>
      <trkpt lat="60.45693" lon="5.30715">
        <ele>138.882133</ele>
        <time>2020-07-25T08:32:29.992Z</time>
      </trkpt>
      <trkpt lat="60.45696" lon="5.30687">
        <ele>138.225268</ele>
        <time>2020-07-25T08:32:31.961Z</time>
      </trkpt>
      <trkpt lat="60.45698" lon="5.30656">
        <ele>137.512541</ele>
        <time>2020-07-25T08:32:33.988Z</time>
      </trkpt>
      <trkpt lat="60.45697" lon="5.30623">
        <ele>136.743133</ele>
        <time>2020-07-25T08:32:35.961Z</time>
      </trkpt>
      <trkpt lat="60.45695" lon="5.30588">
        <ele>135.929174</ele>
        <time>2020-07-25T08:32:37.983Z</time>
      </trkpt>
      <trkpt lat="60.45692" lon="5.3057">
        <ele>135.478759</ele>
        <time>2020-07-25T08:32:38.967Z</time>
      </trkpt>
      <trkpt lat="60.45687" lon="5.30551">
        <ele>134.984227</ele>
        <time>2020-07-25T08:32:39.952Z</time>
      </trkpt>
      <trkpt lat="60.45682" lon="5.30531">
        <ele>134.470196</ele>
        <time>2020-07-25T08:32:40.968Z</time>
      </trkpt>
      <trkpt lat="60.45676" lon="5.30512">
        <ele>133.950586</ele>
        <time>2020-07-25T08:32:42.018Z</time>
      </trkpt>
      <trkpt lat="60.4567" lon="5.30493">
        <ele>133.432417</ele>
        <time>2020-07-25T08:32:42.966Z</time>
      </trkpt>
      <trkpt lat="60.45664" lon="5.30474">
        <ele>132.897478</ele>
        <time>2020-07-25T08:32:43.991Z</time>
      </trkpt>
      <trkpt lat="60.45659" lon="5.30453">
        <ele>132.367669</ele>
        <time>2020-07-25T08:32:44.962Z</time>
      </trkpt>
      <trkpt lat="60.45655" lon="5.30432">
        <ele>131.929694</ele>
        <time>2020-07-25T08:32:45.976Z</time>
      </trkpt>
      <trkpt lat="60.45653" lon="5.30412">
        <ele>131.552035</ele>
        <time>2020-07-25T08:32:46.974Z</time>
      </trkpt>
      <trkpt lat="60.45651" lon="5.30391">
        <ele>131.175673</ele>
        <time>2020-07-25T08:32:47.959Z</time>
      </trkpt>
      <trkpt lat="60.45651" lon="5.30369">
        <ele>130.790122</ele>
        <time>2020-07-25T08:32:48.994Z</time>
      </trkpt>
      <trkpt lat="60.4565" lon="5.30347">
        <ele>130.398978</ele>
        <time>2020-07-25T08:32:49.951Z</time>
      </trkpt>
      <trkpt lat="60.4565" lon="5.30326">
        <ele>130.028703</ele>
        <time>2020-07-25T08:32:50.955Z</time>
      </trkpt>
      <trkpt lat="60.45649" lon="5.30306">
        <ele>129.671556</ele>
        <time>2020-07-25T08:32:51.971Z</time>
      </trkpt>
      <trkpt lat="60.45649" lon="5.30286">
        <ele>129.307468</ele>
        <time>2020-07-25T08:32:52.954Z</time>
      </trkpt>
      <trkpt lat="60.4565" lon="5.30266">
        <ele>128.951804</ele>
        <time>2020-07-25T08:32:53.957Z</time>
      </trkpt>
      <trkpt lat="60.45651" lon="5.30246">
        <ele>128.597474</ele>
        <time>2020-07-25T08:32:54.999Z</time>
      </trkpt>
      <trkpt lat="60.45651" lon="5.30226">
        <ele>128.251401</ele>
        <time>2020-07-25T08:32:55.955Z</time>
      </trkpt>
      <trkpt lat="60.45653" lon="5.30207">
        <ele>127.91072</ele>
        <time>2020-07-25T08:32:56.968Z</time>
      </trkpt>
      <trkpt lat="60.45654" lon="5.30188">
        <ele>127.570955</ele>
        <time>2020-07-25T08:32:57.958Z</time>
      </trkpt>
      <trkpt lat="60.45655" lon="5.3017">
        <ele>127.244328</ele>
        <time>2020-07-25T08:32:58.962Z</time>
      </trkpt>
      <trkpt lat="60.45655" lon="5.30136">
        <ele>126.636657</ele>
        <time>2020-07-25T08:33:00.957Z</time>
      </trkpt>
      <trkpt lat="60.45652" lon="5.30105">
        <ele>126.073839</ele>
        <time>2020-07-25T08:33:02.968Z</time>
      </trkpt>
      <trkpt lat="60.45646" lon="5.30076">
        <ele>125.399941</ele>
        <time>2020-07-25T08:33:04.958Z</time>
      </trkpt>
      <trkpt lat="60.45636" lon="5.30052">
        <ele>124.523123</ele>
        <time>2020-07-25T08:33:06.966Z</time>
      </trkpt>
      <trkpt lat="60.45624" lon="5.30031">
        <ele>123.63604</ele>
        <time>2020-07-25T08:33:08.967Z</time>
      </trkpt>
      <trkpt lat="60.45611" lon="5.30014">
        <ele>122.734782</ele>
        <time>2020-07-25T08:33:10.992Z</time>
      </trkpt>
      <trkpt lat="60.45596" lon="5.29997">
        <ele>121.755295</ele>
        <time>2020-07-25T08:33:12.951Z</time>
      </trkpt>
      <trkpt lat="60.45587" lon="5.29988">
        <ele>121.225773</ele>
        <time>2020-07-25T08:33:13.962Z</time>
      </trkpt>
      <trkpt lat="60.45579" lon="5.29978">
        <ele>120.670512</ele>
        <time>2020-07-25T08:33:15.004Z</time>
      </trkpt>
      <trkpt lat="60.4557" lon="5.29968">
        <ele>120.092868</ele>
        <time>2020-07-25T08:33:15.955Z</time>
      </trkpt>
      <trkpt lat="60.45561" lon="5.29957">
        <ele>119.499887</ele>
        <time>2020-07-25T08:33:16.963Z</time>
      </trkpt>
      <trkpt lat="60.45552" lon="5.29947">
        <ele>118.896165</ele>
        <time>2020-07-25T08:33:17.972Z</time>
      </trkpt>
      <trkpt lat="60.45542" lon="5.29936">
        <ele>118.291987</ele>
        <time>2020-07-25T08:33:18.967Z</time>
      </trkpt>
      <trkpt lat="60.45533" lon="5.29926">
        <ele>117.693229</ele>
        <time>2020-07-25T08:33:19.999Z</time>
      </trkpt>
      <trkpt lat="60.45524" lon="5.29915">
        <ele>117.081383</ele>
        <time>2020-07-25T08:33:20.967Z</time>
      </trkpt>
      <trkpt lat="60.45514" lon="5.29903">
        <ele>116.442998</ele>
        <time>2020-07-25T08:33:21.962Z</time>
      </trkpt>
      <trkpt lat="60.45504" lon="5.29891">
        <ele>115.803109</ele>
        <time>2020-07-25T08:33:22.969Z</time>
      </trkpt>
      <trkpt lat="60.45496" lon="5.29876">
        <ele>115.118141</ele>
        <time>2020-07-25T08:33:23.977Z</time>
      </trkpt>
      <trkpt lat="60.45488" lon="5.29858">
        <ele>114.369823</ele>
        <time>2020-07-25T08:33:24.968Z</time>
      </trkpt>
      <trkpt lat="60.45482" lon="5.29837">
        <ele>113.583116</ele>
        <time>2020-07-25T08:33:26.020Z</time>
      </trkpt>
      <trkpt lat="60.45478" lon="5.29813">
        <ele>112.789024</ele>
        <time>2020-07-25T08:33:26.963Z</time>
      </trkpt>
      <trkpt lat="60.45476" lon="5.29788">
        <ele>111.971373</ele>
        <time>2020-07-25T08:33:27.972Z</time>
      </trkpt>
      <trkpt lat="60.45476" lon="5.29762">
        <ele>111.140458</ele>
        <time>2020-07-25T08:33:28.960Z</time>
      </trkpt>
      <trkpt lat="60.45478" lon="5.29738">
        <ele>110.36039</ele>
        <time>2020-07-25T08:33:29.975Z</time>
      </trkpt>
      <trkpt lat="60.45483" lon="5.29716">
        <ele>109.619516</ele>
        <time>2020-07-25T08:33:30.994Z</time>
      </trkpt>
      <trkpt lat="60.45489" lon="5.29696">
        <ele>108.858556</ele>
        <time>2020-07-25T08:33:31.966Z</time>
      </trkpt>
      <trkpt lat="60.45496" lon="5.29675">
        <ele>108.062698</ele>
        <time>2020-07-25T08:33:32.963Z</time>
      </trkpt>
      <trkpt lat="60.45504" lon="5.29658">
        <ele>107.298522</ele>
        <time>2020-07-25T08:33:33.988Z</time>
      </trkpt>
      <trkpt lat="60.45512" lon="5.29639">
        <ele>106.513495</ele>
        <time>2020-07-25T08:33:34.964Z</time>
      </trkpt>
      <trkpt lat="60.4552" lon="5.2962">
        <ele>105.722504</ele>
        <time>2020-07-25T08:33:35.984Z</time>
      </trkpt>
      <trkpt lat="60.45527" lon="5.296">
        <ele>104.934319</ele>
        <time>2020-07-25T08:33:36.985Z</time>
      </trkpt>
      <trkpt lat="60.45535" lon="5.2958">
        <ele>104.115427</ele>
        <time>2020-07-25T08:33:37.960Z</time>
      </trkpt>
      <trkpt lat="60.45542" lon="5.29558">
        <ele>103.288078</ele>
        <time>2020-07-25T08:33:38.974Z</time>
      </trkpt>
      <trkpt lat="60.45549" lon="5.29536">
        <ele>102.439229</ele>
        <time>2020-07-25T08:33:39.968Z</time>
      </trkpt>
      <trkpt lat="60.45556" lon="5.29514">
        <ele>101.590264</ele>
        <time>2020-07-25T08:33:40.953Z</time>
      </trkpt>
      <trkpt lat="60.45563" lon="5.29491">
        <ele>100.752604</ele>
        <time>2020-07-25T08:33:41.958Z</time>
      </trkpt>
      <trkpt lat="60.45569" lon="5.29469">
        <ele>99.949526</ele>
        <time>2020-07-25T08:33:42.959Z</time>
      </trkpt>
      <trkpt lat="60.45575" lon="5.29449">
        <ele>99.189318</ele>
        <time>2020-07-25T08:33:43.984Z</time>
      </trkpt>
      <trkpt lat="60.45581" lon="5.29428">
        <ele>98.430719</ele>
        <time>2020-07-25T08:33:44.960Z</time>
      </trkpt>
      <trkpt lat="60.45587" lon="5.29408">
        <ele>97.671665</ele>
        <time>2020-07-25T08:33:45.958Z</time>
      </trkpt>
      <trkpt lat="60.45594" lon="5.29389">
        <ele>96.93476</ele>
        <time>2020-07-25T08:33:46.966Z</time>
      </trkpt>
      <trkpt lat="60.456" lon="5.2937">
        <ele>96.191673</ele>
        <time>2020-07-25T08:33:47.973Z</time>
      </trkpt>
      <trkpt lat="60.45606" lon="5.2935">
        <ele>95.456163</ele>
        <time>2020-07-25T08:33:48.986Z</time>
      </trkpt>
      <trkpt lat="60.45612" lon="5.2933">
        <ele>94.717924</ele>
        <time>2020-07-25T08:33:49.964Z</time>
      </trkpt>
      <trkpt lat="60.45618" lon="5.2931">
        <ele>93.959332</ele>
        <time>2020-07-25T08:33:50.965Z</time>
      </trkpt>
      <trkpt lat="60.45624" lon="5.2929">
        <ele>93.207394</ele>
        <time>2020-07-25T08:33:51.961Z</time>
      </trkpt>
      <trkpt lat="60.4563" lon="5.29269">
        <ele>92.452151</ele>
        <time>2020-07-25T08:33:52.993Z</time>
      </trkpt>
      <trkpt lat="60.45636" lon="5.29249">
        <ele>91.746723</ele>
        <time>2020-07-25T08:33:53.955Z</time>
      </trkpt>
      <trkpt lat="60.45642" lon="5.29229">
        <ele>91.056682</ele>
        <time>2020-07-25T08:33:54.966Z</time>
      </trkpt>
      <trkpt lat="60.45648" lon="5.29208">
        <ele>90.368351</ele>
        <time>2020-07-25T08:33:55.964Z</time>
      </trkpt>
      <trkpt lat="60.45653" lon="5.29188">
        <ele>89.683986</ele>
        <time>2020-07-25T08:33:56.982Z</time>
      </trkpt>
      <trkpt lat="60.45658" lon="5.29167">
        <ele>89.005289</ele>
        <time>2020-07-25T08:33:57.953Z</time>
      </trkpt>
      <trkpt lat="60.45663" lon="5.29146">
        <ele>88.339377</ele>
        <time>2020-07-25T08:33:58.958Z</time>
      </trkpt>
      <trkpt lat="60.45668" lon="5.29126">
        <ele>87.681562</ele>
        <time>2020-07-25T08:33:59.999Z</time>
      </trkpt>
      <trkpt lat="60.45673" lon="5.29105">
        <ele>87.036435</ele>
        <time>2020-07-25T08:34:00.984Z</time>
      </trkpt>
      <trkpt lat="60.45677" lon="5.29085">
        <ele>86.403357</ele>
        <time>2020-07-25T08:34:01.955Z</time>
      </trkpt>
      <trkpt lat="60.45681" lon="5.29064">
        <ele>85.752974</ele>
        <time>2020-07-25T08:34:02.964Z</time>
      </trkpt>
      <trkpt lat="60.45685" lon="5.29043">
        <ele>85.084171</ele>
        <time>2020-07-25T08:34:03.991Z</time>
      </trkpt>
      <trkpt lat="60.45688" lon="5.29022">
        <ele>84.422889</ele>
        <time>2020-07-25T08:34:04.964Z</time>
      </trkpt>
      <trkpt lat="60.45692" lon="5.29001">
        <ele>83.788811</ele>
        <time>2020-07-25T08:34:05.969Z</time>
      </trkpt>
      <trkpt lat="60.45696" lon="5.28982">
        <ele>83.184859</ele>
        <time>2020-07-25T08:34:06.971Z</time>
      </trkpt>
      <trkpt lat="60.45701" lon="5.28964">
        <ele>82.594743</ele>
        <time>2020-07-25T08:34:08.012Z</time>
      </trkpt>
      <trkpt lat="60.45705" lon="5.28947">
        <ele>82.027505</ele>
        <time>2020-07-25T08:34:08.985Z</time>
      </trkpt>
      <trkpt lat="60.45711" lon="5.28932">
        <ele>81.677246</ele>
        <time>2020-07-25T08:34:09.957Z</time>
      </trkpt>
      <trkpt lat="60.45723" lon="5.2891">
        <ele>81.553999</ele>
        <time>2020-07-25T08:34:11.968Z</time>
      </trkpt>
      <trkpt lat="60.45738" lon="5.28889">
        <ele>81.421144</ele>
        <time>2020-07-25T08:34:13.958Z</time>
      </trkpt>
      <trkpt lat="60.45746" lon="5.2888">
        <ele>81.353951</ele>
        <time>2020-07-25T08:34:14.971Z</time>
      </trkpt>
      <trkpt lat="60.45761" lon="5.28864">
        <ele>81.227336</ele>
        <time>2020-07-25T08:34:16.964Z</time>
      </trkpt>
      <trkpt lat="60.45774" lon="5.28854">
        <ele>81.121961</ele>
        <time>2020-07-25T08:34:18.960Z</time>
      </trkpt>
      <trkpt lat="60.45786" lon="5.28848">
        <ele>81.029536</ele>
        <time>2020-07-25T08:34:20.972Z</time>
      </trkpt>
      <trkpt lat="60.45797" lon="5.28845">
        <ele>80.947525</ele>
        <time>2020-07-25T08:34:22.980Z</time>
      </trkpt>
      <trkpt lat="60.45808" lon="5.28842">
        <ele>80.869707</ele>
        <time>2020-07-25T08:34:24.990Z</time>
      </trkpt>
      <trkpt lat="60.45818" lon="5.2884">
        <ele>80.792116</ele>
        <time>2020-07-25T08:34:27.023Z</time>
      </trkpt>
      <trkpt lat="60.45828" lon="5.28837">
        <ele>80.718117</ele>
        <time>2020-07-25T08:34:28.972Z</time>
      </trkpt>
      <trkpt lat="60.45837" lon="5.28833">
        <ele>80.646919</ele>
        <time>2020-07-25T08:34:30.975Z</time>
      </trkpt>
      <trkpt lat="60.4585" lon="5.28826">
        <ele>80.549551</ele>
        <time>2020-07-25T08:34:33.958Z</time>
      </trkpt>
      <trkpt lat="60.45859" lon="5.2882">
        <ele>80.481683</ele>
        <time>2020-07-25T08:34:35.974Z</time>
      </trkpt>
      <trkpt lat="60.4587" lon="5.28809">
        <ele>80.385415</ele>
        <time>2020-07-25T08:34:39.020Z</time>
      </trkpt>
      <trkpt lat="60.45881" lon="5.28798">
        <ele>80.843221</ele>
        <time>2020-07-25T08:34:41.962Z</time>
      </trkpt>
      <trkpt lat="60.45892" lon="5.28785">
        <ele>81.475459</ele>
        <time>2020-07-25T08:34:45.006Z</time>
      </trkpt>
      <trkpt lat="60.45903" lon="5.2877">
        <ele>82.110466</ele>
        <time>2020-07-25T08:34:47.968Z</time>
      </trkpt>
      <trkpt lat="60.45911" lon="5.28756">
        <ele>82.672173</ele>
        <time>2020-07-25T08:34:50.962Z</time>
      </trkpt>
      <trkpt lat="60.45919" lon="5.28741">
        <ele>83.197732</ele>
        <time>2020-07-25T08:34:53.967Z</time>
      </trkpt>
      <trkpt lat="60.45927" lon="5.28728">
        <ele>83.701562</ele>
        <time>2020-07-25T08:34:56.955Z</time>
      </trkpt>
      <trkpt lat="60.45933" lon="5.28712">
        <ele>84.186979</ele>
        <time>2020-07-25T08:34:59.993Z</time>
      </trkpt>
      <trkpt lat="60.45939" lon="5.28695">
        <ele>84.691051</ele>
        <time>2020-07-25T08:35:02.990Z</time>
      </trkpt>
      <trkpt lat="60.45944" lon="5.28679">
        <ele>85.146411</ele>
        <time>2020-07-25T08:35:05.969Z</time>
      </trkpt>
      <trkpt lat="60.45948" lon="5.28662">
        <ele>85.600646</ele>
        <time>2020-07-25T08:35:08.954Z</time>
      </trkpt>
      <trkpt lat="60.45953" lon="5.2864">
        <ele>86.170056</ele>
        <time>2020-07-25T08:35:12.956Z</time>
      </trkpt>
      <trkpt lat="60.45956" lon="5.28621">
        <ele>86.669016</ele>
        <time>2020-07-25T08:35:15.965Z</time>
      </trkpt>
      <trkpt lat="60.45959" lon="5.28598">
        <ele>87.246482</ele>
        <time>2020-07-25T08:35:19.011Z</time>
      </trkpt>
      <trkpt lat="60.45962" lon="5.28574">
        <ele>87.847516</ele>
        <time>2020-07-25T08:35:21.954Z</time>
      </trkpt>
      <trkpt lat="60.45966" lon="5.2855">
        <ele>88.446206</ele>
        <time>2020-07-25T08:35:24.966Z</time>
      </trkpt>
      <trkpt lat="60.45969" lon="5.2853">
        <ele>88.967124</ele>
        <time>2020-07-25T08:35:27.986Z</time>
      </trkpt>
      <trkpt lat="60.45971" lon="5.28511">
        <ele>89.255482</ele>
        <time>2020-07-25T08:35:30.971Z</time>
      </trkpt>
      <trkpt lat="60.45974" lon="5.28493">
        <ele>89.353175</ele>
        <time>2020-07-25T08:35:33.979Z</time>
      </trkpt>
      <trkpt lat="60.45978" lon="5.28475">
        <ele>89.455052</ele>
        <time>2020-07-25T08:35:36.963Z</time>
      </trkpt>
      <trkpt lat="60.45982" lon="5.28458">
        <ele>89.551142</ele>
        <time>2020-07-25T08:35:39.980Z</time>
      </trkpt>
      <trkpt lat="60.45987" lon="5.28441">
        <ele>89.651466</ele>
        <time>2020-07-25T08:35:42.976Z</time>
      </trkpt>
      <trkpt lat="60.45995" lon="5.28423">
        <ele>89.770691</ele>
        <time>2020-07-25T08:35:46.986Z</time>
      </trkpt>
      <trkpt lat="60.46" lon="5.28408">
        <ele>89.867081</ele>
        <time>2020-07-25T08:35:49.983Z</time>
      </trkpt>
      <trkpt lat="60.46008" lon="5.28392">
        <ele>89.980349</ele>
        <time>2020-07-25T08:35:53.962Z</time>
      </trkpt>
      <trkpt lat="60.46015" lon="5.28376">
        <ele>90.093757</ele>
        <time>2020-07-25T08:35:57.974Z</time>
      </trkpt>
      <trkpt lat="60.46023" lon="5.2836">
        <ele>90.207525</ele>
        <time>2020-07-25T08:36:01.962Z</time>
      </trkpt>
      <trkpt lat="60.46031" lon="5.28349">
        <ele>90.303569</ele>
        <time>2020-07-25T08:36:04.958Z</time>
      </trkpt>
      <trkpt lat="60.46039" lon="5.28335">
        <ele>90.411186</ele>
        <time>2020-07-25T08:36:07.957Z</time>
      </trkpt>
      <trkpt lat="60.46047" lon="5.28323">
        <ele>90.512945</ele>
        <time>2020-07-25T08:36:09.964Z</time>
      </trkpt>
      <trkpt lat="60.46056" lon="5.28311">
        <ele>90.624322</ele>
        <time>2020-07-25T08:36:11.956Z</time>
      </trkpt>
      <trkpt lat="60.46065" lon="5.28298">
        <ele>90.743124</ele>
        <time>2020-07-25T08:36:13.962Z</time>
      </trkpt>
      <trkpt lat="60.46076" lon="5.28286">
        <ele>90.871069</ele>
        <time>2020-07-25T08:36:15.956Z</time>
      </trkpt>
      <trkpt lat="60.46087" lon="5.28271">
        <ele>91.007051</ele>
        <time>2020-07-25T08:36:17.960Z</time>
      </trkpt>
      <trkpt lat="60.46098" lon="5.28257">
        <ele>90.769883</ele>
        <time>2020-07-25T08:36:19.964Z</time>
      </trkpt>
      <trkpt lat="60.46109" lon="5.28242">
        <ele>90.222686</ele>
        <time>2020-07-25T08:36:22.005Z</time>
      </trkpt>
      <trkpt lat="60.4612" lon="5.28228">
        <ele>89.669212</ele>
        <time>2020-07-25T08:36:23.958Z</time>
      </trkpt>
      <trkpt lat="60.46131" lon="5.28214">
        <ele>89.094846</ele>
        <time>2020-07-25T08:36:26.009Z</time>
      </trkpt>
      <trkpt lat="60.46143" lon="5.28199">
        <ele>88.503159</ele>
        <time>2020-07-25T08:36:27.969Z</time>
      </trkpt>
      <trkpt lat="60.46156" lon="5.28182">
        <ele>87.8745</ele>
        <time>2020-07-25T08:36:29.983Z</time>
      </trkpt>
      <trkpt lat="60.46169" lon="5.28167">
        <ele>87.229981</ele>
        <time>2020-07-25T08:36:31.988Z</time>
      </trkpt>
      <trkpt lat="60.46184" lon="5.28151">
        <ele>86.532182</ele>
        <time>2020-07-25T08:36:33.985Z</time>
      </trkpt>
      <trkpt lat="60.46199" lon="5.28134">
        <ele>85.788428</ele>
        <time>2020-07-25T08:36:35.983Z</time>
      </trkpt>
      <trkpt lat="60.46214" lon="5.28115">
        <ele>85.031136</ele>
        <time>2020-07-25T08:36:37.993Z</time>
      </trkpt>
      <trkpt lat="60.46222" lon="5.28105">
        <ele>84.649059</ele>
        <time>2020-07-25T08:36:38.958Z</time>
      </trkpt>
      <trkpt lat="60.4623" lon="5.28095">
        <ele>84.258714</ele>
        <time>2020-07-25T08:36:39.973Z</time>
      </trkpt>
      <trkpt lat="60.46238" lon="5.28085">
        <ele>83.875537</ele>
        <time>2020-07-25T08:36:40.991Z</time>
      </trkpt>
      <trkpt lat="60.46252" lon="5.28066">
        <ele>83.165821</ele>
        <time>2020-07-25T08:36:42.984Z</time>
      </trkpt>
      <trkpt lat="60.46263" lon="5.28046">
        <ele>82.57687</ele>
        <time>2020-07-25T08:36:44.984Z</time>
      </trkpt>
      <trkpt lat="60.46272" lon="5.2803">
        <ele>82.110231</ele>
        <time>2020-07-25T08:36:46.965Z</time>
      </trkpt>
      <trkpt lat="60.4628" lon="5.28013">
        <ele>81.658988</ele>
        <time>2020-07-25T08:36:48.976Z</time>
      </trkpt>
      <trkpt lat="60.46288" lon="5.27995">
        <ele>81.167201</ele>
        <time>2020-07-25T08:36:50.977Z</time>
      </trkpt>
      <trkpt lat="60.46297" lon="5.27975">
        <ele>80.650457</ele>
        <time>2020-07-25T08:36:52.960Z</time>
      </trkpt>
      <trkpt lat="60.46306" lon="5.27955">
        <ele>80.126285</ele>
        <time>2020-07-25T08:36:54.968Z</time>
      </trkpt>
      <trkpt lat="60.46315" lon="5.27937">
        <ele>79.620854</ele>
        <time>2020-07-25T08:36:56.955Z</time>
      </trkpt>
      <trkpt lat="60.46325" lon="5.2792">
        <ele>79.084323</ele>
        <time>2020-07-25T08:36:58.976Z</time>
      </trkpt>
      <trkpt lat="60.46337" lon="5.27902">
        <ele>78.512359</ele>
        <time>2020-07-25T08:37:01.012Z</time>
      </trkpt>
      <trkpt lat="60.46349" lon="5.27887">
        <ele>77.93803</ele>
        <time>2020-07-25T08:37:02.996Z</time>
      </trkpt>
      <trkpt lat="60.46361" lon="5.27873">
        <ele>77.390909</ele>
        <time>2020-07-25T08:37:04.987Z</time>
      </trkpt>
      <trkpt lat="60.46374" lon="5.27861">
        <ele>76.847857</ele>
        <time>2020-07-25T08:37:06.974Z</time>
      </trkpt>
      <trkpt lat="60.46385" lon="5.27851">
        <ele>76.345457</ele>
        <time>2020-07-25T08:37:08.965Z</time>
      </trkpt>
      <trkpt lat="60.46396" lon="5.27842">
        <ele>76.046493</ele>
        <time>2020-07-25T08:37:10.960Z</time>
      </trkpt>
      <trkpt lat="60.46405" lon="5.27835">
        <ele>75.783204</ele>
        <time>2020-07-25T08:37:12.970Z</time>
      </trkpt>
      <trkpt lat="60.46413" lon="5.27828">
        <ele>75.539869</ele>
        <time>2020-07-25T08:37:14.957Z</time>
      </trkpt>
      <trkpt lat="60.46426" lon="5.2782">
        <ele>75.190387</ele>
        <time>2020-07-25T08:37:17.988Z</time>
      </trkpt>
      <trkpt lat="60.46438" lon="5.27809">
        <ele>74.831346</ele>
        <time>2020-07-25T08:37:20.984Z</time>
      </trkpt>
      <trkpt lat="60.4645" lon="5.27797">
        <ele>74.475254</ele>
        <time>2020-07-25T08:37:23.984Z</time>
      </trkpt>
      <trkpt lat="60.46458" lon="5.27788">
        <ele>74.221565</ele>
        <time>2020-07-25T08:37:25.981Z</time>
      </trkpt>
      <trkpt lat="60.46466" lon="5.27777">
        <ele>73.955786</ele>
        <time>2020-07-25T08:37:27.969Z</time>
      </trkpt>
      <trkpt lat="60.46475" lon="5.27764">
        <ele>73.68066</ele>
        <time>2020-07-25T08:37:29.959Z</time>
      </trkpt>
      <trkpt lat="60.46484" lon="5.27751">
        <ele>73.379154</ele>
        <time>2020-07-25T08:37:31.968Z</time>
      </trkpt>
      <trkpt lat="60.46493" lon="5.27736">
        <ele>73.053925</ele>
        <time>2020-07-25T08:37:33.986Z</time>
      </trkpt>
      <trkpt lat="60.46505" lon="5.2772">
        <ele>72.680963</ele>
        <time>2020-07-25T08:37:35.955Z</time>
      </trkpt>
      <trkpt lat="60.46517" lon="5.27702">
        <ele>72.277704</ele>
        <time>2020-07-25T08:37:37.969Z</time>
      </trkpt>
      <trkpt lat="60.46531" lon="5.27685">
        <ele>71.843891</ele>
        <time>2020-07-25T08:37:39.975Z</time>
      </trkpt>
      <trkpt lat="60.46545" lon="5.27668">
        <ele>71.463494</ele>
        <time>2020-07-25T08:37:41.961Z</time>
      </trkpt>
      <trkpt lat="60.46559" lon="5.27654">
        <ele>71.247401</ele>
        <time>2020-07-25T08:37:43.970Z</time>
      </trkpt>
      <trkpt lat="60.46571" lon="5.27646">
        <ele>71.064802</ele>
        <time>2020-07-25T08:37:45.981Z</time>
      </trkpt>
      <trkpt lat="60.46583" lon="5.27643">
        <ele>70.900146</ele>
        <time>2020-07-25T08:37:47.995Z</time>
      </trkpt>
      <trkpt lat="60.46593" lon="5.27643">
        <ele>70.749644</ele>
        <time>2020-07-25T08:37:50.014Z</time>
      </trkpt>
      <trkpt lat="60.46603" lon="5.27645">
        <ele>70.62029</ele>
        <time>2020-07-25T08:37:51.956Z</time>
      </trkpt>
      <trkpt lat="60.46614" lon="5.27651">
        <ele>70.458533</ele>
        <time>2020-07-25T08:37:54.966Z</time>
      </trkpt>
      <trkpt lat="60.46625" lon="5.27658">
        <ele>70.295533</ele>
        <time>2020-07-25T08:37:57.973Z</time>
      </trkpt>
      <trkpt lat="60.46637" lon="5.27672">
        <ele>70.101861</ele>
        <time>2020-07-25T08:38:00.979Z</time>
      </trkpt>
      <trkpt lat="60.46647" lon="5.27685">
        <ele>69.934858</ele>
        <time>2020-07-25T08:38:02.966Z</time>
      </trkpt>
      <trkpt lat="60.46656" lon="5.27694">
        <ele>69.783657</ele>
        <time>2020-07-25T08:38:04.997Z</time>
      </trkpt>
      <trkpt lat="60.46667" lon="5.27703">
        <ele>69.626781</ele>
        <time>2020-07-25T08:38:06.977Z</time>
      </trkpt>
      <trkpt lat="60.46675" lon="5.27712">
        <ele>69.489583</ele>
        <time>2020-07-25T08:38:08.960Z</time>
      </trkpt>
      <trkpt lat="60.46685" lon="5.27721">
        <ele>69.341819</ele>
        <time>2020-07-25T08:38:10.993Z</time>
      </trkpt>
      <trkpt lat="60.46695" lon="5.27731">
        <ele>69.190036</ele>
        <time>2020-07-25T08:38:12.992Z</time>
      </trkpt>
      <trkpt lat="60.46704" lon="5.2774">
        <ele>69.036</ele>
        <time>2020-07-25T08:38:14.978Z</time>
      </trkpt>
      <trkpt lat="60.46714" lon="5.27749">
        <ele>69.735753</ele>
        <time>2020-07-25T08:38:16.993Z</time>
      </trkpt>
      <trkpt lat="60.46724" lon="5.27758">
        <ele>70.620107</ele>
        <time>2020-07-25T08:38:18.966Z</time>
      </trkpt>
      <trkpt lat="60.46733" lon="5.27765">
        <ele>71.460539</ele>
        <time>2020-07-25T08:38:20.975Z</time>
      </trkpt>
      <trkpt lat="60.46744" lon="5.27775">
        <ele>72.568186</ele>
        <time>2020-07-25T08:38:23.972Z</time>
      </trkpt>
      <trkpt lat="60.46755" lon="5.2778">
        <ele>73.519729</ele>
        <time>2020-07-25T08:38:26.964Z</time>
      </trkpt>
      <trkpt lat="60.46764" lon="5.27783">
        <ele>74.34446</ele>
        <time>2020-07-25T08:38:30.013Z</time>
      </trkpt>
      <trkpt lat="60.46775" lon="5.27784">
        <ele>75.241534</ele>
        <time>2020-07-25T08:38:33.977Z</time>
      </trkpt>
      <trkpt lat="60.46785" lon="5.27785">
        <ele>76.163362</ele>
        <time>2020-07-25T08:38:39.000Z</time>
      </trkpt>
      <trkpt lat="60.46796" lon="5.27783">
        <ele>77.090396</ele>
        <time>2020-07-25T08:38:43.983Z</time>
      </trkpt>
      <trkpt lat="60.46805" lon="5.27779">
        <ele>77.927485</ele>
        <time>2020-07-25T08:38:48.994Z</time>
      </trkpt>
      <trkpt lat="60.46814" lon="5.27773">
        <ele>78.701107</ele>
        <time>2020-07-25T08:38:53.959Z</time>
      </trkpt>
      <trkpt lat="60.46822" lon="5.27766">
        <ele>79.506505</ele>
        <time>2020-07-25T08:38:58.972Z</time>
      </trkpt>
      <trkpt lat="60.46832" lon="5.27759">
        <ele>80.385996</ele>
        <time>2020-07-25T08:39:04.996Z</time>
      </trkpt>
      <trkpt lat="60.4684" lon="5.27749">
        <ele>81.197177</ele>
        <time>2020-07-25T08:39:09.980Z</time>
      </trkpt>
      <trkpt lat="60.46848" lon="5.27735">
        <ele>82.13614</ele>
        <time>2020-07-25T08:39:15.977Z</time>
      </trkpt>
      <trkpt lat="60.46857" lon="5.27722">
        <ele>83.046197</ele>
        <time>2020-07-25T08:39:22.010Z</time>
      </trkpt>
      <trkpt lat="60.46865" lon="5.2771">
        <ele>83.965229</ele>
        <time>2020-07-25T08:39:27.983Z</time>
      </trkpt>
      <trkpt lat="60.46873" lon="5.27698">
        <ele>84.793967</ele>
        <time>2020-07-25T08:39:33.967Z</time>
      </trkpt>
      <trkpt lat="60.46881" lon="5.27686">
        <ele>85.681777</ele>
        <time>2020-07-25T08:39:39.963Z</time>
      </trkpt>
      <trkpt lat="60.46888" lon="5.27674">
        <ele>86.530629</ele>
        <time>2020-07-25T08:39:45.985Z</time>
      </trkpt>
      <trkpt lat="60.46895" lon="5.27662">
        <ele>87.362989</ele>
        <time>2020-07-25T08:39:51.972Z</time>
      </trkpt>
      <trkpt lat="60.46903" lon="5.27649">
        <ele>88.265742</ele>
        <time>2020-07-25T08:39:57.970Z</time>
      </trkpt>
      <trkpt lat="60.4691" lon="5.27634">
        <ele>89.176854</ele>
        <time>2020-07-25T08:40:04.969Z</time>
      </trkpt>
      <trkpt lat="60.46918" lon="5.27623">
        <ele>89.987545</ele>
        <time>2020-07-25T08:40:10.984Z</time>
      </trkpt>
      <trkpt lat="60.46924" lon="5.2761">
        <ele>90.811038</ele>
        <time>2020-07-25T08:40:16.999Z</time>
      </trkpt>
      <trkpt lat="60.46932" lon="5.27597">
        <ele>91.693349</ele>
        <time>2020-07-25T08:40:23.967Z</time>
      </trkpt>
      <trkpt lat="60.4694" lon="5.27587">
        <ele>92.53534</ele>
        <time>2020-07-25T08:40:29.975Z</time>
      </trkpt>
      <trkpt lat="60.46948" lon="5.27575">
        <ele>93.446221</ele>
        <time>2020-07-25T08:40:36.982Z</time>
      </trkpt>
      <trkpt lat="60.46956" lon="5.27562">
        <ele>94.37111</ele>
        <time>2020-07-25T08:40:43.993Z</time>
      </trkpt>
      <trkpt lat="60.46963" lon="5.2755">
        <ele>95.190788</ele>
        <time>2020-07-25T08:40:51.003Z</time>
      </trkpt>
      <trkpt lat="60.4697" lon="5.27535">
        <ele>96.075064</ele>
        <time>2020-07-25T08:40:57.966Z</time>
      </trkpt>
      <trkpt lat="60.46978" lon="5.27523">
        <ele>96.960195</ele>
        <time>2020-07-25T08:41:05.967Z</time>
      </trkpt>
      <trkpt lat="60.46987" lon="5.27514">
        <ele>97.833472</ele>
        <time>2020-07-25T08:41:11.001Z</time>
      </trkpt>
      <trkpt lat="60.46995" lon="5.27507">
        <ele>98.638247</ele>
        <time>2020-07-25T08:41:16.991Z</time>
      </trkpt>
      <trkpt lat="60.47004" lon="5.275">
        <ele>99.480996</ele>
        <time>2020-07-25T08:41:24.011Z</time>
      </trkpt>
      <trkpt lat="60.47013" lon="5.27497">
        <ele>100.319861</ele>
        <time>2020-07-25T08:41:29.967Z</time>
      </trkpt>
      <trkpt lat="60.47037" lon="5.27508">
        <ele>101.461871</ele>
        <time>2020-07-25T08:43:00.984Z</time>
      </trkpt>
      <trkpt lat="60.47046" lon="5.27505">
        <ele>101.83081</ele>
        <time>2020-07-25T08:43:03.959Z</time>
      </trkpt>
      <trkpt lat="60.47053" lon="5.27491">
        <ele>102.206011</ele>
        <time>2020-07-25T08:43:06.965Z</time>
      </trkpt>
      <trkpt lat="60.47059" lon="5.27478">
        <ele>102.554084</ele>
        <time>2020-07-25T08:43:09.971Z</time>
      </trkpt>
      <trkpt lat="60.47068" lon="5.27462">
        <ele>103.018661</ele>
        <time>2020-07-25T08:43:13.964Z</time>
      </trkpt>
      <trkpt lat="60.47075" lon="5.27448">
        <ele>103.395183</ele>
        <time>2020-07-25T08:43:16.974Z</time>
      </trkpt>
      <trkpt lat="60.47082" lon="5.27435">
        <ele>103.779974</ele>
        <time>2020-07-25T08:43:19.980Z</time>
      </trkpt>
      <trkpt lat="60.4709" lon="5.27421">
        <ele>104.180772</ele>
        <time>2020-07-25T08:43:22.959Z</time>
      </trkpt>
      <trkpt lat="60.47097" lon="5.27409">
        <ele>104.533718</ele>
        <time>2020-07-25T08:43:25.973Z</time>
      </trkpt>
      <trkpt lat="60.47104" lon="5.27398">
        <ele>104.888505</ele>
        <time>2020-07-25T08:43:28.962Z</time>
      </trkpt>
      <trkpt lat="60.47112" lon="5.27384">
        <ele>105.28977</ele>
        <time>2020-07-25T08:43:32.985Z</time>
      </trkpt>
      <trkpt lat="60.4712" lon="5.27371">
        <ele>105.675489</ele>
        <time>2020-07-25T08:43:36.982Z</time>
      </trkpt>
      <trkpt lat="60.47127" lon="5.27358">
        <ele>106.063427</ele>
        <time>2020-07-25T08:43:40.956Z</time>
      </trkpt>
      <trkpt lat="60.47135" lon="5.27344">
        <ele>106.449746</ele>
        <time>2020-07-25T08:43:45.965Z</time>
      </trkpt>
      <trkpt lat="60.47141" lon="5.27332">
        <ele>106.80751</ele>
        <time>2020-07-25T08:43:49.983Z</time>
      </trkpt>
      <trkpt lat="60.47149" lon="5.27316">
        <ele>107.238416</ele>
        <time>2020-07-25T08:43:54.975Z</time>
      </trkpt>
      <trkpt lat="60.47156" lon="5.27301">
        <ele>107.614936</ele>
        <time>2020-07-25T08:44:00.007Z</time>
      </trkpt>
      <trkpt lat="60.47163" lon="5.27288">
        <ele>108.514388</ele>
        <time>2020-07-25T08:44:05.964Z</time>
      </trkpt>
      <trkpt lat="60.4717" lon="5.27274">
        <ele>109.503747</ele>
        <time>2020-07-25T08:44:11.976Z</time>
      </trkpt>
      <trkpt lat="60.47176" lon="5.27259">
        <ele>110.433864</ele>
        <time>2020-07-25T08:44:17.971Z</time>
      </trkpt>
      <trkpt lat="60.47182" lon="5.27245">
        <ele>111.318102</ele>
        <time>2020-07-25T08:44:24.968Z</time>
      </trkpt>
      <trkpt lat="60.47189" lon="5.27233">
        <ele>112.242444</ele>
        <time>2020-07-25T08:44:30.970Z</time>
      </trkpt>
      <trkpt lat="60.47197" lon="5.2722">
        <ele>113.247489</ele>
        <time>2020-07-25T08:44:36.965Z</time>
      </trkpt>
      <trkpt lat="60.47205" lon="5.27207">
        <ele>114.249841</ele>
        <time>2020-07-25T08:44:43.983Z</time>
      </trkpt>
      <trkpt lat="60.47212" lon="5.27194">
        <ele>115.166976</ele>
        <time>2020-07-25T08:44:49.971Z</time>
      </trkpt>
      <trkpt lat="60.47219" lon="5.27182">
        <ele>116.05521</ele>
        <time>2020-07-25T08:44:55.960Z</time>
      </trkpt>
      <trkpt lat="60.47226" lon="5.27168">
        <ele>117.056046</ele>
        <time>2020-07-25T08:45:02.998Z</time>
      </trkpt>
      <trkpt lat="60.47234" lon="5.27152">
        <ele>118.117843</ele>
        <time>2020-07-25T08:45:08.991Z</time>
      </trkpt>
      <trkpt lat="60.47241" lon="5.27141">
        <ele>119.011773</ele>
        <time>2020-07-25T08:45:14.987Z</time>
      </trkpt>
      <trkpt lat="60.47249" lon="5.27129">
        <ele>119.976016</ele>
        <time>2020-07-25T08:45:20.967Z</time>
      </trkpt>
      <trkpt lat="60.47256" lon="5.27114">
        <ele>120.976787</ele>
        <time>2020-07-25T08:45:26.968Z</time>
      </trkpt>
      <trkpt lat="60.47262" lon="5.27099">
        <ele>121.863194</ele>
        <time>2020-07-25T08:45:32.974Z</time>
      </trkpt>
      <trkpt lat="60.47269" lon="5.27086">
        <ele>122.808299</ele>
        <time>2020-07-25T08:45:38.996Z</time>
      </trkpt>
      <trkpt lat="60.47276" lon="5.27072">
        <ele>123.753004</ele>
        <time>2020-07-25T08:45:44.975Z</time>
      </trkpt>
      <trkpt lat="60.47281" lon="5.27054">
        <ele>124.761503</ele>
        <time>2020-07-25T08:45:52.004Z</time>
      </trkpt>
      <trkpt lat="60.47286" lon="5.27037">
        <ele>125.44905</ele>
        <time>2020-07-25T08:45:58.968Z</time>
      </trkpt>
      <trkpt lat="60.47292" lon="5.27022">
        <ele>125.729259</ele>
        <time>2020-07-25T08:46:05.949Z</time>
      </trkpt>
      <trkpt lat="60.47299" lon="5.27007">
        <ele>126.013821</ele>
        <time>2020-07-25T08:46:11.957Z</time>
      </trkpt>
      <trkpt lat="60.47305" lon="5.26991">
        <ele>126.303498</ele>
        <time>2020-07-25T08:46:17.997Z</time>
      </trkpt>
      <trkpt lat="60.47311" lon="5.26977">
        <ele>126.576003</ele>
        <time>2020-07-25T08:46:24.968Z</time>
      </trkpt>
      <trkpt lat="60.47316" lon="5.2696">
        <ele>126.858781</ele>
        <time>2020-07-25T08:46:32.972Z</time>
      </trkpt>
      <trkpt lat="60.4732" lon="5.26943">
        <ele>127.134286</ele>
        <time>2020-07-25T08:46:38.959Z</time>
      </trkpt>
      <trkpt lat="60.47325" lon="5.26925">
        <ele>127.434695</ele>
        <time>2020-07-25T08:46:44.972Z</time>
      </trkpt>
      <trkpt lat="60.4733" lon="5.26909">
        <ele>127.70515</ele>
        <time>2020-07-25T08:46:49.974Z</time>
      </trkpt>
      <trkpt lat="60.47335" lon="5.26893">
        <ele>127.975347</ele>
        <time>2020-07-25T08:46:54.969Z</time>
      </trkpt>
      <trkpt lat="60.4734" lon="5.26877">
        <ele>128.245236</ele>
        <time>2020-07-25T08:46:58.957Z</time>
      </trkpt>
      <trkpt lat="60.47345" lon="5.26861">
        <ele>128.526309</ele>
        <time>2020-07-25T08:47:02.996Z</time>
      </trkpt>
      <trkpt lat="60.47352" lon="5.26841">
        <ele>128.865965</ele>
        <time>2020-07-25T08:47:07.008Z</time>
      </trkpt>
      <trkpt lat="60.47358" lon="5.26826">
        <ele>129.151585</ele>
        <time>2020-07-25T08:47:09.993Z</time>
      </trkpt>
      <trkpt lat="60.47365" lon="5.26804">
        <ele>129.537018</ele>
        <time>2020-07-25T08:47:12.983Z</time>
      </trkpt>
      <trkpt lat="60.47371" lon="5.26786">
        <ele>129.839256</ele>
        <time>2020-07-25T08:47:15.008Z</time>
      </trkpt>
      <trkpt lat="60.47379" lon="5.26766">
        <ele>130.210811</ele>
        <time>2020-07-25T08:47:16.966Z</time>
      </trkpt>
      <trkpt lat="60.47388" lon="5.2674">
        <ele>130.364899</ele>
        <time>2020-07-25T08:47:18.991Z</time>
      </trkpt>
      <trkpt lat="60.47399" lon="5.26712">
        <ele>129.39321</ele>
        <time>2020-07-25T08:47:21.003Z</time>
      </trkpt>
      <trkpt lat="60.4741" lon="5.26685">
        <ele>128.395612</ele>
        <time>2020-07-25T08:47:22.967Z</time>
      </trkpt>
      <trkpt lat="60.47415" lon="5.2667">
        <ele>127.855051</ele>
        <time>2020-07-25T08:47:23.990Z</time>
      </trkpt>
      <trkpt lat="60.47422" lon="5.26655">
        <ele>127.276836</ele>
        <time>2020-07-25T08:47:24.965Z</time>
      </trkpt>
      <trkpt lat="60.4743" lon="5.26638">
        <ele>126.660632</ele>
        <time>2020-07-25T08:47:26.009Z</time>
      </trkpt>
      <trkpt lat="60.47437" lon="5.26621">
        <ele>126.029281</ele>
        <time>2020-07-25T08:47:26.961Z</time>
      </trkpt>
      <trkpt lat="60.47443" lon="5.26604">
        <ele>125.405113</ele>
        <time>2020-07-25T08:47:27.988Z</time>
      </trkpt>
      <trkpt lat="60.47451" lon="5.26586">
        <ele>124.757927</ele>
        <time>2020-07-25T08:47:28.997Z</time>
      </trkpt>
      <trkpt lat="60.47458" lon="5.26568">
        <ele>124.098378</ele>
        <time>2020-07-25T08:47:29.971Z</time>
      </trkpt>
      <trkpt lat="60.47465" lon="5.26549">
        <ele>123.435248</ele>
        <time>2020-07-25T08:47:30.965Z</time>
      </trkpt>
      <trkpt lat="60.47472" lon="5.26531">
        <ele>122.757563</ele>
        <time>2020-07-25T08:47:31.972Z</time>
      </trkpt>
      <trkpt lat="60.4748" lon="5.26511">
        <ele>122.068818</ele>
        <time>2020-07-25T08:47:32.953Z</time>
      </trkpt>
      <trkpt lat="60.47488" lon="5.26492">
        <ele>121.355647</ele>
        <time>2020-07-25T08:47:33.968Z</time>
      </trkpt>
      <trkpt lat="60.47496" lon="5.26471">
        <ele>120.611995</ele>
        <time>2020-07-25T08:47:34.953Z</time>
      </trkpt>
      <trkpt lat="60.47504" lon="5.2645">
        <ele>119.768859</ele>
        <time>2020-07-25T08:47:35.972Z</time>
      </trkpt>
      <trkpt lat="60.47514" lon="5.26429">
        <ele>118.87181</ele>
        <time>2020-07-25T08:47:37.002Z</time>
      </trkpt>
      <trkpt lat="60.47523" lon="5.26409">
        <ele>117.963844</ele>
        <time>2020-07-25T08:47:37.966Z</time>
      </trkpt>
      <trkpt lat="60.47532" lon="5.2639">
        <ele>117.090724</ele>
        <time>2020-07-25T08:47:38.974Z</time>
      </trkpt>
      <trkpt lat="60.47542" lon="5.26372">
        <ele>116.229632</ele>
        <time>2020-07-25T08:47:39.966Z</time>
      </trkpt>
      <trkpt lat="60.47552" lon="5.26356">
        <ele>115.389681</ele>
        <time>2020-07-25T08:47:40.963Z</time>
      </trkpt>
      <trkpt lat="60.47562" lon="5.2634">
        <ele>114.587605</ele>
        <time>2020-07-25T08:47:41.959Z</time>
      </trkpt>
      <trkpt lat="60.47571" lon="5.26326">
        <ele>113.79102</ele>
        <time>2020-07-25T08:47:42.972Z</time>
      </trkpt>
      <trkpt lat="60.47581" lon="5.26311">
        <ele>113.009357</ele>
        <time>2020-07-25T08:47:43.973Z</time>
      </trkpt>
      <trkpt lat="60.47591" lon="5.26298">
        <ele>112.222726</ele>
        <time>2020-07-25T08:47:44.996Z</time>
      </trkpt>
      <trkpt lat="60.47601" lon="5.26286">
        <ele>111.429811</ele>
        <time>2020-07-25T08:47:45.953Z</time>
      </trkpt>
      <trkpt lat="60.47611" lon="5.26273">
        <ele>110.677206</ele>
        <time>2020-07-25T08:47:46.979Z</time>
      </trkpt>
      <trkpt lat="60.4762" lon="5.26262">
        <ele>109.960623</ele>
        <time>2020-07-25T08:47:47.956Z</time>
      </trkpt>
      <trkpt lat="60.47628" lon="5.26251">
        <ele>109.342941</ele>
        <time>2020-07-25T08:47:48.974Z</time>
      </trkpt>
      <trkpt lat="60.47641" lon="5.26234">
        <ele>108.415676</ele>
        <time>2020-07-25T08:47:50.970Z</time>
      </trkpt>
      <trkpt lat="60.47651" lon="5.26218">
        <ele>108.113676</ele>
        <time>2020-07-25T08:47:52.966Z</time>
      </trkpt>
      <trkpt lat="60.4766" lon="5.26202">
        <ele>107.83745</ele>
        <time>2020-07-25T08:47:54.982Z</time>
      </trkpt>
      <trkpt lat="60.47669" lon="5.26189">
        <ele>107.562958</ele>
        <time>2020-07-25T08:47:56.970Z</time>
      </trkpt>
      <trkpt lat="60.47678" lon="5.26176">
        <ele>107.306213</ele>
        <time>2020-07-25T08:47:59.001Z</time>
      </trkpt>
      <trkpt lat="60.47686" lon="5.26163">
        <ele>107.049686</ele>
        <time>2020-07-25T08:48:00.957Z</time>
      </trkpt>
      <trkpt lat="60.47695" lon="5.26148">
        <ele>106.786732</ele>
        <time>2020-07-25T08:48:02.996Z</time>
      </trkpt>
      <trkpt lat="60.47704" lon="5.26132">
        <ele>106.502878</ele>
        <time>2020-07-25T08:48:04.981Z</time>
      </trkpt>
      <trkpt lat="60.47713" lon="5.26115">
        <ele>106.216093</ele>
        <time>2020-07-25T08:48:06.976Z</time>
      </trkpt>
      <trkpt lat="60.47721" lon="5.26098">
        <ele>105.931234</ele>
        <time>2020-07-25T08:48:08.967Z</time>
      </trkpt>
      <trkpt lat="60.4773" lon="5.26081">
        <ele>105.647191</ele>
        <time>2020-07-25T08:48:10.963Z</time>
      </trkpt>
      <trkpt lat="60.47738" lon="5.26065">
        <ele>105.377795</ele>
        <time>2020-07-25T08:48:12.972Z</time>
      </trkpt>
      <trkpt lat="60.47746" lon="5.26048">
        <ele>105.114219</ele>
        <time>2020-07-25T08:48:14.971Z</time>
      </trkpt>
      <trkpt lat="60.47752" lon="5.26031">
        <ele>104.86199</ele>
        <time>2020-07-25T08:48:16.979Z</time>
      </trkpt>
      <trkpt lat="60.47758" lon="5.26014">
        <ele>104.618221</ele>
        <time>2020-07-25T08:48:18.974Z</time>
      </trkpt>
      <trkpt lat="60.47764" lon="5.25998">
        <ele>104.385666</ele>
        <time>2020-07-25T08:48:20.975Z</time>
      </trkpt>
      <trkpt lat="60.4777" lon="5.25983">
        <ele>104.216213</ele>
        <time>2020-07-25T08:48:22.996Z</time>
      </trkpt>
      <trkpt lat="60.47778" lon="5.25963">
        <ele>104.301661</ele>
        <time>2020-07-25T08:48:25.996Z</time>
      </trkpt>
      <trkpt lat="60.47786" lon="5.25945">
        <ele>104.385331</ele>
        <time>2020-07-25T08:48:28.953Z</time>
      </trkpt>
      <trkpt lat="60.47794" lon="5.25927">
        <ele>104.46075</ele>
        <time>2020-07-25T08:48:31.982Z</time>
      </trkpt>
      <trkpt lat="60.47799" lon="5.25912">
        <ele>104.525651</ele>
        <time>2020-07-25T08:48:34.977Z</time>
      </trkpt>
      <trkpt lat="60.47807" lon="5.25895">
        <ele>104.60087</ele>
        <time>2020-07-25T08:48:38.967Z</time>
      </trkpt>
      <trkpt lat="60.47814" lon="5.2588">
        <ele>104.668438</ele>
        <time>2020-07-25T08:48:42.975Z</time>
      </trkpt>
      <trkpt lat="60.47821" lon="5.25868">
        <ele>104.731776</ele>
        <time>2020-07-25T08:48:46.970Z</time>
      </trkpt>
      <trkpt lat="60.4783" lon="5.25859">
        <ele>104.798639</ele>
        <time>2020-07-25T08:48:50.956Z</time>
      </trkpt>
      <trkpt lat="60.4784" lon="5.25851">
        <ele>104.871604</ele>
        <time>2020-07-25T08:48:54.986Z</time>
      </trkpt>
      <trkpt lat="60.47849" lon="5.25847">
        <ele>104.937047</ele>
        <time>2020-07-25T08:48:57.984Z</time>
      </trkpt>
      <trkpt lat="60.47859" lon="5.25842">
        <ele>105.00144</ele>
        <time>2020-07-25T08:49:00.953Z</time>
      </trkpt>
      <trkpt lat="60.47872" lon="5.25837">
        <ele>105.09163</ele>
        <time>2020-07-25T08:49:03.973Z</time>
      </trkpt>
      <trkpt lat="60.47882" lon="5.25836">
        <ele>105.162532</ele>
        <time>2020-07-25T08:49:05.974Z</time>
      </trkpt>
      <trkpt lat="60.47894" lon="5.25837">
        <ele>105.240939</ele>
        <time>2020-07-25T08:49:07.970Z</time>
      </trkpt>
      <trkpt lat="60.47906" lon="5.25838">
        <ele>105.324729</ele>
        <time>2020-07-25T08:49:09.979Z</time>
      </trkpt>
      <trkpt lat="60.4792" lon="5.2584">
        <ele>105.410968</ele>
        <time>2020-07-25T08:49:11.958Z</time>
      </trkpt>
      <trkpt lat="60.47937" lon="5.25843">
        <ele>105.164543</ele>
        <time>2020-07-25T08:49:13.994Z</time>
      </trkpt>
      <trkpt lat="60.47955" lon="5.25847">
        <ele>104.887711</ele>
        <time>2020-07-25T08:49:15.996Z</time>
      </trkpt>
      <trkpt lat="60.47965" lon="5.25848">
        <ele>104.740754</ele>
        <time>2020-07-25T08:49:16.996Z</time>
      </trkpt>
      <trkpt lat="60.47974" lon="5.25849">
        <ele>104.590774</ele>
        <time>2020-07-25T08:49:17.984Z</time>
      </trkpt>
      <trkpt lat="60.47984" lon="5.25849">
        <ele>104.442463</ele>
        <time>2020-07-25T08:49:18.968Z</time>
      </trkpt>
      <trkpt lat="60.47994" lon="5.25848">
        <ele>104.298565</ele>
        <time>2020-07-25T08:49:19.958Z</time>
      </trkpt>
      <trkpt lat="60.48003" lon="5.25846">
        <ele>104.152469</ele>
        <time>2020-07-25T08:49:20.995Z</time>
      </trkpt>
      <trkpt lat="60.48013" lon="5.25841">
        <ele>104.004693</ele>
        <time>2020-07-25T08:49:21.970Z</time>
      </trkpt>
      <trkpt lat="60.48022" lon="5.25834">
        <ele>103.861064</ele>
        <time>2020-07-25T08:49:23.016Z</time>
      </trkpt>
      <trkpt lat="60.4803" lon="5.25826">
        <ele>103.717923</ele>
        <time>2020-07-25T08:49:23.971Z</time>
      </trkpt>
      <trkpt lat="60.48038" lon="5.25818">
        <ele>103.579259</ele>
        <time>2020-07-25T08:49:24.960Z</time>
      </trkpt>
      <trkpt lat="60.48053" lon="5.258">
        <ele>103.328405</ele>
        <time>2020-07-25T08:49:26.971Z</time>
      </trkpt>
      <trkpt lat="60.48065" lon="5.25784">
        <ele>103.106991</ele>
        <time>2020-07-25T08:49:28.971Z</time>
      </trkpt>
      <trkpt lat="60.48075" lon="5.25769">
        <ele>102.920059</ele>
        <time>2020-07-25T08:49:30.996Z</time>
      </trkpt>
      <trkpt lat="60.48084" lon="5.25756">
        <ele>102.750866</ele>
        <time>2020-07-25T08:49:32.970Z</time>
      </trkpt>
      <trkpt lat="60.48092" lon="5.25745">
        <ele>102.679682</ele>
        <time>2020-07-25T08:49:34.967Z</time>
      </trkpt>
      <trkpt lat="60.48101" lon="5.25738">
        <ele>102.652927</ele>
        <time>2020-07-25T08:49:36.975Z</time>
      </trkpt>
      <trkpt lat="60.4811" lon="5.25733">
        <ele>102.626723</ele>
        <time>2020-07-25T08:49:38.976Z</time>
      </trkpt>
      <trkpt lat="60.48123" lon="5.2573">
        <ele>102.588923</ele>
        <time>2020-07-25T08:49:42.013Z</time>
      </trkpt>
      <trkpt lat="60.48132" lon="5.25728">
        <ele>102.563669</ele>
        <time>2020-07-25T08:49:43.963Z</time>
      </trkpt>
      <trkpt lat="60.48141" lon="5.25728">
        <ele>102.53792</ele>
        <time>2020-07-25T08:49:45.967Z</time>
      </trkpt>
      <trkpt lat="60.48151" lon="5.25727">
        <ele>102.511335</ele>
        <time>2020-07-25T08:49:47.963Z</time>
      </trkpt>
      <trkpt lat="60.4816" lon="5.25728">
        <ele>102.48503</ele>
        <time>2020-07-25T08:49:49.974Z</time>
      </trkpt>
      <trkpt lat="60.48169" lon="5.25729">
        <ele>102.45982</ele>
        <time>2020-07-25T08:49:51.964Z</time>
      </trkpt>
      <trkpt lat="60.48179" lon="5.2573">
        <ele>102.432881</ele>
        <time>2020-07-25T08:49:53.977Z</time>
      </trkpt>
      <trkpt lat="60.48189" lon="5.25731">
        <ele>102.406</ele>
        <time>2020-07-25T08:49:55.988Z</time>
      </trkpt>
      <trkpt lat="60.48198" lon="5.25732">
        <ele>102.379403</ele>
        <time>2020-07-25T08:49:58.009Z</time>
      </trkpt>
      <trkpt lat="60.48211" lon="5.25731">
        <ele>102.342468</ele>
        <time>2020-07-25T08:50:00.976Z</time>
      </trkpt>
      <trkpt lat="60.48224" lon="5.25731">
        <ele>102.307766</ele>
        <time>2020-07-25T08:50:03.960Z</time>
      </trkpt>
      <trkpt lat="60.48234" lon="5.2573">
        <ele>102.279487</ele>
        <time>2020-07-25T08:50:07.970Z</time>
      </trkpt>
      <trkpt lat="60.48245" lon="5.25728">
        <ele>102.247246</ele>
        <time>2020-07-25T08:51:21.968Z</time>
      </trkpt>
      <trkpt lat="60.48256" lon="5.25727">
        <ele>102.21616</ele>
        <time>2020-07-25T08:51:26.996Z</time>
      </trkpt>
      <trkpt lat="60.48268" lon="5.25727">
        <ele>102.005475</ele>
        <time>2020-07-25T08:51:30.999Z</time>
      </trkpt>
      <trkpt lat="60.48281" lon="5.25732">
        <ele>101.387175</ele>
        <time>2020-07-25T08:51:33.964Z</time>
      </trkpt>
      <trkpt lat="60.48291" lon="5.25737">
        <ele>100.910872</ele>
        <time>2020-07-25T08:51:35.990Z</time>
      </trkpt>
      <trkpt lat="60.48301" lon="5.25745">
        <ele>100.410059</ele>
        <time>2020-07-25T08:51:37.999Z</time>
      </trkpt>
      <trkpt lat="60.48312" lon="5.2576">
        <ele>99.78213</ele>
        <time>2020-07-25T08:51:39.957Z</time>
      </trkpt>
      <trkpt lat="60.48324" lon="5.2578">
        <ele>99.049612</ele>
        <time>2020-07-25T08:51:41.974Z</time>
      </trkpt>
      <trkpt lat="60.48335" lon="5.25804">
        <ele>98.287593</ele>
        <time>2020-07-25T08:51:43.972Z</time>
      </trkpt>
      <trkpt lat="60.48346" lon="5.2583">
        <ele>97.510472</ele>
        <time>2020-07-25T08:51:45.968Z</time>
      </trkpt>
      <trkpt lat="60.48355" lon="5.25858">
        <ele>96.742773</ele>
        <time>2020-07-25T08:51:47.965Z</time>
      </trkpt>
      <trkpt lat="60.48363" lon="5.25887">
        <ele>95.951701</ele>
        <time>2020-07-25T08:51:49.971Z</time>
      </trkpt>
      <trkpt lat="60.48373" lon="5.25915">
        <ele>95.164266</ele>
        <time>2020-07-25T08:51:51.983Z</time>
      </trkpt>
      <trkpt lat="60.48383" lon="5.25939">
        <ele>94.434672</ele>
        <time>2020-07-25T08:51:54.026Z</time>
      </trkpt>
      <trkpt lat="60.48394" lon="5.25959">
        <ele>93.736395</ele>
        <time>2020-07-25T08:51:55.965Z</time>
      </trkpt>
      <trkpt lat="60.48407" lon="5.25975">
        <ele>92.833856</ele>
        <time>2020-07-25T08:51:57.970Z</time>
      </trkpt>
      <trkpt lat="60.48423" lon="5.25986">
        <ele>91.860443</ele>
        <time>2020-07-25T08:51:59.990Z</time>
      </trkpt>
      <trkpt lat="60.4844" lon="5.25991">
        <ele>90.880994</ele>
        <time>2020-07-25T08:52:01.962Z</time>
      </trkpt>
      <trkpt lat="60.48456" lon="5.25991">
        <ele>89.931449</ele>
        <time>2020-07-25T08:52:03.965Z</time>
      </trkpt>
      <trkpt lat="60.48472" lon="5.25984">
        <ele>89.017195</ele>
        <time>2020-07-25T08:52:05.964Z</time>
      </trkpt>
      <trkpt lat="60.48486" lon="5.25967">
        <ele>88.064924</ele>
        <time>2020-07-25T08:52:07.975Z</time>
      </trkpt>
      <trkpt lat="60.48498" lon="5.25958">
        <ele>87.322312</ele>
        <time>2020-07-25T08:52:09.952Z</time>
      </trkpt>
      <trkpt lat="60.48509" lon="5.2595">
        <ele>86.661494</ele>
        <time>2020-07-25T08:52:11.963Z</time>
      </trkpt>
      <trkpt lat="60.4852" lon="5.25942">
        <ele>86.003758</ele>
        <time>2020-07-25T08:52:13.969Z</time>
      </trkpt>
      <trkpt lat="60.48529" lon="5.25935">
        <ele>85.415123</ele>
        <time>2020-07-25T08:52:15.983Z</time>
      </trkpt>
      <trkpt lat="60.48538" lon="5.25931">
        <ele>84.873561</ele>
        <time>2020-07-25T08:52:17.983Z</time>
      </trkpt>
      <trkpt lat="60.48547" lon="5.25927">
        <ele>84.343923</ele>
        <time>2020-07-25T08:52:19.976Z</time>
      </trkpt>
      <trkpt lat="60.48559" lon="5.25922">
        <ele>83.646643</ele>
        <time>2020-07-25T08:52:22.956Z</time>
      </trkpt>
      <trkpt lat="60.48569" lon="5.25918">
        <ele>83.09558</ele>
        <time>2020-07-25T08:52:25.996Z</time>
      </trkpt>
      <trkpt lat="60.48581" lon="5.25916">
        <ele>82.520508</ele>
        <time>2020-07-25T08:52:28.958Z</time>
      </trkpt>
      <trkpt lat="60.48591" lon="5.25915">
        <ele>82.07159</ele>
        <time>2020-07-25T08:52:31.001Z</time>
      </trkpt>
      <trkpt lat="60.48602" lon="5.25916">
        <ele>81.546555</ele>
        <time>2020-07-25T08:52:32.989Z</time>
      </trkpt>
      <trkpt lat="60.48614" lon="5.25918">
        <ele>80.933282</ele>
        <time>2020-07-25T08:52:34.981Z</time>
      </trkpt>
      <trkpt lat="60.48628" lon="5.25923">
        <ele>80.261615</ele>
        <time>2020-07-25T08:52:37.004Z</time>
      </trkpt>
      <trkpt lat="60.48643" lon="5.25929">
        <ele>79.52127</ele>
        <time>2020-07-25T08:52:38.981Z</time>
      </trkpt>
      <trkpt lat="60.4866" lon="5.25936">
        <ele>78.734613</ele>
        <time>2020-07-25T08:52:41.004Z</time>
      </trkpt>
      <trkpt lat="60.48675" lon="5.25946">
        <ele>77.970375</ele>
        <time>2020-07-25T08:52:42.966Z</time>
      </trkpt>
      <trkpt lat="60.48691" lon="5.25956">
        <ele>77.175816</ele>
        <time>2020-07-25T08:52:44.971Z</time>
      </trkpt>
      <trkpt lat="60.48707" lon="5.25966">
        <ele>76.380114</ele>
        <time>2020-07-25T08:52:47.018Z</time>
      </trkpt>
      <trkpt lat="60.48722" lon="5.25975">
        <ele>75.641924</ele>
        <time>2020-07-25T08:52:48.994Z</time>
      </trkpt>
      <trkpt lat="60.48735" lon="5.25983">
        <ele>74.988134</ele>
        <time>2020-07-25T08:52:50.974Z</time>
      </trkpt>
      <trkpt lat="60.48746" lon="5.25991">
        <ele>74.637021</ele>
        <time>2020-07-25T08:52:52.981Z</time>
      </trkpt>
      <trkpt lat="60.48758" lon="5.25998">
        <ele>74.462727</ele>
        <time>2020-07-25T08:52:54.960Z</time>
      </trkpt>
      <trkpt lat="60.48771" lon="5.26005">
        <ele>74.268761</ele>
        <time>2020-07-25T08:52:56.977Z</time>
      </trkpt>
      <trkpt lat="60.48784" lon="5.26012">
        <ele>74.074977</ele>
        <time>2020-07-25T08:52:58.995Z</time>
      </trkpt>
      <trkpt lat="60.48798" lon="5.2602">
        <ele>73.87811</ele>
        <time>2020-07-25T08:53:00.954Z</time>
      </trkpt>
      <trkpt lat="60.4881" lon="5.26029">
        <ele>73.689866</ele>
        <time>2020-07-25T08:53:02.992Z</time>
      </trkpt>
      <trkpt lat="60.4882" lon="5.26034">
        <ele>73.553468</ele>
        <time>2020-07-25T08:53:04.979Z</time>
      </trkpt>
      <trkpt lat="60.4883" lon="5.26038">
        <ele>73.409479</ele>
        <time>2020-07-25T08:53:07.973Z</time>
      </trkpt>
      <trkpt lat="60.48842" lon="5.26044">
        <ele>73.226536</ele>
        <time>2020-07-25T08:53:10.961Z</time>
      </trkpt>
      <trkpt lat="60.48852" lon="5.26051">
        <ele>73.082272</ele>
        <time>2020-07-25T08:53:12.981Z</time>
      </trkpt>
      <trkpt lat="60.48864" lon="5.26058">
        <ele>72.907189</ele>
        <time>2020-07-25T08:53:14.976Z</time>
      </trkpt>
      <trkpt lat="60.48875" lon="5.26064">
        <ele>72.733516</ele>
        <time>2020-07-25T08:53:16.966Z</time>
      </trkpt>
      <trkpt lat="60.48886" lon="5.26071">
        <ele>72.570892</ele>
        <time>2020-07-25T08:53:19.014Z</time>
      </trkpt>
      <trkpt lat="60.48897" lon="5.26076">
        <ele>72.413996</ele>
        <time>2020-07-25T08:53:20.994Z</time>
      </trkpt>
      <trkpt lat="60.48907" lon="5.26078">
        <ele>72.277025</ele>
        <time>2020-07-25T08:53:22.992Z</time>
      </trkpt>
      <trkpt lat="60.48916" lon="5.26079">
        <ele>72.400301</ele>
        <time>2020-07-25T08:53:24.990Z</time>
      </trkpt>
      <trkpt lat="60.48926" lon="5.26079">
        <ele>73.041786</ele>
        <time>2020-07-25T08:53:26.971Z</time>
      </trkpt>
      <trkpt lat="60.48938" lon="5.26076">
        <ele>73.889836</ele>
        <time>2020-07-25T08:53:30.007Z</time>
      </trkpt>
      <trkpt lat="60.48948" lon="5.26073">
        <ele>74.641651</ele>
        <time>2020-07-25T08:53:32.969Z</time>
      </trkpt>
      <trkpt lat="60.48958" lon="5.26069">
        <ele>75.308274</ele>
        <time>2020-07-25T08:53:35.964Z</time>
      </trkpt>
      <trkpt lat="60.48968" lon="5.26063">
        <ele>76.040145</ele>
        <time>2020-07-25T08:53:39.981Z</time>
      </trkpt>
      <trkpt lat="60.48978" lon="5.26058">
        <ele>76.786971</ele>
        <time>2020-07-25T08:53:43.969Z</time>
      </trkpt>
      <trkpt lat="60.48989" lon="5.26052">
        <ele>77.56862</ele>
        <time>2020-07-25T08:53:47.980Z</time>
      </trkpt>
      <trkpt lat="60.48999" lon="5.26047">
        <ele>78.259672</ele>
        <time>2020-07-25T08:53:51.978Z</time>
      </trkpt>
      <trkpt lat="60.4901" lon="5.26045">
        <ele>79.03513</ele>
        <time>2020-07-25T08:53:56.976Z</time>
      </trkpt>
      <trkpt lat="60.49019" lon="5.26047">
        <ele>79.659487</ele>
        <time>2020-07-25T08:54:01.987Z</time>
      </trkpt>
      <trkpt lat="60.49029" lon="5.26049">
        <ele>80.414068</ele>
        <time>2020-07-25T08:54:09.966Z</time>
      </trkpt>
      <trkpt lat="60.49042" lon="5.26054">
        <ele>81.320242</ele>
        <time>2020-07-25T08:55:42.982Z</time>
      </trkpt>
      <trkpt lat="60.49051" lon="5.2606">
        <ele>81.947916</ele>
        <time>2020-07-25T08:55:53.963Z</time>
      </trkpt>
      <trkpt lat="60.49059" lon="5.26069">
        <ele>82.590705</ele>
        <time>2020-07-25T08:56:01.970Z</time>
      </trkpt>
      <trkpt lat="60.49067" lon="5.2608">
        <ele>83.262657</ele>
        <time>2020-07-25T08:56:10.975Z</time>
      </trkpt>
      <trkpt lat="60.49076" lon="5.26115">
        <ele>84.632147</ele>
        <time>2020-07-25T08:57:24.948Z</time>
      </trkpt>
      <trkpt lat="60.49079" lon="5.26136">
        <ele>85.853963</ele>
        <time>2020-07-25T08:57:28.966Z</time>
      </trkpt>
      <trkpt lat="60.4908" lon="5.26154">
        <ele>86.920153</ele>
        <time>2020-07-25T08:57:31.960Z</time>
      </trkpt>
      <trkpt lat="60.49081" lon="5.26175">
        <ele>88.132832</ele>
        <time>2020-07-25T08:57:35.963Z</time>
      </trkpt>
      <trkpt lat="60.49081" lon="5.26197">
        <ele>89.424923</ele>
        <time>2020-07-25T08:57:39.957Z</time>
      </trkpt>
      <trkpt lat="60.49079" lon="5.26216">
        <ele>90.581502</ele>
        <time>2020-07-25T08:57:43.952Z</time>
      </trkpt>
      <trkpt lat="60.49076" lon="5.26236">
        <ele>91.809665</ele>
        <time>2020-07-25T08:57:48.953Z</time>
      </trkpt>
      <trkpt lat="60.49072" lon="5.26257">
        <ele>93.076821</ele>
        <time>2020-07-25T08:57:53.955Z</time>
      </trkpt>
      <trkpt lat="60.49068" lon="5.26275">
        <ele>94.271849</ele>
        <time>2020-07-25T08:57:58.951Z</time>
      </trkpt>
      <trkpt lat="60.49065" lon="5.26294">
        <ele>95.405725</ele>
        <time>2020-07-25T08:58:03.970Z</time>
      </trkpt>
      <trkpt lat="60.49061" lon="5.26311">
        <ele>96.548353</ele>
        <time>2020-07-25T08:58:08.964Z</time>
      </trkpt>
      <trkpt lat="60.49059" lon="5.26331">
        <ele>97.728826</ele>
        <time>2020-07-25T08:58:13.961Z</time>
      </trkpt>
      <trkpt lat="60.49058" lon="5.2635">
        <ele>98.850756</ele>
        <time>2020-07-25T08:58:18.987Z</time>
      </trkpt>
      <trkpt lat="60.49057" lon="5.2637">
        <ele>100.026534</ele>
        <time>2020-07-25T08:58:24.968Z</time>
      </trkpt>
      <trkpt lat="60.49055" lon="5.26389">
        <ele>101.186619</ele>
        <time>2020-07-25T08:58:30.972Z</time>
      </trkpt>
      <trkpt lat="60.49051" lon="5.26409">
        <ele>102.41581</ele>
        <time>2020-07-25T08:58:36.971Z</time>
      </trkpt>
      <trkpt lat="60.49048" lon="5.26429">
        <ele>103.643982</ele>
        <time>2020-07-25T08:58:42.954Z</time>
      </trkpt>
      <trkpt lat="60.49044" lon="5.26446">
        <ele>104.740163</ele>
        <time>2020-07-25T08:58:48.943Z</time>
      </trkpt>
      <trkpt lat="60.49041" lon="5.26463">
        <ele>105.826331</ele>
        <time>2020-07-25T08:58:55.957Z</time>
      </trkpt>
      <trkpt lat="60.49038" lon="5.26481">
        <ele>106.006774</ele>
        <time>2020-07-25T08:59:01.954Z</time>
      </trkpt>
      <trkpt lat="60.49035" lon="5.26499">
        <ele>105.945984</ele>
        <time>2020-07-25T08:59:07.992Z</time>
      </trkpt>
      <trkpt lat="60.4903" lon="5.26517">
        <ele>105.881187</ele>
        <time>2020-07-25T08:59:13.987Z</time>
      </trkpt>
      <trkpt lat="60.49023" lon="5.26535">
        <ele>105.810694</ele>
        <time>2020-07-25T08:59:18.971Z</time>
      </trkpt>
      <trkpt lat="60.49017" lon="5.26552">
        <ele>105.744512</ele>
        <time>2020-07-25T08:59:22.972Z</time>
      </trkpt>
      <trkpt lat="60.49012" lon="5.26568">
        <ele>105.683482</ele>
        <time>2020-07-25T08:59:28.008Z</time>
      </trkpt>
      <trkpt lat="60.49006" lon="5.26586">
        <ele>105.617989</ele>
        <time>2020-07-25T08:59:32.968Z</time>
      </trkpt>
      <trkpt lat="60.49002" lon="5.26605">
        <ele>105.55297</ele>
        <time>2020-07-25T08:59:37.951Z</time>
      </trkpt>
      <trkpt lat="60.49" lon="5.26624">
        <ele>105.491217</ele>
        <time>2020-07-25T08:59:41.971Z</time>
      </trkpt>
      <trkpt lat="60.48997" lon="5.26644">
        <ele>105.42434</ele>
        <time>2020-07-25T08:59:45.962Z</time>
      </trkpt>
      <trkpt lat="60.48993" lon="5.26665">
        <ele>105.353424</ele>
        <time>2020-07-25T08:59:48.966Z</time>
      </trkpt>
      <trkpt lat="60.48991" lon="5.26683">
        <ele>105.295981</ele>
        <time>2020-07-25T08:59:50.974Z</time>
      </trkpt>
      <trkpt lat="60.4899" lon="5.26705">
        <ele>105.226085</ele>
        <time>2020-07-25T08:59:52.972Z</time>
      </trkpt>
      <trkpt lat="60.4899" lon="5.26728">
        <ele>105.153685</ele>
        <time>2020-07-25T08:59:54.963Z</time>
      </trkpt>
      <trkpt lat="60.48991" lon="5.26748">
        <ele>105.089973</ele>
        <time>2020-07-25T08:59:56.964Z</time>
      </trkpt>
      <trkpt lat="60.48994" lon="5.26772">
        <ele>105.013582</ele>
        <time>2020-07-25T08:59:59.987Z</time>
      </trkpt>
      <trkpt lat="60.49005" lon="5.26783">
        <ele>104.939651</ele>
        <time>2020-07-25T09:00:02.970Z</time>
      </trkpt>
      <trkpt lat="60.49016" lon="5.26773">
        <ele>104.653345</ele>
        <time>2020-07-25T09:00:06.020Z</time>
      </trkpt>
      <trkpt lat="60.49024" lon="5.26762">
        <ele>104.250553</ele>
        <time>2020-07-25T09:00:09.969Z</time>
      </trkpt>
      <trkpt lat="60.49033" lon="5.2676">
        <ele>103.883814</ele>
        <time>2020-07-25T09:00:16.996Z</time>
      </trkpt>
      <trkpt lat="60.49042" lon="5.26769">
        <ele>103.493664</ele>
        <time>2020-07-25T09:00:23.984Z</time>
      </trkpt>
      <trkpt lat="60.49052" lon="5.26765">
        <ele>103.094857</ele>
        <time>2020-07-25T09:00:29.001Z</time>
      </trkpt>
      <trkpt lat="60.4906" lon="5.26753">
        <ele>102.707005</ele>
        <time>2020-07-25T09:00:32.968Z</time>
      </trkpt>
      <trkpt lat="60.49067" lon="5.26734">
        <ele>102.225249</ele>
        <time>2020-07-25T09:00:36.965Z</time>
      </trkpt>
      <trkpt lat="60.49074" lon="5.26719">
        <ele>101.837322</ele>
        <time>2020-07-25T09:00:39.972Z</time>
      </trkpt>
      <trkpt lat="60.4908" lon="5.26704">
        <ele>101.453769</ele>
        <time>2020-07-25T09:00:42.978Z</time>
      </trkpt>
      <trkpt lat="60.49085" lon="5.26686">
        <ele>101.056521</ele>
        <time>2020-07-25T09:00:45.960Z</time>
      </trkpt>
      <trkpt lat="60.4909" lon="5.26671">
        <ele>100.691547</ele>
        <time>2020-07-25T09:00:48.967Z</time>
      </trkpt>
      <trkpt lat="60.49096" lon="5.26651">
        <ele>100.233295</ele>
        <time>2020-07-25T09:00:52.971Z</time>
      </trkpt>
      <trkpt lat="60.49102" lon="5.26636">
        <ele>99.860068</ele>
        <time>2020-07-25T09:00:55.976Z</time>
      </trkpt>
      <trkpt lat="60.49108" lon="5.2662">
        <ele>99.461641</ele>
        <time>2020-07-25T09:00:59.004Z</time>
      </trkpt>
      <trkpt lat="60.49114" lon="5.26604">
        <ele>99.065483</ele>
        <time>2020-07-25T09:01:01.990Z</time>
      </trkpt>
      <trkpt lat="60.49121" lon="5.26587">
        <ele>98.636795</ele>
        <time>2020-07-25T09:01:04.965Z</time>
      </trkpt>
      <trkpt lat="60.49128" lon="5.26571">
        <ele>98.221536</ele>
        <time>2020-07-25T09:01:07.984Z</time>
      </trkpt>
      <trkpt lat="60.49135" lon="5.26555">
        <ele>97.796957</ele>
        <time>2020-07-25T09:01:11.035Z</time>
      </trkpt>
      <trkpt lat="60.49142" lon="5.26537">
        <ele>98.102579</ele>
        <time>2020-07-25T09:01:13.956Z</time>
      </trkpt>
      <trkpt lat="60.4915" lon="5.26521">
        <ele>98.459775</ele>
        <time>2020-07-25T09:01:16.983Z</time>
      </trkpt>
      <trkpt lat="60.49158" lon="5.26505">
        <ele>98.837961</ele>
        <time>2020-07-25T09:01:19.965Z</time>
      </trkpt>
      <trkpt lat="60.49166" lon="5.2649">
        <ele>99.208105</ele>
        <time>2020-07-25T09:01:23.011Z</time>
      </trkpt>
      <trkpt lat="60.49174" lon="5.26477">
        <ele>99.542672</ele>
        <time>2020-07-25T09:01:25.984Z</time>
      </trkpt>
      <trkpt lat="60.49182" lon="5.26465">
        <ele>99.860266</ele>
        <time>2020-07-25T09:01:28.976Z</time>
      </trkpt>
      <trkpt lat="60.49189" lon="5.26451">
        <ele>100.186536</ele>
        <time>2020-07-25T09:01:31.977Z</time>
      </trkpt>
      <trkpt lat="60.49197" lon="5.2644">
        <ele>100.524258</ele>
        <time>2020-07-25T09:01:34.985Z</time>
      </trkpt>
      <trkpt lat="60.49205" lon="5.26427">
        <ele>100.855311</ele>
        <time>2020-07-25T09:01:38.008Z</time>
      </trkpt>
      <trkpt lat="60.49214" lon="5.26417">
        <ele>101.186758</ele>
        <time>2020-07-25T09:01:40.955Z</time>
      </trkpt>
      <trkpt lat="60.49225" lon="5.26406">
        <ele>101.579219</ele>
        <time>2020-07-25T09:01:43.972Z</time>
      </trkpt>
      <trkpt lat="60.49235" lon="5.26394">
        <ele>101.970268</ele>
        <time>2020-07-25T09:01:46.961Z</time>
      </trkpt>
      <trkpt lat="60.49244" lon="5.26379">
        <ele>102.360665</ele>
        <time>2020-07-25T09:01:49.985Z</time>
      </trkpt>
      <trkpt lat="60.49254" lon="5.26367">
        <ele>102.733564</ele>
        <time>2020-07-25T09:01:52.987Z</time>
      </trkpt>
      <trkpt lat="60.49262" lon="5.26359">
        <ele>103.047866</ele>
        <time>2020-07-25T09:01:54.977Z</time>
      </trkpt>
      <trkpt lat="60.49274" lon="5.26348">
        <ele>103.494489</ele>
        <time>2020-07-25T09:01:57.972Z</time>
      </trkpt>
      <trkpt lat="60.49286" lon="5.26335">
        <ele>103.835943</ele>
        <time>2020-07-25T09:02:00.964Z</time>
      </trkpt>
      <trkpt lat="60.49298" lon="5.26325">
        <ele>104.084212</ele>
        <time>2020-07-25T09:02:03.955Z</time>
      </trkpt>
      <trkpt lat="60.49306" lon="5.26318">
        <ele>104.256027</ele>
        <time>2020-07-25T09:02:05.994Z</time>
      </trkpt>
      <trkpt lat="60.49316" lon="5.26313">
        <ele>104.444727</ele>
        <time>2020-07-25T09:02:07.971Z</time>
      </trkpt>
      <trkpt lat="60.49327" lon="5.26308">
        <ele>104.656356</ele>
        <time>2020-07-25T09:02:10.960Z</time>
      </trkpt>
      <trkpt lat="60.49315" lon="5.26299">
        <ele>104.886806</ele>
        <time>2020-07-25T09:03:15.956Z</time>
      </trkpt>
      <trkpt lat="60.49305" lon="5.26303">
        <ele>105.085065</ele>
        <time>2020-07-25T09:03:20.003Z</time>
      </trkpt>
      <trkpt lat="60.49295" lon="5.26309">
        <ele>105.292779</ele>
        <time>2020-07-25T09:03:23.980Z</time>
      </trkpt>
      <trkpt lat="60.49285" lon="5.26306">
        <ele>105.479202</ele>
        <time>2020-07-25T09:03:27.967Z</time>
      </trkpt>
      <trkpt lat="60.49281" lon="5.26289">
        <ele>105.64977</ele>
        <time>2020-07-25T09:03:31.986Z</time>
      </trkpt>
      <trkpt lat="60.49288" lon="5.26272">
        <ele>105.85479</ele>
        <time>2020-07-25T09:03:35.972Z</time>
      </trkpt>
      <trkpt lat="60.49298" lon="5.26265">
        <ele>106.067163</ele>
        <time>2020-07-25T09:03:38.991Z</time>
      </trkpt>
      <trkpt lat="60.49312" lon="5.26265">
        <ele>106.322751</ele>
        <time>2020-07-25T09:03:41.967Z</time>
      </trkpt>
      <trkpt lat="60.49323" lon="5.26262">
        <ele>106.530316</ele>
        <time>2020-07-25T09:03:43.968Z</time>
      </trkpt>
      <trkpt lat="60.49333" lon="5.26258">
        <ele>106.7345</ele>
        <time>2020-07-25T09:03:46.001Z</time>
      </trkpt>
      <trkpt lat="60.49343" lon="5.26253">
        <ele>106.923869</ele>
        <time>2020-07-25T09:03:47.970Z</time>
      </trkpt>
      <trkpt lat="60.49354" lon="5.26248">
        <ele>107.126633</ele>
        <time>2020-07-25T09:03:50.010Z</time>
      </trkpt>
      <trkpt lat="60.49366" lon="5.26243">
        <ele>107.245513</ele>
        <time>2020-07-25T09:03:51.967Z</time>
      </trkpt>
      <trkpt lat="60.49379" lon="5.26241">
        <ele>107.373514</ele>
        <time>2020-07-25T09:03:53.970Z</time>
      </trkpt>
      <trkpt lat="60.49391" lon="5.26242">
        <ele>107.487581</ele>
        <time>2020-07-25T09:03:55.972Z</time>
      </trkpt>
      <trkpt lat="60.494" lon="5.26244">
        <ele>107.577704</ele>
        <time>2020-07-25T09:03:57.993Z</time>
      </trkpt>
      <trkpt lat="60.4941" lon="5.26248">
        <ele>107.675207</ele>
        <time>2020-07-25T09:04:01.992Z</time>
      </trkpt>
      <trkpt lat="60.49418" lon="5.26255">
        <ele>107.766202</ele>
        <time>2020-07-25T09:04:09.976Z</time>
      </trkpt>
      <trkpt lat="60.49428" lon="5.26258">
        <ele>107.863237</ele>
        <time>2020-07-25T09:04:16.967Z</time>
      </trkpt>
      <trkpt lat="60.49437" lon="5.26262">
        <ele>107.954728</ele>
        <time>2020-07-25T09:04:22.972Z</time>
      </trkpt>
      <trkpt lat="60.49447" lon="5.26266">
        <ele>108.047675</ele>
        <time>2020-07-25T09:04:28.964Z</time>
      </trkpt>
      <trkpt lat="60.49456" lon="5.26266">
        <ele>108.134362</ele>
        <time>2020-07-25T09:04:34.981Z</time>
      </trkpt>
      <trkpt lat="60.49465" lon="5.2626">
        <ele>108.230283</ele>
        <time>2020-07-25T09:04:40.998Z</time>
      </trkpt>
      <trkpt lat="60.49474" lon="5.26247">
        <ele>108.340196</ele>
        <time>2020-07-25T09:04:46.988Z</time>
      </trkpt>
      <trkpt lat="60.49483" lon="5.26235">
        <ele>108.440794</ele>
        <time>2020-07-25T09:04:51.964Z</time>
      </trkpt>
      <trkpt lat="60.4949" lon="5.26224">
        <ele>108.528721</ele>
        <time>2020-07-25T09:04:56.991Z</time>
      </trkpt>
      <trkpt lat="60.49499" lon="5.26213">
        <ele>108.634818</ele>
        <time>2020-07-25T09:05:02.992Z</time>
      </trkpt>
      <trkpt lat="60.4951" lon="5.26212">
        <ele>108.7429</ele>
        <time>2020-07-25T09:05:07.998Z</time>
      </trkpt>
      <trkpt lat="60.4952" lon="5.26222">
        <ele>108.847285</ele>
        <time>2020-07-25T09:05:11.975Z</time>
      </trkpt>
      <trkpt lat="60.49527" lon="5.26236">
        <ele>109.01089</ele>
        <time>2020-07-25T09:05:15.992Z</time>
      </trkpt>
      <trkpt lat="60.49535" lon="5.26253">
        <ele>109.224081</ele>
        <time>2020-07-25T09:05:19.966Z</time>
      </trkpt>
      <trkpt lat="60.49541" lon="5.26271">
        <ele>109.423543</ele>
        <time>2020-07-25T09:05:22.977Z</time>
      </trkpt>
      <trkpt lat="60.49547" lon="5.26293">
        <ele>109.655452</ele>
        <time>2020-07-25T09:05:25.967Z</time>
      </trkpt>
      <trkpt lat="60.49556" lon="5.2631">
        <ele>109.87955</ele>
        <time>2020-07-25T09:05:28.985Z</time>
      </trkpt>
      <trkpt lat="60.49566" lon="5.2632">
        <ele>110.099953</ele>
        <time>2020-07-25T09:05:31.972Z</time>
      </trkpt>
      <trkpt lat="60.49578" lon="5.26327">
        <ele>110.318305</ele>
        <time>2020-07-25T09:05:34.973Z</time>
      </trkpt>
      <trkpt lat="60.49589" lon="5.26331">
        <ele>110.535468</ele>
        <time>2020-07-25T09:05:37.966Z</time>
      </trkpt>
      <trkpt lat="60.496" lon="5.26333">
        <ele>110.746939</ele>
        <time>2020-07-25T09:05:40.972Z</time>
      </trkpt>
      <trkpt lat="60.49612" lon="5.26335">
        <ele>110.95963</ele>
        <time>2020-07-25T09:05:43.982Z</time>
      </trkpt>
      <trkpt lat="60.49621" lon="5.26334">
        <ele>111.138596</ele>
        <time>2020-07-25T09:05:46.975Z</time>
      </trkpt>
      <trkpt lat="60.49632" lon="5.26331">
        <ele>111.334242</ele>
        <time>2020-07-25T09:05:50.997Z</time>
      </trkpt>
      <trkpt lat="60.49642" lon="5.26328">
        <ele>111.523309</ele>
        <time>2020-07-25T09:05:54.976Z</time>
      </trkpt>
      <trkpt lat="60.49652" lon="5.26327">
        <ele>111.719051</ele>
        <time>2020-07-25T09:05:59.969Z</time>
      </trkpt>
      <trkpt lat="60.49662" lon="5.26324">
        <ele>111.896303</ele>
        <time>2020-07-25T09:06:04.981Z</time>
      </trkpt>
      <trkpt lat="60.49672" lon="5.26322">
        <ele>112.08917</ele>
        <time>2020-07-25T09:06:11.974Z</time>
      </trkpt>
      <trkpt lat="60.49683" lon="5.26325">
        <ele>112.492123</ele>
        <time>2020-07-25T09:06:17.983Z</time>
      </trkpt>
      <trkpt lat="60.49693" lon="5.26324">
        <ele>113.253963</ele>
        <time>2020-07-25T09:06:26.965Z</time>
      </trkpt>
      <trkpt lat="60.49704" lon="5.2632">
        <ele>114.06133</ele>
        <time>2020-07-25T09:06:29.980Z</time>
      </trkpt>
      <trkpt lat="60.49715" lon="5.26313">
        <ele>114.938662</ele>
        <time>2020-07-25T09:06:33.956Z</time>
      </trkpt>
      <trkpt lat="60.49725" lon="5.26306">
        <ele>115.72605</ele>
        <time>2020-07-25T09:06:37.971Z</time>
      </trkpt>
      <trkpt lat="60.49734" lon="5.26304">
        <ele>116.410647</ele>
        <time>2020-07-25T09:06:42.966Z</time>
      </trkpt>
      <trkpt lat="60.49744" lon="5.26304">
        <ele>117.140167</ele>
        <time>2020-07-25T09:06:47.983Z</time>
      </trkpt>
      <trkpt lat="60.49755" lon="5.263">
        <ele>117.974229</ele>
        <time>2020-07-25T09:06:53.048Z</time>
      </trkpt>
      <trkpt lat="60.49765" lon="5.26296">
        <ele>118.765029</ele>
        <time>2020-07-25T09:06:57.964Z</time>
      </trkpt>
      <trkpt lat="60.49776" lon="5.26294">
        <ele>119.593943</ele>
        <time>2020-07-25T09:07:02.008Z</time>
      </trkpt>
      <trkpt lat="60.49787" lon="5.26293">
        <ele>120.384673</ele>
        <time>2020-07-25T09:07:05.979Z</time>
      </trkpt>
      <trkpt lat="60.49798" lon="5.26294">
        <ele>121.233795</ele>
        <time>2020-07-25T09:07:09.975Z</time>
      </trkpt>
      <trkpt lat="60.4981" lon="5.26298">
        <ele>122.120227</ele>
        <time>2020-07-25T09:07:13.968Z</time>
      </trkpt>
      <trkpt lat="60.4982" lon="5.26302">
        <ele>122.851248</ele>
        <time>2020-07-25T09:07:16.998Z</time>
      </trkpt>
      <trkpt lat="60.49831" lon="5.26309">
        <ele>123.7225</ele>
        <time>2020-07-25T09:07:20.969Z</time>
      </trkpt>
      <trkpt lat="60.4984" lon="5.26318">
        <ele>124.503572</ele>
        <time>2020-07-25T09:07:23.977Z</time>
      </trkpt>
      <trkpt lat="60.49851" lon="5.26328">
        <ele>125.349891</ele>
        <time>2020-07-25T09:07:26.957Z</time>
      </trkpt>
      <trkpt lat="60.49862" lon="5.26338">
        <ele>125.424873</ele>
        <time>2020-07-25T09:07:29.985Z</time>
      </trkpt>
      <trkpt lat="60.49873" lon="5.26347">
        <ele>125.148477</ele>
        <time>2020-07-25T09:07:32.977Z</time>
      </trkpt>
      <trkpt lat="60.49884" lon="5.26357">
        <ele>124.890153</ele>
        <time>2020-07-25T09:07:35.975Z</time>
      </trkpt>
      <trkpt lat="60.49896" lon="5.26367">
        <ele>124.617544</ele>
        <time>2020-07-25T09:07:38.975Z</time>
      </trkpt>
      <trkpt lat="60.49904" lon="5.26373">
        <ele>124.421856</ele>
        <time>2020-07-25T09:07:41.963Z</time>
      </trkpt>
      <trkpt lat="60.49913" lon="5.2638">
        <ele>124.219503</ele>
        <time>2020-07-25T09:07:44.971Z</time>
      </trkpt>
      <trkpt lat="60.49924" lon="5.2639">
        <ele>123.959434</ele>
        <time>2020-07-25T09:07:49.018Z</time>
      </trkpt>
      <trkpt lat="60.49932" lon="5.26399">
        <ele>123.757172</ele>
        <time>2020-07-25T09:07:52.022Z</time>
      </trkpt>
      <trkpt lat="60.49944" lon="5.26406">
        <ele>123.492108</ele>
        <time>2020-07-25T09:07:54.985Z</time>
      </trkpt>
      <trkpt lat="60.49954" lon="5.2641">
        <ele>123.275129</ele>
        <time>2020-07-25T09:07:56.983Z</time>
      </trkpt>
      <trkpt lat="60.49964" lon="5.26414">
        <ele>123.055147</ele>
        <time>2020-07-25T09:07:59.063Z</time>
      </trkpt>
      <trkpt lat="60.49974" lon="5.26418">
        <ele>122.83488</ele>
        <time>2020-07-25T09:08:00.971Z</time>
      </trkpt>
      <trkpt lat="60.49985" lon="5.26421">
        <ele>122.593964</ele>
        <time>2020-07-25T09:08:02.967Z</time>
      </trkpt>
      <trkpt lat="60.49995" lon="5.26425">
        <ele>122.353901</ele>
        <time>2020-07-25T09:08:04.968Z</time>
      </trkpt>
      <trkpt lat="60.50005" lon="5.26426">
        <ele>122.144901</ele>
        <time>2020-07-25T09:08:06.963Z</time>
      </trkpt>
      <trkpt lat="60.50015" lon="5.26425">
        <ele>121.923058</ele>
        <time>2020-07-25T09:08:08.970Z</time>
      </trkpt>
      <trkpt lat="60.50025" lon="5.26425">
        <ele>121.712436</ele>
        <time>2020-07-25T09:08:10.987Z</time>
      </trkpt>
      <trkpt lat="60.50034" lon="5.26426">
        <ele>121.051234</ele>
        <time>2020-07-25T09:08:12.967Z</time>
      </trkpt>
      <trkpt lat="60.50045" lon="5.26424">
        <ele>120.237578</ele>
        <time>2020-07-25T09:08:14.963Z</time>
      </trkpt>
      <trkpt lat="60.50056" lon="5.26419">
        <ele>119.413614</ele>
        <time>2020-07-25T09:08:16.999Z</time>
      </trkpt>
      <trkpt lat="60.50066" lon="5.26411">
        <ele>118.558804</ele>
        <time>2020-07-25T09:08:18.985Z</time>
      </trkpt>
      <trkpt lat="60.50078" lon="5.26403">
        <ele>117.670866</ele>
        <time>2020-07-25T09:08:20.966Z</time>
      </trkpt>
      <trkpt lat="60.50089" lon="5.26397">
        <ele>116.759868</ele>
        <time>2020-07-25T09:08:22.989Z</time>
      </trkpt>
      <trkpt lat="60.50101" lon="5.26395">
        <ele>115.84972</ele>
        <time>2020-07-25T09:08:24.966Z</time>
      </trkpt>
      <trkpt lat="60.50114" lon="5.26393">
        <ele>114.933636</ele>
        <time>2020-07-25T09:08:26.971Z</time>
      </trkpt>
      <trkpt lat="60.50127" lon="5.26393">
        <ele>113.944959</ele>
        <time>2020-07-25T09:08:28.973Z</time>
      </trkpt>
      <trkpt lat="60.50141" lon="5.26391">
        <ele>112.857625</ele>
        <time>2020-07-25T09:08:30.977Z</time>
      </trkpt>
      <trkpt lat="60.50155" lon="5.2639">
        <ele>111.86771</ele>
        <time>2020-07-25T09:08:32.978Z</time>
      </trkpt>
      <trkpt lat="60.50168" lon="5.26389">
        <ele>110.833675</ele>
        <time>2020-07-25T09:08:34.983Z</time>
      </trkpt>
      <trkpt lat="60.50182" lon="5.26387">
        <ele>109.797545</ele>
        <time>2020-07-25T09:08:36.995Z</time>
      </trkpt>
      <trkpt lat="60.50198" lon="5.26386">
        <ele>108.636019</ele>
        <time>2020-07-25T09:08:38.987Z</time>
      </trkpt>
      <trkpt lat="60.50213" lon="5.26385">
        <ele>107.511856</ele>
        <time>2020-07-25T09:08:40.982Z</time>
      </trkpt>
      <trkpt lat="60.50227" lon="5.26384">
        <ele>106.413274</ele>
        <time>2020-07-25T09:08:42.969Z</time>
      </trkpt>
      <trkpt lat="60.5024" lon="5.26385">
        <ele>105.435795</ele>
        <time>2020-07-25T09:08:44.958Z</time>
      </trkpt>
      <trkpt lat="60.50253" lon="5.26385">
        <ele>104.451319</ele>
        <time>2020-07-25T09:08:46.977Z</time>
      </trkpt>
      <trkpt lat="60.50266" lon="5.26387">
        <ele>103.470325</ele>
        <time>2020-07-25T09:08:48.975Z</time>
      </trkpt>
      <trkpt lat="60.50279" lon="5.26393">
        <ele>102.465469</ele>
        <time>2020-07-25T09:08:50.977Z</time>
      </trkpt>
      <trkpt lat="60.50292" lon="5.264">
        <ele>101.457632</ele>
        <time>2020-07-25T09:08:52.994Z</time>
      </trkpt>
      <trkpt lat="60.50305" lon="5.2641">
        <ele>100.390731</ele>
        <time>2020-07-25T09:08:55.007Z</time>
      </trkpt>
      <trkpt lat="60.50318" lon="5.26422">
        <ele>99.304485</ele>
        <time>2020-07-25T09:08:57.004Z</time>
      </trkpt>
      <trkpt lat="60.50331" lon="5.26435">
        <ele>98.181902</ele>
        <time>2020-07-25T09:08:58.983Z</time>
      </trkpt>
      <trkpt lat="60.50343" lon="5.26451">
        <ele>97.153436</ele>
        <time>2020-07-25T09:09:01.010Z</time>
      </trkpt>
      <trkpt lat="60.50351" lon="5.26464">
        <ele>96.307739</ele>
        <time>2020-07-25T09:09:02.968Z</time>
      </trkpt>
      <trkpt lat="60.50361" lon="5.26479">
        <ele>95.413848</ele>
        <time>2020-07-25T09:09:04.954Z</time>
      </trkpt>
      <trkpt lat="60.50372" lon="5.26495">
        <ele>94.350773</ele>
        <time>2020-07-25T09:09:06.992Z</time>
      </trkpt>
      <trkpt lat="60.50385" lon="5.26511">
        <ele>92.922819</ele>
        <time>2020-07-25T09:09:08.970Z</time>
      </trkpt>
      <trkpt lat="60.50399" lon="5.26527">
        <ele>91.477641</ele>
        <time>2020-07-25T09:09:10.993Z</time>
      </trkpt>
      <trkpt lat="60.50413" lon="5.26539">
        <ele>90.051809</ele>
        <time>2020-07-25T09:09:12.985Z</time>
      </trkpt>
      <trkpt lat="60.50425" lon="5.26547">
        <ele>88.897631</ele>
        <time>2020-07-25T09:09:14.987Z</time>
      </trkpt>
      <trkpt lat="60.50436" lon="5.26556">
        <ele>87.843982</ele>
        <time>2020-07-25T09:09:16.988Z</time>
      </trkpt>
      <trkpt lat="60.50449" lon="5.26564">
        <ele>86.650907</ele>
        <time>2020-07-25T09:09:18.996Z</time>
      </trkpt>
      <trkpt lat="60.5046" lon="5.26571">
        <ele>85.536368</ele>
        <time>2020-07-25T09:09:21.006Z</time>
      </trkpt>
      <trkpt lat="60.50471" lon="5.2658">
        <ele>84.435351</ele>
        <time>2020-07-25T09:09:22.996Z</time>
      </trkpt>
      <trkpt lat="60.50484" lon="5.26595">
        <ele>83.130297</ele>
        <time>2020-07-25T09:09:25.000Z</time>
      </trkpt>
      <trkpt lat="60.50495" lon="5.2661">
        <ele>81.951139</ele>
        <time>2020-07-25T09:09:26.980Z</time>
      </trkpt>
      <trkpt lat="60.50501" lon="5.26623">
        <ele>81.121764</ele>
        <time>2020-07-25T09:09:28.985Z</time>
      </trkpt>
      <trkpt lat="60.50508" lon="5.26637">
        <ele>80.241054</ele>
        <time>2020-07-25T09:09:30.965Z</time>
      </trkpt>
      <trkpt lat="60.50517" lon="5.26652">
        <ele>79.179715</ele>
        <time>2020-07-25T09:09:32.984Z</time>
      </trkpt>
      <trkpt lat="60.50525" lon="5.26669">
        <ele>78.090103</ele>
        <time>2020-07-25T09:09:34.970Z</time>
      </trkpt>
      <trkpt lat="60.50536" lon="5.26687">
        <ele>77.192042</ele>
        <time>2020-07-25T09:09:37.005Z</time>
      </trkpt>
      <trkpt lat="60.50546" lon="5.26704">
        <ele>76.322614</ele>
        <time>2020-07-25T09:09:38.976Z</time>
      </trkpt>
      <trkpt lat="60.50557" lon="5.26718">
        <ele>75.489565</ele>
        <time>2020-07-25T09:09:40.968Z</time>
      </trkpt>
      <trkpt lat="60.50567" lon="5.26733">
        <ele>74.645569</ele>
        <time>2020-07-25T09:09:43.006Z</time>
      </trkpt>
      <trkpt lat="60.50577" lon="5.26744">
        <ele>73.902194</ele>
        <time>2020-07-25T09:09:44.992Z</time>
      </trkpt>
      <trkpt lat="60.50585" lon="5.26756">
        <ele>73.262672</ele>
        <time>2020-07-25T09:09:46.963Z</time>
      </trkpt>
      <trkpt lat="60.5059" lon="5.26772">
        <ele>72.63896</ele>
        <time>2020-07-25T09:09:48.964Z</time>
      </trkpt>
      <trkpt lat="60.50591" lon="5.26795">
        <ele>71.895581</ele>
        <time>2020-07-25T09:09:50.962Z</time>
      </trkpt>
      <trkpt lat="60.5059" lon="5.26818">
        <ele>71.154857</ele>
        <time>2020-07-25T09:09:52.979Z</time>
      </trkpt>
      <trkpt lat="60.50596" lon="5.2684">
        <ele>70.336997</ele>
        <time>2020-07-25T09:09:55.978Z</time>
      </trkpt>
      <trkpt lat="60.50604" lon="5.26852">
        <ele>69.671307</ele>
        <time>2020-07-25T09:09:58.991Z</time>
      </trkpt>
      <trkpt lat="60.50612" lon="5.26868">
        <ele>68.943132</ele>
        <time>2020-07-25T09:10:02.990Z</time>
      </trkpt>
      <trkpt lat="60.50617" lon="5.26884">
        <ele>68.308916</ele>
        <time>2020-07-25T09:10:06.972Z</time>
      </trkpt>
      <trkpt lat="60.50631" lon="5.26913">
        <ele>66.984366</ele>
        <time>2020-07-25T09:11:46.998Z</time>
      </trkpt>
      <trkpt lat="60.50639" lon="5.26929">
        <ele>66.544981</ele>
        <time>2020-07-25T09:11:50.976Z</time>
      </trkpt>
      <trkpt lat="60.50648" lon="5.26939">
        <ele>67.861703</ele>
        <time>2020-07-25T09:11:54.007Z</time>
      </trkpt>
      <trkpt lat="60.50657" lon="5.26949">
        <ele>69.163938</ele>
        <time>2020-07-25T09:11:57.995Z</time>
      </trkpt>
      <trkpt lat="60.50666" lon="5.26959">
        <ele>70.475651</ele>
        <time>2020-07-25T09:12:02.987Z</time>
      </trkpt>
      <trkpt lat="60.50673" lon="5.26971">
        <ele>71.733003</ele>
        <time>2020-07-25T09:12:08.003Z</time>
      </trkpt>
      <trkpt lat="60.50682" lon="5.2698">
        <ele>72.951409</ele>
        <time>2020-07-25T09:12:12.965Z</time>
      </trkpt>
      <trkpt lat="60.50688" lon="5.26994">
        <ele>74.142494</ele>
        <time>2020-07-25T09:12:18.992Z</time>
      </trkpt>
      <trkpt lat="60.50693" lon="5.2701">
        <ele>75.36542</ele>
        <time>2020-07-25T09:12:25.981Z</time>
      </trkpt>
      <trkpt lat="60.50699" lon="5.27025">
        <ele>76.604845</ele>
        <time>2020-07-25T09:12:32.969Z</time>
      </trkpt>
      <trkpt lat="60.50706" lon="5.27039">
        <ele>77.937722</ele>
        <time>2020-07-25T09:12:39.979Z</time>
      </trkpt>
      <trkpt lat="60.50713" lon="5.27054">
        <ele>79.215757</ele>
        <time>2020-07-25T09:12:46.987Z</time>
      </trkpt>
      <trkpt lat="60.50717" lon="5.27071">
        <ele>80.44109</ele>
        <time>2020-07-25T09:12:53.975Z</time>
      </trkpt>
      <trkpt lat="60.50721" lon="5.27088">
        <ele>81.659954</ele>
        <time>2020-07-25T09:12:59.961Z</time>
      </trkpt>
      <trkpt lat="60.50723" lon="5.27106">
        <ele>82.838225</ele>
        <time>2020-07-25T09:13:06.987Z</time>
      </trkpt>
      <trkpt lat="60.50725" lon="5.27124">
        <ele>84.039451</ele>
        <time>2020-07-25T09:13:13.975Z</time>
      </trkpt>
      <trkpt lat="60.50726" lon="5.27145">
        <ele>85.389211</ele>
        <time>2020-07-25T09:13:21.004Z</time>
      </trkpt>
      <trkpt lat="60.50727" lon="5.27165">
        <ele>86.630199</ele>
        <time>2020-07-25T09:13:26.962Z</time>
      </trkpt>
      <trkpt lat="60.50728" lon="5.27184">
        <ele>87.855192</ele>
        <time>2020-07-25T09:13:32.966Z</time>
      </trkpt>
      <trkpt lat="60.50729" lon="5.27204">
        <ele>89.133671</ele>
        <time>2020-07-25T09:13:39.981Z</time>
      </trkpt>
      <trkpt lat="60.50728" lon="5.27224">
        <ele>90.202658</ele>
        <time>2020-07-25T09:13:46.999Z</time>
      </trkpt>
      <trkpt lat="60.50728" lon="5.27244">
        <ele>90.992012</ele>
        <time>2020-07-25T09:13:53.969Z</time>
      </trkpt>
      <trkpt lat="60.50727" lon="5.27262">
        <ele>91.728316</ele>
        <time>2020-07-25T09:14:00.983Z</time>
      </trkpt>
      <trkpt lat="60.5073" lon="5.27281">
        <ele>92.49944</ele>
        <time>2020-07-25T09:14:07.995Z</time>
      </trkpt>
      <trkpt lat="60.50729" lon="5.27299">
        <ele>93.243774</ele>
        <time>2020-07-25T09:14:15.974Z</time>
      </trkpt>
      <trkpt lat="60.50731" lon="5.27317">
        <ele>93.976268</ele>
        <time>2020-07-25T09:14:23.004Z</time>
      </trkpt>
      <trkpt lat="60.50731" lon="5.27336">
        <ele>94.728323</ele>
        <time>2020-07-25T09:14:29.980Z</time>
      </trkpt>
      <trkpt lat="60.50732" lon="5.27354">
        <ele>95.46152</ele>
        <time>2020-07-25T09:14:35.965Z</time>
      </trkpt>
      <trkpt lat="60.50736" lon="5.27375">
        <ele>96.340419</ele>
        <time>2020-07-25T09:14:41.960Z</time>
      </trkpt>
      <trkpt lat="60.50741" lon="5.27392">
        <ele>97.154389</ele>
        <time>2020-07-25T09:14:47.978Z</time>
      </trkpt>
      <trkpt lat="60.50748" lon="5.27406">
        <ele>97.968173</ele>
        <time>2020-07-25T09:14:55.967Z</time>
      </trkpt>
      <trkpt lat="60.50757" lon="5.27414">
        <ele>98.794212</ele>
        <time>2020-07-25T09:15:04.010Z</time>
      </trkpt>
      <trkpt lat="60.50767" lon="5.27411">
        <ele>99.561819</ele>
        <time>2020-07-25T09:15:10.976Z</time>
      </trkpt>
      <trkpt lat="60.50776" lon="5.27407">
        <ele>100.342817</ele>
        <time>2020-07-25T09:15:18.004Z</time>
      </trkpt>
      <trkpt lat="60.50786" lon="5.27404">
        <ele>101.188088</ele>
        <time>2020-07-25T09:15:26.006Z</time>
      </trkpt>
      <trkpt lat="60.50797" lon="5.27401">
        <ele>102.033682</ele>
        <time>2020-07-25T09:15:34.039Z</time>
      </trkpt>
      <trkpt lat="60.50807" lon="5.27406">
        <ele>102.888532</ele>
        <time>2020-07-25T09:15:40.968Z</time>
      </trkpt>
      <trkpt lat="60.50816" lon="5.27416">
        <ele>103.715083</ele>
        <time>2020-07-25T09:15:47.979Z</time>
      </trkpt>
      <trkpt lat="60.50824" lon="5.27424">
        <ele>104.425997</ele>
        <time>2020-07-25T09:15:54.982Z</time>
      </trkpt>
      <trkpt lat="60.50834" lon="5.27431">
        <ele>104.459526</ele>
        <time>2020-07-25T09:16:00.985Z</time>
      </trkpt>
      <trkpt lat="60.50843" lon="5.27438">
        <ele>104.492061</ele>
        <time>2020-07-25T09:16:06.993Z</time>
      </trkpt>
      <trkpt lat="60.50852" lon="5.27443">
        <ele>104.523482</ele>
        <time>2020-07-25T09:16:14.955Z</time>
      </trkpt>
      <trkpt lat="60.50862" lon="5.27449">
        <ele>104.557504</ele>
        <time>2020-07-25T09:16:22.982Z</time>
      </trkpt>
      <trkpt lat="60.50871" lon="5.27453">
        <ele>104.587915</ele>
        <time>2020-07-25T09:16:30.017Z</time>
      </trkpt>
      <trkpt lat="60.50879" lon="5.27459">
        <ele>104.618644</ele>
        <time>2020-07-25T09:16:35.978Z</time>
      </trkpt>
      <trkpt lat="60.50889" lon="5.27461">
        <ele>104.651552</ele>
        <time>2020-07-25T09:16:40.980Z</time>
      </trkpt>
      <trkpt lat="60.509" lon="5.27468">
        <ele>104.69084</ele>
        <time>2020-07-25T09:16:44.983Z</time>
      </trkpt>
      <trkpt lat="60.50911" lon="5.27478">
        <ele>104.730219</ele>
        <time>2020-07-25T09:16:47.992Z</time>
      </trkpt>
      <trkpt lat="60.50922" lon="5.27484">
        <ele>104.766579</ele>
        <time>2020-07-25T09:16:49.986Z</time>
      </trkpt>
      <trkpt lat="60.50933" lon="5.2749">
        <ele>104.806248</ele>
        <time>2020-07-25T09:16:51.988Z</time>
      </trkpt>
      <trkpt lat="60.50946" lon="5.27502">
        <ele>104.852184</ele>
        <time>2020-07-25T09:16:53.968Z</time>
      </trkpt>
      <trkpt lat="60.5096" lon="5.27511">
        <ele>104.903669</ele>
        <time>2020-07-25T09:16:55.991Z</time>
      </trkpt>
      <trkpt lat="60.50977" lon="5.27514">
        <ele>104.957992</ele>
        <time>2020-07-25T09:16:58.003Z</time>
      </trkpt>
      <trkpt lat="60.50991" lon="5.27516">
        <ele>105.007164</ele>
        <time>2020-07-25T09:16:59.970Z</time>
      </trkpt>
      <trkpt lat="60.51001" lon="5.27519">
        <ele>105.100376</ele>
        <time>2020-07-25T09:17:01.973Z</time>
      </trkpt>
      <trkpt lat="60.51012" lon="5.2752">
        <ele>105.260688</ele>
        <time>2020-07-25T09:17:04.975Z</time>
      </trkpt>
      <trkpt lat="60.51023" lon="5.27523">
        <ele>105.42236</ele>
        <time>2020-07-25T09:17:07.967Z</time>
      </trkpt>
      <trkpt lat="60.51035" lon="5.27524">
        <ele>105.587315</ele>
        <time>2020-07-25T09:17:10.969Z</time>
      </trkpt>
      <trkpt lat="60.51045" lon="5.27526">
        <ele>105.73919</ele>
        <time>2020-07-25T09:17:13.976Z</time>
      </trkpt>
      <trkpt lat="60.51057" lon="5.27529">
        <ele>105.909026</ele>
        <time>2020-07-25T09:17:17.982Z</time>
      </trkpt>
      <trkpt lat="60.51068" lon="5.27531">
        <ele>106.079796</ele>
        <time>2020-07-25T09:17:21.973Z</time>
      </trkpt>
      <trkpt lat="60.51078" lon="5.27531">
        <ele>106.225465</ele>
        <time>2020-07-25T09:17:25.989Z</time>
      </trkpt>
      <trkpt lat="60.51089" lon="5.27535">
        <ele>106.382135</ele>
        <time>2020-07-25T09:17:30.968Z</time>
      </trkpt>
      <trkpt lat="60.51099" lon="5.27545">
        <ele>106.547741</ele>
        <time>2020-07-25T09:17:35.959Z</time>
      </trkpt>
      <trkpt lat="60.51109" lon="5.27553">
        <ele>106.705098</ele>
        <time>2020-07-25T09:17:39.975Z</time>
      </trkpt>
      <trkpt lat="60.51118" lon="5.27567">
        <ele>106.867216</ele>
        <time>2020-07-25T09:17:44.983Z</time>
      </trkpt>
      <trkpt lat="60.51125" lon="5.27578">
        <ele>107.0025</ele>
        <time>2020-07-25T09:17:48.973Z</time>
      </trkpt>
      <trkpt lat="60.51133" lon="5.27592">
        <ele>107.153026</ele>
        <time>2020-07-25T09:17:53.006Z</time>
      </trkpt>
      <trkpt lat="60.51141" lon="5.27605">
        <ele>107.305256</ele>
        <time>2020-07-25T09:17:57.011Z</time>
      </trkpt>
      <trkpt lat="60.51149" lon="5.27623">
        <ele>107.470832</ele>
        <time>2020-07-25T09:18:01.034Z</time>
      </trkpt>
      <trkpt lat="60.51155" lon="5.27636">
        <ele>107.608284</ele>
        <time>2020-07-25T09:18:03.983Z</time>
      </trkpt>
      <trkpt lat="60.51164" lon="5.27648">
        <ele>107.960456</ele>
        <time>2020-07-25T09:18:07.977Z</time>
      </trkpt>
      <trkpt lat="60.51173" lon="5.27657">
        <ele>108.377</ele>
        <time>2020-07-25T09:18:11.976Z</time>
      </trkpt>
      <trkpt lat="60.51184" lon="5.27666">
        <ele>108.838789</ele>
        <time>2020-07-25T09:18:15.993Z</time>
      </trkpt>
      <trkpt lat="60.51194" lon="5.27675">
        <ele>109.294514</ele>
        <time>2020-07-25T09:18:19.987Z</time>
      </trkpt>
      <trkpt lat="60.51203" lon="5.27683">
        <ele>109.675184</ele>
        <time>2020-07-25T09:18:22.977Z</time>
      </trkpt>
      <trkpt lat="60.51213" lon="5.27687">
        <ele>110.0753</ele>
        <time>2020-07-25T09:18:25.970Z</time>
      </trkpt>
      <trkpt lat="60.51224" lon="5.27697">
        <ele>110.577426</ele>
        <time>2020-07-25T09:18:28.973Z</time>
      </trkpt>
      <trkpt lat="60.51234" lon="5.27713">
        <ele>111.096533</ele>
        <time>2020-07-25T09:18:31.967Z</time>
      </trkpt>
      <trkpt lat="60.51241" lon="5.27729">
        <ele>111.504955</ele>
        <time>2020-07-25T09:18:34.968Z</time>
      </trkpt>
      <trkpt lat="60.51247" lon="5.27744">
        <ele>111.896019</ele>
        <time>2020-07-25T09:18:38.991Z</time>
      </trkpt>
      <trkpt lat="60.51253" lon="5.27761">
        <ele>112.313643</ele>
        <time>2020-07-25T09:18:43.969Z</time>
      </trkpt>
      <trkpt lat="60.51259" lon="5.27779">
        <ele>112.742197</ele>
        <time>2020-07-25T09:18:48.962Z</time>
      </trkpt>
      <trkpt lat="60.51264" lon="5.27798">
        <ele>113.185093</ele>
        <time>2020-07-25T09:18:52.972Z</time>
      </trkpt>
      <trkpt lat="60.51274" lon="5.27812">
        <ele>113.670506</ele>
        <time>2020-07-25T09:18:56.971Z</time>
      </trkpt>
      <trkpt lat="60.51285" lon="5.27826">
        <ele>114.186102</ele>
        <time>2020-07-25T09:18:59.985Z</time>
      </trkpt>
      <trkpt lat="60.51295" lon="5.27839">
        <ele>114.661776</ele>
        <time>2020-07-25T09:19:02.004Z</time>
      </trkpt>
      <trkpt lat="60.51309" lon="5.27853">
        <ele>114.704807</ele>
        <time>2020-07-25T09:19:04.035Z</time>
      </trkpt>
      <trkpt lat="60.51323" lon="5.27871">
        <ele>114.394353</ele>
        <time>2020-07-25T09:19:05.968Z</time>
      </trkpt>
      <trkpt lat="60.51336" lon="5.27893">
        <ele>114.088744</ele>
        <time>2020-07-25T09:19:07.971Z</time>
      </trkpt>
      <trkpt lat="60.51345" lon="5.27916">
        <ele>113.828262</ele>
        <time>2020-07-25T09:19:09.994Z</time>
      </trkpt>
      <trkpt lat="60.51352" lon="5.2794">
        <ele>113.578229</ele>
        <time>2020-07-25T09:19:11.993Z</time>
      </trkpt>
      <trkpt lat="60.51357" lon="5.27967">
        <ele>113.325868</ele>
        <time>2020-07-25T09:19:13.990Z</time>
      </trkpt>
      <trkpt lat="60.51362" lon="5.27993">
        <ele>113.071854</ele>
        <time>2020-07-25T09:19:15.967Z</time>
      </trkpt>
      <trkpt lat="60.5137" lon="5.28013">
        <ele>112.834411</ele>
        <time>2020-07-25T09:19:18.004Z</time>
      </trkpt>
      <trkpt lat="60.51382" lon="5.28024">
        <ele>112.607922</ele>
        <time>2020-07-25T09:19:19.980Z</time>
      </trkpt>
      <trkpt lat="60.51394" lon="5.28027">
        <ele>112.381376</ele>
        <time>2020-07-25T09:19:21.971Z</time>
      </trkpt>
      <trkpt lat="60.51405" lon="5.28029">
        <ele>112.179154</ele>
        <time>2020-07-25T09:19:24.007Z</time>
      </trkpt>
      <trkpt lat="60.51415" lon="5.28033">
        <ele>111.996211</ele>
        <time>2020-07-25T09:19:26.011Z</time>
      </trkpt>
      <trkpt lat="60.51425" lon="5.28037">
        <ele>111.80581</ele>
        <time>2020-07-25T09:19:27.967Z</time>
      </trkpt>
      <trkpt lat="60.51436" lon="5.28043">
        <ele>111.569251</ele>
        <time>2020-07-25T09:19:29.962Z</time>
      </trkpt>
      <trkpt lat="60.51446" lon="5.28047">
        <ele>110.468312</ele>
        <time>2020-07-25T09:19:31.973Z</time>
      </trkpt>
      <trkpt lat="60.51456" lon="5.28054">
        <ele>109.406176</ele>
        <time>2020-07-25T09:19:33.970Z</time>
      </trkpt>
      <trkpt lat="60.51467" lon="5.28061">
        <ele>108.227045</ele>
        <time>2020-07-25T09:19:35.995Z</time>
      </trkpt>
      <trkpt lat="60.51479" lon="5.28069">
        <ele>106.890128</ele>
        <time>2020-07-25T09:19:37.974Z</time>
      </trkpt>
      <trkpt lat="60.5149" lon="5.28079">
        <ele>105.66987</ele>
        <time>2020-07-25T09:19:39.980Z</time>
      </trkpt>
      <trkpt lat="60.515" lon="5.28092">
        <ele>104.474051</ele>
        <time>2020-07-25T09:19:41.990Z</time>
      </trkpt>
      <trkpt lat="60.51508" lon="5.28109">
        <ele>103.257911</ele>
        <time>2020-07-25T09:19:43.957Z</time>
      </trkpt>
      <trkpt lat="60.51514" lon="5.28132">
        <ele>101.976566</ele>
        <time>2020-07-25T09:19:45.989Z</time>
      </trkpt>
      <trkpt lat="60.51518" lon="5.28158">
        <ele>100.57407</ele>
        <time>2020-07-25T09:19:47.968Z</time>
      </trkpt>
      <trkpt lat="60.51523" lon="5.28183">
        <ele>99.183246</ele>
        <time>2020-07-25T09:19:50.003Z</time>
      </trkpt>
      <trkpt lat="60.51529" lon="5.28205">
        <ele>97.923532</ele>
        <time>2020-07-25T09:19:51.987Z</time>
      </trkpt>
      <trkpt lat="60.51536" lon="5.2822">
        <ele>96.936571</ele>
        <time>2020-07-25T09:19:53.972Z</time>
      </trkpt>
      <trkpt lat="60.51542" lon="5.28233">
        <ele>95.983812</ele>
        <time>2020-07-25T09:19:55.994Z</time>
      </trkpt>
      <trkpt lat="60.51551" lon="5.28246">
        <ele>94.886248</ele>
        <time>2020-07-25T09:19:57.984Z</time>
      </trkpt>
      <trkpt lat="60.5156" lon="5.28254">
        <ele>93.870173</ele>
        <time>2020-07-25T09:19:59.980Z</time>
      </trkpt>
      <trkpt lat="60.5157" lon="5.28255">
        <ele>92.863683</ele>
        <time>2020-07-25T09:20:01.976Z</time>
      </trkpt>
      <trkpt lat="60.51582" lon="5.28254">
        <ele>91.864722</ele>
        <time>2020-07-25T09:20:04.000Z</time>
      </trkpt>
      <trkpt lat="60.51592" lon="5.28251">
        <ele>90.98476</ele>
        <time>2020-07-25T09:20:05.963Z</time>
      </trkpt>
      <trkpt lat="60.51603" lon="5.28252">
        <ele>90.045456</ele>
        <time>2020-07-25T09:20:09.012Z</time>
      </trkpt>
      <trkpt lat="60.5161" lon="5.2827">
        <ele>89.097784</ele>
        <time>2020-07-25T09:20:12.970Z</time>
      </trkpt>
      <trkpt lat="60.51607" lon="5.28289">
        <ele>88.300983</ele>
        <time>2020-07-25T09:20:15.974Z</time>
      </trkpt>
      <trkpt lat="60.51603" lon="5.28307">
        <ele>87.427107</ele>
        <time>2020-07-25T09:20:19.004Z</time>
      </trkpt>
      <trkpt lat="60.51603" lon="5.28327">
        <ele>86.621604</ele>
        <time>2020-07-25T09:20:24.021Z</time>
      </trkpt>
      <trkpt lat="60.51613" lon="5.28331">
        <ele>85.812145</ele>
        <time>2020-07-25T09:20:27.974Z</time>
      </trkpt>
      <trkpt lat="60.51618" lon="5.28314">
        <ele>84.950291</ele>
        <time>2020-07-25T09:20:33.960Z</time>
      </trkpt>
      <trkpt lat="60.51624" lon="5.28297">
        <ele>84.079574</ele>
        <time>2020-07-25T09:20:39.972Z</time>
      </trkpt>
      <trkpt lat="60.51629" lon="5.28279">
        <ele>83.19644</ele>
        <time>2020-07-25T09:20:46.012Z</time>
      </trkpt>
      <trkpt lat="60.51643" lon="5.28274">
        <ele>82.049173</ele>
        <time>2020-07-25T09:22:29.986Z</time>
      </trkpt>
      <trkpt lat="60.51641" lon="5.28295">
        <ele>81.174021</ele>
        <time>2020-07-25T09:22:33.987Z</time>
      </trkpt>
      <trkpt lat="60.51634" lon="5.28311">
        <ele>80.32765</ele>
        <time>2020-07-25T09:22:36.987Z</time>
      </trkpt>
      <trkpt lat="60.51636" lon="5.28332">
        <ele>79.419394</ele>
        <time>2020-07-25T09:22:40.971Z</time>
      </trkpt>
      <trkpt lat="60.51645" lon="5.28344">
        <ele>78.52543</ele>
        <time>2020-07-25T09:22:43.978Z</time>
      </trkpt>
      <trkpt lat="60.51654" lon="5.28359">
        <ele>77.64656</ele>
        <time>2020-07-25T09:22:45.971Z</time>
      </trkpt>
      <trkpt lat="60.51651" lon="5.28377">
        <ele>77.056992</ele>
        <time>2020-07-25T09:22:48.977Z</time>
      </trkpt>
      <trkpt lat="60.51655" lon="5.28402">
        <ele>76.243011</ele>
        <time>2020-07-25T09:22:52.959Z</time>
      </trkpt>
      <trkpt lat="60.51658" lon="5.28425">
        <ele>75.499177</ele>
        <time>2020-07-25T09:22:55.973Z</time>
      </trkpt>
      <trkpt lat="60.51668" lon="5.28419">
        <ele>74.808454</ele>
        <time>2020-07-25T09:23:00.987Z</time>
      </trkpt>
      <trkpt lat="60.51672" lon="5.28401">
        <ele>74.203775</ele>
        <time>2020-07-25T09:23:03.007Z</time>
      </trkpt>
      <trkpt lat="60.51678" lon="5.28387">
        <ele>73.630414</ele>
        <time>2020-07-25T09:23:04.995Z</time>
      </trkpt>
      <trkpt lat="60.51688" lon="5.28373">
        <ele>72.855312</ele>
        <time>2020-07-25T09:23:06.974Z</time>
      </trkpt>
      <trkpt lat="60.51696" lon="5.28363">
        <ele>72.283116</ele>
        <time>2020-07-25T09:23:08.016Z</time>
      </trkpt>
      <trkpt lat="60.51704" lon="5.28351">
        <ele>71.619962</ele>
        <time>2020-07-25T09:23:08.982Z</time>
      </trkpt>
      <trkpt lat="60.51713" lon="5.28337">
        <ele>70.913338</ele>
        <time>2020-07-25T09:23:09.961Z</time>
      </trkpt>
      <trkpt lat="60.51721" lon="5.28321">
        <ele>70.19189</ele>
        <time>2020-07-25T09:23:10.984Z</time>
      </trkpt>
      <trkpt lat="60.51728" lon="5.28304">
        <ele>69.505965</ele>
        <time>2020-07-25T09:23:12.020Z</time>
      </trkpt>
      <trkpt lat="60.51734" lon="5.28286">
        <ele>68.836384</ele>
        <time>2020-07-25T09:23:13.011Z</time>
      </trkpt>
      <trkpt lat="60.5174" lon="5.28269">
        <ele>68.181145</ele>
        <time>2020-07-25T09:23:13.985Z</time>
      </trkpt>
      <trkpt lat="60.51746" lon="5.28254">
        <ele>67.562785</ele>
        <time>2020-07-25T09:23:14.978Z</time>
      </trkpt>
      <trkpt lat="60.51753" lon="5.2824">
        <ele>66.955746</ele>
        <time>2020-07-25T09:23:15.984Z</time>
      </trkpt>
      <trkpt lat="60.51759" lon="5.28227">
        <ele>66.523494</ele>
        <time>2020-07-25T09:23:16.976Z</time>
      </trkpt>
      <trkpt lat="60.5177" lon="5.28202">
        <ele>66.682081</ele>
        <time>2020-07-25T09:23:18.976Z</time>
      </trkpt>
      <trkpt lat="60.51781" lon="5.28177">
        <ele>66.835786</ele>
        <time>2020-07-25T09:23:20.990Z</time>
      </trkpt>
      <trkpt lat="60.51791" lon="5.28151">
        <ele>66.994583</ele>
        <time>2020-07-25T09:23:23.003Z</time>
      </trkpt>
      <trkpt lat="60.518" lon="5.28128">
        <ele>67.132621</ele>
        <time>2020-07-25T09:23:24.968Z</time>
      </trkpt>
      <trkpt lat="60.51806" lon="5.28106">
        <ele>67.252848</ele>
        <time>2020-07-25T09:23:26.972Z</time>
      </trkpt>
      <trkpt lat="60.51811" lon="5.28087">
        <ele>67.351969</ele>
        <time>2020-07-25T09:23:28.979Z</time>
      </trkpt>
      <trkpt lat="60.51815" lon="5.28068">
        <ele>67.452811</ele>
        <time>2020-07-25T09:23:31.971Z</time>
      </trkpt>
      <trkpt lat="60.51817" lon="5.28049">
        <ele>67.546482</ele>
        <time>2020-07-25T09:23:36.962Z</time>
      </trkpt>
      <trkpt lat="60.5182" lon="5.28029">
        <ele>67.64313</ele>
        <time>2020-07-25T09:23:42.993Z</time>
      </trkpt>
      <trkpt lat="60.51823" lon="5.28009">
        <ele>67.742353</ele>
        <time>2020-07-25T09:23:50.002Z</time>
      </trkpt>
      <trkpt lat="60.51829" lon="5.27993">
        <ele>67.836737</ele>
        <time>2020-07-25T09:23:56.972Z</time>
      </trkpt>
      <trkpt lat="60.51835" lon="5.27978">
        <ele>67.927746</ele>
        <time>2020-07-25T09:24:03.986Z</time>
      </trkpt>
      <trkpt lat="60.51841" lon="5.27962">
        <ele>68.025521</ele>
        <time>2020-07-25T09:24:11.004Z</time>
      </trkpt>
      <trkpt lat="60.51846" lon="5.27943">
        <ele>68.125103</ele>
        <time>2020-07-25T09:24:17.959Z</time>
      </trkpt>
      <trkpt lat="60.5185" lon="5.27924">
        <ele>68.223788</ele>
        <time>2020-07-25T09:24:24.975Z</time>
      </trkpt>
      <trkpt lat="60.51854" lon="5.27906">
        <ele>68.225439</ele>
        <time>2020-07-25T09:24:31.972Z</time>
      </trkpt>
      <trkpt lat="60.51858" lon="5.27888">
        <ele>68.212176</ele>
        <time>2020-07-25T09:24:37.968Z</time>
      </trkpt>
      <trkpt lat="60.51861" lon="5.27867">
        <ele>68.197711</ele>
        <time>2020-07-25T09:24:43.968Z</time>
      </trkpt>
      <trkpt lat="60.51864" lon="5.27845">
        <ele>68.182129</ele>
        <time>2020-07-25T09:24:48.977Z</time>
      </trkpt>
      <trkpt lat="60.51867" lon="5.27823">
        <ele>68.166175</ele>
        <time>2020-07-25T09:24:52.970Z</time>
      </trkpt>
      <trkpt lat="60.51872" lon="5.27804">
        <ele>68.15124</ele>
        <time>2020-07-25T09:24:55.984Z</time>
      </trkpt>
      <trkpt lat="60.51879" lon="5.27782">
        <ele>68.134113</ele>
        <time>2020-07-25T09:24:59.008Z</time>
      </trkpt>
      <trkpt lat="60.51884" lon="5.27766">
        <ele>68.121111</ele>
        <time>2020-07-25T09:25:01.003Z</time>
      </trkpt>
      <trkpt lat="60.5189" lon="5.27751">
        <ele>68.10838</ele>
        <time>2020-07-25T09:25:02.985Z</time>
      </trkpt>
      <trkpt lat="60.51895" lon="5.27735">
        <ele>68.095134</ele>
        <time>2020-07-25T09:25:04.986Z</time>
      </trkpt>
      <trkpt lat="60.51901" lon="5.27721">
        <ele>68.082403</ele>
        <time>2020-07-25T09:25:06.954Z</time>
      </trkpt>
      <trkpt lat="60.51907" lon="5.27705">
        <ele>68.068797</ele>
        <time>2020-07-25T09:25:09.019Z</time>
      </trkpt>
      <trkpt lat="60.51915" lon="5.27687">
        <ele>68.052559</ele>
        <time>2020-07-25T09:25:10.965Z</time>
      </trkpt>
      <trkpt lat="60.51923" lon="5.27666">
        <ele>68.034364</ele>
        <time>2020-07-25T09:25:12.974Z</time>
      </trkpt>
      <trkpt lat="60.51932" lon="5.27644">
        <ele>68.015226</ele>
        <time>2020-07-25T09:25:14.994Z</time>
      </trkpt>
      <trkpt lat="60.51938" lon="5.27624">
        <ele>67.999882</ele>
        <time>2020-07-25T09:25:17.001Z</time>
      </trkpt>
      <trkpt lat="60.51939" lon="5.27606">
        <ele>68.074866</ele>
        <time>2020-07-25T09:25:18.973Z</time>
      </trkpt>
      <trkpt lat="60.51939" lon="5.2758">
        <ele>68.709396</ele>
        <time>2020-07-25T09:25:21.970Z</time>
      </trkpt>
      <trkpt lat="60.51936" lon="5.2756">
        <ele>69.237283</ele>
        <time>2020-07-25T09:25:25.990Z</time>
      </trkpt>
      <trkpt lat="60.51928" lon="5.2755">
        <ele>69.704385</ele>
        <time>2020-07-25T09:25:29.986Z</time>
      </trkpt>
      <trkpt lat="60.51918" lon="5.2756">
        <ele>70.266384</ele>
        <time>2020-07-25T09:25:33.972Z</time>
      </trkpt>
      <trkpt lat="60.51911" lon="5.2757">
        <ele>70.718052</ele>
        <time>2020-07-25T09:25:39.972Z</time>
      </trkpt>
      <trkpt lat="60.51903" lon="5.27579">
        <ele>71.187077</ele>
        <time>2020-07-25T09:25:46.013Z</time>
      </trkpt>
      <trkpt lat="60.51897" lon="5.27595">
        <ele>71.690214</ele>
        <time>2020-07-25T09:25:53.028Z</time>
      </trkpt>
      <trkpt lat="60.51893" lon="5.27615">
        <ele>72.208948</ele>
        <time>2020-07-25T09:25:59.996Z</time>
      </trkpt>
      <trkpt lat="60.51898" lon="5.27631">
        <ele>72.67693</ele>
        <time>2020-07-25T09:26:06.971Z</time>
      </trkpt>
      <trkpt lat="60.51907" lon="5.27623">
        <ele>73.162101</ele>
        <time>2020-07-25T09:26:13.984Z</time>
      </trkpt>
      <trkpt lat="60.51913" lon="5.27607">
        <ele>73.635371</ele>
        <time>2020-07-25T09:26:19.976Z</time>
      </trkpt>
      <trkpt lat="60.51918" lon="5.27591">
        <ele>74.134658</ele>
        <time>2020-07-25T09:26:25.004Z</time>
      </trkpt>
      <trkpt lat="60.51924" lon="5.27573">
        <ele>74.649463</ele>
        <time>2020-07-25T09:26:28.992Z</time>
      </trkpt>
      <trkpt lat="60.51928" lon="5.27555">
        <ele>75.141681</ele>
        <time>2020-07-25T09:26:32.998Z</time>
      </trkpt>
      <trkpt lat="60.51933" lon="5.27539">
        <ele>75.623704</ele>
        <time>2020-07-25T09:26:36.976Z</time>
      </trkpt>
      <trkpt lat="60.51938" lon="5.27523">
        <ele>76.077198</ele>
        <time>2020-07-25T09:26:40.988Z</time>
      </trkpt>
      <trkpt lat="60.51943" lon="5.27507">
        <ele>76.529304</ele>
        <time>2020-07-25T09:26:44.985Z</time>
      </trkpt>
      <trkpt lat="60.51948" lon="5.27493">
        <ele>76.986995</ele>
        <time>2020-07-25T09:26:48.990Z</time>
      </trkpt>
      <trkpt lat="60.51953" lon="5.27478">
        <ele>77.21719</ele>
        <time>2020-07-25T09:26:52.980Z</time>
      </trkpt>
      <trkpt lat="60.51959" lon="5.27463">
        <ele>77.417005</ele>
        <time>2020-07-25T09:26:57.010Z</time>
      </trkpt>
      <trkpt lat="60.51965" lon="5.27448">
        <ele>77.627132</ele>
        <time>2020-07-25T09:27:00.988Z</time>
      </trkpt>
      <trkpt lat="60.51971" lon="5.2743">
        <ele>77.856839</ele>
        <time>2020-07-25T09:27:05.980Z</time>
      </trkpt>
      <trkpt lat="60.51977" lon="5.27412">
        <ele>78.088874</ele>
        <time>2020-07-25T09:27:10.992Z</time>
      </trkpt>
      <trkpt lat="60.51983" lon="5.27397">
        <ele>78.29591</ele>
        <time>2020-07-25T09:27:14.972Z</time>
      </trkpt>
      <trkpt lat="60.51989" lon="5.27379">
        <ele>78.528328</ele>
        <time>2020-07-25T09:27:19.961Z</time>
      </trkpt>
      <trkpt lat="60.51996" lon="5.27363">
        <ele>78.764702</ele>
        <time>2020-07-25T09:27:24.975Z</time>
      </trkpt>
      <trkpt lat="60.52002" lon="5.27346">
        <ele>78.988077</ele>
        <time>2020-07-25T09:27:29.976Z</time>
      </trkpt>
      <trkpt lat="60.52007" lon="5.27329">
        <ele>79.203853</ele>
        <time>2020-07-25T09:27:33.986Z</time>
      </trkpt>
      <trkpt lat="60.52015" lon="5.27309">
        <ele>79.467418</ele>
        <time>2020-07-25T09:27:38.000Z</time>
      </trkpt>
      <trkpt lat="60.5202" lon="5.27294">
        <ele>79.667965</ele>
        <time>2020-07-25T09:27:41.002Z</time>
      </trkpt>
      <trkpt lat="60.52025" lon="5.27278">
        <ele>79.869071</ele>
        <time>2020-07-25T09:27:43.966Z</time>
      </trkpt>
      <trkpt lat="60.52031" lon="5.27263">
        <ele>80.076413</ele>
        <time>2020-07-25T09:27:46.984Z</time>
      </trkpt>
      <trkpt lat="60.52037" lon="5.27247">
        <ele>80.29327</ele>
        <time>2020-07-25T09:27:49.963Z</time>
      </trkpt>
      <trkpt lat="60.52043" lon="5.27231">
        <ele>80.510601</ele>
        <time>2020-07-25T09:27:52.964Z</time>
      </trkpt>
      <trkpt lat="60.52048" lon="5.27214">
        <ele>80.731842</ele>
        <time>2020-07-25T09:27:55.995Z</time>
      </trkpt>
      <trkpt lat="60.52055" lon="5.27197">
        <ele>80.954301</ele>
        <time>2020-07-25T09:27:59.002Z</time>
      </trkpt>
      <trkpt lat="60.52061" lon="5.2718">
        <ele>80.351502</ele>
        <time>2020-07-25T09:28:01.977Z</time>
      </trkpt>
      <trkpt lat="60.52067" lon="5.27161">
        <ele>79.703024</ele>
        <time>2020-07-25T09:28:04.991Z</time>
      </trkpt>
      <trkpt lat="60.52074" lon="5.27142">
        <ele>79.013299</ele>
        <time>2020-07-25T09:28:07.994Z</time>
      </trkpt>
      <trkpt lat="60.52081" lon="5.27123">
        <ele>78.302404</ele>
        <time>2020-07-25T09:28:10.995Z</time>
      </trkpt>
      <trkpt lat="60.52088" lon="5.27102">
        <ele>77.526435</ele>
        <time>2020-07-25T09:28:13.981Z</time>
      </trkpt>
      <trkpt lat="60.52095" lon="5.27087">
        <ele>76.951102</ele>
        <time>2020-07-25T09:28:15.982Z</time>
      </trkpt>
      <trkpt lat="60.52101" lon="5.2707">
        <ele>76.342063</ele>
        <time>2020-07-25T09:28:17.978Z</time>
      </trkpt>
      <trkpt lat="60.52107" lon="5.27053">
        <ele>75.707029</ele>
        <time>2020-07-25T09:28:19.982Z</time>
      </trkpt>
      <trkpt lat="60.52113" lon="5.27034">
        <ele>75.033815</ele>
        <time>2020-07-25T09:28:22.027Z</time>
      </trkpt>
      <trkpt lat="60.5212" lon="5.27014">
        <ele>74.315495</ele>
        <time>2020-07-25T09:28:23.993Z</time>
      </trkpt>
      <trkpt lat="60.52128" lon="5.26992">
        <ele>73.540689</ele>
        <time>2020-07-25T09:28:25.975Z</time>
      </trkpt>
      <trkpt lat="60.52136" lon="5.26971">
        <ele>72.752857</ele>
        <time>2020-07-25T09:28:27.964Z</time>
      </trkpt>
      <trkpt lat="60.52143" lon="5.26951">
        <ele>72.003639</ele>
        <time>2020-07-25T09:28:29.979Z</time>
      </trkpt>
      <trkpt lat="60.52151" lon="5.26932">
        <ele>71.265002</ele>
        <time>2020-07-25T09:28:31.992Z</time>
      </trkpt>
      <trkpt lat="60.5216" lon="5.26911">
        <ele>70.452823</ele>
        <time>2020-07-25T09:28:33.958Z</time>
      </trkpt>
      <trkpt lat="60.52169" lon="5.26887">
        <ele>69.396358</ele>
        <time>2020-07-25T09:28:35.980Z</time>
      </trkpt>
      <trkpt lat="60.52179" lon="5.26863">
        <ele>68.181931</ele>
        <time>2020-07-25T09:28:37.979Z</time>
      </trkpt>
      <trkpt lat="60.5219" lon="5.26837">
        <ele>66.918544</ele>
        <time>2020-07-25T09:28:39.978Z</time>
      </trkpt>
      <trkpt lat="60.52201" lon="5.26811">
        <ele>65.594772</ele>
        <time>2020-07-25T09:28:42.002Z</time>
      </trkpt>
      <trkpt lat="60.52212" lon="5.26786">
        <ele>64.305604</ele>
        <time>2020-07-25T09:28:43.994Z</time>
      </trkpt>
      <trkpt lat="60.52223" lon="5.26759">
        <ele>62.973887</ele>
        <time>2020-07-25T09:28:45.964Z</time>
      </trkpt>
      <trkpt lat="60.52235" lon="5.26732">
        <ele>61.602298</ele>
        <time>2020-07-25T09:28:47.967Z</time>
      </trkpt>
      <trkpt lat="60.52247" lon="5.26706">
        <ele>60.244758</ele>
        <time>2020-07-25T09:28:50.002Z</time>
      </trkpt>
      <trkpt lat="60.52258" lon="5.26683">
        <ele>59.022988</ele>
        <time>2020-07-25T09:28:51.971Z</time>
      </trkpt>
      <trkpt lat="60.52268" lon="5.26662">
        <ele>57.934141</ele>
        <time>2020-07-25T09:28:53.979Z</time>
      </trkpt>
      <trkpt lat="60.52278" lon="5.2664">
        <ele>56.78308</ele>
        <time>2020-07-25T09:28:55.970Z</time>
      </trkpt>
      <trkpt lat="60.52289" lon="5.26618">
        <ele>56.107255</ele>
        <time>2020-07-25T09:28:57.964Z</time>
      </trkpt>
      <trkpt lat="60.52301" lon="5.26595">
        <ele>55.7512</ele>
        <time>2020-07-25T09:28:59.975Z</time>
      </trkpt>
      <trkpt lat="60.52312" lon="5.26574">
        <ele>55.415163</ele>
        <time>2020-07-25T09:29:01.955Z</time>
      </trkpt>
      <trkpt lat="60.52322" lon="5.26554">
        <ele>55.10476</ele>
        <time>2020-07-25T09:29:04.023Z</time>
      </trkpt>
      <trkpt lat="60.52333" lon="5.26534">
        <ele>54.784032</ele>
        <time>2020-07-25T09:29:06.002Z</time>
      </trkpt>
      <trkpt lat="60.52344" lon="5.26514">
        <ele>54.45277</ele>
        <time>2020-07-25T09:29:07.972Z</time>
      </trkpt>
      <trkpt lat="60.52355" lon="5.26494">
        <ele>54.1291</ele>
        <time>2020-07-25T09:29:09.984Z</time>
      </trkpt>
      <trkpt lat="60.52365" lon="5.26477">
        <ele>53.836347</ele>
        <time>2020-07-25T09:29:12.004Z</time>
      </trkpt>
      <trkpt lat="60.52375" lon="5.26461">
        <ele>53.557765</ele>
        <time>2020-07-25T09:29:13.981Z</time>
      </trkpt>
      <trkpt lat="60.52385" lon="5.26447">
        <ele>53.299755</ele>
        <time>2020-07-25T09:29:15.982Z</time>
      </trkpt>
      <trkpt lat="60.52394" lon="5.26433">
        <ele>53.050693</ele>
        <time>2020-07-25T09:29:17.974Z</time>
      </trkpt>
      <trkpt lat="60.52402" lon="5.26418">
        <ele>52.80473</ele>
        <time>2020-07-25T09:29:19.980Z</time>
      </trkpt>
      <trkpt lat="60.5241" lon="5.26404">
        <ele>52.567997</ele>
        <time>2020-07-25T09:29:21.975Z</time>
      </trkpt>
      <trkpt lat="60.52419" lon="5.26391">
        <ele>52.375931</ele>
        <time>2020-07-25T09:29:23.967Z</time>
      </trkpt>
      <trkpt lat="60.52428" lon="5.26377">
        <ele>52.600423</ele>
        <time>2020-07-25T09:29:25.980Z</time>
      </trkpt>
      <trkpt lat="60.52436" lon="5.26364">
        <ele>52.814677</ele>
        <time>2020-07-25T09:29:28.004Z</time>
      </trkpt>
      <trkpt lat="60.52444" lon="5.26353">
        <ele>53.022776</ele>
        <time>2020-07-25T09:29:29.991Z</time>
      </trkpt>
      <trkpt lat="60.52452" lon="5.2634">
        <ele>53.236069</ele>
        <time>2020-07-25T09:29:31.983Z</time>
      </trkpt>
      <trkpt lat="60.52461" lon="5.26328">
        <ele>53.445915</ele>
        <time>2020-07-25T09:29:33.966Z</time>
      </trkpt>
      <trkpt lat="60.52469" lon="5.26316">
        <ele>53.662564</ele>
        <time>2020-07-25T09:29:35.960Z</time>
      </trkpt>
      <trkpt lat="60.52478" lon="5.26304">
        <ele>53.877476</ele>
        <time>2020-07-25T09:29:38.000Z</time>
      </trkpt>
      <trkpt lat="60.52486" lon="5.26292">
        <ele>54.085574</ele>
        <time>2020-07-25T09:29:39.969Z</time>
      </trkpt>
      <trkpt lat="60.52494" lon="5.26281">
        <ele>54.286283</ele>
        <time>2020-07-25T09:29:41.973Z</time>
      </trkpt>
      <trkpt lat="60.52503" lon="5.2627">
        <ele>54.49498</ele>
        <time>2020-07-25T09:29:43.992Z</time>
      </trkpt>
      <trkpt lat="60.52511" lon="5.26259">
        <ele>54.704321</ele>
        <time>2020-07-25T09:29:45.981Z</time>
      </trkpt>
      <trkpt lat="60.5252" lon="5.26248">
        <ele>54.909095</ele>
        <time>2020-07-25T09:29:47.991Z</time>
      </trkpt>
      <trkpt lat="60.52528" lon="5.26237">
        <ele>55.1132</ele>
        <time>2020-07-25T09:29:49.975Z</time>
      </trkpt>
      <trkpt lat="60.52536" lon="5.26225">
        <ele>55.324129</ele>
        <time>2020-07-25T09:29:51.963Z</time>
      </trkpt>
      <trkpt lat="60.52545" lon="5.26214">
        <ele>55.527165</ele>
        <time>2020-07-25T09:29:53.974Z</time>
      </trkpt>
      <trkpt lat="60.52553" lon="5.26204">
        <ele>55.735619</ele>
        <time>2020-07-25T09:29:55.987Z</time>
      </trkpt>
      <trkpt lat="60.52562" lon="5.26193">
        <ele>55.943355</ele>
        <time>2020-07-25T09:29:58.015Z</time>
      </trkpt>
      <trkpt lat="60.52571" lon="5.26182">
        <ele>56.154401</ele>
        <time>2020-07-25T09:29:59.976Z</time>
      </trkpt>
      <trkpt lat="60.52579" lon="5.26172">
        <ele>56.349239</ele>
        <time>2020-07-25T09:30:01.972Z</time>
      </trkpt>
      <trkpt lat="60.52588" lon="5.26162">
        <ele>56.542598</ele>
        <time>2020-07-25T09:30:03.968Z</time>
      </trkpt>
      <trkpt lat="60.52597" lon="5.26151">
        <ele>56.740323</ele>
        <time>2020-07-25T09:30:05.998Z</time>
      </trkpt>
      <trkpt lat="60.52605" lon="5.26141">
        <ele>56.932235</ele>
        <time>2020-07-25T09:30:07.972Z</time>
      </trkpt>
      <trkpt lat="60.52614" lon="5.26132">
        <ele>57.130558</ele>
        <time>2020-07-25T09:30:09.959Z</time>
      </trkpt>
      <trkpt lat="60.52623" lon="5.26123">
        <ele>57.323159</ele>
        <time>2020-07-25T09:30:11.982Z</time>
      </trkpt>
      <trkpt lat="60.52632" lon="5.26114">
        <ele>57.522754</ele>
        <time>2020-07-25T09:30:13.965Z</time>
      </trkpt>
      <trkpt lat="60.5264" lon="5.26104">
        <ele>57.708879</ele>
        <time>2020-07-25T09:30:15.959Z</time>
      </trkpt>
      <trkpt lat="60.52648" lon="5.26095">
        <ele>57.888455</ele>
        <time>2020-07-25T09:30:17.973Z</time>
      </trkpt>
      <trkpt lat="60.52656" lon="5.26086">
        <ele>58.067555</ele>
        <time>2020-07-25T09:30:19.996Z</time>
      </trkpt>
      <trkpt lat="60.52668" lon="5.26073">
        <ele>58.331139</ele>
        <time>2020-07-25T09:30:22.992Z</time>
      </trkpt>
      <trkpt lat="60.52677" lon="5.26065">
        <ele>58.516724</ele>
        <time>2020-07-25T09:30:24.968Z</time>
      </trkpt>
      <trkpt lat="60.52685" lon="5.26058">
        <ele>58.694712</ele>
        <time>2020-07-25T09:30:26.966Z</time>
      </trkpt>
      <trkpt lat="60.52693" lon="5.26049">
        <ele>58.872893</ele>
        <time>2020-07-25T09:30:28.989Z</time>
      </trkpt>
      <trkpt lat="60.52701" lon="5.26041">
        <ele>59.054125</ele>
        <time>2020-07-25T09:30:30.973Z</time>
      </trkpt>
      <trkpt lat="60.5271" lon="5.26033">
        <ele>59.239065</ele>
        <time>2020-07-25T09:30:32.975Z</time>
      </trkpt>
      <trkpt lat="60.52718" lon="5.26026">
        <ele>59.425412</ele>
        <time>2020-07-25T09:30:34.977Z</time>
      </trkpt>
      <trkpt lat="60.52727" lon="5.26018">
        <ele>59.578314</ele>
        <time>2020-07-25T09:30:36.975Z</time>
      </trkpt>
      <trkpt lat="60.52736" lon="5.26011">
        <ele>59.457088</ele>
        <time>2020-07-25T09:30:39.005Z</time>
      </trkpt>
      <trkpt lat="60.52745" lon="5.26004">
        <ele>59.336109</ele>
        <time>2020-07-25T09:30:40.969Z</time>
      </trkpt>
      <trkpt lat="60.52754" lon="5.25996">
        <ele>59.207408</ele>
        <time>2020-07-25T09:30:43.002Z</time>
      </trkpt>
      <trkpt lat="60.52763" lon="5.25988">
        <ele>59.071038</ele>
        <time>2020-07-25T09:30:44.965Z</time>
      </trkpt>
      <trkpt lat="60.52773" lon="5.2598">
        <ele>58.932507</ele>
        <time>2020-07-25T09:30:46.984Z</time>
      </trkpt>
      <trkpt lat="60.52783" lon="5.25972">
        <ele>58.802111</ele>
        <time>2020-07-25T09:30:49.004Z</time>
      </trkpt>
      <trkpt lat="60.52792" lon="5.25966">
        <ele>58.676035</ele>
        <time>2020-07-25T09:30:50.969Z</time>
      </trkpt>
      <trkpt lat="60.52801" lon="5.25959">
        <ele>58.554576</ele>
        <time>2020-07-25T09:30:52.989Z</time>
      </trkpt>
      <trkpt lat="60.5281" lon="5.25951">
        <ele>58.421815</ele>
        <time>2020-07-25T09:30:55.001Z</time>
      </trkpt>
      <trkpt lat="60.52819" lon="5.25943">
        <ele>58.294587</ele>
        <time>2020-07-25T09:30:56.975Z</time>
      </trkpt>
      <trkpt lat="60.52828" lon="5.25937">
        <ele>58.167338</ele>
        <time>2020-07-25T09:30:58.990Z</time>
      </trkpt>
      <trkpt lat="60.52838" lon="5.2593">
        <ele>58.041483</ele>
        <time>2020-07-25T09:31:00.976Z</time>
      </trkpt>
      <trkpt lat="60.52847" lon="5.25923">
        <ele>57.907216</ele>
        <time>2020-07-25T09:31:02.967Z</time>
      </trkpt>
      <trkpt lat="60.52857" lon="5.25916">
        <ele>57.772165</ele>
        <time>2020-07-25T09:31:04.986Z</time>
      </trkpt>
      <trkpt lat="60.52867" lon="5.25909">
        <ele>57.639774</ele>
        <time>2020-07-25T09:31:07.018Z</time>
      </trkpt>
      <trkpt lat="60.52876" lon="5.25902">
        <ele>57.507809</ele>
        <time>2020-07-25T09:31:08.971Z</time>
      </trkpt>
      <trkpt lat="60.52885" lon="5.25895">
        <ele>57.380952</ele>
        <time>2020-07-25T09:31:10.956Z</time>
      </trkpt>
      <trkpt lat="60.52895" lon="5.25888">
        <ele>57.256006</ele>
        <time>2020-07-25T09:31:12.989Z</time>
      </trkpt>
      <trkpt lat="60.52904" lon="5.25883">
        <ele>57.194858</ele>
        <time>2020-07-25T09:31:14.964Z</time>
      </trkpt>
      <trkpt lat="60.52914" lon="5.25876">
        <ele>57.133419</ele>
        <time>2020-07-25T09:31:16.981Z</time>
      </trkpt>
      <trkpt lat="60.52924" lon="5.2587">
        <ele>57.068823</ele>
        <time>2020-07-25T09:31:18.962Z</time>
      </trkpt>
      <trkpt lat="60.52934" lon="5.25865">
        <ele>57.005457</ele>
        <time>2020-07-25T09:31:20.973Z</time>
      </trkpt>
      <trkpt lat="60.52944" lon="5.2586">
        <ele>56.942609</ele>
        <time>2020-07-25T09:31:22.976Z</time>
      </trkpt>
      <trkpt lat="60.52954" lon="5.25854">
        <ele>56.879444</ele>
        <time>2020-07-25T09:31:24.969Z</time>
      </trkpt>
      <trkpt lat="60.52963" lon="5.25849">
        <ele>56.817267</ele>
        <time>2020-07-25T09:31:26.999Z</time>
      </trkpt>
      <trkpt lat="60.52973" lon="5.25844">
        <ele>56.754934</ele>
        <time>2020-07-25T09:31:29.005Z</time>
      </trkpt>
      <trkpt lat="60.52983" lon="5.25839">
        <ele>56.695719</ele>
        <time>2020-07-25T09:31:30.965Z</time>
      </trkpt>
      <trkpt lat="60.52992" lon="5.25835">
        <ele>56.63464</ele>
        <time>2020-07-25T09:31:32.967Z</time>
      </trkpt>
      <trkpt lat="60.53002" lon="5.2583">
        <ele>56.570826</ele>
        <time>2020-07-25T09:31:34.983Z</time>
      </trkpt>
      <trkpt lat="60.53012" lon="5.25826">
        <ele>56.507599</ele>
        <time>2020-07-25T09:31:36.989Z</time>
      </trkpt>
      <trkpt lat="60.53022" lon="5.25821">
        <ele>56.446909</ele>
        <time>2020-07-25T09:31:38.971Z</time>
      </trkpt>
      <trkpt lat="60.53031" lon="5.25816">
        <ele>56.387555</ele>
        <time>2020-07-25T09:31:40.985Z</time>
      </trkpt>
      <trkpt lat="60.53041" lon="5.2581">
        <ele>56.324896</ele>
        <time>2020-07-25T09:31:42.982Z</time>
      </trkpt>
      <trkpt lat="60.5305" lon="5.25803">
        <ele>56.265166</ele>
        <time>2020-07-25T09:31:45.014Z</time>
      </trkpt>
      <trkpt lat="60.53059" lon="5.25795">
        <ele>56.205303</ele>
        <time>2020-07-25T09:31:46.959Z</time>
      </trkpt>
      <trkpt lat="60.53068" lon="5.25786">
        <ele>56.164421</ele>
        <time>2020-07-25T09:31:48.981Z</time>
      </trkpt>
      <trkpt lat="60.53077" lon="5.2578">
        <ele>56.241095</ele>
        <time>2020-07-25T09:31:50.975Z</time>
      </trkpt>
      <trkpt lat="60.5309" lon="5.25774">
        <ele>56.349746</ele>
        <time>2020-07-25T09:31:53.973Z</time>
      </trkpt>
      <trkpt lat="60.53102" lon="5.25768">
        <ele>56.456193</ele>
        <time>2020-07-25T09:31:56.970Z</time>
      </trkpt>
      <trkpt lat="60.53114" lon="5.25764">
        <ele>56.556307</ele>
        <time>2020-07-25T09:32:00.009Z</time>
      </trkpt>
      <trkpt lat="60.53126" lon="5.25759">
        <ele>56.651007</ele>
        <time>2020-07-25T09:32:02.975Z</time>
      </trkpt>
      <trkpt lat="60.53137" lon="5.25754">
        <ele>56.748926</ele>
        <time>2020-07-25T09:32:05.977Z</time>
      </trkpt>
      <trkpt lat="60.53151" lon="5.25748">
        <ele>56.861941</ele>
        <time>2020-07-25T09:32:08.968Z</time>
      </trkpt>
      <trkpt lat="60.53161" lon="5.25741">
        <ele>56.949684</ele>
        <time>2020-07-25T09:32:10.972Z</time>
      </trkpt>
      <trkpt lat="60.53171" lon="5.25725">
        <ele>57.053905</ele>
        <time>2020-07-25T09:32:12.965Z</time>
      </trkpt>
      <trkpt lat="60.53178" lon="5.25699">
        <ele>57.172308</ele>
        <time>2020-07-25T09:32:14.965Z</time>
      </trkpt>
      <trkpt lat="60.53181" lon="5.25673">
        <ele>57.282181</ele>
        <time>2020-07-25T09:32:16.984Z</time>
      </trkpt>
      <trkpt lat="60.53183" lon="5.2565">
        <ele>57.375871</ele>
        <time>2020-07-25T09:32:19.000Z</time>
      </trkpt>
      <trkpt lat="60.53186" lon="5.25627">
        <ele>57.470614</ele>
        <time>2020-07-25T09:32:21.005Z</time>
      </trkpt>
      <trkpt lat="60.5319" lon="5.25604">
        <ele>57.570273</ele>
        <time>2020-07-25T09:32:23.008Z</time>
      </trkpt>
      <trkpt lat="60.53193" lon="5.2558">
        <ele>57.650955</ele>
        <time>2020-07-25T09:32:24.965Z</time>
      </trkpt>
      <trkpt lat="60.53197" lon="5.25558">
        <ele>57.69818</ele>
        <time>2020-07-25T09:32:26.968Z</time>
      </trkpt>
      <trkpt lat="60.53206" lon="5.2555">
        <ele>57.737456</ele>
        <time>2020-07-25T09:32:30.009Z</time>
      </trkpt>
      <trkpt lat="60.53215" lon="5.25555">
        <ele>57.774497</ele>
        <time>2020-07-25T09:32:32.988Z</time>
      </trkpt>
      <trkpt lat="60.53223" lon="5.25562">
        <ele>57.811818</ele>
        <time>2020-07-25T09:32:39.040Z</time>
      </trkpt>
      <trkpt lat="60.53232" lon="5.25569">
        <ele>57.850196</ele>
        <time>2020-07-25T09:32:44.967Z</time>
      </trkpt>
      <trkpt lat="60.53241" lon="5.25573">
        <ele>57.887238</ele>
        <time>2020-07-25T09:32:49.963Z</time>
      </trkpt>
      <trkpt lat="60.5325" lon="5.25577">
        <ele>57.924083</ele>
        <time>2020-07-25T09:32:55.973Z</time>
      </trkpt>
      <trkpt lat="60.53264" lon="5.25581">
        <ele>57.982176</ele>
        <time>2020-07-25T09:33:57.992Z</time>
      </trkpt>
      <trkpt lat="60.53273" lon="5.25592">
        <ele>58.02468</ele>
        <time>2020-07-25T09:34:00.007Z</time>
      </trkpt>
      <trkpt lat="60.53282" lon="5.25606">
        <ele>58.07029</ele>
        <time>2020-07-25T09:34:01.991Z</time>
      </trkpt>
      <trkpt lat="60.53289" lon="5.25621">
        <ele>58.113194</ele>
        <time>2020-07-25T09:34:03.984Z</time>
      </trkpt>
      <trkpt lat="60.53295" lon="5.25635">
        <ele>58.15169</ele>
        <time>2020-07-25T09:34:05.985Z</time>
      </trkpt>
      <trkpt lat="60.53295" lon="5.25656">
        <ele>58.194529</ele>
        <time>2020-07-25T09:34:09.012Z</time>
      </trkpt>
      <trkpt lat="60.53292" lon="5.25676">
        <ele>58.236313</ele>
        <time>2020-07-25T09:34:11.957Z</time>
      </trkpt>
      <trkpt lat="60.5329" lon="5.25698">
        <ele>58.280155</ele>
        <time>2020-07-25T09:34:15.999Z</time>
      </trkpt>
      <trkpt lat="60.53294" lon="5.25714">
        <ele>58.317047</ele>
        <time>2020-07-25T09:34:22.004Z</time>
      </trkpt>
      <trkpt lat="60.53303" lon="5.25724">
        <ele>58.358405</ele>
        <time>2020-07-25T09:34:29.996Z</time>
      </trkpt>
      <trkpt lat="60.53312" lon="5.25724">
        <ele>58.817756</ele>
        <time>2020-07-25T09:34:36.975Z</time>
      </trkpt>
      <trkpt lat="60.53321" lon="5.25729">
        <ele>59.340527</ele>
        <time>2020-07-25T09:34:42.966Z</time>
      </trkpt>
      <trkpt lat="60.5333" lon="5.25739">
        <ele>59.903068</ele>
        <time>2020-07-25T09:34:50.003Z</time>
      </trkpt>
      <trkpt lat="60.53338" lon="5.2575">
        <ele>60.455347</ele>
        <time>2020-07-25T09:34:55.974Z</time>
      </trkpt>
      <trkpt lat="60.53345" lon="5.25764">
        <ele>61.014447</ele>
        <time>2020-07-25T09:35:03.965Z</time>
      </trkpt>
      <trkpt lat="60.53353" lon="5.25778">
        <ele>61.60747</ele>
        <time>2020-07-25T09:35:08.979Z</time>
      </trkpt>
      <trkpt lat="60.53363" lon="5.25789">
        <ele>62.248436</ele>
        <time>2020-07-25T09:35:12.965Z</time>
      </trkpt>
      <trkpt lat="60.53371" lon="5.25798">
        <ele>62.764119</ele>
        <time>2020-07-25T09:35:16.986Z</time>
      </trkpt>
      <trkpt lat="60.53378" lon="5.25807">
        <ele>63.274759</ele>
        <time>2020-07-25T09:35:21.003Z</time>
      </trkpt>
      <trkpt lat="60.53388" lon="5.25814">
        <ele>63.837956</ele>
        <time>2020-07-25T09:35:25.017Z</time>
      </trkpt>
      <trkpt lat="60.53398" lon="5.25821">
        <ele>64.438467</ele>
        <time>2020-07-25T09:35:28.969Z</time>
      </trkpt>
      <trkpt lat="60.53407" lon="5.25828">
        <ele>64.97367</ele>
        <time>2020-07-25T09:35:32.961Z</time>
      </trkpt>
      <trkpt lat="60.53417" lon="5.25834">
        <ele>65.618451</ele>
        <time>2020-07-25T09:35:37.962Z</time>
      </trkpt>
      <trkpt lat="60.53425" lon="5.25844">
        <ele>66.139533</ele>
        <time>2020-07-25T09:35:41.979Z</time>
      </trkpt>
      <trkpt lat="60.53434" lon="5.25856">
        <ele>66.718924</ele>
        <time>2020-07-25T09:35:46.960Z</time>
      </trkpt>
      <trkpt lat="60.53441" lon="5.25866">
        <ele>67.233617</ele>
        <time>2020-07-25T09:35:51.984Z</time>
      </trkpt>
      <trkpt lat="60.53451" lon="5.25876">
        <ele>67.826288</ele>
        <time>2020-07-25T09:35:56.970Z</time>
      </trkpt>
      <trkpt lat="60.53461" lon="5.25882">
        <ele>68.438544</ele>
        <time>2020-07-25T09:36:02.002Z</time>
      </trkpt>
      <trkpt lat="60.5347" lon="5.25889">
        <ele>69.031031</ele>
        <time>2020-07-25T09:36:06.995Z</time>
      </trkpt>
      <trkpt lat="60.53481" lon="5.25893">
        <ele>69.668396</ele>
        <time>2020-07-25T09:36:12.982Z</time>
      </trkpt>
      <trkpt lat="60.5349" lon="5.25896">
        <ele>70.268419</ele>
        <time>2020-07-25T09:36:18.980Z</time>
      </trkpt>
      <trkpt lat="60.535" lon="5.25897">
        <ele>70.831443</ele>
        <time>2020-07-25T09:36:23.988Z</time>
      </trkpt>
      <trkpt lat="60.5351" lon="5.25899">
        <ele>71.462907</ele>
        <time>2020-07-25T09:36:28.974Z</time>
      </trkpt>
      <trkpt lat="60.5352" lon="5.25898">
        <ele>72.057257</ele>
        <time>2020-07-25T09:36:33.989Z</time>
      </trkpt>
      <trkpt lat="60.5353" lon="5.25896">
        <ele>72.669338</ele>
        <time>2020-07-25T09:36:39.989Z</time>
      </trkpt>
      <trkpt lat="60.5354" lon="5.25895">
        <ele>73.275971</ele>
        <time>2020-07-25T09:36:44.963Z</time>
      </trkpt>
      <trkpt lat="60.5355" lon="5.25894">
        <ele>73.87012</ele>
        <time>2020-07-25T09:36:49.972Z</time>
      </trkpt>
      <trkpt lat="60.53559" lon="5.25892">
        <ele>74.428742</ele>
        <time>2020-07-25T09:36:54.964Z</time>
      </trkpt>
      <trkpt lat="60.53568" lon="5.25889">
        <ele>75.00267</ele>
        <time>2020-07-25T09:36:59.972Z</time>
      </trkpt>
      <trkpt lat="60.53578" lon="5.25885">
        <ele>75.600875</ele>
        <time>2020-07-25T09:37:04.985Z</time>
      </trkpt>
      <trkpt lat="60.53589" lon="5.25881">
        <ele>76.285057</ele>
        <time>2020-07-25T09:37:09.977Z</time>
      </trkpt>
      <trkpt lat="60.53598" lon="5.25877">
        <ele>76.848954</ele>
        <time>2020-07-25T09:37:13.965Z</time>
      </trkpt>
      <trkpt lat="60.53609" lon="5.2587">
        <ele>77.526036</ele>
        <time>2020-07-25T09:37:18.981Z</time>
      </trkpt>
      <trkpt lat="60.53619" lon="5.2586">
        <ele>78.184578</ele>
        <time>2020-07-25T09:37:23.997Z</time>
      </trkpt>
      <trkpt lat="60.53628" lon="5.2585">
        <ele>78.833451</ele>
        <time>2020-07-25T09:37:28.966Z</time>
      </trkpt>
      <trkpt lat="60.53638" lon="5.2584">
        <ele>79.421824</ele>
        <time>2020-07-25T09:37:33.970Z</time>
      </trkpt>
      <trkpt lat="60.53648" lon="5.25838">
        <ele>79.22961</ele>
        <time>2020-07-25T09:37:38.052Z</time>
      </trkpt>
      <trkpt lat="60.53657" lon="5.25837">
        <ele>79.047889</ele>
        <time>2020-07-25T09:37:41.993Z</time>
      </trkpt>
      <trkpt lat="60.53668" lon="5.2584">
        <ele>78.834141</ele>
        <time>2020-07-25T09:37:45.969Z</time>
      </trkpt>
      <trkpt lat="60.5368" lon="5.25841">
        <ele>78.61744</ele>
        <time>2020-07-25T09:37:49.971Z</time>
      </trkpt>
      <trkpt lat="60.53689" lon="5.25842">
        <ele>78.429702</ele>
        <time>2020-07-25T09:37:53.020Z</time>
      </trkpt>
      <trkpt lat="60.537" lon="5.25843">
        <ele>78.224587</ele>
        <time>2020-07-25T09:37:55.960Z</time>
      </trkpt>
      <trkpt lat="60.5371" lon="5.25844">
        <ele>78.021305</ele>
        <time>2020-07-25T09:37:58.994Z</time>
      </trkpt>
      <trkpt lat="60.53722" lon="5.25845">
        <ele>77.802673</ele>
        <time>2020-07-25T09:38:01.978Z</time>
      </trkpt>
      <trkpt lat="60.53734" lon="5.25848">
        <ele>77.559024</ele>
        <time>2020-07-25T09:38:04.965Z</time>
      </trkpt>
      <trkpt lat="60.53746" lon="5.25853">
        <ele>77.321424</ele>
        <time>2020-07-25T09:38:07.962Z</time>
      </trkpt>
      <trkpt lat="60.53759" lon="5.25858">
        <ele>77.062862</ele>
        <time>2020-07-25T09:38:10.996Z</time>
      </trkpt>
      <trkpt lat="60.53768" lon="5.25862">
        <ele>76.890857</ele>
        <time>2020-07-25T09:38:12.972Z</time>
      </trkpt>
      <trkpt lat="60.53781" lon="5.2587">
        <ele>76.628587</ele>
        <time>2020-07-25T09:38:15.988Z</time>
      </trkpt>
      <trkpt lat="60.53794" lon="5.25877">
        <ele>76.364165</ele>
        <time>2020-07-25T09:38:18.995Z</time>
      </trkpt>
      <trkpt lat="60.53803" lon="5.25885">
        <ele>76.174363</ele>
        <time>2020-07-25T09:38:20.983Z</time>
      </trkpt>
      <trkpt lat="60.53813" lon="5.25893">
        <ele>75.980192</ele>
        <time>2020-07-25T09:38:22.976Z</time>
      </trkpt>
      <trkpt lat="60.53822" lon="5.25902">
        <ele>76.09783</ele>
        <time>2020-07-25T09:38:25.011Z</time>
      </trkpt>
      <trkpt lat="60.53832" lon="5.2591">
        <ele>76.242707</ele>
        <time>2020-07-25T09:38:26.964Z</time>
      </trkpt>
      <trkpt lat="60.53841" lon="5.25919">
        <ele>76.386243</ele>
        <time>2020-07-25T09:38:28.969Z</time>
      </trkpt>
      <trkpt lat="60.5385" lon="5.2593">
        <ele>76.529184</ele>
        <time>2020-07-25T09:38:30.956Z</time>
      </trkpt>
      <trkpt lat="60.53859" lon="5.25942">
        <ele>76.675316</ele>
        <time>2020-07-25T09:38:32.995Z</time>
      </trkpt>
      <trkpt lat="60.53867" lon="5.25954">
        <ele>76.819546</ele>
        <time>2020-07-25T09:38:34.968Z</time>
      </trkpt>
      <trkpt lat="60.53876" lon="5.25966">
        <ele>76.964915</ele>
        <time>2020-07-25T09:38:36.968Z</time>
      </trkpt>
      <trkpt lat="60.53884" lon="5.25978">
        <ele>77.096679</ele>
        <time>2020-07-25T09:38:39.003Z</time>
      </trkpt>
      <trkpt lat="60.53892" lon="5.25988">
        <ele>77.225317</ele>
        <time>2020-07-25T09:38:40.975Z</time>
      </trkpt>
      <trkpt lat="60.53899" lon="5.25999">
        <ele>77.352806</ele>
        <time>2020-07-25T09:38:42.988Z</time>
      </trkpt>
      <trkpt lat="60.53907" lon="5.26008">
        <ele>77.476921</ele>
        <time>2020-07-25T09:38:44.983Z</time>
      </trkpt>
      <trkpt lat="60.53918" lon="5.26022">
        <ele>77.655535</ele>
        <time>2020-07-25T09:38:47.989Z</time>
      </trkpt>
      <trkpt lat="60.53928" lon="5.26035">
        <ele>77.814366</ele>
        <time>2020-07-25T09:38:50.999Z</time>
      </trkpt>
      <trkpt lat="60.53936" lon="5.26044">
        <ele>77.950238</ele>
        <time>2020-07-25T09:38:53.989Z</time>
      </trkpt>
      <trkpt lat="60.53946" lon="5.26053">
        <ele>78.100925</ele>
        <time>2020-07-25T09:38:57.980Z</time>
      </trkpt>
      <trkpt lat="60.53955" lon="5.26062">
        <ele>78.240289</ele>
        <time>2020-07-25T09:39:01.983Z</time>
      </trkpt>
      <trkpt lat="60.53965" lon="5.2607">
        <ele>78.39104</ele>
        <time>2020-07-25T09:39:06.987Z</time>
      </trkpt>
      <trkpt lat="60.53976" lon="5.26078">
        <ele>78.862916</ele>
        <time>2020-07-25T09:39:11.991Z</time>
      </trkpt>
      <trkpt lat="60.53986" lon="5.26084">
        <ele>79.466327</ele>
        <time>2020-07-25T09:39:16.975Z</time>
      </trkpt>
      <trkpt lat="60.53994" lon="5.26092">
        <ele>80.009648</ele>
        <time>2020-07-25T09:39:21.990Z</time>
      </trkpt>
      <trkpt lat="60.54004" lon="5.26097">
        <ele>80.651694</ele>
        <time>2020-07-25T09:39:26.996Z</time>
      </trkpt>
      <trkpt lat="60.54014" lon="5.26104">
        <ele>81.243735</ele>
        <time>2020-07-25T09:39:31.968Z</time>
      </trkpt>
      <trkpt lat="60.54023" lon="5.26109">
        <ele>81.845899</ele>
        <time>2020-07-25T09:39:35.976Z</time>
      </trkpt>
      <trkpt lat="60.54032" lon="5.26111">
        <ele>82.381765</ele>
        <time>2020-07-25T09:39:39.975Z</time>
      </trkpt>
      <trkpt lat="60.54042" lon="5.26117">
        <ele>83.004164</ele>
        <time>2020-07-25T09:39:44.970Z</time>
      </trkpt>
      <trkpt lat="60.54052" lon="5.26123">
        <ele>83.625548</ele>
        <time>2020-07-25T09:39:49.970Z</time>
      </trkpt>
      <trkpt lat="60.54062" lon="5.2613">
        <ele>84.245573</ele>
        <time>2020-07-25T09:39:55.001Z</time>
      </trkpt>
      <trkpt lat="60.54071" lon="5.26137">
        <ele>84.841834</ele>
        <time>2020-07-25T09:39:59.984Z</time>
      </trkpt>
      <trkpt lat="60.54081" lon="5.26146">
        <ele>85.473675</ele>
        <time>2020-07-25T09:40:05.967Z</time>
      </trkpt>
      <trkpt lat="60.54091" lon="5.26153">
        <ele>86.07548</ele>
        <time>2020-07-25T09:40:10.986Z</time>
      </trkpt>
      <trkpt lat="60.54099" lon="5.26161">
        <ele>86.632471</ele>
        <time>2020-07-25T09:40:15.014Z</time>
      </trkpt>
      <trkpt lat="60.54108" lon="5.2617">
        <ele>87.215552</ele>
        <time>2020-07-25T09:40:18.975Z</time>
      </trkpt>
      <trkpt lat="60.54116" lon="5.26179">
        <ele>87.758791</ele>
        <time>2020-07-25T09:40:22.971Z</time>
      </trkpt>
      <trkpt lat="60.54123" lon="5.26189">
        <ele>88.293302</ele>
        <time>2020-07-25T09:40:26.991Z</time>
      </trkpt>
      <trkpt lat="60.54132" lon="5.26201">
        <ele>88.897128</ele>
        <time>2020-07-25T09:40:31.987Z</time>
      </trkpt>
      <trkpt lat="60.54139" lon="5.26214">
        <ele>89.181364</ele>
        <time>2020-07-25T09:40:36.983Z</time>
      </trkpt>
      <trkpt lat="60.54147" lon="5.26226">
        <ele>89.210826</ele>
        <time>2020-07-25T09:40:41.992Z</time>
      </trkpt>
      <trkpt lat="60.54155" lon="5.26238">
        <ele>89.239553</ele>
        <time>2020-07-25T09:40:45.989Z</time>
      </trkpt>
      <trkpt lat="60.54163" lon="5.26251">
        <ele>89.270778</ele>
        <time>2020-07-25T09:40:50.966Z</time>
      </trkpt>
      <trkpt lat="60.54171" lon="5.26267">
        <ele>89.303106</ele>
        <time>2020-07-25T09:40:55.980Z</time>
      </trkpt>
      <trkpt lat="60.54178" lon="5.2628">
        <ele>89.330571</ele>
        <time>2020-07-25T09:40:59.960Z</time>
      </trkpt>
      <trkpt lat="60.54185" lon="5.26297">
        <ele>89.363505</ele>
        <time>2020-07-25T09:41:04.969Z</time>
      </trkpt>
      <trkpt lat="60.54191" lon="5.26314">
        <ele>89.394847</ele>
        <time>2020-07-25T09:41:08.982Z</time>
      </trkpt>
      <trkpt lat="60.54197" lon="5.26332">
        <ele>89.425308</ele>
        <time>2020-07-25T09:41:12.984Z</time>
      </trkpt>
      <trkpt lat="60.54202" lon="5.26347">
        <ele>89.452965</ele>
        <time>2020-07-25T09:41:16.978Z</time>
      </trkpt>
      <trkpt lat="60.54207" lon="5.26363">
        <ele>89.480231</ele>
        <time>2020-07-25T09:41:20.997Z</time>
      </trkpt>
      <trkpt lat="60.54213" lon="5.2638">
        <ele>89.509292</ele>
        <time>2020-07-25T09:41:24.984Z</time>
      </trkpt>
      <trkpt lat="60.54217" lon="5.264">
        <ele>89.541252</ele>
        <time>2020-07-25T09:41:28.995Z</time>
      </trkpt>
      <trkpt lat="60.54221" lon="5.26422">
        <ele>89.576168</ele>
        <time>2020-07-25T09:41:32.984Z</time>
      </trkpt>
      <trkpt lat="60.54225" lon="5.2644">
        <ele>89.603352</ele>
        <time>2020-07-25T09:41:35.976Z</time>
      </trkpt>
      <trkpt lat="60.54229" lon="5.26459">
        <ele>89.634188</ele>
        <time>2020-07-25T09:41:39.018Z</time>
      </trkpt>
      <trkpt lat="60.54232" lon="5.2648">
        <ele>89.665859</ele>
        <time>2020-07-25T09:41:41.976Z</time>
      </trkpt>
      <trkpt lat="60.54237" lon="5.26501">
        <ele>89.710649</ele>
        <time>2020-07-25T09:41:44.978Z</time>
      </trkpt>
      <trkpt lat="60.5424" lon="5.26521">
        <ele>89.878398</ele>
        <time>2020-07-25T09:41:47.985Z</time>
      </trkpt>
      <trkpt lat="60.5424" lon="5.26544">
        <ele>90.069619</ele>
        <time>2020-07-25T09:41:50.979Z</time>
      </trkpt>
      <trkpt lat="60.54238" lon="5.26569">
        <ele>90.274106</ele>
        <time>2020-07-25T09:41:53.991Z</time>
      </trkpt>
      <trkpt lat="60.54237" lon="5.26588">
        <ele>90.425559</ele>
        <time>2020-07-25T09:41:55.982Z</time>
      </trkpt>
      <trkpt lat="60.54237" lon="5.26607">
        <ele>90.585814</ele>
        <time>2020-07-25T09:41:57.971Z</time>
      </trkpt>
      <trkpt lat="60.54238" lon="5.2663">
        <ele>90.772335</ele>
        <time>2020-07-25T09:41:59.976Z</time>
      </trkpt>
      <trkpt lat="60.5424" lon="5.26655">
        <ele>90.97924</ele>
        <time>2020-07-25T09:42:01.982Z</time>
      </trkpt>
      <trkpt lat="60.54242" lon="5.26683">
        <ele>91.201682</ele>
        <time>2020-07-25T09:42:04.003Z</time>
      </trkpt>
      <trkpt lat="60.54243" lon="5.26712">
        <ele>91.440842</ele>
        <time>2020-07-25T09:42:05.984Z</time>
      </trkpt>
      <trkpt lat="60.5424" lon="5.26743">
        <ele>91.700094</ele>
        <time>2020-07-25T09:42:07.993Z</time>
      </trkpt>
      <trkpt lat="60.54234" lon="5.26771">
        <ele>91.941579</ele>
        <time>2020-07-25T09:42:10.011Z</time>
      </trkpt>
      <trkpt lat="60.54228" lon="5.26793">
        <ele>92.153989</ele>
        <time>2020-07-25T09:42:11.989Z</time>
      </trkpt>
      <trkpt lat="60.5422" lon="5.26814">
        <ele>92.368058</ele>
        <time>2020-07-25T09:42:14.972Z</time>
      </trkpt>
      <trkpt lat="60.5422" lon="5.26838">
        <ele>92.567377</ele>
        <time>2020-07-25T09:42:17.993Z</time>
      </trkpt>
      <trkpt lat="60.54222" lon="5.26857">
        <ele>92.816392</ele>
        <time>2020-07-25T09:42:21.985Z</time>
      </trkpt>
      <trkpt lat="60.54226" lon="5.26876">
        <ele>93.255918</ele>
        <time>2020-07-25T09:42:27.964Z</time>
      </trkpt>
      <trkpt lat="60.54232" lon="5.26894">
        <ele>93.737952</ele>
        <time>2020-07-25T09:42:33.973Z</time>
      </trkpt>
      <trkpt lat="60.54236" lon="5.26913">
        <ele>94.180925</ele>
        <time>2020-07-25T09:42:39.987Z</time>
      </trkpt>
      <trkpt lat="60.5424" lon="5.2693">
        <ele>94.57664</ele>
        <time>2020-07-25T09:42:44.969Z</time>
      </trkpt>
      <trkpt lat="60.54244" lon="5.26946">
        <ele>94.990104</ele>
        <time>2020-07-25T09:42:49.000Z</time>
      </trkpt>
      <trkpt lat="60.54248" lon="5.26964">
        <ele>95.411182</ele>
        <time>2020-07-25T09:42:53.024Z</time>
      </trkpt>
      <trkpt lat="60.54253" lon="5.26981">
        <ele>95.822588</ele>
        <time>2020-07-25T09:42:56.965Z</time>
      </trkpt>
      <trkpt lat="60.54257" lon="5.27001">
        <ele>96.301304</ele>
        <time>2020-07-25T09:43:01.972Z</time>
      </trkpt>
      <trkpt lat="60.5426" lon="5.2702">
        <ele>96.746855</ele>
        <time>2020-07-25T09:43:06.991Z</time>
      </trkpt>
      <trkpt lat="60.54264" lon="5.27038">
        <ele>97.162405</ele>
        <time>2020-07-25T09:43:11.979Z</time>
      </trkpt>
      <trkpt lat="60.54268" lon="5.27056">
        <ele>97.595436</ele>
        <time>2020-07-25T09:43:16.971Z</time>
      </trkpt>
      <trkpt lat="60.54273" lon="5.27075">
        <ele>98.051741</ele>
        <time>2020-07-25T09:43:22.975Z</time>
      </trkpt>
      <trkpt lat="60.54277" lon="5.27092">
        <ele>98.471919</ele>
        <time>2020-07-25T09:43:27.990Z</time>
      </trkpt>
      <trkpt lat="60.54283" lon="5.2711">
        <ele>98.956368</ele>
        <time>2020-07-25T09:43:33.973Z</time>
      </trkpt>
      <trkpt lat="60.54287" lon="5.27131">
        <ele>99.43508</ele>
        <time>2020-07-25T09:43:39.003Z</time>
      </trkpt>
      <trkpt lat="60.54291" lon="5.27149">
        <ele>99.853156</ele>
        <time>2020-07-25T09:43:42.976Z</time>
      </trkpt>
      <trkpt lat="60.54294" lon="5.27166">
        <ele>100.266878</ele>
        <time>2020-07-25T09:43:46.984Z</time>
      </trkpt>
      <trkpt lat="60.54298" lon="5.27187">
        <ele>100.600811</ele>
        <time>2020-07-25T09:43:51.995Z</time>
      </trkpt>
      <trkpt lat="60.54302" lon="5.27208">
        <ele>100.547603</ele>
        <time>2020-07-25T09:43:56.980Z</time>
      </trkpt>
      <trkpt lat="60.54305" lon="5.27226">
        <ele>100.499606</ele>
        <time>2020-07-25T09:44:01.978Z</time>
      </trkpt>
      <trkpt lat="60.54309" lon="5.27244">
        <ele>100.449894</ele>
        <time>2020-07-25T09:44:06.986Z</time>
      </trkpt>
      <trkpt lat="60.54314" lon="5.27271">
        <ele>100.376373</ele>
        <time>2020-07-25T09:45:26.965Z</time>
      </trkpt>
      <trkpt lat="60.54319" lon="5.27287">
        <ele>100.330665</ele>
        <time>2020-07-25T09:45:30.964Z</time>
      </trkpt>
      <trkpt lat="60.54324" lon="5.27305">
        <ele>100.279588</ele>
        <time>2020-07-25T09:45:35.008Z</time>
      </trkpt>
      <trkpt lat="60.54328" lon="5.27326">
        <ele>100.223048</ele>
        <time>2020-07-25T09:45:38.985Z</time>
      </trkpt>
      <trkpt lat="60.54333" lon="5.27347">
        <ele>100.165499</ele>
        <time>2020-07-25T09:45:42.973Z</time>
      </trkpt>
      <trkpt lat="60.54337" lon="5.27364">
        <ele>100.117579</ele>
        <time>2020-07-25T09:45:45.999Z</time>
      </trkpt>
      <trkpt lat="60.54341" lon="5.27385">
        <ele>100.061505</ele>
        <time>2020-07-25T09:45:48.968Z</time>
      </trkpt>
      <trkpt lat="60.54345" lon="5.27405">
        <ele>100.005819</ele>
        <time>2020-07-25T09:45:51.975Z</time>
      </trkpt>
      <trkpt lat="60.5435" lon="5.27427">
        <ele>99.945304</ele>
        <time>2020-07-25T09:45:54.984Z</time>
      </trkpt>
      <trkpt lat="60.54355" lon="5.27451">
        <ele>99.88138</ele>
        <time>2020-07-25T09:45:58.016Z</time>
      </trkpt>
      <trkpt lat="60.54359" lon="5.27468">
        <ele>99.834128</ele>
        <time>2020-07-25T09:45:59.973Z</time>
      </trkpt>
      <trkpt lat="60.54363" lon="5.27487">
        <ele>99.783699</ele>
        <time>2020-07-25T09:46:01.968Z</time>
      </trkpt>
      <trkpt lat="60.54367" lon="5.27505">
        <ele>99.733758</ele>
        <time>2020-07-25T09:46:03.975Z</time>
      </trkpt>
      <trkpt lat="60.54372" lon="5.27524">
        <ele>99.425299</ele>
        <time>2020-07-25T09:46:07.976Z</time>
      </trkpt>
      <trkpt lat="60.54378" lon="5.27546">
        <ele>98.714789</ele>
        <time>2020-07-25T09:46:11.976Z</time>
      </trkpt>
      <trkpt lat="60.54381" lon="5.27563">
        <ele>98.177431</ele>
        <time>2020-07-25T09:46:13.986Z</time>
      </trkpt>
      <trkpt lat="60.54386" lon="5.27584">
        <ele>97.524575</ele>
        <time>2020-07-25T09:46:15.975Z</time>
      </trkpt>
      <trkpt lat="60.5439" lon="5.27606">
        <ele>96.847341</ele>
        <time>2020-07-25T09:46:17.999Z</time>
      </trkpt>
      <trkpt lat="60.54394" lon="5.2763">
        <ele>96.116391</ele>
        <time>2020-07-25T09:46:20.014Z</time>
      </trkpt>
      <trkpt lat="60.544" lon="5.27655">
        <ele>95.351022</ele>
        <time>2020-07-25T09:46:21.991Z</time>
      </trkpt>
      <trkpt lat="60.54405" lon="5.27679">
        <ele>94.596409</ele>
        <time>2020-07-25T09:46:24.008Z</time>
      </trkpt>
      <trkpt lat="60.54411" lon="5.27703">
        <ele>93.824159</ele>
        <time>2020-07-25T09:46:25.971Z</time>
      </trkpt>
      <trkpt lat="60.54416" lon="5.27728">
        <ele>93.074219</ele>
        <time>2020-07-25T09:46:27.986Z</time>
      </trkpt>
      <trkpt lat="60.54421" lon="5.27753">
        <ele>92.286386</ele>
        <time>2020-07-25T09:46:29.985Z</time>
      </trkpt>
      <trkpt lat="60.54427" lon="5.27777">
        <ele>91.511134</ele>
        <time>2020-07-25T09:46:31.968Z</time>
      </trkpt>
      <trkpt lat="60.54432" lon="5.27803">
        <ele>90.714921</ele>
        <time>2020-07-25T09:46:33.984Z</time>
      </trkpt>
      <trkpt lat="60.54438" lon="5.2783">
        <ele>89.877984</ele>
        <time>2020-07-25T09:46:35.992Z</time>
      </trkpt>
      <trkpt lat="60.54444" lon="5.27857">
        <ele>89.087605</ele>
        <time>2020-07-25T09:46:37.971Z</time>
      </trkpt>
      <trkpt lat="60.5445" lon="5.27884">
        <ele>88.477589</ele>
        <time>2020-07-25T09:46:39.992Z</time>
      </trkpt>
      <trkpt lat="60.54456" lon="5.2791">
        <ele>87.866042</ele>
        <time>2020-07-25T09:46:41.995Z</time>
      </trkpt>
      <trkpt lat="60.54461" lon="5.27935">
        <ele>87.299709</ele>
        <time>2020-07-25T09:46:43.971Z</time>
      </trkpt>
      <trkpt lat="60.54466" lon="5.2796">
        <ele>86.731298</ele>
        <time>2020-07-25T09:46:45.980Z</time>
      </trkpt>
      <trkpt lat="60.54471" lon="5.27982">
        <ele>86.214821</ele>
        <time>2020-07-25T09:46:47.981Z</time>
      </trkpt>
      <trkpt lat="60.54475" lon="5.28004">
        <ele>85.715147</ele>
        <time>2020-07-25T09:46:49.965Z</time>
      </trkpt>
      <trkpt lat="60.5448" lon="5.28028">
        <ele>85.189591</ele>
        <time>2020-07-25T09:46:52.000Z</time>
      </trkpt>
      <trkpt lat="60.54485" lon="5.2805">
        <ele>84.668576</ele>
        <time>2020-07-25T09:46:53.976Z</time>
      </trkpt>
      <trkpt lat="60.5449" lon="5.28071">
        <ele>84.200897</ele>
        <time>2020-07-25T09:46:55.990Z</time>
      </trkpt>
      <trkpt lat="60.54495" lon="5.28095">
        <ele>83.656819</ele>
        <time>2020-07-25T09:46:58.972Z</time>
      </trkpt>
      <trkpt lat="60.54499" lon="5.28116">
        <ele>83.163727</ele>
        <time>2020-07-25T09:47:01.963Z</time>
      </trkpt>
      <trkpt lat="60.54502" lon="5.28136">
        <ele>82.729947</ele>
        <time>2020-07-25T09:47:06.994Z</time>
      </trkpt>
      <trkpt lat="60.54497" lon="5.2812">
        <ele>82.329374</ele>
        <time>2020-07-25T09:47:41.011Z</time>
      </trkpt>
      <trkpt lat="60.54493" lon="5.28102">
        <ele>81.915476</ele>
        <time>2020-07-25T09:47:43.983Z</time>
      </trkpt>
      <trkpt lat="60.54491" lon="5.28084">
        <ele>81.625992</ele>
        <time>2020-07-25T09:47:48.013Z</time>
      </trkpt>
      <trkpt lat="60.54486" lon="5.28066">
        <ele>81.877764</ele>
        <time>2020-07-25T09:47:51.981Z</time>
      </trkpt>
      <trkpt lat="60.54491" lon="5.2805">
        <ele>82.117334</ele>
        <time>2020-07-25T09:47:56.984Z</time>
      </trkpt>
      <trkpt lat="60.545" lon="5.28039">
        <ele>82.373763</ele>
        <time>2020-07-25T09:48:00.963Z</time>
      </trkpt>
      <trkpt lat="60.5451" lon="5.28034">
        <ele>82.645287</ele>
        <time>2020-07-25T09:48:07.966Z</time>
      </trkpt>
      <trkpt lat="60.5452" lon="5.28042">
        <ele>82.920221</ele>
        <time>2020-07-25T09:48:13.967Z</time>
      </trkpt>
      <trkpt lat="60.5453" lon="5.2805">
        <ele>83.188502</ele>
        <time>2020-07-25T09:48:18.974Z</time>
      </trkpt>
      <trkpt lat="60.5454" lon="5.28054">
        <ele>83.456363</ele>
        <time>2020-07-25T09:48:23.995Z</time>
      </trkpt>
      <trkpt lat="60.54549" lon="5.28058">
        <ele>83.692858</ele>
        <time>2020-07-25T09:48:28.980Z</time>
      </trkpt>
      <trkpt lat="60.54558" lon="5.28062">
        <ele>83.927496</ele>
        <time>2020-07-25T09:48:34.000Z</time>
      </trkpt>
      <trkpt lat="60.54568" lon="5.28066">
        <ele>84.179118</ele>
        <time>2020-07-25T09:48:38.991Z</time>
      </trkpt>
      <trkpt lat="60.54578" lon="5.28069">
        <ele>84.437922</ele>
        <time>2020-07-25T09:48:43.972Z</time>
      </trkpt>
      <trkpt lat="60.54587" lon="5.28067">
        <ele>84.681811</ele>
        <time>2020-07-25T09:48:48.989Z</time>
      </trkpt>
      <trkpt lat="60.54597" lon="5.28063">
        <ele>84.948072</ele>
        <time>2020-07-25T09:48:54.964Z</time>
      </trkpt>
      <trkpt lat="60.54607" lon="5.28059">
        <ele>85.195084</ele>
        <time>2020-07-25T09:49:00.014Z</time>
      </trkpt>
      <trkpt lat="60.54617" lon="5.28058">
        <ele>85.444178</ele>
        <time>2020-07-25T09:49:04.995Z</time>
      </trkpt>
      <trkpt lat="60.54626" lon="5.28059">
        <ele>85.685231</ele>
        <time>2020-07-25T09:49:09.968Z</time>
      </trkpt>
      <trkpt lat="60.54635" lon="5.2806">
        <ele>85.91822</ele>
        <time>2020-07-25T09:49:14.988Z</time>
      </trkpt>
      <trkpt lat="60.54645" lon="5.28061">
        <ele>86.182107</ele>
        <time>2020-07-25T09:49:20.979Z</time>
      </trkpt>
      <trkpt lat="60.54655" lon="5.28063">
        <ele>87.093876</ele>
        <time>2020-07-25T09:49:26.967Z</time>
      </trkpt>
      <trkpt lat="60.54665" lon="5.2807">
        <ele>88.084075</ele>
        <time>2020-07-25T09:49:32.975Z</time>
      </trkpt>
      <trkpt lat="60.54675" lon="5.28075">
        <ele>89.116541</ele>
        <time>2020-07-25T09:49:38.991Z</time>
      </trkpt>
      <trkpt lat="60.54684" lon="5.2808">
        <ele>90.061853</ele>
        <time>2020-07-25T09:49:44.972Z</time>
      </trkpt>
      <trkpt lat="60.54694" lon="5.28086">
        <ele>91.044271</ele>
        <time>2020-07-25T09:49:51.984Z</time>
      </trkpt>
      <trkpt lat="60.54704" lon="5.28092">
        <ele>92.082304</ele>
        <time>2020-07-25T09:49:57.975Z</time>
      </trkpt>
      <trkpt lat="60.54714" lon="5.28097">
        <ele>93.045759</ele>
        <time>2020-07-25T09:50:02.967Z</time>
      </trkpt>
      <trkpt lat="60.54723" lon="5.281">
        <ele>93.946539</ele>
        <time>2020-07-25T09:50:07.991Z</time>
      </trkpt>
      <trkpt lat="60.54735" lon="5.28101">
        <ele>95.07595</ele>
        <time>2020-07-25T09:50:12.987Z</time>
      </trkpt>
      <trkpt lat="60.54744" lon="5.28099">
        <ele>95.966686</ele>
        <time>2020-07-25T09:50:15.965Z</time>
      </trkpt>
      <trkpt lat="60.54754" lon="5.28096">
        <ele>96.894513</ele>
        <time>2020-07-25T09:50:21.989Z</time>
      </trkpt>
      <trkpt lat="60.54764" lon="5.28094">
        <ele>97.866872</ele>
        <time>2020-07-25T09:50:29.007Z</time>
      </trkpt>
      <trkpt lat="60.54774" lon="5.28097">
        <ele>98.843841</ele>
        <time>2020-07-25T09:50:35.967Z</time>
      </trkpt>
      <trkpt lat="60.54783" lon="5.281">
        <ele>99.727284</ele>
        <time>2020-07-25T09:50:42.991Z</time>
      </trkpt>
      <trkpt lat="60.54792" lon="5.28106">
        <ele>100.67675</ele>
        <time>2020-07-25T09:50:50.000Z</time>
      </trkpt>
      <trkpt lat="60.54801" lon="5.28108">
        <ele>101.574524</ele>
        <time>2020-07-25T09:50:55.985Z</time>
      </trkpt>
      <trkpt lat="60.54811" lon="5.28108">
        <ele>102.452876</ele>
        <time>2020-07-25T09:51:01.994Z</time>
      </trkpt>
      <trkpt lat="60.5482" lon="5.28104">
        <ele>103.415706</ele>
        <time>2020-07-25T09:51:07.962Z</time>
      </trkpt>
      <trkpt lat="60.5483" lon="5.281">
        <ele>104.256482</ele>
        <time>2020-07-25T09:51:15.005Z</time>
      </trkpt>
      <trkpt lat="60.54839" lon="5.28096">
        <ele>105.045332</ele>
        <time>2020-07-25T09:51:21.971Z</time>
      </trkpt>
      <trkpt lat="60.54849" lon="5.28092">
        <ele>105.901264</ele>
        <time>2020-07-25T09:51:28.968Z</time>
      </trkpt>
      <trkpt lat="60.54858" lon="5.2809">
        <ele>106.672124</ele>
        <time>2020-07-25T09:51:36.957Z</time>
      </trkpt>
      <trkpt lat="60.54868" lon="5.28087">
        <ele>107.444546</ele>
        <time>2020-07-25T09:51:43.983Z</time>
      </trkpt>
      <trkpt lat="60.54876" lon="5.28082">
        <ele>108.208454</ele>
        <time>2020-07-25T09:51:49.990Z</time>
      </trkpt>
      <trkpt lat="60.54886" lon="5.28077">
        <ele>109.011922</ele>
        <time>2020-07-25T09:51:56.992Z</time>
      </trkpt>
      <trkpt lat="60.54896" lon="5.28071">
        <ele>109.885902</ele>
        <time>2020-07-25T09:52:03.975Z</time>
      </trkpt>
      <trkpt lat="60.54906" lon="5.28067">
        <ele>110.742664</ele>
        <time>2020-07-25T09:52:10.970Z</time>
      </trkpt>
      <trkpt lat="60.54915" lon="5.28059">
        <ele>111.598182</ele>
        <time>2020-07-25T09:52:16.984Z</time>
      </trkpt>
      <trkpt lat="60.54924" lon="5.28053">
        <ele>112.403516</ele>
        <time>2020-07-25T09:52:22.976Z</time>
      </trkpt>
      <trkpt lat="60.54935" lon="5.2805">
        <ele>113.29247</ele>
        <time>2020-07-25T09:52:29.984Z</time>
      </trkpt>
      <trkpt lat="60.54944" lon="5.28044">
        <ele>114.10577</ele>
        <time>2020-07-25T09:52:36.006Z</time>
      </trkpt>
      <trkpt lat="60.54953" lon="5.28037">
        <ele>114.901731</ele>
        <time>2020-07-25T09:52:41.975Z</time>
      </trkpt>
      <trkpt lat="60.54962" lon="5.28034">
        <ele>115.645975</ele>
        <time>2020-07-25T09:52:46.975Z</time>
      </trkpt>
      <trkpt lat="60.54971" lon="5.28031">
        <ele>116.410187</ele>
        <time>2020-07-25T09:52:52.007Z</time>
      </trkpt>
      <trkpt lat="60.5498" lon="5.28025">
        <ele>117.232678</ele>
        <time>2020-07-25T09:52:56.983Z</time>
      </trkpt>
      <trkpt lat="60.5499" lon="5.2802">
        <ele>118.088609</ele>
        <time>2020-07-25T09:53:00.976Z</time>
      </trkpt>
      <trkpt lat="60.55002" lon="5.28015">
        <ele>118.160734</ele>
        <time>2020-07-25T09:53:05.004Z</time>
      </trkpt>
      <trkpt lat="60.55014" lon="5.2801">
        <ele>117.297986</ele>
        <time>2020-07-25T09:53:07.987Z</time>
      </trkpt>
      <trkpt lat="60.55025" lon="5.28007">
        <ele>116.604299</ele>
        <time>2020-07-25T09:53:10.010Z</time>
      </trkpt>
      <trkpt lat="60.55036" lon="5.28005">
        <ele>115.844603</ele>
        <time>2020-07-25T09:53:11.988Z</time>
      </trkpt>
      <trkpt lat="60.55048" lon="5.28002">
        <ele>115.024397</ele>
        <time>2020-07-25T09:53:13.972Z</time>
      </trkpt>
      <trkpt lat="60.5506" lon="5.28001">
        <ele>114.267328</ele>
        <time>2020-07-25T09:53:16.017Z</time>
      </trkpt>
      <trkpt lat="60.55071" lon="5.27998">
        <ele>113.51391</ele>
        <time>2020-07-25T09:53:17.963Z</time>
      </trkpt>
      <trkpt lat="60.55083" lon="5.27996">
        <ele>112.663263</ele>
        <time>2020-07-25T09:53:19.987Z</time>
      </trkpt>
      <trkpt lat="60.55096" lon="5.27997">
        <ele>111.800984</ele>
        <time>2020-07-25T09:53:21.963Z</time>
      </trkpt>
      <trkpt lat="60.55108" lon="5.27998">
        <ele>111.025128</ele>
        <time>2020-07-25T09:53:23.998Z</time>
      </trkpt>
      <trkpt lat="60.55119" lon="5.28">
        <ele>110.265432</ele>
        <time>2020-07-25T09:53:25.987Z</time>
      </trkpt>
      <trkpt lat="60.5513" lon="5.28001">
        <ele>109.562553</ele>
        <time>2020-07-25T09:53:27.964Z</time>
      </trkpt>
      <trkpt lat="60.55141" lon="5.28">
        <ele>108.812777</ele>
        <time>2020-07-25T09:53:29.986Z</time>
      </trkpt>
      <trkpt lat="60.55152" lon="5.27995">
        <ele>108.023953</ele>
        <time>2020-07-25T09:53:31.971Z</time>
      </trkpt>
      <trkpt lat="60.55163" lon="5.27984">
        <ele>107.250845</ele>
        <time>2020-07-25T09:53:33.993Z</time>
      </trkpt>
      <trkpt lat="60.55172" lon="5.27969">
        <ele>106.414977</ele>
        <time>2020-07-25T09:53:35.962Z</time>
      </trkpt>
      <trkpt lat="60.55181" lon="5.27949">
        <ele>105.112434</ele>
        <time>2020-07-25T09:53:37.967Z</time>
      </trkpt>
      <trkpt lat="60.55188" lon="5.27923">
        <ele>103.651684</ele>
        <time>2020-07-25T09:53:39.966Z</time>
      </trkpt>
      <trkpt lat="60.55194" lon="5.27892">
        <ele>102.028603</ele>
        <time>2020-07-25T09:53:41.967Z</time>
      </trkpt>
      <trkpt lat="60.55199" lon="5.27859">
        <ele>100.34606</ele>
        <time>2020-07-25T09:53:43.994Z</time>
      </trkpt>
      <trkpt lat="60.55203" lon="5.27826">
        <ele>98.67283</ele>
        <time>2020-07-25T09:53:45.972Z</time>
      </trkpt>
      <trkpt lat="60.55207" lon="5.27793">
        <ele>97.032667</ele>
        <time>2020-07-25T09:53:47.969Z</time>
      </trkpt>
      <trkpt lat="60.55212" lon="5.27763">
        <ele>95.457261</ele>
        <time>2020-07-25T09:53:49.983Z</time>
      </trkpt>
      <trkpt lat="60.55219" lon="5.27731">
        <ele>93.747764</ele>
        <time>2020-07-25T09:53:52.019Z</time>
      </trkpt>
      <trkpt lat="60.55224" lon="5.27713">
        <ele>92.797277</ele>
        <time>2020-07-25T09:53:52.994Z</time>
      </trkpt>
      <trkpt lat="60.55228" lon="5.27696">
        <ele>91.842257</ele>
        <time>2020-07-25T09:53:53.967Z</time>
      </trkpt>
      <trkpt lat="60.55233" lon="5.27679">
        <ele>90.875371</ele>
        <time>2020-07-25T09:53:54.975Z</time>
      </trkpt>
      <trkpt lat="60.55238" lon="5.27663">
        <ele>89.954146</ele>
        <time>2020-07-25T09:53:55.972Z</time>
      </trkpt>
      <trkpt lat="60.55248" lon="5.27632">
        <ele>87.968283</ele>
        <time>2020-07-25T09:53:57.964Z</time>
      </trkpt>
      <trkpt lat="60.55253" lon="5.27615">
        <ele>86.658651</ele>
        <time>2020-07-25T09:53:58.974Z</time>
      </trkpt>
      <trkpt lat="60.55258" lon="5.27598">
        <ele>85.29151</ele>
        <time>2020-07-25T09:54:00.013Z</time>
      </trkpt>
      <trkpt lat="60.55263" lon="5.27581">
        <ele>83.923053</ele>
        <time>2020-07-25T09:54:00.993Z</time>
      </trkpt>
      <trkpt lat="60.55268" lon="5.27564">
        <ele>82.57453</ele>
        <time>2020-07-25T09:54:02.004Z</time>
      </trkpt>
      <trkpt lat="60.55273" lon="5.27546">
        <ele>81.17137</ele>
        <time>2020-07-25T09:54:02.973Z</time>
      </trkpt>
      <trkpt lat="60.55278" lon="5.27528">
        <ele>79.832566</ele>
        <time>2020-07-25T09:54:03.984Z</time>
      </trkpt>
      <trkpt lat="60.55282" lon="5.2751">
        <ele>78.481774</ele>
        <time>2020-07-25T09:54:04.968Z</time>
      </trkpt>
      <trkpt lat="60.55287" lon="5.27492">
        <ele>77.11821</ele>
        <time>2020-07-25T09:54:05.971Z</time>
      </trkpt>
      <trkpt lat="60.55292" lon="5.27476">
        <ele>75.802881</ele>
        <time>2020-07-25T09:54:06.987Z</time>
      </trkpt>
      <trkpt lat="60.55302" lon="5.27446">
        <ele>73.368363</ele>
        <time>2020-07-25T09:54:08.992Z</time>
      </trkpt>
      <trkpt lat="60.5531" lon="5.27417">
        <ele>71.079934</ele>
        <time>2020-07-25T09:54:10.968Z</time>
      </trkpt>
      <trkpt lat="60.55318" lon="5.27396">
        <ele>69.376571</ele>
        <time>2020-07-25T09:54:12.976Z</time>
      </trkpt>
      <trkpt lat="60.55325" lon="5.27378">
        <ele>67.817099</ele>
        <time>2020-07-25T09:54:16.997Z</time>
      </trkpt>
      <trkpt lat="60.55332" lon="5.27359">
        <ele>66.198147</ele>
        <time>2020-07-25T09:54:19.964Z</time>
      </trkpt>
      <trkpt lat="60.55338" lon="5.27343">
        <ele>64.798934</ele>
        <time>2020-07-25T09:54:21.969Z</time>
      </trkpt>
      <trkpt lat="60.55345" lon="5.27328">
        <ele>63.757582</ele>
        <time>2020-07-25T09:54:23.991Z</time>
      </trkpt>
      <trkpt lat="60.55354" lon="5.27309">
        <ele>62.990379</ele>
        <time>2020-07-25T09:54:26.965Z</time>
      </trkpt>
      <trkpt lat="60.5536" lon="5.27296">
        <ele>62.46101</ele>
        <time>2020-07-25T09:54:29.001Z</time>
      </trkpt>
      <trkpt lat="60.55369" lon="5.27276">
        <ele>61.689936</ele>
        <time>2020-07-25T09:54:32.020Z</time>
      </trkpt>
      <trkpt lat="60.55377" lon="5.27255">
        <ele>60.921796</ele>
        <time>2020-07-25T09:54:35.010Z</time>
      </trkpt>
      <trkpt lat="60.55384" lon="5.27239">
        <ele>60.282002</ele>
        <time>2020-07-25T09:54:37.003Z</time>
      </trkpt>
      <trkpt lat="60.55393" lon="5.27218">
        <ele>59.474548</ele>
        <time>2020-07-25T09:54:39.009Z</time>
      </trkpt>
      <trkpt lat="60.55404" lon="5.27196">
        <ele>58.555869</ele>
        <time>2020-07-25T09:54:40.983Z</time>
      </trkpt>
      <trkpt lat="60.55417" lon="5.27178">
        <ele>57.640914</ele>
        <time>2020-07-25T09:54:42.975Z</time>
      </trkpt>
      <trkpt lat="60.55429" lon="5.27162">
        <ele>56.815697</ele>
        <time>2020-07-25T09:54:44.972Z</time>
      </trkpt>
      <trkpt lat="60.55438" lon="5.27147">
        <ele>56.108633</ele>
        <time>2020-07-25T09:54:46.966Z</time>
      </trkpt>
      <trkpt lat="60.55447" lon="5.27131">
        <ele>55.400254</ele>
        <time>2020-07-25T09:54:48.959Z</time>
      </trkpt>
      <trkpt lat="60.55455" lon="5.27112">
        <ele>54.678632</ele>
        <time>2020-07-25T09:54:50.975Z</time>
      </trkpt>
      <trkpt lat="60.55462" lon="5.27095">
        <ele>54.048243</ele>
        <time>2020-07-25T09:54:53.000Z</time>
      </trkpt>
      <trkpt lat="60.5547" lon="5.27082">
        <ele>53.435091</ele>
        <time>2020-07-25T09:54:54.968Z</time>
      </trkpt>
      <trkpt lat="60.55477" lon="5.27071">
        <ele>54.149584</ele>
        <time>2020-07-25T09:54:57.027Z</time>
      </trkpt>
      <trkpt lat="60.55487" lon="5.27056">
        <ele>55.263905</ele>
        <time>2020-07-25T09:54:59.965Z</time>
      </trkpt>
      <trkpt lat="60.55495" lon="5.27042">
        <ele>56.2563</ele>
        <time>2020-07-25T09:55:03.988Z</time>
      </trkpt>
      <trkpt lat="60.55501" lon="5.27028">
        <ele>57.114079</ele>
        <time>2020-07-25T09:55:07.987Z</time>
      </trkpt>
      <trkpt lat="60.55508" lon="5.2701">
        <ele>58.194542</ele>
        <time>2020-07-25T09:55:11.988Z</time>
      </trkpt>
      <trkpt lat="60.55514" lon="5.26992">
        <ele>59.180223</ele>
        <time>2020-07-25T09:55:15.982Z</time>
      </trkpt>
      <trkpt lat="60.5552" lon="5.26976">
        <ele>60.138379</ele>
        <time>2020-07-25T09:55:19.981Z</time>
      </trkpt>
      <trkpt lat="60.55523" lon="5.26958">
        <ele>60.995342</ele>
        <time>2020-07-25T09:55:23.970Z</time>
      </trkpt>
      <trkpt lat="60.55524" lon="5.26938">
        <ele>61.912209</ele>
        <time>2020-07-25T09:55:29.002Z</time>
      </trkpt>
      <trkpt lat="60.55526" lon="5.26918">
        <ele>62.875603</ele>
        <time>2020-07-25T09:55:32.988Z</time>
      </trkpt>
      <trkpt lat="60.55524" lon="5.269">
        <ele>63.745145</ele>
        <time>2020-07-25T09:55:35.963Z</time>
      </trkpt>
      <trkpt lat="60.55522" lon="5.26879">
        <ele>64.720823</ele>
        <time>2020-07-25T09:55:39.997Z</time>
      </trkpt>
      <trkpt lat="60.55518" lon="5.26859">
        <ele>65.727618</ele>
        <time>2020-07-25T09:55:44.975Z</time>
      </trkpt>
      <trkpt lat="60.55513" lon="5.26843">
        <ele>66.572968</ele>
        <time>2020-07-25T09:55:49.967Z</time>
      </trkpt>
      <trkpt lat="60.55511" lon="5.26823">
        <ele>67.546147</ele>
        <time>2020-07-25T09:55:55.975Z</time>
      </trkpt>
      <trkpt lat="60.55507" lon="5.26803">
        <ele>68.492535</ele>
        <time>2020-07-25T09:56:01.987Z</time>
      </trkpt>
      <trkpt lat="60.55504" lon="5.26784">
        <ele>69.404004</ele>
        <time>2020-07-25T09:56:07.985Z</time>
      </trkpt>
      <trkpt lat="60.55502" lon="5.26766">
        <ele>70.25774</ele>
        <time>2020-07-25T09:56:13.994Z</time>
      </trkpt>
      <trkpt lat="60.55499" lon="5.26748">
        <ele>70.994945</ele>
        <time>2020-07-25T09:56:20.971Z</time>
      </trkpt>
      <trkpt lat="60.55496" lon="5.2673">
        <ele>71.762456</ele>
        <time>2020-07-25T09:56:27.990Z</time>
      </trkpt>
      <trkpt lat="60.55493" lon="5.26711">
        <ele>72.543468</ele>
        <time>2020-07-25T09:56:34.991Z</time>
      </trkpt>
      <trkpt lat="60.5549" lon="5.26692">
        <ele>73.329545</ele>
        <time>2020-07-25T09:56:42.973Z</time>
      </trkpt>
      <trkpt lat="60.55491" lon="5.26673">
        <ele>74.078947</ele>
        <time>2020-07-25T09:56:48.982Z</time>
      </trkpt>
      <trkpt lat="60.55492" lon="5.26653">
        <ele>74.864113</ele>
        <time>2020-07-25T09:56:54.966Z</time>
      </trkpt>
      <trkpt lat="60.55495" lon="5.26635">
        <ele>75.598101</ele>
        <time>2020-07-25T09:57:01.970Z</time>
      </trkpt>
      <trkpt lat="60.55498" lon="5.26618">
        <ele>76.336029</ele>
        <time>2020-07-25T09:57:08.966Z</time>
      </trkpt>
      <trkpt lat="60.55502" lon="5.26599">
        <ele>77.143334</ele>
        <time>2020-07-25T09:57:14.991Z</time>
      </trkpt>
      <trkpt lat="60.55508" lon="5.26583">
        <ele>77.931566</ele>
        <time>2020-07-25T09:57:21.001Z</time>
      </trkpt>
      <trkpt lat="60.55515" lon="5.26569">
        <ele>78.745338</ele>
        <time>2020-07-25T09:57:27.976Z</time>
      </trkpt>
      <trkpt lat="60.55522" lon="5.26557">
        <ele>79.476269</ele>
        <time>2020-07-25T09:57:33.977Z</time>
      </trkpt>
      <trkpt lat="60.55529" lon="5.26545">
        <ele>80.199832</ele>
        <time>2020-07-25T09:57:39.966Z</time>
      </trkpt>
      <trkpt lat="60.55536" lon="5.26532">
        <ele>80.974584</ele>
        <time>2020-07-25T09:57:46.985Z</time>
      </trkpt>
      <trkpt lat="60.55543" lon="5.26519">
        <ele>81.731919</ele>
        <time>2020-07-25T09:57:54.968Z</time>
      </trkpt>
      <trkpt lat="60.5555" lon="5.26506">
        <ele>82.514061</ele>
        <time>2020-07-25T09:58:01.973Z</time>
      </trkpt>
      <trkpt lat="60.55558" lon="5.26494">
        <ele>83.268641</ele>
        <time>2020-07-25T09:58:08.965Z</time>
      </trkpt>
      <trkpt lat="60.55565" lon="5.26479">
        <ele>84.073435</ele>
        <time>2020-07-25T09:58:15.980Z</time>
      </trkpt>
      <trkpt lat="60.55572" lon="5.26468">
        <ele>84.839047</ele>
        <time>2020-07-25T09:58:22.978Z</time>
      </trkpt>
      <trkpt lat="60.55581" lon="5.26457">
        <ele>85.836838</ele>
        <time>2020-07-25T09:58:29.967Z</time>
      </trkpt>
      <trkpt lat="60.55591" lon="5.26449">
        <ele>86.840882</ele>
        <time>2020-07-25T09:58:36.983Z</time>
      </trkpt>
      <trkpt lat="60.556" lon="5.26443">
        <ele>87.711816</ele>
        <time>2020-07-25T09:58:43.003Z</time>
      </trkpt>
      <trkpt lat="60.55606" lon="5.26428">
        <ele>88.578588</ele>
        <time>2020-07-25T09:58:49.970Z</time>
      </trkpt>
      <trkpt lat="60.55611" lon="5.26412">
        <ele>89.500117</ele>
        <time>2020-07-25T09:58:57.969Z</time>
      </trkpt>
      <trkpt lat="60.5562" lon="5.26399">
        <ele>90.497023</ele>
        <time>2020-07-25T09:59:04.967Z</time>
      </trkpt>
      <trkpt lat="60.55628" lon="5.26391">
        <ele>91.350617</ele>
        <time>2020-07-25T09:59:10.978Z</time>
      </trkpt>
      <trkpt lat="60.55635" lon="5.26378">
        <ele>92.308933</ele>
        <time>2020-07-25T09:59:19.008Z</time>
      </trkpt>
      <trkpt lat="60.55644" lon="5.26365">
        <ele>93.290465</ele>
        <time>2020-07-25T09:59:25.963Z</time>
      </trkpt>
      <trkpt lat="60.55652" lon="5.26358">
        <ele>94.153192</ele>
        <time>2020-07-25T09:59:31.989Z</time>
      </trkpt>
      <trkpt lat="60.5566" lon="5.26349">
        <ele>95.046758</ele>
        <time>2020-07-25T09:59:38.988Z</time>
      </trkpt>
      <trkpt lat="60.55669" lon="5.26338">
        <ele>95.955105</ele>
        <time>2020-07-25T09:59:45.966Z</time>
      </trkpt>
      <trkpt lat="60.55676" lon="5.26327">
        <ele>96.808962</ele>
        <time>2020-07-25T09:59:52.975Z</time>
      </trkpt>
      <trkpt lat="60.55684" lon="5.26318">
        <ele>97.690129</ele>
        <time>2020-07-25T10:00:00.966Z</time>
      </trkpt>
      <trkpt lat="60.55692" lon="5.2631">
        <ele>98.55218</ele>
        <time>2020-07-25T10:00:07.977Z</time>
      </trkpt>
      <trkpt lat="60.557" lon="5.26301">
        <ele>99.404869</ele>
        <time>2020-07-25T10:00:13.985Z</time>
      </trkpt>
      <trkpt lat="60.55709" lon="5.26293">
        <ele>100.339403</ele>
        <time>2020-07-25T10:00:20.012Z</time>
      </trkpt>
      <trkpt lat="60.55717" lon="5.26282">
        <ele>101.273707</ele>
        <time>2020-07-25T10:00:27.024Z</time>
      </trkpt>
      <trkpt lat="60.55725" lon="5.26272">
        <ele>101.954925</ele>
        <time>2020-07-25T10:00:33.982Z</time>
      </trkpt>
      <trkpt lat="60.55734" lon="5.26263">
        <ele>102.575104</ele>
        <time>2020-07-25T10:00:41.967Z</time>
      </trkpt>
      <trkpt lat="60.55743" lon="5.26255">
        <ele>103.164833</ele>
        <time>2020-07-25T10:00:49.006Z</time>
      </trkpt>
      <trkpt lat="60.55752" lon="5.26248">
        <ele>103.708064</ele>
        <time>2020-07-25T10:00:54.970Z</time>
      </trkpt>
      <trkpt lat="60.55761" lon="5.2624">
        <ele>104.298883</ele>
        <time>2020-07-25T10:01:01.961Z</time>
      </trkpt>
      <trkpt lat="60.55769" lon="5.26231">
        <ele>104.852908</ele>
        <time>2020-07-25T10:01:09.007Z</time>
      </trkpt>
      <trkpt lat="60.55777" lon="5.26222">
        <ele>105.413231</ele>
        <time>2020-07-25T10:01:16.007Z</time>
      </trkpt>
      <trkpt lat="60.55785" lon="5.2621">
        <ele>105.980219</ele>
        <time>2020-07-25T10:01:21.975Z</time>
      </trkpt>
      <trkpt lat="60.55791" lon="5.26197">
        <ele>106.516201</ele>
        <time>2020-07-25T10:01:26.962Z</time>
      </trkpt>
      <trkpt lat="60.55797" lon="5.26183">
        <ele>107.075948</ele>
        <time>2020-07-25T10:01:33.012Z</time>
      </trkpt>
      <trkpt lat="60.55804" lon="5.26166">
        <ele>107.697352</ele>
        <time>2020-07-25T10:01:38.971Z</time>
      </trkpt>
      <trkpt lat="60.5581" lon="5.2615">
        <ele>108.296863</ele>
        <time>2020-07-25T10:01:43.996Z</time>
      </trkpt>
      <trkpt lat="60.55815" lon="5.26134">
        <ele>108.845276</ele>
        <time>2020-07-25T10:01:47.987Z</time>
      </trkpt>
      <trkpt lat="60.55821" lon="5.26116">
        <ele>109.500935</ele>
        <time>2020-07-25T10:01:52.976Z</time>
      </trkpt>
      <trkpt lat="60.55828" lon="5.26097">
        <ele>110.19594</ele>
        <time>2020-07-25T10:01:57.993Z</time>
      </trkpt>
      <trkpt lat="60.55834" lon="5.26077">
        <ele>110.856895</ele>
        <time>2020-07-25T10:02:02.000Z</time>
      </trkpt>
      <trkpt lat="60.5584" lon="5.26063">
        <ele>111.414081</ele>
        <time>2020-07-25T10:02:05.971Z</time>
      </trkpt>
      <trkpt lat="60.55846" lon="5.26049">
        <ele>111.976572</ele>
        <time>2020-07-25T10:02:10.011Z</time>
      </trkpt>
      <trkpt lat="60.55852" lon="5.26033">
        <ele>112.341358</ele>
        <time>2020-07-25T10:02:13.992Z</time>
      </trkpt>
      <trkpt lat="60.55856" lon="5.26014">
        <ele>112.26669</ele>
        <time>2020-07-25T10:02:19.008Z</time>
      </trkpt>
      <trkpt lat="60.55864" lon="5.25981">
        <ele>112.138681</ele>
        <time>2020-07-25T10:12:40.993Z</time>
      </trkpt>
      <trkpt lat="60.55873" lon="5.25967">
        <ele>112.057683</ele>
        <time>2020-07-25T10:12:45.989Z</time>
      </trkpt>
      <trkpt lat="60.55879" lon="5.25953">
        <ele>111.991739</ele>
        <time>2020-07-25T10:12:49.011Z</time>
      </trkpt>
      <trkpt lat="60.55886" lon="5.25938">
        <ele>111.92023</ele>
        <time>2020-07-25T10:12:51.994Z</time>
      </trkpt>
      <trkpt lat="60.55892" lon="5.2592">
        <ele>111.840874</ele>
        <time>2020-07-25T10:12:54.968Z</time>
      </trkpt>
      <trkpt lat="60.55899" lon="5.25901">
        <ele>111.758839</ele>
        <time>2020-07-25T10:12:57.980Z</time>
      </trkpt>
      <trkpt lat="60.55906" lon="5.2588">
        <ele>111.665893</ele>
        <time>2020-07-25T10:13:00.963Z</time>
      </trkpt>
      <trkpt lat="60.55914" lon="5.25857">
        <ele>111.570382</ele>
        <time>2020-07-25T10:13:03.978Z</time>
      </trkpt>
      <trkpt lat="60.55922" lon="5.25836">
        <ele>111.476358</ele>
        <time>2020-07-25T10:13:06.972Z</time>
      </trkpt>
      <trkpt lat="60.5593" lon="5.25815">
        <ele>111.3799</ele>
        <time>2020-07-25T10:13:09.985Z</time>
      </trkpt>
      <trkpt lat="60.55937" lon="5.25794">
        <ele>111.288237</ele>
        <time>2020-07-25T10:13:12.981Z</time>
      </trkpt>
      <trkpt lat="60.55944" lon="5.2577">
        <ele>111.193472</ele>
        <time>2020-07-25T10:13:15.976Z</time>
      </trkpt>
      <trkpt lat="60.55947" lon="5.25754">
        <ele>111.128615</ele>
        <time>2020-07-25T10:13:17.984Z</time>
      </trkpt>
      <trkpt lat="60.55952" lon="5.25736">
        <ele>111.042638</ele>
        <time>2020-07-25T10:13:19.971Z</time>
      </trkpt>
      <trkpt lat="60.55957" lon="5.25717">
        <ele>110.872117</ele>
        <time>2020-07-25T10:13:22.044Z</time>
      </trkpt>
      <trkpt lat="60.55961" lon="5.257">
        <ele>110.708784</ele>
        <time>2020-07-25T10:13:23.982Z</time>
      </trkpt>
      <trkpt lat="60.55967" lon="5.2568">
        <ele>110.525738</ele>
        <time>2020-07-25T10:13:25.997Z</time>
      </trkpt>
      <trkpt lat="60.55973" lon="5.2566">
        <ele>110.334811</ele>
        <time>2020-07-25T10:13:27.995Z</time>
      </trkpt>
      <trkpt lat="60.55979" lon="5.25642">
        <ele>110.151837</ele>
        <time>2020-07-25T10:13:29.970Z</time>
      </trkpt>
      <trkpt lat="60.55987" lon="5.25628">
        <ele>109.982489</ele>
        <time>2020-07-25T10:13:31.983Z</time>
      </trkpt>
      <trkpt lat="60.55997" lon="5.25611">
        <ele>109.76879</ele>
        <time>2020-07-25T10:13:34.980Z</time>
      </trkpt>
      <trkpt lat="60.56004" lon="5.25592">
        <ele>109.572416</ele>
        <time>2020-07-25T10:13:38.014Z</time>
      </trkpt>
      <trkpt lat="60.56012" lon="5.2557">
        <ele>109.35942</ele>
        <time>2020-07-25T10:13:40.968Z</time>
      </trkpt>
      <trkpt lat="60.56019" lon="5.25549">
        <ele>109.147936</ele>
        <time>2020-07-25T10:13:43.973Z</time>
      </trkpt>
      <trkpt lat="60.56026" lon="5.25528">
        <ele>108.938727</ele>
        <time>2020-07-25T10:13:46.974Z</time>
      </trkpt>
      <trkpt lat="60.56033" lon="5.25507">
        <ele>108.731124</ele>
        <time>2020-07-25T10:13:50.013Z</time>
      </trkpt>
      <trkpt lat="60.56041" lon="5.25487">
        <ele>108.531376</ele>
        <time>2020-07-25T10:13:52.972Z</time>
      </trkpt>
      <trkpt lat="60.56048" lon="5.25466">
        <ele>108.323502</ele>
        <time>2020-07-25T10:13:55.990Z</time>
      </trkpt>
      <trkpt lat="60.56055" lon="5.25445">
        <ele>108.106514</ele>
        <time>2020-07-25T10:13:58.961Z</time>
      </trkpt>
      <trkpt lat="60.56061" lon="5.25429">
        <ele>108.1939</ele>
        <time>2020-07-25T10:14:00.979Z</time>
      </trkpt>
      <trkpt lat="60.56067" lon="5.25413">
        <ele>108.296149</ele>
        <time>2020-07-25T10:14:03.020Z</time>
      </trkpt>
      <trkpt lat="60.56072" lon="5.25396">
        <ele>108.400254</ele>
        <time>2020-07-25T10:14:05.015Z</time>
      </trkpt>
      <trkpt lat="60.56078" lon="5.2538">
        <ele>108.499167</ele>
        <time>2020-07-25T10:14:06.981Z</time>
      </trkpt>
      <trkpt lat="60.56085" lon="5.2536">
        <ele>108.625543</ele>
        <time>2020-07-25T10:14:09.976Z</time>
      </trkpt>
      <trkpt lat="60.56092" lon="5.2534">
        <ele>108.751052</ele>
        <time>2020-07-25T10:14:12.973Z</time>
      </trkpt>
      <trkpt lat="60.56099" lon="5.2532">
        <ele>108.876167</ele>
        <time>2020-07-25T10:14:15.996Z</time>
      </trkpt>
      <trkpt lat="60.56105" lon="5.253">
        <ele>108.998663</ele>
        <time>2020-07-25T10:14:18.983Z</time>
      </trkpt>
      <trkpt lat="60.56111" lon="5.25281">
        <ele>109.115592</ele>
        <time>2020-07-25T10:14:21.998Z</time>
      </trkpt>
      <trkpt lat="60.56116" lon="5.25264">
        <ele>109.217031</ele>
        <time>2020-07-25T10:14:25.005Z</time>
      </trkpt>
      <trkpt lat="60.56122" lon="5.25247">
        <ele>109.317957</ele>
        <time>2020-07-25T10:14:27.970Z</time>
      </trkpt>
      <trkpt lat="60.56128" lon="5.25231">
        <ele>109.423328</ele>
        <time>2020-07-25T10:14:31.012Z</time>
      </trkpt>
      <trkpt lat="60.56134" lon="5.25215">
        <ele>109.53345</ele>
        <time>2020-07-25T10:14:33.966Z</time>
      </trkpt>
      <trkpt lat="60.5614" lon="5.25198">
        <ele>109.636277</ele>
        <time>2020-07-25T10:14:36.995Z</time>
      </trkpt>
      <trkpt lat="60.56146" lon="5.25182">
        <ele>109.739123</ele>
        <time>2020-07-25T10:14:39.970Z</time>
      </trkpt>
      <trkpt lat="60.56151" lon="5.25166">
        <ele>109.835635</ele>
        <time>2020-07-25T10:14:42.986Z</time>
      </trkpt>
      <trkpt lat="60.56156" lon="5.25151">
        <ele>109.92962</ele>
        <time>2020-07-25T10:14:45.972Z</time>
      </trkpt>
      <trkpt lat="60.56162" lon="5.25137">
        <ele>109.835932</ele>
        <time>2020-07-25T10:14:49.008Z</time>
      </trkpt>
      <trkpt lat="60.56168" lon="5.25123">
        <ele>109.575118</ele>
        <time>2020-07-25T10:14:51.975Z</time>
      </trkpt>
      <trkpt lat="60.56175" lon="5.25109">
        <ele>109.294064</ele>
        <time>2020-07-25T10:14:54.991Z</time>
      </trkpt>
      <trkpt lat="60.56182" lon="5.25095">
        <ele>109.00615</ele>
        <time>2020-07-25T10:14:57.995Z</time>
      </trkpt>
      <trkpt lat="60.5619" lon="5.25078">
        <ele>108.674787</ele>
        <time>2020-07-25T10:15:02.027Z</time>
      </trkpt>
      <trkpt lat="60.56195" lon="5.25061">
        <ele>108.395833</ele>
        <time>2020-07-25T10:15:05.974Z</time>
      </trkpt>
      <trkpt lat="60.56192" lon="5.25041">
        <ele>108.111668</ele>
        <time>2020-07-25T10:15:08.974Z</time>
      </trkpt>
      <trkpt lat="60.56187" lon="5.25022">
        <ele>107.791494</ele>
        <time>2020-07-25T10:15:12.984Z</time>
      </trkpt>
      <trkpt lat="60.56178" lon="5.25017">
        <ele>107.527175</ele>
        <time>2020-07-25T10:15:18.965Z</time>
      </trkpt>
      <trkpt lat="60.56166" lon="5.25015">
        <ele>107.183246</ele>
        <time>2020-07-25T10:15:22.975Z</time>
      </trkpt>
      <trkpt lat="60.56159" lon="5.25">
        <ele>106.88714</ele>
        <time>2020-07-25T10:15:25.000Z</time>
      </trkpt>
      <trkpt lat="60.56162" lon="5.2498">
        <ele>106.581098</ele>
        <time>2020-07-25T10:15:27.975Z</time>
      </trkpt>
      <trkpt lat="60.56173" lon="5.24984">
        <ele>106.272115</ele>
        <time>2020-07-25T10:15:32.042Z</time>
      </trkpt>
      <trkpt lat="60.56181" lon="5.24995">
        <ele>105.986477</ele>
        <time>2020-07-25T10:15:36.976Z</time>
      </trkpt>
      <trkpt lat="60.56191" lon="5.25001">
        <ele>105.699356</ele>
        <time>2020-07-25T10:15:41.986Z</time>
      </trkpt>
      <trkpt lat="60.56198" lon="5.25011">
        <ele>105.426608</ele>
        <time>2020-07-25T10:15:44.967Z</time>
      </trkpt>
      <trkpt lat="60.56208" lon="5.25031">
        <ele>105.031434</ele>
        <time>2020-07-25T10:15:47.986Z</time>
      </trkpt>
      <trkpt lat="60.56218" lon="5.25048">
        <ele>105.011811</ele>
        <time>2020-07-25T10:15:50.990Z</time>
      </trkpt>
      <trkpt lat="60.56217" lon="5.25067">
        <ele>105.460823</ele>
        <time>2020-07-25T10:15:54.983Z</time>
      </trkpt>
      <trkpt lat="60.56226" lon="5.25076">
        <ele>105.939022</ele>
        <time>2020-07-25T10:16:02.986Z</time>
      </trkpt>
      <trkpt lat="60.56233" lon="5.25062">
        <ele>106.400139</ele>
        <time>2020-07-25T10:16:11.001Z</time>
      </trkpt>
      <trkpt lat="60.56236" lon="5.25041">
        <ele>106.904319</ele>
        <time>2020-07-25T10:16:17.970Z</time>
      </trkpt>
      <trkpt lat="60.56246" lon="5.25049">
        <ele>107.389127</ele>
        <time>2020-07-25T10:16:27.000Z</time>
      </trkpt>
      <trkpt lat="60.56253" lon="5.25064">
        <ele>107.868657</ele>
        <time>2020-07-25T10:16:34.975Z</time>
      </trkpt>
      <trkpt lat="60.56261" lon="5.25077">
        <ele>108.365012</ele>
        <time>2020-07-25T10:16:40.981Z</time>
      </trkpt>
      <trkpt lat="60.5627" lon="5.25088">
        <ele>108.858191</ele>
        <time>2020-07-25T10:16:46.006Z</time>
      </trkpt>
      <trkpt lat="60.56279" lon="5.25098">
        <ele>109.368136</ele>
        <time>2020-07-25T10:16:50.980Z</time>
      </trkpt>
      <trkpt lat="60.56289" lon="5.25106">
        <ele>109.868811</ele>
        <time>2020-07-25T10:16:55.992Z</time>
      </trkpt>
      <trkpt lat="60.563" lon="5.25111">
        <ele>110.396173</ele>
        <time>2020-07-25T10:17:01.000Z</time>
      </trkpt>
      <trkpt lat="60.5631" lon="5.25104">
        <ele>110.90394</ele>
        <time>2020-07-25T10:17:05.987Z</time>
      </trkpt>
      <trkpt lat="60.56318" lon="5.25093">
        <ele>111.358929</ele>
        <time>2020-07-25T10:17:10.023Z</time>
      </trkpt>
      <trkpt lat="60.56326" lon="5.25078">
        <ele>111.878545</ele>
        <time>2020-07-25T10:17:13.992Z</time>
      </trkpt>
      <trkpt lat="60.56333" lon="5.25063">
        <ele>112.389729</ele>
        <time>2020-07-25T10:17:18.013Z</time>
      </trkpt>
      <trkpt lat="60.5634" lon="5.25047">
        <ele>112.875954</ele>
        <time>2020-07-25T10:17:21.994Z</time>
      </trkpt>
      <trkpt lat="60.56347" lon="5.25029">
        <ele>113.383359</ele>
        <time>2020-07-25T10:17:26.004Z</time>
      </trkpt>
      <trkpt lat="60.56353" lon="5.25013">
        <ele>113.622381</ele>
        <time>2020-07-25T10:17:29.984Z</time>
      </trkpt>
      <trkpt lat="60.56359" lon="5.24999">
        <ele>113.841497</ele>
        <time>2020-07-25T10:17:34.978Z</time>
      </trkpt>
      <trkpt lat="60.56364" lon="5.24985">
        <ele>114.056299</ele>
        <time>2020-07-25T10:17:40.989Z</time>
      </trkpt>
      <trkpt lat="60.5637" lon="5.24967">
        <ele>114.292956</ele>
        <time>2020-07-25T10:17:46.980Z</time>
      </trkpt>
      <trkpt lat="60.56375" lon="5.24949">
        <ele>114.544852</ele>
        <time>2020-07-25T10:17:52.977Z</time>
      </trkpt>
      <trkpt lat="60.56381" lon="5.24934">
        <ele>114.763589</ele>
        <time>2020-07-25T10:17:57.978Z</time>
      </trkpt>
      <trkpt lat="60.56387" lon="5.24921">
        <ele>114.979734</ele>
        <time>2020-07-25T10:18:02.978Z</time>
      </trkpt>
      <trkpt lat="60.56394" lon="5.24908">
        <ele>115.196712</ele>
        <time>2020-07-25T10:18:07.004Z</time>
      </trkpt>
      <trkpt lat="60.564" lon="5.24896">
        <ele>115.416242</ele>
        <time>2020-07-25T10:18:09.987Z</time>
      </trkpt>
      <trkpt lat="60.5641" lon="5.24879">
        <ele>115.715909</ele>
        <time>2020-07-25T10:18:12.982Z</time>
      </trkpt>
      <trkpt lat="60.56418" lon="5.24867">
        <ele>115.951932</ele>
        <time>2020-07-25T10:18:14.992Z</time>
      </trkpt>
      <trkpt lat="60.56426" lon="5.24852">
        <ele>116.20945</ele>
        <time>2020-07-25T10:18:16.974Z</time>
      </trkpt>
      <trkpt lat="60.56435" lon="5.24836">
        <ele>116.493334</ele>
        <time>2020-07-25T10:18:19.000Z</time>
      </trkpt>
      <trkpt lat="60.56444" lon="5.24821">
        <ele>116.7754</ele>
        <time>2020-07-25T10:18:21.006Z</time>
      </trkpt>
      <trkpt lat="60.56453" lon="5.24808">
        <ele>117.035695</ele>
        <time>2020-07-25T10:18:22.994Z</time>
      </trkpt>
      <trkpt lat="60.5646" lon="5.24795">
        <ele>117.273135</ele>
        <time>2020-07-25T10:18:24.993Z</time>
      </trkpt>
      <trkpt lat="60.56468" lon="5.24784">
        <ele>117.494222</ele>
        <time>2020-07-25T10:18:27.033Z</time>
      </trkpt>
      <trkpt lat="60.56474" lon="5.24769">
        <ele>117.713401</ele>
        <time>2020-07-25T10:18:29.004Z</time>
      </trkpt>
      <trkpt lat="60.56484" lon="5.24753">
        <ele>117.960342</ele>
        <time>2020-07-25T10:18:31.987Z</time>
      </trkpt>
      <trkpt lat="60.56493" lon="5.24741">
        <ele>118.169371</ele>
        <time>2020-07-25T10:18:34.976Z</time>
      </trkpt>
      <trkpt lat="60.56501" lon="5.24727">
        <ele>118.379843</ele>
        <time>2020-07-25T10:18:37.987Z</time>
      </trkpt>
      <trkpt lat="60.5651" lon="5.24715">
        <ele>118.582937</ele>
        <time>2020-07-25T10:18:41.013Z</time>
      </trkpt>
      <trkpt lat="60.56519" lon="5.24701">
        <ele>118.809784</ele>
        <time>2020-07-25T10:18:43.976Z</time>
      </trkpt>
      <trkpt lat="60.56528" lon="5.24686">
        <ele>119.035985</ele>
        <time>2020-07-25T10:18:46.982Z</time>
      </trkpt>
      <trkpt lat="60.56538" lon="5.24665">
        <ele>119.322339</ele>
        <time>2020-07-25T10:18:49.980Z</time>
      </trkpt>
      <trkpt lat="60.56545" lon="5.24648">
        <ele>119.537241</ele>
        <time>2020-07-25T10:18:51.981Z</time>
      </trkpt>
      <trkpt lat="60.56553" lon="5.24627">
        <ele>119.798217</ele>
        <time>2020-07-25T10:18:55.009Z</time>
      </trkpt>
      <trkpt lat="60.5656" lon="5.24611">
        <ele>120.001182</ele>
        <time>2020-07-25T10:18:56.996Z</time>
      </trkpt>
      <trkpt lat="60.56568" lon="5.24596">
        <ele>120.212511</ele>
        <time>2020-07-25T10:18:58.973Z</time>
      </trkpt>
      <trkpt lat="60.56576" lon="5.2458">
        <ele>120.42993</ele>
        <time>2020-07-25T10:19:00.986Z</time>
      </trkpt>
      <trkpt lat="60.56582" lon="5.24566">
        <ele>120.611289</ele>
        <time>2020-07-25T10:19:02.968Z</time>
      </trkpt>
      <trkpt lat="60.56589" lon="5.24545">
        <ele>120.847947</ele>
        <time>2020-07-25T10:19:06.014Z</time>
      </trkpt>
      <trkpt lat="60.56593" lon="5.24526">
        <ele>121.051376</ele>
        <time>2020-07-25T10:19:08.980Z</time>
      </trkpt>
      <trkpt lat="60.56599" lon="5.24508">
        <ele>121.348365</ele>
        <time>2020-07-25T10:19:12.997Z</time>
      </trkpt>
      <trkpt lat="60.56605" lon="5.24487">
        <ele>121.806197</ele>
        <time>2020-07-25T10:19:16.986Z</time>
      </trkpt>
      <trkpt lat="60.5661" lon="5.24464">
        <ele>122.279237</ele>
        <time>2020-07-25T10:19:21.007Z</time>
      </trkpt>
      <trkpt lat="60.56615" lon="5.24447">
        <ele>122.672139</ele>
        <time>2020-07-25T10:19:23.970Z</time>
      </trkpt>
      <trkpt lat="60.5662" lon="5.24431">
        <ele>123.028775</ele>
        <time>2020-07-25T10:19:26.994Z</time>
      </trkpt>
      <trkpt lat="60.56624" lon="5.24409">
        <ele>123.473907</ele>
        <time>2020-07-25T10:19:30.988Z</time>
      </trkpt>
      <trkpt lat="60.56629" lon="5.24389">
        <ele>123.908331</ele>
        <time>2020-07-25T10:19:34.983Z</time>
      </trkpt>
      <trkpt lat="60.56635" lon="5.24372">
        <ele>124.315011</ele>
        <time>2020-07-25T10:19:39.005Z</time>
      </trkpt>
      <trkpt lat="60.56641" lon="5.24356">
        <ele>124.673854</ele>
        <time>2020-07-25T10:19:43.029Z</time>
      </trkpt>
      <trkpt lat="60.56646" lon="5.24331">
        <ele>125.198527</ele>
        <time>2020-07-25T10:21:28.006Z</time>
      </trkpt>
      <trkpt lat="60.56654" lon="5.24301">
        <ele>125.857201</ele>
        <time>2020-07-25T10:27:53.995Z</time>
      </trkpt>
      <trkpt lat="60.56658" lon="5.24284">
        <ele>126.217907</ele>
        <time>2020-07-25T10:27:59.977Z</time>
      </trkpt>
      <trkpt lat="60.56664" lon="5.2427">
        <ele>126.565984</ele>
        <time>2020-07-25T10:28:05.002Z</time>
      </trkpt>
      <trkpt lat="60.5667" lon="5.24256">
        <ele>126.919249</ele>
        <time>2020-07-25T10:28:09.993Z</time>
      </trkpt>
      <trkpt lat="60.56675" lon="5.2424">
        <ele>127.291955</ele>
        <time>2020-07-25T10:28:15.988Z</time>
      </trkpt>
      <trkpt lat="60.56679" lon="5.24221">
        <ele>127.680872</ele>
        <time>2020-07-25T10:28:22.984Z</time>
      </trkpt>
      <trkpt lat="60.56684" lon="5.24203">
        <ele>128.079459</ele>
        <time>2020-07-25T10:28:29.996Z</time>
      </trkpt>
      <trkpt lat="60.56691" lon="5.2419">
        <ele>128.109267</ele>
        <time>2020-07-25T10:28:35.974Z</time>
      </trkpt>
      <trkpt lat="60.56699" lon="5.24177">
        <ele>127.989001</ele>
        <time>2020-07-25T10:28:41.978Z</time>
      </trkpt>
      <trkpt lat="60.56705" lon="5.24163">
        <ele>127.876642</ele>
        <time>2020-07-25T10:28:46.975Z</time>
      </trkpt>
      <trkpt lat="60.5671" lon="5.24147">
        <ele>127.761505</ele>
        <time>2020-07-25T10:28:51.971Z</time>
      </trkpt>
      <trkpt lat="60.56717" lon="5.24133">
        <ele>127.64714</ele>
        <time>2020-07-25T10:28:56.969Z</time>
      </trkpt>
      <trkpt lat="60.56723" lon="5.2412">
        <ele>127.535497</ele>
        <time>2020-07-25T10:29:01.969Z</time>
      </trkpt>
      <trkpt lat="60.5673" lon="5.24103">
        <ele>127.406888</ele>
        <time>2020-07-25T10:29:07.982Z</time>
      </trkpt>
      <trkpt lat="60.56737" lon="5.24081">
        <ele>127.253908</ele>
        <time>2020-07-25T10:29:11.993Z</time>
      </trkpt>
      <trkpt lat="60.56742" lon="5.24065">
        <ele>127.138294</ele>
        <time>2020-07-25T10:29:13.991Z</time>
      </trkpt>
      <trkpt lat="60.56749" lon="5.24044">
        <ele>126.985423</ele>
        <time>2020-07-25T10:29:15.982Z</time>
      </trkpt>
      <trkpt lat="60.56758" lon="5.24023">
        <ele>126.824011</ele>
        <time>2020-07-25T10:29:17.984Z</time>
      </trkpt>
      <trkpt lat="60.56766" lon="5.24003">
        <ele>126.667954</ele>
        <time>2020-07-25T10:29:19.989Z</time>
      </trkpt>
      <trkpt lat="60.56774" lon="5.23984">
        <ele>126.516845</ele>
        <time>2020-07-25T10:29:22.015Z</time>
      </trkpt>
      <trkpt lat="60.56782" lon="5.23965">
        <ele>126.367996</ele>
        <time>2020-07-25T10:29:24.014Z</time>
      </trkpt>
      <trkpt lat="60.56791" lon="5.23946">
        <ele>126.217915</ele>
        <time>2020-07-25T10:29:25.987Z</time>
      </trkpt>
      <trkpt lat="60.56802" lon="5.23927">
        <ele>126.041159</ele>
        <time>2020-07-25T10:29:27.976Z</time>
      </trkpt>
      <trkpt lat="60.56816" lon="5.23905">
        <ele>124.651886</ele>
        <time>2020-07-25T10:29:29.985Z</time>
      </trkpt>
      <trkpt lat="60.56824" lon="5.23894">
        <ele>123.838151</ele>
        <time>2020-07-25T10:29:31.029Z</time>
      </trkpt>
      <trkpt lat="60.56831" lon="5.23883">
        <ele>123.029049</ele>
        <time>2020-07-25T10:29:32.007Z</time>
      </trkpt>
      <trkpt lat="60.56845" lon="5.23862">
        <ele>121.507984</ele>
        <time>2020-07-25T10:29:34.008Z</time>
      </trkpt>
      <trkpt lat="60.56858" lon="5.23845">
        <ele>120.184202</ele>
        <time>2020-07-25T10:29:35.979Z</time>
      </trkpt>
      <trkpt lat="60.56869" lon="5.23831">
        <ele>119.013122</ele>
        <time>2020-07-25T10:29:37.984Z</time>
      </trkpt>
      <trkpt lat="60.5688" lon="5.23817">
        <ele>117.911296</ele>
        <time>2020-07-25T10:29:39.964Z</time>
      </trkpt>
      <trkpt lat="60.56891" lon="5.238">
        <ele>116.667318</ele>
        <time>2020-07-25T10:29:41.962Z</time>
      </trkpt>
      <trkpt lat="60.56905" lon="5.23782">
        <ele>115.261835</ele>
        <time>2020-07-25T10:29:43.979Z</time>
      </trkpt>
      <trkpt lat="60.56919" lon="5.23763">
        <ele>113.743267</ele>
        <time>2020-07-25T10:29:45.975Z</time>
      </trkpt>
      <trkpt lat="60.56933" lon="5.23744">
        <ele>112.253578</ele>
        <time>2020-07-25T10:29:48.005Z</time>
      </trkpt>
      <trkpt lat="60.56948" lon="5.23725">
        <ele>110.768615</ele>
        <time>2020-07-25T10:29:49.988Z</time>
      </trkpt>
      <trkpt lat="60.56962" lon="5.23705">
        <ele>109.266935</ele>
        <time>2020-07-25T10:29:51.983Z</time>
      </trkpt>
      <trkpt lat="60.56977" lon="5.23688">
        <ele>107.733728</ele>
        <time>2020-07-25T10:29:53.979Z</time>
      </trkpt>
      <trkpt lat="60.5699" lon="5.23671">
        <ele>106.323222</ele>
        <time>2020-07-25T10:29:56.015Z</time>
      </trkpt>
      <trkpt lat="60.57002" lon="5.23656">
        <ele>105.070933</ele>
        <time>2020-07-25T10:29:58.018Z</time>
      </trkpt>
      <trkpt lat="60.57014" lon="5.2364">
        <ele>103.858288</ele>
        <time>2020-07-25T10:30:00.000Z</time>
      </trkpt>
      <trkpt lat="60.57027" lon="5.23626">
        <ele>102.546033</ele>
        <time>2020-07-25T10:30:01.994Z</time>
      </trkpt>
      <trkpt lat="60.57041" lon="5.23611">
        <ele>101.089741</ele>
        <time>2020-07-25T10:30:03.983Z</time>
      </trkpt>
      <trkpt lat="60.57049" lon="5.23603">
        <ele>100.293994</ele>
        <time>2020-07-25T10:30:04.991Z</time>
      </trkpt>
      <trkpt lat="60.57065" lon="5.23588">
        <ele>98.749452</ele>
        <time>2020-07-25T10:30:06.995Z</time>
      </trkpt>
      <trkpt lat="60.57075" lon="5.23574">
        <ele>97.634817</ele>
        <time>2020-07-25T10:30:09.002Z</time>
      </trkpt>
      <trkpt lat="60.57084" lon="5.23551">
        <ele>96.379026</ele>
        <time>2020-07-25T10:30:11.988Z</time>
      </trkpt>
      <trkpt lat="60.57091" lon="5.23539">
        <ele>95.567361</ele>
        <time>2020-07-25T10:30:13.973Z</time>
      </trkpt>
      <trkpt lat="60.5709" lon="5.23517">
        <ele>94.608476</ele>
        <time>2020-07-25T10:30:16.978Z</time>
      </trkpt>
      <trkpt lat="60.57084" lon="5.23496">
        <ele>94.065535</ele>
        <time>2020-07-25T10:30:20.980Z</time>
      </trkpt>
      <trkpt lat="60.57073" lon="5.23492">
        <ele>93.747651</ele>
        <time>2020-07-25T10:30:23.976Z</time>
      </trkpt>
      <trkpt lat="60.57064" lon="5.23501">
        <ele>93.480493</ele>
        <time>2020-07-25T10:30:25.999Z</time>
      </trkpt>
      <trkpt lat="60.57058" lon="5.23517">
        <ele>93.211121</ele>
        <time>2020-07-25T10:30:27.981Z</time>
      </trkpt>
      <trkpt lat="60.57052" lon="5.23533">
        <ele>92.944438</ele>
        <time>2020-07-25T10:30:29.974Z</time>
      </trkpt>
      <trkpt lat="60.57045" lon="5.23546">
        <ele>92.69008</ele>
        <time>2020-07-25T10:30:31.974Z</time>
      </trkpt>
      <trkpt lat="60.57038" lon="5.23557">
        <ele>92.439592</ele>
        <time>2020-07-25T10:30:35.000Z</time>
      </trkpt>
      <trkpt lat="60.57048" lon="5.23554">
        <ele>92.15402</ele>
        <time>2020-07-25T10:30:58.982Z</time>
      </trkpt>
      <trkpt lat="60.57055" lon="5.23542">
        <ele>91.903109</ele>
        <time>2020-07-25T10:31:01.007Z</time>
      </trkpt>
      <trkpt lat="60.57063" lon="5.23528">
        <ele>91.608657</ele>
        <time>2020-07-25T10:31:02.987Z</time>
      </trkpt>
      <trkpt lat="60.57072" lon="5.23508">
        <ele>91.254972</ele>
        <time>2020-07-25T10:31:04.985Z</time>
      </trkpt>
      <trkpt lat="60.57081" lon="5.2349">
        <ele>90.901474</ele>
        <time>2020-07-25T10:31:06.968Z</time>
      </trkpt>
      <trkpt lat="60.57093" lon="5.23471">
        <ele>90.508471</ele>
        <time>2020-07-25T10:31:08.991Z</time>
      </trkpt>
      <trkpt lat="60.57102" lon="5.23452">
        <ele>90.13865</ele>
        <time>2020-07-25T10:31:10.986Z</time>
      </trkpt>
      <trkpt lat="60.57109" lon="5.23433">
        <ele>89.827187</ele>
        <time>2020-07-25T10:31:12.999Z</time>
      </trkpt>
      <trkpt lat="60.57112" lon="5.23414">
        <ele>89.569389</ele>
        <time>2020-07-25T10:31:15.031Z</time>
      </trkpt>
      <trkpt lat="60.57107" lon="5.23392">
        <ele>89.063204</ele>
        <time>2020-07-25T10:31:17.987Z</time>
      </trkpt>
      <trkpt lat="60.57108" lon="5.23366">
        <ele>88.346798</ele>
        <time>2020-07-25T10:31:20.980Z</time>
      </trkpt>
      <trkpt lat="60.57113" lon="5.23344">
        <ele>87.664611</ele>
        <time>2020-07-25T10:31:23.975Z</time>
      </trkpt>
      <trkpt lat="60.5712" lon="5.2333">
        <ele>87.141982</ele>
        <time>2020-07-25T10:31:28.004Z</time>
      </trkpt>
      <trkpt lat="60.57116" lon="5.23314">
        <ele>86.630609</ele>
        <time>2020-07-25T10:31:32.015Z</time>
      </trkpt>
      <trkpt lat="60.57114" lon="5.23295">
        <ele>86.116349</ele>
        <time>2020-07-25T10:31:38.003Z</time>
      </trkpt>
      <trkpt lat="60.57121" lon="5.23263">
        <ele>85.143152</ele>
        <time>2020-07-25T10:35:38.003Z</time>
      </trkpt>
      <trkpt lat="60.57124" lon="5.23243">
        <ele>84.565273</ele>
        <time>2020-07-25T10:35:40.978Z</time>
      </trkpt>
      <trkpt lat="60.57126" lon="5.23224">
        <ele>84.035811</ele>
        <time>2020-07-25T10:35:45.005Z</time>
      </trkpt>
      <trkpt lat="60.57125" lon="5.23201">
        <ele>83.383507</ele>
        <time>2020-07-25T10:35:48.030Z</time>
      </trkpt>
      <trkpt lat="60.57124" lon="5.23181">
        <ele>82.835514</ele>
        <time>2020-07-25T10:35:49.972Z</time>
      </trkpt>
      <trkpt lat="60.57122" lon="5.2316">
        <ele>82.224861</ele>
        <time>2020-07-25T10:35:51.975Z</time>
      </trkpt>
      <trkpt lat="60.57119" lon="5.23137">
        <ele>81.581942</ele>
        <time>2020-07-25T10:35:54.000Z</time>
      </trkpt>
      <trkpt lat="60.57117" lon="5.23114">
        <ele>80.924489</ele>
        <time>2020-07-25T10:35:56.018Z</time>
      </trkpt>
      <trkpt lat="60.57117" lon="5.23094">
        <ele>80.39058</ele>
        <time>2020-07-25T10:35:57.979Z</time>
      </trkpt>
      <trkpt lat="60.57118" lon="5.23071">
        <ele>79.749132</ele>
        <time>2020-07-25T10:36:02.017Z</time>
      </trkpt>
      <trkpt lat="60.57116" lon="5.23051">
        <ele>79.256778</ele>
        <time>2020-07-25T10:36:04.986Z</time>
      </trkpt>
      <trkpt lat="60.57114" lon="5.23032">
        <ele>79.08759</ele>
        <time>2020-07-25T10:36:07.980Z</time>
      </trkpt>
      <trkpt lat="60.57112" lon="5.23012">
        <ele>78.908806</ele>
        <time>2020-07-25T10:36:10.977Z</time>
      </trkpt>
      <trkpt lat="60.57111" lon="5.22992">
        <ele>78.739163</ele>
        <time>2020-07-25T10:36:13.977Z</time>
      </trkpt>
      <trkpt lat="60.5711" lon="5.22972">
        <ele>78.56165</ele>
        <time>2020-07-25T10:36:17.009Z</time>
      </trkpt>
      <trkpt lat="60.57109" lon="5.22952">
        <ele>78.391608</ele>
        <time>2020-07-25T10:36:19.974Z</time>
      </trkpt>
      <trkpt lat="60.57108" lon="5.22934">
        <ele>78.229599</ele>
        <time>2020-07-25T10:36:22.990Z</time>
      </trkpt>
      <trkpt lat="60.57106" lon="5.22915">
        <ele>78.061777</ele>
        <time>2020-07-25T10:36:25.996Z</time>
      </trkpt>
      <trkpt lat="60.57105" lon="5.22895">
        <ele>77.886386</ele>
        <time>2020-07-25T10:36:29.003Z</time>
      </trkpt>
      <trkpt lat="60.57103" lon="5.22874">
        <ele>77.703321</ele>
        <time>2020-07-25T10:36:32.004Z</time>
      </trkpt>
      <trkpt lat="60.57102" lon="5.22852">
        <ele>77.51397</ele>
        <time>2020-07-25T10:36:34.987Z</time>
      </trkpt>
      <trkpt lat="60.57099" lon="5.2283">
        <ele>77.319397</ele>
        <time>2020-07-25T10:36:38.006Z</time>
      </trkpt>
      <trkpt lat="60.57098" lon="5.22808">
        <ele>77.124612</ele>
        <time>2020-07-25T10:36:40.983Z</time>
      </trkpt>
      <trkpt lat="60.57096" lon="5.22784">
        <ele>76.909272</ele>
        <time>2020-07-25T10:36:44.002Z</time>
      </trkpt>
      <trkpt lat="60.57094" lon="5.22759">
        <ele>76.69119</ele>
        <time>2020-07-25T10:36:46.990Z</time>
      </trkpt>
      <trkpt lat="60.57093" lon="5.22735">
        <ele>76.484701</ele>
        <time>2020-07-25T10:36:49.988Z</time>
      </trkpt>
      <trkpt lat="60.57093" lon="5.22717">
        <ele>76.324709</ele>
        <time>2020-07-25T10:36:52.019Z</time>
      </trkpt>
      <trkpt lat="60.57095" lon="5.22698">
        <ele>76.157637</ele>
        <time>2020-07-25T10:36:54.007Z</time>
      </trkpt>
      <trkpt lat="60.57097" lon="5.22679">
        <ele>76.441807</ele>
        <time>2020-07-25T10:36:55.972Z</time>
      </trkpt>
      <trkpt lat="60.57101" lon="5.2266">
        <ele>76.904341</ele>
        <time>2020-07-25T10:36:57.987Z</time>
      </trkpt>
      <trkpt lat="60.57107" lon="5.22644">
        <ele>77.357443</ele>
        <time>2020-07-25T10:36:59.979Z</time>
      </trkpt>
      <trkpt lat="60.57114" lon="5.2263">
        <ele>77.810738</ele>
        <time>2020-07-25T10:37:01.980Z</time>
      </trkpt>
      <trkpt lat="60.57122" lon="5.22616">
        <ele>78.295661</ele>
        <time>2020-07-25T10:37:03.982Z</time>
      </trkpt>
      <trkpt lat="60.5713" lon="5.22604">
        <ele>78.765944</ele>
        <time>2020-07-25T10:37:05.988Z</time>
      </trkpt>
      <trkpt lat="60.57138" lon="5.22592">
        <ele>79.219673</ele>
        <time>2020-07-25T10:37:07.981Z</time>
      </trkpt>
      <trkpt lat="60.5715" lon="5.2258">
        <ele>79.842419</ele>
        <time>2020-07-25T10:37:10.966Z</time>
      </trkpt>
      <trkpt lat="60.57159" lon="5.22574">
        <ele>80.29172</ele>
        <time>2020-07-25T10:37:12.988Z</time>
      </trkpt>
      <trkpt lat="60.57169" lon="5.2257">
        <ele>80.743911</ele>
        <time>2020-07-25T10:37:14.974Z</time>
      </trkpt>
      <trkpt lat="60.57182" lon="5.22564">
        <ele>81.340631</ele>
        <time>2020-07-25T10:37:17.988Z</time>
      </trkpt>
      <trkpt lat="60.57192" lon="5.22558">
        <ele>81.835513</ele>
        <time>2020-07-25T10:37:21.021Z</time>
      </trkpt>
      <trkpt lat="60.57201" lon="5.2255">
        <ele>82.309256</ele>
        <time>2020-07-25T10:37:24.994Z</time>
      </trkpt>
      <trkpt lat="60.5721" lon="5.22542">
        <ele>82.739672</ele>
        <time>2020-07-25T10:37:29.014Z</time>
      </trkpt>
      <trkpt lat="60.5722" lon="5.22536">
        <ele>83.208635</ele>
        <time>2020-07-25T10:37:33.976Z</time>
      </trkpt>
      <trkpt lat="60.57229" lon="5.22527">
        <ele>83.682377</ele>
        <time>2020-07-25T10:37:37.970Z</time>
      </trkpt>
      <trkpt lat="60.57238" lon="5.2252">
        <ele>84.14793</ele>
        <time>2020-07-25T10:37:41.987Z</time>
      </trkpt>
      <trkpt lat="60.57248" lon="5.22513">
        <ele>84.500857</ele>
        <time>2020-07-25T10:37:45.990Z</time>
      </trkpt>
      <trkpt lat="60.57257" lon="5.22504">
        <ele>84.672939</ele>
        <time>2020-07-25T10:37:49.984Z</time>
      </trkpt>
      <trkpt lat="60.57266" lon="5.22496">
        <ele>84.840875</ele>
        <time>2020-07-25T10:37:53.975Z</time>
      </trkpt>
      <trkpt lat="60.57275" lon="5.22489">
        <ele>85.007548</ele>
        <time>2020-07-25T10:37:58.983Z</time>
      </trkpt>
      <trkpt lat="60.57285" lon="5.22478">
        <ele>85.193819</ele>
        <time>2020-07-25T10:38:03.986Z</time>
      </trkpt>
      <trkpt lat="60.57294" lon="5.22467">
        <ele>85.382235</ele>
        <time>2020-07-25T10:38:09.011Z</time>
      </trkpt>
      <trkpt lat="60.57304" lon="5.22455">
        <ele>85.574451</ele>
        <time>2020-07-25T10:38:13.991Z</time>
      </trkpt>
      <trkpt lat="60.57313" lon="5.22444">
        <ele>85.757554</ele>
        <time>2020-07-25T10:38:18.967Z</time>
      </trkpt>
      <trkpt lat="60.57322" lon="5.22433">
        <ele>85.944721</ele>
        <time>2020-07-25T10:38:23.987Z</time>
      </trkpt>
      <trkpt lat="60.57331" lon="5.2242">
        <ele>86.13174</ele>
        <time>2020-07-25T10:38:29.009Z</time>
      </trkpt>
      <trkpt lat="60.57338" lon="5.22409">
        <ele>86.291658</ele>
        <time>2020-07-25T10:38:32.973Z</time>
      </trkpt>
      <trkpt lat="60.57346" lon="5.22396">
        <ele>86.460261</ele>
        <time>2020-07-25T10:38:36.985Z</time>
      </trkpt>
      <trkpt lat="60.57355" lon="5.22386">
        <ele>86.636361</ele>
        <time>2020-07-25T10:38:40.976Z</time>
      </trkpt>
      <trkpt lat="60.57364" lon="5.22377">
        <ele>86.803906</ele>
        <time>2020-07-25T10:38:44.974Z</time>
      </trkpt>
      <trkpt lat="60.57373" lon="5.22375">
        <ele>86.967077</ele>
        <time>2020-07-25T10:38:49.986Z</time>
      </trkpt>
      <trkpt lat="60.57383" lon="5.22372">
        <ele>87.142523</ele>
        <time>2020-07-25T10:38:53.983Z</time>
      </trkpt>
      <trkpt lat="60.57393" lon="5.22363">
        <ele>87.322934</ele>
        <time>2020-07-25T10:38:56.983Z</time>
      </trkpt>
      <trkpt lat="60.57404" lon="5.22348">
        <ele>87.408177</ele>
        <time>2020-07-25T10:38:59.971Z</time>
      </trkpt>
      <trkpt lat="60.57412" lon="5.22336">
        <ele>86.920436</ele>
        <time>2020-07-25T10:39:01.988Z</time>
      </trkpt>
      <trkpt lat="60.57424" lon="5.22324">
        <ele>86.318892</ele>
        <time>2020-07-25T10:39:03.986Z</time>
      </trkpt>
      <trkpt lat="60.57436" lon="5.2231">
        <ele>85.632465</ele>
        <time>2020-07-25T10:39:06.000Z</time>
      </trkpt>
      <trkpt lat="60.57451" lon="5.22293">
        <ele>84.844787</ele>
        <time>2020-07-25T10:39:07.977Z</time>
      </trkpt>
      <trkpt lat="60.57458" lon="5.22284">
        <ele>84.416335</ele>
        <time>2020-07-25T10:39:08.990Z</time>
      </trkpt>
      <trkpt lat="60.57467" lon="5.22276">
        <ele>83.964518</ele>
        <time>2020-07-25T10:39:10.004Z</time>
      </trkpt>
      <trkpt lat="60.57476" lon="5.22268">
        <ele>83.505869</ele>
        <time>2020-07-25T10:39:10.997Z</time>
      </trkpt>
      <trkpt lat="60.57485" lon="5.22259">
        <ele>83.042931</ele>
        <time>2020-07-25T10:39:11.971Z</time>
      </trkpt>
      <trkpt lat="60.57494" lon="5.2225">
        <ele>82.557807</ele>
        <time>2020-07-25T10:39:12.968Z</time>
      </trkpt>
      <trkpt lat="60.57503" lon="5.22241">
        <ele>82.071747</ele>
        <time>2020-07-25T10:39:13.989Z</time>
      </trkpt>
      <trkpt lat="60.57512" lon="5.22231">
        <ele>81.585687</ele>
        <time>2020-07-25T10:39:14.977Z</time>
      </trkpt>
      <trkpt lat="60.57521" lon="5.22222">
        <ele>81.087933</ele>
        <time>2020-07-25T10:39:16.009Z</time>
      </trkpt>
      <trkpt lat="60.57531" lon="5.22212">
        <ele>80.58705</ele>
        <time>2020-07-25T10:39:16.977Z</time>
      </trkpt>
      <trkpt lat="60.5754" lon="5.22202">
        <ele>80.07968</ele>
        <time>2020-07-25T10:39:18.016Z</time>
      </trkpt>
      <trkpt lat="60.5755" lon="5.22191">
        <ele>79.564789</ele>
        <time>2020-07-25T10:39:18.989Z</time>
      </trkpt>
      <trkpt lat="60.57559" lon="5.22181">
        <ele>79.06689</ele>
        <time>2020-07-25T10:39:19.995Z</time>
      </trkpt>
      <trkpt lat="60.57568" lon="5.22171">
        <ele>78.717739</ele>
        <time>2020-07-25T10:39:20.994Z</time>
      </trkpt>
      <trkpt lat="60.57576" lon="5.22162">
        <ele>78.406996</ele>
        <time>2020-07-25T10:39:21.977Z</time>
      </trkpt>
      <trkpt lat="60.57585" lon="5.22153">
        <ele>78.101848</ele>
        <time>2020-07-25T10:39:22.992Z</time>
      </trkpt>
      <trkpt lat="60.57593" lon="5.22143">
        <ele>77.797451</ele>
        <time>2020-07-25T10:39:23.988Z</time>
      </trkpt>
      <trkpt lat="60.57601" lon="5.22134">
        <ele>77.490015</ele>
        <time>2020-07-25T10:39:25.005Z</time>
      </trkpt>
      <trkpt lat="60.5761" lon="5.22124">
        <ele>77.181025</ele>
        <time>2020-07-25T10:39:25.974Z</time>
      </trkpt>
      <trkpt lat="60.57618" lon="5.22114">
        <ele>76.866919</ele>
        <time>2020-07-25T10:39:27.011Z</time>
      </trkpt>
      <trkpt lat="60.57627" lon="5.22104">
        <ele>76.562621</ele>
        <time>2020-07-25T10:39:27.987Z</time>
      </trkpt>
      <trkpt lat="60.57635" lon="5.22095">
        <ele>76.272399</ele>
        <time>2020-07-25T10:39:28.973Z</time>
      </trkpt>
      <trkpt lat="60.5765" lon="5.22079">
        <ele>75.727659</ele>
        <time>2020-07-25T10:39:30.991Z</time>
      </trkpt>
      <trkpt lat="60.57664" lon="5.22063">
        <ele>75.208201</ele>
        <time>2020-07-25T10:39:32.987Z</time>
      </trkpt>
      <trkpt lat="60.57679" lon="5.22046">
        <ele>74.673062</ele>
        <time>2020-07-25T10:39:34.981Z</time>
      </trkpt>
      <trkpt lat="60.57692" lon="5.22029">
        <ele>74.16607</ele>
        <time>2020-07-25T10:39:36.993Z</time>
      </trkpt>
      <trkpt lat="60.57705" lon="5.22012">
        <ele>73.683125</ele>
        <time>2020-07-25T10:39:38.973Z</time>
      </trkpt>
      <trkpt lat="60.57717" lon="5.21994">
        <ele>73.247798</ele>
        <time>2020-07-25T10:39:40.996Z</time>
      </trkpt>
      <trkpt lat="60.57729" lon="5.21976">
        <ele>73.338163</ele>
        <time>2020-07-25T10:39:42.973Z</time>
      </trkpt>
      <trkpt lat="60.57741" lon="5.21958">
        <ele>73.428929</ele>
        <time>2020-07-25T10:39:44.985Z</time>
      </trkpt>
      <trkpt lat="60.57754" lon="5.2194">
        <ele>73.520589</ele>
        <time>2020-07-25T10:39:47.031Z</time>
      </trkpt>
      <trkpt lat="60.57766" lon="5.21923">
        <ele>73.608249</ele>
        <time>2020-07-25T10:39:48.971Z</time>
      </trkpt>
      <trkpt lat="60.57778" lon="5.21906">
        <ele>73.696231</ele>
        <time>2020-07-25T10:39:50.983Z</time>
      </trkpt>
      <trkpt lat="60.5779" lon="5.2189">
        <ele>73.784386</ele>
        <time>2020-07-25T10:39:53.007Z</time>
      </trkpt>
      <trkpt lat="60.57803" lon="5.21874">
        <ele>73.873774</ele>
        <time>2020-07-25T10:39:54.985Z</time>
      </trkpt>
      <trkpt lat="60.57815" lon="5.2186">
        <ele>73.9598</ele>
        <time>2020-07-25T10:39:56.985Z</time>
      </trkpt>
      <trkpt lat="60.57827" lon="5.21848">
        <ele>74.040867</ele>
        <time>2020-07-25T10:39:59.023Z</time>
      </trkpt>
      <trkpt lat="60.5784" lon="5.21838">
        <ele>74.120839</ele>
        <time>2020-07-25T10:40:00.999Z</time>
      </trkpt>
      <trkpt lat="60.57852" lon="5.21829">
        <ele>74.200163</ele>
        <time>2020-07-25T10:40:02.989Z</time>
      </trkpt>
      <trkpt lat="60.57864" lon="5.21819">
        <ele>74.278046</ele>
        <time>2020-07-25T10:40:05.009Z</time>
      </trkpt>
      <trkpt lat="60.57875" lon="5.2181">
        <ele>74.231117</ele>
        <time>2020-07-25T10:40:06.987Z</time>
      </trkpt>
      <trkpt lat="60.57887" lon="5.218">
        <ele>73.973693</ele>
        <time>2020-07-25T10:40:08.981Z</time>
      </trkpt>
      <trkpt lat="60.57898" lon="5.2179">
        <ele>73.709531</ele>
        <time>2020-07-25T10:40:11.011Z</time>
      </trkpt>
      <trkpt lat="60.57911" lon="5.2178">
        <ele>73.431528</ele>
        <time>2020-07-25T10:40:12.979Z</time>
      </trkpt>
      <trkpt lat="60.57924" lon="5.21766">
        <ele>73.129904</ele>
        <time>2020-07-25T10:40:14.986Z</time>
      </trkpt>
      <trkpt lat="60.57937" lon="5.21747">
        <ele>72.797813</ele>
        <time>2020-07-25T10:40:17.006Z</time>
      </trkpt>
      <trkpt lat="60.57949" lon="5.21725">
        <ele>72.457631</ele>
        <time>2020-07-25T10:40:18.998Z</time>
      </trkpt>
      <trkpt lat="60.5796" lon="5.21699">
        <ele>72.107538</ele>
        <time>2020-07-25T10:40:20.976Z</time>
      </trkpt>
      <trkpt lat="60.57972" lon="5.21671">
        <ele>71.732467</ele>
        <time>2020-07-25T10:40:22.986Z</time>
      </trkpt>
      <trkpt lat="60.57979" lon="5.21658">
        <ele>71.538214</ele>
        <time>2020-07-25T10:40:24.015Z</time>
      </trkpt>
      <trkpt lat="60.57986" lon="5.21645">
        <ele>71.341125</ele>
        <time>2020-07-25T10:40:25.021Z</time>
      </trkpt>
      <trkpt lat="60.57994" lon="5.21634">
        <ele>71.14349</ele>
        <time>2020-07-25T10:40:25.992Z</time>
      </trkpt>
      <trkpt lat="60.58001" lon="5.21623">
        <ele>70.947676</ele>
        <time>2020-07-25T10:40:26.989Z</time>
      </trkpt>
      <trkpt lat="60.58009" lon="5.21613">
        <ele>70.761011</ele>
        <time>2020-07-25T10:40:27.993Z</time>
      </trkpt>
      <trkpt lat="60.58023" lon="5.21593">
        <ele>70.750077</ele>
        <time>2020-07-25T10:40:29.974Z</time>
      </trkpt>
      <trkpt lat="60.58037" lon="5.21571">
        <ele>71.043516</ele>
        <time>2020-07-25T10:40:31.971Z</time>
      </trkpt>
      <trkpt lat="60.58049" lon="5.21549">
        <ele>71.321555</ele>
        <time>2020-07-25T10:40:33.991Z</time>
      </trkpt>
      <trkpt lat="60.58061" lon="5.21528">
        <ele>71.589182</ele>
        <time>2020-07-25T10:40:36.015Z</time>
      </trkpt>
      <trkpt lat="60.58072" lon="5.21508">
        <ele>71.84013</ele>
        <time>2020-07-25T10:40:37.992Z</time>
      </trkpt>
      <trkpt lat="60.58081" lon="5.2149">
        <ele>72.058127</ele>
        <time>2020-07-25T10:40:39.987Z</time>
      </trkpt>
      <trkpt lat="60.5809" lon="5.21473">
        <ele>72.267027</ele>
        <time>2020-07-25T10:40:41.985Z</time>
      </trkpt>
      <trkpt lat="60.581" lon="5.21457">
        <ele>72.475757</ele>
        <time>2020-07-25T10:40:43.983Z</time>
      </trkpt>
      <trkpt lat="60.58109" lon="5.21443">
        <ele>72.671567</ele>
        <time>2020-07-25T10:40:45.976Z</time>
      </trkpt>
      <trkpt lat="60.58118" lon="5.21429">
        <ele>72.866151</ele>
        <time>2020-07-25T10:40:47.995Z</time>
      </trkpt>
      <trkpt lat="60.58127" lon="5.21416">
        <ele>73.051564</ele>
        <time>2020-07-25T10:40:49.984Z</time>
      </trkpt>
      <trkpt lat="60.58135" lon="5.21404">
        <ele>73.221467</ele>
        <time>2020-07-25T10:40:51.992Z</time>
      </trkpt>
      <trkpt lat="60.58145" lon="5.2139">
        <ele>73.425737</ele>
        <time>2020-07-25T10:40:54.995Z</time>
      </trkpt>
      <trkpt lat="60.58153" lon="5.21376">
        <ele>73.604919</ele>
        <time>2020-07-25T10:40:57.988Z</time>
      </trkpt>
      <trkpt lat="60.5816" lon="5.21365">
        <ele>74.280095</ele>
        <time>2020-07-25T10:41:00.976Z</time>
      </trkpt>
      <trkpt lat="60.58169" lon="5.21351">
        <ele>75.382355</ele>
        <time>2020-07-25T10:41:04.977Z</time>
      </trkpt>
      <trkpt lat="60.58176" lon="5.2134">
        <ele>76.280537</ele>
        <time>2020-07-25T10:41:08.000Z</time>
      </trkpt>
      <trkpt lat="60.58183" lon="5.21328">
        <ele>77.165753</ele>
        <time>2020-07-25T10:41:10.993Z</time>
      </trkpt>
      <trkpt lat="60.58191" lon="5.21314">
        <ele>78.234468</ele>
        <time>2020-07-25T10:41:14.987Z</time>
      </trkpt>
      <trkpt lat="60.58201" lon="5.21302">
        <ele>79.339136</ele>
        <time>2020-07-25T10:41:19.007Z</time>
      </trkpt>
      <trkpt lat="60.58208" lon="5.21291">
        <ele>80.223042</ele>
        <time>2020-07-25T10:41:22.003Z</time>
      </trkpt>
      <trkpt lat="60.58217" lon="5.21282">
        <ele>81.15006</ele>
        <time>2020-07-25T10:41:24.995Z</time>
      </trkpt>
      <trkpt lat="60.58225" lon="5.2127">
        <ele>82.172491</ele>
        <time>2020-07-25T10:41:27.985Z</time>
      </trkpt>
      <trkpt lat="60.58235" lon="5.21258">
        <ele>83.309936</ele>
        <time>2020-07-25T10:41:31.992Z</time>
      </trkpt>
      <trkpt lat="60.58242" lon="5.21247">
        <ele>84.220823</ele>
        <time>2020-07-25T10:41:34.987Z</time>
      </trkpt>
      <trkpt lat="60.58251" lon="5.21235">
        <ele>85.262237</ele>
        <time>2020-07-25T10:41:39.002Z</time>
      </trkpt>
      <trkpt lat="60.5826" lon="5.21223">
        <ele>86.34448</ele>
        <time>2020-07-25T10:41:42.980Z</time>
      </trkpt>
      <trkpt lat="60.58269" lon="5.21209">
        <ele>87.435676</ele>
        <time>2020-07-25T10:41:46.968Z</time>
      </trkpt>
      <trkpt lat="60.58278" lon="5.21197">
        <ele>88.507566</ele>
        <time>2020-07-25T10:41:50.969Z</time>
      </trkpt>
      <trkpt lat="60.58287" lon="5.21187">
        <ele>89.479243</ele>
        <time>2020-07-25T10:41:54.024Z</time>
      </trkpt>
      <trkpt lat="60.58296" lon="5.21173">
        <ele>90.616541</ele>
        <time>2020-07-25T10:41:58.009Z</time>
      </trkpt>
      <trkpt lat="60.58304" lon="5.2116">
        <ele>91.389524</ele>
        <time>2020-07-25T10:42:02.006Z</time>
      </trkpt>
      <trkpt lat="60.58311" lon="5.21149">
        <ele>91.413931</ele>
        <time>2020-07-25T10:42:05.987Z</time>
      </trkpt>
      <trkpt lat="60.5832" lon="5.21137">
        <ele>91.441647</ele>
        <time>2020-07-25T10:42:09.978Z</time>
      </trkpt>
      <trkpt lat="60.58328" lon="5.21125">
        <ele>91.469588</ele>
        <time>2020-07-25T10:42:13.971Z</time>
      </trkpt>
      <trkpt lat="60.58337" lon="5.21112">
        <ele>91.498005</ele>
        <time>2020-07-25T10:42:17.976Z</time>
      </trkpt>
      <trkpt lat="60.58346" lon="5.21099">
        <ele>91.527907</ele>
        <time>2020-07-25T10:42:22.000Z</time>
      </trkpt>
      <trkpt lat="60.58353" lon="5.21087">
        <ele>91.553108</ele>
        <time>2020-07-25T10:42:25.986Z</time>
      </trkpt>
      <trkpt lat="60.58362" lon="5.21074">
        <ele>91.583089</ele>
        <time>2020-07-25T10:42:29.985Z</time>
      </trkpt>
      <trkpt lat="60.5837" lon="5.21061">
        <ele>91.611426</ele>
        <time>2020-07-25T10:42:33.993Z</time>
      </trkpt>
      <trkpt lat="60.58379" lon="5.21049">
        <ele>91.640506</ele>
        <time>2020-07-25T10:42:37.994Z</time>
      </trkpt>
      <trkpt lat="60.58389" lon="5.21039">
        <ele>91.669481</ele>
        <time>2020-07-25T10:42:41.997Z</time>
      </trkpt>
      <trkpt lat="60.58398" lon="5.21029">
        <ele>91.697062</ele>
        <time>2020-07-25T10:42:45.984Z</time>
      </trkpt>
      <trkpt lat="60.58407" lon="5.21017">
        <ele>91.725755</ele>
        <time>2020-07-25T10:42:49.981Z</time>
      </trkpt>
      <trkpt lat="60.58413" lon="5.21006">
        <ele>91.750076</ele>
        <time>2020-07-25T10:42:52.993Z</time>
      </trkpt>
      <trkpt lat="60.5842" lon="5.20994">
        <ele>91.774568</ele>
        <time>2020-07-25T10:42:55.983Z</time>
      </trkpt>
      <trkpt lat="60.58427" lon="5.20981">
        <ele>91.799583</ele>
        <time>2020-07-25T10:42:59.005Z</time>
      </trkpt>
      <trkpt lat="60.58437" lon="5.20967">
        <ele>91.831147</ele>
        <time>2020-07-25T10:43:02.986Z</time>
      </trkpt>
      <trkpt lat="60.58444" lon="5.20955">
        <ele>91.85795</ele>
        <time>2020-07-25T10:43:06.015Z</time>
      </trkpt>
      <trkpt lat="60.58455" lon="5.2094">
        <ele>91.707539</ele>
        <time>2020-07-25T10:43:09.040Z</time>
      </trkpt>
      <trkpt lat="60.58463" lon="5.20931">
        <ele>91.52538</ele>
        <time>2020-07-25T10:43:11.001Z</time>
      </trkpt>
      <trkpt lat="60.58472" lon="5.20922">
        <ele>91.332294</ele>
        <time>2020-07-25T10:43:12.973Z</time>
      </trkpt>
      <trkpt lat="60.58482" lon="5.20912">
        <ele>91.129035</ele>
        <time>2020-07-25T10:43:15.015Z</time>
      </trkpt>
      <trkpt lat="60.58491" lon="5.20902">
        <ele>90.930398</ele>
        <time>2020-07-25T10:43:16.978Z</time>
      </trkpt>
      <trkpt lat="60.585" lon="5.20892">
        <ele>90.746874</ele>
        <time>2020-07-25T10:43:18.997Z</time>
      </trkpt>
      <trkpt lat="60.58511" lon="5.20879">
        <ele>90.492216</ele>
        <time>2020-07-25T10:43:21.997Z</time>
      </trkpt>
      <trkpt lat="60.58522" lon="5.20864">
        <ele>90.242708</ele>
        <time>2020-07-25T10:43:24.974Z</time>
      </trkpt>
      <trkpt lat="60.58533" lon="5.20848">
        <ele>89.984293</ele>
        <time>2020-07-25T10:43:27.988Z</time>
      </trkpt>
      <trkpt lat="60.58541" lon="5.20836">
        <ele>89.795015</ele>
        <time>2020-07-25T10:43:30.008Z</time>
      </trkpt>
      <trkpt lat="60.58548" lon="5.20823">
        <ele>89.621794</ele>
        <time>2020-07-25T10:43:31.974Z</time>
      </trkpt>
      <trkpt lat="60.58558" lon="5.20812">
        <ele>89.400322</ele>
        <time>2020-07-25T10:43:33.995Z</time>
      </trkpt>
      <trkpt lat="60.5857" lon="5.20805">
        <ele>89.161766</ele>
        <time>2020-07-25T10:43:35.986Z</time>
      </trkpt>
      <trkpt lat="60.58584" lon="5.20794">
        <ele>88.882235</ele>
        <time>2020-07-25T10:43:37.997Z</time>
      </trkpt>
      <trkpt lat="60.58598" lon="5.20783">
        <ele>88.590597</ele>
        <time>2020-07-25T10:43:39.983Z</time>
      </trkpt>
      <trkpt lat="60.58614" lon="5.20775">
        <ele>87.804131</ele>
        <time>2020-07-25T10:43:41.971Z</time>
      </trkpt>
      <trkpt lat="60.58631" lon="5.2077">
        <ele>86.617857</ele>
        <time>2020-07-25T10:43:43.994Z</time>
      </trkpt>
      <trkpt lat="60.58647" lon="5.20763">
        <ele>85.448898</ele>
        <time>2020-07-25T10:43:45.977Z</time>
      </trkpt>
      <trkpt lat="60.58663" lon="5.20756">
        <ele>84.259074</ele>
        <time>2020-07-25T10:43:48.032Z</time>
      </trkpt>
      <trkpt lat="60.58681" lon="5.2075">
        <ele>83.018627</ele>
        <time>2020-07-25T10:43:50.007Z</time>
      </trkpt>
      <trkpt lat="60.5869" lon="5.20747">
        <ele>82.32959</ele>
        <time>2020-07-25T10:43:50.996Z</time>
      </trkpt>
      <trkpt lat="60.587" lon="5.20745">
        <ele>81.634002</ele>
        <time>2020-07-25T10:43:51.980Z</time>
      </trkpt>
      <trkpt lat="60.5871" lon="5.20742">
        <ele>80.904475</ele>
        <time>2020-07-25T10:43:53.005Z</time>
      </trkpt>
      <trkpt lat="60.5872" lon="5.20741">
        <ele>80.184133</ele>
        <time>2020-07-25T10:43:53.988Z</time>
      </trkpt>
      <trkpt lat="60.58731" lon="5.20739">
        <ele>79.443367</ele>
        <time>2020-07-25T10:43:54.978Z</time>
      </trkpt>
      <trkpt lat="60.58741" lon="5.20738">
        <ele>78.738517</ele>
        <time>2020-07-25T10:43:55.974Z</time>
      </trkpt>
      <trkpt lat="60.5875" lon="5.20736">
        <ele>78.046482</ele>
        <time>2020-07-25T10:43:56.993Z</time>
      </trkpt>
      <trkpt lat="60.5876" lon="5.20733">
        <ele>77.351357</ele>
        <time>2020-07-25T10:43:57.982Z</time>
      </trkpt>
      <trkpt lat="60.58769" lon="5.20731">
        <ele>76.670318</ele>
        <time>2020-07-25T10:43:59.002Z</time>
      </trkpt>
      <trkpt lat="60.58779" lon="5.20728">
        <ele>75.99632</ele>
        <time>2020-07-25T10:43:59.978Z</time>
      </trkpt>
      <trkpt lat="60.58788" lon="5.20725">
        <ele>75.417873</ele>
        <time>2020-07-25T10:44:00.982Z</time>
      </trkpt>
      <trkpt lat="60.58798" lon="5.20722">
        <ele>74.941399</ele>
        <time>2020-07-25T10:44:01.970Z</time>
      </trkpt>
      <trkpt lat="60.58807" lon="5.20718">
        <ele>74.481553</ele>
        <time>2020-07-25T10:44:03.042Z</time>
      </trkpt>
      <trkpt lat="60.58816" lon="5.20715">
        <ele>74.026665</ele>
        <time>2020-07-25T10:44:03.992Z</time>
      </trkpt>
      <trkpt lat="60.58833" lon="5.20709">
        <ele>73.153297</ele>
        <time>2020-07-25T10:44:05.976Z</time>
      </trkpt>
      <trkpt lat="60.58849" lon="5.20703">
        <ele>72.307413</ele>
        <time>2020-07-25T10:44:07.994Z</time>
      </trkpt>
      <trkpt lat="60.58865" lon="5.20696">
        <ele>71.512352</ele>
        <time>2020-07-25T10:44:09.986Z</time>
      </trkpt>
      <trkpt lat="60.58879" lon="5.2069">
        <ele>70.768886</ele>
        <time>2020-07-25T10:44:12.013Z</time>
      </trkpt>
      <trkpt lat="60.58893" lon="5.20684">
        <ele>70.058123</ele>
        <time>2020-07-25T10:44:13.982Z</time>
      </trkpt>
      <trkpt lat="60.58908" lon="5.20677">
        <ele>69.287911</ele>
        <time>2020-07-25T10:44:16.002Z</time>
      </trkpt>
      <trkpt lat="60.58921" lon="5.20669">
        <ele>68.584875</ele>
        <time>2020-07-25T10:44:17.980Z</time>
      </trkpt>
      <trkpt lat="60.58933" lon="5.20663">
        <ele>67.961136</ele>
        <time>2020-07-25T10:44:19.975Z</time>
      </trkpt>
      <trkpt lat="60.58946" lon="5.20657">
        <ele>67.317462</ele>
        <time>2020-07-25T10:44:21.987Z</time>
      </trkpt>
      <trkpt lat="60.58959" lon="5.20651">
        <ele>66.656358</ele>
        <time>2020-07-25T10:44:23.989Z</time>
      </trkpt>
      <trkpt lat="60.58971" lon="5.20645">
        <ele>66.765926</ele>
        <time>2020-07-25T10:44:25.999Z</time>
      </trkpt>
      <trkpt lat="60.58983" lon="5.20639">
        <ele>66.919735</ele>
        <time>2020-07-25T10:44:28.015Z</time>
      </trkpt>
      <trkpt lat="60.58995" lon="5.20633">
        <ele>67.069716</ele>
        <time>2020-07-25T10:44:30.003Z</time>
      </trkpt>
      <trkpt lat="60.59009" lon="5.20627">
        <ele>67.246236</ele>
        <time>2020-07-25T10:44:31.993Z</time>
      </trkpt>
      <trkpt lat="60.59024" lon="5.20622">
        <ele>67.422399</ele>
        <time>2020-07-25T10:44:33.986Z</time>
      </trkpt>
      <trkpt lat="60.59038" lon="5.20616">
        <ele>67.595101</ele>
        <time>2020-07-25T10:44:35.983Z</time>
      </trkpt>
      <trkpt lat="60.5905" lon="5.2061">
        <ele>67.751702</ele>
        <time>2020-07-25T10:44:37.983Z</time>
      </trkpt>
      <trkpt lat="60.59062" lon="5.20606">
        <ele>67.899359</ele>
        <time>2020-07-25T10:44:39.988Z</time>
      </trkpt>
      <trkpt lat="60.59073" lon="5.20602">
        <ele>68.03297</ele>
        <time>2020-07-25T10:44:41.976Z</time>
      </trkpt>
      <trkpt lat="60.59083" lon="5.20598">
        <ele>68.155376</ele>
        <time>2020-07-25T10:44:43.993Z</time>
      </trkpt>
      <trkpt lat="60.59092" lon="5.20595">
        <ele>68.269892</ele>
        <time>2020-07-25T10:44:45.971Z</time>
      </trkpt>
      <trkpt lat="60.59101" lon="5.20593">
        <ele>68.379329</ele>
        <time>2020-07-25T10:44:48.007Z</time>
      </trkpt>
      <trkpt lat="60.59114" lon="5.20592">
        <ele>68.533928</ele>
        <time>2020-07-25T10:44:51.016Z</time>
      </trkpt>
      <trkpt lat="60.59124" lon="5.20593">
        <ele>68.659348</ele>
        <time>2020-07-25T10:44:53.974Z</time>
      </trkpt>
      <trkpt lat="60.59135" lon="5.20593">
        <ele>68.790815</ele>
        <time>2020-07-25T10:44:57.986Z</time>
      </trkpt>
      <trkpt lat="60.59145" lon="5.20593">
        <ele>69.041864</ele>
        <time>2020-07-25T10:45:01.980Z</time>
      </trkpt>
      <trkpt lat="60.59156" lon="5.20593">
        <ele>69.339528</ele>
        <time>2020-07-25T10:45:04.973Z</time>
      </trkpt>
      <trkpt lat="60.59166" lon="5.20591">
        <ele>69.582593</ele>
        <time>2020-07-25T10:45:06.967Z</time>
      </trkpt>
      <trkpt lat="60.59175" lon="5.20589">
        <ele>69.829992</ele>
        <time>2020-07-25T10:45:08.999Z</time>
      </trkpt>
      <trkpt lat="60.59188" lon="5.20586">
        <ele>70.171138</ele>
        <time>2020-07-25T10:45:12.011Z</time>
      </trkpt>
      <trkpt lat="60.592" lon="5.20583">
        <ele>70.485562</ele>
        <time>2020-07-25T10:45:14.994Z</time>
      </trkpt>
      <trkpt lat="60.5921" lon="5.20578">
        <ele>70.772789</ele>
        <time>2020-07-25T10:45:17.977Z</time>
      </trkpt>
      <trkpt lat="60.59221" lon="5.20573">
        <ele>71.064761</ele>
        <time>2020-07-25T10:45:21.006Z</time>
      </trkpt>
      <trkpt lat="60.59232" lon="5.20568">
        <ele>71.349967</ele>
        <time>2020-07-25T10:45:23.999Z</time>
      </trkpt>
      <trkpt lat="60.59241" lon="5.20564">
        <ele>71.610355</ele>
        <time>2020-07-25T10:45:26.986Z</time>
      </trkpt>
      <trkpt lat="60.59252" lon="5.20558">
        <ele>71.913138</ele>
        <time>2020-07-25T10:45:29.995Z</time>
      </trkpt>
      <trkpt lat="60.59261" lon="5.20553">
        <ele>72.154094</ele>
        <time>2020-07-25T10:45:32.996Z</time>
      </trkpt>
      <trkpt lat="60.5927" lon="5.2055">
        <ele>72.402487</ele>
        <time>2020-07-25T10:45:36.011Z</time>
      </trkpt>
      <trkpt lat="60.5928" lon="5.20547">
        <ele>72.650463</ele>
        <time>2020-07-25T10:45:38.979Z</time>
      </trkpt>
      <trkpt lat="60.5929" lon="5.20543">
        <ele>72.923092</ele>
        <time>2020-07-25T10:45:42.005Z</time>
      </trkpt>
      <trkpt lat="60.59301" lon="5.20539">
        <ele>73.215245</ele>
        <time>2020-07-25T10:45:44.995Z</time>
      </trkpt>
      <trkpt lat="60.59313" lon="5.20534">
        <ele>73.533997</ele>
        <time>2020-07-25T10:45:48.007Z</time>
      </trkpt>
      <trkpt lat="60.59325" lon="5.20529">
        <ele>74.178426</ele>
        <time>2020-07-25T10:45:51.002Z</time>
      </trkpt>
      <trkpt lat="60.59335" lon="5.20525">
        <ele>74.750438</ele>
        <time>2020-07-25T10:45:54.007Z</time>
      </trkpt>
      <trkpt lat="60.59344" lon="5.20523">
        <ele>75.2372</ele>
        <time>2020-07-25T10:45:56.989Z</time>
      </trkpt>
      <trkpt lat="60.59354" lon="5.2052">
        <ele>75.747113</ele>
        <time>2020-07-25T10:46:00.004Z</time>
      </trkpt>
      <trkpt lat="60.59363" lon="5.20515">
        <ele>76.283929</ele>
        <time>2020-07-25T10:46:03.036Z</time>
      </trkpt>
      <trkpt lat="60.59373" lon="5.20511">
        <ele>76.809176</ele>
        <time>2020-07-25T10:46:05.988Z</time>
      </trkpt>
      <trkpt lat="60.59384" lon="5.20507">
        <ele>77.388461</ele>
        <time>2020-07-25T10:46:09.984Z</time>
      </trkpt>
      <trkpt lat="60.59393" lon="5.20501">
        <ele>77.890473</ele>
        <time>2020-07-25T10:46:12.999Z</time>
      </trkpt>
      <trkpt lat="60.59401" lon="5.20496">
        <ele>78.378308</ele>
        <time>2020-07-25T10:46:15.982Z</time>
      </trkpt>
      <trkpt lat="60.59411" lon="5.2049">
        <ele>78.907402</ele>
        <time>2020-07-25T10:46:19.013Z</time>
      </trkpt>
      <trkpt lat="60.59421" lon="5.20484">
        <ele>79.481068</ele>
        <time>2020-07-25T10:46:22.015Z</time>
      </trkpt>
      <trkpt lat="60.5943" lon="5.20478">
        <ele>79.982261</ele>
        <time>2020-07-25T10:46:25.003Z</time>
      </trkpt>
      <trkpt lat="60.59441" lon="5.20469">
        <ele>80.631436</ele>
        <time>2020-07-25T10:46:28.988Z</time>
      </trkpt>
      <trkpt lat="60.5945" lon="5.20465">
        <ele>81.119957</ele>
        <time>2020-07-25T10:46:32.017Z</time>
      </trkpt>
      <trkpt lat="60.5946" lon="5.20459">
        <ele>81.689487</ele>
        <time>2020-07-25T10:46:35.000Z</time>
      </trkpt>
      <trkpt lat="60.59472" lon="5.20454">
        <ele>82.307075</ele>
        <time>2020-07-25T10:46:37.993Z</time>
      </trkpt>
      <trkpt lat="60.59482" lon="5.2045">
        <ele>82.893778</ele>
        <time>2020-07-25T10:46:40.975Z</time>
      </trkpt>
      <trkpt lat="60.59492" lon="5.20445">
        <ele>83.352655</ele>
        <time>2020-07-25T10:46:44.004Z</time>
      </trkpt>
      <trkpt lat="60.59504" lon="5.20441">
        <ele>83.768139</ele>
        <time>2020-07-25T10:46:46.982Z</time>
      </trkpt>
      <trkpt lat="60.59514" lon="5.20437">
        <ele>84.13411</ele>
        <time>2020-07-25T10:46:49.984Z</time>
      </trkpt>
      <trkpt lat="60.59523" lon="5.20432">
        <ele>84.460937</ele>
        <time>2020-07-25T10:46:53.000Z</time>
      </trkpt>
      <trkpt lat="60.59532" lon="5.20427">
        <ele>84.817172</ele>
        <time>2020-07-25T10:46:56.031Z</time>
      </trkpt>
      <trkpt lat="60.59542" lon="5.2042">
        <ele>85.190947</ele>
        <time>2020-07-25T10:46:58.967Z</time>
      </trkpt>
      <trkpt lat="60.59554" lon="5.20412">
        <ele>85.638589</ele>
        <time>2020-07-25T10:47:01.976Z</time>
      </trkpt>
      <trkpt lat="60.59566" lon="5.20405">
        <ele>86.062428</ele>
        <time>2020-07-25T10:47:04.977Z</time>
      </trkpt>
      <trkpt lat="60.59574" lon="5.20398">
        <ele>86.394677</ele>
        <time>2020-07-25T10:47:07.988Z</time>
      </trkpt>
      <trkpt lat="60.59586" lon="5.20392">
        <ele>86.825867</ele>
        <time>2020-07-25T10:47:11.978Z</time>
      </trkpt>
      <trkpt lat="60.59596" lon="5.20388">
        <ele>87.199477</ele>
        <time>2020-07-25T10:47:15.021Z</time>
      </trkpt>
      <trkpt lat="60.59607" lon="5.20384">
        <ele>87.578212</ele>
        <time>2020-07-25T10:47:17.988Z</time>
      </trkpt>
      <trkpt lat="60.59616" lon="5.2038">
        <ele>87.926284</ele>
        <time>2020-07-25T10:47:20.995Z</time>
      </trkpt>
      <trkpt lat="60.59626" lon="5.20376">
        <ele>88.300843</ele>
        <time>2020-07-25T10:47:24.971Z</time>
      </trkpt>
      <trkpt lat="60.59638" lon="5.20372">
        <ele>88.707334</ele>
        <time>2020-07-25T10:47:28.977Z</time>
      </trkpt>
      <trkpt lat="60.59649" lon="5.20366">
        <ele>89.127254</ele>
        <time>2020-07-25T10:47:32.987Z</time>
      </trkpt>
      <trkpt lat="60.59659" lon="5.20357">
        <ele>89.511263</ele>
        <time>2020-07-25T10:47:37.014Z</time>
      </trkpt>
      <trkpt lat="60.59669" lon="5.20346">
        <ele>89.590916</ele>
        <time>2020-07-25T10:47:41.038Z</time>
      </trkpt>
      <trkpt lat="60.59677" lon="5.20338">
        <ele>89.580381</ele>
        <time>2020-07-25T10:47:43.985Z</time>
      </trkpt>
      <trkpt lat="60.59686" lon="5.20331">
        <ele>89.570035</ele>
        <time>2020-07-25T10:47:47.012Z</time>
      </trkpt>
      <trkpt lat="60.59694" lon="5.20323">
        <ele>89.558846</ele>
        <time>2020-07-25T10:47:49.995Z</time>
      </trkpt>
      <trkpt lat="60.59704" lon="5.20317">
        <ele>89.547083</ele>
        <time>2020-07-25T10:47:53.985Z</time>
      </trkpt>
      <trkpt lat="60.59713" lon="5.20312">
        <ele>89.536639</ele>
        <time>2020-07-25T10:47:56.976Z</time>
      </trkpt>
      <trkpt lat="60.59722" lon="5.20308">
        <ele>89.525795</ele>
        <time>2020-07-25T10:47:59.998Z</time>
      </trkpt>
      <trkpt lat="60.59732" lon="5.20304">
        <ele>89.513521</ele>
        <time>2020-07-25T10:48:02.973Z</time>
      </trkpt>
      <trkpt lat="60.59745" lon="5.203">
        <ele>89.498508</ele>
        <time>2020-07-25T10:48:05.988Z</time>
      </trkpt>
      <trkpt lat="60.59756" lon="5.20298">
        <ele>89.486394</ele>
        <time>2020-07-25T10:48:07.995Z</time>
      </trkpt>
      <trkpt lat="60.59765" lon="5.20296">
        <ele>89.475464</ele>
        <time>2020-07-25T10:48:09.973Z</time>
      </trkpt>
      <trkpt lat="60.59774" lon="5.20292">
        <ele>89.465017</ele>
        <time>2020-07-25T10:48:11.971Z</time>
      </trkpt>
      <trkpt lat="60.59786" lon="5.20289">
        <ele>89.450758</ele>
        <time>2020-07-25T10:48:15.003Z</time>
      </trkpt>
      <trkpt lat="60.59797" lon="5.20286">
        <ele>89.437927</ele>
        <time>2020-07-25T10:48:17.991Z</time>
      </trkpt>
      <trkpt lat="60.59807" lon="5.20283">
        <ele>89.426265</ele>
        <time>2020-07-25T10:48:20.984Z</time>
      </trkpt>
      <trkpt lat="60.59819" lon="5.20278">
        <ele>89.412344</ele>
        <time>2020-07-25T10:48:24.019Z</time>
      </trkpt>
      <trkpt lat="60.59831" lon="5.2027">
        <ele>89.397732</ele>
        <time>2020-07-25T10:48:26.981Z</time>
      </trkpt>
      <trkpt lat="60.59842" lon="5.20262">
        <ele>89.421727</ele>
        <time>2020-07-25T10:48:29.971Z</time>
      </trkpt>
      <trkpt lat="60.59853" lon="5.20254">
        <ele>89.464645</ele>
        <time>2020-07-25T10:48:33.008Z</time>
      </trkpt>
      <trkpt lat="60.59861" lon="5.20247">
        <ele>89.497898</ele>
        <time>2020-07-25T10:48:34.971Z</time>
      </trkpt>
      <trkpt lat="60.5987" lon="5.2024">
        <ele>89.53299</ele>
        <time>2020-07-25T10:48:36.978Z</time>
      </trkpt>
      <trkpt lat="60.59879" lon="5.20231">
        <ele>89.568598</ele>
        <time>2020-07-25T10:48:38.992Z</time>
      </trkpt>
      <trkpt lat="60.59887" lon="5.20223">
        <ele>89.601575</ele>
        <time>2020-07-25T10:48:41.005Z</time>
      </trkpt>
      <trkpt lat="60.59898" lon="5.2021">
        <ele>89.648221</ele>
        <time>2020-07-25T10:48:43.992Z</time>
      </trkpt>
      <trkpt lat="60.59909" lon="5.20197">
        <ele>89.693596</ele>
        <time>2020-07-25T10:48:46.983Z</time>
      </trkpt>
      <trkpt lat="60.59919" lon="5.20187">
        <ele>89.737678</ele>
        <time>2020-07-25T10:48:49.989Z</time>
      </trkpt>
      <trkpt lat="60.5993" lon="5.20174">
        <ele>89.781262</ele>
        <time>2020-07-25T10:48:52.999Z</time>
      </trkpt>
      <trkpt lat="60.5994" lon="5.20163">
        <ele>89.825014</ele>
        <time>2020-07-25T10:48:55.978Z</time>
      </trkpt>
      <trkpt lat="60.59949" lon="5.20149">
        <ele>89.864949</ele>
        <time>2020-07-25T10:48:59.001Z</time>
      </trkpt>
      <trkpt lat="60.5996" lon="5.20134">
        <ele>89.912342</ele>
        <time>2020-07-25T10:49:02.023Z</time>
      </trkpt>
      <trkpt lat="60.59967" lon="5.20125">
        <ele>89.945548</ele>
        <time>2020-07-25T10:49:03.990Z</time>
      </trkpt>
      <trkpt lat="60.59976" lon="5.20116">
        <ele>89.979999</ele>
        <time>2020-07-25T10:49:06.004Z</time>
      </trkpt>
      <trkpt lat="60.59984" lon="5.20107">
        <ele>90.015591</ele>
        <time>2020-07-25T10:49:07.975Z</time>
      </trkpt>
      <trkpt lat="60.59993" lon="5.20099">
        <ele>90.049797</ele>
        <time>2020-07-25T10:49:10.031Z</time>
      </trkpt>
      <trkpt lat="60.60002" lon="5.20093">
        <ele>89.986535</ele>
        <time>2020-07-25T10:49:12.003Z</time>
      </trkpt>
      <trkpt lat="60.6001" lon="5.20087">
        <ele>89.919384</ele>
        <time>2020-07-25T10:49:13.980Z</time>
      </trkpt>
      <trkpt lat="60.60023" lon="5.20079">
        <ele>89.821185</ele>
        <time>2020-07-25T10:49:17.022Z</time>
      </trkpt>
      <trkpt lat="60.60035" lon="5.2007">
        <ele>89.727416</ele>
        <time>2020-07-25T10:49:19.999Z</time>
      </trkpt>
      <trkpt lat="60.60046" lon="5.20057">
        <ele>89.637578</ele>
        <time>2020-07-25T10:49:22.993Z</time>
      </trkpt>
      <trkpt lat="60.60056" lon="5.20042">
        <ele>89.540978</ele>
        <time>2020-07-25T10:49:25.993Z</time>
      </trkpt>
      <trkpt lat="60.60067" lon="5.20025">
        <ele>89.441625</ele>
        <time>2020-07-25T10:49:29.014Z</time>
      </trkpt>
      <trkpt lat="60.60074" lon="5.20013">
        <ele>89.373243</ele>
        <time>2020-07-25T10:49:31.001Z</time>
      </trkpt>
      <trkpt lat="60.60081" lon="5.20001">
        <ele>89.306617</ele>
        <time>2020-07-25T10:49:33.024Z</time>
      </trkpt>
      <trkpt lat="60.60088" lon="5.19989">
        <ele>89.240067</ele>
        <time>2020-07-25T10:49:34.994Z</time>
      </trkpt>
      <trkpt lat="60.60097" lon="5.19971">
        <ele>89.14411</ele>
        <time>2020-07-25T10:49:38.022Z</time>
      </trkpt>
      <trkpt lat="60.60107" lon="5.19953">
        <ele>89.048062</ele>
        <time>2020-07-25T10:49:41.023Z</time>
      </trkpt>
      <trkpt lat="60.60116" lon="5.19936">
        <ele>88.95368</ele>
        <time>2020-07-25T10:49:44.004Z</time>
      </trkpt>
      <trkpt lat="60.60126" lon="5.19921">
        <ele>88.863085</ele>
        <time>2020-07-25T10:49:46.990Z</time>
      </trkpt>
      <trkpt lat="60.60136" lon="5.19904">
        <ele>88.770766</ele>
        <time>2020-07-25T10:49:49.993Z</time>
      </trkpt>
      <trkpt lat="60.60145" lon="5.1989">
        <ele>88.779905</ele>
        <time>2020-07-25T10:49:53.027Z</time>
      </trkpt>
      <trkpt lat="60.60154" lon="5.19875">
        <ele>88.884699</ele>
        <time>2020-07-25T10:49:55.985Z</time>
      </trkpt>
      <trkpt lat="60.60162" lon="5.19859">
        <ele>88.998199</ele>
        <time>2020-07-25T10:49:59.030Z</time>
      </trkpt>
      <trkpt lat="60.60171" lon="5.19842">
        <ele>89.113836</ele>
        <time>2020-07-25T10:50:02.007Z</time>
      </trkpt>
      <trkpt lat="60.60182" lon="5.19823">
        <ele>89.248976</ele>
        <time>2020-07-25T10:50:04.975Z</time>
      </trkpt>
      <trkpt lat="60.6019" lon="5.19809">
        <ele>89.351926</ele>
        <time>2020-07-25T10:50:06.981Z</time>
      </trkpt>
      <trkpt lat="60.60198" lon="5.19795">
        <ele>89.450107</ele>
        <time>2020-07-25T10:50:08.984Z</time>
      </trkpt>
      <trkpt lat="60.60206" lon="5.19783">
        <ele>89.547814</ele>
        <time>2020-07-25T10:50:10.973Z</time>
      </trkpt>
      <trkpt lat="60.60214" lon="5.19772">
        <ele>89.640159</ele>
        <time>2020-07-25T10:50:13.004Z</time>
      </trkpt>
      <trkpt lat="60.60222" lon="5.1976">
        <ele>89.737281</ele>
        <time>2020-07-25T10:50:14.988Z</time>
      </trkpt>
      <trkpt lat="60.6023" lon="5.19748">
        <ele>89.832195</ele>
        <time>2020-07-25T10:50:16.976Z</time>
      </trkpt>
      <trkpt lat="60.60237" lon="5.19737">
        <ele>89.923011</ele>
        <time>2020-07-25T10:50:18.997Z</time>
      </trkpt>
      <trkpt lat="60.60248" lon="5.19721">
        <ele>90.050452</ele>
        <time>2020-07-25T10:50:22.019Z</time>
      </trkpt>
      <trkpt lat="60.60258" lon="5.19705">
        <ele>90.173275</ele>
        <time>2020-07-25T10:50:24.991Z</time>
      </trkpt>
      <trkpt lat="60.60268" lon="5.1969">
        <ele>90.292769</ele>
        <time>2020-07-25T10:50:27.970Z</time>
      </trkpt>
      <trkpt lat="60.60276" lon="5.1968">
        <ele>90.382352</ele>
        <time>2020-07-25T10:50:29.976Z</time>
      </trkpt>
      <trkpt lat="60.60284" lon="5.1967">
        <ele>90.457171</ele>
        <time>2020-07-25T10:50:31.974Z</time>
      </trkpt>
      <trkpt lat="60.60293" lon="5.19661">
        <ele>90.470376</ele>
        <time>2020-07-25T10:50:33.995Z</time>
      </trkpt>
      <trkpt lat="60.60301" lon="5.19652">
        <ele>90.483418</ele>
        <time>2020-07-25T10:50:35.988Z</time>
      </trkpt>
      <trkpt lat="60.6031" lon="5.19643">
        <ele>90.496612</ele>
        <time>2020-07-25T10:50:37.999Z</time>
      </trkpt>
      <trkpt lat="60.60318" lon="5.19634">
        <ele>90.509807</ele>
        <time>2020-07-25T10:50:39.991Z</time>
      </trkpt>
      <trkpt lat="60.60327" lon="5.19627">
        <ele>90.522681</ele>
        <time>2020-07-25T10:50:41.984Z</time>
      </trkpt>
      <trkpt lat="60.60336" lon="5.1962">
        <ele>90.535378</ele>
        <time>2020-07-25T10:50:43.976Z</time>
      </trkpt>
      <trkpt lat="60.60348" lon="5.19611">
        <ele>90.55364</ele>
        <time>2020-07-25T10:50:47.000Z</time>
      </trkpt>
      <trkpt lat="60.60357" lon="5.19605">
        <ele>90.566322</ele>
        <time>2020-07-25T10:50:48.980Z</time>
      </trkpt>
      <trkpt lat="60.60365" lon="5.19597">
        <ele>90.578743</ele>
        <time>2020-07-25T10:50:51.002Z</time>
      </trkpt>
      <trkpt lat="60.60374" lon="5.1959">
        <ele>90.591517</ele>
        <time>2020-07-25T10:50:52.994Z</time>
      </trkpt>
      <trkpt lat="60.60386" lon="5.19579">
        <ele>90.609393</ele>
        <time>2020-07-25T10:50:55.976Z</time>
      </trkpt>
      <trkpt lat="60.60394" lon="5.1957">
        <ele>90.6221</ele>
        <time>2020-07-25T10:50:57.976Z</time>
      </trkpt>
      <trkpt lat="60.60403" lon="5.19561">
        <ele>90.63563</ele>
        <time>2020-07-25T10:50:59.983Z</time>
      </trkpt>
      <trkpt lat="60.60412" lon="5.19552">
        <ele>90.649193</ele>
        <time>2020-07-25T10:51:01.970Z</time>
      </trkpt>
      <trkpt lat="60.60421" lon="5.19543">
        <ele>90.663156</ele>
        <time>2020-07-25T10:51:03.981Z</time>
      </trkpt>
      <trkpt lat="60.60429" lon="5.19534">
        <ele>90.676633</ele>
        <time>2020-07-25T10:51:06.002Z</time>
      </trkpt>
      <trkpt lat="60.60441" lon="5.19521">
        <ele>90.694415</ele>
        <time>2020-07-25T10:51:09.017Z</time>
      </trkpt>
      <trkpt lat="60.60449" lon="5.19513">
        <ele>90.690159</ele>
        <time>2020-07-25T10:51:10.989Z</time>
      </trkpt>
      <trkpt lat="60.60457" lon="5.19504">
        <ele>90.666243</ele>
        <time>2020-07-25T10:51:12.976Z</time>
      </trkpt>
      <trkpt lat="60.60466" lon="5.19495">
        <ele>90.641581</ele>
        <time>2020-07-25T10:51:14.989Z</time>
      </trkpt>
      <trkpt lat="60.60474" lon="5.19486">
        <ele>90.615823</ele>
        <time>2020-07-25T10:51:16.972Z</time>
      </trkpt>
      <trkpt lat="60.60484" lon="5.19476">
        <ele>90.589446</ele>
        <time>2020-07-25T10:51:18.991Z</time>
      </trkpt>
      <trkpt lat="60.60493" lon="5.19467">
        <ele>90.563241</ele>
        <time>2020-07-25T10:51:20.979Z</time>
      </trkpt>
      <trkpt lat="60.60502" lon="5.19457">
        <ele>90.537543</ele>
        <time>2020-07-25T10:51:22.994Z</time>
      </trkpt>
      <trkpt lat="60.60511" lon="5.19448">
        <ele>90.511224</ele>
        <time>2020-07-25T10:51:25.003Z</time>
      </trkpt>
      <trkpt lat="60.6052" lon="5.19438">
        <ele>90.484504</ele>
        <time>2020-07-25T10:51:26.984Z</time>
      </trkpt>
      <trkpt lat="60.6053" lon="5.19429">
        <ele>90.456165</ele>
        <time>2020-07-25T10:51:29.008Z</time>
      </trkpt>
      <trkpt lat="60.60539" lon="5.1942">
        <ele>90.429309</ele>
        <time>2020-07-25T10:51:31.016Z</time>
      </trkpt>
      <trkpt lat="60.60549" lon="5.1941">
        <ele>90.401845</ele>
        <time>2020-07-25T10:51:32.985Z</time>
      </trkpt>
      <trkpt lat="60.60557" lon="5.19399">
        <ele>90.37673</ele>
        <time>2020-07-25T10:51:34.988Z</time>
      </trkpt>
      <trkpt lat="60.60565" lon="5.1939">
        <ele>90.352788</ele>
        <time>2020-07-25T10:51:36.995Z</time>
      </trkpt>
      <trkpt lat="60.60574" lon="5.1938">
        <ele>90.328307</ele>
        <time>2020-07-25T10:51:38.978Z</time>
      </trkpt>
      <trkpt lat="60.60582" lon="5.1937">
        <ele>90.303035</ele>
        <time>2020-07-25T10:51:40.991Z</time>
      </trkpt>
      <trkpt lat="60.6059" lon="5.1936">
        <ele>90.278511</ele>
        <time>2020-07-25T10:51:42.981Z</time>
      </trkpt>
      <trkpt lat="60.60598" lon="5.1935">
        <ele>90.254471</ele>
        <time>2020-07-25T10:51:44.976Z</time>
      </trkpt>
      <trkpt lat="60.60606" lon="5.1934">
        <ele>90.213881</ele>
        <time>2020-07-25T10:51:47.009Z</time>
      </trkpt>
      <trkpt lat="60.60614" lon="5.19331">
        <ele>90.136741</ele>
        <time>2020-07-25T10:51:49.012Z</time>
      </trkpt>
      <trkpt lat="60.60622" lon="5.19321">
        <ele>90.059631</ele>
        <time>2020-07-25T10:51:51.003Z</time>
      </trkpt>
      <trkpt lat="60.6063" lon="5.19311">
        <ele>89.978999</ele>
        <time>2020-07-25T10:51:52.982Z</time>
      </trkpt>
      <trkpt lat="60.60637" lon="5.19301">
        <ele>89.899532</ele>
        <time>2020-07-25T10:51:54.977Z</time>
      </trkpt>
      <trkpt lat="60.60646" lon="5.19291">
        <ele>89.818643</ele>
        <time>2020-07-25T10:51:57.036Z</time>
      </trkpt>
      <trkpt lat="60.60654" lon="5.19282">
        <ele>89.737612</ele>
        <time>2020-07-25T10:51:58.987Z</time>
      </trkpt>
      <trkpt lat="60.60663" lon="5.19273">
        <ele>89.655654</ele>
        <time>2020-07-25T10:52:00.984Z</time>
      </trkpt>
      <trkpt lat="60.60671" lon="5.19264">
        <ele>89.576655</ele>
        <time>2020-07-25T10:52:03.006Z</time>
      </trkpt>
      <trkpt lat="60.60679" lon="5.19254">
        <ele>89.498793</ele>
        <time>2020-07-25T10:52:04.996Z</time>
      </trkpt>
      <trkpt lat="60.60687" lon="5.19244">
        <ele>89.419988</ele>
        <time>2020-07-25T10:52:07.001Z</time>
      </trkpt>
      <trkpt lat="60.60698" lon="5.19231">
        <ele>89.310575</ele>
        <time>2020-07-25T10:52:10.017Z</time>
      </trkpt>
      <trkpt lat="60.60707" lon="5.19217">
        <ele>89.210291</ele>
        <time>2020-07-25T10:52:13.020Z</time>
      </trkpt>
      <trkpt lat="60.60718" lon="5.19203">
        <ele>89.100624</ele>
        <time>2020-07-25T10:52:15.983Z</time>
      </trkpt>
      <trkpt lat="60.60728" lon="5.19186">
        <ele>88.988126</ele>
        <time>2020-07-25T10:52:19.009Z</time>
      </trkpt>
      <trkpt lat="60.60735" lon="5.19172">
        <ele>88.91072</ele>
        <time>2020-07-25T10:52:20.979Z</time>
      </trkpt>
      <trkpt lat="60.60743" lon="5.19154">
        <ele>88.805927</ele>
        <time>2020-07-25T10:52:23.984Z</time>
      </trkpt>
      <trkpt lat="60.60749" lon="5.19134">
        <ele>88.704682</ele>
        <time>2020-07-25T10:52:26.984Z</time>
      </trkpt>
      <trkpt lat="60.60753" lon="5.19111">
        <ele>88.466871</ele>
        <time>2020-07-25T10:52:29.976Z</time>
      </trkpt>
      <trkpt lat="60.60756" lon="5.19084">
        <ele>88.183082</ele>
        <time>2020-07-25T10:52:33.026Z</time>
      </trkpt>
      <trkpt lat="60.6076" lon="5.19061">
        <ele>87.944785</ele>
        <time>2020-07-25T10:52:34.993Z</time>
      </trkpt>
      <trkpt lat="60.60761" lon="5.19038">
        <ele>87.707363</ele>
        <time>2020-07-25T10:52:36.983Z</time>
      </trkpt>
      <trkpt lat="60.60761" lon="5.19015">
        <ele>87.478241</ele>
        <time>2020-07-25T10:52:39.004Z</time>
      </trkpt>
      <trkpt lat="60.60759" lon="5.18995">
        <ele>87.275604</ele>
        <time>2020-07-25T10:52:41.004Z</time>
      </trkpt>
      <trkpt lat="60.60757" lon="5.18974">
        <ele>87.062212</ele>
        <time>2020-07-25T10:52:43.021Z</time>
      </trkpt>
      <trkpt lat="60.60754" lon="5.18953">
        <ele>86.844926</ele>
        <time>2020-07-25T10:52:44.995Z</time>
      </trkpt>
      <trkpt lat="60.60751" lon="5.18932">
        <ele>86.619347</ele>
        <time>2020-07-25T10:52:47.000Z</time>
      </trkpt>
      <trkpt lat="60.60749" lon="5.1891">
        <ele>86.395859</ele>
        <time>2020-07-25T10:52:49.013Z</time>
      </trkpt>
      <trkpt lat="60.60746" lon="5.18888">
        <ele>86.170807</ele>
        <time>2020-07-25T10:52:50.973Z</time>
      </trkpt>
      <trkpt lat="60.60744" lon="5.18867">
        <ele>85.955571</ele>
        <time>2020-07-25T10:52:52.995Z</time>
      </trkpt>
      <trkpt lat="60.60742" lon="5.18846">
        <ele>85.740031</ele>
        <time>2020-07-25T10:52:54.998Z</time>
      </trkpt>
      <trkpt lat="60.60745" lon="5.18826">
        <ele>85.52874</ele>
        <time>2020-07-25T10:52:56.997Z</time>
      </trkpt>
      <trkpt lat="60.60749" lon="5.18805">
        <ele>85.303142</ele>
        <time>2020-07-25T10:52:59.002Z</time>
      </trkpt>
      <trkpt lat="60.60753" lon="5.18785">
        <ele>85.083139</ele>
        <time>2020-07-25T10:53:00.996Z</time>
      </trkpt>
      <trkpt lat="60.60757" lon="5.18764">
        <ele>84.979117</ele>
        <time>2020-07-25T10:53:02.991Z</time>
      </trkpt>
      <trkpt lat="60.60763" lon="5.18746">
        <ele>84.914184</ele>
        <time>2020-07-25T10:53:05.004Z</time>
      </trkpt>
      <trkpt lat="60.6077" lon="5.1873">
        <ele>84.850053</ele>
        <time>2020-07-25T10:53:06.987Z</time>
      </trkpt>
      <trkpt lat="60.60777" lon="5.18716">
        <ele>84.792769</ele>
        <time>2020-07-25T10:53:08.988Z</time>
      </trkpt>
      <trkpt lat="60.60788" lon="5.18699">
        <ele>84.712784</ele>
        <time>2020-07-25T10:53:12.006Z</time>
      </trkpt>
      <trkpt lat="60.60795" lon="5.18688">
        <ele>84.656359</ele>
        <time>2020-07-25T10:53:13.972Z</time>
      </trkpt>
      <trkpt lat="60.60805" lon="5.1868">
        <ele>84.59461</ele>
        <time>2020-07-25T10:53:16.008Z</time>
      </trkpt>
      <trkpt lat="60.60814" lon="5.18672">
        <ele>84.534629</ele>
        <time>2020-07-25T10:53:17.997Z</time>
      </trkpt>
      <trkpt lat="60.60823" lon="5.18667">
        <ele>84.47972</ele>
        <time>2020-07-25T10:53:19.998Z</time>
      </trkpt>
      <trkpt lat="60.60833" lon="5.18666">
        <ele>84.420007</ele>
        <time>2020-07-25T10:53:21.990Z</time>
      </trkpt>
      <trkpt lat="60.60844" lon="5.18666">
        <ele>84.357962</ele>
        <time>2020-07-25T10:53:23.976Z</time>
      </trkpt>
      <trkpt lat="60.60853" lon="5.18665">
        <ele>84.299408</ele>
        <time>2020-07-25T10:53:25.996Z</time>
      </trkpt>
      <trkpt lat="60.60864" lon="5.18663">
        <ele>84.237878</ele>
        <time>2020-07-25T10:53:28.005Z</time>
      </trkpt>
      <trkpt lat="60.60873" lon="5.18662">
        <ele>84.1799</ele>
        <time>2020-07-25T10:53:29.983Z</time>
      </trkpt>
      <trkpt lat="60.60886" lon="5.18661">
        <ele>84.105279</ele>
        <time>2020-07-25T10:53:33.009Z</time>
      </trkpt>
      <trkpt lat="60.60897" lon="5.1866">
        <ele>84.038999</ele>
        <time>2020-07-25T10:53:35.991Z</time>
      </trkpt>
      <trkpt lat="60.60907" lon="5.18658">
        <ele>83.976723</ele>
        <time>2020-07-25T10:53:39.043Z</time>
      </trkpt>
      <trkpt lat="60.60917" lon="5.18658">
        <ele>84.226276</ele>
        <time>2020-07-25T10:53:41.994Z</time>
      </trkpt>
      <trkpt lat="60.60927" lon="5.18657">
        <ele>84.726309</ele>
        <time>2020-07-25T10:53:45.009Z</time>
      </trkpt>
      <trkpt lat="60.60937" lon="5.18655">
        <ele>85.17641</ele>
        <time>2020-07-25T10:53:47.970Z</time>
      </trkpt>
      <trkpt lat="60.60948" lon="5.18653">
        <ele>85.7065</ele>
        <time>2020-07-25T10:53:51.989Z</time>
      </trkpt>
      <trkpt lat="60.60959" lon="5.18652">
        <ele>86.253877</ele>
        <time>2020-07-25T10:53:55.997Z</time>
      </trkpt>
      <trkpt lat="60.6097" lon="5.18651">
        <ele>86.75918</ele>
        <time>2020-07-25T10:53:59.032Z</time>
      </trkpt>
      <trkpt lat="60.60979" lon="5.18649">
        <ele>87.214007</ele>
        <time>2020-07-25T10:54:02.028Z</time>
      </trkpt>
      <trkpt lat="60.60989" lon="5.18648">
        <ele>87.661776</ele>
        <time>2020-07-25T10:54:04.986Z</time>
      </trkpt>
      <trkpt lat="60.60999" lon="5.18647">
        <ele>88.151839</ele>
        <time>2020-07-25T10:54:08.030Z</time>
      </trkpt>
      <trkpt lat="60.61009" lon="5.18647">
        <ele>88.632305</ele>
        <time>2020-07-25T10:54:10.986Z</time>
      </trkpt>
      <trkpt lat="60.61018" lon="5.18648">
        <ele>89.070051</ele>
        <time>2020-07-25T10:54:14.008Z</time>
      </trkpt>
      <trkpt lat="60.6103" lon="5.18651">
        <ele>89.607122</ele>
        <time>2020-07-25T10:54:17.994Z</time>
      </trkpt>
      <trkpt lat="60.61041" lon="5.18653">
        <ele>90.137644</ele>
        <time>2020-07-25T10:54:21.983Z</time>
      </trkpt>
      <trkpt lat="60.61052" lon="5.18652">
        <ele>90.675269</ele>
        <time>2020-07-25T10:54:26.027Z</time>
      </trkpt>
      <trkpt lat="60.61063" lon="5.18652">
        <ele>91.203305</ele>
        <time>2020-07-25T10:54:29.984Z</time>
      </trkpt>
      <trkpt lat="60.61075" lon="5.18652">
        <ele>91.774224</ele>
        <time>2020-07-25T10:54:33.986Z</time>
      </trkpt>
      <trkpt lat="60.61084" lon="5.18652">
        <ele>92.207139</ele>
        <time>2020-07-25T10:54:37.025Z</time>
      </trkpt>
      <trkpt lat="60.61093" lon="5.18651">
        <ele>92.678428</ele>
        <time>2020-07-25T10:54:39.986Z</time>
      </trkpt>
      <trkpt lat="60.61105" lon="5.1865">
        <ele>93.374714</ele>
        <time>2020-07-25T10:54:43.990Z</time>
      </trkpt>
      <trkpt lat="60.61115" lon="5.18651">
        <ele>93.997277</ele>
        <time>2020-07-25T10:54:47.991Z</time>
      </trkpt>
      <trkpt lat="60.61125" lon="5.18651">
        <ele>94.631562</ele>
        <time>2020-07-25T10:54:51.988Z</time>
      </trkpt>
      <trkpt lat="60.61136" lon="5.18652">
        <ele>95.309014</ele>
        <time>2020-07-25T10:54:55.992Z</time>
      </trkpt>
      <trkpt lat="60.61147" lon="5.18652">
        <ele>96.004887</ele>
        <time>2020-07-25T10:54:59.990Z</time>
      </trkpt>
      <trkpt lat="60.61158" lon="5.18653">
        <ele>96.665362</ele>
        <time>2020-07-25T10:55:04.011Z</time>
      </trkpt>
      <trkpt lat="60.6117" lon="5.18653">
        <ele>97.385885</ele>
        <time>2020-07-25T10:55:07.995Z</time>
      </trkpt>
      <trkpt lat="60.61181" lon="5.18653">
        <ele>98.069495</ele>
        <time>2020-07-25T10:55:11.991Z</time>
      </trkpt>
      <trkpt lat="60.6119" lon="5.18652">
        <ele>98.636331</ele>
        <time>2020-07-25T10:55:15.987Z</time>
      </trkpt>
      <trkpt lat="60.612" lon="5.1865">
        <ele>99.280216</ele>
        <time>2020-07-25T10:55:20.010Z</time>
      </trkpt>
      <trkpt lat="60.61211" lon="5.18647">
        <ele>99.951442</ele>
        <time>2020-07-25T10:55:23.995Z</time>
      </trkpt>
      <trkpt lat="60.61222" lon="5.18643">
        <ele>100.634569</ele>
        <time>2020-07-25T10:55:27.982Z</time>
      </trkpt>
      <trkpt lat="60.61234" lon="5.1864">
        <ele>101.354639</ele>
        <time>2020-07-25T10:55:31.983Z</time>
      </trkpt>
      <trkpt lat="60.61244" lon="5.18633">
        <ele>102.044855</ele>
        <time>2020-07-25T10:55:35.986Z</time>
      </trkpt>
      <trkpt lat="60.61254" lon="5.18629">
        <ele>102.657547</ele>
        <time>2020-07-25T10:55:39.978Z</time>
      </trkpt>
      <trkpt lat="60.61265" lon="5.18624">
        <ele>103.352055</ele>
        <time>2020-07-25T10:55:43.979Z</time>
      </trkpt>
      <trkpt lat="60.61276" lon="5.18615">
        <ele>103.773518</ele>
        <time>2020-07-25T10:55:48.008Z</time>
      </trkpt>
      <trkpt lat="60.61286" lon="5.18603">
        <ele>104.031299</ele>
        <time>2020-07-25T10:55:51.998Z</time>
      </trkpt>
      <trkpt lat="60.61295" lon="5.18594">
        <ele>104.262587</ele>
        <time>2020-07-25T10:55:55.977Z</time>
      </trkpt>
      <trkpt lat="60.61304" lon="5.18583">
        <ele>104.51293</ele>
        <time>2020-07-25T10:56:00.011Z</time>
      </trkpt>
      <trkpt lat="60.61314" lon="5.18572">
        <ele>104.782139</ele>
        <time>2020-07-25T10:56:04.071Z</time>
      </trkpt>
      <trkpt lat="60.61325" lon="5.18561">
        <ele>105.053916</ele>
        <time>2020-07-25T10:56:07.987Z</time>
      </trkpt>
      <trkpt lat="60.61333" lon="5.18551">
        <ele>105.279716</ele>
        <time>2020-07-25T10:56:11.024Z</time>
      </trkpt>
      <trkpt lat="60.61342" lon="5.1854">
        <ele>105.508654</ele>
        <time>2020-07-25T10:56:13.987Z</time>
      </trkpt>
      <trkpt lat="60.61349" lon="5.18529">
        <ele>105.720422</ele>
        <time>2020-07-25T10:56:16.976Z</time>
      </trkpt>
      <trkpt lat="60.61358" lon="5.18514">
        <ele>105.996145</ele>
        <time>2020-07-25T10:56:20.977Z</time>
      </trkpt>
      <trkpt lat="60.61365" lon="5.185">
        <ele>106.211015</ele>
        <time>2020-07-25T10:56:24.017Z</time>
      </trkpt>
      <trkpt lat="60.61372" lon="5.18483">
        <ele>106.466674</ele>
        <time>2020-07-25T10:56:28.002Z</time>
      </trkpt>
      <trkpt lat="60.61378" lon="5.18469">
        <ele>106.674616</ele>
        <time>2020-07-25T10:56:30.999Z</time>
      </trkpt>
      <trkpt lat="60.61386" lon="5.18451">
        <ele>106.954114</ele>
        <time>2020-07-25T10:56:34.982Z</time>
      </trkpt>
      <trkpt lat="60.61394" lon="5.1844">
        <ele>107.176993</ele>
        <time>2020-07-25T10:56:38.004Z</time>
      </trkpt>
      <trkpt lat="60.61401" lon="5.18426">
        <ele>107.405107</ele>
        <time>2020-07-25T10:56:41.006Z</time>
      </trkpt>
      <trkpt lat="60.61409" lon="5.18414">
        <ele>107.620029</ele>
        <time>2020-07-25T10:56:44.007Z</time>
      </trkpt>
      <trkpt lat="60.61416" lon="5.184">
        <ele>107.653591</ele>
        <time>2020-07-25T10:56:46.976Z</time>
      </trkpt>
      <trkpt lat="60.61423" lon="5.18385">
        <ele>107.489078</ele>
        <time>2020-07-25T10:56:49.987Z</time>
      </trkpt>
      <trkpt lat="60.61429" lon="5.1837">
        <ele>107.32974</ele>
        <time>2020-07-25T10:56:53.065Z</time>
      </trkpt>
      <trkpt lat="60.61435" lon="5.18355">
        <ele>107.163602</ele>
        <time>2020-07-25T10:56:56.013Z</time>
      </trkpt>
      <trkpt lat="60.61443" lon="5.18337">
        <ele>106.973807</ele>
        <time>2020-07-25T10:56:59.999Z</time>
      </trkpt>
      <trkpt lat="60.6145" lon="5.18318">
        <ele>106.780197</ele>
        <time>2020-07-25T10:57:04.022Z</time>
      </trkpt>
      <trkpt lat="60.61456" lon="5.18302">
        <ele>106.616879</ele>
        <time>2020-07-25T10:57:06.983Z</time>
      </trkpt>
      <trkpt lat="60.61463" lon="5.18286">
        <ele>106.448221</ele>
        <time>2020-07-25T10:57:09.997Z</time>
      </trkpt>
      <trkpt lat="60.61468" lon="5.18272">
        <ele>106.293722</ele>
        <time>2020-07-25T10:57:12.980Z</time>
      </trkpt>
      <trkpt lat="60.61475" lon="5.18258">
        <ele>106.14448</ele>
        <time>2020-07-25T10:57:15.969Z</time>
      </trkpt>
      <trkpt lat="60.61482" lon="5.18245">
        <ele>105.989237</ele>
        <time>2020-07-25T10:57:19.005Z</time>
      </trkpt>
      <trkpt lat="60.61489" lon="5.18231">
        <ele>105.818518</ele>
        <time>2020-07-25T10:57:21.980Z</time>
      </trkpt>
      <trkpt lat="60.61496" lon="5.18217">
        <ele>105.651767</ele>
        <time>2020-07-25T10:57:25.017Z</time>
      </trkpt>
      <trkpt lat="60.61504" lon="5.18204">
        <ele>105.4901</ele>
        <time>2020-07-25T10:57:27.968Z</time>
      </trkpt>
      <trkpt lat="60.61511" lon="5.18189">
        <ele>105.316834</ele>
        <time>2020-07-25T10:57:31.023Z</time>
      </trkpt>
      <trkpt lat="60.6152" lon="5.18173">
        <ele>105.122277</ele>
        <time>2020-07-25T10:57:33.994Z</time>
      </trkpt>
      <trkpt lat="60.61529" lon="5.18154">
        <ele>104.904341</ele>
        <time>2020-07-25T10:57:36.976Z</time>
      </trkpt>
      <trkpt lat="60.61538" lon="5.18136">
        <ele>104.731526</ele>
        <time>2020-07-25T10:57:40.036Z</time>
      </trkpt>
      <trkpt lat="60.61545" lon="5.18123">
        <ele>104.678903</ele>
        <time>2020-07-25T10:57:41.982Z</time>
      </trkpt>
      <trkpt lat="60.61553" lon="5.1811">
        <ele>104.623042</ele>
        <time>2020-07-25T10:57:43.976Z</time>
      </trkpt>
      <trkpt lat="60.6156" lon="5.18095">
        <ele>104.563564</ele>
        <time>2020-07-25T10:57:45.980Z</time>
      </trkpt>
      <trkpt lat="60.61568" lon="5.18081">
        <ele>104.501906</ele>
        <time>2020-07-25T10:57:47.986Z</time>
      </trkpt>
      <trkpt lat="60.61577" lon="5.18065">
        <ele>104.433916</ele>
        <time>2020-07-25T10:57:49.988Z</time>
      </trkpt>
      <trkpt lat="60.61587" lon="5.18046">
        <ele>104.358817</ele>
        <time>2020-07-25T10:57:52.017Z</time>
      </trkpt>
      <trkpt lat="60.61597" lon="5.18026">
        <ele>104.27795</ele>
        <time>2020-07-25T10:57:54.004Z</time>
      </trkpt>
      <trkpt lat="60.61606" lon="5.18008">
        <ele>104.203681</ele>
        <time>2020-07-25T10:57:55.995Z</time>
      </trkpt>
      <trkpt lat="60.61615" lon="5.1799">
        <ele>104.131852</ele>
        <time>2020-07-25T10:57:58.006Z</time>
      </trkpt>
      <trkpt lat="60.61625" lon="5.17971">
        <ele>104.056619</ele>
        <time>2020-07-25T10:58:00.006Z</time>
      </trkpt>
      <trkpt lat="60.61634" lon="5.17952">
        <ele>103.979149</ele>
        <time>2020-07-25T10:58:01.986Z</time>
      </trkpt>
      <trkpt lat="60.61644" lon="5.17933">
        <ele>103.903314</ele>
        <time>2020-07-25T10:58:03.980Z</time>
      </trkpt>
      <trkpt lat="60.61652" lon="5.17915">
        <ele>103.832684</ele>
        <time>2020-07-25T10:58:05.981Z</time>
      </trkpt>
      <trkpt lat="60.61661" lon="5.17897">
        <ele>103.762056</ele>
        <time>2020-07-25T10:58:07.995Z</time>
      </trkpt>
      <trkpt lat="60.6167" lon="5.17878">
        <ele>103.7609</ele>
        <time>2020-07-25T10:58:09.980Z</time>
      </trkpt>
      <trkpt lat="60.61678" lon="5.1786">
        <ele>103.828549</ele>
        <time>2020-07-25T10:58:11.993Z</time>
      </trkpt>
      <trkpt lat="60.61686" lon="5.17843">
        <ele>103.894651</ele>
        <time>2020-07-25T10:58:13.972Z</time>
      </trkpt>
      <trkpt lat="60.61693" lon="5.17827">
        <ele>103.955234</ele>
        <time>2020-07-25T10:58:15.987Z</time>
      </trkpt>
      <trkpt lat="60.61701" lon="5.17812">
        <ele>104.013855</ele>
        <time>2020-07-25T10:58:17.982Z</time>
      </trkpt>
      <trkpt lat="60.61708" lon="5.17798">
        <ele>104.068361</ele>
        <time>2020-07-25T10:58:20.038Z</time>
      </trkpt>
      <trkpt lat="60.61715" lon="5.17785">
        <ele>104.120101</ele>
        <time>2020-07-25T10:58:21.977Z</time>
      </trkpt>
      <trkpt lat="60.61724" lon="5.17767">
        <ele>104.193469</ele>
        <time>2020-07-25T10:58:24.984Z</time>
      </trkpt>
      <trkpt lat="60.61733" lon="5.17749">
        <ele>104.265267</ele>
        <time>2020-07-25T10:58:27.992Z</time>
      </trkpt>
      <trkpt lat="60.61742" lon="5.17732">
        <ele>104.33212</ele>
        <time>2020-07-25T10:58:31.011Z</time>
      </trkpt>
      <trkpt lat="60.61751" lon="5.17713">
        <ele>104.402111</ele>
        <time>2020-07-25T10:58:33.983Z</time>
      </trkpt>
      <trkpt lat="60.61759" lon="5.17696">
        <ele>104.468572</ele>
        <time>2020-07-25T10:58:36.976Z</time>
      </trkpt>
      <trkpt lat="60.61767" lon="5.17679">
        <ele>104.532488</ele>
        <time>2020-07-25T10:58:39.975Z</time>
      </trkpt>
      <trkpt lat="60.61775" lon="5.17663">
        <ele>104.596228</ele>
        <time>2020-07-25T10:58:42.981Z</time>
      </trkpt>
      <trkpt lat="60.61782" lon="5.17647">
        <ele>104.656225</ele>
        <time>2020-07-25T10:58:46.010Z</time>
      </trkpt>
      <trkpt lat="60.61791" lon="5.17631">
        <ele>104.722533</ele>
        <time>2020-07-25T10:58:48.974Z</time>
      </trkpt>
      <trkpt lat="60.618" lon="5.17614">
        <ele>104.570954</ele>
        <time>2020-07-25T10:58:51.986Z</time>
      </trkpt>
      <trkpt lat="60.61809" lon="5.17596">
        <ele>104.358104</ele>
        <time>2020-07-25T10:58:54.985Z</time>
      </trkpt>
      <trkpt lat="60.61817" lon="5.17578">
        <ele>104.149906</ele>
        <time>2020-07-25T10:58:57.971Z</time>
      </trkpt>
      <trkpt lat="60.61826" lon="5.17559">
        <ele>103.940465</ele>
        <time>2020-07-25T10:59:00.996Z</time>
      </trkpt>
      <trkpt lat="60.61835" lon="5.1754">
        <ele>103.721799</ele>
        <time>2020-07-25T10:59:04.032Z</time>
      </trkpt>
      <trkpt lat="60.61842" lon="5.17527">
        <ele>103.571486</ele>
        <time>2020-07-25T10:59:05.984Z</time>
      </trkpt>
      <trkpt lat="60.6185" lon="5.17513">
        <ele>103.402383</ele>
        <time>2020-07-25T10:59:08.020Z</time>
      </trkpt>
      <trkpt lat="60.61857" lon="5.17499">
        <ele>103.230632</ele>
        <time>2020-07-25T10:59:09.971Z</time>
      </trkpt>
      <trkpt lat="60.61864" lon="5.17483">
        <ele>103.053702</ele>
        <time>2020-07-25T10:59:11.988Z</time>
      </trkpt>
      <trkpt lat="60.61872" lon="5.17466">
        <ele>102.86855</ele>
        <time>2020-07-25T10:59:13.971Z</time>
      </trkpt>
      <trkpt lat="60.6188" lon="5.17448">
        <ele>102.671371</ele>
        <time>2020-07-25T10:59:16.006Z</time>
      </trkpt>
      <trkpt lat="60.61888" lon="5.17431">
        <ele>102.474167</ele>
        <time>2020-07-25T10:59:17.998Z</time>
      </trkpt>
      <trkpt lat="60.61896" lon="5.17414">
        <ele>102.283363</ele>
        <time>2020-07-25T10:59:19.972Z</time>
      </trkpt>
      <trkpt lat="60.61905" lon="5.17396">
        <ele>102.087888</ele>
        <time>2020-07-25T10:59:21.979Z</time>
      </trkpt>
      <trkpt lat="60.61913" lon="5.17377">
        <ele>101.874454</ele>
        <time>2020-07-25T10:59:24.011Z</time>
      </trkpt>
      <trkpt lat="60.61923" lon="5.17357">
        <ele>101.601847</ele>
        <time>2020-07-25T10:59:25.976Z</time>
      </trkpt>
      <trkpt lat="60.61933" lon="5.17336">
        <ele>101.266838</ele>
        <time>2020-07-25T10:59:27.986Z</time>
      </trkpt>
      <trkpt lat="60.61944" lon="5.17316">
        <ele>100.929019</ele>
        <time>2020-07-25T10:59:29.982Z</time>
      </trkpt>
      <trkpt lat="60.61955" lon="5.17295">
        <ele>100.580924</ele>
        <time>2020-07-25T10:59:32.014Z</time>
      </trkpt>
      <trkpt lat="60.61965" lon="5.17275">
        <ele>100.246599</ele>
        <time>2020-07-25T10:59:33.979Z</time>
      </trkpt>
      <trkpt lat="60.61974" lon="5.17256">
        <ele>99.947286</ele>
        <time>2020-07-25T10:59:35.996Z</time>
      </trkpt>
      <trkpt lat="60.61983" lon="5.17237">
        <ele>99.655269</ele>
        <time>2020-07-25T10:59:38.012Z</time>
      </trkpt>
      <trkpt lat="60.61992" lon="5.17219">
        <ele>99.361551</ele>
        <time>2020-07-25T10:59:39.976Z</time>
      </trkpt>
      <trkpt lat="60.62001" lon="5.17201">
        <ele>99.06629</ele>
        <time>2020-07-25T10:59:41.985Z</time>
      </trkpt>
      <trkpt lat="60.62009" lon="5.17183">
        <ele>98.793376</ele>
        <time>2020-07-25T10:59:43.986Z</time>
      </trkpt>
      <trkpt lat="60.62016" lon="5.17167">
        <ele>98.542437</ele>
        <time>2020-07-25T10:59:45.973Z</time>
      </trkpt>
      <trkpt lat="60.62023" lon="5.1715">
        <ele>98.303412</ele>
        <time>2020-07-25T10:59:47.992Z</time>
      </trkpt>
      <trkpt lat="60.62029" lon="5.17134">
        <ele>98.071392</ele>
        <time>2020-07-25T10:59:50.006Z</time>
      </trkpt>
      <trkpt lat="60.62035" lon="5.17118">
        <ele>97.843808</ele>
        <time>2020-07-25T10:59:51.999Z</time>
      </trkpt>
      <trkpt lat="60.62041" lon="5.17103">
        <ele>97.623877</ele>
        <time>2020-07-25T10:59:53.992Z</time>
      </trkpt>
      <trkpt lat="60.62046" lon="5.17087">
        <ele>97.60974</ele>
        <time>2020-07-25T10:59:56.003Z</time>
      </trkpt>
      <trkpt lat="60.62052" lon="5.17071">
        <ele>97.634702</ele>
        <time>2020-07-25T10:59:58.022Z</time>
      </trkpt>
      <trkpt lat="60.62058" lon="5.17056">
        <ele>97.659147</ele>
        <time>2020-07-25T11:00:00.015Z</time>
      </trkpt>
      <trkpt lat="60.62064" lon="5.1704">
        <ele>97.684677</ele>
        <time>2020-07-25T11:00:01.992Z</time>
      </trkpt>
      <trkpt lat="60.6207" lon="5.17024">
        <ele>97.710467</ele>
        <time>2020-07-25T11:00:03.987Z</time>
      </trkpt>
      <trkpt lat="60.62075" lon="5.17009">
        <ele>97.734913</ele>
        <time>2020-07-25T11:00:05.985Z</time>
      </trkpt>
      <trkpt lat="60.62081" lon="5.16993">
        <ele>97.7591</ele>
        <time>2020-07-25T11:00:08.006Z</time>
      </trkpt>
      <trkpt lat="60.62086" lon="5.16978">
        <ele>97.783445</ele>
        <time>2020-07-25T11:00:09.998Z</time>
      </trkpt>
      <trkpt lat="60.62093" lon="5.16956">
        <ele>97.816883</ele>
        <time>2020-07-25T11:00:13.021Z</time>
      </trkpt>
      <trkpt lat="60.62101" lon="5.16933">
        <ele>97.853349</ele>
        <time>2020-07-25T11:00:15.980Z</time>
      </trkpt>
      <trkpt lat="60.62107" lon="5.16916">
        <ele>97.880114</ele>
        <time>2020-07-25T11:00:17.997Z</time>
      </trkpt>
      <trkpt lat="60.62113" lon="5.16899">
        <ele>97.907344</ele>
        <time>2020-07-25T11:00:19.990Z</time>
      </trkpt>
      <trkpt lat="60.62119" lon="5.16882">
        <ele>97.933698</ele>
        <time>2020-07-25T11:00:21.980Z</time>
      </trkpt>
      <trkpt lat="60.62126" lon="5.16865">
        <ele>97.961424</ele>
        <time>2020-07-25T11:00:24.015Z</time>
      </trkpt>
      <trkpt lat="60.62132" lon="5.1685">
        <ele>97.986507</ele>
        <time>2020-07-25T11:00:25.976Z</time>
      </trkpt>
      <trkpt lat="60.62138" lon="5.16835">
        <ele>98.011192</ele>
        <time>2020-07-25T11:00:27.991Z</time>
      </trkpt>
      <trkpt lat="60.62144" lon="5.1682">
        <ele>98.035229</ele>
        <time>2020-07-25T11:00:29.990Z</time>
      </trkpt>
      <trkpt lat="60.62151" lon="5.168">
        <ele>98.19535</ele>
        <time>2020-07-25T11:00:33.007Z</time>
      </trkpt>
      <trkpt lat="60.62157" lon="5.16778">
        <ele>98.630284</ele>
        <time>2020-07-25T11:00:35.985Z</time>
      </trkpt>
      <trkpt lat="60.62163" lon="5.16758">
        <ele>99.036102</ele>
        <time>2020-07-25T11:00:39.008Z</time>
      </trkpt>
      <trkpt lat="60.6217" lon="5.16737">
        <ele>99.466225</ele>
        <time>2020-07-25T11:00:41.990Z</time>
      </trkpt>
      <trkpt lat="60.62175" lon="5.16714">
        <ele>99.914556</ele>
        <time>2020-07-25T11:00:44.978Z</time>
      </trkpt>
      <trkpt lat="60.6218" lon="5.16698">
        <ele>100.237598</ele>
        <time>2020-07-25T11:00:46.994Z</time>
      </trkpt>
      <trkpt lat="60.62185" lon="5.16682">
        <ele>100.558769</ele>
        <time>2020-07-25T11:00:48.988Z</time>
      </trkpt>
      <trkpt lat="60.6219" lon="5.16667">
        <ele>100.886247</ele>
        <time>2020-07-25T11:00:50.983Z</time>
      </trkpt>
      <trkpt lat="60.62199" lon="5.16646">
        <ele>101.353924</ele>
        <time>2020-07-25T11:00:54.027Z</time>
      </trkpt>
      <trkpt lat="60.62206" lon="5.16633">
        <ele>101.683248</ele>
        <time>2020-07-25T11:00:56.003Z</time>
      </trkpt>
      <trkpt lat="60.62212" lon="5.1662">
        <ele>102.005219</ele>
        <time>2020-07-25T11:00:58.008Z</time>
      </trkpt>
      <trkpt lat="60.62219" lon="5.16608">
        <ele>102.324639</ele>
        <time>2020-07-25T11:01:00.004Z</time>
      </trkpt>
      <trkpt lat="60.62228" lon="5.1659">
        <ele>102.78708</ele>
        <time>2020-07-25T11:01:03.000Z</time>
      </trkpt>
      <trkpt lat="60.62238" lon="5.16571">
        <ele>103.246263</ele>
        <time>2020-07-25T11:01:05.988Z</time>
      </trkpt>
      <trkpt lat="60.62247" lon="5.16552">
        <ele>103.706695</ele>
        <time>2020-07-25T11:01:09.026Z</time>
      </trkpt>
      <trkpt lat="60.62256" lon="5.16533">
        <ele>104.168494</ele>
        <time>2020-07-25T11:01:12.023Z</time>
      </trkpt>
      <trkpt lat="60.62266" lon="5.16515">
        <ele>104.83402</ele>
        <time>2020-07-25T11:01:14.976Z</time>
      </trkpt>
      <trkpt lat="60.62275" lon="5.16496">
        <ele>105.706751</ele>
        <time>2020-07-25T11:01:17.990Z</time>
      </trkpt>
      <trkpt lat="60.62283" lon="5.1648">
        <ele>106.486664</ele>
        <time>2020-07-25T11:01:20.983Z</time>
      </trkpt>
      <trkpt lat="60.62292" lon="5.16466">
        <ele>107.236514</ele>
        <time>2020-07-25T11:01:23.986Z</time>
      </trkpt>
      <trkpt lat="60.62301" lon="5.16452">
        <ele>107.9644</ele>
        <time>2020-07-25T11:01:26.983Z</time>
      </trkpt>
      <trkpt lat="60.62309" lon="5.16439">
        <ele>108.668315</ele>
        <time>2020-07-25T11:01:30.009Z</time>
      </trkpt>
      <trkpt lat="60.62317" lon="5.16425">
        <ele>109.384706</ele>
        <time>2020-07-25T11:01:33.019Z</time>
      </trkpt>
      <trkpt lat="60.62325" lon="5.16412">
        <ele>110.064646</ele>
        <time>2020-07-25T11:01:35.985Z</time>
      </trkpt>
      <trkpt lat="60.62332" lon="5.164">
        <ele>110.68037</ele>
        <time>2020-07-25T11:01:39.015Z</time>
      </trkpt>
      <trkpt lat="60.62339" lon="5.16387">
        <ele>111.293245</ele>
        <time>2020-07-25T11:01:41.983Z</time>
      </trkpt>
      <trkpt lat="60.62346" lon="5.16375">
        <ele>111.930489</ele>
        <time>2020-07-25T11:01:44.988Z</time>
      </trkpt>
      <trkpt lat="60.62353" lon="5.16363">
        <ele>112.560432</ele>
        <time>2020-07-25T11:01:47.974Z</time>
      </trkpt>
      <trkpt lat="60.62361" lon="5.16354">
        <ele>113.1716</ele>
        <time>2020-07-25T11:01:50.998Z</time>
      </trkpt>
      <trkpt lat="60.62372" lon="5.16344">
        <ele>113.944028</ele>
        <time>2020-07-25T11:01:54.975Z</time>
      </trkpt>
      <trkpt lat="60.62382" lon="5.16336">
        <ele>114.719355</ele>
        <time>2020-07-25T11:01:58.975Z</time>
      </trkpt>
      <trkpt lat="60.6239" lon="5.16326">
        <ele>115.321685</ele>
        <time>2020-07-25T11:02:01.997Z</time>
      </trkpt>
      <trkpt lat="60.62397" lon="5.16316">
        <ele>115.923594</ele>
        <time>2020-07-25T11:02:05.008Z</time>
      </trkpt>
      <trkpt lat="60.62407" lon="5.16302">
        <ele>116.495421</ele>
        <time>2020-07-25T11:02:08.984Z</time>
      </trkpt>
      <trkpt lat="60.62415" lon="5.16291">
        <ele>116.48997</ele>
        <time>2020-07-25T11:02:13.004Z</time>
      </trkpt>
      <trkpt lat="60.62423" lon="5.1628">
        <ele>116.484582</ele>
        <time>2020-07-25T11:02:16.980Z</time>
      </trkpt>
      <trkpt lat="60.62431" lon="5.16268">
        <ele>116.479523</ele>
        <time>2020-07-25T11:02:21.017Z</time>
      </trkpt>
      <trkpt lat="60.62438" lon="5.16257">
        <ele>116.474509</ele>
        <time>2020-07-25T11:02:24.983Z</time>
      </trkpt>
      <trkpt lat="60.62447" lon="5.16248">
        <ele>116.469191</ele>
        <time>2020-07-25T11:02:28.978Z</time>
      </trkpt>
      <trkpt lat="60.62455" lon="5.16237">
        <ele>116.46397</ele>
        <time>2020-07-25T11:02:32.992Z</time>
      </trkpt>
      <trkpt lat="60.62464" lon="5.16225">
        <ele>116.457795</ele>
        <time>2020-07-25T11:02:37.984Z</time>
      </trkpt>
      <trkpt lat="60.62472" lon="5.16216">
        <ele>116.452832</ele>
        <time>2020-07-25T11:02:42.004Z</time>
      </trkpt>
      <trkpt lat="60.62481" lon="5.16206">
        <ele>116.447048</ele>
        <time>2020-07-25T11:02:45.995Z</time>
      </trkpt>
      <trkpt lat="60.62491" lon="5.16192">
        <ele>116.440598</ele>
        <time>2020-07-25T11:02:49.992Z</time>
      </trkpt>
      <trkpt lat="60.62498" lon="5.16179">
        <ele>116.435573</ele>
        <time>2020-07-25T11:02:53.005Z</time>
      </trkpt>
      <trkpt lat="60.62506" lon="5.16169">
        <ele>116.43038</ele>
        <time>2020-07-25T11:02:56.013Z</time>
      </trkpt>
      <trkpt lat="60.62516" lon="5.16161">
        <ele>116.424264</ele>
        <time>2020-07-25T11:02:58.990Z</time>
      </trkpt>
      <trkpt lat="60.62528" lon="5.16155">
        <ele>116.417602</ele>
        <time>2020-07-25T11:03:02.003Z</time>
      </trkpt>
      <trkpt lat="60.62539" lon="5.16145">
        <ele>116.411008</ele>
        <time>2020-07-25T11:03:04.995Z</time>
      </trkpt>
      <trkpt lat="60.62551" lon="5.16133">
        <ele>116.403575</ele>
        <time>2020-07-25T11:03:07.993Z</time>
      </trkpt>
      <trkpt lat="60.6256" lon="5.16125">
        <ele>116.36697</ele>
        <time>2020-07-25T11:03:09.983Z</time>
      </trkpt>
      <trkpt lat="60.6257" lon="5.16117">
        <ele>115.934038</ele>
        <time>2020-07-25T11:03:11.976Z</time>
      </trkpt>
      <trkpt lat="60.62579" lon="5.16107">
        <ele>115.518723</ele>
        <time>2020-07-25T11:03:13.996Z</time>
      </trkpt>
      <trkpt lat="60.62589" lon="5.16097">
        <ele>115.093264</ele>
        <time>2020-07-25T11:03:16.004Z</time>
      </trkpt>
      <trkpt lat="60.62599" lon="5.16085">
        <ele>114.627937</ele>
        <time>2020-07-25T11:03:17.985Z</time>
      </trkpt>
      <trkpt lat="60.62609" lon="5.16074">
        <ele>114.136919</ele>
        <time>2020-07-25T11:03:19.997Z</time>
      </trkpt>
      <trkpt lat="60.62621" lon="5.16063">
        <ele>113.614368</ele>
        <time>2020-07-25T11:03:21.990Z</time>
      </trkpt>
      <trkpt lat="60.62633" lon="5.16051">
        <ele>113.060076</ele>
        <time>2020-07-25T11:03:23.999Z</time>
      </trkpt>
      <trkpt lat="60.62646" lon="5.16037">
        <ele>112.470922</ele>
        <time>2020-07-25T11:03:25.977Z</time>
      </trkpt>
      <trkpt lat="60.6266" lon="5.16025">
        <ele>111.851986</ele>
        <time>2020-07-25T11:03:28.006Z</time>
      </trkpt>
      <trkpt lat="60.62674" lon="5.16012">
        <ele>111.234307</ele>
        <time>2020-07-25T11:03:29.990Z</time>
      </trkpt>
      <trkpt lat="60.62688" lon="5.15999">
        <ele>110.630471</ele>
        <time>2020-07-25T11:03:32.006Z</time>
      </trkpt>
      <trkpt lat="60.62701" lon="5.15986">
        <ele>110.050231</ele>
        <time>2020-07-25T11:03:34.007Z</time>
      </trkpt>
      <trkpt lat="60.62712" lon="5.15975">
        <ele>109.548294</ele>
        <time>2020-07-25T11:03:35.985Z</time>
      </trkpt>
      <trkpt lat="60.62722" lon="5.15965">
        <ele>109.107583</ele>
        <time>2020-07-25T11:03:37.978Z</time>
      </trkpt>
      <trkpt lat="60.62732" lon="5.15955">
        <ele>108.905544</ele>
        <time>2020-07-25T11:03:39.985Z</time>
      </trkpt>
      <trkpt lat="60.62742" lon="5.15944">
        <ele>108.702313</ele>
        <time>2020-07-25T11:03:42.002Z</time>
      </trkpt>
      <trkpt lat="60.62752" lon="5.15934">
        <ele>108.505832</ele>
        <time>2020-07-25T11:03:43.991Z</time>
      </trkpt>
      <trkpt lat="60.62762" lon="5.15924">
        <ele>108.314147</ele>
        <time>2020-07-25T11:03:45.983Z</time>
      </trkpt>
      <trkpt lat="60.62771" lon="5.15914">
        <ele>108.127257</ele>
        <time>2020-07-25T11:03:47.994Z</time>
      </trkpt>
      <trkpt lat="60.6278" lon="5.15905">
        <ele>107.944351</ele>
        <time>2020-07-25T11:03:49.976Z</time>
      </trkpt>
      <trkpt lat="60.62789" lon="5.15895">
        <ele>107.765794</ele>
        <time>2020-07-25T11:03:52.026Z</time>
      </trkpt>
      <trkpt lat="60.62798" lon="5.15886">
        <ele>107.590858</ele>
        <time>2020-07-25T11:03:54.005Z</time>
      </trkpt>
      <trkpt lat="60.62806" lon="5.15877">
        <ele>107.426965</ele>
        <time>2020-07-25T11:03:55.977Z</time>
      </trkpt>
      <trkpt lat="60.62814" lon="5.15869">
        <ele>107.266375</ele>
        <time>2020-07-25T11:03:57.986Z</time>
      </trkpt>
      <trkpt lat="60.62825" lon="5.15856">
        <ele>107.028825</ele>
        <time>2020-07-25T11:04:00.989Z</time>
      </trkpt>
      <trkpt lat="60.62838" lon="5.15845">
        <ele>106.788179</ele>
        <time>2020-07-25T11:04:03.976Z</time>
      </trkpt>
      <trkpt lat="60.62849" lon="5.15833">
        <ele>106.56861</ele>
        <time>2020-07-25T11:04:07.012Z</time>
      </trkpt>
      <trkpt lat="60.62859" lon="5.15822">
        <ele>106.360084</ele>
        <time>2020-07-25T11:04:10.046Z</time>
      </trkpt>
      <trkpt lat="60.62868" lon="5.1581">
        <ele>106.161522</ele>
        <time>2020-07-25T11:04:12.993Z</time>
      </trkpt>
      <trkpt lat="60.62877" lon="5.15799">
        <ele>105.977445</ele>
        <time>2020-07-25T11:04:16.009Z</time>
      </trkpt>
      <trkpt lat="60.62887" lon="5.15788">
        <ele>105.958243</ele>
        <time>2020-07-25T11:04:18.988Z</time>
      </trkpt>
      <trkpt lat="60.62896" lon="5.15776">
        <ele>106.044848</ele>
        <time>2020-07-25T11:04:21.985Z</time>
      </trkpt>
      <trkpt lat="60.62906" lon="5.15762">
        <ele>106.129352</ele>
        <time>2020-07-25T11:04:24.975Z</time>
      </trkpt>
      <trkpt lat="60.62913" lon="5.15752">
        <ele>106.196079</ele>
        <time>2020-07-25T11:04:26.981Z</time>
      </trkpt>
      <trkpt lat="60.62922" lon="5.1574">
        <ele>106.276212</ele>
        <time>2020-07-25T11:04:28.974Z</time>
      </trkpt>
      <trkpt lat="60.62931" lon="5.15727">
        <ele>106.359079</ele>
        <time>2020-07-25T11:04:30.987Z</time>
      </trkpt>
      <trkpt lat="60.6294" lon="5.15712">
        <ele>106.446037</ele>
        <time>2020-07-25T11:04:32.984Z</time>
      </trkpt>
      <trkpt lat="60.6295" lon="5.15695">
        <ele>106.542368</ele>
        <time>2020-07-25T11:04:34.990Z</time>
      </trkpt>
      <trkpt lat="60.6296" lon="5.15678">
        <ele>106.64017</ele>
        <time>2020-07-25T11:04:36.980Z</time>
      </trkpt>
      <trkpt lat="60.6297" lon="5.1566">
        <ele>106.739422</ele>
        <time>2020-07-25T11:04:38.968Z</time>
      </trkpt>
      <trkpt lat="60.62979" lon="5.15641">
        <ele>106.836996</ele>
        <time>2020-07-25T11:04:40.990Z</time>
      </trkpt>
      <trkpt lat="60.62989" lon="5.15623">
        <ele>106.934976</ele>
        <time>2020-07-25T11:04:42.993Z</time>
      </trkpt>
      <trkpt lat="60.62999" lon="5.15605">
        <ele>107.034066</ele>
        <time>2020-07-25T11:04:44.991Z</time>
      </trkpt>
      <trkpt lat="60.63008" lon="5.15586">
        <ele>107.134248</ele>
        <time>2020-07-25T11:04:46.981Z</time>
      </trkpt>
      <trkpt lat="60.63018" lon="5.15566">
        <ele>107.239455</ele>
        <time>2020-07-25T11:04:48.974Z</time>
      </trkpt>
      <trkpt lat="60.6303" lon="5.15547">
        <ele>106.891949</ele>
        <time>2020-07-25T11:04:50.990Z</time>
      </trkpt>
      <trkpt lat="60.63042" lon="5.15527">
        <ele>106.486372</ele>
        <time>2020-07-25T11:04:52.995Z</time>
      </trkpt>
      <trkpt lat="60.63055" lon="5.15507">
        <ele>106.068239</ele>
        <time>2020-07-25T11:04:54.983Z</time>
      </trkpt>
      <trkpt lat="60.63066" lon="5.15488">
        <ele>105.677028</ele>
        <time>2020-07-25T11:04:56.984Z</time>
      </trkpt>
      <trkpt lat="60.63077" lon="5.15469">
        <ele>105.315646</ele>
        <time>2020-07-25T11:04:59.017Z</time>
      </trkpt>
      <trkpt lat="60.63087" lon="5.15451">
        <ele>104.961332</ele>
        <time>2020-07-25T11:05:00.996Z</time>
      </trkpt>
      <trkpt lat="60.63097" lon="5.15434">
        <ele>104.604692</ele>
        <time>2020-07-25T11:05:02.988Z</time>
      </trkpt>
      <trkpt lat="60.63107" lon="5.15417">
        <ele>104.273552</ele>
        <time>2020-07-25T11:05:05.043Z</time>
      </trkpt>
      <trkpt lat="60.63115" lon="5.15402">
        <ele>103.977969</ele>
        <time>2020-07-25T11:05:06.992Z</time>
      </trkpt>
      <trkpt lat="60.63123" lon="5.15387">
        <ele>103.700152</ele>
        <time>2020-07-25T11:05:08.977Z</time>
      </trkpt>
      <trkpt lat="60.63131" lon="5.15374">
        <ele>103.434262</ele>
        <time>2020-07-25T11:05:10.990Z</time>
      </trkpt>
      <trkpt lat="60.6314" lon="5.15358">
        <ele>103.124003</ele>
        <time>2020-07-25T11:05:13.995Z</time>
      </trkpt>
      <trkpt lat="60.63147" lon="5.15343">
        <ele>102.860072</ele>
        <time>2020-07-25T11:05:16.984Z</time>
      </trkpt>
      <trkpt lat="60.63153" lon="5.1533">
        <ele>102.608903</ele>
        <time>2020-07-25T11:05:18.998Z</time>
      </trkpt>
      <trkpt lat="60.63162" lon="5.15315">
        <ele>102.538816</ele>
        <time>2020-07-25T11:05:21.004Z</time>
      </trkpt>
      <trkpt lat="60.6317" lon="5.15302">
        <ele>102.557838</ele>
        <time>2020-07-25T11:05:23.023Z</time>
      </trkpt>
      <trkpt lat="60.63178" lon="5.15287">
        <ele>102.576675</ele>
        <time>2020-07-25T11:05:25.015Z</time>
      </trkpt>
      <trkpt lat="60.63186" lon="5.15272">
        <ele>102.596405</ele>
        <time>2020-07-25T11:05:26.978Z</time>
      </trkpt>
      <trkpt lat="60.63195" lon="5.15257">
        <ele>102.616181</ele>
        <time>2020-07-25T11:05:28.987Z</time>
      </trkpt>
      <trkpt lat="60.63203" lon="5.15242">
        <ele>102.635492</ele>
        <time>2020-07-25T11:05:31.002Z</time>
      </trkpt>
      <trkpt lat="60.63211" lon="5.15227">
        <ele>102.655034</ele>
        <time>2020-07-25T11:05:33.004Z</time>
      </trkpt>
      <trkpt lat="60.6322" lon="5.15213">
        <ele>102.674521</ele>
        <time>2020-07-25T11:05:35.005Z</time>
      </trkpt>
      <trkpt lat="60.63228" lon="5.15198">
        <ele>102.6937</ele>
        <time>2020-07-25T11:05:36.999Z</time>
      </trkpt>
      <trkpt lat="60.63236" lon="5.15185">
        <ele>102.711902</ele>
        <time>2020-07-25T11:05:39.004Z</time>
      </trkpt>
      <trkpt lat="60.63243" lon="5.15171">
        <ele>102.728517</ele>
        <time>2020-07-25T11:05:40.975Z</time>
      </trkpt>
      <trkpt lat="60.63249" lon="5.15158">
        <ele>102.745002</ele>
        <time>2020-07-25T11:05:42.975Z</time>
      </trkpt>
      <trkpt lat="60.63257" lon="5.15143">
        <ele>102.7634</ele>
        <time>2020-07-25T11:05:45.003Z</time>
      </trkpt>
      <trkpt lat="60.63266" lon="5.15126">
        <ele>102.784759</ele>
        <time>2020-07-25T11:05:46.984Z</time>
      </trkpt>
      <trkpt lat="60.63275" lon="5.15109">
        <ele>102.806681</ele>
        <time>2020-07-25T11:05:48.976Z</time>
      </trkpt>
      <trkpt lat="60.63283" lon="5.15089">
        <ele>102.829093</ele>
        <time>2020-07-25T11:05:50.991Z</time>
      </trkpt>
      <trkpt lat="60.6329" lon="5.15068">
        <ele>102.786533</ele>
        <time>2020-07-25T11:05:52.974Z</time>
      </trkpt>
      <trkpt lat="60.63297" lon="5.15046">
        <ele>102.6483</ele>
        <time>2020-07-25T11:05:54.971Z</time>
      </trkpt>
      <trkpt lat="60.63303" lon="5.15022">
        <ele>102.507101</ele>
        <time>2020-07-25T11:05:57.008Z</time>
      </trkpt>
      <trkpt lat="60.63309" lon="5.14997">
        <ele>102.357757</ele>
        <time>2020-07-25T11:05:58.986Z</time>
      </trkpt>
      <trkpt lat="60.63315" lon="5.14969">
        <ele>102.199139</ele>
        <time>2020-07-25T11:06:01.003Z</time>
      </trkpt>
      <trkpt lat="60.6332" lon="5.14939">
        <ele>102.028288</ele>
        <time>2020-07-25T11:06:02.993Z</time>
      </trkpt>
      <trkpt lat="60.63326" lon="5.14907">
        <ele>101.846993</ele>
        <time>2020-07-25T11:06:05.007Z</time>
      </trkpt>
      <trkpt lat="60.63332" lon="5.14875">
        <ele>101.663831</ele>
        <time>2020-07-25T11:06:06.971Z</time>
      </trkpt>
      <trkpt lat="60.63338" lon="5.14845">
        <ele>101.494464</ele>
        <time>2020-07-25T11:06:08.988Z</time>
      </trkpt>
      <trkpt lat="60.63342" lon="5.14818">
        <ele>101.342576</ele>
        <time>2020-07-25T11:06:10.984Z</time>
      </trkpt>
      <trkpt lat="60.63347" lon="5.14794">
        <ele>101.205919</ele>
        <time>2020-07-25T11:06:12.985Z</time>
      </trkpt>
      <trkpt lat="60.63352" lon="5.14773">
        <ele>101.081139</ele>
        <time>2020-07-25T11:06:14.987Z</time>
      </trkpt>
      <trkpt lat="60.63355" lon="5.14753">
        <ele>100.97159</ele>
        <time>2020-07-25T11:06:16.998Z</time>
      </trkpt>
      <trkpt lat="60.63359" lon="5.14736">
        <ele>100.977446</ele>
        <time>2020-07-25T11:06:19.004Z</time>
      </trkpt>
      <trkpt lat="60.63363" lon="5.14715">
        <ele>101.434104</ele>
        <time>2020-07-25T11:06:22.016Z</time>
      </trkpt>
      <trkpt lat="60.63367" lon="5.14698">
        <ele>101.814237</ele>
        <time>2020-07-25T11:06:24.989Z</time>
      </trkpt>
      <trkpt lat="60.6337" lon="5.1468">
        <ele>102.187609</ele>
        <time>2020-07-25T11:06:28.009Z</time>
      </trkpt>
      <trkpt lat="60.63374" lon="5.14658">
        <ele>102.655805</ele>
        <time>2020-07-25T11:06:31.984Z</time>
      </trkpt>
      <trkpt lat="60.63378" lon="5.14636">
        <ele>103.138664</ele>
        <time>2020-07-25T11:06:35.980Z</time>
      </trkpt>
      <trkpt lat="60.63381" lon="5.14618">
        <ele>103.5075</ele>
        <time>2020-07-25T11:06:38.980Z</time>
      </trkpt>
      <trkpt lat="60.63386" lon="5.14596">
        <ele>103.984809</ele>
        <time>2020-07-25T11:06:42.988Z</time>
      </trkpt>
      <trkpt lat="60.6339" lon="5.14575">
        <ele>104.437714</ele>
        <time>2020-07-25T11:06:46.990Z</time>
      </trkpt>
      <trkpt lat="60.63395" lon="5.14555">
        <ele>104.878507</ele>
        <time>2020-07-25T11:06:50.999Z</time>
      </trkpt>
      <trkpt lat="60.63399" lon="5.14537">
        <ele>105.272301</ele>
        <time>2020-07-25T11:06:55.011Z</time>
      </trkpt>
      <trkpt lat="60.63402" lon="5.1452">
        <ele>105.643032</ele>
        <time>2020-07-25T11:06:58.971Z</time>
      </trkpt>
      <trkpt lat="60.63405" lon="5.14501">
        <ele>106.033988</ele>
        <time>2020-07-25T11:07:02.986Z</time>
      </trkpt>
      <trkpt lat="60.63408" lon="5.14483">
        <ele>106.409592</ele>
        <time>2020-07-25T11:07:06.987Z</time>
      </trkpt>
      <trkpt lat="60.63412" lon="5.14466">
        <ele>106.786328</ele>
        <time>2020-07-25T11:07:10.984Z</time>
      </trkpt>
      <trkpt lat="60.63414" lon="5.14447">
        <ele>107.168846</ele>
        <time>2020-07-25T11:07:14.992Z</time>
      </trkpt>
      <trkpt lat="60.63417" lon="5.14427">
        <ele>107.59645</ele>
        <time>2020-07-25T11:07:20.010Z</time>
      </trkpt>
      <trkpt lat="60.6342" lon="5.14409">
        <ele>107.96527</ele>
        <time>2020-07-25T11:07:23.973Z</time>
      </trkpt>
      <trkpt lat="60.6342" lon="5.1439">
        <ele>108.382714</ele>
        <time>2020-07-25T11:07:28.048Z</time>
      </trkpt>
      <trkpt lat="60.63421" lon="5.14369">
        <ele>108.933625</ele>
        <time>2020-07-25T11:07:32.981Z</time>
      </trkpt>
      <trkpt lat="60.6342" lon="5.1435">
        <ele>109.448984</ele>
        <time>2020-07-25T11:07:38.011Z</time>
      </trkpt>
      <trkpt lat="60.63418" lon="5.14328">
        <ele>110.032356</ele>
        <time>2020-07-25T11:07:42.987Z</time>
      </trkpt>
      <trkpt lat="60.63415" lon="5.14307">
        <ele>110.605229</ele>
        <time>2020-07-25T11:07:47.993Z</time>
      </trkpt>
      <trkpt lat="60.6341" lon="5.14289">
        <ele>111.145823</ele>
        <time>2020-07-25T11:07:53.005Z</time>
      </trkpt>
      <trkpt lat="60.63406" lon="5.14271">
        <ele>111.676301</ele>
        <time>2020-07-25T11:07:58.019Z</time>
      </trkpt>
      <trkpt lat="60.634" lon="5.14252">
        <ele>112.258929</ele>
        <time>2020-07-25T11:08:03.006Z</time>
      </trkpt>
      <trkpt lat="60.63394" lon="5.14234">
        <ele>112.839619</ele>
        <time>2020-07-25T11:08:08.026Z</time>
      </trkpt>
      <trkpt lat="60.63387" lon="5.14218">
        <ele>113.385729</ele>
        <time>2020-07-25T11:08:13.011Z</time>
      </trkpt>
      <trkpt lat="60.6338" lon="5.14202">
        <ele>113.969266</ele>
        <time>2020-07-25T11:08:17.001Z</time>
      </trkpt>
      <trkpt lat="60.63372" lon="5.14188">
        <ele>114.513015</ele>
        <time>2020-07-25T11:08:20.977Z</time>
      </trkpt>
      <trkpt lat="60.63364" lon="5.14174">
        <ele>115.096541</ele>
        <time>2020-07-25T11:08:25.995Z</time>
      </trkpt>
      <trkpt lat="60.63355" lon="5.14159">
        <ele>115.689947</ele>
        <time>2020-07-25T11:08:31.015Z</time>
      </trkpt>
      <trkpt lat="60.63346" lon="5.14147">
        <ele>116.270088</ele>
        <time>2020-07-25T11:08:35.977Z</time>
      </trkpt>
      <trkpt lat="60.63338" lon="5.14136">
        <ele>116.795891</ele>
        <time>2020-07-25T11:08:40.992Z</time>
      </trkpt>
      <trkpt lat="60.63329" lon="5.14128">
        <ele>117.32589</ele>
        <time>2020-07-25T11:08:45.979Z</time>
      </trkpt>
      <trkpt lat="60.63321" lon="5.14118">
        <ele>117.826974</ele>
        <time>2020-07-25T11:08:50.997Z</time>
      </trkpt>
      <trkpt lat="60.63312" lon="5.1411">
        <ele>117.983502</ele>
        <time>2020-07-25T11:08:56.027Z</time>
      </trkpt>
      <trkpt lat="60.63303" lon="5.14101">
        <ele>118.14127</ele>
        <time>2020-07-25T11:09:01.033Z</time>
      </trkpt>
      <trkpt lat="60.63294" lon="5.1409">
        <ele>118.299565</ele>
        <time>2020-07-25T11:09:05.995Z</time>
      </trkpt>
      <trkpt lat="60.63286" lon="5.14083">
        <ele>118.441453</ele>
        <time>2020-07-25T11:09:09.992Z</time>
      </trkpt>
      <trkpt lat="60.63277" lon="5.14076">
        <ele>118.593361</ele>
        <time>2020-07-25T11:09:13.977Z</time>
      </trkpt>
      <trkpt lat="60.63268" lon="5.14066">
        <ele>118.755694</ele>
        <time>2020-07-25T11:09:17.984Z</time>
      </trkpt>
      <trkpt lat="60.6326" lon="5.14053">
        <ele>118.905369</ele>
        <time>2020-07-25T11:09:20.981Z</time>
      </trkpt>
      <trkpt lat="60.63253" lon="5.14036">
        <ele>119.082321</ele>
        <time>2020-07-25T11:09:23.997Z</time>
      </trkpt>
      <trkpt lat="60.63249" lon="5.14019">
        <ele>119.22178</ele>
        <time>2020-07-25T11:09:26.002Z</time>
      </trkpt>
      <trkpt lat="60.63247" lon="5.13999">
        <ele>119.378839</ele>
        <time>2020-07-25T11:09:28.018Z</time>
      </trkpt>
      <trkpt lat="60.63247" lon="5.13976">
        <ele>119.554514</ele>
        <time>2020-07-25T11:09:29.974Z</time>
      </trkpt>
      <trkpt lat="60.63247" lon="5.13949">
        <ele>119.758018</ele>
        <time>2020-07-25T11:09:32.041Z</time>
      </trkpt>
      <trkpt lat="60.63249" lon="5.13918">
        <ele>119.998224</ele>
        <time>2020-07-25T11:09:33.974Z</time>
      </trkpt>
      <trkpt lat="60.63252" lon="5.13883">
        <ele>120.267735</ele>
        <time>2020-07-25T11:09:35.992Z</time>
      </trkpt>
      <trkpt lat="60.63254" lon="5.13848">
        <ele>120.538866</ele>
        <time>2020-07-25T11:09:37.990Z</time>
      </trkpt>
      <trkpt lat="60.63255" lon="5.13814">
        <ele>119.881893</ele>
        <time>2020-07-25T11:09:39.984Z</time>
      </trkpt>
      <trkpt lat="60.63258" lon="5.13778">
        <ele>118.652738</ele>
        <time>2020-07-25T11:09:41.983Z</time>
      </trkpt>
      <trkpt lat="60.6326" lon="5.13759">
        <ele>118.018151</ele>
        <time>2020-07-25T11:09:42.977Z</time>
      </trkpt>
      <trkpt lat="60.63261" lon="5.1374">
        <ele>117.367924</ele>
        <time>2020-07-25T11:09:43.986Z</time>
      </trkpt>
      <trkpt lat="60.63263" lon="5.13722">
        <ele>116.718314</ele>
        <time>2020-07-25T11:09:44.983Z</time>
      </trkpt>
      <trkpt lat="60.63264" lon="5.13703">
        <ele>116.077048</ele>
        <time>2020-07-25T11:09:45.990Z</time>
      </trkpt>
      <trkpt lat="60.63266" lon="5.13684">
        <ele>115.444632</ele>
        <time>2020-07-25T11:09:47.012Z</time>
      </trkpt>
      <trkpt lat="60.63269" lon="5.13649">
        <ele>114.225155</ele>
        <time>2020-07-25T11:09:48.979Z</time>
      </trkpt>
      <trkpt lat="60.63273" lon="5.13615">
        <ele>113.056431</ele>
        <time>2020-07-25T11:09:51.005Z</time>
      </trkpt>
      <trkpt lat="60.63276" lon="5.13584">
        <ele>111.9754</ele>
        <time>2020-07-25T11:09:52.981Z</time>
      </trkpt>
      <trkpt lat="60.63277" lon="5.13555">
        <ele>110.982783</ele>
        <time>2020-07-25T11:09:54.977Z</time>
      </trkpt>
      <trkpt lat="60.63279" lon="5.13529">
        <ele>110.10432</ele>
        <time>2020-07-25T11:09:56.980Z</time>
      </trkpt>
      <trkpt lat="60.6328" lon="5.13504">
        <ele>109.260953</ele>
        <time>2020-07-25T11:09:58.997Z</time>
      </trkpt>
      <trkpt lat="60.63283" lon="5.13479">
        <ele>108.371774</ele>
        <time>2020-07-25T11:10:00.995Z</time>
      </trkpt>
      <trkpt lat="60.63285" lon="5.13452">
        <ele>107.86912</ele>
        <time>2020-07-25T11:10:02.984Z</time>
      </trkpt>
      <trkpt lat="60.63286" lon="5.13424">
        <ele>107.437634</ele>
        <time>2020-07-25T11:10:04.987Z</time>
      </trkpt>
      <trkpt lat="60.63287" lon="5.13393">
        <ele>106.963883</ele>
        <time>2020-07-25T11:10:06.984Z</time>
      </trkpt>
      <trkpt lat="60.63289" lon="5.1336">
        <ele>106.450548</ele>
        <time>2020-07-25T11:10:09.026Z</time>
      </trkpt>
      <trkpt lat="60.6329" lon="5.13324">
        <ele>105.896347</ele>
        <time>2020-07-25T11:10:10.983Z</time>
      </trkpt>
      <trkpt lat="60.6329" lon="5.13306">
        <ele>105.609438</ele>
        <time>2020-07-25T11:10:11.985Z</time>
      </trkpt>
      <trkpt lat="60.6329" lon="5.13287">
        <ele>105.319189</ele>
        <time>2020-07-25T11:10:13.013Z</time>
      </trkpt>
      <trkpt lat="60.63289" lon="5.13267">
        <ele>105.01831</ele>
        <time>2020-07-25T11:10:13.980Z</time>
      </trkpt>
      <trkpt lat="60.63288" lon="5.13248">
        <ele>104.70976</ele>
        <time>2020-07-25T11:10:14.995Z</time>
      </trkpt>
      <trkpt lat="60.63286" lon="5.13227">
        <ele>104.391587</ele>
        <time>2020-07-25T11:10:16.016Z</time>
      </trkpt>
      <trkpt lat="60.63285" lon="5.13206">
        <ele>104.063083</ele>
        <time>2020-07-25T11:10:16.988Z</time>
      </trkpt>
      <trkpt lat="60.63285" lon="5.13185">
        <ele>103.735711</ele>
        <time>2020-07-25T11:10:17.984Z</time>
      </trkpt>
      <trkpt lat="60.63284" lon="5.13164">
        <ele>103.410277</ele>
        <time>2020-07-25T11:10:18.975Z</time>
      </trkpt>
      <trkpt lat="60.63282" lon="5.13143">
        <ele>103.085326</ele>
        <time>2020-07-25T11:10:20.028Z</time>
      </trkpt>
      <trkpt lat="60.63281" lon="5.13123">
        <ele>102.769718</ele>
        <time>2020-07-25T11:10:21.018Z</time>
      </trkpt>
      <trkpt lat="60.63279" lon="5.13103">
        <ele>102.603283</ele>
        <time>2020-07-25T11:10:22.027Z</time>
      </trkpt>
      <trkpt lat="60.63277" lon="5.13085">
        <ele>102.727385</ele>
        <time>2020-07-25T11:10:22.985Z</time>
      </trkpt>
      <trkpt lat="60.63275" lon="5.13054">
        <ele>102.93631</ele>
        <time>2020-07-25T11:10:24.989Z</time>
      </trkpt>
      <trkpt lat="60.63273" lon="5.1303">
        <ele>103.0984</ele>
        <time>2020-07-25T11:10:27.015Z</time>
      </trkpt>
      <trkpt lat="60.63272" lon="5.13011">
        <ele>103.230675</ele>
        <time>2020-07-25T11:10:28.976Z</time>
      </trkpt>
      <trkpt lat="60.6327" lon="5.12989">
        <ele>103.38042</ele>
        <time>2020-07-25T11:10:31.998Z</time>
      </trkpt>
      <trkpt lat="60.63268" lon="5.12967">
        <ele>103.52903</ele>
        <time>2020-07-25T11:10:35.975Z</time>
      </trkpt>
      <trkpt lat="60.63266" lon="5.12948">
        <ele>103.663229</ele>
        <time>2020-07-25T11:10:40.003Z</time>
      </trkpt>
      <trkpt lat="60.63261" lon="5.12931">
        <ele>103.790984</ele>
        <time>2020-07-25T11:10:42.996Z</time>
      </trkpt>
      <trkpt lat="60.63258" lon="5.1291">
        <ele>103.93949</ele>
        <time>2020-07-25T11:10:46.010Z</time>
      </trkpt>
      <trkpt lat="60.63254" lon="5.12889">
        <ele>104.087699</ele>
        <time>2020-07-25T11:10:49.045Z</time>
      </trkpt>
      <trkpt lat="60.63251" lon="5.12869">
        <ele>104.227298</ele>
        <time>2020-07-25T11:10:51.975Z</time>
      </trkpt>
      <trkpt lat="60.63248" lon="5.1285">
        <ele>104.362139</ele>
        <time>2020-07-25T11:10:55.025Z</time>
      </trkpt>
      <trkpt lat="60.63246" lon="5.12831">
        <ele>104.495131</ele>
        <time>2020-07-25T11:10:57.994Z</time>
      </trkpt>
      <trkpt lat="60.63246" lon="5.12808">
        <ele>104.646917</ele>
        <time>2020-07-25T11:11:01.007Z</time>
      </trkpt>
      <trkpt lat="60.6325" lon="5.12787">
        <ele>104.804297</ele>
        <time>2020-07-25T11:11:04.005Z</time>
      </trkpt>
      <trkpt lat="60.63261" lon="5.1277">
        <ele>104.98423</ele>
        <time>2020-07-25T11:11:07.008Z</time>
      </trkpt>
      <trkpt lat="60.63271" lon="5.12757">
        <ele>104.975731</ele>
        <time>2020-07-25T11:11:09.983Z</time>
      </trkpt>
      <trkpt lat="60.63279" lon="5.12745">
        <ele>104.932985</ele>
        <time>2020-07-25T11:11:11.976Z</time>
      </trkpt>
      <trkpt lat="60.63287" lon="5.12733">
        <ele>104.885241</ele>
        <time>2020-07-25T11:11:13.986Z</time>
      </trkpt>
      <trkpt lat="60.63296" lon="5.1272">
        <ele>104.83301</ele>
        <time>2020-07-25T11:11:15.993Z</time>
      </trkpt>
      <trkpt lat="60.63306" lon="5.12706">
        <ele>104.77951</ele>
        <time>2020-07-25T11:11:17.978Z</time>
      </trkpt>
      <trkpt lat="60.63315" lon="5.12692">
        <ele>104.725584</ele>
        <time>2020-07-25T11:11:19.993Z</time>
      </trkpt>
      <trkpt lat="60.63324" lon="5.12678">
        <ele>104.674435</ele>
        <time>2020-07-25T11:11:21.988Z</time>
      </trkpt>
      <trkpt lat="60.63332" lon="5.12665">
        <ele>104.623653</ele>
        <time>2020-07-25T11:11:23.985Z</time>
      </trkpt>
      <trkpt lat="60.6334" lon="5.12652">
        <ele>104.575969</ele>
        <time>2020-07-25T11:11:25.990Z</time>
      </trkpt>
      <trkpt lat="60.63348" lon="5.1264">
        <ele>104.53115</ele>
        <time>2020-07-25T11:11:28.013Z</time>
      </trkpt>
      <trkpt lat="60.63356" lon="5.12629">
        <ele>104.486627</ele>
        <time>2020-07-25T11:11:29.997Z</time>
      </trkpt>
      <trkpt lat="60.63367" lon="5.12613">
        <ele>104.425042</ele>
        <time>2020-07-25T11:11:32.994Z</time>
      </trkpt>
      <trkpt lat="60.63374" lon="5.12602">
        <ele>104.382564</ele>
        <time>2020-07-25T11:11:35.006Z</time>
      </trkpt>
      <trkpt lat="60.63385" lon="5.12587">
        <ele>104.321869</ele>
        <time>2020-07-25T11:11:37.992Z</time>
      </trkpt>
      <trkpt lat="60.63395" lon="5.1257">
        <ele>104.261869</ele>
        <time>2020-07-25T11:11:40.973Z</time>
      </trkpt>
      <trkpt lat="60.63402" lon="5.1256">
        <ele>104.219657</ele>
        <time>2020-07-25T11:11:42.977Z</time>
      </trkpt>
      <trkpt lat="60.6341" lon="5.12547">
        <ele>104.109365</ele>
        <time>2020-07-25T11:11:44.984Z</time>
      </trkpt>
      <trkpt lat="60.63419" lon="5.12534">
        <ele>103.800806</ele>
        <time>2020-07-25T11:11:46.996Z</time>
      </trkpt>
      <trkpt lat="60.63428" lon="5.12519">
        <ele>103.446657</ele>
        <time>2020-07-25T11:11:48.978Z</time>
      </trkpt>
      <trkpt lat="60.6344" lon="5.12502">
        <ele>103.020271</ele>
        <time>2020-07-25T11:11:50.980Z</time>
      </trkpt>
      <trkpt lat="60.63453" lon="5.12482">
        <ele>102.547302</ele>
        <time>2020-07-25T11:11:53.014Z</time>
      </trkpt>
      <trkpt lat="60.63467" lon="5.1246">
        <ele>102.052236</ele>
        <time>2020-07-25T11:11:54.976Z</time>
      </trkpt>
      <trkpt lat="60.6348" lon="5.12438">
        <ele>101.560343</ele>
        <time>2020-07-25T11:11:56.997Z</time>
      </trkpt>
      <trkpt lat="60.63491" lon="5.12418">
        <ele>101.126262</ele>
        <time>2020-07-25T11:11:58.970Z</time>
      </trkpt>
      <trkpt lat="60.63503" lon="5.12399">
        <ele>100.698014</ele>
        <time>2020-07-25T11:12:01.014Z</time>
      </trkpt>
      <trkpt lat="60.63515" lon="5.1238">
        <ele>100.260393</ele>
        <time>2020-07-25T11:12:03.001Z</time>
      </trkpt>
      <trkpt lat="60.63526" lon="5.12357">
        <ele>99.809074</ele>
        <time>2020-07-25T11:12:04.988Z</time>
      </trkpt>
      <trkpt lat="60.63533" lon="5.1233">
        <ele>99.376223</ele>
        <time>2020-07-25T11:12:06.977Z</time>
      </trkpt>
      <trkpt lat="60.63536" lon="5.123">
        <ele>98.911545</ele>
        <time>2020-07-25T11:12:08.998Z</time>
      </trkpt>
      <trkpt lat="60.63537" lon="5.12268">
        <ele>97.97863</ele>
        <time>2020-07-25T11:12:10.991Z</time>
      </trkpt>
      <trkpt lat="60.63538" lon="5.12234">
        <ele>96.973421</ele>
        <time>2020-07-25T11:12:12.985Z</time>
      </trkpt>
      <trkpt lat="60.6354" lon="5.12216">
        <ele>96.423867</ele>
        <time>2020-07-25T11:12:14.004Z</time>
      </trkpt>
      <trkpt lat="60.63544" lon="5.12197">
        <ele>95.845047</ele>
        <time>2020-07-25T11:12:14.983Z</time>
      </trkpt>
      <trkpt lat="60.63549" lon="5.12179">
        <ele>95.228317</ele>
        <time>2020-07-25T11:12:16.003Z</time>
      </trkpt>
      <trkpt lat="60.63556" lon="5.12163">
        <ele>94.5871</ele>
        <time>2020-07-25T11:12:17.026Z</time>
      </trkpt>
      <trkpt lat="60.63566" lon="5.12151">
        <ele>93.947407</ele>
        <time>2020-07-25T11:12:17.972Z</time>
      </trkpt>
      <trkpt lat="60.63575" lon="5.12143">
        <ele>93.329618</ele>
        <time>2020-07-25T11:12:18.982Z</time>
      </trkpt>
      <trkpt lat="60.63584" lon="5.12137">
        <ele>92.776928</ele>
        <time>2020-07-25T11:12:19.999Z</time>
      </trkpt>
      <trkpt lat="60.63599" lon="5.12125">
        <ele>91.827498</ele>
        <time>2020-07-25T11:12:21.990Z</time>
      </trkpt>
      <trkpt lat="60.63606" lon="5.12105">
        <ele>91.095679</ele>
        <time>2020-07-25T11:12:23.996Z</time>
      </trkpt>
      <trkpt lat="60.63601" lon="5.1208">
        <ele>90.301789</ele>
        <time>2020-07-25T11:12:25.992Z</time>
      </trkpt>
      <trkpt lat="60.63585" lon="5.12072">
        <ele>89.323553</ele>
        <time>2020-07-25T11:12:28.016Z</time>
      </trkpt>
      <trkpt lat="60.63575" lon="5.12076">
        <ele>88.753711</ele>
        <time>2020-07-25T11:12:28.992Z</time>
      </trkpt>
      <trkpt lat="60.63566" lon="5.12083">
        <ele>88.146378</ele>
        <time>2020-07-25T11:12:29.979Z</time>
      </trkpt>
      <trkpt lat="60.63556" lon="5.12091">
        <ele>87.523313</ele>
        <time>2020-07-25T11:12:30.980Z</time>
      </trkpt>
      <trkpt lat="60.63546" lon="5.121">
        <ele>86.855119</ele>
        <time>2020-07-25T11:12:32.004Z</time>
      </trkpt>
      <trkpt lat="60.63535" lon="5.12108">
        <ele>86.153143</ele>
        <time>2020-07-25T11:12:32.995Z</time>
      </trkpt>
      <trkpt lat="60.63524" lon="5.12115">
        <ele>85.47425</ele>
        <time>2020-07-25T11:12:33.992Z</time>
      </trkpt>
      <trkpt lat="60.63514" lon="5.12117">
        <ele>84.831528</ele>
        <time>2020-07-25T11:12:34.998Z</time>
      </trkpt>
      <trkpt lat="60.63504" lon="5.12113">
        <ele>84.23331</ele>
        <time>2020-07-25T11:12:35.983Z</time>
      </trkpt>
      <trkpt lat="60.63496" lon="5.12101">
        <ele>83.613689</ele>
        <time>2020-07-25T11:12:37.000Z</time>
      </trkpt>
      <trkpt lat="60.6349" lon="5.12083">
        <ele>82.970434</ele>
        <time>2020-07-25T11:12:37.985Z</time>
      </trkpt>
      <trkpt lat="60.63487" lon="5.12061">
        <ele>82.281641</ele>
        <time>2020-07-25T11:12:39.008Z</time>
      </trkpt>
      <trkpt lat="60.63485" lon="5.12036">
        <ele>81.534131</ele>
        <time>2020-07-25T11:12:39.997Z</time>
      </trkpt>
      <trkpt lat="60.63486" lon="5.12011">
        <ele>80.782454</ele>
        <time>2020-07-25T11:12:41.012Z</time>
      </trkpt>
      <trkpt lat="60.63488" lon="5.11985">
        <ele>80.010453</ele>
        <time>2020-07-25T11:12:41.971Z</time>
      </trkpt>
      <trkpt lat="60.6349" lon="5.11961">
        <ele>79.283336</ele>
        <time>2020-07-25T11:12:42.987Z</time>
      </trkpt>
      <trkpt lat="60.63494" lon="5.11939">
        <ele>78.606733</ele>
        <time>2020-07-25T11:12:43.990Z</time>
      </trkpt>
      <trkpt lat="60.63499" lon="5.11921">
        <ele>77.990651</ele>
        <time>2020-07-25T11:12:44.978Z</time>
      </trkpt>
      <trkpt lat="60.63505" lon="5.11908">
        <ele>77.433495</ele>
        <time>2020-07-25T11:12:45.991Z</time>
      </trkpt>
      <trkpt lat="60.63517" lon="5.11889">
        <ele>78.168492</ele>
        <time>2020-07-25T11:12:47.980Z</time>
      </trkpt>
      <trkpt lat="60.63525" lon="5.11876">
        <ele>78.812098</ele>
        <time>2020-07-25T11:12:50.024Z</time>
      </trkpt>
      <trkpt lat="60.63535" lon="5.11871">
        <ele>79.371846</ele>
        <time>2020-07-25T11:12:52.972Z</time>
      </trkpt>
      <trkpt lat="60.63544" lon="5.11863">
        <ele>79.993513</ele>
        <time>2020-07-25T11:12:57.979Z</time>
      </trkpt>
      <trkpt lat="60.63553" lon="5.11854">
        <ele>80.539618</ele>
        <time>2020-07-25T11:13:02.993Z</time>
      </trkpt>
      <trkpt lat="60.63561" lon="5.11845">
        <ele>81.100171</ele>
        <time>2020-07-25T11:13:07.974Z</time>
      </trkpt>
      <trkpt lat="60.63569" lon="5.11835">
        <ele>81.674392</ele>
        <time>2020-07-25T11:13:12.984Z</time>
      </trkpt>
      <trkpt lat="60.63576" lon="5.11823">
        <ele>82.21016</ele>
        <time>2020-07-25T11:13:18.022Z</time>
      </trkpt>
      <trkpt lat="60.63584" lon="5.11811">
        <ele>82.777457</ele>
        <time>2020-07-25T11:13:23.005Z</time>
      </trkpt>
      <trkpt lat="60.63591" lon="5.11798">
        <ele>83.340353</ele>
        <time>2020-07-25T11:13:29.984Z</time>
      </trkpt>
      <trkpt lat="60.63599" lon="5.11785">
        <ele>83.929873</ele>
        <time>2020-07-25T11:13:36.981Z</time>
      </trkpt>
      <trkpt lat="60.63607" lon="5.11772">
        <ele>84.521269</ele>
        <time>2020-07-25T11:13:43.998Z</time>
      </trkpt>
      <trkpt lat="60.63615" lon="5.11759">
        <ele>85.136535</ele>
        <time>2020-07-25T11:13:50.983Z</time>
      </trkpt>
      <trkpt lat="60.63621" lon="5.11744">
        <ele>85.690881</ele>
        <time>2020-07-25T11:13:58.004Z</time>
      </trkpt>
      <trkpt lat="60.63627" lon="5.11729">
        <ele>86.23628</ele>
        <time>2020-07-25T11:14:03.979Z</time>
      </trkpt>
      <trkpt lat="60.63632" lon="5.11711">
        <ele>86.847682</ele>
        <time>2020-07-25T11:14:09.985Z</time>
      </trkpt>
      <trkpt lat="60.63637" lon="5.11692">
        <ele>87.463755</ele>
        <time>2020-07-25T11:14:14.986Z</time>
      </trkpt>
      <trkpt lat="60.63642" lon="5.1167">
        <ele>88.039672</ele>
        <time>2020-07-25T11:14:19.032Z</time>
      </trkpt>
      <trkpt lat="60.63645" lon="5.11649">
        <ele>88.332764</ele>
        <time>2020-07-25T11:14:21.978Z</time>
      </trkpt>
      <trkpt lat="60.63642" lon="5.11628">
        <ele>88.61119</ele>
        <time>2020-07-25T11:14:25.993Z</time>
      </trkpt>
      <trkpt lat="60.63632" lon="5.11621">
        <ele>88.90126</ele>
        <time>2020-07-25T11:14:30.983Z</time>
      </trkpt>
      <trkpt lat="60.63624" lon="5.11612">
        <ele>89.157422</ele>
        <time>2020-07-25T11:14:35.978Z</time>
      </trkpt>
      <trkpt lat="60.63614" lon="5.11606">
        <ele>89.425295</ele>
        <time>2020-07-25T11:14:40.997Z</time>
      </trkpt>
      <trkpt lat="60.63603" lon="5.11598">
        <ele>89.721651</ele>
        <time>2020-07-25T11:14:45.971Z</time>
      </trkpt>
      <trkpt lat="60.63593" lon="5.11592">
        <ele>90.002196</ele>
        <time>2020-07-25T11:14:52.014Z</time>
      </trkpt>
      <trkpt lat="60.63584" lon="5.11586">
        <ele>90.266748</ele>
        <time>2020-07-25T11:14:56.988Z</time>
      </trkpt>
      <trkpt lat="60.63573" lon="5.11581">
        <ele>90.548596</ele>
        <time>2020-07-25T11:15:02.001Z</time>
      </trkpt>
      <trkpt lat="60.63563" lon="5.11578">
        <ele>90.825342</ele>
        <time>2020-07-25T11:15:08.008Z</time>
      </trkpt>
      <trkpt lat="60.63554" lon="5.11575">
        <ele>91.077866</ele>
        <time>2020-07-25T11:15:12.989Z</time>
      </trkpt>
      <trkpt lat="60.63545" lon="5.11569">
        <ele>91.327681</ele>
        <time>2020-07-25T11:15:18.013Z</time>
      </trkpt>
      <trkpt lat="60.63534" lon="5.11565">
        <ele>91.607053</ele>
        <time>2020-07-25T11:15:23.992Z</time>
      </trkpt>
      <trkpt lat="60.63525" lon="5.11561">
        <ele>91.869919</ele>
        <time>2020-07-25T11:15:29.997Z</time>
      </trkpt>
      <trkpt lat="60.63514" lon="5.11554">
        <ele>92.160822</ele>
        <time>2020-07-25T11:15:37.006Z</time>
      </trkpt>
      <trkpt lat="60.63505" lon="5.11544">
        <ele>92.449566</ele>
        <time>2020-07-25T11:15:41.985Z</time>
      </trkpt>
      <trkpt lat="60.63496" lon="5.11532">
        <ele>92.72122</ele>
        <time>2020-07-25T11:15:46.979Z</time>
      </trkpt>
      <trkpt lat="60.63488" lon="5.11519">
        <ele>92.833829</ele>
        <time>2020-07-25T11:15:52.984Z</time>
      </trkpt>
      <trkpt lat="60.6348" lon="5.11504">
        <ele>92.94628</ele>
        <time>2020-07-25T11:15:59.000Z</time>
      </trkpt>
      <trkpt lat="60.63475" lon="5.11485">
        <ele>93.054754</ele>
        <time>2020-07-25T11:16:03.973Z</time>
      </trkpt>
      <trkpt lat="60.63474" lon="5.11463">
        <ele>93.1684</ele>
        <time>2020-07-25T11:16:08.024Z</time>
      </trkpt>
      <trkpt lat="60.63476" lon="5.11442">
        <ele>93.280352</ele>
        <time>2020-07-25T11:16:10.980Z</time>
      </trkpt>
      <trkpt lat="60.63481" lon="5.11419">
        <ele>93.407076</ele>
        <time>2020-07-25T11:16:14.000Z</time>
      </trkpt>
      <trkpt lat="60.63489" lon="5.11399">
        <ele>93.538736</ele>
        <time>2020-07-25T11:16:16.998Z</time>
      </trkpt>
      <trkpt lat="60.63499" lon="5.1138">
        <ele>93.679228</ele>
        <time>2020-07-25T11:16:19.980Z</time>
      </trkpt>
      <trkpt lat="60.63506" lon="5.11365">
        <ele>93.783234</ele>
        <time>2020-07-25T11:16:22.006Z</time>
      </trkpt>
      <trkpt lat="60.63513" lon="5.11347">
        <ele>93.902713</ele>
        <time>2020-07-25T11:16:24.003Z</time>
      </trkpt>
      <trkpt lat="60.63522" lon="5.1133">
        <ele>94.029335</ele>
        <time>2020-07-25T11:16:25.995Z</time>
      </trkpt>
      <trkpt lat="60.63531" lon="5.11311">
        <ele>94.164004</ele>
        <time>2020-07-25T11:16:27.986Z</time>
      </trkpt>
      <trkpt lat="60.6354" lon="5.11291">
        <ele>94.305953</ele>
        <time>2020-07-25T11:16:30.008Z</time>
      </trkpt>
      <trkpt lat="60.6355" lon="5.11271">
        <ele>94.447545</ele>
        <time>2020-07-25T11:16:32.035Z</time>
      </trkpt>
      <trkpt lat="60.63559" lon="5.11252">
        <ele>94.588797</ele>
        <time>2020-07-25T11:16:34.003Z</time>
      </trkpt>
      <trkpt lat="60.63569" lon="5.11233">
        <ele>94.535451</ele>
        <time>2020-07-25T11:16:35.991Z</time>
      </trkpt>
      <trkpt lat="60.63579" lon="5.11215">
        <ele>94.476214</ele>
        <time>2020-07-25T11:16:38.024Z</time>
      </trkpt>
      <trkpt lat="60.63587" lon="5.11197">
        <ele>94.419521</ele>
        <time>2020-07-25T11:16:39.977Z</time>
      </trkpt>
      <trkpt lat="60.63596" lon="5.11179">
        <ele>94.362522</ele>
        <time>2020-07-25T11:16:42.032Z</time>
      </trkpt>
      <trkpt lat="60.63602" lon="5.11161">
        <ele>94.313148</ele>
        <time>2020-07-25T11:16:43.972Z</time>
      </trkpt>
      <trkpt lat="60.63607" lon="5.11141">
        <ele>94.264755</ele>
        <time>2020-07-25T11:16:45.994Z</time>
      </trkpt>
      <trkpt lat="60.63611" lon="5.1112">
        <ele>94.214209</ele>
        <time>2020-07-25T11:16:48.007Z</time>
      </trkpt>
      <trkpt lat="60.63616" lon="5.11097">
        <ele>94.159373</ele>
        <time>2020-07-25T11:16:50.001Z</time>
      </trkpt>
      <trkpt lat="60.6362" lon="5.11074">
        <ele>94.103019</ele>
        <time>2020-07-25T11:16:51.987Z</time>
      </trkpt>
      <trkpt lat="60.63624" lon="5.11051">
        <ele>94.048082</ele>
        <time>2020-07-25T11:16:53.984Z</time>
      </trkpt>
      <trkpt lat="60.63627" lon="5.11029">
        <ele>93.997848</ele>
        <time>2020-07-25T11:16:56.000Z</time>
      </trkpt>
      <trkpt lat="60.6363" lon="5.1101">
        <ele>93.953521</ele>
        <time>2020-07-25T11:16:57.986Z</time>
      </trkpt>
      <trkpt lat="60.63633" lon="5.10987">
        <ele>93.900415</ele>
        <time>2020-07-25T11:17:01.000Z</time>
      </trkpt>
      <trkpt lat="60.63635" lon="5.10969">
        <ele>93.85828</ele>
        <time>2020-07-25T11:17:04.000Z</time>
      </trkpt>
      <trkpt lat="60.63637" lon="5.10948">
        <ele>93.811552</ele>
        <time>2020-07-25T11:17:07.991Z</time>
      </trkpt>
      <trkpt lat="60.63636" lon="5.10928">
        <ele>93.725239</ele>
        <time>2020-07-25T11:17:12.985Z</time>
      </trkpt>
      <trkpt lat="60.6363" lon="5.10913">
        <ele>93.490198</ele>
        <time>2020-07-25T11:17:16.974Z</time>
      </trkpt>
      <trkpt lat="60.6362" lon="5.10901">
        <ele>93.175814</ele>
        <time>2020-07-25T11:17:21.012Z</time>
      </trkpt>
      <trkpt lat="60.6361" lon="5.10896">
        <ele>92.89669</ele>
        <time>2020-07-25T11:17:24.013Z</time>
      </trkpt>
      <trkpt lat="60.63598" lon="5.1089">
        <ele>92.573446</ele>
        <time>2020-07-25T11:17:26.983Z</time>
      </trkpt>
      <trkpt lat="60.63588" lon="5.10887">
        <ele>92.321885</ele>
        <time>2020-07-25T11:17:28.995Z</time>
      </trkpt>
      <trkpt lat="60.63577" lon="5.10882">
        <ele>92.006081</ele>
        <time>2020-07-25T11:17:31.006Z</time>
      </trkpt>
      <trkpt lat="60.63563" lon="5.10874">
        <ele>91.637391</ele>
        <time>2020-07-25T11:17:32.990Z</time>
      </trkpt>
      <trkpt lat="60.6355" lon="5.10863">
        <ele>91.254663</ele>
        <time>2020-07-25T11:17:34.987Z</time>
      </trkpt>
      <trkpt lat="60.63538" lon="5.10845">
        <ele>90.871699</ele>
        <time>2020-07-25T11:17:37.009Z</time>
      </trkpt>
      <trkpt lat="60.6353" lon="5.10817">
        <ele>90.451246</ele>
        <time>2020-07-25T11:17:38.984Z</time>
      </trkpt>
      <trkpt lat="60.63529" lon="5.10781">
        <ele>89.97544</ele>
        <time>2020-07-25T11:17:41.006Z</time>
      </trkpt>
      <trkpt lat="60.6353" lon="5.1076">
        <ele>89.701842</ele>
        <time>2020-07-25T11:17:41.985Z</time>
      </trkpt>
      <trkpt lat="60.63531" lon="5.10739">
        <ele>89.435918</ele>
        <time>2020-07-25T11:17:42.976Z</time>
      </trkpt>
      <trkpt lat="60.63532" lon="5.10717">
        <ele>89.154376</ele>
        <time>2020-07-25T11:17:43.984Z</time>
      </trkpt>
      <trkpt lat="60.6353" lon="5.10695">
        <ele>88.686003</ele>
        <time>2020-07-25T11:17:44.985Z</time>
      </trkpt>
      <trkpt lat="60.63525" lon="5.10672">
        <ele>88.038951</ele>
        <time>2020-07-25T11:17:45.989Z</time>
      </trkpt>
      <trkpt lat="60.6352" lon="5.10647">
        <ele>87.328874</ele>
        <time>2020-07-25T11:17:46.976Z</time>
      </trkpt>
      <trkpt lat="60.63509" lon="5.10622">
        <ele>86.507389</ele>
        <time>2020-07-25T11:17:48.015Z</time>
      </trkpt>
      <trkpt lat="60.63499" lon="5.106">
        <ele>85.731576</ele>
        <time>2020-07-25T11:17:49.023Z</time>
      </trkpt>
      <trkpt lat="60.63491" lon="5.1058">
        <ele>85.053678</ele>
        <time>2020-07-25T11:17:49.978Z</time>
      </trkpt>
      <trkpt lat="60.63484" lon="5.10561">
        <ele>84.435699</ele>
        <time>2020-07-25T11:17:50.984Z</time>
      </trkpt>
      <trkpt lat="60.63477" lon="5.10541">
        <ele>83.82306</ele>
        <time>2020-07-25T11:17:51.994Z</time>
      </trkpt>
      <trkpt lat="60.63472" lon="5.10521">
        <ele>83.237822</ele>
        <time>2020-07-25T11:17:53.014Z</time>
      </trkpt>
      <trkpt lat="60.63468" lon="5.10501">
        <ele>82.677399</ele>
        <time>2020-07-25T11:17:53.984Z</time>
      </trkpt>
      <trkpt lat="60.63465" lon="5.10481">
        <ele>82.131725</ele>
        <time>2020-07-25T11:17:54.988Z</time>
      </trkpt>
      <trkpt lat="60.63462" lon="5.10462">
        <ele>81.618951</ele>
        <time>2020-07-25T11:17:55.983Z</time>
      </trkpt>
      <trkpt lat="60.6346" lon="5.10444">
        <ele>81.141311</ele>
        <time>2020-07-25T11:17:56.985Z</time>
      </trkpt>
      <trkpt lat="60.63459" lon="5.10411">
        <ele>80.295294</ele>
        <time>2020-07-25T11:17:58.980Z</time>
      </trkpt>
      <trkpt lat="60.63461" lon="5.10381">
        <ele>79.533272</ele>
        <time>2020-07-25T11:18:00.995Z</time>
      </trkpt>
      <trkpt lat="60.63464" lon="5.10355">
        <ele>78.939327</ele>
        <time>2020-07-25T11:18:03.031Z</time>
      </trkpt>
      <trkpt lat="60.63469" lon="5.10332">
        <ele>78.395051</ele>
        <time>2020-07-25T11:18:04.977Z</time>
      </trkpt>
      <trkpt lat="60.63474" lon="5.10312">
        <ele>77.914961</ele>
        <time>2020-07-25T11:18:06.980Z</time>
      </trkpt>
      <trkpt lat="60.63479" lon="5.10294">
        <ele>77.468303</ele>
        <time>2020-07-25T11:18:08.992Z</time>
      </trkpt>
      <trkpt lat="60.63483" lon="5.10274">
        <ele>76.990284</ele>
        <time>2020-07-25T11:18:10.990Z</time>
      </trkpt>
      <trkpt lat="60.63489" lon="5.1025">
        <ele>76.407077</ele>
        <time>2020-07-25T11:18:12.977Z</time>
      </trkpt>
      <trkpt lat="60.63495" lon="5.10224">
        <ele>75.792178</ele>
        <time>2020-07-25T11:18:14.989Z</time>
      </trkpt>
      <trkpt lat="60.63501" lon="5.10196">
        <ele>75.13634</ele>
        <time>2020-07-25T11:18:16.984Z</time>
      </trkpt>
      <trkpt lat="60.63508" lon="5.10168">
        <ele>74.441827</ele>
        <time>2020-07-25T11:18:19.015Z</time>
      </trkpt>
      <trkpt lat="60.63514" lon="5.10139">
        <ele>73.743233</ele>
        <time>2020-07-25T11:18:20.995Z</time>
      </trkpt>
      <trkpt lat="60.63519" lon="5.10108">
        <ele>73.050804</ele>
        <time>2020-07-25T11:18:22.984Z</time>
      </trkpt>
      <trkpt lat="60.63523" lon="5.10075">
        <ele>72.306745</ele>
        <time>2020-07-25T11:18:25.004Z</time>
      </trkpt>
      <trkpt lat="60.63524" lon="5.10057">
        <ele>71.908543</ele>
        <time>2020-07-25T11:18:25.996Z</time>
      </trkpt>
      <trkpt lat="60.63526" lon="5.10038">
        <ele>71.567686</ele>
        <time>2020-07-25T11:18:27.005Z</time>
      </trkpt>
      <trkpt lat="60.63528" lon="5.10019">
        <ele>71.377964</ele>
        <time>2020-07-25T11:18:27.982Z</time>
      </trkpt>
      <trkpt lat="60.6353" lon="5.10001">
        <ele>71.190205</ele>
        <time>2020-07-25T11:18:28.989Z</time>
      </trkpt>
      <trkpt lat="60.63531" lon="5.09966">
        <ele>70.835924</ele>
        <time>2020-07-25T11:18:30.972Z</time>
      </trkpt>
      <trkpt lat="60.63527" lon="5.09933">
        <ele>70.503094</ele>
        <time>2020-07-25T11:18:33.015Z</time>
      </trkpt>
      <trkpt lat="60.63515" lon="5.0991">
        <ele>70.164547</ele>
        <time>2020-07-25T11:18:34.977Z</time>
      </trkpt>
      <trkpt lat="60.63498" lon="5.09897">
        <ele>69.810285</ele>
        <time>2020-07-25T11:18:36.972Z</time>
      </trkpt>
      <trkpt lat="60.63482" lon="5.09898">
        <ele>69.46851</ele>
        <time>2020-07-25T11:18:39.011Z</time>
      </trkpt>
      <trkpt lat="60.63466" lon="5.09903">
        <ele>69.152288</ele>
        <time>2020-07-25T11:18:40.979Z</time>
      </trkpt>
      <trkpt lat="60.63452" lon="5.09907">
        <ele>68.85335</ele>
        <time>2020-07-25T11:18:42.997Z</time>
      </trkpt>
      <trkpt lat="60.63438" lon="5.09911">
        <ele>68.57813</ele>
        <time>2020-07-25T11:18:44.980Z</time>
      </trkpt>
      <trkpt lat="60.63426" lon="5.09913">
        <ele>68.328594</ele>
        <time>2020-07-25T11:18:47.005Z</time>
      </trkpt>
      <trkpt lat="60.63417" lon="5.09915">
        <ele>68.144975</ele>
        <time>2020-07-25T11:18:48.987Z</time>
      </trkpt>
      <trkpt lat="60.63408" lon="5.09917">
        <ele>68.108029</ele>
        <time>2020-07-25T11:18:51.994Z</time>
      </trkpt>
      <trkpt lat="60.63397" lon="5.09917">
        <ele>69.594709</ele>
        <time>2020-07-25T11:18:57.986Z</time>
      </trkpt>
      <trkpt lat="60.63387" lon="5.09917">
        <ele>71.03814</ele>
        <time>2020-07-25T11:19:03.982Z</time>
      </trkpt>
      <trkpt lat="60.63377" lon="5.0992">
        <ele>72.509345</ele>
        <time>2020-07-25T11:19:08.985Z</time>
      </trkpt>
      <trkpt lat="60.63368" lon="5.09924">
        <ele>73.87327</ele>
        <time>2020-07-25T11:19:13.979Z</time>
      </trkpt>
      <trkpt lat="60.63358" lon="5.09932">
        <ele>75.424715</ele>
        <time>2020-07-25T11:19:20.022Z</time>
      </trkpt>
      <trkpt lat="60.63348" lon="5.09939">
        <ele>76.928216</ele>
        <time>2020-07-25T11:19:25.969Z</time>
      </trkpt>
      <trkpt lat="60.6334" lon="5.09947">
        <ele>78.288481</ele>
        <time>2020-07-25T11:19:32.992Z</time>
      </trkpt>
      <trkpt lat="60.63331" lon="5.09955">
        <ele>79.692341</ele>
        <time>2020-07-25T11:19:39.983Z</time>
      </trkpt>
      <trkpt lat="60.63321" lon="5.0996">
        <ele>81.117345</ele>
        <time>2020-07-25T11:19:48.027Z</time>
      </trkpt>
      <trkpt lat="60.63312" lon="5.09964">
        <ele>82.49915</ele>
        <time>2020-07-25T11:19:55.990Z</time>
      </trkpt>
      <trkpt lat="60.63303" lon="5.09971">
        <ele>83.868054</ele>
        <time>2020-07-25T11:20:02.005Z</time>
      </trkpt>
      <trkpt lat="60.63294" lon="5.09978">
        <ele>85.230182</ele>
        <time>2020-07-25T11:20:08.999Z</time>
      </trkpt>
      <trkpt lat="60.63285" lon="5.09979">
        <ele>86.618862</ele>
        <time>2020-07-25T11:20:15.985Z</time>
      </trkpt>
      <trkpt lat="60.63275" lon="5.09979">
        <ele>88.062657</ele>
        <time>2020-07-25T11:20:20.987Z</time>
      </trkpt>
      <trkpt lat="60.63265" lon="5.09977">
        <ele>89.4797</ele>
        <time>2020-07-25T11:20:26.989Z</time>
      </trkpt>
      <trkpt lat="60.63255" lon="5.09975">
        <ele>90.878445</ele>
        <time>2020-07-25T11:20:32.999Z</time>
      </trkpt>
      <trkpt lat="60.63246" lon="5.09969">
        <ele>92.258314</ele>
        <time>2020-07-25T11:20:40.001Z</time>
      </trkpt>
      <trkpt lat="60.63235" lon="5.09968">
        <ele>93.791484</ele>
        <time>2020-07-25T11:20:46.993Z</time>
      </trkpt>
      <trkpt lat="60.63225" lon="5.09968">
        <ele>94.56803</ele>
        <time>2020-07-25T11:20:54.012Z</time>
      </trkpt>
      <trkpt lat="60.63216" lon="5.09971">
        <ele>95.277748</ele>
        <time>2020-07-25T11:20:59.985Z</time>
      </trkpt>
      <trkpt lat="60.63206" lon="5.09972">
        <ele>95.950954</ele>
        <time>2020-07-25T11:21:06.001Z</time>
      </trkpt>
      <trkpt lat="60.63197" lon="5.09977">
        <ele>96.605629</ele>
        <time>2020-07-25T11:21:12.988Z</time>
      </trkpt>
      <trkpt lat="60.63187" lon="5.09982">
        <ele>97.333717</ele>
        <time>2020-07-25T11:21:19.978Z</time>
      </trkpt>
      <trkpt lat="60.63178" lon="5.09986">
        <ele>98.029091</ele>
        <time>2020-07-25T11:21:27.004Z</time>
      </trkpt>
      <trkpt lat="60.63167" lon="5.09988">
        <ele>98.776638</ele>
        <time>2020-07-25T11:21:33.985Z</time>
      </trkpt>
      <trkpt lat="60.63158" lon="5.09993">
        <ele>99.465928</ele>
        <time>2020-07-25T11:21:39.971Z</time>
      </trkpt>
      <trkpt lat="60.63149" lon="5.09999">
        <ele>100.1311</ele>
        <time>2020-07-25T11:21:46.005Z</time>
      </trkpt>
      <trkpt lat="60.6314" lon="5.1">
        <ele>100.810011</ele>
        <time>2020-07-25T11:21:51.971Z</time>
      </trkpt>
      <trkpt lat="60.6313" lon="5.10002">
        <ele>101.52614</ele>
        <time>2020-07-25T11:21:58.986Z</time>
      </trkpt>
      <trkpt lat="60.6312" lon="5.1">
        <ele>102.226631</ele>
        <time>2020-07-25T11:22:05.982Z</time>
      </trkpt>
      <trkpt lat="60.63111" lon="5.10007">
        <ele>102.904325</ele>
        <time>2020-07-25T11:22:12.002Z</time>
      </trkpt>
      <trkpt lat="60.63101" lon="5.10011">
        <ele>103.624648</ele>
        <time>2020-07-25T11:22:19.008Z</time>
      </trkpt>
      <trkpt lat="60.63091" lon="5.10016">
        <ele>104.344129</ele>
        <time>2020-07-25T11:22:26.986Z</time>
      </trkpt>
      <trkpt lat="60.63082" lon="5.10021">
        <ele>105.004877</ele>
        <time>2020-07-25T11:22:32.995Z</time>
      </trkpt>
      <trkpt lat="60.63072" lon="5.10026">
        <ele>105.718284</ele>
        <time>2020-07-25T11:22:38.983Z</time>
      </trkpt>
      <trkpt lat="60.63063" lon="5.1003">
        <ele>106.409964</ele>
        <time>2020-07-25T11:22:45.000Z</time>
      </trkpt>
      <trkpt lat="60.63053" lon="5.10038">
        <ele>106.928635</ele>
        <time>2020-07-25T11:22:51.984Z</time>
      </trkpt>
      <trkpt lat="60.63044" lon="5.10041">
        <ele>107.221152</ele>
        <time>2020-07-25T11:22:58.018Z</time>
      </trkpt>
      <trkpt lat="60.63034" lon="5.10042">
        <ele>107.506044</ele>
        <time>2020-07-25T11:23:04.978Z</time>
      </trkpt>
      <trkpt lat="60.63025" lon="5.10044">
        <ele>107.802404</ele>
        <time>2020-07-25T11:23:11.980Z</time>
      </trkpt>
      <trkpt lat="60.63014" lon="5.10047">
        <ele>108.122938</ele>
        <time>2020-07-25T11:23:18.993Z</time>
      </trkpt>
      <trkpt lat="60.63005" lon="5.10046">
        <ele>108.412751</ele>
        <time>2020-07-25T11:23:25.007Z</time>
      </trkpt>
      <trkpt lat="60.62996" lon="5.1005">
        <ele>108.69789</ele>
        <time>2020-07-25T11:23:31.014Z</time>
      </trkpt>
      <trkpt lat="60.62985" lon="5.1005">
        <ele>109.018273</ele>
        <time>2020-07-25T11:23:37.975Z</time>
      </trkpt>
      <trkpt lat="60.62975" lon="5.1005">
        <ele>109.34155</ele>
        <time>2020-07-25T11:23:43.997Z</time>
      </trkpt>
      <trkpt lat="60.62964" lon="5.10053">
        <ele>109.656274</ele>
        <time>2020-07-25T11:23:49.988Z</time>
      </trkpt>
      <trkpt lat="60.62954" lon="5.10056">
        <ele>109.979826</ele>
        <time>2020-07-25T11:23:55.989Z</time>
      </trkpt>
      <trkpt lat="60.62945" lon="5.1006">
        <ele>110.258436</ele>
        <time>2020-07-25T11:24:01.988Z</time>
      </trkpt>
      <trkpt lat="60.62934" lon="5.10062">
        <ele>110.583854</ele>
        <time>2020-07-25T11:24:08.037Z</time>
      </trkpt>
      <trkpt lat="60.62925" lon="5.10065">
        <ele>110.879601</ele>
        <time>2020-07-25T11:24:12.985Z</time>
      </trkpt>
      <trkpt lat="60.62915" lon="5.10072">
        <ele>111.183776</ele>
        <time>2020-07-25T11:24:18.036Z</time>
      </trkpt>
      <trkpt lat="60.62905" lon="5.10077">
        <ele>111.497094</ele>
        <time>2020-07-25T11:24:22.999Z</time>
      </trkpt>
      <trkpt lat="60.62896" lon="5.10086">
        <ele>111.806692</ele>
        <time>2020-07-25T11:24:27.985Z</time>
      </trkpt>
      <trkpt lat="60.62886" lon="5.10091">
        <ele>112.111205</ele>
        <time>2020-07-25T11:24:31.992Z</time>
      </trkpt>
      <trkpt lat="60.62877" lon="5.10096">
        <ele>112.262043</ele>
        <time>2020-07-25T11:24:35.993Z</time>
      </trkpt>
      <trkpt lat="60.62867" lon="5.10103">
        <ele>112.306378</ele>
        <time>2020-07-25T11:24:39.975Z</time>
      </trkpt>
      <trkpt lat="60.62858" lon="5.10108">
        <ele>112.34458</ele>
        <time>2020-07-25T11:24:42.992Z</time>
      </trkpt>
      <trkpt lat="60.62847" lon="5.10112">
        <ele>112.38908</ele>
        <time>2020-07-25T11:24:45.985Z</time>
      </trkpt>
      <trkpt lat="60.62836" lon="5.10115">
        <ele>112.435578</ele>
        <time>2020-07-25T11:24:48.996Z</time>
      </trkpt>
      <trkpt lat="60.62823" lon="5.10118">
        <ele>112.484937</ele>
        <time>2020-07-25T11:24:52.044Z</time>
      </trkpt>
      <trkpt lat="60.62811" lon="5.10119">
        <ele>112.535586</ele>
        <time>2020-07-25T11:24:54.994Z</time>
      </trkpt>
      <trkpt lat="60.62799" lon="5.10118">
        <ele>112.582596</ele>
        <time>2020-07-25T11:24:57.994Z</time>
      </trkpt>
      <trkpt lat="60.62787" lon="5.10124">
        <ele>112.632701</ele>
        <time>2020-07-25T11:25:00.998Z</time>
      </trkpt>
      <trkpt lat="60.62775" lon="5.10122">
        <ele>112.683517</ele>
        <time>2020-07-25T11:25:04.004Z</time>
      </trkpt>
      <trkpt lat="60.62762" lon="5.10122">
        <ele>112.733707</ele>
        <time>2020-07-25T11:25:06.975Z</time>
      </trkpt>
      <trkpt lat="60.6275" lon="5.10125">
        <ele>112.785051</ele>
        <time>2020-07-25T11:25:09.979Z</time>
      </trkpt>
      <trkpt lat="60.62737" lon="5.10128">
        <ele>112.836419</ele>
        <time>2020-07-25T11:25:12.991Z</time>
      </trkpt>
      <trkpt lat="60.62724" lon="5.10129">
        <ele>112.889156</ele>
        <time>2020-07-25T11:25:15.991Z</time>
      </trkpt>
      <trkpt lat="60.62712" lon="5.10125">
        <ele>112.939446</ele>
        <time>2020-07-25T11:25:19.018Z</time>
      </trkpt>
      <trkpt lat="60.62704" lon="5.10112">
        <ele>112.922169</ele>
        <time>2020-07-25T11:25:21.990Z</time>
      </trkpt>
      <trkpt lat="60.62699" lon="5.10091">
        <ele>112.765373</ele>
        <time>2020-07-25T11:25:25.028Z</time>
      </trkpt>
      <trkpt lat="60.62696" lon="5.10065">
        <ele>112.578181</ele>
        <time>2020-07-25T11:25:27.995Z</time>
      </trkpt>
      <trkpt lat="60.62695" lon="5.10038">
        <ele>112.390455</ele>
        <time>2020-07-25T11:25:30.987Z</time>
      </trkpt>
      <trkpt lat="60.62695" lon="5.10019">
        <ele>112.257943</ele>
        <time>2020-07-25T11:25:32.995Z</time>
      </trkpt>
      <trkpt lat="60.62694" lon="5.09999">
        <ele>112.11748</ele>
        <time>2020-07-25T11:25:35.000Z</time>
      </trkpt>
      <trkpt lat="60.62693" lon="5.09977">
        <ele>111.960813</ele>
        <time>2020-07-25T11:25:37.024Z</time>
      </trkpt>
      <trkpt lat="60.6269" lon="5.09953">
        <ele>111.791897</ele>
        <time>2020-07-25T11:25:38.978Z</time>
      </trkpt>
      <trkpt lat="60.62687" lon="5.0993">
        <ele>111.625683</ele>
        <time>2020-07-25T11:25:41.011Z</time>
      </trkpt>
      <trkpt lat="60.62684" lon="5.09908">
        <ele>111.469946</ele>
        <time>2020-07-25T11:25:42.991Z</time>
      </trkpt>
      <trkpt lat="60.62684" lon="5.09885">
        <ele>111.304741</ele>
        <time>2020-07-25T11:25:44.972Z</time>
      </trkpt>
      <trkpt lat="60.62685" lon="5.09862">
        <ele>111.145989</ele>
        <time>2020-07-25T11:25:47.004Z</time>
      </trkpt>
      <trkpt lat="60.62687" lon="5.09839">
        <ele>110.984059</ele>
        <time>2020-07-25T11:25:49.009Z</time>
      </trkpt>
      <trkpt lat="60.6269" lon="5.09815">
        <ele>110.809387</ele>
        <time>2020-07-25T11:25:50.987Z</time>
      </trkpt>
      <trkpt lat="60.62694" lon="5.0979">
        <ele>110.622928</ele>
        <time>2020-07-25T11:25:52.991Z</time>
      </trkpt>
      <trkpt lat="60.627" lon="5.09762">
        <ele>110.416657</ele>
        <time>2020-07-25T11:25:54.986Z</time>
      </trkpt>
      <trkpt lat="60.62706" lon="5.09734">
        <ele>109.978361</ele>
        <time>2020-07-25T11:25:56.986Z</time>
      </trkpt>
      <trkpt lat="60.6271" lon="5.09703">
        <ele>109.506399</ele>
        <time>2020-07-25T11:25:58.981Z</time>
      </trkpt>
      <trkpt lat="60.62716" lon="5.09671">
        <ele>109.007649</ele>
        <time>2020-07-25T11:26:00.979Z</time>
      </trkpt>
      <trkpt lat="60.62723" lon="5.09639">
        <ele>108.503889</ele>
        <time>2020-07-25T11:26:03.014Z</time>
      </trkpt>
      <trkpt lat="60.62731" lon="5.09612">
        <ele>108.01925</ele>
        <time>2020-07-25T11:26:05.004Z</time>
      </trkpt>
      <trkpt lat="60.6274" lon="5.09587">
        <ele>107.581232</ele>
        <time>2020-07-25T11:26:06.988Z</time>
      </trkpt>
      <trkpt lat="60.62746" lon="5.09564">
        <ele>107.192827</ele>
        <time>2020-07-25T11:26:08.993Z</time>
      </trkpt>
      <trkpt lat="60.62751" lon="5.0954">
        <ele>106.809855</ele>
        <time>2020-07-25T11:26:10.994Z</time>
      </trkpt>
      <trkpt lat="60.62755" lon="5.09515">
        <ele>106.433125</ele>
        <time>2020-07-25T11:26:12.997Z</time>
      </trkpt>
      <trkpt lat="60.62756" lon="5.09491">
        <ele>106.086872</ele>
        <time>2020-07-25T11:26:14.987Z</time>
      </trkpt>
      <trkpt lat="60.62759" lon="5.09469">
        <ele>105.747876</ele>
        <time>2020-07-25T11:26:16.991Z</time>
      </trkpt>
      <trkpt lat="60.62763" lon="5.09447">
        <ele>105.403986</ele>
        <time>2020-07-25T11:26:18.988Z</time>
      </trkpt>
      <trkpt lat="60.62767" lon="5.09425">
        <ele>105.064786</ele>
        <time>2020-07-25T11:26:20.980Z</time>
      </trkpt>
      <trkpt lat="60.62771" lon="5.09405">
        <ele>104.587003</ele>
        <time>2020-07-25T11:26:23.006Z</time>
      </trkpt>
      <trkpt lat="60.62776" lon="5.09387">
        <ele>104.138739</ele>
        <time>2020-07-25T11:26:25.003Z</time>
      </trkpt>
      <trkpt lat="60.62783" lon="5.09366">
        <ele>103.5868</ele>
        <time>2020-07-25T11:26:28.021Z</time>
      </trkpt>
      <trkpt lat="60.62788" lon="5.0935">
        <ele>103.162576</ele>
        <time>2020-07-25T11:26:31.004Z</time>
      </trkpt>
      <trkpt lat="60.62795" lon="5.0933">
        <ele>102.623739</ele>
        <time>2020-07-25T11:26:34.994Z</time>
      </trkpt>
      <trkpt lat="60.628" lon="5.0931">
        <ele>102.12137</ele>
        <time>2020-07-25T11:26:38.020Z</time>
      </trkpt>
      <trkpt lat="60.62804" lon="5.09287">
        <ele>101.586922</ele>
        <time>2020-07-25T11:26:40.986Z</time>
      </trkpt>
      <trkpt lat="60.62806" lon="5.09268">
        <ele>101.159443</ele>
        <time>2020-07-25T11:26:42.980Z</time>
      </trkpt>
      <trkpt lat="60.62808" lon="5.09247">
        <ele>100.704352</ele>
        <time>2020-07-25T11:26:44.985Z</time>
      </trkpt>
      <trkpt lat="60.6281" lon="5.09223">
        <ele>100.158825</ele>
        <time>2020-07-25T11:26:47.035Z</time>
      </trkpt>
      <trkpt lat="60.62811" lon="5.09196">
        <ele>99.556841</ele>
        <time>2020-07-25T11:26:48.980Z</time>
      </trkpt>
      <trkpt lat="60.62811" lon="5.09166">
        <ele>98.898862</ele>
        <time>2020-07-25T11:26:51.017Z</time>
      </trkpt>
      <trkpt lat="60.62809" lon="5.09132">
        <ele>98.158835</ele>
        <time>2020-07-25T11:26:52.977Z</time>
      </trkpt>
      <trkpt lat="60.62807" lon="5.09096">
        <ele>97.347303</ele>
        <time>2020-07-25T11:26:54.993Z</time>
      </trkpt>
      <trkpt lat="60.62806" lon="5.09076">
        <ele>96.92524</ele>
        <time>2020-07-25T11:26:55.983Z</time>
      </trkpt>
      <trkpt lat="60.62805" lon="5.09057">
        <ele>96.51829</ele>
        <time>2020-07-25T11:26:56.984Z</time>
      </trkpt>
      <trkpt lat="60.62804" lon="5.09037">
        <ele>96.109118</ele>
        <time>2020-07-25T11:26:57.996Z</time>
      </trkpt>
      <trkpt lat="60.62802" lon="5.09017">
        <ele>95.698367</ele>
        <time>2020-07-25T11:26:58.987Z</time>
      </trkpt>
      <trkpt lat="60.62798" lon="5.08997">
        <ele>95.268873</ele>
        <time>2020-07-25T11:27:00.024Z</time>
      </trkpt>
      <trkpt lat="60.62794" lon="5.08977">
        <ele>94.835885</ele>
        <time>2020-07-25T11:27:01.002Z</time>
      </trkpt>
      <trkpt lat="60.62791" lon="5.08958">
        <ele>94.413526</ele>
        <time>2020-07-25T11:27:02.013Z</time>
      </trkpt>
      <trkpt lat="60.62788" lon="5.08938">
        <ele>93.998219</ele>
        <time>2020-07-25T11:27:02.975Z</time>
      </trkpt>
      <trkpt lat="60.62786" lon="5.08918">
        <ele>93.567618</ele>
        <time>2020-07-25T11:27:03.992Z</time>
      </trkpt>
      <trkpt lat="60.62785" lon="5.08896">
        <ele>93.13222</ele>
        <time>2020-07-25T11:27:04.988Z</time>
      </trkpt>
      <trkpt lat="60.62785" lon="5.08874">
        <ele>92.679673</ele>
        <time>2020-07-25T11:27:05.985Z</time>
      </trkpt>
      <trkpt lat="60.62786" lon="5.08852">
        <ele>92.230983</ele>
        <time>2020-07-25T11:27:06.972Z</time>
      </trkpt>
      <trkpt lat="60.62788" lon="5.08831">
        <ele>91.781084</ele>
        <time>2020-07-25T11:27:07.978Z</time>
      </trkpt>
      <trkpt lat="60.62789" lon="5.08809">
        <ele>91.348152</ele>
        <time>2020-07-25T11:27:08.980Z</time>
      </trkpt>
      <trkpt lat="60.6279" lon="5.08788">
        <ele>90.91181</ele>
        <time>2020-07-25T11:27:10.008Z</time>
      </trkpt>
      <trkpt lat="60.6279" lon="5.08767">
        <ele>90.485755</ele>
        <time>2020-07-25T11:27:10.992Z</time>
      </trkpt>
      <trkpt lat="60.6279" lon="5.08748">
        <ele>90.090331</ele>
        <time>2020-07-25T11:27:12.021Z</time>
      </trkpt>
      <trkpt lat="60.62789" lon="5.08728">
        <ele>89.693534</ele>
        <time>2020-07-25T11:27:12.989Z</time>
      </trkpt>
      <trkpt lat="60.62788" lon="5.08709">
        <ele>89.439017</ele>
        <time>2020-07-25T11:27:13.980Z</time>
      </trkpt>
      <trkpt lat="60.62786" lon="5.0869">
        <ele>89.302796</ele>
        <time>2020-07-25T11:27:15.001Z</time>
      </trkpt>
      <trkpt lat="60.62785" lon="5.08672">
        <ele>89.170133</ele>
        <time>2020-07-25T11:27:16.015Z</time>
      </trkpt>
      <trkpt lat="60.62783" lon="5.08637">
        <ele>88.922632</ele>
        <time>2020-07-25T11:27:17.979Z</time>
      </trkpt>
      <trkpt lat="60.62783" lon="5.08606">
        <ele>88.696582</ele>
        <time>2020-07-25T11:27:20.045Z</time>
      </trkpt>
      <trkpt lat="60.62785" lon="5.08575">
        <ele>88.474034</ele>
        <time>2020-07-25T11:27:21.974Z</time>
      </trkpt>
      <trkpt lat="60.62788" lon="5.08542">
        <ele>88.232097</ele>
        <time>2020-07-25T11:27:23.999Z</time>
      </trkpt>
      <trkpt lat="60.6279" lon="5.08524">
        <ele>88.096484</ele>
        <time>2020-07-25T11:27:24.987Z</time>
      </trkpt>
      <trkpt lat="60.62792" lon="5.08503">
        <ele>87.948207</ele>
        <time>2020-07-25T11:27:25.994Z</time>
      </trkpt>
      <trkpt lat="60.62795" lon="5.08481">
        <ele>87.784439</ele>
        <time>2020-07-25T11:27:26.983Z</time>
      </trkpt>
      <trkpt lat="60.62798" lon="5.0846">
        <ele>87.626594</ele>
        <time>2020-07-25T11:27:28.012Z</time>
      </trkpt>
      <trkpt lat="60.62801" lon="5.08439">
        <ele>87.46834</ele>
        <time>2020-07-25T11:27:29.005Z</time>
      </trkpt>
      <trkpt lat="60.62806" lon="5.0842">
        <ele>87.319467</ele>
        <time>2020-07-25T11:27:29.984Z</time>
      </trkpt>
      <trkpt lat="60.6281" lon="5.08404">
        <ele>87.18046</ele>
        <time>2020-07-25T11:27:31.012Z</time>
      </trkpt>
      <trkpt lat="60.62816" lon="5.08389">
        <ele>87.046575</ele>
        <time>2020-07-25T11:27:32.002Z</time>
      </trkpt>
      <trkpt lat="60.62828" lon="5.08366">
        <ele>86.693895</ele>
        <time>2020-07-25T11:27:33.992Z</time>
      </trkpt>
      <trkpt lat="60.62838" lon="5.08345">
        <ele>86.144278</ele>
        <time>2020-07-25T11:27:35.993Z</time>
      </trkpt>
      <trkpt lat="60.62847" lon="5.08325">
        <ele>85.640073</ele>
        <time>2020-07-25T11:27:37.984Z</time>
      </trkpt>
      <trkpt lat="60.62856" lon="5.08304">
        <ele>85.136963</ele>
        <time>2020-07-25T11:27:40.032Z</time>
      </trkpt>
      <trkpt lat="60.62865" lon="5.08283">
        <ele>84.601784</ele>
        <time>2020-07-25T11:27:42.014Z</time>
      </trkpt>
      <trkpt lat="60.62876" lon="5.08261">
        <ele>84.033732</ele>
        <time>2020-07-25T11:27:44.015Z</time>
      </trkpt>
      <trkpt lat="60.62886" lon="5.08237">
        <ele>83.450559</ele>
        <time>2020-07-25T11:27:45.995Z</time>
      </trkpt>
      <trkpt lat="60.62896" lon="5.08214">
        <ele>82.876972</ele>
        <time>2020-07-25T11:27:47.989Z</time>
      </trkpt>
      <trkpt lat="60.62906" lon="5.08192">
        <ele>82.341509</ele>
        <time>2020-07-25T11:27:50.000Z</time>
      </trkpt>
      <trkpt lat="60.62915" lon="5.08173">
        <ele>81.849789</ele>
        <time>2020-07-25T11:27:51.988Z</time>
      </trkpt>
      <trkpt lat="60.62924" lon="5.08155">
        <ele>81.367258</ele>
        <time>2020-07-25T11:27:54.011Z</time>
      </trkpt>
      <trkpt lat="60.62932" lon="5.08137">
        <ele>80.937021</ele>
        <time>2020-07-25T11:27:55.986Z</time>
      </trkpt>
      <trkpt lat="60.62939" lon="5.0812">
        <ele>80.518126</ele>
        <time>2020-07-25T11:27:58.012Z</time>
      </trkpt>
      <trkpt lat="60.62947" lon="5.08099">
        <ele>80.033071</ele>
        <time>2020-07-25T11:27:59.986Z</time>
      </trkpt>
      <trkpt lat="60.62956" lon="5.08075">
        <ele>79.460629</ele>
        <time>2020-07-25T11:28:02.020Z</time>
      </trkpt>
      <trkpt lat="60.62967" lon="5.08047">
        <ele>78.828381</ele>
        <time>2020-07-25T11:28:03.972Z</time>
      </trkpt>
      <trkpt lat="60.62976" lon="5.08018">
        <ele>78.190157</ele>
        <time>2020-07-25T11:28:05.988Z</time>
      </trkpt>
      <trkpt lat="60.62984" lon="5.07986">
        <ele>77.527087</ele>
        <time>2020-07-25T11:28:08.019Z</time>
      </trkpt>
      <trkpt lat="60.62988" lon="5.07969">
        <ele>77.17185</ele>
        <time>2020-07-25T11:28:09.005Z</time>
      </trkpt>
      <trkpt lat="60.62992" lon="5.07951">
        <ele>76.813282</ele>
        <time>2020-07-25T11:28:10.009Z</time>
      </trkpt>
      <trkpt lat="60.62996" lon="5.07934">
        <ele>76.457508</ele>
        <time>2020-07-25T11:28:11.025Z</time>
      </trkpt>
      <trkpt lat="60.63" lon="5.07915">
        <ele>76.096038</ele>
        <time>2020-07-25T11:28:11.975Z</time>
      </trkpt>
      <trkpt lat="60.63003" lon="5.07897">
        <ele>75.732782</ele>
        <time>2020-07-25T11:28:12.983Z</time>
      </trkpt>
      <trkpt lat="60.63006" lon="5.07878">
        <ele>75.367781</ele>
        <time>2020-07-25T11:28:13.994Z</time>
      </trkpt>
      <trkpt lat="60.63008" lon="5.07859">
        <ele>75.011861</ele>
        <time>2020-07-25T11:28:14.988Z</time>
      </trkpt>
      <trkpt lat="60.63012" lon="5.07824">
        <ele>74.347765</ele>
        <time>2020-07-25T11:28:17.004Z</time>
      </trkpt>
      <trkpt lat="60.63014" lon="5.0779">
        <ele>73.71942</ele>
        <time>2020-07-25T11:28:18.996Z</time>
      </trkpt>
      <trkpt lat="60.63015" lon="5.07758">
        <ele>73.394661</ele>
        <time>2020-07-25T11:28:20.990Z</time>
      </trkpt>
      <trkpt lat="60.63015" lon="5.07726">
        <ele>73.413946</ele>
        <time>2020-07-25T11:28:22.999Z</time>
      </trkpt>
      <trkpt lat="60.63015" lon="5.07695">
        <ele>73.43245</ele>
        <time>2020-07-25T11:28:25.055Z</time>
      </trkpt>
      <trkpt lat="60.63015" lon="5.07667">
        <ele>73.449279</ele>
        <time>2020-07-25T11:28:26.983Z</time>
      </trkpt>
      <trkpt lat="60.63016" lon="5.07641">
        <ele>73.464802</ele>
        <time>2020-07-25T11:28:28.980Z</time>
      </trkpt>
      <trkpt lat="60.63018" lon="5.07617">
        <ele>73.47983</ele>
        <time>2020-07-25T11:28:31.017Z</time>
      </trkpt>
      <trkpt lat="60.6302" lon="5.07594">
        <ele>73.493849</ele>
        <time>2020-07-25T11:28:32.994Z</time>
      </trkpt>
      <trkpt lat="60.63024" lon="5.07572">
        <ele>73.507596</ele>
        <time>2020-07-25T11:28:34.995Z</time>
      </trkpt>
      <trkpt lat="60.63028" lon="5.07554">
        <ele>73.519898</ele>
        <time>2020-07-25T11:28:36.986Z</time>
      </trkpt>
      <trkpt lat="60.63032" lon="5.07537">
        <ele>73.531123</ele>
        <time>2020-07-25T11:28:38.987Z</time>
      </trkpt>
      <trkpt lat="60.63039" lon="5.07516">
        <ele>73.546545</ele>
        <time>2020-07-25T11:28:41.975Z</time>
      </trkpt>
      <trkpt lat="60.63045" lon="5.07499">
        <ele>73.559204</ele>
        <time>2020-07-25T11:28:44.996Z</time>
      </trkpt>
      <trkpt lat="60.63052" lon="5.07484">
        <ele>73.570978</ele>
        <time>2020-07-25T11:28:48.990Z</time>
      </trkpt>
      <trkpt lat="60.63058" lon="5.0747">
        <ele>73.582318</ele>
        <time>2020-07-25T11:28:52.990Z</time>
      </trkpt>
      <trkpt lat="60.63064" lon="5.07455">
        <ele>73.593854</ele>
        <time>2020-07-25T11:28:56.984Z</time>
      </trkpt>
      <trkpt lat="60.6307" lon="5.07439">
        <ele>73.605954</ele>
        <time>2020-07-25T11:29:00.984Z</time>
      </trkpt>
      <trkpt lat="60.63076" lon="5.07424">
        <ele>74.044227</ele>
        <time>2020-07-25T11:29:04.985Z</time>
      </trkpt>
      <trkpt lat="60.63083" lon="5.07411">
        <ele>74.485136</ele>
        <time>2020-07-25T11:29:09.008Z</time>
      </trkpt>
      <trkpt lat="60.6309" lon="5.07394">
        <ele>75.000764</ele>
        <time>2020-07-25T11:29:13.998Z</time>
      </trkpt>
      <trkpt lat="60.63097" lon="5.07379">
        <ele>75.491318</ele>
        <time>2020-07-25T11:29:18.983Z</time>
      </trkpt>
      <trkpt lat="60.63104" lon="5.07363">
        <ele>75.971443</ele>
        <time>2020-07-25T11:29:24.006Z</time>
      </trkpt>
      <trkpt lat="60.63111" lon="5.07349">
        <ele>76.466278</ele>
        <time>2020-07-25T11:29:28.976Z</time>
      </trkpt>
      <trkpt lat="60.63119" lon="5.07335">
        <ele>76.945041</ele>
        <time>2020-07-25T11:29:33.022Z</time>
      </trkpt>
      <trkpt lat="60.63126" lon="5.07322">
        <ele>77.415957</ele>
        <time>2020-07-25T11:29:37.006Z</time>
      </trkpt>
      <trkpt lat="60.63134" lon="5.07306">
        <ele>77.933181</ele>
        <time>2020-07-25T11:29:42.063Z</time>
      </trkpt>
      <trkpt lat="60.63141" lon="5.07293">
        <ele>78.375447</ele>
        <time>2020-07-25T11:29:45.974Z</time>
      </trkpt>
      <trkpt lat="60.63147" lon="5.07278">
        <ele>78.84461</ele>
        <time>2020-07-25T11:29:49.986Z</time>
      </trkpt>
      <trkpt lat="60.63153" lon="5.0726">
        <ele>79.353227</ele>
        <time>2020-07-25T11:29:54.002Z</time>
      </trkpt>
      <trkpt lat="60.6316" lon="5.07242">
        <ele>79.878517</ele>
        <time>2020-07-25T11:29:57.973Z</time>
      </trkpt>
      <trkpt lat="60.63166" lon="5.07227">
        <ele>80.329551</ele>
        <time>2020-07-25T11:30:00.995Z</time>
      </trkpt>
      <trkpt lat="60.63173" lon="5.07207">
        <ele>80.898711</ele>
        <time>2020-07-25T11:30:04.987Z</time>
      </trkpt>
      <trkpt lat="60.63179" lon="5.0719">
        <ele>81.387794</ele>
        <time>2020-07-25T11:30:07.996Z</time>
      </trkpt>
      <trkpt lat="60.63185" lon="5.0717">
        <ele>81.931749</ele>
        <time>2020-07-25T11:30:11.011Z</time>
      </trkpt>
      <trkpt lat="60.63192" lon="5.07151">
        <ele>82.203703</ele>
        <time>2020-07-25T11:30:13.987Z</time>
      </trkpt>
      <trkpt lat="60.63199" lon="5.07136">
        <ele>82.293904</ele>
        <time>2020-07-25T11:30:16.991Z</time>
      </trkpt>
      <trkpt lat="60.63207" lon="5.07119">
        <ele>82.393139</ele>
        <time>2020-07-25T11:30:20.016Z</time>
      </trkpt>
      <trkpt lat="60.63216" lon="5.07102">
        <ele>82.502471</ele>
        <time>2020-07-25T11:30:23.001Z</time>
      </trkpt>
      <trkpt lat="60.63226" lon="5.07085">
        <ele>82.614328</ele>
        <time>2020-07-25T11:30:26.014Z</time>
      </trkpt>
      <trkpt lat="60.63236" lon="5.07067">
        <ele>82.729002</ele>
        <time>2020-07-25T11:30:28.988Z</time>
      </trkpt>
      <trkpt lat="60.63243" lon="5.07047">
        <ele>82.834954</ele>
        <time>2020-07-25T11:30:32.007Z</time>
      </trkpt>
      <trkpt lat="60.63248" lon="5.07028">
        <ele>82.926835</ele>
        <time>2020-07-25T11:30:34.983Z</time>
      </trkpt>
      <trkpt lat="60.63253" lon="5.07008">
        <ele>83.026935</ele>
        <time>2020-07-25T11:30:38.986Z</time>
      </trkpt>
      <trkpt lat="60.63259" lon="5.06988">
        <ele>83.122841</ele>
        <time>2020-07-25T11:30:44.028Z</time>
      </trkpt>
      <trkpt lat="60.63264" lon="5.06972">
        <ele>83.203842</ele>
        <time>2020-07-25T11:30:47.981Z</time>
      </trkpt>
      <trkpt lat="60.6327" lon="5.06957">
        <ele>83.283351</ele>
        <time>2020-07-25T11:30:51.983Z</time>
      </trkpt>
      <trkpt lat="60.63275" lon="5.06941">
        <ele>83.369039</ele>
        <time>2020-07-25T11:30:56.013Z</time>
      </trkpt>
      <trkpt lat="60.63283" lon="5.06924">
        <ele>83.466269</ele>
        <time>2020-07-25T11:31:00.004Z</time>
      </trkpt>
      <trkpt lat="60.63291" lon="5.06908">
        <ele>83.562757</ele>
        <time>2020-07-25T11:31:03.977Z</time>
      </trkpt>
      <trkpt lat="60.63297" lon="5.06894">
        <ele>83.642864</ele>
        <time>2020-07-25T11:31:07.008Z</time>
      </trkpt>
      <trkpt lat="60.63304" lon="5.06878">
        <ele>83.600146</ele>
        <time>2020-07-25T11:31:09.979Z</time>
      </trkpt>
      <trkpt lat="60.63312" lon="5.06861">
        <ele>83.227516</ele>
        <time>2020-07-25T11:31:13.000Z</time>
      </trkpt>
      <trkpt lat="60.63321" lon="5.06844">
        <ele>82.85232</ele>
        <time>2020-07-25T11:31:16.001Z</time>
      </trkpt>
      <trkpt lat="60.6333" lon="5.06829">
        <ele>82.474429</ele>
        <time>2020-07-25T11:31:19.001Z</time>
      </trkpt>
      <trkpt lat="60.6334" lon="5.06815">
        <ele>82.094741</ele>
        <time>2020-07-25T11:31:21.984Z</time>
      </trkpt>
      <trkpt lat="60.63349" lon="5.06803">
        <ele>81.734299</ele>
        <time>2020-07-25T11:31:25.013Z</time>
      </trkpt>
      <trkpt lat="60.63358" lon="5.06791">
        <ele>81.406588</ele>
        <time>2020-07-25T11:31:27.992Z</time>
      </trkpt>
      <trkpt lat="60.63366" lon="5.06779">
        <ele>81.088483</ele>
        <time>2020-07-25T11:31:31.031Z</time>
      </trkpt>
      <trkpt lat="60.63374" lon="5.06767">
        <ele>80.758022</ele>
        <time>2020-07-25T11:31:33.982Z</time>
      </trkpt>
      <trkpt lat="60.63385" lon="5.06753">
        <ele>80.367726</ele>
        <time>2020-07-25T11:31:36.976Z</time>
      </trkpt>
      <trkpt lat="60.63394" lon="5.06744">
        <ele>80.045217</ele>
        <time>2020-07-25T11:31:38.995Z</time>
      </trkpt>
      <trkpt lat="60.63403" lon="5.06733">
        <ele>79.69377</ele>
        <time>2020-07-25T11:31:41.016Z</time>
      </trkpt>
      <trkpt lat="60.63413" lon="5.06721">
        <ele>79.33667</ele>
        <time>2020-07-25T11:31:43.011Z</time>
      </trkpt>
      <trkpt lat="60.63423" lon="5.06709">
        <ele>78.955586</ele>
        <time>2020-07-25T11:31:45.006Z</time>
      </trkpt>
      <trkpt lat="60.63436" lon="5.06692">
        <ele>78.467454</ele>
        <time>2020-07-25T11:31:47.017Z</time>
      </trkpt>
      <trkpt lat="60.63449" lon="5.06673">
        <ele>77.965295</ele>
        <time>2020-07-25T11:31:48.994Z</time>
      </trkpt>
      <trkpt lat="60.63461" lon="5.06657">
        <ele>78.005042</ele>
        <time>2020-07-25T11:31:50.989Z</time>
      </trkpt>
      <trkpt lat="60.63473" lon="5.06639">
        <ele>78.046708</ele>
        <time>2020-07-25T11:31:53.007Z</time>
      </trkpt>
      <trkpt lat="60.63484" lon="5.06628">
        <ele>78.083896</ele>
        <time>2020-07-25T11:31:54.996Z</time>
      </trkpt>
      <trkpt lat="60.63494" lon="5.06618">
        <ele>78.115158</ele>
        <time>2020-07-25T11:31:57.026Z</time>
      </trkpt>
      <trkpt lat="60.63502" lon="5.06608">
        <ele>78.142568</ele>
        <time>2020-07-25T11:31:58.987Z</time>
      </trkpt>
      <trkpt lat="60.63511" lon="5.06592">
        <ele>78.177598</ele>
        <time>2020-07-25T11:32:01.984Z</time>
      </trkpt>
      <trkpt lat="60.63519" lon="5.06572">
        <ele>78.214198</ele>
        <time>2020-07-25T11:32:04.990Z</time>
      </trkpt>
      <trkpt lat="60.63524" lon="5.06557">
        <ele>78.241402</ele>
        <time>2020-07-25T11:32:06.995Z</time>
      </trkpt>
      <trkpt lat="60.63531" lon="5.06541">
        <ele>78.270397</ele>
        <time>2020-07-25T11:32:08.991Z</time>
      </trkpt>
      <trkpt lat="60.63537" lon="5.06526">
        <ele>78.298024</ele>
        <time>2020-07-25T11:32:10.988Z</time>
      </trkpt>
      <trkpt lat="60.63542" lon="5.06512">
        <ele>78.324368</ele>
        <time>2020-07-25T11:32:12.993Z</time>
      </trkpt>
      <trkpt lat="60.6355" lon="5.06492">
        <ele>78.35999</ele>
        <time>2020-07-25T11:32:15.995Z</time>
      </trkpt>
      <trkpt lat="60.63557" lon="5.06473">
        <ele>78.394041</ele>
        <time>2020-07-25T11:32:18.982Z</time>
      </trkpt>
      <trkpt lat="60.63565" lon="5.06454">
        <ele>78.430283</ele>
        <time>2020-07-25T11:32:21.984Z</time>
      </trkpt>
      <trkpt lat="60.63574" lon="5.06436">
        <ele>78.468293</ele>
        <time>2020-07-25T11:32:25.000Z</time>
      </trkpt>
      <trkpt lat="60.63585" lon="5.06421">
        <ele>78.548531</ele>
        <time>2020-07-25T11:32:27.994Z</time>
      </trkpt>
      <trkpt lat="60.63595" lon="5.06409">
        <ele>78.66563</ele>
        <time>2020-07-25T11:32:31.016Z</time>
      </trkpt>
      <trkpt lat="60.63603" lon="5.06399">
        <ele>78.757435</ele>
        <time>2020-07-25T11:32:33.976Z</time>
      </trkpt>
      <trkpt lat="60.63613" lon="5.06388">
        <ele>78.869542</ele>
        <time>2020-07-25T11:32:37.991Z</time>
      </trkpt>
      <trkpt lat="60.63621" lon="5.06378">
        <ele>78.965949</ele>
        <time>2020-07-25T11:32:40.975Z</time>
      </trkpt>
      <trkpt lat="60.63631" lon="5.06367">
        <ele>79.071328</ele>
        <time>2020-07-25T11:32:43.998Z</time>
      </trkpt>
      <trkpt lat="60.63642" lon="5.06354">
        <ele>79.193519</ele>
        <time>2020-07-25T11:32:47.022Z</time>
      </trkpt>
      <trkpt lat="60.63649" lon="5.06344">
        <ele>79.284993</ele>
        <time>2020-07-25T11:32:48.991Z</time>
      </trkpt>
      <trkpt lat="60.63657" lon="5.06333">
        <ele>79.375625</ele>
        <time>2020-07-25T11:32:51.008Z</time>
      </trkpt>
      <trkpt lat="60.63664" lon="5.0632">
        <ele>79.468596</ele>
        <time>2020-07-25T11:32:52.985Z</time>
      </trkpt>
      <trkpt lat="60.63671" lon="5.06306">
        <ele>79.563742</ele>
        <time>2020-07-25T11:32:55.004Z</time>
      </trkpt>
      <trkpt lat="60.63678" lon="5.06291">
        <ele>79.662333</ele>
        <time>2020-07-25T11:32:57.002Z</time>
      </trkpt>
      <trkpt lat="60.63685" lon="5.06276">
        <ele>79.764692</ele>
        <time>2020-07-25T11:32:58.990Z</time>
      </trkpt>
      <trkpt lat="60.63692" lon="5.0626">
        <ele>79.868807</ele>
        <time>2020-07-25T11:33:01.015Z</time>
      </trkpt>
      <trkpt lat="60.63699" lon="5.06244">
        <ele>79.971495</ele>
        <time>2020-07-25T11:33:02.978Z</time>
      </trkpt>
      <trkpt lat="60.63705" lon="5.06228">
        <ele>80.068239</ele>
        <time>2020-07-25T11:33:04.994Z</time>
      </trkpt>
      <trkpt lat="60.63711" lon="5.06214">
        <ele>80.160989</ele>
        <time>2020-07-25T11:33:06.982Z</time>
      </trkpt>
      <trkpt lat="60.63718" lon="5.062">
        <ele>80.249968</ele>
        <time>2020-07-25T11:33:09.015Z</time>
      </trkpt>
      <trkpt lat="60.63727" lon="5.06183">
        <ele>80.323778</ele>
        <time>2020-07-25T11:33:12.009Z</time>
      </trkpt>
      <trkpt lat="60.63738" lon="5.06168">
        <ele>80.398553</ele>
        <time>2020-07-25T11:33:14.995Z</time>
      </trkpt>
      <trkpt lat="60.63749" lon="5.06156">
        <ele>80.472349</ele>
        <time>2020-07-25T11:33:17.975Z</time>
      </trkpt>
      <trkpt lat="60.6376" lon="5.06143">
        <ele>80.545695</ele>
        <time>2020-07-25T11:33:20.987Z</time>
      </trkpt>
      <trkpt lat="60.63769" lon="5.06131">
        <ele>80.612369</ele>
        <time>2020-07-25T11:33:24.003Z</time>
      </trkpt>
      <trkpt lat="60.63779" lon="5.06119">
        <ele>80.677243</ele>
        <time>2020-07-25T11:33:26.995Z</time>
      </trkpt>
      <trkpt lat="60.63789" lon="5.06106">
        <ele>80.747245</ele>
        <time>2020-07-25T11:33:30.007Z</time>
      </trkpt>
      <trkpt lat="60.63799" lon="5.06092">
        <ele>80.816771</ele>
        <time>2020-07-25T11:33:32.989Z</time>
      </trkpt>
      <trkpt lat="60.63808" lon="5.06077">
        <ele>80.884598</ele>
        <time>2020-07-25T11:33:36.004Z</time>
      </trkpt>
      <trkpt lat="60.63816" lon="5.06062">
        <ele>80.949459</ele>
        <time>2020-07-25T11:33:38.974Z</time>
      </trkpt>
      <trkpt lat="60.63824" lon="5.06045">
        <ele>81.01732</ele>
        <time>2020-07-25T11:33:42.008Z</time>
      </trkpt>
      <trkpt lat="60.63832" lon="5.06028">
        <ele>81.082759</ele>
        <time>2020-07-25T11:33:44.992Z</time>
      </trkpt>
      <trkpt lat="60.63839" lon="5.06012">
        <ele>81.14471</ele>
        <time>2020-07-25T11:33:47.993Z</time>
      </trkpt>
      <trkpt lat="60.63846" lon="5.05997">
        <ele>81.202589</ele>
        <time>2020-07-25T11:33:51.011Z</time>
      </trkpt>
      <trkpt lat="60.63853" lon="5.05981">
        <ele>81.262416</ele>
        <time>2020-07-25T11:33:53.992Z</time>
      </trkpt>
      <trkpt lat="60.6386" lon="5.05966">
        <ele>81.317706</ele>
        <time>2020-07-25T11:33:57.028Z</time>
      </trkpt>
      <trkpt lat="60.63866" lon="5.05951">
        <ele>81.365693</ele>
        <time>2020-07-25T11:33:59.988Z</time>
      </trkpt>
      <trkpt lat="60.63874" lon="5.05935">
        <ele>81.417174</ele>
        <time>2020-07-25T11:34:02.982Z</time>
      </trkpt>
      <trkpt lat="60.63881" lon="5.05922">
        <ele>81.465513</ele>
        <time>2020-07-25T11:34:06.019Z</time>
      </trkpt>
      <trkpt lat="60.63889" lon="5.05908">
        <ele>81.514892</ele>
        <time>2020-07-25T11:34:08.979Z</time>
      </trkpt>
      <trkpt lat="60.63898" lon="5.05891">
        <ele>81.572613</ele>
        <time>2020-07-25T11:34:11.988Z</time>
      </trkpt>
      <trkpt lat="60.63906" lon="5.05876">
        <ele>81.626182</ele>
        <time>2020-07-25T11:34:14.978Z</time>
      </trkpt>
      <trkpt lat="60.63914" lon="5.05859">
        <ele>81.680198</ele>
        <time>2020-07-25T11:34:18.004Z</time>
      </trkpt>
      <trkpt lat="60.63921" lon="5.05842">
        <ele>81.732687</ele>
        <time>2020-07-25T11:34:20.995Z</time>
      </trkpt>
      <trkpt lat="60.63928" lon="5.05823">
        <ele>81.789253</ele>
        <time>2020-07-25T11:34:23.988Z</time>
      </trkpt>
      <trkpt lat="60.63933" lon="5.05807">
        <ele>81.834092</ele>
        <time>2020-07-25T11:34:25.991Z</time>
      </trkpt>
      <trkpt lat="60.63938" lon="5.05791">
        <ele>81.878202</ele>
        <time>2020-07-25T11:34:28.019Z</time>
      </trkpt>
      <trkpt lat="60.63943" lon="5.05766">
        <ele>81.941675</ele>
        <time>2020-07-25T11:34:30.997Z</time>
      </trkpt>
      <trkpt lat="60.63949" lon="5.05742">
        <ele>82.0035</ele>
        <time>2020-07-25T11:34:33.988Z</time>
      </trkpt>
      <trkpt lat="60.63953" lon="5.05718">
        <ele>82.065448</ele>
        <time>2020-07-25T11:34:37.022Z</time>
      </trkpt>
      <trkpt lat="60.63958" lon="5.05693">
        <ele>82.127833</ele>
        <time>2020-07-25T11:34:39.996Z</time>
      </trkpt>
      <trkpt lat="60.63962" lon="5.05669">
        <ele>82.154053</ele>
        <time>2020-07-25T11:34:43.000Z</time>
      </trkpt>
      <trkpt lat="60.63966" lon="5.05644">
        <ele>82.137217</ele>
        <time>2020-07-25T11:34:45.991Z</time>
      </trkpt>
      <trkpt lat="60.63969" lon="5.05618">
        <ele>82.119407</ele>
        <time>2020-07-25T11:34:49.006Z</time>
      </trkpt>
      <trkpt lat="60.63971" lon="5.056">
        <ele>82.107121</ele>
        <time>2020-07-25T11:34:51.006Z</time>
      </trkpt>
      <trkpt lat="60.63973" lon="5.0558">
        <ele>82.093702</ele>
        <time>2020-07-25T11:34:52.986Z</time>
      </trkpt>
      <trkpt lat="60.63976" lon="5.05557">
        <ele>82.078422</ele>
        <time>2020-07-25T11:34:54.999Z</time>
      </trkpt>
      <trkpt lat="60.63978" lon="5.05535">
        <ele>82.063635</ele>
        <time>2020-07-25T11:34:56.994Z</time>
      </trkpt>
      <trkpt lat="60.63981" lon="5.05511">
        <ele>82.047702</ele>
        <time>2020-07-25T11:34:59.013Z</time>
      </trkpt>
      <trkpt lat="60.63984" lon="5.05487">
        <ele>82.031633</ele>
        <time>2020-07-25T11:35:01.031Z</time>
      </trkpt>
      <trkpt lat="60.63987" lon="5.05466">
        <ele>82.017158</ele>
        <time>2020-07-25T11:35:03.004Z</time>
      </trkpt>
      <trkpt lat="60.63991" lon="5.05442">
        <ele>82.000706</ele>
        <time>2020-07-25T11:35:06.005Z</time>
      </trkpt>
      <trkpt lat="60.63993" lon="5.05419">
        <ele>81.985347</ele>
        <time>2020-07-25T11:35:08.995Z</time>
      </trkpt>
      <trkpt lat="60.63995" lon="5.05401">
        <ele>81.972831</ele>
        <time>2020-07-25T11:35:11.028Z</time>
      </trkpt>
      <trkpt lat="60.63997" lon="5.05379">
        <ele>81.958706</ele>
        <time>2020-07-25T11:35:14.004Z</time>
      </trkpt>
      <trkpt lat="60.63999" lon="5.05359">
        <ele>81.944928</ele>
        <time>2020-07-25T11:35:17.008Z</time>
      </trkpt>
      <trkpt lat="60.64001" lon="5.05337">
        <ele>81.930365</ele>
        <time>2020-07-25T11:35:20.027Z</time>
      </trkpt>
      <trkpt lat="60.64002" lon="5.05316">
        <ele>81.83164</ele>
        <time>2020-07-25T11:35:23.013Z</time>
      </trkpt>
      <trkpt lat="60.64003" lon="5.05293">
        <ele>81.547299</ele>
        <time>2020-07-25T11:35:25.978Z</time>
      </trkpt>
      <trkpt lat="60.64004" lon="5.05269">
        <ele>81.243914</ele>
        <time>2020-07-25T11:35:28.986Z</time>
      </trkpt>
      <trkpt lat="60.64008" lon="5.05244">
        <ele>80.923814</ele>
        <time>2020-07-25T11:35:32.989Z</time>
      </trkpt>
      <trkpt lat="60.64009" lon="5.0521">
        <ele>80.497106</ele>
        <time>2020-07-25T11:35:36.979Z</time>
      </trkpt>
      <trkpt lat="60.64009" lon="5.05183">
        <ele>80.161791</ele>
        <time>2020-07-25T11:35:39.006Z</time>
      </trkpt>
      <trkpt lat="60.64009" lon="5.0516">
        <ele>79.881046</ele>
        <time>2020-07-25T11:35:40.990Z</time>
      </trkpt>
      <trkpt lat="60.6401" lon="5.05139">
        <ele>79.615946</ele>
        <time>2020-07-25T11:35:42.984Z</time>
      </trkpt>
      <trkpt lat="60.64008" lon="5.05118">
        <ele>79.359071</ele>
        <time>2020-07-25T11:35:45.013Z</time>
      </trkpt>
      <trkpt lat="60.64008" lon="5.05094">
        <ele>79.06471</ele>
        <time>2020-07-25T11:35:46.998Z</time>
      </trkpt>
      <trkpt lat="60.64008" lon="5.0507">
        <ele>78.758969</ele>
        <time>2020-07-25T11:35:48.976Z</time>
      </trkpt>
      <trkpt lat="60.64007" lon="5.05045">
        <ele>78.457917</ele>
        <time>2020-07-25T11:35:50.999Z</time>
      </trkpt>
      <trkpt lat="60.64007" lon="5.0502">
        <ele>78.143526</ele>
        <time>2020-07-25T11:35:52.991Z</time>
      </trkpt>
      <trkpt lat="60.64006" lon="5.04995">
        <ele>77.834911</ele>
        <time>2020-07-25T11:35:54.987Z</time>
      </trkpt>
      <trkpt lat="60.64005" lon="5.04972">
        <ele>77.546039</ele>
        <time>2020-07-25T11:35:57.017Z</time>
      </trkpt>
      <trkpt lat="60.64005" lon="5.04949">
        <ele>77.363988</ele>
        <time>2020-07-25T11:35:59.007Z</time>
      </trkpt>
      <trkpt lat="60.64005" lon="5.0493">
        <ele>77.323185</ele>
        <time>2020-07-25T11:36:01.007Z</time>
      </trkpt>
      <trkpt lat="60.64004" lon="5.04903">
        <ele>77.266089</ele>
        <time>2020-07-25T11:36:03.990Z</time>
      </trkpt>
      <trkpt lat="60.64004" lon="5.04885">
        <ele>77.226761</ele>
        <time>2020-07-25T11:36:05.999Z</time>
      </trkpt>
      <trkpt lat="60.64004" lon="5.04858">
        <ele>77.168437</ele>
        <time>2020-07-25T11:36:08.984Z</time>
      </trkpt>
      <trkpt lat="60.64004" lon="5.04832">
        <ele>77.11439</ele>
        <time>2020-07-25T11:36:11.988Z</time>
      </trkpt>
      <trkpt lat="60.64004" lon="5.04807">
        <ele>77.059061</ele>
        <time>2020-07-25T11:36:14.984Z</time>
      </trkpt>
      <trkpt lat="60.64005" lon="5.04781">
        <ele>77.004021</ele>
        <time>2020-07-25T11:36:17.987Z</time>
      </trkpt>
      <trkpt lat="60.64008" lon="5.04755">
        <ele>76.946598</ele>
        <time>2020-07-25T11:36:20.985Z</time>
      </trkpt>
      <trkpt lat="60.64011" lon="5.04735">
        <ele>76.901307</ele>
        <time>2020-07-25T11:36:22.991Z</time>
      </trkpt>
      <trkpt lat="60.64013" lon="5.04716">
        <ele>76.861443</ele>
        <time>2020-07-25T11:36:24.998Z</time>
      </trkpt>
      <trkpt lat="60.64012" lon="5.04696">
        <ele>76.818059</ele>
        <time>2020-07-25T11:36:26.989Z</time>
      </trkpt>
      <trkpt lat="60.64013" lon="5.04677">
        <ele>76.778305</ele>
        <time>2020-07-25T11:36:28.998Z</time>
      </trkpt>
      <trkpt lat="60.64012" lon="5.04658">
        <ele>76.737272</ele>
        <time>2020-07-25T11:36:38.992Z</time>
      </trkpt>
      <trkpt lat="60.6401" lon="5.04639">
        <ele>76.696017</ele>
        <time>2020-07-25T11:36:42.980Z</time>
      </trkpt>
      <trkpt lat="60.64014" lon="5.04617">
        <ele>76.645028</ele>
        <time>2020-07-25T11:36:46.986Z</time>
      </trkpt>
      <trkpt lat="60.64017" lon="5.04597">
        <ele>76.601417</ele>
        <time>2020-07-25T11:36:50.988Z</time>
      </trkpt>
      <trkpt lat="60.64021" lon="5.04579">
        <ele>76.879445</ele>
        <time>2020-07-25T11:36:54.992Z</time>
      </trkpt>
      <trkpt lat="60.64025" lon="5.04558">
        <ele>77.206377</ele>
        <time>2020-07-25T11:36:59.013Z</time>
      </trkpt>
      <trkpt lat="60.64029" lon="5.04539">
        <ele>77.51139</ele>
        <time>2020-07-25T11:37:02.990Z</time>
      </trkpt>
      <trkpt lat="60.64034" lon="5.0452">
        <ele>77.818475</ele>
        <time>2020-07-25T11:37:06.971Z</time>
      </trkpt>
      <trkpt lat="60.64039" lon="5.04501">
        <ele>78.131821</ele>
        <time>2020-07-25T11:37:11.005Z</time>
      </trkpt>
      <trkpt lat="60.64045" lon="5.04483">
        <ele>78.446137</ele>
        <time>2020-07-25T11:37:14.982Z</time>
      </trkpt>
      <trkpt lat="60.64051" lon="5.04463">
        <ele>78.785252</ele>
        <time>2020-07-25T11:37:18.978Z</time>
      </trkpt>
      <trkpt lat="60.64056" lon="5.04448">
        <ele>79.050767</ele>
        <time>2020-07-25T11:37:22.005Z</time>
      </trkpt>
      <trkpt lat="60.64062" lon="5.04428">
        <ele>79.384557</ele>
        <time>2020-07-25T11:37:25.988Z</time>
      </trkpt>
      <trkpt lat="60.64068" lon="5.04408">
        <ele>79.724813</ele>
        <time>2020-07-25T11:37:29.996Z</time>
      </trkpt>
      <trkpt lat="60.64073" lon="5.04392">
        <ele>80.003281</ele>
        <time>2020-07-25T11:37:33.989Z</time>
      </trkpt>
      <trkpt lat="60.64079" lon="5.04375">
        <ele>80.306812</ele>
        <time>2020-07-25T11:37:37.995Z</time>
      </trkpt>
      <trkpt lat="60.64084" lon="5.04356">
        <ele>80.623877</ele>
        <time>2020-07-25T11:37:42.004Z</time>
      </trkpt>
      <trkpt lat="60.64089" lon="5.04338">
        <ele>80.922463</ele>
        <time>2020-07-25T11:37:45.988Z</time>
      </trkpt>
      <trkpt lat="60.64094" lon="5.0432">
        <ele>81.225719</ele>
        <time>2020-07-25T11:37:50.014Z</time>
      </trkpt>
      <trkpt lat="60.64099" lon="5.04302">
        <ele>81.526092</ele>
        <time>2020-07-25T11:37:53.987Z</time>
      </trkpt>
      <trkpt lat="60.64104" lon="5.04286">
        <ele>81.79899</ele>
        <time>2020-07-25T11:37:57.983Z</time>
      </trkpt>
      <trkpt lat="60.6411" lon="5.04266">
        <ele>81.90917</ele>
        <time>2020-07-25T11:38:01.991Z</time>
      </trkpt>
      <trkpt lat="60.64114" lon="5.0425">
        <ele>81.903252</ele>
        <time>2020-07-25T11:38:04.988Z</time>
      </trkpt>
      <trkpt lat="60.6412" lon="5.0423">
        <ele>81.895429</ele>
        <time>2020-07-25T11:38:08.999Z</time>
      </trkpt>
      <trkpt lat="60.64126" lon="5.04212">
        <ele>81.888576</ele>
        <time>2020-07-25T11:38:12.991Z</time>
      </trkpt>
      <trkpt lat="60.64132" lon="5.04194">
        <ele>81.881643</ele>
        <time>2020-07-25T11:38:17.983Z</time>
      </trkpt>
      <trkpt lat="60.64138" lon="5.04177">
        <ele>81.87471</ele>
        <time>2020-07-25T11:38:21.980Z</time>
      </trkpt>
      <trkpt lat="60.64143" lon="5.04163">
        <ele>81.868769</ele>
        <time>2020-07-25T11:38:24.979Z</time>
      </trkpt>
      <trkpt lat="60.64153" lon="5.04155">
        <ele>81.862093</ele>
        <time>2020-07-25T11:38:27.997Z</time>
      </trkpt>
      <trkpt lat="60.64163" lon="5.04162">
        <ele>81.854699</ele>
        <time>2020-07-25T11:38:31.019Z</time>
      </trkpt>
      <trkpt lat="60.64174" lon="5.04171">
        <ele>81.846985</ele>
        <time>2020-07-25T11:38:34.008Z</time>
      </trkpt>
      <trkpt lat="60.64184" lon="5.04178">
        <ele>81.840505</ele>
        <time>2020-07-25T11:38:37.000Z</time>
      </trkpt>
      <trkpt lat="60.64193" lon="5.04186">
        <ele>81.83361</ele>
        <time>2020-07-25T11:38:40.993Z</time>
      </trkpt>
      <trkpt lat="60.64202" lon="5.04196">
        <ele>81.826931</ele>
        <time>2020-07-25T11:38:44.984Z</time>
      </trkpt>
      <trkpt lat="60.64212" lon="5.04206">
        <ele>81.819739</ele>
        <time>2020-07-25T11:38:48.999Z</time>
      </trkpt>
      <trkpt lat="60.64221" lon="5.04219">
        <ele>81.812416</ele>
        <time>2020-07-25T11:38:52.974Z</time>
      </trkpt>
      <trkpt lat="60.6423" lon="5.04228">
        <ele>81.805855</ele>
        <time>2020-07-25T11:38:56.986Z</time>
      </trkpt>
      <trkpt lat="60.64242" lon="5.04229">
        <ele>81.797931</ele>
        <time>2020-07-25T11:39:01.006Z</time>
      </trkpt>
      <trkpt lat="60.64251" lon="5.04227">
        <ele>81.707666</ele>
        <time>2020-07-25T11:39:03.979Z</time>
      </trkpt>
      <trkpt lat="60.64263" lon="5.04223">
        <ele>81.518858</ele>
        <time>2020-07-25T11:39:08.011Z</time>
      </trkpt>
      <trkpt lat="60.64272" lon="5.04223">
        <ele>81.362785</ele>
        <time>2020-07-25T11:39:11.004Z</time>
      </trkpt>
      <trkpt lat="60.64284" lon="5.04222">
        <ele>81.164013</ele>
        <time>2020-07-25T11:39:14.018Z</time>
      </trkpt>
      <trkpt lat="60.64293" lon="5.04224">
        <ele>81.015222</ele>
        <time>2020-07-25T11:39:15.973Z</time>
      </trkpt>
      <trkpt lat="60.64303" lon="5.04226">
        <ele>80.846751</ele>
        <time>2020-07-25T11:39:17.991Z</time>
      </trkpt>
      <trkpt lat="60.64314" lon="5.0423">
        <ele>80.662729</ele>
        <time>2020-07-25T11:39:19.994Z</time>
      </trkpt>
      <trkpt lat="60.64326" lon="5.04232">
        <ele>80.465879</ele>
        <time>2020-07-25T11:39:22.014Z</time>
      </trkpt>
      <trkpt lat="60.64339" lon="5.04236">
        <ele>80.260153</ele>
        <time>2020-07-25T11:39:24.011Z</time>
      </trkpt>
      <trkpt lat="60.64352" lon="5.04239">
        <ele>80.041814</ele>
        <time>2020-07-25T11:39:26.032Z</time>
      </trkpt>
      <trkpt lat="60.64365" lon="5.04242">
        <ele>79.820305</ele>
        <time>2020-07-25T11:39:27.982Z</time>
      </trkpt>
      <trkpt lat="60.64378" lon="5.04246">
        <ele>79.607729</ele>
        <time>2020-07-25T11:39:30.011Z</time>
      </trkpt>
      <trkpt lat="60.64391" lon="5.04249">
        <ele>79.394561</ele>
        <time>2020-07-25T11:39:31.995Z</time>
      </trkpt>
      <trkpt lat="60.64405" lon="5.0425">
        <ele>79.169499</ele>
        <time>2020-07-25T11:39:33.979Z</time>
      </trkpt>
      <trkpt lat="60.64419" lon="5.04248">
        <ele>78.942509</ele>
        <time>2020-07-25T11:39:36.029Z</time>
      </trkpt>
      <trkpt lat="60.64432" lon="5.04244">
        <ele>78.699021</ele>
        <time>2020-07-25T11:39:38.013Z</time>
      </trkpt>
      <trkpt lat="60.64446" lon="5.04239">
        <ele>78.433362</ele>
        <time>2020-07-25T11:39:40.015Z</time>
      </trkpt>
      <trkpt lat="60.6446" lon="5.04234">
        <ele>78.163784</ele>
        <time>2020-07-25T11:39:41.975Z</time>
      </trkpt>
      <trkpt lat="60.64473" lon="5.04231">
        <ele>77.906794</ele>
        <time>2020-07-25T11:39:44.045Z</time>
      </trkpt>
      <trkpt lat="60.64489" lon="5.04233">
        <ele>77.59353</ele>
        <time>2020-07-25T11:39:45.998Z</time>
      </trkpt>
      <trkpt lat="60.64505" lon="5.0424">
        <ele>77.28607</ele>
        <time>2020-07-25T11:39:47.991Z</time>
      </trkpt>
      <trkpt lat="60.64522" lon="5.04249">
        <ele>76.951379</ele>
        <time>2020-07-25T11:39:50.028Z</time>
      </trkpt>
      <trkpt lat="60.64531" lon="5.04254">
        <ele>76.771235</ele>
        <time>2020-07-25T11:39:50.990Z</time>
      </trkpt>
      <trkpt lat="60.64541" lon="5.04257">
        <ele>76.578118</ele>
        <time>2020-07-25T11:39:51.994Z</time>
      </trkpt>
      <trkpt lat="60.64551" lon="5.04258">
        <ele>76.385128</ele>
        <time>2020-07-25T11:39:53.003Z</time>
      </trkpt>
      <trkpt lat="60.64561" lon="5.04259">
        <ele>76.211523</ele>
        <time>2020-07-25T11:39:54.044Z</time>
      </trkpt>
      <trkpt lat="60.64578" lon="5.04263">
        <ele>75.883602</ele>
        <time>2020-07-25T11:39:56.001Z</time>
      </trkpt>
      <trkpt lat="60.64592" lon="5.04268">
        <ele>75.599941</ele>
        <time>2020-07-25T11:39:57.986Z</time>
      </trkpt>
      <trkpt lat="60.64605" lon="5.04274">
        <ele>75.409087</ele>
        <time>2020-07-25T11:39:59.985Z</time>
      </trkpt>
      <trkpt lat="60.64616" lon="5.04282">
        <ele>75.396245</ele>
        <time>2020-07-25T11:40:01.973Z</time>
      </trkpt>
      <trkpt lat="60.64628" lon="5.04287">
        <ele>75.383637</ele>
        <time>2020-07-25T11:40:03.979Z</time>
      </trkpt>
      <trkpt lat="60.64639" lon="5.04291">
        <ele>75.371585</ele>
        <time>2020-07-25T11:40:05.993Z</time>
      </trkpt>
      <trkpt lat="60.64649" lon="5.04295">
        <ele>75.36107</ele>
        <time>2020-07-25T11:40:07.996Z</time>
      </trkpt>
      <trkpt lat="60.64659" lon="5.04297">
        <ele>75.351056</ele>
        <time>2020-07-25T11:40:10.000Z</time>
      </trkpt>
      <trkpt lat="60.64669" lon="5.04295">
        <ele>75.340519</ele>
        <time>2020-07-25T11:40:12.035Z</time>
      </trkpt>
      <trkpt lat="60.64678" lon="5.04291">
        <ele>75.330425</ele>
        <time>2020-07-25T11:40:14.005Z</time>
      </trkpt>
      <trkpt lat="60.64687" lon="5.04287">
        <ele>75.32073</ele>
        <time>2020-07-25T11:40:15.997Z</time>
      </trkpt>
      <trkpt lat="60.64696" lon="5.04283">
        <ele>75.310885</ele>
        <time>2020-07-25T11:40:17.981Z</time>
      </trkpt>
      <trkpt lat="60.64705" lon="5.04278">
        <ele>75.301346</ele>
        <time>2020-07-25T11:40:19.982Z</time>
      </trkpt>
      <trkpt lat="60.64714" lon="5.04272">
        <ele>75.291319</ele>
        <time>2020-07-25T11:40:21.986Z</time>
      </trkpt>
      <trkpt lat="60.64723" lon="5.04265">
        <ele>75.281498</ele>
        <time>2020-07-25T11:40:23.975Z</time>
      </trkpt>
      <trkpt lat="60.64731" lon="5.04255">
        <ele>75.271037</ele>
        <time>2020-07-25T11:40:26.029Z</time>
      </trkpt>
      <trkpt lat="60.6474" lon="5.04244">
        <ele>75.259982</ele>
        <time>2020-07-25T11:40:27.987Z</time>
      </trkpt>
      <trkpt lat="60.64748" lon="5.04233">
        <ele>75.250053</ele>
        <time>2020-07-25T11:40:30.007Z</time>
      </trkpt>
      <trkpt lat="60.64758" lon="5.04218">
        <ele>75.236865</ele>
        <time>2020-07-25T11:40:33.000Z</time>
      </trkpt>
      <trkpt lat="60.64767" lon="5.042">
        <ele>75.224032</ele>
        <time>2020-07-25T11:40:35.994Z</time>
      </trkpt>
      <trkpt lat="60.64776" lon="5.04181">
        <ele>75.216653</ele>
        <time>2020-07-25T11:40:38.995Z</time>
      </trkpt>
      <trkpt lat="60.64784" lon="5.0416">
        <ele>75.20966</ele>
        <time>2020-07-25T11:40:41.992Z</time>
      </trkpt>
      <trkpt lat="60.64792" lon="5.04139">
        <ele>75.202749</ele>
        <time>2020-07-25T11:40:44.988Z</time>
      </trkpt>
      <trkpt lat="60.64798" lon="5.04126">
        <ele>75.197979</ele>
        <time>2020-07-25T11:40:46.977Z</time>
      </trkpt>
      <trkpt lat="60.64805" lon="5.04112">
        <ele>75.193041</ele>
        <time>2020-07-25T11:40:48.996Z</time>
      </trkpt>
      <trkpt lat="60.64811" lon="5.04099">
        <ele>75.18814</ele>
        <time>2020-07-25T11:40:50.994Z</time>
      </trkpt>
      <trkpt lat="60.64818" lon="5.04087">
        <ele>75.183268</ele>
        <time>2020-07-25T11:40:53.010Z</time>
      </trkpt>
      <trkpt lat="60.64825" lon="5.04075">
        <ele>75.17839</ele>
        <time>2020-07-25T11:40:55.037Z</time>
      </trkpt>
      <trkpt lat="60.64832" lon="5.04062">
        <ele>75.173358</ele>
        <time>2020-07-25T11:40:57.003Z</time>
      </trkpt>
      <trkpt lat="60.6484" lon="5.0405">
        <ele>75.168359</ele>
        <time>2020-07-25T11:40:59.007Z</time>
      </trkpt>
      <trkpt lat="60.64847" lon="5.04037">
        <ele>75.163278</ele>
        <time>2020-07-25T11:41:00.994Z</time>
      </trkpt>
      <trkpt lat="60.64854" lon="5.04026">
        <ele>75.158331</ele>
        <time>2020-07-25T11:41:03.013Z</time>
      </trkpt>
      <trkpt lat="60.64862" lon="5.04015">
        <ele>75.153299</ele>
        <time>2020-07-25T11:41:05.005Z</time>
      </trkpt>
      <trkpt lat="60.6487" lon="5.04003">
        <ele>75.148083</ele>
        <time>2020-07-25T11:41:07.009Z</time>
      </trkpt>
      <trkpt lat="60.64877" lon="5.03991">
        <ele>75.143084</ele>
        <time>2020-07-25T11:41:09.017Z</time>
      </trkpt>
      <trkpt lat="60.64885" lon="5.03979">
        <ele>75.13811</ele>
        <time>2020-07-25T11:41:11.014Z</time>
      </trkpt>
      <trkpt lat="60.64892" lon="5.03968">
        <ele>75.133343</ele>
        <time>2020-07-25T11:41:13.000Z</time>
      </trkpt>
      <trkpt lat="60.64902" lon="5.03952">
        <ele>75.137125</ele>
        <time>2020-07-25T11:41:15.981Z</time>
      </trkpt>
      <trkpt lat="60.64912" lon="5.03938">
        <ele>75.205333</ele>
        <time>2020-07-25T11:41:19.021Z</time>
      </trkpt>
      <trkpt lat="60.64921" lon="5.03926">
        <ele>75.269551</ele>
        <time>2020-07-25T11:41:21.994Z</time>
      </trkpt>
      <trkpt lat="60.6493" lon="5.03913">
        <ele>75.331555</ele>
        <time>2020-07-25T11:41:24.986Z</time>
      </trkpt>
      <trkpt lat="60.64938" lon="5.039">
        <ele>75.393236</ele>
        <time>2020-07-25T11:41:28.029Z</time>
      </trkpt>
      <trkpt lat="60.64947" lon="5.03886">
        <ele>75.458509</ele>
        <time>2020-07-25T11:41:30.983Z</time>
      </trkpt>
      <trkpt lat="60.64956" lon="5.03873">
        <ele>75.521505</ele>
        <time>2020-07-25T11:41:33.984Z</time>
      </trkpt>
      <trkpt lat="60.64965" lon="5.0386">
        <ele>75.581016</ele>
        <time>2020-07-25T11:41:36.994Z</time>
      </trkpt>
      <trkpt lat="60.64973" lon="5.03847">
        <ele>75.642922</ele>
        <time>2020-07-25T11:41:39.989Z</time>
      </trkpt>
      <trkpt lat="60.64982" lon="5.03834">
        <ele>75.703692</ele>
        <time>2020-07-25T11:41:42.987Z</time>
      </trkpt>
      <trkpt lat="60.6499" lon="5.0382">
        <ele>75.765198</ele>
        <time>2020-07-25T11:41:46.013Z</time>
      </trkpt>
      <trkpt lat="60.64999" lon="5.03807">
        <ele>75.827396</ele>
        <time>2020-07-25T11:41:48.997Z</time>
      </trkpt>
      <trkpt lat="60.65007" lon="5.03795">
        <ele>75.888167</ele>
        <time>2020-07-25T11:41:51.975Z</time>
      </trkpt>
      <trkpt lat="60.65015" lon="5.03782">
        <ele>75.947448</ele>
        <time>2020-07-25T11:41:54.989Z</time>
      </trkpt>
      <trkpt lat="60.65024" lon="5.03768">
        <ele>76.01011</ele>
        <time>2020-07-25T11:41:58.048Z</time>
      </trkpt>
      <trkpt lat="60.65033" lon="5.03756">
        <ele>76.075276</ele>
        <time>2020-07-25T11:42:01.002Z</time>
      </trkpt>
      <trkpt lat="60.65042" lon="5.03742">
        <ele>76.139339</ele>
        <time>2020-07-25T11:42:03.983Z</time>
      </trkpt>
      <trkpt lat="60.65052" lon="5.03729">
        <ele>76.328866</ele>
        <time>2020-07-25T11:42:06.988Z</time>
      </trkpt>
      <trkpt lat="60.65061" lon="5.03714">
        <ele>76.590062</ele>
        <time>2020-07-25T11:42:10.020Z</time>
      </trkpt>
      <trkpt lat="60.6507" lon="5.03701">
        <ele>76.831053</ele>
        <time>2020-07-25T11:42:12.982Z</time>
      </trkpt>
      <trkpt lat="60.65078" lon="5.03691">
        <ele>77.039833</ele>
        <time>2020-07-25T11:42:15.978Z</time>
      </trkpt>
      <trkpt lat="60.65085" lon="5.03678">
        <ele>77.267546</ele>
        <time>2020-07-25T11:42:19.987Z</time>
      </trkpt>
      <trkpt lat="60.65094" lon="5.03663">
        <ele>77.518795</ele>
        <time>2020-07-25T11:42:24.006Z</time>
      </trkpt>
      <trkpt lat="60.65101" lon="5.03647">
        <ele>77.748792</ele>
        <time>2020-07-25T11:42:27.006Z</time>
      </trkpt>
      <trkpt lat="60.65108" lon="5.03627">
        <ele>78.021755</ele>
        <time>2020-07-25T11:42:29.981Z</time>
      </trkpt>
      <trkpt lat="60.65113" lon="5.03611">
        <ele>78.226678</ele>
        <time>2020-07-25T11:42:31.986Z</time>
      </trkpt>
      <trkpt lat="60.65117" lon="5.03585">
        <ele>78.527744</ele>
        <time>2020-07-25T11:42:34.996Z</time>
      </trkpt>
      <trkpt lat="60.6512" lon="5.03566">
        <ele>78.745556</ele>
        <time>2020-07-25T11:42:36.995Z</time>
      </trkpt>
      <trkpt lat="60.65123" lon="5.03546">
        <ele>78.977257</ele>
        <time>2020-07-25T11:42:39.015Z</time>
      </trkpt>
      <trkpt lat="60.65126" lon="5.03526">
        <ele>79.207533</ele>
        <time>2020-07-25T11:42:40.967Z</time>
      </trkpt>
      <trkpt lat="60.65129" lon="5.03507">
        <ele>79.421743</ele>
        <time>2020-07-25T11:42:43.000Z</time>
      </trkpt>
      <trkpt lat="60.65131" lon="5.03481">
        <ele>79.71371</ele>
        <time>2020-07-25T11:42:45.970Z</time>
      </trkpt>
      <trkpt lat="60.65134" lon="5.03457">
        <ele>79.980601</ele>
        <time>2020-07-25T11:42:49.030Z</time>
      </trkpt>
      <trkpt lat="60.65137" lon="5.03433">
        <ele>80.200137</ele>
        <time>2020-07-25T11:42:51.996Z</time>
      </trkpt>
      <trkpt lat="60.65139" lon="5.0341">
        <ele>80.281178</ele>
        <time>2020-07-25T11:42:55.005Z</time>
      </trkpt>
      <trkpt lat="60.65141" lon="5.03389">
        <ele>80.356078</ele>
        <time>2020-07-25T11:42:57.984Z</time>
      </trkpt>
      <trkpt lat="60.65144" lon="5.03369">
        <ele>80.429392</ele>
        <time>2020-07-25T11:43:00.984Z</time>
      </trkpt>
      <trkpt lat="60.65147" lon="5.03349">
        <ele>80.501775</ele>
        <time>2020-07-25T11:43:03.995Z</time>
      </trkpt>
      <trkpt lat="60.6515" lon="5.03329">
        <ele>80.574351</ele>
        <time>2020-07-25T11:43:06.994Z</time>
      </trkpt>
      <trkpt lat="60.65152" lon="5.03309">
        <ele>80.647051</ele>
        <time>2020-07-25T11:43:10.044Z</time>
      </trkpt>
      <trkpt lat="60.65154" lon="5.03289">
        <ele>80.71975</ele>
        <time>2020-07-25T11:43:13.005Z</time>
      </trkpt>
      <trkpt lat="60.65157" lon="5.03268">
        <ele>80.795166</ele>
        <time>2020-07-25T11:43:15.981Z</time>
      </trkpt>
      <trkpt lat="60.65159" lon="5.03246">
        <ele>80.873789</ele>
        <time>2020-07-25T11:43:18.990Z</time>
      </trkpt>
      <trkpt lat="60.65162" lon="5.03225">
        <ele>80.950042</ele>
        <time>2020-07-25T11:43:22.004Z</time>
      </trkpt>
      <trkpt lat="60.65164" lon="5.03203">
        <ele>81.026677</ele>
        <time>2020-07-25T11:43:24.979Z</time>
      </trkpt>
      <trkpt lat="60.65167" lon="5.0318">
        <ele>81.109539</ele>
        <time>2020-07-25T11:43:27.989Z</time>
      </trkpt>
      <trkpt lat="60.6517" lon="5.03156">
        <ele>81.194941</ele>
        <time>2020-07-25T11:43:30.994Z</time>
      </trkpt>
      <trkpt lat="60.65173" lon="5.03133">
        <ele>81.279158</ele>
        <time>2020-07-25T11:43:33.983Z</time>
      </trkpt>
      <trkpt lat="60.65176" lon="5.0311">
        <ele>81.362726</ele>
        <time>2020-07-25T11:43:37.004Z</time>
      </trkpt>
      <trkpt lat="60.65178" lon="5.03086">
        <ele>81.448053</ele>
        <time>2020-07-25T11:43:39.990Z</time>
      </trkpt>
      <trkpt lat="60.65181" lon="5.0306">
        <ele>81.320918</ele>
        <time>2020-07-25T11:43:43.007Z</time>
      </trkpt>
      <trkpt lat="60.65183" lon="5.03042">
        <ele>81.209153</ele>
        <time>2020-07-25T11:43:44.985Z</time>
      </trkpt>
      <trkpt lat="60.65185" lon="5.03022">
        <ele>81.089254</ele>
        <time>2020-07-25T11:43:47.010Z</time>
      </trkpt>
      <trkpt lat="60.65188" lon="5.03002">
        <ele>80.961948</ele>
        <time>2020-07-25T11:43:49.022Z</time>
      </trkpt>
      <trkpt lat="60.65191" lon="5.02981">
        <ele>80.833063</ele>
        <time>2020-07-25T11:43:50.999Z</time>
      </trkpt>
      <trkpt lat="60.65194" lon="5.02959">
        <ele>80.699538</ele>
        <time>2020-07-25T11:43:53.002Z</time>
      </trkpt>
      <trkpt lat="60.65196" lon="5.02938">
        <ele>80.564835</ele>
        <time>2020-07-25T11:43:54.988Z</time>
      </trkpt>
      <trkpt lat="60.652" lon="5.02915">
        <ele>80.423408</ele>
        <time>2020-07-25T11:43:56.977Z</time>
      </trkpt>
      <trkpt lat="60.65202" lon="5.02892">
        <ele>80.280877</ele>
        <time>2020-07-25T11:43:58.981Z</time>
      </trkpt>
      <trkpt lat="60.65206" lon="5.02867">
        <ele>80.129829</ele>
        <time>2020-07-25T11:44:00.989Z</time>
      </trkpt>
      <trkpt lat="60.65209" lon="5.02842">
        <ele>79.975691</ele>
        <time>2020-07-25T11:44:03.031Z</time>
      </trkpt>
      <trkpt lat="60.65212" lon="5.02818">
        <ele>79.822429</ele>
        <time>2020-07-25T11:44:05.025Z</time>
      </trkpt>
      <trkpt lat="60.65215" lon="5.02794">
        <ele>79.67874</ele>
        <time>2020-07-25T11:44:06.982Z</time>
      </trkpt>
      <trkpt lat="60.65218" lon="5.02771">
        <ele>79.535259</ele>
        <time>2020-07-25T11:44:09.021Z</time>
      </trkpt>
      <trkpt lat="60.65221" lon="5.02749">
        <ele>79.397943</ele>
        <time>2020-07-25T11:44:11.026Z</time>
      </trkpt>
      <trkpt lat="60.65223" lon="5.02727">
        <ele>79.266992</ele>
        <time>2020-07-25T11:44:12.977Z</time>
      </trkpt>
      <trkpt lat="60.65226" lon="5.02706">
        <ele>79.243793</ele>
        <time>2020-07-25T11:44:15.019Z</time>
      </trkpt>
      <trkpt lat="60.65228" lon="5.02685">
        <ele>79.222124</ele>
        <time>2020-07-25T11:44:16.999Z</time>
      </trkpt>
      <trkpt lat="60.6523" lon="5.02665">
        <ele>79.20138</ele>
        <time>2020-07-25T11:44:18.984Z</time>
      </trkpt>
      <trkpt lat="60.65232" lon="5.02645">
        <ele>79.181418</ele>
        <time>2020-07-25T11:44:20.987Z</time>
      </trkpt>
      <trkpt lat="60.65235" lon="5.02627">
        <ele>79.16204</ele>
        <time>2020-07-25T11:44:23.014Z</time>
      </trkpt>
      <trkpt lat="60.65237" lon="5.02609">
        <ele>79.143537</ele>
        <time>2020-07-25T11:44:24.983Z</time>
      </trkpt>
      <trkpt lat="60.65239" lon="5.02591">
        <ele>79.124989</ele>
        <time>2020-07-25T11:44:27.023Z</time>
      </trkpt>
      <trkpt lat="60.65241" lon="5.02573">
        <ele>79.106578</ele>
        <time>2020-07-25T11:44:28.995Z</time>
      </trkpt>
      <trkpt lat="60.65244" lon="5.02555">
        <ele>79.087478</ele>
        <time>2020-07-25T11:44:30.992Z</time>
      </trkpt>
      <trkpt lat="60.65246" lon="5.02536">
        <ele>79.067859</ele>
        <time>2020-07-25T11:44:32.996Z</time>
      </trkpt>
      <trkpt lat="60.65249" lon="5.02517">
        <ele>79.048545</ele>
        <time>2020-07-25T11:44:34.975Z</time>
      </trkpt>
      <trkpt lat="60.65252" lon="5.02499">
        <ele>79.029637</ele>
        <time>2020-07-25T11:44:37.004Z</time>
      </trkpt>
      <trkpt lat="60.65254" lon="5.02481">
        <ele>79.010592</ele>
        <time>2020-07-25T11:44:39.005Z</time>
      </trkpt>
      <trkpt lat="60.65257" lon="5.02463">
        <ele>78.99153</ele>
        <time>2020-07-25T11:44:40.971Z</time>
      </trkpt>
      <trkpt lat="60.65259" lon="5.02444">
        <ele>78.972819</ele>
        <time>2020-07-25T11:44:42.992Z</time>
      </trkpt>
      <trkpt lat="60.65261" lon="5.02425">
        <ele>78.953392</ele>
        <time>2020-07-25T11:44:45.002Z</time>
      </trkpt>
      <trkpt lat="60.65263" lon="5.02406">
        <ele>78.933625</ele>
        <time>2020-07-25T11:44:47.012Z</time>
      </trkpt>
      <trkpt lat="60.65265" lon="5.02386">
        <ele>78.912979</ele>
        <time>2020-07-25T11:44:49.011Z</time>
      </trkpt>
      <trkpt lat="60.65268" lon="5.02366">
        <ele>78.872458</ele>
        <time>2020-07-25T11:44:51.023Z</time>
      </trkpt>
      <trkpt lat="60.65271" lon="5.02345">
        <ele>78.78432</ele>
        <time>2020-07-25T11:44:52.986Z</time>
      </trkpt>
      <trkpt lat="60.65275" lon="5.02324">
        <ele>78.693105</ele>
        <time>2020-07-25T11:44:54.973Z</time>
      </trkpt>
      <trkpt lat="60.65279" lon="5.02301">
        <ele>78.594319</ele>
        <time>2020-07-25T11:44:57.000Z</time>
      </trkpt>
      <trkpt lat="60.65285" lon="5.02277">
        <ele>78.491369</ele>
        <time>2020-07-25T11:44:59.013Z</time>
      </trkpt>
      <trkpt lat="60.6529" lon="5.02254">
        <ele>78.387632</ele>
        <time>2020-07-25T11:45:00.984Z</time>
      </trkpt>
      <trkpt lat="60.65295" lon="5.02232">
        <ele>78.286873</ele>
        <time>2020-07-25T11:45:02.989Z</time>
      </trkpt>
      <trkpt lat="60.653" lon="5.02211">
        <ele>78.194086</ele>
        <time>2020-07-25T11:45:05.030Z</time>
      </trkpt>
      <trkpt lat="60.65304" lon="5.02191">
        <ele>78.105934</ele>
        <time>2020-07-25T11:45:06.981Z</time>
      </trkpt>
      <trkpt lat="60.65309" lon="5.02173">
        <ele>78.024746</ele>
        <time>2020-07-25T11:45:08.981Z</time>
      </trkpt>
      <trkpt lat="60.65313" lon="5.02156">
        <ele>77.950083</ele>
        <time>2020-07-25T11:45:11.029Z</time>
      </trkpt>
      <trkpt lat="60.65318" lon="5.02132">
        <ele>77.841713</ele>
        <time>2020-07-25T11:45:13.998Z</time>
      </trkpt>
      <trkpt lat="60.65324" lon="5.02108">
        <ele>77.731893</ele>
        <time>2020-07-25T11:45:16.993Z</time>
      </trkpt>
      <trkpt lat="60.6533" lon="5.02084">
        <ele>77.624604</ele>
        <time>2020-07-25T11:45:20.026Z</time>
      </trkpt>
      <trkpt lat="60.65335" lon="5.02061">
        <ele>77.525594</ele>
        <time>2020-07-25T11:45:23.005Z</time>
      </trkpt>
      <trkpt lat="60.65338" lon="5.02044">
        <ele>77.451541</ele>
        <time>2020-07-25T11:45:25.011Z</time>
      </trkpt>
      <trkpt lat="60.65343" lon="5.02018">
        <ele>77.30232</ele>
        <time>2020-07-25T11:45:27.990Z</time>
      </trkpt>
      <trkpt lat="60.65345" lon="5.02">
        <ele>77.185812</ele>
        <time>2020-07-25T11:45:29.996Z</time>
      </trkpt>
      <trkpt lat="60.65347" lon="5.0198">
        <ele>77.060668</ele>
        <time>2020-07-25T11:45:31.990Z</time>
      </trkpt>
      <trkpt lat="60.65348" lon="5.01958">
        <ele>76.927422</ele>
        <time>2020-07-25T11:45:33.987Z</time>
      </trkpt>
      <trkpt lat="60.6535" lon="5.01937">
        <ele>76.795781</ele>
        <time>2020-07-25T11:45:36.003Z</time>
      </trkpt>
      <trkpt lat="60.65352" lon="5.01916">
        <ele>76.660801</ele>
        <time>2020-07-25T11:45:38.031Z</time>
      </trkpt>
      <trkpt lat="60.65355" lon="5.01895">
        <ele>76.529413</ele>
        <time>2020-07-25T11:45:39.992Z</time>
      </trkpt>
      <trkpt lat="60.65357" lon="5.01875">
        <ele>76.406661</ele>
        <time>2020-07-25T11:45:41.997Z</time>
      </trkpt>
      <trkpt lat="60.65359" lon="5.01855">
        <ele>76.282426</ele>
        <time>2020-07-25T11:45:44.016Z</time>
      </trkpt>
      <trkpt lat="60.65362" lon="5.01837">
        <ele>76.160662</ele>
        <time>2020-07-25T11:45:46.004Z</time>
      </trkpt>
      <trkpt lat="60.65366" lon="5.01817">
        <ele>76.032935</ele>
        <time>2020-07-25T11:45:47.973Z</time>
      </trkpt>
      <trkpt lat="60.65371" lon="5.01798">
        <ele>75.904335</ele>
        <time>2020-07-25T11:45:50.003Z</time>
      </trkpt>
      <trkpt lat="60.65375" lon="5.01779">
        <ele>75.776874</ele>
        <time>2020-07-25T11:45:51.983Z</time>
      </trkpt>
      <trkpt lat="60.6538" lon="5.01761">
        <ele>75.644869</ele>
        <time>2020-07-25T11:45:54.007Z</time>
      </trkpt>
      <trkpt lat="60.65386" lon="5.01741">
        <ele>75.506297</ele>
        <time>2020-07-25T11:45:56.012Z</time>
      </trkpt>
      <trkpt lat="60.65391" lon="5.0172">
        <ele>75.364442</ele>
        <time>2020-07-25T11:45:57.978Z</time>
      </trkpt>
      <trkpt lat="60.65396" lon="5.017">
        <ele>75.224199</ele>
        <time>2020-07-25T11:46:00.003Z</time>
      </trkpt>
      <trkpt lat="60.65402" lon="5.01681">
        <ele>75.125963</ele>
        <time>2020-07-25T11:46:01.986Z</time>
      </trkpt>
      <trkpt lat="60.65406" lon="5.01664">
        <ele>75.060885</ele>
        <time>2020-07-25T11:46:04.035Z</time>
      </trkpt>
      <trkpt lat="60.65411" lon="5.01649">
        <ele>74.999054</ele>
        <time>2020-07-25T11:46:06.014Z</time>
      </trkpt>
      <trkpt lat="60.65416" lon="5.01632">
        <ele>74.933005</ele>
        <time>2020-07-25T11:46:07.984Z</time>
      </trkpt>
      <trkpt lat="60.65422" lon="5.01617">
        <ele>74.868744</ele>
        <time>2020-07-25T11:46:09.997Z</time>
      </trkpt>
      <trkpt lat="60.65427" lon="5.01601">
        <ele>74.803582</ele>
        <time>2020-07-25T11:46:12.004Z</time>
      </trkpt>
      <trkpt lat="60.65434" lon="5.01585">
        <ele>74.73278</ele>
        <time>2020-07-25T11:46:13.983Z</time>
      </trkpt>
      <trkpt lat="60.65441" lon="5.01568">
        <ele>74.658369</ele>
        <time>2020-07-25T11:46:15.980Z</time>
      </trkpt>
      <trkpt lat="60.65447" lon="5.01551">
        <ele>74.585833</ele>
        <time>2020-07-25T11:46:17.981Z</time>
      </trkpt>
      <trkpt lat="60.65453" lon="5.01534">
        <ele>74.515047</ele>
        <time>2020-07-25T11:46:19.984Z</time>
      </trkpt>
      <trkpt lat="60.6546" lon="5.01519">
        <ele>74.446534</ele>
        <time>2020-07-25T11:46:22.000Z</time>
      </trkpt>
      <trkpt lat="60.65466" lon="5.01503">
        <ele>74.37898</ele>
        <time>2020-07-25T11:46:23.980Z</time>
      </trkpt>
      <trkpt lat="60.65472" lon="5.01487">
        <ele>74.311372</ele>
        <time>2020-07-25T11:46:25.986Z</time>
      </trkpt>
      <trkpt lat="60.65478" lon="5.01472">
        <ele>74.247551</ele>
        <time>2020-07-25T11:46:27.976Z</time>
      </trkpt>
      <trkpt lat="60.65485" lon="5.0145">
        <ele>74.155562</ele>
        <time>2020-07-25T11:46:31.016Z</time>
      </trkpt>
      <trkpt lat="60.65493" lon="5.01428">
        <ele>74.066457</ele>
        <time>2020-07-25T11:46:34.008Z</time>
      </trkpt>
      <trkpt lat="60.655" lon="5.01407">
        <ele>73.976545</ele>
        <time>2020-07-25T11:46:37.002Z</time>
      </trkpt>
      <trkpt lat="60.65508" lon="5.01386">
        <ele>73.865856</ele>
        <time>2020-07-25T11:46:39.981Z</time>
      </trkpt>
      <trkpt lat="60.65516" lon="5.01366">
        <ele>73.745026</ele>
        <time>2020-07-25T11:46:43.005Z</time>
      </trkpt>
      <trkpt lat="60.65524" lon="5.01346">
        <ele>73.622149</ele>
        <time>2020-07-25T11:46:46.005Z</time>
      </trkpt>
      <trkpt lat="60.65532" lon="5.01325">
        <ele>73.493617</ele>
        <time>2020-07-25T11:46:48.996Z</time>
      </trkpt>
      <trkpt lat="60.65538" lon="5.01311">
        <ele>73.404954</ele>
        <time>2020-07-25T11:46:51.002Z</time>
      </trkpt>
      <trkpt lat="60.65543" lon="5.01296">
        <ele>73.314252</ele>
        <time>2020-07-25T11:46:52.987Z</time>
      </trkpt>
      <trkpt lat="60.65549" lon="5.01279">
        <ele>73.215594</ele>
        <time>2020-07-25T11:46:54.997Z</time>
      </trkpt>
      <trkpt lat="60.65554" lon="5.0126">
        <ele>73.111337</ele>
        <time>2020-07-25T11:46:57.000Z</time>
      </trkpt>
      <trkpt lat="60.65559" lon="5.01239">
        <ele>72.998174</ele>
        <time>2020-07-25T11:46:58.998Z</time>
      </trkpt>
      <trkpt lat="60.65564" lon="5.01216">
        <ele>72.878953</ele>
        <time>2020-07-25T11:47:01.007Z</time>
      </trkpt>
      <trkpt lat="60.65569" lon="5.01192">
        <ele>72.753452</ele>
        <time>2020-07-25T11:47:02.988Z</time>
      </trkpt>
      <trkpt lat="60.65574" lon="5.01166">
        <ele>72.621397</ele>
        <time>2020-07-25T11:47:04.983Z</time>
      </trkpt>
      <trkpt lat="60.65578" lon="5.0114">
        <ele>72.48804</ele>
        <time>2020-07-25T11:47:06.996Z</time>
      </trkpt>
      <trkpt lat="60.65582" lon="5.01115">
        <ele>72.359257</ele>
        <time>2020-07-25T11:47:08.993Z</time>
      </trkpt>
      <trkpt lat="60.65586" lon="5.01089">
        <ele>72.231389</ele>
        <time>2020-07-25T11:47:11.014Z</time>
      </trkpt>
      <trkpt lat="60.6559" lon="5.01063">
        <ele>71.93968</ele>
        <time>2020-07-25T11:47:12.999Z</time>
      </trkpt>
      <trkpt lat="60.65594" lon="5.01037">
        <ele>71.48339</ele>
        <time>2020-07-25T11:47:15.006Z</time>
      </trkpt>
      <trkpt lat="60.65599" lon="5.01011">
        <ele>71.009237</ele>
        <time>2020-07-25T11:47:16.987Z</time>
      </trkpt>
      <trkpt lat="60.65603" lon="5.00983">
        <ele>70.530213</ele>
        <time>2020-07-25T11:47:18.995Z</time>
      </trkpt>
      <trkpt lat="60.65607" lon="5.00956">
        <ele>70.049003</ele>
        <time>2020-07-25T11:47:21.009Z</time>
      </trkpt>
      <trkpt lat="60.65611" lon="5.00929">
        <ele>69.593552</ele>
        <time>2020-07-25T11:47:23.008Z</time>
      </trkpt>
      <trkpt lat="60.65612" lon="5.00902">
        <ele>69.133178</ele>
        <time>2020-07-25T11:47:24.983Z</time>
      </trkpt>
      <trkpt lat="60.65609" lon="5.00874">
        <ele>68.650201</ele>
        <time>2020-07-25T11:47:26.984Z</time>
      </trkpt>
      <trkpt lat="60.65601" lon="5.00845">
        <ele>68.11175</ele>
        <time>2020-07-25T11:47:29.007Z</time>
      </trkpt>
      <trkpt lat="60.65591" lon="5.00819">
        <ele>67.546573</ele>
        <time>2020-07-25T11:47:31.005Z</time>
      </trkpt>
      <trkpt lat="60.65579" lon="5.00793">
        <ele>66.958949</ele>
        <time>2020-07-25T11:47:32.991Z</time>
      </trkpt>
      <trkpt lat="60.65573" lon="5.00779">
        <ele>66.653376</ele>
        <time>2020-07-25T11:47:34.026Z</time>
      </trkpt>
      <trkpt lat="60.65567" lon="5.00765">
        <ele>66.34305</ele>
        <time>2020-07-25T11:47:34.996Z</time>
      </trkpt>
      <trkpt lat="60.65557" lon="5.00736">
        <ele>65.860502</ele>
        <time>2020-07-25T11:47:36.996Z</time>
      </trkpt>
      <trkpt lat="60.6555" lon="5.00705">
        <ele>65.51781</ele>
        <time>2020-07-25T11:47:39.032Z</time>
      </trkpt>
      <trkpt lat="60.65549" lon="5.00675">
        <ele>65.211389</ele>
        <time>2020-07-25T11:47:40.980Z</time>
      </trkpt>
      <trkpt lat="60.65551" lon="5.00645">
        <ele>64.907771</ele>
        <time>2020-07-25T11:47:42.982Z</time>
      </trkpt>
      <trkpt lat="60.65555" lon="5.00616">
        <ele>64.598756</ele>
        <time>2020-07-25T11:47:45.004Z</time>
      </trkpt>
      <trkpt lat="60.65561" lon="5.00588">
        <ele>64.297291</ele>
        <time>2020-07-25T11:47:47.004Z</time>
      </trkpt>
      <trkpt lat="60.65568" lon="5.00563">
        <ele>64.008713</ele>
        <time>2020-07-25T11:47:48.984Z</time>
      </trkpt>
      <trkpt lat="60.65575" lon="5.00543">
        <ele>63.754836</ele>
        <time>2020-07-25T11:47:50.991Z</time>
      </trkpt>
      <trkpt lat="60.65582" lon="5.00524">
        <ele>63.518578</ele>
        <time>2020-07-25T11:47:52.990Z</time>
      </trkpt>
      <trkpt lat="60.65588" lon="5.00505">
        <ele>63.287689</ele>
        <time>2020-07-25T11:47:54.999Z</time>
      </trkpt>
      <trkpt lat="60.65593" lon="5.00486">
        <ele>63.063797</ele>
        <time>2020-07-25T11:47:57.008Z</time>
      </trkpt>
      <trkpt lat="60.656" lon="5.00469">
        <ele>62.845425</ele>
        <time>2020-07-25T11:47:58.996Z</time>
      </trkpt>
      <trkpt lat="60.65607" lon="5.00452">
        <ele>62.617669</ele>
        <time>2020-07-25T11:48:00.983Z</time>
      </trkpt>
      <trkpt lat="60.65615" lon="5.00433">
        <ele>62.372409</ele>
        <time>2020-07-25T11:48:02.980Z</time>
      </trkpt>
      <trkpt lat="60.65623" lon="5.00413">
        <ele>62.351519</ele>
        <time>2020-07-25T11:48:04.995Z</time>
      </trkpt>
      <trkpt lat="60.65631" lon="5.00393">
        <ele>62.384348</ele>
        <time>2020-07-25T11:48:07.014Z</time>
      </trkpt>
      <trkpt lat="60.6564" lon="5.00373">
        <ele>62.41666</ele>
        <time>2020-07-25T11:48:08.978Z</time>
      </trkpt>
      <trkpt lat="60.65648" lon="5.00353">
        <ele>62.449073</ele>
        <time>2020-07-25T11:48:10.993Z</time>
      </trkpt>
      <trkpt lat="60.65655" lon="5.00332">
        <ele>62.480592</ele>
        <time>2020-07-25T11:48:13.012Z</time>
      </trkpt>
      <trkpt lat="60.65662" lon="5.00314">
        <ele>62.509138</ele>
        <time>2020-07-25T11:48:14.978Z</time>
      </trkpt>
      <trkpt lat="60.65668" lon="5.003">
        <ele>62.532954</ele>
        <time>2020-07-25T11:48:16.992Z</time>
      </trkpt>
      <trkpt lat="60.65675" lon="5.00285">
        <ele>62.558075</ele>
        <time>2020-07-25T11:48:19.008Z</time>
      </trkpt>
      <trkpt lat="60.65685" lon="5.00266">
        <ele>62.591034</ele>
        <time>2020-07-25T11:48:21.988Z</time>
      </trkpt>
      <trkpt lat="60.65692" lon="5.00249">
        <ele>62.618813</ele>
        <time>2020-07-25T11:48:24.979Z</time>
      </trkpt>
      <trkpt lat="60.65699" lon="5.00232">
        <ele>62.646852</ele>
        <time>2020-07-25T11:48:28.003Z</time>
      </trkpt>
      <trkpt lat="60.65706" lon="5.00215">
        <ele>62.673553</ele>
        <time>2020-07-25T11:48:30.981Z</time>
      </trkpt>
      <trkpt lat="60.65714" lon="5.00199">
        <ele>62.701134</ele>
        <time>2020-07-25T11:48:34.007Z</time>
      </trkpt>
      <trkpt lat="60.65722" lon="5.00184">
        <ele>62.730049</ele>
        <time>2020-07-25T11:48:36.997Z</time>
      </trkpt>
      <trkpt lat="60.6573" lon="5.00171">
        <ele>62.756269</ele>
        <time>2020-07-25T11:48:40.004Z</time>
      </trkpt>
      <trkpt lat="60.65739" lon="5.00157">
        <ele>62.804542</ele>
        <time>2020-07-25T11:48:43.011Z</time>
      </trkpt>
      <trkpt lat="60.65746" lon="5.00143">
        <ele>62.93798</ele>
        <time>2020-07-25T11:48:46.039Z</time>
      </trkpt>
      <trkpt lat="60.65753" lon="5.0013">
        <ele>63.068867</ele>
        <time>2020-07-25T11:48:49.006Z</time>
      </trkpt>
      <trkpt lat="60.65761" lon="5.00115">
        <ele>63.207541</ele>
        <time>2020-07-25T11:48:52.002Z</time>
      </trkpt>
      <trkpt lat="60.65768" lon="5.00098">
        <ele>63.354338</ele>
        <time>2020-07-25T11:48:55.003Z</time>
      </trkpt>
      <trkpt lat="60.65775" lon="5.00078">
        <ele>63.512403</ele>
        <time>2020-07-25T11:48:57.991Z</time>
      </trkpt>
      <trkpt lat="60.65782" lon="5.00054">
        <ele>63.697985</ele>
        <time>2020-07-25T11:49:00.979Z</time>
      </trkpt>
      <trkpt lat="60.65788" lon="5.00036">
        <ele>63.845978</ele>
        <time>2020-07-25T11:49:03.007Z</time>
      </trkpt>
      <trkpt lat="60.65794" lon="5.00017">
        <ele>63.994799</ele>
        <time>2020-07-25T11:49:04.988Z</time>
      </trkpt>
      <trkpt lat="60.65801" lon="5">
        <ele>64.133807</ele>
        <time>2020-07-25T11:49:07.013Z</time>
      </trkpt>
      <trkpt lat="60.65807" lon="4.99982">
        <ele>64.278097</ele>
        <time>2020-07-25T11:49:08.985Z</time>
      </trkpt>
      <trkpt lat="60.65813" lon="4.99964">
        <ele>64.426643</ele>
        <time>2020-07-25T11:49:11.004Z</time>
      </trkpt>
      <trkpt lat="60.6582" lon="4.99945">
        <ele>64.578339</ele>
        <time>2020-07-25T11:49:13.022Z</time>
      </trkpt>
      <trkpt lat="60.65827" lon="4.99928">
        <ele>64.724013</ele>
        <time>2020-07-25T11:49:14.981Z</time>
      </trkpt>
      <trkpt lat="60.65833" lon="4.99912">
        <ele>64.858846</ele>
        <time>2020-07-25T11:49:16.992Z</time>
      </trkpt>
      <trkpt lat="60.65839" lon="4.99896">
        <ele>64.985527</ele>
        <time>2020-07-25T11:49:18.996Z</time>
      </trkpt>
      <trkpt lat="60.65845" lon="4.99882">
        <ele>65.105934</ele>
        <time>2020-07-25T11:49:21.041Z</time>
      </trkpt>
      <trkpt lat="60.6585" lon="4.99868">
        <ele>65.206468</ele>
        <time>2020-07-25T11:49:22.994Z</time>
      </trkpt>
      <trkpt lat="60.65859" lon="4.99848">
        <ele>65.293677</ele>
        <time>2020-07-25T11:49:25.990Z</time>
      </trkpt>
      <trkpt lat="60.65865" lon="4.99834">
        <ele>65.353305</ele>
        <time>2020-07-25T11:49:27.988Z</time>
      </trkpt>
      <trkpt lat="60.65872" lon="4.99821">
        <ele>65.416644</ele>
        <time>2020-07-25T11:49:29.985Z</time>
      </trkpt>
      <trkpt lat="60.65879" lon="4.99807">
        <ele>65.478575</ele>
        <time>2020-07-25T11:49:31.991Z</time>
      </trkpt>
      <trkpt lat="60.65886" lon="4.99793">
        <ele>65.542124</ele>
        <time>2020-07-25T11:49:34.020Z</time>
      </trkpt>
      <trkpt lat="60.65892" lon="4.9978">
        <ele>65.603614</ele>
        <time>2020-07-25T11:49:35.990Z</time>
      </trkpt>
      <trkpt lat="60.65902" lon="4.99762">
        <ele>65.691096</ele>
        <time>2020-07-25T11:49:38.998Z</time>
      </trkpt>
      <trkpt lat="60.65912" lon="4.99747">
        <ele>65.770284</ele>
        <time>2020-07-25T11:49:41.998Z</time>
      </trkpt>
      <trkpt lat="60.6592" lon="4.99734">
        <ele>65.84212</ele>
        <time>2020-07-25T11:49:44.987Z</time>
      </trkpt>
      <trkpt lat="60.65929" lon="4.99721">
        <ele>65.910921</ele>
        <time>2020-07-25T11:49:47.994Z</time>
      </trkpt>
      <trkpt lat="60.65938" lon="4.99708">
        <ele>65.983032</ele>
        <time>2020-07-25T11:49:51.009Z</time>
      </trkpt>
      <trkpt lat="60.65947" lon="4.99694">
        <ele>66.056507</ele>
        <time>2020-07-25T11:49:53.986Z</time>
      </trkpt>
      <trkpt lat="60.65955" lon="4.9968">
        <ele>66.127912</ele>
        <time>2020-07-25T11:49:57.000Z</time>
      </trkpt>
      <trkpt lat="60.65963" lon="4.99666">
        <ele>66.198774</ele>
        <time>2020-07-25T11:49:59.990Z</time>
      </trkpt>
      <trkpt lat="60.65971" lon="4.9965">
        <ele>66.271357</ele>
        <time>2020-07-25T11:50:02.984Z</time>
      </trkpt>
      <trkpt lat="60.65978" lon="4.99633">
        <ele>66.345607</ele>
        <time>2020-07-25T11:50:06.009Z</time>
      </trkpt>
      <trkpt lat="60.65985" lon="4.99615">
        <ele>66.645168</ele>
        <time>2020-07-25T11:50:08.994Z</time>
      </trkpt>
      <trkpt lat="60.65991" lon="4.99597">
        <ele>67.060445</ele>
        <time>2020-07-25T11:50:11.979Z</time>
      </trkpt>
      <trkpt lat="60.65997" lon="4.99578">
        <ele>67.490187</ele>
        <time>2020-07-25T11:50:15.005Z</time>
      </trkpt>
      <trkpt lat="60.66003" lon="4.99561">
        <ele>67.908689</ele>
        <time>2020-07-25T11:50:17.987Z</time>
      </trkpt>
      <trkpt lat="60.66009" lon="4.99545">
        <ele>68.295214</ele>
        <time>2020-07-25T11:50:21.022Z</time>
      </trkpt>
      <trkpt lat="60.66014" lon="4.99525">
        <ele>68.726882</ele>
        <time>2020-07-25T11:50:24.014Z</time>
      </trkpt>
      <trkpt lat="60.66019" lon="4.99506">
        <ele>69.127418</ele>
        <time>2020-07-25T11:50:26.977Z</time>
      </trkpt>
      <trkpt lat="60.66023" lon="4.99489">
        <ele>69.498672</ele>
        <time>2020-07-25T11:50:29.997Z</time>
      </trkpt>
      <trkpt lat="60.66028" lon="4.99468">
        <ele>69.94464</ele>
        <time>2020-07-25T11:50:33.987Z</time>
      </trkpt>
      <trkpt lat="60.66033" lon="4.99447">
        <ele>70.395245</ele>
        <time>2020-07-25T11:50:38.005Z</time>
      </trkpt>
      <trkpt lat="60.66037" lon="4.99429">
        <ele>70.773752</ele>
        <time>2020-07-25T11:50:41.006Z</time>
      </trkpt>
      <trkpt lat="60.6604" lon="4.99412">
        <ele>71.133135</ele>
        <time>2020-07-25T11:50:44.017Z</time>
      </trkpt>
      <trkpt lat="60.66045" lon="4.9939">
        <ele>71.599378</ele>
        <time>2020-07-25T11:50:48.008Z</time>
      </trkpt>
      <trkpt lat="60.66051" lon="4.99369">
        <ele>72.048536</ele>
        <time>2020-07-25T11:50:51.987Z</time>
      </trkpt>
      <trkpt lat="60.66057" lon="4.9935">
        <ele>72.502961</ele>
        <time>2020-07-25T11:50:56.041Z</time>
      </trkpt>
      <trkpt lat="60.66066" lon="4.99335">
        <ele>72.956709</ele>
        <time>2020-07-25T11:50:59.994Z</time>
      </trkpt>
      <trkpt lat="60.66075" lon="4.99322">
        <ele>73.388228</ele>
        <time>2020-07-25T11:51:03.995Z</time>
      </trkpt>
      <trkpt lat="60.66084" lon="4.99309">
        <ele>73.624797</ele>
        <time>2020-07-25T11:51:07.981Z</time>
      </trkpt>
      <trkpt lat="60.66092" lon="4.99297">
        <ele>73.825152</ele>
        <time>2020-07-25T11:51:11.994Z</time>
      </trkpt>
      <trkpt lat="60.66099" lon="4.99285">
        <ele>74.008001</ele>
        <time>2020-07-25T11:51:16.004Z</time>
      </trkpt>
      <trkpt lat="60.66106" lon="4.99272">
        <ele>74.195708</ele>
        <time>2020-07-25T11:51:19.991Z</time>
      </trkpt>
      <trkpt lat="60.66113" lon="4.99255">
        <ele>74.406757</ele>
        <time>2020-07-25T11:51:24.008Z</time>
      </trkpt>
      <trkpt lat="60.66118" lon="4.99239">
        <ele>74.597524</ele>
        <time>2020-07-25T11:51:27.997Z</time>
      </trkpt>
      <trkpt lat="60.66122" lon="4.99222">
        <ele>74.785832</ele>
        <time>2020-07-25T11:51:31.980Z</time>
      </trkpt>
      <trkpt lat="60.66127" lon="4.99201">
        <ele>75.003016</ele>
        <time>2020-07-25T11:51:36.002Z</time>
      </trkpt>
      <trkpt lat="60.66131" lon="4.99185">
        <ele>75.184334</ele>
        <time>2020-07-25T11:51:38.985Z</time>
      </trkpt>
      <trkpt lat="60.66137" lon="4.99164">
        <ele>75.418338</ele>
        <time>2020-07-25T11:51:42.994Z</time>
      </trkpt>
      <trkpt lat="60.66141" lon="4.99144">
        <ele>75.633788</ele>
        <time>2020-07-25T11:51:46.993Z</time>
      </trkpt>
      <trkpt lat="60.66147" lon="4.99123">
        <ele>75.861543</ele>
        <time>2020-07-25T11:51:50.990Z</time>
      </trkpt>
      <trkpt lat="60.6615" lon="4.99101">
        <ele>76.083461</ele>
        <time>2020-07-25T11:51:55.009Z</time>
      </trkpt>
      <trkpt lat="60.66153" lon="4.99079">
        <ele>76.30689</ele>
        <time>2020-07-25T11:51:58.992Z</time>
      </trkpt>
      <trkpt lat="60.66156" lon="4.99058">
        <ele>76.521946</ele>
        <time>2020-07-25T11:52:02.983Z</time>
      </trkpt>
      <trkpt lat="60.66159" lon="4.99041">
        <ele>76.701576</ele>
        <time>2020-07-25T11:52:05.993Z</time>
      </trkpt>
      <trkpt lat="60.66162" lon="4.99023">
        <ele>76.879876</ele>
        <time>2020-07-25T11:52:09.004Z</time>
      </trkpt>
      <trkpt lat="60.66165" lon="4.99002">
        <ele>77.136558</ele>
        <time>2020-07-25T11:52:12.996Z</time>
      </trkpt>
      <trkpt lat="60.66169" lon="4.98979">
        <ele>77.44617</ele>
        <time>2020-07-25T11:52:16.989Z</time>
      </trkpt>
      <trkpt lat="60.66172" lon="4.98962">
        <ele>77.688476</ele>
        <time>2020-07-25T11:52:20.010Z</time>
      </trkpt>
      <trkpt lat="60.66175" lon="4.98943">
        <ele>77.95555</ele>
        <time>2020-07-25T11:52:24.023Z</time>
      </trkpt>
      <trkpt lat="60.66179" lon="4.98924">
        <ele>78.232238</ele>
        <time>2020-07-25T11:52:27.988Z</time>
      </trkpt>
      <trkpt lat="60.66183" lon="4.98905">
        <ele>78.505877</ele>
        <time>2020-07-25T11:52:32.010Z</time>
      </trkpt>
      <trkpt lat="60.66186" lon="4.98882">
        <ele>78.806608</ele>
        <time>2020-07-25T11:52:35.985Z</time>
      </trkpt>
      <trkpt lat="60.66188" lon="4.98863">
        <ele>79.070221</ele>
        <time>2020-07-25T11:52:39.982Z</time>
      </trkpt>
      <trkpt lat="60.6619" lon="4.98842">
        <ele>79.352365</ele>
        <time>2020-07-25T11:52:43.974Z</time>
      </trkpt>
      <trkpt lat="60.66192" lon="4.98821">
        <ele>79.628894</ele>
        <time>2020-07-25T11:52:47.999Z</time>
      </trkpt>
      <trkpt lat="60.66191" lon="4.98801">
        <ele>79.895648</ele>
        <time>2020-07-25T11:52:52.003Z</time>
      </trkpt>
      <trkpt lat="60.6619" lon="4.98781">
        <ele>80.166975</ele>
        <time>2020-07-25T11:52:56.026Z</time>
      </trkpt>
      <trkpt lat="60.66191" lon="4.98762">
        <ele>80.421225</ele>
        <time>2020-07-25T11:52:59.983Z</time>
      </trkpt>
      <trkpt lat="60.66194" lon="4.98743">
        <ele>80.678944</ele>
        <time>2020-07-25T11:53:04.013Z</time>
      </trkpt>
      <trkpt lat="60.66199" lon="4.98724">
        <ele>80.967817</ele>
        <time>2020-07-25T11:53:07.989Z</time>
      </trkpt>
      <trkpt lat="60.66205" lon="4.98705">
        <ele>81.252863</ele>
        <time>2020-07-25T11:53:11.990Z</time>
      </trkpt>
      <trkpt lat="60.6621" lon="4.98688">
        <ele>81.53032</ele>
        <time>2020-07-25T11:53:15.982Z</time>
      </trkpt>
      <trkpt lat="60.66215" lon="4.98669">
        <ele>81.813916</ele>
        <time>2020-07-25T11:53:20.008Z</time>
      </trkpt>
      <trkpt lat="60.6622" lon="4.98649">
        <ele>81.67947</ele>
        <time>2020-07-25T11:53:23.981Z</time>
      </trkpt>
      <trkpt lat="60.66226" lon="4.98628">
        <ele>81.455536</ele>
        <time>2020-07-25T11:53:28.033Z</time>
      </trkpt>
      <trkpt lat="60.6623" lon="4.98611">
        <ele>81.275337</ele>
        <time>2020-07-25T11:53:30.993Z</time>
      </trkpt>
      <trkpt lat="60.66235" lon="4.98592">
        <ele>81.072317</ele>
        <time>2020-07-25T11:53:34.030Z</time>
      </trkpt>
      <trkpt lat="60.6624" lon="4.98572">
        <ele>80.853712</ele>
        <time>2020-07-25T11:53:37.006Z</time>
      </trkpt>
      <trkpt lat="60.66246" lon="4.9855">
        <ele>80.619963</ele>
        <time>2020-07-25T11:53:40.032Z</time>
      </trkpt>
      <trkpt lat="60.66252" lon="4.98526">
        <ele>80.366828</ele>
        <time>2020-07-25T11:53:43.011Z</time>
      </trkpt>
      <trkpt lat="60.66257" lon="4.98509">
        <ele>80.179686</ele>
        <time>2020-07-25T11:53:44.997Z</time>
      </trkpt>
      <trkpt lat="60.66262" lon="4.98492">
        <ele>79.99512</ele>
        <time>2020-07-25T11:53:46.985Z</time>
      </trkpt>
      <trkpt lat="60.66267" lon="4.98473">
        <ele>79.787891</ele>
        <time>2020-07-25T11:53:48.984Z</time>
      </trkpt>
      <trkpt lat="60.66274" lon="4.98454">
        <ele>79.568943</ele>
        <time>2020-07-25T11:53:50.986Z</time>
      </trkpt>
      <trkpt lat="60.66279" lon="4.98434">
        <ele>79.355384</ele>
        <time>2020-07-25T11:53:53.007Z</time>
      </trkpt>
      <trkpt lat="60.66285" lon="4.98414">
        <ele>79.140868</ele>
        <time>2020-07-25T11:53:55.012Z</time>
      </trkpt>
      <trkpt lat="60.6629" lon="4.98395">
        <ele>78.927979</ele>
        <time>2020-07-25T11:53:56.982Z</time>
      </trkpt>
      <trkpt lat="60.66296" lon="4.98373">
        <ele>78.691846</ele>
        <time>2020-07-25T11:53:58.997Z</time>
      </trkpt>
      <trkpt lat="60.66301" lon="4.98349">
        <ele>78.451402</ele>
        <time>2020-07-25T11:54:00.996Z</time>
      </trkpt>
      <trkpt lat="60.66307" lon="4.98324">
        <ele>78.116816</ele>
        <time>2020-07-25T11:54:02.995Z</time>
      </trkpt>
      <trkpt lat="60.66314" lon="4.98297">
        <ele>77.745422</ele>
        <time>2020-07-25T11:54:05.028Z</time>
      </trkpt>
      <trkpt lat="60.6632" lon="4.98268">
        <ele>77.348317</ele>
        <time>2020-07-25T11:54:06.989Z</time>
      </trkpt>
      <trkpt lat="60.66328" lon="4.98236">
        <ele>76.901951</ele>
        <time>2020-07-25T11:54:08.990Z</time>
      </trkpt>
      <trkpt lat="60.66332" lon="4.98219">
        <ele>76.663688</ele>
        <time>2020-07-25T11:54:09.985Z</time>
      </trkpt>
      <trkpt lat="60.66336" lon="4.98202">
        <ele>76.426475</ele>
        <time>2020-07-25T11:54:10.986Z</time>
      </trkpt>
      <trkpt lat="60.6634" lon="4.98185">
        <ele>76.19697</ele>
        <time>2020-07-25T11:54:11.979Z</time>
      </trkpt>
      <trkpt lat="60.66349" lon="4.98156">
        <ele>75.762241</ele>
        <time>2020-07-25T11:54:14.005Z</time>
      </trkpt>
      <trkpt lat="60.66358" lon="4.98131">
        <ele>75.380693</ele>
        <time>2020-07-25T11:54:15.987Z</time>
      </trkpt>
      <trkpt lat="60.66366" lon="4.98112">
        <ele>75.072876</ele>
        <time>2020-07-25T11:54:17.996Z</time>
      </trkpt>
      <trkpt lat="60.66373" lon="4.98097">
        <ele>74.812009</ele>
        <time>2020-07-25T11:54:19.979Z</time>
      </trkpt>
      <trkpt lat="60.6638" lon="4.98083">
        <ele>74.575349</ele>
        <time>2020-07-25T11:54:22.004Z</time>
      </trkpt>
      <trkpt lat="60.66385" lon="4.98068">
        <ele>74.336406</ele>
        <time>2020-07-25T11:54:23.987Z</time>
      </trkpt>
      <trkpt lat="60.66393" lon="4.98046">
        <ele>74.004168</ele>
        <time>2020-07-25T11:54:27.024Z</time>
      </trkpt>
      <trkpt lat="60.66401" lon="4.98025">
        <ele>73.761666</ele>
        <time>2020-07-25T11:54:30.046Z</time>
      </trkpt>
      <trkpt lat="60.66407" lon="4.98009">
        <ele>73.659828</ele>
        <time>2020-07-25T11:54:32.019Z</time>
      </trkpt>
      <trkpt lat="60.66413" lon="4.97994">
        <ele>73.557053</ele>
        <time>2020-07-25T11:54:33.995Z</time>
      </trkpt>
      <trkpt lat="60.6642" lon="4.97979">
        <ele>73.456719</ele>
        <time>2020-07-25T11:54:36.017Z</time>
      </trkpt>
      <trkpt lat="60.66427" lon="4.97965">
        <ele>73.357103</ele>
        <time>2020-07-25T11:54:38.014Z</time>
      </trkpt>
      <trkpt lat="60.66432" lon="4.9795">
        <ele>73.25703</ele>
        <time>2020-07-25T11:54:40.032Z</time>
      </trkpt>
      <trkpt lat="60.66438" lon="4.97933">
        <ele>73.151832</ele>
        <time>2020-07-25T11:54:42.006Z</time>
      </trkpt>
      <trkpt lat="60.66445" lon="4.97917">
        <ele>73.044034</ele>
        <time>2020-07-25T11:54:44.005Z</time>
      </trkpt>
      <trkpt lat="60.66452" lon="4.97902">
        <ele>72.939339</ele>
        <time>2020-07-25T11:54:46.019Z</time>
      </trkpt>
      <trkpt lat="60.66459" lon="4.97888">
        <ele>72.835689</ele>
        <time>2020-07-25T11:54:47.981Z</time>
      </trkpt>
      <trkpt lat="60.66467" lon="4.97874">
        <ele>72.731908</ele>
        <time>2020-07-25T11:54:50.004Z</time>
      </trkpt>
      <trkpt lat="60.66475" lon="4.97863">
        <ele>72.630815</ele>
        <time>2020-07-25T11:54:52.027Z</time>
      </trkpt>
      <trkpt lat="60.66483" lon="4.97851">
        <ele>72.527143</ele>
        <time>2020-07-25T11:54:54.016Z</time>
      </trkpt>
      <trkpt lat="60.66491" lon="4.9784">
        <ele>72.424619</ele>
        <time>2020-07-25T11:54:56.012Z</time>
      </trkpt>
      <trkpt lat="60.66499" lon="4.9783">
        <ele>72.328587</ele>
        <time>2020-07-25T11:54:58.002Z</time>
      </trkpt>
      <trkpt lat="60.6651" lon="4.97816">
        <ele>72.190778</ele>
        <time>2020-07-25T11:55:00.999Z</time>
      </trkpt>
      <trkpt lat="60.66522" lon="4.97803">
        <ele>72.055531</ele>
        <time>2020-07-25T11:55:03.993Z</time>
      </trkpt>
      <trkpt lat="60.66532" lon="4.97791">
        <ele>72.010716</ele>
        <time>2020-07-25T11:55:06.999Z</time>
      </trkpt>
      <trkpt lat="60.66543" lon="4.97779">
        <ele>72.22361</ele>
        <time>2020-07-25T11:55:10.003Z</time>
      </trkpt>
      <trkpt lat="60.66552" lon="4.97768">
        <ele>72.424407</ele>
        <time>2020-07-25T11:55:13.006Z</time>
      </trkpt>
      <trkpt lat="60.66562" lon="4.97753">
        <ele>72.640652</ele>
        <time>2020-07-25T11:55:16.042Z</time>
      </trkpt>
      <trkpt lat="60.66572" lon="4.97738">
        <ele>72.870361</ele>
        <time>2020-07-25T11:55:19.002Z</time>
      </trkpt>
      <trkpt lat="60.66582" lon="4.97724">
        <ele>73.098534</ele>
        <time>2020-07-25T11:55:22.001Z</time>
      </trkpt>
      <trkpt lat="60.66592" lon="4.97712">
        <ele>73.312534</ele>
        <time>2020-07-25T11:55:25.011Z</time>
      </trkpt>
      <trkpt lat="60.66601" lon="4.97698">
        <ele>73.51664</ele>
        <time>2020-07-25T11:55:27.993Z</time>
      </trkpt>
      <trkpt lat="60.66611" lon="4.97685">
        <ele>73.726373</ele>
        <time>2020-07-25T11:55:30.990Z</time>
      </trkpt>
      <trkpt lat="60.66619" lon="4.9767">
        <ele>73.930475</ele>
        <time>2020-07-25T11:55:34.001Z</time>
      </trkpt>
      <trkpt lat="60.66628" lon="4.97655">
        <ele>74.140531</ele>
        <time>2020-07-25T11:55:36.998Z</time>
      </trkpt>
      <trkpt lat="60.66638" lon="4.9764">
        <ele>74.363947</ele>
        <time>2020-07-25T11:55:39.979Z</time>
      </trkpt>
      <trkpt lat="60.66647" lon="4.97626">
        <ele>74.565867</ele>
        <time>2020-07-25T11:55:43.002Z</time>
      </trkpt>
      <trkpt lat="60.66656" lon="4.97614">
        <ele>74.758063</ele>
        <time>2020-07-25T11:55:45.994Z</time>
      </trkpt>
      <trkpt lat="60.66664" lon="4.97601">
        <ele>74.952252</ele>
        <time>2020-07-25T11:55:49.000Z</time>
      </trkpt>
      <trkpt lat="60.66672" lon="4.97588">
        <ele>75.134641</ele>
        <time>2020-07-25T11:55:52.055Z</time>
      </trkpt>
      <trkpt lat="60.6668" lon="4.97573">
        <ele>75.280226</ele>
        <time>2020-07-25T11:55:55.006Z</time>
      </trkpt>
      <trkpt lat="60.66689" lon="4.9756">
        <ele>75.388168</ele>
        <time>2020-07-25T11:55:57.989Z</time>
      </trkpt>
      <trkpt lat="60.66698" lon="4.97546">
        <ele>75.49738</ele>
        <time>2020-07-25T11:56:01.024Z</time>
      </trkpt>
      <trkpt lat="60.66706" lon="4.97532">
        <ele>75.603892</ele>
        <time>2020-07-25T11:56:03.993Z</time>
      </trkpt>
      <trkpt lat="60.66715" lon="4.97517">
        <ele>75.714559</ele>
        <time>2020-07-25T11:56:06.996Z</time>
      </trkpt>
      <trkpt lat="60.66723" lon="4.97503">
        <ele>75.8138</ele>
        <time>2020-07-25T11:56:10.019Z</time>
      </trkpt>
      <trkpt lat="60.66731" lon="4.9749">
        <ele>75.912701</ele>
        <time>2020-07-25T11:56:12.978Z</time>
      </trkpt>
      <trkpt lat="60.66739" lon="4.97477">
        <ele>76.013285</ele>
        <time>2020-07-25T11:56:15.974Z</time>
      </trkpt>
      <trkpt lat="60.66747" lon="4.97463">
        <ele>76.114291</ele>
        <time>2020-07-25T11:56:18.984Z</time>
      </trkpt>
      <trkpt lat="60.66756" lon="4.97449">
        <ele>76.222136</ele>
        <time>2020-07-25T11:56:21.973Z</time>
      </trkpt>
      <trkpt lat="60.66765" lon="4.97435">
        <ele>76.327491</ele>
        <time>2020-07-25T11:56:25.004Z</time>
      </trkpt>
      <trkpt lat="60.66774" lon="4.97422">
        <ele>76.432711</ele>
        <time>2020-07-25T11:56:27.981Z</time>
      </trkpt>
      <trkpt lat="60.66782" lon="4.97408">
        <ele>76.534589</ele>
        <time>2020-07-25T11:56:30.988Z</time>
      </trkpt>
      <trkpt lat="60.6679" lon="4.97396">
        <ele>76.630538</ele>
        <time>2020-07-25T11:56:33.983Z</time>
      </trkpt>
      <trkpt lat="60.66799" lon="4.97383">
        <ele>76.733146</ele>
        <time>2020-07-25T11:56:36.989Z</time>
      </trkpt>
      <trkpt lat="60.66807" lon="4.97371">
        <ele>76.834649</ele>
        <time>2020-07-25T11:56:39.979Z</time>
      </trkpt>
      <trkpt lat="60.66816" lon="4.97359">
        <ele>76.935096</ele>
        <time>2020-07-25T11:56:42.993Z</time>
      </trkpt>
      <trkpt lat="60.66824" lon="4.97347">
        <ele>76.875696</ele>
        <time>2020-07-25T11:56:45.986Z</time>
      </trkpt>
      <trkpt lat="60.66833" lon="4.97336">
        <ele>76.75012</ele>
        <time>2020-07-25T11:56:48.987Z</time>
      </trkpt>
      <trkpt lat="60.66843" lon="4.97323">
        <ele>76.614194</ele>
        <time>2020-07-25T11:56:51.985Z</time>
      </trkpt>
      <trkpt lat="60.66853" lon="4.97309">
        <ele>76.474174</ele>
        <time>2020-07-25T11:56:55.004Z</time>
      </trkpt>
      <trkpt lat="60.66864" lon="4.97294">
        <ele>76.330035</ele>
        <time>2020-07-25T11:56:58.005Z</time>
      </trkpt>
      <trkpt lat="60.66871" lon="4.97284">
        <ele>76.224545</ele>
        <time>2020-07-25T11:57:00.092Z</time>
      </trkpt>
      <trkpt lat="60.66879" lon="4.97273">
        <ele>76.113353</ele>
        <time>2020-07-25T11:57:01.967Z</time>
      </trkpt>
      <trkpt lat="60.66888" lon="4.97261">
        <ele>75.991668</ele>
        <time>2020-07-25T11:57:04.026Z</time>
      </trkpt>
      <trkpt lat="60.66897" lon="4.9725">
        <ele>75.871485</ele>
        <time>2020-07-25T11:57:06.007Z</time>
      </trkpt>
      <trkpt lat="60.66907" lon="4.9724">
        <ele>75.747079</ele>
        <time>2020-07-25T11:57:08.002Z</time>
      </trkpt>
      <trkpt lat="60.66916" lon="4.97229">
        <ele>75.625365</ele>
        <time>2020-07-25T11:57:09.999Z</time>
      </trkpt>
      <trkpt lat="60.66926" lon="4.97216">
        <ele>75.492596</ele>
        <time>2020-07-25T11:57:11.984Z</time>
      </trkpt>
      <trkpt lat="60.66935" lon="4.972">
        <ele>75.349948</ele>
        <time>2020-07-25T11:57:14.021Z</time>
      </trkpt>
      <trkpt lat="60.66945" lon="4.97184">
        <ele>75.20285</ele>
        <time>2020-07-25T11:57:15.986Z</time>
      </trkpt>
      <trkpt lat="60.66957" lon="4.97168">
        <ele>75.039705</ele>
        <time>2020-07-25T11:57:18.005Z</time>
      </trkpt>
      <trkpt lat="60.6697" lon="4.9715">
        <ele>74.793538</ele>
        <time>2020-07-25T11:57:19.978Z</time>
      </trkpt>
      <trkpt lat="60.66984" lon="4.97131">
        <ele>74.257233</ele>
        <time>2020-07-25T11:57:21.971Z</time>
      </trkpt>
      <trkpt lat="60.66997" lon="4.97112">
        <ele>73.728831</ele>
        <time>2020-07-25T11:57:24.025Z</time>
      </trkpt>
      <trkpt lat="60.6701" lon="4.97093">
        <ele>73.22459</ele>
        <time>2020-07-25T11:57:25.996Z</time>
      </trkpt>
      <trkpt lat="60.67021" lon="4.97073">
        <ele>72.746008</ele>
        <time>2020-07-25T11:57:28.008Z</time>
      </trkpt>
      <trkpt lat="60.67032" lon="4.97051">
        <ele>72.243582</ele>
        <time>2020-07-25T11:57:29.992Z</time>
      </trkpt>
      <trkpt lat="60.67044" lon="4.97028">
        <ele>71.732325</ele>
        <time>2020-07-25T11:57:31.990Z</time>
      </trkpt>
      <trkpt lat="60.67055" lon="4.97005">
        <ele>71.218796</ele>
        <time>2020-07-25T11:57:33.981Z</time>
      </trkpt>
      <trkpt lat="60.67066" lon="4.96983">
        <ele>70.705121</ele>
        <time>2020-07-25T11:57:35.996Z</time>
      </trkpt>
      <trkpt lat="60.67078" lon="4.96961">
        <ele>70.189331</ele>
        <time>2020-07-25T11:57:37.983Z</time>
      </trkpt>
      <trkpt lat="60.67089" lon="4.9694">
        <ele>69.699054</ele>
        <time>2020-07-25T11:57:40.014Z</time>
      </trkpt>
      <trkpt lat="60.67101" lon="4.9692">
        <ele>69.20029</ele>
        <time>2020-07-25T11:57:41.996Z</time>
      </trkpt>
      <trkpt lat="60.67113" lon="4.96899">
        <ele>68.737733</ele>
        <time>2020-07-25T11:57:44.008Z</time>
      </trkpt>
      <trkpt lat="60.67125" lon="4.96876">
        <ele>68.277564</ele>
        <time>2020-07-25T11:57:45.983Z</time>
      </trkpt>
      <trkpt lat="60.67137" lon="4.96853">
        <ele>67.810004</ele>
        <time>2020-07-25T11:57:47.996Z</time>
      </trkpt>
      <trkpt lat="60.67148" lon="4.9683">
        <ele>67.369021</ele>
        <time>2020-07-25T11:57:50.011Z</time>
      </trkpt>
      <trkpt lat="60.67157" lon="4.96808">
        <ele>66.956482</ele>
        <time>2020-07-25T11:57:51.983Z</time>
      </trkpt>
      <trkpt lat="60.67166" lon="4.96787">
        <ele>66.575945</ele>
        <time>2020-07-25T11:57:54.011Z</time>
      </trkpt>
      <trkpt lat="60.67174" lon="4.96769">
        <ele>66.231144</ele>
        <time>2020-07-25T11:57:56.011Z</time>
      </trkpt>
      <trkpt lat="60.67182" lon="4.96751">
        <ele>65.890311</ele>
        <time>2020-07-25T11:57:57.975Z</time>
      </trkpt>
      <trkpt lat="60.6719" lon="4.96732">
        <ele>65.549109</ele>
        <time>2020-07-25T11:57:59.979Z</time>
      </trkpt>
      <trkpt lat="60.67198" lon="4.96713">
        <ele>65.192605</ele>
        <time>2020-07-25T11:58:01.992Z</time>
      </trkpt>
      <trkpt lat="60.67205" lon="4.96693">
        <ele>64.853708</ele>
        <time>2020-07-25T11:58:03.977Z</time>
      </trkpt>
      <trkpt lat="60.67211" lon="4.96674">
        <ele>64.541593</ele>
        <time>2020-07-25T11:58:05.993Z</time>
      </trkpt>
      <trkpt lat="60.67216" lon="4.96657">
        <ele>64.259521</ele>
        <time>2020-07-25T11:58:08.008Z</time>
      </trkpt>
      <trkpt lat="60.67221" lon="4.96639">
        <ele>63.973589</ele>
        <time>2020-07-25T11:58:09.992Z</time>
      </trkpt>
      <trkpt lat="60.67226" lon="4.96621">
        <ele>63.933336</ele>
        <time>2020-07-25T11:58:12.015Z</time>
      </trkpt>
      <trkpt lat="60.67231" lon="4.96602">
        <ele>63.892766</ele>
        <time>2020-07-25T11:58:13.981Z</time>
      </trkpt>
      <trkpt lat="60.67236" lon="4.96583">
        <ele>63.850267</ele>
        <time>2020-07-25T11:58:15.973Z</time>
      </trkpt>
      <trkpt lat="60.67243" lon="4.96565">
        <ele>63.807228</ele>
        <time>2020-07-25T11:58:18.029Z</time>
      </trkpt>
      <trkpt lat="60.6725" lon="4.96547">
        <ele>63.76166</ele>
        <time>2020-07-25T11:58:19.981Z</time>
      </trkpt>
      <trkpt lat="60.67259" lon="4.96533">
        <ele>63.716198</ele>
        <time>2020-07-25T11:58:21.988Z</time>
      </trkpt>
      <trkpt lat="60.67269" lon="4.96519">
        <ele>63.670858</ele>
        <time>2020-07-25T11:58:23.983Z</time>
      </trkpt>
      <trkpt lat="60.67279" lon="4.96506">
        <ele>63.623221</ele>
        <time>2020-07-25T11:58:26.007Z</time>
      </trkpt>
      <trkpt lat="60.67288" lon="4.96492">
        <ele>63.576788</ele>
        <time>2020-07-25T11:58:27.985Z</time>
      </trkpt>
      <trkpt lat="60.67299" lon="4.96479">
        <ele>63.526466</ele>
        <time>2020-07-25T11:58:29.990Z</time>
      </trkpt>
      <trkpt lat="60.67311" lon="4.96467">
        <ele>63.473629</ele>
        <time>2020-07-25T11:58:31.986Z</time>
      </trkpt>
      <trkpt lat="60.67323" lon="4.96454">
        <ele>63.419629</ele>
        <time>2020-07-25T11:58:33.992Z</time>
      </trkpt>
      <trkpt lat="60.67335" lon="4.96439">
        <ele>63.365838</ele>
        <time>2020-07-25T11:58:36.001Z</time>
      </trkpt>
      <trkpt lat="60.67347" lon="4.96426">
        <ele>63.312593</ele>
        <time>2020-07-25T11:58:37.994Z</time>
      </trkpt>
      <trkpt lat="60.67358" lon="4.96412">
        <ele>63.262014</ele>
        <time>2020-07-25T11:58:40.053Z</time>
      </trkpt>
      <trkpt lat="60.6737" lon="4.96395">
        <ele>63.256444</ele>
        <time>2020-07-25T11:58:41.995Z</time>
      </trkpt>
      <trkpt lat="60.67381" lon="4.96376">
        <ele>63.250604</ele>
        <time>2020-07-25T11:58:44.011Z</time>
      </trkpt>
      <trkpt lat="60.67392" lon="4.96355">
        <ele>63.244518</ele>
        <time>2020-07-25T11:58:45.988Z</time>
      </trkpt>
      <trkpt lat="60.67404" lon="4.96332">
        <ele>63.238048</ele>
        <time>2020-07-25T11:58:48.001Z</time>
      </trkpt>
      <trkpt lat="60.67416" lon="4.96309">
        <ele>63.231502</ele>
        <time>2020-07-25T11:58:50.004Z</time>
      </trkpt>
      <trkpt lat="60.67428" lon="4.96286">
        <ele>63.22484</ele>
        <time>2020-07-25T11:58:51.988Z</time>
      </trkpt>
      <trkpt lat="60.67441" lon="4.96263">
        <ele>63.217998</ele>
        <time>2020-07-25T11:58:53.982Z</time>
      </trkpt>
      <trkpt lat="60.67455" lon="4.96242">
        <ele>63.211223</ele>
        <time>2020-07-25T11:58:55.999Z</time>
      </trkpt>
      <trkpt lat="60.67468" lon="4.96219">
        <ele>63.204341</ele>
        <time>2020-07-25T11:58:58.000Z</time>
      </trkpt>
      <trkpt lat="60.67481" lon="4.96196">
        <ele>63.19752</ele>
        <time>2020-07-25T11:58:59.983Z</time>
      </trkpt>
      <trkpt lat="60.67492" lon="4.96173">
        <ele>63.191037</ele>
        <time>2020-07-25T11:59:02.007Z</time>
      </trkpt>
      <trkpt lat="60.67503" lon="4.96149">
        <ele>62.650207</ele>
        <time>2020-07-25T11:59:04.008Z</time>
      </trkpt>
      <trkpt lat="60.67513" lon="4.96125">
        <ele>62.067606</ele>
        <time>2020-07-25T11:59:06.019Z</time>
      </trkpt>
      <trkpt lat="60.67523" lon="4.961">
        <ele>61.480901</ele>
        <time>2020-07-25T11:59:07.996Z</time>
      </trkpt>
      <trkpt lat="60.67534" lon="4.96075">
        <ele>60.884314</ele>
        <time>2020-07-25T11:59:10.009Z</time>
      </trkpt>
      <trkpt lat="60.67543" lon="4.96051">
        <ele>60.328299</ele>
        <time>2020-07-25T11:59:12.001Z</time>
      </trkpt>
      <trkpt lat="60.67552" lon="4.96029">
        <ele>59.805176</ele>
        <time>2020-07-25T11:59:13.984Z</time>
      </trkpt>
      <trkpt lat="60.67561" lon="4.96006">
        <ele>59.276447</ele>
        <time>2020-07-25T11:59:16.004Z</time>
      </trkpt>
      <trkpt lat="60.67571" lon="4.95983">
        <ele>58.734133</ele>
        <time>2020-07-25T11:59:17.986Z</time>
      </trkpt>
      <trkpt lat="60.67581" lon="4.9596">
        <ele>58.169181</ele>
        <time>2020-07-25T11:59:20.002Z</time>
      </trkpt>
      <trkpt lat="60.67591" lon="4.95936">
        <ele>57.600711</ele>
        <time>2020-07-25T11:59:21.990Z</time>
      </trkpt>
      <trkpt lat="60.67601" lon="4.95911">
        <ele>57.013045</ele>
        <time>2020-07-25T11:59:23.986Z</time>
      </trkpt>
      <trkpt lat="60.67613" lon="4.95887">
        <ele>56.41742</ele>
        <time>2020-07-25T11:59:25.982Z</time>
      </trkpt>
      <trkpt lat="60.67624" lon="4.95863">
        <ele>55.881465</ele>
        <time>2020-07-25T11:59:27.986Z</time>
      </trkpt>
      <trkpt lat="60.67634" lon="4.95839">
        <ele>55.373326</ele>
        <time>2020-07-25T11:59:30.003Z</time>
      </trkpt>
      <trkpt lat="60.67644" lon="4.95815">
        <ele>54.869132</ele>
        <time>2020-07-25T11:59:31.995Z</time>
      </trkpt>
      <trkpt lat="60.67652" lon="4.95792">
        <ele>54.419583</ele>
        <time>2020-07-25T11:59:33.988Z</time>
      </trkpt>
      <trkpt lat="60.67661" lon="4.95771">
        <ele>53.982486</ele>
        <time>2020-07-25T11:59:35.987Z</time>
      </trkpt>
      <trkpt lat="60.67669" lon="4.95751">
        <ele>53.553169</ele>
        <time>2020-07-25T11:59:38.003Z</time>
      </trkpt>
      <trkpt lat="60.67677" lon="4.95731">
        <ele>53.152082</ele>
        <time>2020-07-25T11:59:39.994Z</time>
      </trkpt>
      <trkpt lat="60.67684" lon="4.95711">
        <ele>52.755218</ele>
        <time>2020-07-25T11:59:41.988Z</time>
      </trkpt>
      <trkpt lat="60.6769" lon="4.95691">
        <ele>52.377912</ele>
        <time>2020-07-25T11:59:44.012Z</time>
      </trkpt>
      <trkpt lat="60.67697" lon="4.95674">
        <ele>52.02202</ele>
        <time>2020-07-25T11:59:45.989Z</time>
      </trkpt>
      <trkpt lat="60.67704" lon="4.95658">
        <ele>51.676091</ele>
        <time>2020-07-25T11:59:47.977Z</time>
      </trkpt>
      <trkpt lat="60.67712" lon="4.95641">
        <ele>51.297069</ele>
        <time>2020-07-25T11:59:50.004Z</time>
      </trkpt>
      <trkpt lat="60.67721" lon="4.95625">
        <ele>50.905779</ele>
        <time>2020-07-25T11:59:52.028Z</time>
      </trkpt>
      <trkpt lat="60.6773" lon="4.95607">
        <ele>50.590113</ele>
        <time>2020-07-25T11:59:53.999Z</time>
      </trkpt>
      <trkpt lat="60.67738" lon="4.95588">
        <ele>50.430442</ele>
        <time>2020-07-25T11:59:56.002Z</time>
      </trkpt>
      <trkpt lat="60.67746" lon="4.95568">
        <ele>50.267981</ele>
        <time>2020-07-25T11:59:57.989Z</time>
      </trkpt>
      <trkpt lat="60.67753" lon="4.95549">
        <ele>50.11443</ele>
        <time>2020-07-25T12:00:00.025Z</time>
      </trkpt>
      <trkpt lat="60.67761" lon="4.95531">
        <ele>49.963466</ele>
        <time>2020-07-25T12:00:02.007Z</time>
      </trkpt>
      <trkpt lat="60.67769" lon="4.95512">
        <ele>49.79982</ele>
        <time>2020-07-25T12:00:04.034Z</time>
      </trkpt>
      <trkpt lat="60.67778" lon="4.95491">
        <ele>49.624598</ele>
        <time>2020-07-25T12:00:06.012Z</time>
      </trkpt>
      <trkpt lat="60.67787" lon="4.9547">
        <ele>49.445364</ele>
        <time>2020-07-25T12:00:08.003Z</time>
      </trkpt>
      <trkpt lat="60.67797" lon="4.9545">
        <ele>49.267649</ele>
        <time>2020-07-25T12:00:09.980Z</time>
      </trkpt>
      <trkpt lat="60.67806" lon="4.95429">
        <ele>49.087142</ele>
        <time>2020-07-25T12:00:11.988Z</time>
      </trkpt>
      <trkpt lat="60.67816" lon="4.95409">
        <ele>48.908991</ele>
        <time>2020-07-25T12:00:14.005Z</time>
      </trkpt>
      <trkpt lat="60.67825" lon="4.95389">
        <ele>48.733094</ele>
        <time>2020-07-25T12:00:16.054Z</time>
      </trkpt>
      <trkpt lat="60.67833" lon="4.95369">
        <ele>48.565604</ele>
        <time>2020-07-25T12:00:18.011Z</time>
      </trkpt>
      <trkpt lat="60.67842" lon="4.9535">
        <ele>48.400175</ele>
        <time>2020-07-25T12:00:20.000Z</time>
      </trkpt>
      <trkpt lat="60.67851" lon="4.95331">
        <ele>48.257765</ele>
        <time>2020-07-25T12:00:21.993Z</time>
      </trkpt>
      <trkpt lat="60.67859" lon="4.95313">
        <ele>48.137541</ele>
        <time>2020-07-25T12:00:23.977Z</time>
      </trkpt>
      <trkpt lat="60.67867" lon="4.95294">
        <ele>48.021942</ele>
        <time>2020-07-25T12:00:26.027Z</time>
      </trkpt>
      <trkpt lat="60.67875" lon="4.95276">
        <ele>47.90895</ele>
        <time>2020-07-25T12:00:27.983Z</time>
      </trkpt>
      <trkpt lat="60.67883" lon="4.95258">
        <ele>47.794972</ele>
        <time>2020-07-25T12:00:30.006Z</time>
      </trkpt>
      <trkpt lat="60.6789" lon="4.9524">
        <ele>47.683948</ele>
        <time>2020-07-25T12:00:31.987Z</time>
      </trkpt>
      <trkpt lat="60.67897" lon="4.95221">
        <ele>47.569397</ele>
        <time>2020-07-25T12:00:33.990Z</time>
      </trkpt>
      <trkpt lat="60.67904" lon="4.95201">
        <ele>47.458353</ele>
        <time>2020-07-25T12:00:35.984Z</time>
      </trkpt>
      <trkpt lat="60.6791" lon="4.95182">
        <ele>47.350339</ele>
        <time>2020-07-25T12:00:37.999Z</time>
      </trkpt>
      <trkpt lat="60.67915" lon="4.95162">
        <ele>47.244571</ele>
        <time>2020-07-25T12:00:39.980Z</time>
      </trkpt>
      <trkpt lat="60.67921" lon="4.95142">
        <ele>47.134864</ele>
        <time>2020-07-25T12:00:42.015Z</time>
      </trkpt>
      <trkpt lat="60.67926" lon="4.95123">
        <ele>47.027854</ele>
        <time>2020-07-25T12:00:43.985Z</time>
      </trkpt>
      <trkpt lat="60.67932" lon="4.95102">
        <ele>46.91861</ele>
        <time>2020-07-25T12:00:45.988Z</time>
      </trkpt>
      <trkpt lat="60.67938" lon="4.95084">
        <ele>46.811386</ele>
        <time>2020-07-25T12:00:48.007Z</time>
      </trkpt>
      <trkpt lat="60.67946" lon="4.95067">
        <ele>46.700645</ele>
        <time>2020-07-25T12:00:50.014Z</time>
      </trkpt>
      <trkpt lat="60.67955" lon="4.95052">
        <ele>46.58858</ele>
        <time>2020-07-25T12:00:51.996Z</time>
      </trkpt>
      <trkpt lat="60.67963" lon="4.95037">
        <ele>47.222555</ele>
        <time>2020-07-25T12:00:53.986Z</time>
      </trkpt>
      <trkpt lat="60.67971" lon="4.95023">
        <ele>47.835864</ele>
        <time>2020-07-25T12:00:56.014Z</time>
      </trkpt>
      <trkpt lat="60.67977" lon="4.95011">
        <ele>48.401687</ele>
        <time>2020-07-25T12:00:58.006Z</time>
      </trkpt>
      <trkpt lat="60.67986" lon="4.94994">
        <ele>49.123857</ele>
        <time>2020-07-25T12:01:00.982Z</time>
      </trkpt>
      <trkpt lat="60.67993" lon="4.94979">
        <ele>49.75775</ele>
        <time>2020-07-25T12:01:04.014Z</time>
      </trkpt>
      <trkpt lat="60.68" lon="4.94966">
        <ele>50.322725</ele>
        <time>2020-07-25T12:01:07.011Z</time>
      </trkpt>
      <trkpt lat="60.68006" lon="4.94949">
        <ele>50.961801</ele>
        <time>2020-07-25T12:01:10.995Z</time>
      </trkpt>
      <trkpt lat="60.68014" lon="4.94934">
        <ele>51.612881</ele>
        <time>2020-07-25T12:01:14.989Z</time>
      </trkpt>
      <trkpt lat="60.68021" lon="4.94918">
        <ele>52.287441</ele>
        <time>2020-07-25T12:01:19.010Z</time>
      </trkpt>
      <trkpt lat="60.68029" lon="4.94902">
        <ele>52.944775</ele>
        <time>2020-07-25T12:01:23.000Z</time>
      </trkpt>
      <trkpt lat="60.68037" lon="4.94889">
        <ele>53.609667</ele>
        <time>2020-07-25T12:01:26.984Z</time>
      </trkpt>
      <trkpt lat="60.68045" lon="4.94879">
        <ele>54.171989</ele>
        <time>2020-07-25T12:01:30.991Z</time>
      </trkpt>
      <trkpt lat="60.68055" lon="4.94874">
        <ele>54.814036</ele>
        <time>2020-07-25T12:01:36.027Z</time>
      </trkpt>
      <trkpt lat="60.68066" lon="4.94874">
        <ele>55.471212</ele>
        <time>2020-07-25T12:01:40.977Z</time>
      </trkpt>
      <trkpt lat="60.68077" lon="4.94871">
        <ele>56.144059</ele>
        <time>2020-07-25T12:01:46.994Z</time>
      </trkpt>
      <trkpt lat="60.68087" lon="4.9487">
        <ele>56.758816</ele>
        <time>2020-07-25T12:01:51.992Z</time>
      </trkpt>
      <trkpt lat="60.68098" lon="4.94865">
        <ele>57.436312</ele>
        <time>2020-07-25T12:01:56.997Z</time>
      </trkpt>
      <trkpt lat="60.68108" lon="4.94857">
        <ele>57.626462</ele>
        <time>2020-07-25T12:02:02.023Z</time>
      </trkpt>
      <trkpt lat="60.68117" lon="4.94846">
        <ele>57.624347</ele>
        <time>2020-07-25T12:02:06.980Z</time>
      </trkpt>
      <trkpt lat="60.68125" lon="4.94833">
        <ele>57.622535</ele>
        <time>2020-07-25T12:02:11.014Z</time>
      </trkpt>
      <trkpt lat="60.68131" lon="4.94819">
        <ele>57.620767</ele>
        <time>2020-07-25T12:02:15.001Z</time>
      </trkpt>
      <trkpt lat="60.68139" lon="4.94805">
        <ele>57.618758</ele>
        <time>2020-07-25T12:02:19.029Z</time>
      </trkpt>
      <trkpt lat="60.68146" lon="4.94789">
        <ele>57.616718</ele>
        <time>2020-07-25T12:02:23.011Z</time>
      </trkpt>
      <trkpt lat="60.68152" lon="4.94775">
        <ele>57.615022</ele>
        <time>2020-07-25T12:02:25.999Z</time>
      </trkpt>
      <trkpt lat="60.68159" lon="4.94759">
        <ele>57.613065</ele>
        <time>2020-07-25T12:02:28.997Z</time>
      </trkpt>
      <trkpt lat="60.68166" lon="4.94743">
        <ele>57.610985</ele>
        <time>2020-07-25T12:02:31.979Z</time>
      </trkpt>
      <trkpt lat="60.68175" lon="4.94724">
        <ele>57.608618</ele>
        <time>2020-07-25T12:02:34.998Z</time>
      </trkpt>
      <trkpt lat="60.68181" lon="4.9471">
        <ele>57.606864</ele>
        <time>2020-07-25T12:02:36.979Z</time>
      </trkpt>
      <trkpt lat="60.68189" lon="4.94695">
        <ele>57.60485</ele>
        <time>2020-07-25T12:02:39.003Z</time>
      </trkpt>
      <trkpt lat="60.68197" lon="4.94678">
        <ele>57.602584</ele>
        <time>2020-07-25T12:02:40.992Z</time>
      </trkpt>
      <trkpt lat="60.68206" lon="4.9466">
        <ele>57.600164</ele>
        <time>2020-07-25T12:02:43.000Z</time>
      </trkpt>
      <trkpt lat="60.68217" lon="4.94642">
        <ele>57.597596</ele>
        <time>2020-07-25T12:02:44.997Z</time>
      </trkpt>
      <trkpt lat="60.68229" lon="4.94626">
        <ele>57.594784</ele>
        <time>2020-07-25T12:02:46.996Z</time>
      </trkpt>
      <trkpt lat="60.68243" lon="4.9461">
        <ele>57.802635</ele>
        <time>2020-07-25T12:02:48.999Z</time>
      </trkpt>
      <trkpt lat="60.68258" lon="4.94596">
        <ele>58.158289</ele>
        <time>2020-07-25T12:02:51.007Z</time>
      </trkpt>
      <trkpt lat="60.68274" lon="4.94584">
        <ele>58.511573</ele>
        <time>2020-07-25T12:02:52.979Z</time>
      </trkpt>
      <trkpt lat="60.6829" lon="4.94576">
        <ele>58.854346</ele>
        <time>2020-07-25T12:02:54.992Z</time>
      </trkpt>
      <trkpt lat="60.68304" lon="4.94577">
        <ele>59.130963</ele>
        <time>2020-07-25T12:02:57.001Z</time>
      </trkpt>
      <trkpt lat="60.68315" lon="4.9458">
        <ele>59.376176</ele>
        <time>2020-07-25T12:03:00.070Z</time>
      </trkpt>
      <trkpt lat="60.68324" lon="4.94569">
        <ele>59.588075</ele>
        <time>2020-07-25T12:03:03.985Z</time>
      </trkpt>
      <trkpt lat="60.68331" lon="4.94556">
        <ele>59.794118</ele>
        <time>2020-07-25T12:03:07.988Z</time>
      </trkpt>
      <trkpt lat="60.68339" lon="4.94542">
        <ele>60.000561</ele>
        <time>2020-07-25T12:03:11.983Z</time>
      </trkpt>
      <trkpt lat="60.68347" lon="4.94532">
        <ele>60.203676</ele>
        <time>2020-07-25T12:03:16.031Z</time>
      </trkpt>
      <trkpt lat="60.68354" lon="4.9452">
        <ele>60.391379</ele>
        <time>2020-07-25T12:03:19.985Z</time>
      </trkpt>
      <trkpt lat="60.68362" lon="4.94507">
        <ele>60.599669</ele>
        <time>2020-07-25T12:03:25.048Z</time>
      </trkpt>
      <trkpt lat="60.6837" lon="4.94494">
        <ele>60.822222</ele>
        <time>2020-07-25T12:03:31.027Z</time>
      </trkpt>
      <trkpt lat="60.68379" lon="4.9448">
        <ele>61.048285</ele>
        <time>2020-07-25T12:03:36.997Z</time>
      </trkpt>
      <trkpt lat="60.68387" lon="4.94468">
        <ele>61.252089</ele>
        <time>2020-07-25T12:03:41.992Z</time>
      </trkpt>
      <trkpt lat="60.68395" lon="4.94455">
        <ele>61.333471</ele>
        <time>2020-07-25T12:03:46.989Z</time>
      </trkpt>
      <trkpt lat="60.68402" lon="4.94444">
        <ele>61.33545</ele>
        <time>2020-07-25T12:03:50.996Z</time>
      </trkpt>
      <trkpt lat="60.6841" lon="4.94433">
        <ele>61.33748</ele>
        <time>2020-07-25T12:03:54.982Z</time>
      </trkpt>
      <trkpt lat="60.68417" lon="4.94421">
        <ele>61.339438</ele>
        <time>2020-07-25T12:03:58.996Z</time>
      </trkpt>
      <trkpt lat="60.68423" lon="4.94409">
        <ele>61.341437</ele>
        <time>2020-07-25T12:04:03.013Z</time>
      </trkpt>
      <trkpt lat="60.6843" lon="4.94397">
        <ele>61.343408</ele>
        <time>2020-07-25T12:04:07.023Z</time>
      </trkpt>
      <trkpt lat="60.68438" lon="4.9438">
        <ele>61.345835</ele>
        <time>2020-07-25T12:04:10.990Z</time>
      </trkpt>
      <trkpt lat="60.68443" lon="4.94364">
        <ele>61.34782</ele>
        <time>2020-07-25T12:04:13.982Z</time>
      </trkpt>
      <trkpt lat="60.68447" lon="4.94345">
        <ele>61.350005</ele>
        <time>2020-07-25T12:04:17.026Z</time>
      </trkpt>
      <trkpt lat="60.6845" lon="4.94322">
        <ele>61.35264</ele>
        <time>2020-07-25T12:04:20.024Z</time>
      </trkpt>
      <trkpt lat="60.68454" lon="4.94295">
        <ele>61.355552</ele>
        <time>2020-07-25T12:04:23.015Z</time>
      </trkpt>
      <trkpt lat="60.68455" lon="4.94275">
        <ele>61.357668</ele>
        <time>2020-07-25T12:04:25.000Z</time>
      </trkpt>
      <trkpt lat="60.68456" lon="4.94254">
        <ele>61.359948</ele>
        <time>2020-07-25T12:04:27.015Z</time>
      </trkpt>
      <trkpt lat="60.68458" lon="4.94232">
        <ele>61.362305</ele>
        <time>2020-07-25T12:04:29.017Z</time>
      </trkpt>
      <trkpt lat="60.6846" lon="4.94209">
        <ele>61.364721</ele>
        <time>2020-07-25T12:04:30.998Z</time>
      </trkpt>
      <trkpt lat="60.68461" lon="4.94188">
        <ele>61.367019</ele>
        <time>2020-07-25T12:04:32.982Z</time>
      </trkpt>
      <trkpt lat="60.68464" lon="4.94169">
        <ele>61.369127</ele>
        <time>2020-07-25T12:04:34.988Z</time>
      </trkpt>
      <trkpt lat="60.68467" lon="4.94151">
        <ele>61.372</ele>
        <time>2020-07-25T12:04:37.003Z</time>
      </trkpt>
      <trkpt lat="60.68473" lon="4.94128">
        <ele>61.547324</ele>
        <time>2020-07-25T12:04:39.995Z</time>
      </trkpt>
      <trkpt lat="60.68479" lon="4.94109">
        <ele>61.703095</ele>
        <time>2020-07-25T12:04:42.979Z</time>
      </trkpt>
      <trkpt lat="60.68485" lon="4.94094">
        <ele>61.837385</ele>
        <time>2020-07-25T12:04:46.020Z</time>
      </trkpt>
      <trkpt lat="60.68492" lon="4.94079">
        <ele>61.970655</ele>
        <time>2020-07-25T12:04:49.006Z</time>
      </trkpt>
      <trkpt lat="60.68499" lon="4.94061">
        <ele>62.129273</ele>
        <time>2020-07-25T12:04:52.987Z</time>
      </trkpt>
      <trkpt lat="60.68507" lon="4.94045">
        <ele>62.284675</ele>
        <time>2020-07-25T12:04:56.995Z</time>
      </trkpt>
      <trkpt lat="60.68515" lon="4.94028">
        <ele>62.446343</ele>
        <time>2020-07-25T12:05:01.017Z</time>
      </trkpt>
      <trkpt lat="60.68522" lon="4.94014">
        <ele>62.580993</ele>
        <time>2020-07-25T12:05:03.999Z</time>
      </trkpt>
      <trkpt lat="60.68529" lon="4.94">
        <ele>62.716148</ele>
        <time>2020-07-25T12:05:06.996Z</time>
      </trkpt>
      <trkpt lat="60.68536" lon="4.93986">
        <ele>62.850202</ele>
        <time>2020-07-25T12:05:09.989Z</time>
      </trkpt>
      <trkpt lat="60.68544" lon="4.93974">
        <ele>62.982927</ele>
        <time>2020-07-25T12:05:12.992Z</time>
      </trkpt>
      <trkpt lat="60.68552" lon="4.9396">
        <ele>63.126516</ele>
        <time>2020-07-25T12:05:15.983Z</time>
      </trkpt>
      <trkpt lat="60.6856" lon="4.93949">
        <ele>63.270728</ele>
        <time>2020-07-25T12:05:18.993Z</time>
      </trkpt>
      <trkpt lat="60.68569" lon="4.93937">
        <ele>63.417901</ele>
        <time>2020-07-25T12:05:22.002Z</time>
      </trkpt>
      <trkpt lat="60.68579" lon="4.93926">
        <ele>63.575234</ele>
        <time>2020-07-25T12:05:24.985Z</time>
      </trkpt>
      <trkpt lat="60.68589" lon="4.93915">
        <ele>63.731358</ele>
        <time>2020-07-25T12:05:27.982Z</time>
      </trkpt>
      <trkpt lat="60.68598" lon="4.93903">
        <ele>63.79551</ele>
        <time>2020-07-25T12:05:31.020Z</time>
      </trkpt>
      <trkpt lat="60.68607" lon="4.93887">
        <ele>63.439388</ele>
        <time>2020-07-25T12:05:34.987Z</time>
      </trkpt>
      <trkpt lat="60.68618" lon="4.93867">
        <ele>63.018477</ele>
        <time>2020-07-25T12:05:37.978Z</time>
      </trkpt>
      <trkpt lat="60.68627" lon="4.93848">
        <ele>62.633829</ele>
        <time>2020-07-25T12:05:40.000Z</time>
      </trkpt>
      <trkpt lat="60.68638" lon="4.93827">
        <ele>62.194277</ele>
        <time>2020-07-25T12:05:41.988Z</time>
      </trkpt>
      <trkpt lat="60.68648" lon="4.93805">
        <ele>61.753893</ele>
        <time>2020-07-25T12:05:44.002Z</time>
      </trkpt>
      <trkpt lat="60.68658" lon="4.93782">
        <ele>61.308167</ele>
        <time>2020-07-25T12:05:46.007Z</time>
      </trkpt>
      <trkpt lat="60.68669" lon="4.93759">
        <ele>60.84533</ele>
        <time>2020-07-25T12:05:47.982Z</time>
      </trkpt>
      <trkpt lat="60.68681" lon="4.93735">
        <ele>60.369092</ele>
        <time>2020-07-25T12:05:49.998Z</time>
      </trkpt>
      <trkpt lat="60.68691" lon="4.93716">
        <ele>59.950662</ele>
        <time>2020-07-25T12:05:52.009Z</time>
      </trkpt>
      <trkpt lat="60.68702" lon="4.93701">
        <ele>59.564984</ele>
        <time>2020-07-25T12:05:53.993Z</time>
      </trkpt>
      <trkpt lat="60.68715" lon="4.93688">
        <ele>59.147655</ele>
        <time>2020-07-25T12:05:56.024Z</time>
      </trkpt>
      <trkpt lat="60.68729" lon="4.93673">
        <ele>58.678492</ele>
        <time>2020-07-25T12:05:57.996Z</time>
      </trkpt>
      <trkpt lat="60.68744" lon="4.93659">
        <ele>58.297725</ele>
        <time>2020-07-25T12:05:59.983Z</time>
      </trkpt>
      <trkpt lat="60.6876" lon="4.93645">
        <ele>57.950571</ele>
        <time>2020-07-25T12:06:01.990Z</time>
      </trkpt>
      <trkpt lat="60.68775" lon="4.93631">
        <ele>57.608927</ele>
        <time>2020-07-25T12:06:04.010Z</time>
      </trkpt>
      <trkpt lat="60.68789" lon="4.93618">
        <ele>57.30298</ele>
        <time>2020-07-25T12:06:05.988Z</time>
      </trkpt>
      <trkpt lat="60.68802" lon="4.93607">
        <ele>57.010418</ele>
        <time>2020-07-25T12:06:08.001Z</time>
      </trkpt>
      <trkpt lat="60.68814" lon="4.93598">
        <ele>56.75061</ele>
        <time>2020-07-25T12:06:10.014Z</time>
      </trkpt>
      <trkpt lat="60.68824" lon="4.9359">
        <ele>56.53454</ele>
        <time>2020-07-25T12:06:11.980Z</time>
      </trkpt>
      <trkpt lat="60.68836" lon="4.9358">
        <ele>56.263845</ele>
        <time>2020-07-25T12:06:14.992Z</time>
      </trkpt>
      <trkpt lat="60.68849" lon="4.93571">
        <ele>55.993009</ele>
        <time>2020-07-25T12:06:18.000Z</time>
      </trkpt>
      <trkpt lat="60.68858" lon="4.93565">
        <ele>55.804409</ele>
        <time>2020-07-25T12:06:20.005Z</time>
      </trkpt>
      <trkpt lat="60.68867" lon="4.93559">
        <ele>55.60611</ele>
        <time>2020-07-25T12:06:22.020Z</time>
      </trkpt>
      <trkpt lat="60.68877" lon="4.93555">
        <ele>55.395819</ele>
        <time>2020-07-25T12:06:23.994Z</time>
      </trkpt>
      <trkpt lat="60.68887" lon="4.93551">
        <ele>55.184323</ele>
        <time>2020-07-25T12:06:26.013Z</time>
      </trkpt>
      <trkpt lat="60.68897" lon="4.93547">
        <ele>54.984611</ele>
        <time>2020-07-25T12:06:27.996Z</time>
      </trkpt>
      <trkpt lat="60.68906" lon="4.93543">
        <ele>55.078296</ele>
        <time>2020-07-25T12:06:29.999Z</time>
      </trkpt>
      <trkpt lat="60.68918" lon="4.93539">
        <ele>55.572645</ele>
        <time>2020-07-25T12:06:32.997Z</time>
      </trkpt>
      <trkpt lat="60.68927" lon="4.93535">
        <ele>55.965144</ele>
        <time>2020-07-25T12:06:35.999Z</time>
      </trkpt>
      <trkpt lat="60.68936" lon="4.93532">
        <ele>56.338574</ele>
        <time>2020-07-25T12:06:38.994Z</time>
      </trkpt>
      <trkpt lat="60.68946" lon="4.93527">
        <ele>56.746089</ele>
        <time>2020-07-25T12:06:42.995Z</time>
      </trkpt>
      <trkpt lat="60.68956" lon="4.93524">
        <ele>57.183261</ele>
        <time>2020-07-25T12:06:46.989Z</time>
      </trkpt>
      <trkpt lat="60.68967" lon="4.9352">
        <ele>57.628654</ele>
        <time>2020-07-25T12:06:52.000Z</time>
      </trkpt>
      <trkpt lat="60.68977" lon="4.93515">
        <ele>58.025717</ele>
        <time>2020-07-25T12:06:56.982Z</time>
      </trkpt>
      <trkpt lat="60.68986" lon="4.93511">
        <ele>58.401392</ele>
        <time>2020-07-25T12:07:01.005Z</time>
      </trkpt>
      <trkpt lat="60.68995" lon="4.93509">
        <ele>58.800342</ele>
        <time>2020-07-25T12:07:05.023Z</time>
      </trkpt>
      <trkpt lat="60.69005" lon="4.93507">
        <ele>59.194605</ele>
        <time>2020-07-25T12:07:09.984Z</time>
      </trkpt>
      <trkpt lat="60.69014" lon="4.93503">
        <ele>59.592361</ele>
        <time>2020-07-25T12:07:15.032Z</time>
      </trkpt>
      <trkpt lat="60.69023" lon="4.93499">
        <ele>59.971259</ele>
        <time>2020-07-25T12:07:19.985Z</time>
      </trkpt>
      <trkpt lat="60.69033" lon="4.93495">
        <ele>60.354171</ele>
        <time>2020-07-25T12:07:24.994Z</time>
      </trkpt>
      <trkpt lat="60.69043" lon="4.93491">
        <ele>60.783913</ele>
        <time>2020-07-25T12:07:30.029Z</time>
      </trkpt>
      <trkpt lat="60.69053" lon="4.93488">
        <ele>61.212717</ele>
        <time>2020-07-25T12:07:35.018Z</time>
      </trkpt>
      <trkpt lat="60.69063" lon="4.93487">
        <ele>61.614934</ele>
        <time>2020-07-25T12:07:40.042Z</time>
      </trkpt>
      <trkpt lat="60.69073" lon="4.93485">
        <ele>62.004758</ele>
        <time>2020-07-25T12:07:44.989Z</time>
      </trkpt>
      <trkpt lat="60.69084" lon="4.93484">
        <ele>62.500896</ele>
        <time>2020-07-25T12:07:50.026Z</time>
      </trkpt>
      <trkpt lat="60.69094" lon="4.93484">
        <ele>62.979368</ele>
        <time>2020-07-25T12:07:53.999Z</time>
      </trkpt>
      <trkpt lat="60.69105" lon="4.93483">
        <ele>63.496243</ele>
        <time>2020-07-25T12:07:58.005Z</time>
      </trkpt>
      <trkpt lat="60.69115" lon="4.93481">
        <ele>63.991284</ele>
        <time>2020-07-25T12:08:02.001Z</time>
      </trkpt>
      <trkpt lat="60.69126" lon="4.93481">
        <ele>64.498463</ele>
        <time>2020-07-25T12:08:06.006Z</time>
      </trkpt>
      <trkpt lat="60.69136" lon="4.93478">
        <ele>65.000371</ele>
        <time>2020-07-25T12:08:09.998Z</time>
      </trkpt>
      <trkpt lat="60.69145" lon="4.93477">
        <ele>65.445843</ele>
        <time>2020-07-25T12:08:14.012Z</time>
      </trkpt>
      <trkpt lat="60.69156" lon="4.93478">
        <ele>65.938685</ele>
        <time>2020-07-25T12:08:19.045Z</time>
      </trkpt>
      <trkpt lat="60.69167" lon="4.93478">
        <ele>66.464997</ele>
        <time>2020-07-25T12:08:24.016Z</time>
      </trkpt>
      <trkpt lat="60.69177" lon="4.93476">
        <ele>66.978159</ele>
        <time>2020-07-25T12:08:28.995Z</time>
      </trkpt>
      <trkpt lat="60.69188" lon="4.93475">
        <ele>67.500323</ele>
        <time>2020-07-25T12:08:34.001Z</time>
      </trkpt>
      <trkpt lat="60.69198" lon="4.93474">
        <ele>67.988919</ele>
        <time>2020-07-25T12:08:39.011Z</time>
      </trkpt>
      <trkpt lat="60.69209" lon="4.93473">
        <ele>68.49223</ele>
        <time>2020-07-25T12:08:44.012Z</time>
      </trkpt>
      <trkpt lat="60.69219" lon="4.93471">
        <ele>69.001562</ele>
        <time>2020-07-25T12:08:48.983Z</time>
      </trkpt>
      <trkpt lat="60.6923" lon="4.93466">
        <ele>69.51587</ele>
        <time>2020-07-25T12:08:53.979Z</time>
      </trkpt>
      <trkpt lat="60.69239" lon="4.93463">
        <ele>69.952962</ele>
        <time>2020-07-25T12:08:57.995Z</time>
      </trkpt>
      <trkpt lat="60.69248" lon="4.93457">
        <ele>70.410959</ele>
        <time>2020-07-25T12:09:01.985Z</time>
      </trkpt>
      <trkpt lat="60.69257" lon="4.93452">
        <ele>70.845766</ele>
        <time>2020-07-25T12:09:06.015Z</time>
      </trkpt>
      <trkpt lat="60.69267" lon="4.93445">
        <ele>70.784756</ele>
        <time>2020-07-25T12:09:09.974Z</time>
      </trkpt>
      <trkpt lat="60.69278" lon="4.93438">
        <ele>70.719303</ele>
        <time>2020-07-25T12:09:14.017Z</time>
      </trkpt>
      <trkpt lat="60.69288" lon="4.9343">
        <ele>70.653908</ele>
        <time>2020-07-25T12:09:18.025Z</time>
      </trkpt>
      <trkpt lat="60.69298" lon="4.93423">
        <ele>70.590864</ele>
        <time>2020-07-25T12:09:22.001Z</time>
      </trkpt>
      <trkpt lat="60.69309" lon="4.93415">
        <ele>70.524955</ele>
        <time>2020-07-25T12:09:25.996Z</time>
      </trkpt>
      <trkpt lat="60.69319" lon="4.93409">
        <ele>70.462003</ele>
        <time>2020-07-25T12:09:29.996Z</time>
      </trkpt>
      <trkpt lat="60.6933" lon="4.93401">
        <ele>70.394889</ele>
        <time>2020-07-25T12:09:33.987Z</time>
      </trkpt>
      <trkpt lat="60.69339" lon="4.93395">
        <ele>70.336115</ele>
        <time>2020-07-25T12:09:37.001Z</time>
      </trkpt>
      <trkpt lat="60.6935" lon="4.93387">
        <ele>70.267332</ele>
        <time>2020-07-25T12:09:39.984Z</time>
      </trkpt>
      <trkpt lat="60.69363" lon="4.93378">
        <ele>70.18863</ele>
        <time>2020-07-25T12:09:43.037Z</time>
      </trkpt>
      <trkpt lat="60.69372" lon="4.93372">
        <ele>70.133194</ele>
        <time>2020-07-25T12:09:44.996Z</time>
      </trkpt>
      <trkpt lat="60.69382" lon="4.93365">
        <ele>70.073862</ele>
        <time>2020-07-25T12:09:46.998Z</time>
      </trkpt>
      <trkpt lat="60.69391" lon="4.93359">
        <ele>70.013972</ele>
        <time>2020-07-25T12:09:48.986Z</time>
      </trkpt>
      <trkpt lat="60.69401" lon="4.93353">
        <ele>69.954902</ele>
        <time>2020-07-25T12:09:51.026Z</time>
      </trkpt>
      <trkpt lat="60.69411" lon="4.93346">
        <ele>69.893716</ele>
        <time>2020-07-25T12:09:53.002Z</time>
      </trkpt>
      <trkpt lat="60.69422" lon="4.93339">
        <ele>69.824933</ele>
        <time>2020-07-25T12:09:54.992Z</time>
      </trkpt>
      <trkpt lat="60.69434" lon="4.93331">
        <ele>69.708104</ele>
        <time>2020-07-25T12:09:56.985Z</time>
      </trkpt>
      <trkpt lat="60.69446" lon="4.93323">
        <ele>69.545698</ele>
        <time>2020-07-25T12:09:59.003Z</time>
      </trkpt>
      <trkpt lat="60.69458" lon="4.93313">
        <ele>69.37489</ele>
        <time>2020-07-25T12:10:01.008Z</time>
      </trkpt>
      <trkpt lat="60.69471" lon="4.93302">
        <ele>69.199386</ele>
        <time>2020-07-25T12:10:03.014Z</time>
      </trkpt>
      <trkpt lat="60.69483" lon="4.93291">
        <ele>69.02737</ele>
        <time>2020-07-25T12:10:04.992Z</time>
      </trkpt>
      <trkpt lat="60.69496" lon="4.9328">
        <ele>68.857512</ele>
        <time>2020-07-25T12:10:07.014Z</time>
      </trkpt>
      <trkpt lat="60.69507" lon="4.9327">
        <ele>68.705068</ele>
        <time>2020-07-25T12:10:09.029Z</time>
      </trkpt>
      <trkpt lat="60.69516" lon="4.9326">
        <ele>68.573888</ele>
        <time>2020-07-25T12:10:11.021Z</time>
      </trkpt>
      <trkpt lat="60.69525" lon="4.9325">
        <ele>68.438194</ele>
        <time>2020-07-25T12:10:12.994Z</time>
      </trkpt>
      <trkpt lat="60.69534" lon="4.93239">
        <ele>68.309499</ele>
        <time>2020-07-25T12:10:14.984Z</time>
      </trkpt>
      <trkpt lat="60.69543" lon="4.93228">
        <ele>68.171665</ele>
        <time>2020-07-25T12:10:17.031Z</time>
      </trkpt>
      <trkpt lat="60.69553" lon="4.93218">
        <ele>68.024335</ele>
        <time>2020-07-25T12:10:18.999Z</time>
      </trkpt>
      <trkpt lat="60.69562" lon="4.93209">
        <ele>67.899331</ele>
        <time>2020-07-25T12:10:20.987Z</time>
      </trkpt>
      <trkpt lat="60.69574" lon="4.93199">
        <ele>67.732984</ele>
        <time>2020-07-25T12:10:24.020Z</time>
      </trkpt>
      <trkpt lat="60.69583" lon="4.93189">
        <ele>67.604088</ele>
        <time>2020-07-25T12:10:26.000Z</time>
      </trkpt>
      <trkpt lat="60.69593" lon="4.93179">
        <ele>67.449653</ele>
        <time>2020-07-25T12:10:28.034Z</time>
      </trkpt>
      <trkpt lat="60.69602" lon="4.93168">
        <ele>67.257685</ele>
        <time>2020-07-25T12:10:30.022Z</time>
      </trkpt>
      <trkpt lat="60.69611" lon="4.93158">
        <ele>67.06751</ele>
        <time>2020-07-25T12:10:31.987Z</time>
      </trkpt>
      <trkpt lat="60.6962" lon="4.93148">
        <ele>66.859894</ele>
        <time>2020-07-25T12:10:34.004Z</time>
      </trkpt>
      <trkpt lat="60.69631" lon="4.93138">
        <ele>66.646376</ele>
        <time>2020-07-25T12:10:35.983Z</time>
      </trkpt>
      <trkpt lat="60.69641" lon="4.93128">
        <ele>66.428911</ele>
        <time>2020-07-25T12:10:37.986Z</time>
      </trkpt>
      <trkpt lat="60.69651" lon="4.93118">
        <ele>66.224651</ele>
        <time>2020-07-25T12:10:39.988Z</time>
      </trkpt>
      <trkpt lat="60.69662" lon="4.93107">
        <ele>66.002464</ele>
        <time>2020-07-25T12:10:41.987Z</time>
      </trkpt>
      <trkpt lat="60.69672" lon="4.93094">
        <ele>65.774468</ele>
        <time>2020-07-25T12:10:43.984Z</time>
      </trkpt>
      <trkpt lat="60.69682" lon="4.93081">
        <ele>65.54682</ele>
        <time>2020-07-25T12:10:45.991Z</time>
      </trkpt>
      <trkpt lat="60.69693" lon="4.93069">
        <ele>65.314626</ele>
        <time>2020-07-25T12:10:47.994Z</time>
      </trkpt>
      <trkpt lat="60.69704" lon="4.93055">
        <ele>65.078359</ele>
        <time>2020-07-25T12:10:50.011Z</time>
      </trkpt>
      <trkpt lat="60.69715" lon="4.9304">
        <ele>64.822982</ele>
        <time>2020-07-25T12:10:52.020Z</time>
      </trkpt>
      <trkpt lat="60.69727" lon="4.93022">
        <ele>64.551186</ele>
        <time>2020-07-25T12:10:53.983Z</time>
      </trkpt>
      <trkpt lat="60.69739" lon="4.93001">
        <ele>64.257729</ele>
        <time>2020-07-25T12:10:56.002Z</time>
      </trkpt>
      <trkpt lat="60.69751" lon="4.92981">
        <ele>63.941992</ele>
        <time>2020-07-25T12:10:58.001Z</time>
      </trkpt>
      <trkpt lat="60.69764" lon="4.92961">
        <ele>63.619534</ele>
        <time>2020-07-25T12:10:59.995Z</time>
      </trkpt>
      <trkpt lat="60.69777" lon="4.92944">
        <ele>63.301384</ele>
        <time>2020-07-25T12:11:01.981Z</time>
      </trkpt>
      <trkpt lat="60.6979" lon="4.92926">
        <ele>62.974081</ele>
        <time>2020-07-25T12:11:04.009Z</time>
      </trkpt>
      <trkpt lat="60.69804" lon="4.9291">
        <ele>62.650059</ele>
        <time>2020-07-25T12:11:05.984Z</time>
      </trkpt>
      <trkpt lat="60.69818" lon="4.92895">
        <ele>62.322823</ele>
        <time>2020-07-25T12:11:08.003Z</time>
      </trkpt>
      <trkpt lat="60.69834" lon="4.92882">
        <ele>61.986038</ele>
        <time>2020-07-25T12:11:10.016Z</time>
      </trkpt>
      <trkpt lat="60.69849" lon="4.92869">
        <ele>61.639048</ele>
        <time>2020-07-25T12:11:11.984Z</time>
      </trkpt>
      <trkpt lat="60.69866" lon="4.92857">
        <ele>61.28512</ele>
        <time>2020-07-25T12:11:13.984Z</time>
      </trkpt>
      <trkpt lat="60.69882" lon="4.92847">
        <ele>60.935032</ele>
        <time>2020-07-25T12:11:15.986Z</time>
      </trkpt>
      <trkpt lat="60.69898" lon="4.92839">
        <ele>60.60151</ele>
        <time>2020-07-25T12:11:17.983Z</time>
      </trkpt>
      <trkpt lat="60.69913" lon="4.92832">
        <ele>60.613224</ele>
        <time>2020-07-25T12:11:19.984Z</time>
      </trkpt>
      <trkpt lat="60.69928" lon="4.92827">
        <ele>60.865517</ele>
        <time>2020-07-25T12:11:21.984Z</time>
      </trkpt>
      <trkpt lat="60.69941" lon="4.92824">
        <ele>61.084217</ele>
        <time>2020-07-25T12:11:23.988Z</time>
      </trkpt>
      <trkpt lat="60.69952" lon="4.92824">
        <ele>61.284856</ele>
        <time>2020-07-25T12:11:26.042Z</time>
      </trkpt>
      <trkpt lat="60.69962" lon="4.92824">
        <ele>61.447765</ele>
        <time>2020-07-25T12:11:28.008Z</time>
      </trkpt>
      <trkpt lat="60.69973" lon="4.92825">
        <ele>61.645308</ele>
        <time>2020-07-25T12:11:31.000Z</time>
      </trkpt>
      <trkpt lat="60.69983" lon="4.92828">
        <ele>61.804804</ele>
        <time>2020-07-25T12:11:33.986Z</time>
      </trkpt>
      <trkpt lat="60.69991" lon="4.92832">
        <ele>61.960541</ele>
        <time>2020-07-25T12:11:36.987Z</time>
      </trkpt>
      <trkpt lat="60.70002" lon="4.92841">
        <ele>62.152755</ele>
        <time>2020-07-25T12:11:41.016Z</time>
      </trkpt>
      <trkpt lat="60.70011" lon="4.92853">
        <ele>62.333886</ele>
        <time>2020-07-25T12:11:44.995Z</time>
      </trkpt>
      <trkpt lat="60.70018" lon="4.92863">
        <ele>62.492156</ele>
        <time>2020-07-25T12:11:48.020Z</time>
      </trkpt>
      <trkpt lat="60.70027" lon="4.92873">
        <ele>62.662099</ele>
        <time>2020-07-25T12:11:51.000Z</time>
      </trkpt>
      <trkpt lat="60.70036" lon="4.92884">
        <ele>62.843827</ele>
        <time>2020-07-25T12:11:54.012Z</time>
      </trkpt>
      <trkpt lat="60.70045" lon="4.92896">
        <ele>63.027642</ele>
        <time>2020-07-25T12:11:56.999Z</time>
      </trkpt>
      <trkpt lat="60.70053" lon="4.92906">
        <ele>63.187314</ele>
        <time>2020-07-25T12:12:00.000Z</time>
      </trkpt>
      <trkpt lat="60.7006" lon="4.92917">
        <ele>63.343207</ele>
        <time>2020-07-25T12:12:02.997Z</time>
      </trkpt>
      <trkpt lat="60.70069" lon="4.92931">
        <ele>63.533093</ele>
        <time>2020-07-25T12:12:06.985Z</time>
      </trkpt>
      <trkpt lat="60.70078" lon="4.92946">
        <ele>63.555596</ele>
        <time>2020-07-25T12:12:10.988Z</time>
      </trkpt>
      <trkpt lat="60.70085" lon="4.92956">
        <ele>63.566028</ele>
        <time>2020-07-25T12:12:14.018Z</time>
      </trkpt>
      <trkpt lat="60.70093" lon="4.92967">
        <ele>63.576615</ele>
        <time>2020-07-25T12:12:17.006Z</time>
      </trkpt>
      <trkpt lat="60.701" lon="4.92978">
        <ele>63.587088</ele>
        <time>2020-07-25T12:12:19.998Z</time>
      </trkpt>
      <trkpt lat="60.70109" lon="4.92994">
        <ele>63.600576</ele>
        <time>2020-07-25T12:12:24.011Z</time>
      </trkpt>
      <trkpt lat="60.70117" lon="4.93004">
        <ele>63.610911</ele>
        <time>2020-07-25T12:12:26.982Z</time>
      </trkpt>
      <trkpt lat="60.70125" lon="4.93014">
        <ele>63.62137</ele>
        <time>2020-07-25T12:12:29.995Z</time>
      </trkpt>
      <trkpt lat="60.70133" lon="4.93022">
        <ele>63.631843</ele>
        <time>2020-07-25T12:12:33.003Z</time>
      </trkpt>
      <trkpt lat="60.70142" lon="4.9303">
        <ele>63.643034</ele>
        <time>2020-07-25T12:12:35.994Z</time>
      </trkpt>
      <trkpt lat="60.70152" lon="4.93039">
        <ele>63.655735</ele>
        <time>2020-07-25T12:12:38.993Z</time>
      </trkpt>
      <trkpt lat="60.70164" lon="4.93049">
        <ele>63.670927</ele>
        <time>2020-07-25T12:12:42.008Z</time>
      </trkpt>
      <trkpt lat="60.70176" lon="4.93054">
        <ele>63.685112</ele>
        <time>2020-07-25T12:12:43.981Z</time>
      </trkpt>
      <trkpt lat="60.7019" lon="4.93056">
        <ele>63.701234</ele>
        <time>2020-07-25T12:12:45.997Z</time>
      </trkpt>
      <trkpt lat="60.70208" lon="4.9305">
        <ele>63.721468</ele>
        <time>2020-07-25T12:12:47.983Z</time>
      </trkpt>
      <trkpt lat="60.70217" lon="4.93044">
        <ele>63.732476</ele>
        <time>2020-07-25T12:12:48.987Z</time>
      </trkpt>
      <trkpt lat="60.70225" lon="4.93036">
        <ele>63.743292</ele>
        <time>2020-07-25T12:12:49.990Z</time>
      </trkpt>
      <trkpt lat="60.70234" lon="4.93028">
        <ele>63.563427</ele>
        <time>2020-07-25T12:12:51.016Z</time>
      </trkpt>
      <trkpt lat="60.70243" lon="4.93021">
        <ele>63.145352</ele>
        <time>2020-07-25T12:12:51.999Z</time>
      </trkpt>
      <trkpt lat="60.70252" lon="4.93017">
        <ele>62.737707</ele>
        <time>2020-07-25T12:12:52.996Z</time>
      </trkpt>
      <trkpt lat="60.7027" lon="4.93013">
        <ele>61.95575</ele>
        <time>2020-07-25T12:12:54.999Z</time>
      </trkpt>
      <trkpt lat="60.70287" lon="4.93014">
        <ele>61.204827</ele>
        <time>2020-07-25T12:12:57.003Z</time>
      </trkpt>
      <trkpt lat="60.70304" lon="4.93024">
        <ele>60.421765</ele>
        <time>2020-07-25T12:12:59.028Z</time>
      </trkpt>
      <trkpt lat="60.70311" lon="4.93034">
        <ele>60.008136</ele>
        <time>2020-07-25T12:12:59.979Z</time>
      </trkpt>
      <trkpt lat="60.7032" lon="4.93059">
        <ele>59.332275</ele>
        <time>2020-07-25T12:13:01.991Z</time>
      </trkpt>
      <trkpt lat="60.70327" lon="4.93086">
        <ele>58.695641</ele>
        <time>2020-07-25T12:13:03.988Z</time>
      </trkpt>
      <trkpt lat="60.70334" lon="4.93111">
        <ele>58.062831</ele>
        <time>2020-07-25T12:13:05.992Z</time>
      </trkpt>
      <trkpt lat="60.70341" lon="4.93136">
        <ele>57.444524</ele>
        <time>2020-07-25T12:13:08.013Z</time>
      </trkpt>
      <trkpt lat="60.70348" lon="4.93161">
        <ele>56.828627</ele>
        <time>2020-07-25T12:13:09.991Z</time>
      </trkpt>
      <trkpt lat="60.70354" lon="4.93184">
        <ele>56.255044</ele>
        <time>2020-07-25T12:13:11.980Z</time>
      </trkpt>
      <trkpt lat="60.70361" lon="4.93203">
        <ele>55.873667</ele>
        <time>2020-07-25T12:13:13.984Z</time>
      </trkpt>
      <trkpt lat="60.70371" lon="4.9322">
        <ele>56.373617</ele>
        <time>2020-07-25T12:13:16.004Z</time>
      </trkpt>
      <trkpt lat="60.70381" lon="4.93231">
        <ele>56.822743</ele>
        <time>2020-07-25T12:13:17.983Z</time>
      </trkpt>
      <trkpt lat="60.70389" lon="4.93239">
        <ele>57.19737</ele>
        <time>2020-07-25T12:13:19.988Z</time>
      </trkpt>
      <trkpt lat="60.70398" lon="4.93247">
        <ele>57.559865</ele>
        <time>2020-07-25T12:13:23.001Z</time>
      </trkpt>
      <trkpt lat="60.70406" lon="4.93258">
        <ele>57.956444</ele>
        <time>2020-07-25T12:13:28.974Z</time>
      </trkpt>
      <trkpt lat="60.70413" lon="4.93272">
        <ele>58.357878</ele>
        <time>2020-07-25T12:13:33.986Z</time>
      </trkpt>
      <trkpt lat="60.70419" lon="4.93287">
        <ele>58.734596</ele>
        <time>2020-07-25T12:13:40.026Z</time>
      </trkpt>
      <trkpt lat="60.70424" lon="4.93305">
        <ele>59.139392</ele>
        <time>2020-07-25T12:13:47.013Z</time>
      </trkpt>
      <trkpt lat="60.70423" lon="4.93325">
        <ele>59.52802</ele>
        <time>2020-07-25T12:13:53.992Z</time>
      </trkpt>
      <trkpt lat="60.70418" lon="4.93341">
        <ele>59.888253</ele>
        <time>2020-07-25T12:13:59.993Z</time>
      </trkpt>
      <trkpt lat="60.70413" lon="4.93357">
        <ele>60.252608</ele>
        <time>2020-07-25T12:14:05.996Z</time>
      </trkpt>
      <trkpt lat="60.70408" lon="4.93373">
        <ele>60.627798</ele>
        <time>2020-07-25T12:14:11.987Z</time>
      </trkpt>
      <trkpt lat="60.70403" lon="4.93389">
        <ele>61.022432</ele>
        <time>2020-07-25T12:14:19.017Z</time>
      </trkpt>
      <trkpt lat="60.70398" lon="4.93407">
        <ele>61.410585</ele>
        <time>2020-07-25T12:14:25.986Z</time>
      </trkpt>
      <trkpt lat="60.70397" lon="4.93425">
        <ele>61.76857</ele>
        <time>2020-07-25T12:14:32.009Z</time>
      </trkpt>
      <trkpt lat="60.70403" lon="4.93441">
        <ele>62.155397</ele>
        <time>2020-07-25T12:14:38.991Z</time>
      </trkpt>
      <trkpt lat="60.70412" lon="4.93443">
        <ele>62.539451</ele>
        <time>2020-07-25T12:14:46.976Z</time>
      </trkpt>
      <trkpt lat="60.70422" lon="4.93443">
        <ele>62.934071</ele>
        <time>2020-07-25T12:14:54.001Z</time>
      </trkpt>
      <trkpt lat="60.70432" lon="4.93447">
        <ele>62.985893</ele>
        <time>2020-07-25T12:15:00.997Z</time>
      </trkpt>
      <trkpt lat="60.70441" lon="4.93455">
        <ele>62.997924</ele>
        <time>2020-07-25T12:15:07.999Z</time>
      </trkpt>
      <trkpt lat="60.7045" lon="4.9346">
        <ele>63.009101</ele>
        <time>2020-07-25T12:15:15.000Z</time>
      </trkpt>
      <trkpt lat="60.70458" lon="4.93472">
        <ele>63.02075</ele>
        <time>2020-07-25T12:15:22.019Z</time>
      </trkpt>
      <trkpt lat="60.70467" lon="4.93486">
        <ele>63.033929</ele>
        <time>2020-07-25T12:15:28.016Z</time>
      </trkpt>
      <trkpt lat="60.70474" lon="4.93507">
        <ele>63.049024</ele>
        <time>2020-07-25T12:15:32.007Z</time>
      </trkpt>
      <trkpt lat="60.70479" lon="4.93524">
        <ele>63.06</ele>
        <time>2020-07-25T12:15:33.988Z</time>
      </trkpt>
      <trkpt lat="60.70484" lon="4.93542">
        <ele>63.071873</ele>
        <time>2020-07-25T12:15:35.985Z</time>
      </trkpt>
      <trkpt lat="60.70489" lon="4.9356">
        <ele>63.083645</ele>
        <time>2020-07-25T12:15:37.993Z</time>
      </trkpt>
      <trkpt lat="60.70495" lon="4.93579">
        <ele>63.096705</ele>
        <time>2020-07-25T12:15:40.019Z</time>
      </trkpt>
      <trkpt lat="60.70501" lon="4.93603">
        <ele>63.112022</ele>
        <time>2020-07-25T12:15:41.989Z</time>
      </trkpt>
      <trkpt lat="60.70507" lon="4.93629">
        <ele>63.128685</ele>
        <time>2020-07-25T12:15:43.989Z</time>
      </trkpt>
      <trkpt lat="60.70511" lon="4.93656">
        <ele>63.145006</ele>
        <time>2020-07-25T12:15:46.045Z</time>
      </trkpt>
      <trkpt lat="60.70514" lon="4.93679">
        <ele>63.158659</ele>
        <time>2020-07-25T12:15:47.979Z</time>
      </trkpt>
      <trkpt lat="60.70516" lon="4.937">
        <ele>63.171025</ele>
        <time>2020-07-25T12:15:49.986Z</time>
      </trkpt>
      <trkpt lat="60.70518" lon="4.9372">
        <ele>63.183084</ele>
        <time>2020-07-25T12:15:51.975Z</time>
      </trkpt>
      <trkpt lat="60.7052" lon="4.93741">
        <ele>63.461907</ele>
        <time>2020-07-25T12:15:54.021Z</time>
      </trkpt>
      <trkpt lat="60.70521" lon="4.93759">
        <ele>63.849915</ele>
        <time>2020-07-25T12:15:55.983Z</time>
      </trkpt>
      <trkpt lat="60.70521" lon="4.93781">
        <ele>64.311735</ele>
        <time>2020-07-25T12:15:58.987Z</time>
      </trkpt>
      <trkpt lat="60.70521" lon="4.93802">
        <ele>64.74885</ele>
        <time>2020-07-25T12:16:03.032Z</time>
      </trkpt>
      <trkpt lat="60.7052" lon="4.93825">
        <ele>65.221164</ele>
        <time>2020-07-25T12:16:07.986Z</time>
      </trkpt>
      <trkpt lat="60.7052" lon="4.93844">
        <ele>65.614269</ele>
        <time>2020-07-25T12:16:11.993Z</time>
      </trkpt>
      <trkpt lat="60.7052" lon="4.93866">
        <ele>66.069851</ele>
        <time>2020-07-25T12:16:16.987Z</time>
      </trkpt>
      <trkpt lat="60.70521" lon="4.93885">
        <ele>66.476236</ele>
        <time>2020-07-25T12:16:22.022Z</time>
      </trkpt>
      <trkpt lat="60.70519" lon="4.93907">
        <ele>66.930618</ele>
        <time>2020-07-25T12:16:28.024Z</time>
      </trkpt>
      <trkpt lat="60.70517" lon="4.93927">
        <ele>67.356932</ele>
        <time>2020-07-25T12:16:33.016Z</time>
      </trkpt>
      <trkpt lat="60.70516" lon="4.93947">
        <ele>67.78127</ele>
        <time>2020-07-25T12:16:38.024Z</time>
      </trkpt>
      <trkpt lat="60.70516" lon="4.93968">
        <ele>68.218075</ele>
        <time>2020-07-25T12:16:43.000Z</time>
      </trkpt>
      <trkpt lat="60.70514" lon="4.93987">
        <ele>68.601953</ele>
        <time>2020-07-25T12:16:46.973Z</time>
      </trkpt>
      <trkpt lat="60.70513" lon="4.94007">
        <ele>69.040571</ele>
        <time>2020-07-25T12:16:51.003Z</time>
      </trkpt>
      <trkpt lat="60.70511" lon="4.94028">
        <ele>69.467193</ele>
        <time>2020-07-25T12:16:55.008Z</time>
      </trkpt>
      <trkpt lat="60.70509" lon="4.94048">
        <ele>69.898752</ele>
        <time>2020-07-25T12:16:58.973Z</time>
      </trkpt>
      <trkpt lat="60.70507" lon="4.94067">
        <ele>70.307949</ele>
        <time>2020-07-25T12:17:03.023Z</time>
      </trkpt>
      <trkpt lat="60.70505" lon="4.94089">
        <ele>70.77541</ele>
        <time>2020-07-25T12:17:08.004Z</time>
      </trkpt>
      <trkpt lat="60.70503" lon="4.94111">
        <ele>71.093612</ele>
        <time>2020-07-25T12:17:12.994Z</time>
      </trkpt>
      <trkpt lat="60.70501" lon="4.94131">
        <ele>71.358548</ele>
        <time>2020-07-25T12:17:16.988Z</time>
      </trkpt>
      <trkpt lat="60.70501" lon="4.94154">
        <ele>71.662069</ele>
        <time>2020-07-25T12:17:21.013Z</time>
      </trkpt>
      <trkpt lat="60.705" lon="4.94177">
        <ele>71.96151</ele>
        <time>2020-07-25T12:17:25.008Z</time>
      </trkpt>
      <trkpt lat="60.70501" lon="4.94198">
        <ele>72.243024</ele>
        <time>2020-07-25T12:17:28.995Z</time>
      </trkpt>
      <trkpt lat="60.70501" lon="4.9422">
        <ele>72.527679</ele>
        <time>2020-07-25T12:17:32.984Z</time>
      </trkpt>
      <trkpt lat="60.705" lon="4.94239">
        <ele>72.787979</ele>
        <time>2020-07-25T12:17:37.013Z</time>
      </trkpt>
      <trkpt lat="60.70497" lon="4.9426">
        <ele>73.063833</ele>
        <time>2020-07-25T12:17:40.994Z</time>
      </trkpt>
      <trkpt lat="60.70495" lon="4.9428">
        <ele>73.333921</ele>
        <time>2020-07-25T12:17:45.002Z</time>
      </trkpt>
      <trkpt lat="60.70492" lon="4.94299">
        <ele>73.594149</ele>
        <time>2020-07-25T12:17:48.986Z</time>
      </trkpt>
      <trkpt lat="60.70488" lon="4.94319">
        <ele>73.888659</ele>
        <time>2020-07-25T12:17:52.998Z</time>
      </trkpt>
      <trkpt lat="60.70486" lon="4.9434">
        <ele>74.170278</ele>
        <time>2020-07-25T12:17:56.986Z</time>
      </trkpt>
      <trkpt lat="60.70484" lon="4.9436">
        <ele>74.432607</ele>
        <time>2020-07-25T12:18:00.983Z</time>
      </trkpt>
      <trkpt lat="60.70482" lon="4.94378">
        <ele>74.67904</ele>
        <time>2020-07-25T12:18:05.000Z</time>
      </trkpt>
      <trkpt lat="60.7048" lon="4.94399">
        <ele>74.963557</ele>
        <time>2020-07-25T12:18:10.014Z</time>
      </trkpt>
      <trkpt lat="60.70478" lon="4.94417">
        <ele>75.210656</ele>
        <time>2020-07-25T12:18:14.970Z</time>
      </trkpt>
      <trkpt lat="60.70475" lon="4.94437">
        <ele>75.479727</ele>
        <time>2020-07-25T12:18:20.978Z</time>
      </trkpt>
      <trkpt lat="60.70473" lon="4.94455">
        <ele>75.707601</ele>
        <time>2020-07-25T12:18:25.993Z</time>
      </trkpt>
      <trkpt lat="60.70472" lon="4.94475">
        <ele>75.853297</ele>
        <time>2020-07-25T12:18:30.980Z</time>
      </trkpt>
      <trkpt lat="60.70471" lon="4.94496">
        <ele>76.016464</ele>
        <time>2020-07-25T12:18:36.000Z</time>
      </trkpt>
      <trkpt lat="60.70472" lon="4.94516">
        <ele>76.164157</ele>
        <time>2020-07-25T12:18:40.007Z</time>
      </trkpt>
      <trkpt lat="60.70474" lon="4.94534">
        <ele>76.310083</ele>
        <time>2020-07-25T12:18:44.024Z</time>
      </trkpt>
      <trkpt lat="60.70477" lon="4.94553">
        <ele>76.461447</ele>
        <time>2020-07-25T12:18:47.990Z</time>
      </trkpt>
      <trkpt lat="60.70483" lon="4.94571">
        <ele>76.62792</ele>
        <time>2020-07-25T12:18:51.982Z</time>
      </trkpt>
      <trkpt lat="60.7049" lon="4.94589">
        <ele>76.796601</ele>
        <time>2020-07-25T12:18:56.989Z</time>
      </trkpt>
      <trkpt lat="60.70498" lon="4.94607">
        <ele>76.977335</ele>
        <time>2020-07-25T12:19:00.988Z</time>
      </trkpt>
      <trkpt lat="60.70504" lon="4.94623">
        <ele>77.133567</ele>
        <time>2020-07-25T12:19:04.004Z</time>
      </trkpt>
      <trkpt lat="60.7051" lon="4.94639">
        <ele>77.284479</ele>
        <time>2020-07-25T12:19:06.975Z</time>
      </trkpt>
      <trkpt lat="60.70516" lon="4.94655">
        <ele>77.439182</ele>
        <time>2020-07-25T12:19:09.987Z</time>
      </trkpt>
      <trkpt lat="60.70522" lon="4.9467">
        <ele>77.590099</ele>
        <time>2020-07-25T12:19:12.989Z</time>
      </trkpt>
      <trkpt lat="60.7053" lon="4.94687">
        <ele>77.771291</ele>
        <time>2020-07-25T12:19:15.989Z</time>
      </trkpt>
      <trkpt lat="60.70537" lon="4.94702">
        <ele>77.921706</ele>
        <time>2020-07-25T12:19:17.983Z</time>
      </trkpt>
      <trkpt lat="60.70543" lon="4.94717">
        <ele>78.07117</ele>
        <time>2020-07-25T12:19:19.977Z</time>
      </trkpt>
      <trkpt lat="60.7055" lon="4.9473">
        <ele>78.215581</ele>
        <time>2020-07-25T12:19:21.996Z</time>
      </trkpt>
      <trkpt lat="60.70559" lon="4.94749">
        <ele>78.40868</ele>
        <time>2020-07-25T12:19:25.028Z</time>
      </trkpt>
      <trkpt lat="60.70565" lon="4.94762">
        <ele>78.633651</ele>
        <time>2020-07-25T12:19:27.002Z</time>
      </trkpt>
      <trkpt lat="60.70572" lon="4.94776">
        <ele>78.921492</ele>
        <time>2020-07-25T12:19:29.014Z</time>
      </trkpt>
      <trkpt lat="60.70579" lon="4.94791">
        <ele>79.237381</ele>
        <time>2020-07-25T12:19:30.992Z</time>
      </trkpt>
      <trkpt lat="60.70587" lon="4.94809">
        <ele>79.584502</ele>
        <time>2020-07-25T12:19:32.999Z</time>
      </trkpt>
      <trkpt lat="60.70596" lon="4.94828">
        <ele>79.969098</ele>
        <time>2020-07-25T12:19:35.008Z</time>
      </trkpt>
      <trkpt lat="60.70604" lon="4.94848">
        <ele>80.344008</ele>
        <time>2020-07-25T12:19:36.983Z</time>
      </trkpt>
      <trkpt lat="60.70612" lon="4.94865">
        <ele>80.682935</ele>
        <time>2020-07-25T12:19:38.989Z</time>
      </trkpt>
      <trkpt lat="60.7062" lon="4.94883">
        <ele>81.032493</ele>
        <time>2020-07-25T12:19:41.992Z</time>
      </trkpt>
      <trkpt lat="60.70628" lon="4.94895">
        <ele>81.329745</ele>
        <time>2020-07-25T12:19:45.993Z</time>
      </trkpt>
      <trkpt lat="60.70637" lon="4.94905">
        <ele>81.627396</ele>
        <time>2020-07-25T12:19:50.011Z</time>
      </trkpt>
      <trkpt lat="60.70646" lon="4.94915">
        <ele>81.927046</ele>
        <time>2020-07-25T12:19:53.991Z</time>
      </trkpt>
      <trkpt lat="60.70654" lon="4.94924">
        <ele>82.210414</ele>
        <time>2020-07-25T12:19:58.010Z</time>
      </trkpt>
      <trkpt lat="60.70662" lon="4.94932">
        <ele>82.48106</ele>
        <time>2020-07-25T12:20:01.980Z</time>
      </trkpt>
      <trkpt lat="60.70671" lon="4.9494">
        <ele>82.777501</ele>
        <time>2020-07-25T12:20:06.992Z</time>
      </trkpt>
      <trkpt lat="60.70679" lon="4.9495">
        <ele>83.050247</ele>
        <time>2020-07-25T12:20:12.008Z</time>
      </trkpt>
      <trkpt lat="60.70687" lon="4.94957">
        <ele>83.318376</ele>
        <time>2020-07-25T12:20:16.992Z</time>
      </trkpt>
      <trkpt lat="60.70696" lon="4.94969">
        <ele>83.610591</ele>
        <time>2020-07-25T12:20:21.981Z</time>
      </trkpt>
      <trkpt lat="60.70704" lon="4.94982">
        <ele>83.889414</ele>
        <time>2020-07-25T12:20:26.996Z</time>
      </trkpt>
      <trkpt lat="60.7071" lon="4.94998">
        <ele>84.121876</ele>
        <time>2020-07-25T12:20:31.978Z</time>
      </trkpt>
      <trkpt lat="60.70716" lon="4.95017">
        <ele>84.367623</ele>
        <time>2020-07-25T12:20:37.014Z</time>
      </trkpt>
      <trkpt lat="60.70721" lon="4.95033">
        <ele>84.580742</ele>
        <time>2020-07-25T12:20:42.011Z</time>
      </trkpt>
      <trkpt lat="60.70726" lon="4.9505">
        <ele>84.795827</ele>
        <time>2020-07-25T12:20:46.996Z</time>
      </trkpt>
      <trkpt lat="60.70731" lon="4.9507">
        <ele>85.041261</ele>
        <time>2020-07-25T12:20:52.992Z</time>
      </trkpt>
      <trkpt lat="60.70736" lon="4.95088">
        <ele>85.267848</ele>
        <time>2020-07-25T12:20:58.011Z</time>
      </trkpt>
      <trkpt lat="60.70738" lon="4.95109">
        <ele>85.50229</ele>
        <time>2020-07-25T12:21:02.998Z</time>
      </trkpt>
      <trkpt lat="60.70741" lon="4.95128">
        <ele>85.721283</ele>
        <time>2020-07-25T12:21:09.007Z</time>
      </trkpt>
      <trkpt lat="60.70743" lon="4.95149">
        <ele>85.95846</ele>
        <time>2020-07-25T12:21:14.991Z</time>
      </trkpt>
      <trkpt lat="60.70746" lon="4.95169">
        <ele>86.18743</ele>
        <time>2020-07-25T12:21:19.990Z</time>
      </trkpt>
      <trkpt lat="60.70748" lon="4.95188">
        <ele>86.403894</ele>
        <time>2020-07-25T12:21:24.984Z</time>
      </trkpt>
      <trkpt lat="60.7075" lon="4.95209">
        <ele>86.640931</ele>
        <time>2020-07-25T12:21:30.000Z</time>
      </trkpt>
      <trkpt lat="60.70752" lon="4.95229">
        <ele>86.863446</ele>
        <time>2020-07-25T12:21:35.000Z</time>
      </trkpt>
      <trkpt lat="60.70754" lon="4.95249">
        <ele>87.095766</ele>
        <time>2020-07-25T12:21:39.985Z</time>
      </trkpt>
      <trkpt lat="60.70756" lon="4.9527">
        <ele>87.328179</ele>
        <time>2020-07-25T12:21:44.982Z</time>
      </trkpt>
      <trkpt lat="60.70758" lon="4.95291">
        <ele>87.564276</ele>
        <time>2020-07-25T12:21:50.994Z</time>
      </trkpt>
      <trkpt lat="60.70762" lon="4.95312">
        <ele>87.801675</ele>
        <time>2020-07-25T12:21:56.000Z</time>
      </trkpt>
      <trkpt lat="60.70765" lon="4.95334">
        <ele>87.43282</ele>
        <time>2020-07-25T12:22:00.015Z</time>
      </trkpt>
      <trkpt lat="60.70771" lon="4.95357">
        <ele>86.833317</ele>
        <time>2020-07-25T12:22:03.014Z</time>
      </trkpt>
      <trkpt lat="60.70778" lon="4.95374">
        <ele>86.322679</ele>
        <time>2020-07-25T12:22:05.011Z</time>
      </trkpt>
      <trkpt lat="60.70786" lon="4.95394">
        <ele>85.743807</ele>
        <time>2020-07-25T12:22:06.995Z</time>
      </trkpt>
      <trkpt lat="60.70794" lon="4.95416">
        <ele>85.116872</ele>
        <time>2020-07-25T12:22:08.997Z</time>
      </trkpt>
      <trkpt lat="60.70802" lon="4.95437">
        <ele>84.532348</ele>
        <time>2020-07-25T12:22:10.997Z</time>
      </trkpt>
      <trkpt lat="60.70808" lon="4.95462">
        <ele>83.884898</ele>
        <time>2020-07-25T12:22:12.990Z</time>
      </trkpt>
      <trkpt lat="60.70812" lon="4.95493">
        <ele>83.176147</ele>
        <time>2020-07-25T12:22:14.985Z</time>
      </trkpt>
      <trkpt lat="60.7081" lon="4.95529">
        <ele>82.350768</ele>
        <time>2020-07-25T12:22:16.988Z</time>
      </trkpt>
      <trkpt lat="60.70807" lon="4.95546">
        <ele>81.930064</ele>
        <time>2020-07-25T12:22:17.996Z</time>
      </trkpt>
      <trkpt lat="60.70802" lon="4.95563">
        <ele>81.487316</ele>
        <time>2020-07-25T12:22:18.997Z</time>
      </trkpt>
      <trkpt lat="60.70797" lon="4.95582">
        <ele>81.015019</ele>
        <time>2020-07-25T12:22:19.983Z</time>
      </trkpt>
      <trkpt lat="60.70794" lon="4.95601">
        <ele>80.535618</ele>
        <time>2020-07-25T12:22:21.010Z</time>
      </trkpt>
      <trkpt lat="60.70791" lon="4.95621">
        <ele>80.058646</ele>
        <time>2020-07-25T12:22:21.980Z</time>
      </trkpt>
      <trkpt lat="60.70789" lon="4.95642">
        <ele>79.588537</ele>
        <time>2020-07-25T12:22:22.995Z</time>
      </trkpt>
      <trkpt lat="60.70787" lon="4.95661">
        <ele>79.101755</ele>
        <time>2020-07-25T12:22:23.991Z</time>
      </trkpt>
      <trkpt lat="60.70785" lon="4.95694">
        <ele>78.210493</ele>
        <time>2020-07-25T12:22:26.024Z</time>
      </trkpt>
      <trkpt lat="60.70781" lon="4.95729">
        <ele>77.277586</ele>
        <time>2020-07-25T12:22:27.991Z</time>
      </trkpt>
      <trkpt lat="60.70779" lon="4.95748">
        <ele>76.7858</ele>
        <time>2020-07-25T12:22:29.024Z</time>
      </trkpt>
      <trkpt lat="60.70777" lon="4.95768">
        <ele>76.26123</ele>
        <time>2020-07-25T12:22:30.007Z</time>
      </trkpt>
      <trkpt lat="60.70776" lon="4.95788">
        <ele>75.720771</ele>
        <time>2020-07-25T12:22:30.978Z</time>
      </trkpt>
      <trkpt lat="60.70774" lon="4.95808">
        <ele>75.188007</ele>
        <time>2020-07-25T12:22:31.982Z</time>
      </trkpt>
      <trkpt lat="60.70772" lon="4.95828">
        <ele>74.671584</ele>
        <time>2020-07-25T12:22:32.998Z</time>
      </trkpt>
      <trkpt lat="60.70771" lon="4.95847">
        <ele>74.173967</ele>
        <time>2020-07-25T12:22:34.009Z</time>
      </trkpt>
      <trkpt lat="60.7077" lon="4.95866">
        <ele>73.669306</ele>
        <time>2020-07-25T12:22:34.978Z</time>
      </trkpt>
      <trkpt lat="60.70768" lon="4.95885">
        <ele>73.170093</ele>
        <time>2020-07-25T12:22:36.049Z</time>
      </trkpt>
      <trkpt lat="60.70766" lon="4.95903">
        <ele>72.667365</ele>
        <time>2020-07-25T12:22:37.001Z</time>
      </trkpt>
      <trkpt lat="60.70762" lon="4.95921">
        <ele>72.162775</ele>
        <time>2020-07-25T12:22:38.004Z</time>
      </trkpt>
      <trkpt lat="60.70757" lon="4.95939">
        <ele>71.627208</ele>
        <time>2020-07-25T12:22:39.029Z</time>
      </trkpt>
      <trkpt lat="60.7075" lon="4.95957">
        <ele>71.046976</ele>
        <time>2020-07-25T12:22:39.989Z</time>
      </trkpt>
      <trkpt lat="60.70743" lon="4.95974">
        <ele>70.443403</ele>
        <time>2020-07-25T12:22:41.008Z</time>
      </trkpt>
      <trkpt lat="60.70736" lon="4.95992">
        <ele>69.957884</ele>
        <time>2020-07-25T12:22:42.006Z</time>
      </trkpt>
      <trkpt lat="60.70731" lon="4.96011">
        <ele>70.090568</ele>
        <time>2020-07-25T12:22:42.986Z</time>
      </trkpt>
      <trkpt lat="60.70727" lon="4.96031">
        <ele>70.223285</ele>
        <time>2020-07-25T12:22:44.005Z</time>
      </trkpt>
      <trkpt lat="60.70725" lon="4.96053">
        <ele>70.359178</ele>
        <time>2020-07-25T12:22:45.021Z</time>
      </trkpt>
      <trkpt lat="60.70724" lon="4.96076">
        <ele>70.494097</ele>
        <time>2020-07-25T12:22:46.001Z</time>
      </trkpt>
      <trkpt lat="60.70723" lon="4.96096">
        <ele>70.617858</ele>
        <time>2020-07-25T12:22:47.022Z</time>
      </trkpt>
      <trkpt lat="60.70722" lon="4.96115">
        <ele>70.731564</ele>
        <time>2020-07-25T12:22:48.023Z</time>
      </trkpt>
      <trkpt lat="60.70717" lon="4.96146">
        <ele>70.927254</ele>
        <time>2020-07-25T12:22:49.991Z</time>
      </trkpt>
      <trkpt lat="60.7071" lon="4.96166">
        <ele>71.079971</ele>
        <time>2020-07-25T12:22:51.981Z</time>
      </trkpt>
      <trkpt lat="60.70702" lon="4.96179">
        <ele>71.207526</ele>
        <time>2020-07-25T12:22:53.978Z</time>
      </trkpt>
      <trkpt lat="60.70695" lon="4.96193">
        <ele>71.331025</ele>
        <time>2020-07-25T12:22:56.986Z</time>
      </trkpt>
      <trkpt lat="60.70689" lon="4.96211">
        <ele>71.46268</ele>
        <time>2020-07-25T12:23:00.969Z</time>
      </trkpt>
      <trkpt lat="60.70684" lon="4.96231">
        <ele>71.595326</ele>
        <time>2020-07-25T12:23:05.015Z</time>
      </trkpt>
      <trkpt lat="60.70681" lon="4.9625">
        <ele>71.716934</ele>
        <time>2020-07-25T12:23:09.012Z</time>
      </trkpt>
      <trkpt lat="60.7068" lon="4.9627">
        <ele>71.840236</ele>
        <time>2020-07-25T12:23:13.043Z</time>
      </trkpt>
      <trkpt lat="60.70679" lon="4.96291">
        <ele>71.965297</ele>
        <time>2020-07-25T12:23:17.023Z</time>
      </trkpt>
      <trkpt lat="60.70678" lon="4.96313">
        <ele>72.100821</ele>
        <time>2020-07-25T12:23:21.980Z</time>
      </trkpt>
      <trkpt lat="60.70673" lon="4.9633">
        <ele>72.171847</ele>
        <time>2020-07-25T12:23:26.985Z</time>
      </trkpt>
      <trkpt lat="60.70672" lon="4.96348">
        <ele>72.189549</ele>
        <time>2020-07-25T12:23:31.984Z</time>
      </trkpt>
      <trkpt lat="60.70667" lon="4.96365">
        <ele>72.207574</ele>
        <time>2020-07-25T12:23:36.004Z</time>
      </trkpt>
      <trkpt lat="60.70663" lon="4.96382">
        <ele>72.22611</ele>
        <time>2020-07-25T12:23:40.993Z</time>
      </trkpt>
      <trkpt lat="60.70658" lon="4.964">
        <ele>72.244896</ele>
        <time>2020-07-25T12:23:45.983Z</time>
      </trkpt>
      <trkpt lat="60.70655" lon="4.96422">
        <ele>72.266862</ele>
        <time>2020-07-25T12:23:50.994Z</time>
      </trkpt>
      <trkpt lat="60.70655" lon="4.96443">
        <ele>72.286841</ele>
        <time>2020-07-25T12:23:54.985Z</time>
      </trkpt>
      <trkpt lat="60.70658" lon="4.96461">
        <ele>72.305369</ele>
        <time>2020-07-25T12:23:58.984Z</time>
      </trkpt>
      <trkpt lat="60.70668" lon="4.96474">
        <ele>72.32894</ele>
        <time>2020-07-25T12:24:03.005Z</time>
      </trkpt>
      <trkpt lat="60.70681" lon="4.96482">
        <ele>72.355025</ele>
        <time>2020-07-25T12:24:06.019Z</time>
      </trkpt>
      <trkpt lat="60.70693" lon="4.96487">
        <ele>72.379659</ele>
        <time>2020-07-25T12:24:07.989Z</time>
      </trkpt>
      <trkpt lat="60.7071" lon="4.96492">
        <ele>72.412797</ele>
        <time>2020-07-25T12:24:09.977Z</time>
      </trkpt>
      <trkpt lat="60.7072" lon="4.96495">
        <ele>72.431712</ele>
        <time>2020-07-25T12:24:10.980Z</time>
      </trkpt>
      <trkpt lat="60.70729" lon="4.965">
        <ele>72.450633</ele>
        <time>2020-07-25T12:24:11.992Z</time>
      </trkpt>
      <trkpt lat="60.70739" lon="4.96508">
        <ele>72.470171</ele>
        <time>2020-07-25T12:24:13.054Z</time>
      </trkpt>
      <trkpt lat="60.70748" lon="4.96517">
        <ele>72.489895</ele>
        <time>2020-07-25T12:24:14.031Z</time>
      </trkpt>
      <trkpt lat="60.70756" lon="4.96528">
        <ele>72.509607</ele>
        <time>2020-07-25T12:24:15.034Z</time>
      </trkpt>
      <trkpt lat="60.70764" lon="4.96541">
        <ele>72.66318</ele>
        <time>2020-07-25T12:24:16.008Z</time>
      </trkpt>
      <trkpt lat="60.70771" lon="4.96555">
        <ele>72.830234</ele>
        <time>2020-07-25T12:24:16.985Z</time>
      </trkpt>
      <trkpt lat="60.70777" lon="4.9657">
        <ele>72.984981</ele>
        <time>2020-07-25T12:24:17.980Z</time>
      </trkpt>
      <trkpt lat="60.70785" lon="4.966">
        <ele>73.263449</ele>
        <time>2020-07-25T12:24:19.987Z</time>
      </trkpt>
      <trkpt lat="60.70789" lon="4.96627">
        <ele>73.502722</ele>
        <time>2020-07-25T12:24:22.034Z</time>
      </trkpt>
      <trkpt lat="60.70791" lon="4.9665">
        <ele>73.689735</ele>
        <time>2020-07-25T12:24:24.008Z</time>
      </trkpt>
      <trkpt lat="60.70792" lon="4.96673">
        <ele>73.884336</ele>
        <time>2020-07-25T12:24:26.983Z</time>
      </trkpt>
      <trkpt lat="60.70792" lon="4.96694">
        <ele>74.06192</ele>
        <time>2020-07-25T12:24:31.009Z</time>
      </trkpt>
      <trkpt lat="60.70792" lon="4.96714">
        <ele>74.226036</ele>
        <time>2020-07-25T12:24:34.980Z</time>
      </trkpt>
      <trkpt lat="60.70793" lon="4.96736">
        <ele>74.403724</ele>
        <time>2020-07-25T12:24:40.003Z</time>
      </trkpt>
      <trkpt lat="60.70793" lon="4.96757">
        <ele>74.582746</ele>
        <time>2020-07-25T12:24:44.988Z</time>
      </trkpt>
      <trkpt lat="60.70792" lon="4.96777">
        <ele>74.743791</ele>
        <time>2020-07-25T12:24:49.990Z</time>
      </trkpt>
      <trkpt lat="60.70791" lon="4.96795">
        <ele>74.899451</ele>
        <time>2020-07-25T12:24:55.031Z</time>
      </trkpt>
      <trkpt lat="60.70787" lon="4.96815">
        <ele>75.069395</ele>
        <time>2020-07-25T12:25:00.984Z</time>
      </trkpt>
      <trkpt lat="60.70784" lon="4.96832">
        <ele>75.226708</ele>
        <time>2020-07-25T12:25:06.979Z</time>
      </trkpt>
      <trkpt lat="60.70781" lon="4.96853">
        <ele>75.402903</ele>
        <time>2020-07-25T12:25:12.987Z</time>
      </trkpt>
      <trkpt lat="60.70778" lon="4.96873">
        <ele>75.606031</ele>
        <time>2020-07-25T12:25:19.007Z</time>
      </trkpt>
      <trkpt lat="60.70774" lon="4.96892">
        <ele>76.039045</ele>
        <time>2020-07-25T12:25:24.981Z</time>
      </trkpt>
      <trkpt lat="60.70772" lon="4.96912">
        <ele>76.472929</ele>
        <time>2020-07-25T12:25:31.013Z</time>
      </trkpt>
      <trkpt lat="60.70768" lon="4.96931">
        <ele>76.886881</ele>
        <time>2020-07-25T12:25:37.047Z</time>
      </trkpt>
      <trkpt lat="60.70765" lon="4.96949">
        <ele>77.281676</ele>
        <time>2020-07-25T12:25:42.988Z</time>
      </trkpt>
      <trkpt lat="60.70763" lon="4.96968">
        <ele>77.688886</ele>
        <time>2020-07-25T12:25:49.022Z</time>
      </trkpt>
      <trkpt lat="60.7076" lon="4.96987">
        <ele>78.110609</ele>
        <time>2020-07-25T12:25:54.996Z</time>
      </trkpt>
      <trkpt lat="60.70757" lon="4.97008">
        <ele>78.554054</ele>
        <time>2020-07-25T12:26:01.992Z</time>
      </trkpt>
      <trkpt lat="60.70755" lon="4.97026">
        <ele>78.954989</ele>
        <time>2020-07-25T12:26:09.008Z</time>
      </trkpt>
      <trkpt lat="60.70756" lon="4.97048">
        <ele>79.395089</ele>
        <time>2020-07-25T12:26:15.986Z</time>
      </trkpt>
      <trkpt lat="60.70757" lon="4.97066">
        <ele>79.782208</ele>
        <time>2020-07-25T12:26:20.985Z</time>
      </trkpt>
      <trkpt lat="60.70758" lon="4.97085">
        <ele>80.171003</ele>
        <time>2020-07-25T12:26:26.026Z</time>
      </trkpt>
      <trkpt lat="60.70758" lon="4.97105">
        <ele>80.599971</ele>
        <time>2020-07-25T12:26:31.989Z</time>
      </trkpt>
      <trkpt lat="60.70759" lon="4.97125">
        <ele>81.012409</ele>
        <time>2020-07-25T12:26:37.033Z</time>
      </trkpt>
      <trkpt lat="60.70762" lon="4.97147">
        <ele>81.490817</ele>
        <time>2020-07-25T12:26:42.008Z</time>
      </trkpt>
      <trkpt lat="60.70764" lon="4.97169">
        <ele>81.949847</ele>
        <time>2020-07-25T12:26:46.005Z</time>
      </trkpt>
      <trkpt lat="60.70766" lon="4.97187">
        <ele>82.336228</ele>
        <time>2020-07-25T12:26:48.995Z</time>
      </trkpt>
      <trkpt lat="60.70769" lon="4.97209">
        <ele>82.807556</ele>
        <time>2020-07-25T12:26:53.000Z</time>
      </trkpt>
      <trkpt lat="60.7077" lon="4.97228">
        <ele>83.211765</ele>
        <time>2020-07-25T12:26:56.993Z</time>
      </trkpt>
      <trkpt lat="60.70771" lon="4.9725">
        <ele>83.314013</ele>
        <time>2020-07-25T12:27:02.000Z</time>
      </trkpt>
      <trkpt lat="60.70772" lon="4.97273">
        <ele>83.414669</ele>
        <time>2020-07-25T12:27:06.991Z</time>
      </trkpt>
      <trkpt lat="60.70774" lon="4.97291">
        <ele>83.502077</ele>
        <time>2020-07-25T12:27:11.003Z</time>
      </trkpt>
      <trkpt lat="60.70777" lon="4.97312">
        <ele>83.599626</ele>
        <time>2020-07-25T12:27:15.002Z</time>
      </trkpt>
      <trkpt lat="60.70779" lon="4.97333">
        <ele>83.696294</ele>
        <time>2020-07-25T12:27:19.001Z</time>
      </trkpt>
      <trkpt lat="60.7078" lon="4.97357">
        <ele>83.80593</ele>
        <time>2020-07-25T12:27:22.984Z</time>
      </trkpt>
      <trkpt lat="60.70782" lon="4.97377">
        <ele>83.897301</ele>
        <time>2020-07-25T12:27:27.029Z</time>
      </trkpt>
      <trkpt lat="60.70784" lon="4.97397">
        <ele>83.98792</ele>
        <time>2020-07-25T12:27:30.995Z</time>
      </trkpt>
      <trkpt lat="60.70786" lon="4.97416">
        <ele>84.075251</ele>
        <time>2020-07-25T12:27:35.005Z</time>
      </trkpt>
      <trkpt lat="60.70787" lon="4.97438">
        <ele>84.178342</ele>
        <time>2020-07-25T12:27:39.005Z</time>
      </trkpt>
      <trkpt lat="60.70789" lon="4.97457">
        <ele>84.262279</ele>
        <time>2020-07-25T12:27:42.033Z</time>
      </trkpt>
      <trkpt lat="60.70789" lon="4.97476">
        <ele>84.351531</ele>
        <time>2020-07-25T12:27:45.096Z</time>
      </trkpt>
      <trkpt lat="60.70789" lon="4.97497">
        <ele>84.446941</ele>
        <time>2020-07-25T12:27:47.976Z</time>
      </trkpt>
      <trkpt lat="60.70789" lon="4.9752">
        <ele>84.550507</ele>
        <time>2020-07-25T12:27:51.058Z</time>
      </trkpt>
      <trkpt lat="60.7079" lon="4.97547">
        <ele>84.673624</ele>
        <time>2020-07-25T12:27:53.982Z</time>
      </trkpt>
      <trkpt lat="60.7079" lon="4.97566">
        <ele>84.756907</ele>
        <time>2020-07-25T12:27:55.989Z</time>
      </trkpt>
      <trkpt lat="60.70789" lon="4.97585">
        <ele>84.843967</ele>
        <time>2020-07-25T12:27:58.011Z</time>
      </trkpt>
      <trkpt lat="60.70788" lon="4.97605">
        <ele>84.716082</ele>
        <time>2020-07-25T12:27:59.985Z</time>
      </trkpt>
      <trkpt lat="60.70786" lon="4.97626">
        <ele>84.464333</ele>
        <time>2020-07-25T12:28:01.988Z</time>
      </trkpt>
      <trkpt lat="60.70784" lon="4.9765">
        <ele>84.173559</ele>
        <time>2020-07-25T12:28:03.995Z</time>
      </trkpt>
      <trkpt lat="60.70781" lon="4.97675">
        <ele>83.861506</ele>
        <time>2020-07-25T12:28:05.983Z</time>
      </trkpt>
      <trkpt lat="60.70778" lon="4.97701">
        <ele>83.541988</ele>
        <time>2020-07-25T12:28:08.006Z</time>
      </trkpt>
      <trkpt lat="60.70775" lon="4.97727">
        <ele>83.22301</ele>
        <time>2020-07-25T12:28:09.977Z</time>
      </trkpt>
      <trkpt lat="60.70771" lon="4.97754">
        <ele>82.895962</ele>
        <time>2020-07-25T12:28:11.978Z</time>
      </trkpt>
      <trkpt lat="60.70768" lon="4.97781">
        <ele>82.561795</ele>
        <time>2020-07-25T12:28:13.996Z</time>
      </trkpt>
      <trkpt lat="60.70764" lon="4.97808">
        <ele>82.223525</ele>
        <time>2020-07-25T12:28:15.991Z</time>
      </trkpt>
      <trkpt lat="60.70762" lon="4.97838">
        <ele>81.869516</ele>
        <time>2020-07-25T12:28:18.009Z</time>
      </trkpt>
      <trkpt lat="60.70763" lon="4.97874">
        <ele>81.43894</ele>
        <time>2020-07-25T12:28:19.972Z</time>
      </trkpt>
      <trkpt lat="60.70763" lon="4.97894">
        <ele>81.197755</ele>
        <time>2020-07-25T12:28:20.999Z</time>
      </trkpt>
      <trkpt lat="60.70764" lon="4.97914">
        <ele>80.962656</ele>
        <time>2020-07-25T12:28:22.013Z</time>
      </trkpt>
      <trkpt lat="60.70764" lon="4.97933">
        <ele>80.739737</ele>
        <time>2020-07-25T12:28:22.982Z</time>
      </trkpt>
      <trkpt lat="60.70764" lon="4.97968">
        <ele>80.293469</ele>
        <time>2020-07-25T12:28:24.991Z</time>
      </trkpt>
      <trkpt lat="60.70761" lon="4.98004">
        <ele>79.785201</ele>
        <time>2020-07-25T12:28:26.987Z</time>
      </trkpt>
      <trkpt lat="60.70759" lon="4.98023">
        <ele>79.508764</ele>
        <time>2020-07-25T12:28:28.014Z</time>
      </trkpt>
      <trkpt lat="60.70756" lon="4.98042">
        <ele>79.22216</ele>
        <time>2020-07-25T12:28:29.034Z</time>
      </trkpt>
      <trkpt lat="60.70753" lon="4.98063">
        <ele>78.924309</ele>
        <time>2020-07-25T12:28:29.991Z</time>
      </trkpt>
      <trkpt lat="60.7075" lon="4.98084">
        <ele>78.622459</ele>
        <time>2020-07-25T12:28:31.014Z</time>
      </trkpt>
      <trkpt lat="60.70747" lon="4.98105">
        <ele>78.314741</ele>
        <time>2020-07-25T12:28:31.987Z</time>
      </trkpt>
      <trkpt lat="60.70743" lon="4.98125">
        <ele>78.00936</ele>
        <time>2020-07-25T12:28:32.987Z</time>
      </trkpt>
      <trkpt lat="60.7074" lon="4.98145">
        <ele>77.712215</ele>
        <time>2020-07-25T12:28:34.023Z</time>
      </trkpt>
      <trkpt lat="60.70737" lon="4.98165">
        <ele>77.42675</ele>
        <time>2020-07-25T12:28:35.006Z</time>
      </trkpt>
      <trkpt lat="60.70734" lon="4.98184">
        <ele>77.14472</ele>
        <time>2020-07-25T12:28:36.000Z</time>
      </trkpt>
      <trkpt lat="60.70732" lon="4.98204">
        <ele>76.868401</ele>
        <time>2020-07-25T12:28:36.991Z</time>
      </trkpt>
      <trkpt lat="60.7073" lon="4.98223">
        <ele>76.599106</ele>
        <time>2020-07-25T12:28:38.033Z</time>
      </trkpt>
      <trkpt lat="60.7073" lon="4.98242">
        <ele>76.326668</ele>
        <time>2020-07-25T12:28:39.005Z</time>
      </trkpt>
      <trkpt lat="60.7073" lon="4.98278">
        <ele>75.825435</ele>
        <time>2020-07-25T12:28:40.984Z</time>
      </trkpt>
      <trkpt lat="60.70731" lon="4.98308">
        <ele>75.402857</ele>
        <time>2020-07-25T12:28:43.011Z</time>
      </trkpt>
      <trkpt lat="60.70731" lon="4.98332">
        <ele>75.560644</ele>
        <time>2020-07-25T12:28:45.007Z</time>
      </trkpt>
      <trkpt lat="60.70731" lon="4.98352">
        <ele>75.740387</ele>
        <time>2020-07-25T12:28:46.997Z</time>
      </trkpt>
      <trkpt lat="60.7073" lon="4.98371">
        <ele>75.913859</ele>
        <time>2020-07-25T12:28:49.987Z</time>
      </trkpt>
      <trkpt lat="60.7073" lon="4.98391">
        <ele>76.089205</ele>
        <time>2020-07-25T12:28:54.004Z</time>
      </trkpt>
      <trkpt lat="60.70731" lon="4.98409">
        <ele>76.256194</ele>
        <time>2020-07-25T12:28:57.999Z</time>
      </trkpt>
      <trkpt lat="60.70733" lon="4.98428">
        <ele>76.434738</ele>
        <time>2020-07-25T12:29:03.010Z</time>
      </trkpt>
      <trkpt lat="60.70738" lon="4.98448">
        <ele>76.629476</ele>
        <time>2020-07-25T12:29:09.023Z</time>
      </trkpt>
      <trkpt lat="60.70743" lon="4.98464">
        <ele>76.806712</ele>
        <time>2020-07-25T12:29:14.990Z</time>
      </trkpt>
      <trkpt lat="60.7075" lon="4.9848">
        <ele>76.992808</ele>
        <time>2020-07-25T12:29:20.996Z</time>
      </trkpt>
      <trkpt lat="60.70757" lon="4.98494">
        <ele>77.175476</ele>
        <time>2020-07-25T12:29:28.005Z</time>
      </trkpt>
      <trkpt lat="60.70764" lon="4.98509">
        <ele>77.363945</ele>
        <time>2020-07-25T12:29:33.991Z</time>
      </trkpt>
      <trkpt lat="60.70771" lon="4.98524">
        <ele>77.552455</ele>
        <time>2020-07-25T12:29:37.989Z</time>
      </trkpt>
      <trkpt lat="60.70778" lon="4.98538">
        <ele>77.738985</ele>
        <time>2020-07-25T12:29:43.008Z</time>
      </trkpt>
      <trkpt lat="60.70786" lon="4.98554">
        <ele>77.94036</ele>
        <time>2020-07-25T12:29:48.013Z</time>
      </trkpt>
      <trkpt lat="60.70793" lon="4.98569">
        <ele>78.126361</ele>
        <time>2020-07-25T12:29:50.999Z</time>
      </trkpt>
      <trkpt lat="60.70804" lon="4.98567">
        <ele>78.325989</ele>
        <time>2020-07-25T12:29:55.000Z</time>
      </trkpt>
      <trkpt lat="60.7081" lon="4.98553">
        <ele>78.503139</ele>
        <time>2020-07-25T12:29:57.994Z</time>
      </trkpt>
      <trkpt lat="60.70818" lon="4.98538">
        <ele>78.694618</ele>
        <time>2020-07-25T12:30:00.982Z</time>
      </trkpt>
      <trkpt lat="60.70826" lon="4.98525">
        <ele>78.955477</ele>
        <time>2020-07-25T12:30:04.996Z</time>
      </trkpt>
      <trkpt lat="60.70834" lon="4.98509">
        <ele>79.222088</ele>
        <time>2020-07-25T12:30:09.028Z</time>
      </trkpt>
      <trkpt lat="60.70841" lon="4.98492">
        <ele>79.489693</ele>
        <time>2020-07-25T12:30:14.016Z</time>
      </trkpt>
      <trkpt lat="60.70849" lon="4.98475">
        <ele>79.766587</ele>
        <time>2020-07-25T12:30:19.014Z</time>
      </trkpt>
      <trkpt lat="60.70857" lon="4.9846">
        <ele>80.036677</ele>
        <time>2020-07-25T12:30:23.989Z</time>
      </trkpt>
      <trkpt lat="60.70865" lon="4.98447">
        <ele>80.292706</ele>
        <time>2020-07-25T12:30:28.000Z</time>
      </trkpt>
      <trkpt lat="60.70874" lon="4.98431">
        <ele>80.580511</ele>
        <time>2020-07-25T12:30:31.989Z</time>
      </trkpt>
      <trkpt lat="60.70882" lon="4.98416">
        <ele>80.844687</ele>
        <time>2020-07-25T12:30:35.013Z</time>
      </trkpt>
      <trkpt lat="60.7089" lon="4.98401">
        <ele>81.1011</ele>
        <time>2020-07-25T12:30:38.005Z</time>
      </trkpt>
      <trkpt lat="60.70898" lon="4.98386">
        <ele>81.380051</ele>
        <time>2020-07-25T12:30:40.976Z</time>
      </trkpt>
      <trkpt lat="60.70905" lon="4.98371">
        <ele>81.610872</ele>
        <time>2020-07-25T12:30:43.987Z</time>
      </trkpt>
      <trkpt lat="60.70911" lon="4.98359">
        <ele>81.834597</ele>
        <time>2020-07-25T12:30:46.981Z</time>
      </trkpt>
      <trkpt lat="60.70917" lon="4.98342">
        <ele>82.07944</ele>
        <time>2020-07-25T12:30:49.985Z</time>
      </trkpt>
      <trkpt lat="60.70923" lon="4.98325">
        <ele>82.326441</ele>
        <time>2020-07-25T12:30:53.006Z</time>
      </trkpt>
      <trkpt lat="60.70928" lon="4.98307">
        <ele>82.578626</ele>
        <time>2020-07-25T12:30:55.989Z</time>
      </trkpt>
      <trkpt lat="60.70934" lon="4.9829">
        <ele>82.826991</ele>
        <time>2020-07-25T12:30:59.012Z</time>
      </trkpt>
      <trkpt lat="60.70939" lon="4.98272">
        <ele>83.071645</ele>
        <time>2020-07-25T12:31:02.013Z</time>
      </trkpt>
      <trkpt lat="60.70945" lon="4.98258">
        <ele>82.701857</ele>
        <time>2020-07-25T12:31:04.999Z</time>
      </trkpt>
      <trkpt lat="60.70952" lon="4.98247">
        <ele>82.293737</ele>
        <time>2020-07-25T12:31:08.016Z</time>
      </trkpt>
      <trkpt lat="60.70962" lon="4.98239">
        <ele>81.797605</ele>
        <time>2020-07-25T12:31:11.980Z</time>
      </trkpt>
      <trkpt lat="60.70973" lon="4.98232">
        <ele>81.301054</ele>
        <time>2020-07-25T12:31:15.980Z</time>
      </trkpt>
      <trkpt lat="60.70983" lon="4.98227">
        <ele>80.822794</ele>
        <time>2020-07-25T12:31:20.009Z</time>
      </trkpt>
      <trkpt lat="60.70995" lon="4.9822">
        <ele>80.291736</ele>
        <time>2020-07-25T12:31:22.983Z</time>
      </trkpt>
      <trkpt lat="60.71004" lon="4.98212">
        <ele>79.839555</ele>
        <time>2020-07-25T12:31:25.043Z</time>
      </trkpt>
      <trkpt lat="60.71015" lon="4.98203">
        <ele>79.315916</ele>
        <time>2020-07-25T12:31:26.997Z</time>
      </trkpt>
      <trkpt lat="60.71026" lon="4.98193">
        <ele>78.784613</ele>
        <time>2020-07-25T12:31:28.988Z</time>
      </trkpt>
      <trkpt lat="60.71037" lon="4.98182">
        <ele>78.231831</ele>
        <time>2020-07-25T12:31:30.992Z</time>
      </trkpt>
      <trkpt lat="60.71048" lon="4.98173">
        <ele>77.681797</ele>
        <time>2020-07-25T12:31:33.015Z</time>
      </trkpt>
      <trkpt lat="60.71062" lon="4.98165">
        <ele>77.035289</ele>
        <time>2020-07-25T12:31:34.986Z</time>
      </trkpt>
      <trkpt lat="60.71076" lon="4.98159">
        <ele>76.382831</ele>
        <time>2020-07-25T12:31:36.998Z</time>
      </trkpt>
      <trkpt lat="60.71091" lon="4.98154">
        <ele>75.733796</ele>
        <time>2020-07-25T12:31:39.004Z</time>
      </trkpt>
      <trkpt lat="60.71104" lon="4.98149">
        <ele>75.124844</ele>
        <time>2020-07-25T12:31:41.005Z</time>
      </trkpt>
      <trkpt lat="60.71118" lon="4.98142">
        <ele>73.892269</ele>
        <time>2020-07-25T12:31:42.986Z</time>
      </trkpt>
      <trkpt lat="60.71133" lon="4.98135">
        <ele>72.527066</ele>
        <time>2020-07-25T12:31:45.004Z</time>
      </trkpt>
      <trkpt lat="60.71148" lon="4.98131">
        <ele>71.155336</ele>
        <time>2020-07-25T12:31:46.996Z</time>
      </trkpt>
      <trkpt lat="60.71164" lon="4.98133">
        <ele>69.722115</ele>
        <time>2020-07-25T12:31:48.983Z</time>
      </trkpt>
      <trkpt lat="60.71179" lon="4.98151">
        <ele>68.140086</ele>
        <time>2020-07-25T12:31:50.983Z</time>
      </trkpt>
      <trkpt lat="60.71187" lon="4.98176">
        <ele>66.831815</ele>
        <time>2020-07-25T12:31:53.059Z</time>
      </trkpt>
      <trkpt lat="60.71193" lon="4.98201">
        <ele>65.590599</ele>
        <time>2020-07-25T12:31:54.996Z</time>
      </trkpt>
      <trkpt lat="60.71201" lon="4.9822">
        <ele>64.510849</ele>
        <time>2020-07-25T12:31:57.028Z</time>
      </trkpt>
      <trkpt lat="60.71212" lon="4.98223">
        <ele>63.519877</ele>
        <time>2020-07-25T12:31:58.985Z</time>
      </trkpt>
      <trkpt lat="60.71224" lon="4.98215">
        <ele>62.42437</ele>
        <time>2020-07-25T12:32:01.006Z</time>
      </trkpt>
      <trkpt lat="60.71236" lon="4.98206">
        <ele>61.209644</ele>
        <time>2020-07-25T12:32:02.993Z</time>
      </trkpt>
      <trkpt lat="60.7125" lon="4.98196">
        <ele>59.915258</ele>
        <time>2020-07-25T12:32:04.993Z</time>
      </trkpt>
      <trkpt lat="60.71263" lon="4.98187">
        <ele>58.73919</ele>
        <time>2020-07-25T12:32:07.006Z</time>
      </trkpt>
      <trkpt lat="60.71273" lon="4.98184">
        <ele>57.920117</ele>
        <time>2020-07-25T12:32:08.995Z</time>
      </trkpt>
      <trkpt lat="60.71282" lon="4.98202">
        <ele>56.988674</ele>
        <time>2020-07-25T12:32:11.986Z</time>
      </trkpt>
      <trkpt lat="60.71281" lon="4.98223">
        <ele>56.217857</ele>
        <time>2020-07-25T12:32:13.980Z</time>
      </trkpt>
      <trkpt lat="60.71278" lon="4.98245">
        <ele>55.348814</ele>
        <time>2020-07-25T12:32:16.009Z</time>
      </trkpt>
      <trkpt lat="60.71275" lon="4.98264">
        <ele>54.627387</ele>
        <time>2020-07-25T12:32:17.984Z</time>
      </trkpt>
      <trkpt lat="60.71268" lon="4.98282">
        <ele>53.745057</ele>
        <time>2020-07-25T12:32:21.007Z</time>
      </trkpt>
      <trkpt lat="60.71257" lon="4.98292">
        <ele>52.854307</ele>
        <time>2020-07-25T12:32:23.984Z</time>
      </trkpt>
      <trkpt lat="60.71248" lon="4.98301">
        <ele>52.092072</ele>
        <time>2020-07-25T12:32:27.031Z</time>
      </trkpt>
      <trkpt lat="60.7124" lon="4.98313">
        <ele>51.29977</ele>
        <time>2020-07-25T12:32:29.967Z</time>
      </trkpt>
      <trkpt lat="60.71234" lon="4.98331">
        <ele>50.517349</ele>
        <time>2020-07-25T12:32:32.987Z</time>
      </trkpt>
      <trkpt lat="60.71234" lon="4.98352">
        <ele>49.757622</ele>
        <time>2020-07-25T12:32:36.005Z</time>
      </trkpt>
      <trkpt lat="60.71236" lon="4.98374">
        <ele>48.899363</ele>
        <time>2020-07-25T12:32:39.020Z</time>
      </trkpt>
      <trkpt lat="60.71241" lon="4.98398">
        <ele>47.957422</ele>
        <time>2020-07-25T12:32:41.986Z</time>
      </trkpt>
      <trkpt lat="60.71247" lon="4.98417">
        <ele>47.117337</ele>
        <time>2020-07-25T12:32:44.992Z</time>
      </trkpt>
      <trkpt lat="60.71256" lon="4.98429">
        <ele>46.327082</ele>
        <time>2020-07-25T12:32:47.983Z</time>
      </trkpt>
      <trkpt lat="60.71267" lon="4.98434">
        <ele>45.443863</ele>
        <time>2020-07-25T12:32:51.047Z</time>
      </trkpt>
      <trkpt lat="60.71277" lon="4.98436">
        <ele>45.693558</ele>
        <time>2020-07-25T12:32:53.993Z</time>
      </trkpt>
      <trkpt lat="60.7129" lon="4.98435">
        <ele>46.556122</ele>
        <time>2020-07-25T12:32:56.993Z</time>
      </trkpt>
      <trkpt lat="60.713" lon="4.98435">
        <ele>47.286605</ele>
        <time>2020-07-25T12:33:00.011Z</time>
      </trkpt>
      <trkpt lat="60.7131" lon="4.98436">
        <ele>47.921226</ele>
        <time>2020-07-25T12:33:02.987Z</time>
      </trkpt>
      <trkpt lat="60.7132" lon="4.98437">
        <ele>48.672739</ele>
        <time>2020-07-25T12:33:06.984Z</time>
      </trkpt>
      <trkpt lat="60.71331" lon="4.98437">
        <ele>49.368647</ele>
        <time>2020-07-25T12:33:10.998Z</time>
      </trkpt>
      <trkpt lat="60.71341" lon="4.98434">
        <ele>50.110696</ele>
        <time>2020-07-25T12:33:16.005Z</time>
      </trkpt>
      <trkpt lat="60.7135" lon="4.98433">
        <ele>50.738281</ele>
        <time>2020-07-25T12:33:21.012Z</time>
      </trkpt>
      <trkpt lat="60.71361" lon="4.9843">
        <ele>51.482897</ele>
        <time>2020-07-25T12:33:26.993Z</time>
      </trkpt>
      <trkpt lat="60.71371" lon="4.98429">
        <ele>52.186349</ele>
        <time>2020-07-25T12:33:33.013Z</time>
      </trkpt>
      <trkpt lat="60.71381" lon="4.9843">
        <ele>52.883244</ele>
        <time>2020-07-25T12:33:38.013Z</time>
      </trkpt>
      <trkpt lat="60.71392" lon="4.9843">
        <ele>53.613611</ele>
        <time>2020-07-25T12:33:43.977Z</time>
      </trkpt>
      <trkpt lat="60.71402" lon="4.98432">
        <ele>54.304242</ele>
        <time>2020-07-25T12:33:50.016Z</time>
      </trkpt>
      <trkpt lat="60.71411" lon="4.98433">
        <ele>54.946525</ele>
        <time>2020-07-25T12:33:55.987Z</time>
      </trkpt>
      <trkpt lat="60.71422" lon="4.98434">
        <ele>55.691426</ele>
        <time>2020-07-25T12:34:01.989Z</time>
      </trkpt>
      <trkpt lat="60.71432" lon="4.98436">
        <ele>56.398864</ele>
        <time>2020-07-25T12:34:07.010Z</time>
      </trkpt>
      <trkpt lat="60.71442" lon="4.98442">
        <ele>57.103733</ele>
        <time>2020-07-25T12:34:13.015Z</time>
      </trkpt>
      <trkpt lat="60.71451" lon="4.98444">
        <ele>57.613959</ele>
        <time>2020-07-25T12:34:18.003Z</time>
      </trkpt>
      <trkpt lat="60.71462" lon="4.98448">
        <ele>57.728008</ele>
        <time>2020-07-25T12:34:23.007Z</time>
      </trkpt>
      <trkpt lat="60.71471" lon="4.98453">
        <ele>57.828332</ele>
        <time>2020-07-25T12:34:27.990Z</time>
      </trkpt>
      <trkpt lat="60.71481" lon="4.98463">
        <ele>57.948221</ele>
        <time>2020-07-25T12:34:32.992Z</time>
      </trkpt>
      <trkpt lat="60.71494" lon="4.98463">
        <ele>58.075581</ele>
        <time>2020-07-25T12:34:36.993Z</time>
      </trkpt>
      <trkpt lat="60.71504" lon="4.98458">
        <ele>58.190557</ele>
        <time>2020-07-25T12:34:39.999Z</time>
      </trkpt>
      <trkpt lat="60.71515" lon="4.98454">
        <ele>58.30824</ele>
        <time>2020-07-25T12:34:42.987Z</time>
      </trkpt>
      <trkpt lat="60.71526" lon="4.9845">
        <ele>58.425488</ele>
        <time>2020-07-25T12:34:45.984Z</time>
      </trkpt>
      <trkpt lat="60.71537" lon="4.98447">
        <ele>58.541177</ele>
        <time>2020-07-25T12:34:48.988Z</time>
      </trkpt>
      <trkpt lat="60.71549" lon="4.98445">
        <ele>58.664838</ele>
        <time>2020-07-25T12:34:51.996Z</time>
      </trkpt>
      <trkpt lat="60.7156" lon="4.98443">
        <ele>58.780279</ele>
        <time>2020-07-25T12:34:55.017Z</time>
      </trkpt>
      <trkpt lat="60.71571" lon="4.98441">
        <ele>58.898483</ele>
        <time>2020-07-25T12:34:58.000Z</time>
      </trkpt>
      <trkpt lat="60.71582" lon="4.98439">
        <ele>59.021049</ele>
        <time>2020-07-25T12:35:01.027Z</time>
      </trkpt>
      <trkpt lat="60.71595" lon="4.9844">
        <ele>59.150571</ele>
        <time>2020-07-25T12:35:03.974Z</time>
      </trkpt>
      <trkpt lat="60.71606" lon="4.98437">
        <ele>59.269993</ele>
        <time>2020-07-25T12:35:07.000Z</time>
      </trkpt>
      <trkpt lat="60.71617" lon="4.98435">
        <ele>59.390902</ele>
        <time>2020-07-25T12:35:10.008Z</time>
      </trkpt>
      <trkpt lat="60.71629" lon="4.98433">
        <ele>59.529742</ele>
        <time>2020-07-25T12:35:13.031Z</time>
      </trkpt>
      <trkpt lat="60.7164" lon="4.98431">
        <ele>59.715573</ele>
        <time>2020-07-25T12:35:16.002Z</time>
      </trkpt>
      <trkpt lat="60.7165" lon="4.98432">
        <ele>59.894374</ele>
        <time>2020-07-25T12:35:19.017Z</time>
      </trkpt>
      <trkpt lat="60.7166" lon="4.98433">
        <ele>60.054539</ele>
        <time>2020-07-25T12:35:21.985Z</time>
      </trkpt>
      <trkpt lat="60.71669" lon="4.98431">
        <ele>60.209896</ele>
        <time>2020-07-25T12:35:24.986Z</time>
      </trkpt>
      <trkpt lat="60.71679" lon="4.9843">
        <ele>60.375239</ele>
        <time>2020-07-25T12:35:27.996Z</time>
      </trkpt>
      <trkpt lat="60.71688" lon="4.98429">
        <ele>60.542426</ele>
        <time>2020-07-25T12:35:30.989Z</time>
      </trkpt>
      <trkpt lat="60.717" lon="4.98429">
        <ele>60.743311</ele>
        <time>2020-07-25T12:35:34.988Z</time>
      </trkpt>
      <trkpt lat="60.71711" lon="4.98429">
        <ele>60.933983</ele>
        <time>2020-07-25T12:35:38.984Z</time>
      </trkpt>
      <trkpt lat="60.71723" lon="4.98427">
        <ele>61.135308</ele>
        <time>2020-07-25T12:35:42.993Z</time>
      </trkpt>
      <trkpt lat="60.71733" lon="4.98428">
        <ele>61.298951</ele>
        <time>2020-07-25T12:35:46.025Z</time>
      </trkpt>
      <trkpt lat="60.71743" lon="4.98427">
        <ele>61.469437</ele>
        <time>2020-07-25T12:35:48.990Z</time>
      </trkpt>
      <trkpt lat="60.71754" lon="4.98428">
        <ele>61.653365</ele>
        <time>2020-07-25T12:35:52.019Z</time>
      </trkpt>
      <trkpt lat="60.71764" lon="4.9843">
        <ele>61.839749</ele>
        <time>2020-07-25T12:35:54.984Z</time>
      </trkpt>
      <trkpt lat="60.71775" lon="4.98432">
        <ele>62.022744</ele>
        <time>2020-07-25T12:35:57.980Z</time>
      </trkpt>
      <trkpt lat="60.71786" lon="4.98434">
        <ele>62.207599</ele>
        <time>2020-07-25T12:36:00.983Z</time>
      </trkpt>
      <trkpt lat="60.71797" lon="4.98437">
        <ele>62.389553</ele>
        <time>2020-07-25T12:36:04.004Z</time>
      </trkpt>
      <trkpt lat="60.71807" lon="4.9844">
        <ele>62.561499</ele>
        <time>2020-07-25T12:36:06.998Z</time>
      </trkpt>
      <trkpt lat="60.71819" lon="4.98441">
        <ele>62.665024</ele>
        <time>2020-07-25T12:36:09.995Z</time>
      </trkpt>
      <trkpt lat="60.7183" lon="4.98441">
        <ele>62.763147</ele>
        <time>2020-07-25T12:36:13.001Z</time>
      </trkpt>
      <trkpt lat="60.71841" lon="4.98442">
        <ele>62.862154</ele>
        <time>2020-07-25T12:36:15.976Z</time>
      </trkpt>
      <trkpt lat="60.71852" lon="4.98441">
        <ele>62.959474</ele>
        <time>2020-07-25T12:36:18.990Z</time>
      </trkpt>
      <trkpt lat="60.71863" lon="4.98439">
        <ele>63.054218</ele>
        <time>2020-07-25T12:36:22.003Z</time>
      </trkpt>
      <trkpt lat="60.71873" lon="4.98436">
        <ele>63.148973</ele>
        <time>2020-07-25T12:36:24.984Z</time>
      </trkpt>
      <trkpt lat="60.71884" lon="4.98431">
        <ele>63.244663</ele>
        <time>2020-07-25T12:36:27.998Z</time>
      </trkpt>
      <trkpt lat="60.71895" lon="4.98425">
        <ele>63.348749</ele>
        <time>2020-07-25T12:36:30.992Z</time>
      </trkpt>
      <trkpt lat="60.71906" lon="4.98418">
        <ele>63.453335</ele>
        <time>2020-07-25T12:36:34.009Z</time>
      </trkpt>
      <trkpt lat="60.71916" lon="4.98412">
        <ele>63.546213</ele>
        <time>2020-07-25T12:36:36.985Z</time>
      </trkpt>
      <trkpt lat="60.71926" lon="4.98404">
        <ele>63.645418</ele>
        <time>2020-07-25T12:36:40.016Z</time>
      </trkpt>
      <trkpt lat="60.71937" lon="4.98394">
        <ele>63.745512</ele>
        <time>2020-07-25T12:36:42.994Z</time>
      </trkpt>
      <trkpt lat="60.71946" lon="4.98384">
        <ele>63.8434</ele>
        <time>2020-07-25T12:36:45.991Z</time>
      </trkpt>
      <trkpt lat="60.71956" lon="4.98375">
        <ele>63.937877</ele>
        <time>2020-07-25T12:36:48.984Z</time>
      </trkpt>
      <trkpt lat="60.71966" lon="4.98366">
        <ele>64.035795</ele>
        <time>2020-07-25T12:36:52.020Z</time>
      </trkpt>
      <trkpt lat="60.71976" lon="4.98356">
        <ele>64.132108</ele>
        <time>2020-07-25T12:36:54.995Z</time>
      </trkpt>
      <trkpt lat="60.71985" lon="4.98346">
        <ele>64.183602</ele>
        <time>2020-07-25T12:36:58.016Z</time>
      </trkpt>
      <trkpt lat="60.71993" lon="4.98337">
        <ele>64.22406</ele>
        <time>2020-07-25T12:37:00.991Z</time>
      </trkpt>
      <trkpt lat="60.72003" lon="4.98328">
        <ele>64.269299</ele>
        <time>2020-07-25T12:37:05.006Z</time>
      </trkpt>
      <trkpt lat="60.72014" lon="4.9832">
        <ele>64.316367</ele>
        <time>2020-07-25T12:37:08.990Z</time>
      </trkpt>
      <trkpt lat="60.72024" lon="4.98313">
        <ele>64.359534</ele>
        <time>2020-07-25T12:37:11.978Z</time>
      </trkpt>
      <trkpt lat="60.72035" lon="4.98303">
        <ele>64.407474</ele>
        <time>2020-07-25T12:37:14.991Z</time>
      </trkpt>
      <trkpt lat="60.72045" lon="4.98293">
        <ele>64.456331</ele>
        <time>2020-07-25T12:37:18.011Z</time>
      </trkpt>
      <trkpt lat="60.72057" lon="4.98283">
        <ele>64.508208</ele>
        <time>2020-07-25T12:37:20.992Z</time>
      </trkpt>
      <trkpt lat="60.72069" lon="4.98275">
        <ele>64.559112</ele>
        <time>2020-07-25T12:37:23.981Z</time>
      </trkpt>
      <trkpt lat="60.7208" lon="4.98266">
        <ele>64.60946</ele>
        <time>2020-07-25T12:37:26.973Z</time>
      </trkpt>
      <trkpt lat="60.72091" lon="4.98255">
        <ele>64.659745</ele>
        <time>2020-07-25T12:37:30.001Z</time>
      </trkpt>
      <trkpt lat="60.72102" lon="4.98247">
        <ele>64.708439</ele>
        <time>2020-07-25T12:37:33.004Z</time>
      </trkpt>
      <trkpt lat="60.72112" lon="4.98241">
        <ele>64.75168</ele>
        <time>2020-07-25T12:37:37.000Z</time>
      </trkpt>
      <trkpt lat="60.72121" lon="4.98215">
        <ele>64.815146</ele>
        <time>2020-07-25T12:46:23.017Z</time>
      </trkpt>
      <trkpt lat="60.72128" lon="4.98201">
        <ele>64.854046</ele>
        <time>2020-07-25T12:46:25.991Z</time>
      </trkpt>
      <trkpt lat="60.72135" lon="4.98189">
        <ele>64.892331</ele>
        <time>2020-07-25T12:46:29.000Z</time>
      </trkpt>
      <trkpt lat="60.72142" lon="4.98175">
        <ele>64.931947</ele>
        <time>2020-07-25T12:46:31.988Z</time>
      </trkpt>
      <trkpt lat="60.72148" lon="4.98161">
        <ele>64.969266</ele>
        <time>2020-07-25T12:46:35.004Z</time>
      </trkpt>
      <trkpt lat="60.72155" lon="4.98147">
        <ele>65.009268</ele>
        <time>2020-07-25T12:46:37.987Z</time>
      </trkpt>
      <trkpt lat="60.72162" lon="4.98132">
        <ele>65.049977</ele>
        <time>2020-07-25T12:46:41.001Z</time>
      </trkpt>
      <trkpt lat="60.72169" lon="4.98115">
        <ele>65.093789</ele>
        <time>2020-07-25T12:46:43.977Z</time>
      </trkpt>
      <trkpt lat="60.72177" lon="4.98098">
        <ele>65.13865</ele>
        <time>2020-07-25T12:46:47.032Z</time>
      </trkpt>
      <trkpt lat="60.72185" lon="4.98083">
        <ele>65.183201</ele>
        <time>2020-07-25T12:46:50.004Z</time>
      </trkpt>
      <trkpt lat="60.72192" lon="4.98064">
        <ele>65.230234</ele>
        <time>2020-07-25T12:46:53.002Z</time>
      </trkpt>
      <trkpt lat="60.722" lon="4.98045">
        <ele>65.278892</ele>
        <time>2020-07-25T12:46:55.992Z</time>
      </trkpt>
      <trkpt lat="60.72209" lon="4.98026">
        <ele>65.330742</ele>
        <time>2020-07-25T12:46:59.025Z</time>
      </trkpt>
      <trkpt lat="60.72218" lon="4.98007">
        <ele>65.382989</ele>
        <time>2020-07-25T12:47:01.997Z</time>
      </trkpt>
      <trkpt lat="60.72227" lon="4.97988">
        <ele>65.433967</ele>
        <time>2020-07-25T12:47:05.003Z</time>
      </trkpt>
      <trkpt lat="60.72235" lon="4.9797">
        <ele>65.484251</ele>
        <time>2020-07-25T12:47:07.989Z</time>
      </trkpt>
      <trkpt lat="60.72244" lon="4.97952">
        <ele>65.534811</ele>
        <time>2020-07-25T12:47:10.994Z</time>
      </trkpt>
      <trkpt lat="60.72253" lon="4.97935">
        <ele>65.583396</ele>
        <time>2020-07-25T12:47:14.023Z</time>
      </trkpt>
      <trkpt lat="60.72261" lon="4.97918">
        <ele>65.755645</ele>
        <time>2020-07-25T12:47:16.986Z</time>
      </trkpt>
      <trkpt lat="60.72269" lon="4.97902">
        <ele>66.170615</ele>
        <time>2020-07-25T12:47:20.014Z</time>
      </trkpt>
      <trkpt lat="60.72277" lon="4.97888">
        <ele>66.559456</ele>
        <time>2020-07-25T12:47:23.009Z</time>
      </trkpt>
      <trkpt lat="60.72284" lon="4.97874">
        <ele>66.918984</ele>
        <time>2020-07-25T12:47:25.999Z</time>
      </trkpt>
      <trkpt lat="60.72292" lon="4.97858">
        <ele>67.342433</ele>
        <time>2020-07-25T12:47:29.994Z</time>
      </trkpt>
      <trkpt lat="60.72301" lon="4.97843">
        <ele>67.771875</ele>
        <time>2020-07-25T12:47:34.019Z</time>
      </trkpt>
      <trkpt lat="60.72309" lon="4.97829">
        <ele>68.177598</ele>
        <time>2020-07-25T12:47:37.996Z</time>
      </trkpt>
      <trkpt lat="60.72318" lon="4.97814">
        <ele>68.589067</ele>
        <time>2020-07-25T12:47:41.983Z</time>
      </trkpt>
      <trkpt lat="60.72326" lon="4.97801">
        <ele>68.977976</ele>
        <time>2020-07-25T12:47:46.036Z</time>
      </trkpt>
      <trkpt lat="60.72333" lon="4.97787">
        <ele>69.346878</ele>
        <time>2020-07-25T12:47:50.029Z</time>
      </trkpt>
      <trkpt lat="60.7234" lon="4.97776">
        <ele>69.696218</ele>
        <time>2020-07-25T12:47:54.047Z</time>
      </trkpt>
      <trkpt lat="60.72348" lon="4.97763">
        <ele>70.047647</ele>
        <time>2020-07-25T12:47:58.025Z</time>
      </trkpt>
      <trkpt lat="60.72355" lon="4.9775">
        <ele>70.398687</ele>
        <time>2020-07-25T12:48:02.004Z</time>
      </trkpt>
      <trkpt lat="60.72362" lon="4.97738">
        <ele>70.756516</ele>
        <time>2020-07-25T12:48:06.002Z</time>
      </trkpt>
      <trkpt lat="60.72371" lon="4.97725">
        <ele>71.158173</ele>
        <time>2020-07-25T12:48:10.980Z</time>
      </trkpt>
      <trkpt lat="60.72378" lon="4.97713">
        <ele>71.506732</ele>
        <time>2020-07-25T12:48:14.987Z</time>
      </trkpt>
      <trkpt lat="60.72386" lon="4.97701">
        <ele>71.87162</ele>
        <time>2020-07-25T12:48:18.979Z</time>
      </trkpt>
      <trkpt lat="60.72395" lon="4.97689">
        <ele>72.263011</ele>
        <time>2020-07-25T12:48:23.016Z</time>
      </trkpt>
      <trkpt lat="60.72402" lon="4.97679">
        <ele>72.642147</ele>
        <time>2020-07-25T12:48:26.999Z</time>
      </trkpt>
      <trkpt lat="60.72409" lon="4.97669">
        <ele>73.031064</ele>
        <time>2020-07-25T12:48:30.993Z</time>
      </trkpt>
      <trkpt lat="60.72417" lon="4.97657">
        <ele>73.449939</ele>
        <time>2020-07-25T12:48:34.992Z</time>
      </trkpt>
      <trkpt lat="60.72426" lon="4.97647">
        <ele>73.868163</ele>
        <time>2020-07-25T12:48:39.002Z</time>
      </trkpt>
      <trkpt lat="60.72433" lon="4.97637">
        <ele>74.258352</ele>
        <time>2020-07-25T12:48:43.027Z</time>
      </trkpt>
      <trkpt lat="60.72441" lon="4.97627">
        <ele>74.648856</ele>
        <time>2020-07-25T12:48:46.990Z</time>
      </trkpt>
      <trkpt lat="60.72451" lon="4.97617">
        <ele>75.135727</ele>
        <time>2020-07-25T12:48:52.002Z</time>
      </trkpt>
      <trkpt lat="60.72459" lon="4.97608">
        <ele>75.556017</ele>
        <time>2020-07-25T12:48:55.987Z</time>
      </trkpt>
      <trkpt lat="60.72468" lon="4.97598">
        <ele>75.981704</ele>
        <time>2020-07-25T12:48:59.997Z</time>
      </trkpt>
      <trkpt lat="60.72476" lon="4.97589">
        <ele>76.38369</ele>
        <time>2020-07-25T12:49:03.987Z</time>
      </trkpt>
      <trkpt lat="60.72488" lon="4.97582">
        <ele>76.899769</ele>
        <time>2020-07-25T12:49:07.987Z</time>
      </trkpt>
      <trkpt lat="60.72498" lon="4.97578">
        <ele>77.344554</ele>
        <time>2020-07-25T12:49:11.989Z</time>
      </trkpt>
      <trkpt lat="60.72509" lon="4.97571">
        <ele>77.840358</ele>
        <time>2020-07-25T12:49:16.984Z</time>
      </trkpt>
      <trkpt lat="60.72518" lon="4.97564">
        <ele>78.266157</ele>
        <time>2020-07-25T12:49:22.008Z</time>
      </trkpt>
      <trkpt lat="60.72528" lon="4.97559">
        <ele>78.723598</ele>
        <time>2020-07-25T12:49:26.038Z</time>
      </trkpt>
      <trkpt lat="60.72539" lon="4.97555">
        <ele>79.209353</ele>
        <time>2020-07-25T12:49:30.047Z</time>
      </trkpt>
      <trkpt lat="60.7255" lon="4.97549">
        <ele>79.691809</ele>
        <time>2020-07-25T12:49:33.990Z</time>
      </trkpt>
      <trkpt lat="60.72559" lon="4.97544">
        <ele>80.081362</ele>
        <time>2020-07-25T12:49:37.006Z</time>
      </trkpt>
      <trkpt lat="60.72569" lon="4.97536">
        <ele>79.85617</ele>
        <time>2020-07-25T12:49:41.010Z</time>
      </trkpt>
      <trkpt lat="60.72579" lon="4.9753">
        <ele>79.560066</ele>
        <time>2020-07-25T12:49:44.990Z</time>
      </trkpt>
      <trkpt lat="60.7259" lon="4.97525">
        <ele>79.235504</ele>
        <time>2020-07-25T12:49:48.991Z</time>
      </trkpt>
      <trkpt lat="60.72601" lon="4.97518">
        <ele>78.905888</ele>
        <time>2020-07-25T12:49:53.002Z</time>
      </trkpt>
      <trkpt lat="60.72609" lon="4.97504">
        <ele>78.619247</ele>
        <time>2020-07-25T12:49:56.027Z</time>
      </trkpt>
      <trkpt lat="60.72618" lon="4.9749">
        <ele>78.321742</ele>
        <time>2020-07-25T12:49:59.028Z</time>
      </trkpt>
      <trkpt lat="60.72628" lon="4.97477">
        <ele>77.965565</ele>
        <time>2020-07-25T12:50:01.994Z</time>
      </trkpt>
      <trkpt lat="60.72638" lon="4.97473">
        <ele>77.680577</ele>
        <time>2020-07-25T12:50:05.004Z</time>
      </trkpt>
      <trkpt lat="60.72649" lon="4.97463">
        <ele>77.362004</ele>
        <time>2020-07-25T12:50:08.994Z</time>
      </trkpt>
      <trkpt lat="60.7266" lon="4.97453">
        <ele>77.022209</ele>
        <time>2020-07-25T12:50:12.028Z</time>
      </trkpt>
      <trkpt lat="60.72672" lon="4.97446">
        <ele>76.663144</ele>
        <time>2020-07-25T12:50:14.989Z</time>
      </trkpt>
      <trkpt lat="60.72681" lon="4.9744">
        <ele>76.41074</ele>
        <time>2020-07-25T12:50:17.004Z</time>
      </trkpt>
      <trkpt lat="60.7269" lon="4.97433">
        <ele>76.136842</ele>
        <time>2020-07-25T12:50:18.984Z</time>
      </trkpt>
      <trkpt lat="60.72699" lon="4.97424">
        <ele>75.86269</ele>
        <time>2020-07-25T12:50:21.004Z</time>
      </trkpt>
      <trkpt lat="60.72709" lon="4.97415">
        <ele>75.559363</ele>
        <time>2020-07-25T12:50:23.001Z</time>
      </trkpt>
      <trkpt lat="60.72719" lon="4.97404">
        <ele>75.243705</ele>
        <time>2020-07-25T12:50:24.988Z</time>
      </trkpt>
      <trkpt lat="60.72729" lon="4.97393">
        <ele>74.969272</ele>
        <time>2020-07-25T12:50:27.008Z</time>
      </trkpt>
      <trkpt lat="60.72741" lon="4.97382">
        <ele>74.740518</ele>
        <time>2020-07-25T12:50:28.986Z</time>
      </trkpt>
      <trkpt lat="60.72752" lon="4.97371">
        <ele>74.505278</ele>
        <time>2020-07-25T12:50:31.008Z</time>
      </trkpt>
      <trkpt lat="60.72764" lon="4.97361">
        <ele>74.267626</ele>
        <time>2020-07-25T12:50:32.995Z</time>
      </trkpt>
      <trkpt lat="60.72776" lon="4.97349">
        <ele>74.033989</ele>
        <time>2020-07-25T12:50:34.986Z</time>
      </trkpt>
      <trkpt lat="60.72788" lon="4.97336">
        <ele>73.784809</ele>
        <time>2020-07-25T12:50:36.995Z</time>
      </trkpt>
      <trkpt lat="60.728" lon="4.97323">
        <ele>73.533942</ele>
        <time>2020-07-25T12:50:38.992Z</time>
      </trkpt>
      <trkpt lat="60.72812" lon="4.9731">
        <ele>73.273295</ele>
        <time>2020-07-25T12:50:41.022Z</time>
      </trkpt>
      <trkpt lat="60.72825" lon="4.97297">
        <ele>73.004715</ele>
        <time>2020-07-25T12:50:43.029Z</time>
      </trkpt>
      <trkpt lat="60.72838" lon="4.97285">
        <ele>72.74688</ele>
        <time>2020-07-25T12:50:44.997Z</time>
      </trkpt>
      <trkpt lat="60.7285" lon="4.97273">
        <ele>72.509539</ele>
        <time>2020-07-25T12:50:47.017Z</time>
      </trkpt>
      <trkpt lat="60.72859" lon="4.97265">
        <ele>72.316578</ele>
        <time>2020-07-25T12:50:49.006Z</time>
      </trkpt>
      <trkpt lat="60.72868" lon="4.97257">
        <ele>72.140583</ele>
        <time>2020-07-25T12:50:54.986Z</time>
      </trkpt>
      <trkpt lat="60.72878" lon="4.97249">
        <ele>71.945893</ele>
        <time>2020-07-25T12:50:59.020Z</time>
      </trkpt>
      <trkpt lat="60.72886" lon="4.97243">
        <ele>71.80322</ele>
        <time>2020-07-25T12:51:02.005Z</time>
      </trkpt>
      <trkpt lat="60.72898" lon="4.97234">
        <ele>72.194853</ele>
        <time>2020-07-25T12:51:06.047Z</time>
      </trkpt>
      <trkpt lat="60.72906" lon="4.9723">
        <ele>72.49607</ele>
        <time>2020-07-25T12:51:08.995Z</time>
      </trkpt>
      <trkpt lat="60.72917" lon="4.97224">
        <ele>72.855827</ele>
        <time>2020-07-25T12:51:13.010Z</time>
      </trkpt>
      <trkpt lat="60.72927" lon="4.9722">
        <ele>73.20198</ele>
        <time>2020-07-25T12:51:16.990Z</time>
      </trkpt>
      <trkpt lat="60.72938" lon="4.97216">
        <ele>73.556007</ele>
        <time>2020-07-25T12:51:21.025Z</time>
      </trkpt>
      <trkpt lat="60.72948" lon="4.9721">
        <ele>73.913803</ele>
        <time>2020-07-25T12:51:25.009Z</time>
      </trkpt>
      <trkpt lat="60.72958" lon="4.97205">
        <ele>74.235722</ele>
        <time>2020-07-25T12:51:29.000Z</time>
      </trkpt>
      <trkpt lat="60.72968" lon="4.972">
        <ele>74.57796</ele>
        <time>2020-07-25T12:51:32.997Z</time>
      </trkpt>
      <trkpt lat="60.72979" lon="4.97194">
        <ele>74.944255</ele>
        <time>2020-07-25T12:51:36.996Z</time>
      </trkpt>
      <trkpt lat="60.7299" lon="4.97189">
        <ele>75.307167</ele>
        <time>2020-07-25T12:51:40.991Z</time>
      </trkpt>
      <trkpt lat="60.72999" lon="4.97186">
        <ele>75.633642</ele>
        <time>2020-07-25T12:51:44.990Z</time>
      </trkpt>
      <trkpt lat="60.73009" lon="4.97183">
        <ele>75.951484</ele>
        <time>2020-07-25T12:51:49.029Z</time>
      </trkpt>
      <trkpt lat="60.73019" lon="4.97179">
        <ele>76.299612</ele>
        <time>2020-07-25T12:51:53.046Z</time>
      </trkpt>
      <trkpt lat="60.7303" lon="4.97175">
        <ele>76.654502</ele>
        <time>2020-07-25T12:51:57.001Z</time>
      </trkpt>
      <trkpt lat="60.7304" lon="4.9717">
        <ele>77.007425</ele>
        <time>2020-07-25T12:52:01.004Z</time>
      </trkpt>
      <trkpt lat="60.73051" lon="4.97165">
        <ele>77.372061</ele>
        <time>2020-07-25T12:52:04.991Z</time>
      </trkpt>
      <trkpt lat="60.73063" lon="4.9716">
        <ele>77.615724</ele>
        <time>2020-07-25T12:52:08.991Z</time>
      </trkpt>
      <trkpt lat="60.73072" lon="4.97156">
        <ele>77.199202</ele>
        <time>2020-07-25T12:52:11.996Z</time>
      </trkpt>
      <trkpt lat="60.73082" lon="4.97152">
        <ele>76.752572</ele>
        <time>2020-07-25T12:52:15.075Z</time>
      </trkpt>
      <trkpt lat="60.73093" lon="4.97147">
        <ele>76.231085</ele>
        <time>2020-07-25T12:52:17.995Z</time>
      </trkpt>
      <trkpt lat="60.73106" lon="4.97142">
        <ele>75.640769</ele>
        <time>2020-07-25T12:52:20.983Z</time>
      </trkpt>
      <trkpt lat="60.73116" lon="4.97138">
        <ele>75.196814</ele>
        <time>2020-07-25T12:52:22.994Z</time>
      </trkpt>
      <trkpt lat="60.73127" lon="4.97134">
        <ele>74.721874</ele>
        <time>2020-07-25T12:52:24.988Z</time>
      </trkpt>
      <trkpt lat="60.73138" lon="4.97128">
        <ele>74.210187</ele>
        <time>2020-07-25T12:52:26.999Z</time>
      </trkpt>
      <trkpt lat="60.7315" lon="4.97123">
        <ele>73.68258</ele>
        <time>2020-07-25T12:52:28.984Z</time>
      </trkpt>
      <trkpt lat="60.73161" lon="4.97118">
        <ele>73.149702</ele>
        <time>2020-07-25T12:52:31.016Z</time>
      </trkpt>
      <trkpt lat="60.73173" lon="4.97113">
        <ele>72.609488</ele>
        <time>2020-07-25T12:52:33.006Z</time>
      </trkpt>
      <trkpt lat="60.73185" lon="4.97108">
        <ele>72.072268</ele>
        <time>2020-07-25T12:52:34.999Z</time>
      </trkpt>
      <trkpt lat="60.73197" lon="4.97102">
        <ele>71.532611</ele>
        <time>2020-07-25T12:52:37.056Z</time>
      </trkpt>
      <trkpt lat="60.73206" lon="4.97096">
        <ele>71.083828</ele>
        <time>2020-07-25T12:52:39.008Z</time>
      </trkpt>
      <trkpt lat="60.73216" lon="4.9709">
        <ele>70.628314</ele>
        <time>2020-07-25T12:52:42.986Z</time>
      </trkpt>
      <trkpt lat="60.73225" lon="4.97082">
        <ele>70.201434</ele>
        <time>2020-07-25T12:52:46.006Z</time>
      </trkpt>
      <trkpt lat="60.73234" lon="4.97073">
        <ele>69.755675</ele>
        <time>2020-07-25T12:52:47.990Z</time>
      </trkpt>
      <trkpt lat="60.73244" lon="4.97063">
        <ele>69.091889</ele>
        <time>2020-07-25T12:52:50.000Z</time>
      </trkpt>
      <trkpt lat="60.73255" lon="4.97051">
        <ele>68.362629</ele>
        <time>2020-07-25T12:52:52.001Z</time>
      </trkpt>
      <trkpt lat="60.73268" lon="4.97036">
        <ele>67.517755</ele>
        <time>2020-07-25T12:52:54.005Z</time>
      </trkpt>
      <trkpt lat="60.73282" lon="4.97021">
        <ele>66.605015</ele>
        <time>2020-07-25T12:52:56.016Z</time>
      </trkpt>
      <trkpt lat="60.73296" lon="4.97006">
        <ele>65.638799</ele>
        <time>2020-07-25T12:52:57.999Z</time>
      </trkpt>
      <trkpt lat="60.73311" lon="4.96988">
        <ele>64.62799</ele>
        <time>2020-07-25T12:53:00.006Z</time>
      </trkpt>
      <trkpt lat="60.73326" lon="4.9697">
        <ele>63.656132</ele>
        <time>2020-07-25T12:53:01.991Z</time>
      </trkpt>
      <trkpt lat="60.73338" lon="4.96955">
        <ele>62.796052</ele>
        <time>2020-07-25T12:53:04.023Z</time>
      </trkpt>
      <trkpt lat="60.7335" lon="4.9694">
        <ele>61.991343</ele>
        <time>2020-07-25T12:53:05.984Z</time>
      </trkpt>
      <trkpt lat="60.73361" lon="4.96926">
        <ele>61.2434</ele>
        <time>2020-07-25T12:53:07.991Z</time>
      </trkpt>
      <trkpt lat="60.73372" lon="4.96915">
        <ele>60.508877</ele>
        <time>2020-07-25T12:53:09.993Z</time>
      </trkpt>
      <trkpt lat="60.73383" lon="4.96906">
        <ele>59.808286</ele>
        <time>2020-07-25T12:53:12.009Z</time>
      </trkpt>
      <trkpt lat="60.73395" lon="4.96899">
        <ele>59.154033</ele>
        <time>2020-07-25T12:53:14.008Z</time>
      </trkpt>
      <trkpt lat="60.73406" lon="4.96888">
        <ele>58.930679</ele>
        <time>2020-07-25T12:53:15.999Z</time>
      </trkpt>
      <trkpt lat="60.73416" lon="4.96876">
        <ele>58.708113</ele>
        <time>2020-07-25T12:53:17.984Z</time>
      </trkpt>
      <trkpt lat="60.73426" lon="4.96865">
        <ele>58.49471</ele>
        <time>2020-07-25T12:53:19.996Z</time>
      </trkpt>
      <trkpt lat="60.73436" lon="4.96853">
        <ele>58.283837</ele>
        <time>2020-07-25T12:53:21.990Z</time>
      </trkpt>
      <trkpt lat="60.73446" lon="4.96842">
        <ele>58.069353</ele>
        <time>2020-07-25T12:53:24.010Z</time>
      </trkpt>
      <trkpt lat="60.73456" lon="4.96833">
        <ele>57.861794</ele>
        <time>2020-07-25T12:53:26.031Z</time>
      </trkpt>
      <trkpt lat="60.73466" lon="4.96823">
        <ele>57.670898</ele>
        <time>2020-07-25T12:53:27.994Z</time>
      </trkpt>
      <trkpt lat="60.73475" lon="4.96813">
        <ele>57.464286</ele>
        <time>2020-07-25T12:53:29.975Z</time>
      </trkpt>
      <trkpt lat="60.73485" lon="4.96803">
        <ele>57.265108</ele>
        <time>2020-07-25T12:53:32.016Z</time>
      </trkpt>
      <trkpt lat="60.73494" lon="4.96795">
        <ele>57.07708</ele>
        <time>2020-07-25T12:53:33.997Z</time>
      </trkpt>
      <trkpt lat="60.73503" lon="4.96786">
        <ele>56.895265</ele>
        <time>2020-07-25T12:53:35.994Z</time>
      </trkpt>
      <trkpt lat="60.73512" lon="4.96779">
        <ele>56.722407</ele>
        <time>2020-07-25T12:53:37.999Z</time>
      </trkpt>
      <trkpt lat="60.73525" lon="4.9677">
        <ele>56.469159</ele>
        <time>2020-07-25T12:53:40.988Z</time>
      </trkpt>
      <trkpt lat="60.73534" lon="4.96765">
        <ele>56.288253</ele>
        <time>2020-07-25T12:53:42.998Z</time>
      </trkpt>
      <trkpt lat="60.73543" lon="4.9676">
        <ele>56.109831</ele>
        <time>2020-07-25T12:53:45.008Z</time>
      </trkpt>
      <trkpt lat="60.73553" lon="4.96756">
        <ele>55.924808</ele>
        <time>2020-07-25T12:53:46.988Z</time>
      </trkpt>
      <trkpt lat="60.73564" lon="4.96752">
        <ele>56.164188</ele>
        <time>2020-07-25T12:53:48.986Z</time>
      </trkpt>
      <trkpt lat="60.73574" lon="4.96749">
        <ele>56.727274</ele>
        <time>2020-07-25T12:53:51.033Z</time>
      </trkpt>
      <trkpt lat="60.73586" lon="4.96743">
        <ele>57.393556</ele>
        <time>2020-07-25T12:53:54.047Z</time>
      </trkpt>
      <trkpt lat="60.73598" lon="4.96738">
        <ele>58.053433</ele>
        <time>2020-07-25T12:53:57.023Z</time>
      </trkpt>
      <trkpt lat="60.7361" lon="4.96731">
        <ele>58.729325</ele>
        <time>2020-07-25T12:54:00.041Z</time>
      </trkpt>
      <trkpt lat="60.73622" lon="4.96724">
        <ele>59.385887</ele>
        <time>2020-07-25T12:54:03.004Z</time>
      </trkpt>
      <trkpt lat="60.73633" lon="4.96716">
        <ele>60.018519</ele>
        <time>2020-07-25T12:54:06.026Z</time>
      </trkpt>
      <trkpt lat="60.73645" lon="4.96708">
        <ele>60.668067</ele>
        <time>2020-07-25T12:54:08.983Z</time>
      </trkpt>
      <trkpt lat="60.73655" lon="4.967">
        <ele>61.255625</ele>
        <time>2020-07-25T12:54:12.016Z</time>
      </trkpt>
      <trkpt lat="60.73665" lon="4.9669">
        <ele>61.85978</ele>
        <time>2020-07-25T12:54:15.006Z</time>
      </trkpt>
      <trkpt lat="60.73675" lon="4.96679">
        <ele>62.474061</ele>
        <time>2020-07-25T12:54:18.000Z</time>
      </trkpt>
      <trkpt lat="60.73686" lon="4.96669">
        <ele>63.100972</ele>
        <time>2020-07-25T12:54:20.997Z</time>
      </trkpt>
      <trkpt lat="60.73696" lon="4.96657">
        <ele>63.740744</ele>
        <time>2020-07-25T12:54:24.000Z</time>
      </trkpt>
      <trkpt lat="60.73706" lon="4.96646">
        <ele>64.348532</ele>
        <time>2020-07-25T12:54:27.038Z</time>
      </trkpt>
      <trkpt lat="60.73716" lon="4.96634">
        <ele>64.976036</ele>
        <time>2020-07-25T12:54:29.994Z</time>
      </trkpt>
      <trkpt lat="60.73726" lon="4.96619">
        <ele>65.546609</ele>
        <time>2020-07-25T12:54:33.003Z</time>
      </trkpt>
      <trkpt lat="60.73737" lon="4.96604">
        <ele>65.844938</ele>
        <time>2020-07-25T12:54:36.027Z</time>
      </trkpt>
      <trkpt lat="60.73745" lon="4.96593">
        <ele>66.058291</ele>
        <time>2020-07-25T12:54:37.996Z</time>
      </trkpt>
      <trkpt lat="60.73753" lon="4.96582">
        <ele>66.272266</ele>
        <time>2020-07-25T12:54:39.995Z</time>
      </trkpt>
      <trkpt lat="60.73763" lon="4.96568">
        <ele>66.554277</ele>
        <time>2020-07-25T12:54:42.977Z</time>
      </trkpt>
      <trkpt lat="60.73772" lon="4.96557">
        <ele>66.792016</ele>
        <time>2020-07-25T12:54:46.006Z</time>
      </trkpt>
      <trkpt lat="60.73783" lon="4.96541">
        <ele>67.088368</ele>
        <time>2020-07-25T12:54:49.004Z</time>
      </trkpt>
      <trkpt lat="60.7379" lon="4.9653">
        <ele>67.297753</ele>
        <time>2020-07-25T12:54:51.011Z</time>
      </trkpt>
      <trkpt lat="60.738" lon="4.96514">
        <ele>67.580004</ele>
        <time>2020-07-25T12:54:53.988Z</time>
      </trkpt>
      <trkpt lat="60.73809" lon="4.96498">
        <ele>67.852797</ele>
        <time>2020-07-25T12:54:56.998Z</time>
      </trkpt>
      <trkpt lat="60.73819" lon="4.96483">
        <ele>68.125759</ele>
        <time>2020-07-25T12:54:59.990Z</time>
      </trkpt>
      <trkpt lat="60.73829" lon="4.9647">
        <ele>68.396503</ele>
        <time>2020-07-25T12:55:03.018Z</time>
      </trkpt>
      <trkpt lat="60.73838" lon="4.96455">
        <ele>68.663401</ele>
        <time>2020-07-25T12:55:06.044Z</time>
      </trkpt>
      <trkpt lat="60.73847" lon="4.96442">
        <ele>68.919173</ele>
        <time>2020-07-25T12:55:09.005Z</time>
      </trkpt>
      <trkpt lat="60.73856" lon="4.96429">
        <ele>69.162051</ele>
        <time>2020-07-25T12:55:12.005Z</time>
      </trkpt>
      <trkpt lat="60.73865" lon="4.96417">
        <ele>69.4079</ele>
        <time>2020-07-25T12:55:15.005Z</time>
      </trkpt>
      <trkpt lat="60.73874" lon="4.96404">
        <ele>69.619812</ele>
        <time>2020-07-25T12:55:17.988Z</time>
      </trkpt>
      <trkpt lat="60.73884" lon="4.96391">
        <ele>69.767096</ele>
        <time>2020-07-25T12:55:20.983Z</time>
      </trkpt>
      <trkpt lat="60.73893" lon="4.96379">
        <ele>69.91268</ele>
        <time>2020-07-25T12:55:24.047Z</time>
      </trkpt>
      <trkpt lat="60.73903" lon="4.96369">
        <ele>70.056075</ele>
        <time>2020-07-25T12:55:27.003Z</time>
      </trkpt>
      <trkpt lat="60.73913" lon="4.96358">
        <ele>70.201222</ele>
        <time>2020-07-25T12:55:30.007Z</time>
      </trkpt>
      <trkpt lat="60.73922" lon="4.96347">
        <ele>70.340664</ele>
        <time>2020-07-25T12:55:33.004Z</time>
      </trkpt>
      <trkpt lat="60.73931" lon="4.96335">
        <ele>70.482252</ele>
        <time>2020-07-25T12:55:35.993Z</time>
      </trkpt>
      <trkpt lat="60.73942" lon="4.96324">
        <ele>70.635783</ele>
        <time>2020-07-25T12:55:38.993Z</time>
      </trkpt>
      <trkpt lat="60.73952" lon="4.96314">
        <ele>70.78093</ele>
        <time>2020-07-25T12:55:41.996Z</time>
      </trkpt>
      <trkpt lat="60.73961" lon="4.96303">
        <ele>70.918922</ele>
        <time>2020-07-25T12:55:45.026Z</time>
      </trkpt>
      <trkpt lat="60.7397" lon="4.96292">
        <ele>71.059812</ele>
        <time>2020-07-25T12:55:48.015Z</time>
      </trkpt>
      <trkpt lat="60.7398" lon="4.96281">
        <ele>71.209916</ele>
        <time>2020-07-25T12:55:50.988Z</time>
      </trkpt>
      <trkpt lat="60.7399" lon="4.96271">
        <ele>71.353415</ele>
        <time>2020-07-25T12:55:53.987Z</time>
      </trkpt>
      <trkpt lat="60.74" lon="4.96262">
        <ele>71.492562</ele>
        <time>2020-07-25T12:55:56.992Z</time>
      </trkpt>
      <trkpt lat="60.74011" lon="4.96253">
        <ele>71.648726</ele>
        <time>2020-07-25T12:56:00.007Z</time>
      </trkpt>
      <trkpt lat="60.74022" lon="4.96244">
        <ele>71.793547</ele>
        <time>2020-07-25T12:56:03.023Z</time>
      </trkpt>
      <trkpt lat="60.74033" lon="4.96237">
        <ele>71.966029</ele>
        <time>2020-07-25T12:56:05.996Z</time>
      </trkpt>
      <trkpt lat="60.74044" lon="4.96228">
        <ele>72.176103</ele>
        <time>2020-07-25T12:56:08.980Z</time>
      </trkpt>
      <trkpt lat="60.74055" lon="4.96219">
        <ele>72.387118</ele>
        <time>2020-07-25T12:56:12.014Z</time>
      </trkpt>
      <trkpt lat="60.74066" lon="4.96208">
        <ele>72.599948</ele>
        <time>2020-07-25T12:56:15.020Z</time>
      </trkpt>
      <trkpt lat="60.74078" lon="4.96196">
        <ele>72.830942</ele>
        <time>2020-07-25T12:56:17.999Z</time>
      </trkpt>
      <trkpt lat="60.74089" lon="4.96184">
        <ele>73.060277</ele>
        <time>2020-07-25T12:56:21.002Z</time>
      </trkpt>
      <trkpt lat="60.741" lon="4.96173">
        <ele>73.271909</ele>
        <time>2020-07-25T12:56:23.992Z</time>
      </trkpt>
      <trkpt lat="60.7411" lon="4.96162">
        <ele>73.478054</ele>
        <time>2020-07-25T12:56:26.990Z</time>
      </trkpt>
      <trkpt lat="60.74121" lon="4.9615">
        <ele>73.692063</ele>
        <time>2020-07-25T12:56:29.994Z</time>
      </trkpt>
      <trkpt lat="60.74131" lon="4.96137">
        <ele>73.908962</ele>
        <time>2020-07-25T12:56:32.991Z</time>
      </trkpt>
      <trkpt lat="60.74143" lon="4.96125">
        <ele>74.135536</ele>
        <time>2020-07-25T12:56:35.989Z</time>
      </trkpt>
      <trkpt lat="60.74153" lon="4.96113">
        <ele>74.350666</ele>
        <time>2020-07-25T12:56:39.015Z</time>
      </trkpt>
      <trkpt lat="60.74164" lon="4.961">
        <ele>74.567322</ele>
        <time>2020-07-25T12:56:42.042Z</time>
      </trkpt>
      <trkpt lat="60.74173" lon="4.96087">
        <ele>74.774177</ele>
        <time>2020-07-25T12:56:44.990Z</time>
      </trkpt>
      <trkpt lat="60.74183" lon="4.96072">
        <ele>74.985061</ele>
        <time>2020-07-25T12:56:47.989Z</time>
      </trkpt>
      <trkpt lat="60.74193" lon="4.96057">
        <ele>75.079789</ele>
        <time>2020-07-25T12:56:51.000Z</time>
      </trkpt>
      <trkpt lat="60.74203" lon="4.96043">
        <ele>75.080675</ele>
        <time>2020-07-25T12:56:53.995Z</time>
      </trkpt>
      <trkpt lat="60.74212" lon="4.96027">
        <ele>75.081553</ele>
        <time>2020-07-25T12:56:56.985Z</time>
      </trkpt>
      <trkpt lat="60.7422" lon="4.96012">
        <ele>75.082416</ele>
        <time>2020-07-25T12:56:59.987Z</time>
      </trkpt>
      <trkpt lat="60.74229" lon="4.95995">
        <ele>75.083312</ele>
        <time>2020-07-25T12:57:03.007Z</time>
      </trkpt>
      <trkpt lat="60.74238" lon="4.95977">
        <ele>75.084214</ele>
        <time>2020-07-25T12:57:05.988Z</time>
      </trkpt>
      <trkpt lat="60.74247" lon="4.95961">
        <ele>75.085107</ele>
        <time>2020-07-25T12:57:08.996Z</time>
      </trkpt>
      <trkpt lat="60.74256" lon="4.95944">
        <ele>75.085989</ele>
        <time>2020-07-25T12:57:12.013Z</time>
      </trkpt>
      <trkpt lat="60.74264" lon="4.95927">
        <ele>75.086869</ele>
        <time>2020-07-25T12:57:14.994Z</time>
      </trkpt>
      <trkpt lat="60.74272" lon="4.9591">
        <ele>75.087719</ele>
        <time>2020-07-25T12:57:17.984Z</time>
      </trkpt>
      <trkpt lat="60.74281" lon="4.95893">
        <ele>75.088593</ele>
        <time>2020-07-25T12:57:21.000Z</time>
      </trkpt>
      <trkpt lat="60.74289" lon="4.95875">
        <ele>75.08947</ele>
        <time>2020-07-25T12:57:24.016Z</time>
      </trkpt>
      <trkpt lat="60.74297" lon="4.95858">
        <ele>75.090361</ele>
        <time>2020-07-25T12:57:26.987Z</time>
      </trkpt>
      <trkpt lat="60.74306" lon="4.95841">
        <ele>75.091243</ele>
        <time>2020-07-25T12:57:29.988Z</time>
      </trkpt>
      <trkpt lat="60.74314" lon="4.95822">
        <ele>75.092144</ele>
        <time>2020-07-25T12:57:33.016Z</time>
      </trkpt>
      <trkpt lat="60.74322" lon="4.95804">
        <ele>75.114844</ele>
        <time>2020-07-25T12:57:36.000Z</time>
      </trkpt>
      <trkpt lat="60.7433" lon="4.95787">
        <ele>75.156471</ele>
        <time>2020-07-25T12:57:38.986Z</time>
      </trkpt>
      <trkpt lat="60.74339" lon="4.9577">
        <ele>75.197605</ele>
        <time>2020-07-25T12:57:42.008Z</time>
      </trkpt>
      <trkpt lat="60.74346" lon="4.95754">
        <ele>75.236639</ele>
        <time>2020-07-25T12:57:44.987Z</time>
      </trkpt>
      <trkpt lat="60.74355" lon="4.95737">
        <ele>75.278018</ele>
        <time>2020-07-25T12:57:47.988Z</time>
      </trkpt>
      <trkpt lat="60.74364" lon="4.95718">
        <ele>75.323233</ele>
        <time>2020-07-25T12:57:50.993Z</time>
      </trkpt>
      <trkpt lat="60.74373" lon="4.957">
        <ele>75.368714</ele>
        <time>2020-07-25T12:57:53.995Z</time>
      </trkpt>
      <trkpt lat="60.74383" lon="4.95682">
        <ele>75.414879</ele>
        <time>2020-07-25T12:57:56.990Z</time>
      </trkpt>
      <trkpt lat="60.74393" lon="4.95665">
        <ele>75.461319</ele>
        <time>2020-07-25T12:57:59.993Z</time>
      </trkpt>
      <trkpt lat="60.74402" lon="4.95648">
        <ele>75.506122</ele>
        <time>2020-07-25T12:58:02.986Z</time>
      </trkpt>
      <trkpt lat="60.74413" lon="4.9563">
        <ele>75.553882</ele>
        <time>2020-07-25T12:58:06.019Z</time>
      </trkpt>
      <trkpt lat="60.7442" lon="4.95619">
        <ele>75.587213</ele>
        <time>2020-07-25T12:58:07.991Z</time>
      </trkpt>
      <trkpt lat="60.74429" lon="4.95606">
        <ele>75.624332</ele>
        <time>2020-07-25T12:58:10.008Z</time>
      </trkpt>
      <trkpt lat="60.74437" lon="4.95593">
        <ele>75.661244</ele>
        <time>2020-07-25T12:58:11.992Z</time>
      </trkpt>
      <trkpt lat="60.74445" lon="4.9558">
        <ele>75.698571</ele>
        <time>2020-07-25T12:58:13.990Z</time>
      </trkpt>
      <trkpt lat="60.74454" lon="4.95568">
        <ele>75.677136</ele>
        <time>2020-07-25T12:58:16.000Z</time>
      </trkpt>
      <trkpt lat="60.74465" lon="4.95558">
        <ele>75.42099</ele>
        <time>2020-07-25T12:58:18.003Z</time>
      </trkpt>
      <trkpt lat="60.74475" lon="4.95546">
        <ele>75.151454</ele>
        <time>2020-07-25T12:58:20.020Z</time>
      </trkpt>
      <trkpt lat="60.74486" lon="4.95533">
        <ele>74.866242</ele>
        <time>2020-07-25T12:58:22.032Z</time>
      </trkpt>
      <trkpt lat="60.74498" lon="4.95521">
        <ele>74.577754</ele>
        <time>2020-07-25T12:58:23.979Z</time>
      </trkpt>
      <trkpt lat="60.7451" lon="4.95509">
        <ele>74.282807</ele>
        <time>2020-07-25T12:58:26.010Z</time>
      </trkpt>
      <trkpt lat="60.74522" lon="4.95499">
        <ele>73.988616</ele>
        <time>2020-07-25T12:58:28.010Z</time>
      </trkpt>
      <trkpt lat="60.74535" lon="4.9549">
        <ele>73.670298</ele>
        <time>2020-07-25T12:58:29.996Z</time>
      </trkpt>
      <trkpt lat="60.7455" lon="4.95482">
        <ele>73.335413</ele>
        <time>2020-07-25T12:58:32.025Z</time>
      </trkpt>
      <trkpt lat="60.74564" lon="4.95475">
        <ele>73.00678</ele>
        <time>2020-07-25T12:58:33.983Z</time>
      </trkpt>
      <trkpt lat="60.74577" lon="4.95471">
        <ele>72.707227</ele>
        <time>2020-07-25T12:58:35.982Z</time>
      </trkpt>
      <trkpt lat="60.7459" lon="4.95467">
        <ele>72.413423</ele>
        <time>2020-07-25T12:58:38.001Z</time>
      </trkpt>
      <trkpt lat="60.74604" lon="4.95463">
        <ele>72.104369</ele>
        <time>2020-07-25T12:58:40.006Z</time>
      </trkpt>
      <trkpt lat="60.74618" lon="4.95462">
        <ele>71.783661</ele>
        <time>2020-07-25T12:58:42.003Z</time>
      </trkpt>
      <trkpt lat="60.74633" lon="4.95461">
        <ele>71.076381</ele>
        <time>2020-07-25T12:58:44.020Z</time>
      </trkpt>
      <trkpt lat="60.7465" lon="4.95463">
        <ele>70.118571</ele>
        <time>2020-07-25T12:58:45.994Z</time>
      </trkpt>
      <trkpt lat="60.74665" lon="4.95465">
        <ele>69.295136</ele>
        <time>2020-07-25T12:58:47.993Z</time>
      </trkpt>
      <trkpt lat="60.7468" lon="4.95467">
        <ele>68.447623</ele>
        <time>2020-07-25T12:58:50.033Z</time>
      </trkpt>
      <trkpt lat="60.74697" lon="4.9547">
        <ele>67.505901</ele>
        <time>2020-07-25T12:58:51.991Z</time>
      </trkpt>
      <trkpt lat="60.74714" lon="4.95473">
        <ele>66.590538</ele>
        <time>2020-07-25T12:58:53.981Z</time>
      </trkpt>
      <trkpt lat="60.7473" lon="4.95477">
        <ele>65.683642</ele>
        <time>2020-07-25T12:58:55.980Z</time>
      </trkpt>
      <trkpt lat="60.74746" lon="4.95482">
        <ele>64.750297</ele>
        <time>2020-07-25T12:58:58.000Z</time>
      </trkpt>
      <trkpt lat="60.74762" lon="4.95487">
        <ele>63.848134</ele>
        <time>2020-07-25T12:59:00.010Z</time>
      </trkpt>
      <trkpt lat="60.74778" lon="4.95493">
        <ele>62.950984</ele>
        <time>2020-07-25T12:59:01.973Z</time>
      </trkpt>
      <trkpt lat="60.74794" lon="4.955">
        <ele>62.056167</ele>
        <time>2020-07-25T12:59:04.011Z</time>
      </trkpt>
      <trkpt lat="60.7481" lon="4.95509">
        <ele>61.340585</ele>
        <time>2020-07-25T12:59:05.998Z</time>
      </trkpt>
      <trkpt lat="60.74825" lon="4.95516">
        <ele>60.773657</ele>
        <time>2020-07-25T12:59:08.011Z</time>
      </trkpt>
      <trkpt lat="60.74841" lon="4.95524">
        <ele>60.194636</ele>
        <time>2020-07-25T12:59:10.030Z</time>
      </trkpt>
      <trkpt lat="60.74857" lon="4.95531">
        <ele>59.624544</ele>
        <time>2020-07-25T12:59:12.044Z</time>
      </trkpt>
      <trkpt lat="60.74873" lon="4.95538">
        <ele>59.019362</ele>
        <time>2020-07-25T12:59:13.982Z</time>
      </trkpt>
      <trkpt lat="60.7489" lon="4.95543">
        <ele>58.423445</ele>
        <time>2020-07-25T12:59:16.002Z</time>
      </trkpt>
      <trkpt lat="60.74907" lon="4.95548">
        <ele>57.816138</ele>
        <time>2020-07-25T12:59:17.987Z</time>
      </trkpt>
      <trkpt lat="60.74923" lon="4.95554">
        <ele>57.236084</ele>
        <time>2020-07-25T12:59:20.003Z</time>
      </trkpt>
      <trkpt lat="60.74938" lon="4.9556">
        <ele>56.657783</ele>
        <time>2020-07-25T12:59:21.992Z</time>
      </trkpt>
      <trkpt lat="60.74953" lon="4.95565">
        <ele>56.129376</ele>
        <time>2020-07-25T12:59:23.989Z</time>
      </trkpt>
      <trkpt lat="60.74967" lon="4.9557">
        <ele>55.61133</ele>
        <time>2020-07-25T12:59:25.999Z</time>
      </trkpt>
      <trkpt lat="60.74982" lon="4.95577">
        <ele>55.156336</ele>
        <time>2020-07-25T12:59:27.996Z</time>
      </trkpt>
      <trkpt lat="60.74996" lon="4.95585">
        <ele>54.846902</ele>
        <time>2020-07-25T12:59:29.994Z</time>
      </trkpt>
      <trkpt lat="60.75011" lon="4.95591">
        <ele>54.533878</ele>
        <time>2020-07-25T12:59:32.013Z</time>
      </trkpt>
      <trkpt lat="60.75027" lon="4.95597">
        <ele>54.214073</ele>
        <time>2020-07-25T12:59:33.983Z</time>
      </trkpt>
      <trkpt lat="60.7504" lon="4.95602">
        <ele>53.932154</ele>
        <time>2020-07-25T12:59:35.992Z</time>
      </trkpt>
      <trkpt lat="60.75052" lon="4.95607">
        <ele>53.675602</ele>
        <time>2020-07-25T12:59:38.004Z</time>
      </trkpt>
      <trkpt lat="60.75064" lon="4.95612">
        <ele>53.425506</ele>
        <time>2020-07-25T12:59:40.009Z</time>
      </trkpt>
      <trkpt lat="60.75075" lon="4.95617">
        <ele>53.188847</ele>
        <time>2020-07-25T12:59:41.988Z</time>
      </trkpt>
      <trkpt lat="60.75086" lon="4.95622">
        <ele>52.959521</ele>
        <time>2020-07-25T12:59:44.019Z</time>
      </trkpt>
      <trkpt lat="60.75097" lon="4.95627">
        <ele>52.735116</ele>
        <time>2020-07-25T12:59:45.986Z</time>
      </trkpt>
      <trkpt lat="60.75107" lon="4.95632">
        <ele>52.524109</ele>
        <time>2020-07-25T12:59:48.012Z</time>
      </trkpt>
      <trkpt lat="60.75117" lon="4.95637">
        <ele>52.312111</ele>
        <time>2020-07-25T12:59:49.989Z</time>
      </trkpt>
      <trkpt lat="60.75126" lon="4.95641">
        <ele>52.112833</ele>
        <time>2020-07-25T12:59:52.032Z</time>
      </trkpt>
      <trkpt lat="60.75135" lon="4.95644">
        <ele>51.921494</ele>
        <time>2020-07-25T12:59:54.001Z</time>
      </trkpt>
      <trkpt lat="60.75144" lon="4.95647">
        <ele>51.734373</ele>
        <time>2020-07-25T12:59:55.988Z</time>
      </trkpt>
      <trkpt lat="60.75158" lon="4.9565">
        <ele>51.741918</ele>
        <time>2020-07-25T12:59:58.983Z</time>
      </trkpt>
      <trkpt lat="60.75168" lon="4.95653">
        <ele>52.052213</ele>
        <time>2020-07-25T13:00:01.020Z</time>
      </trkpt>
      <trkpt lat="60.75177" lon="4.95655">
        <ele>52.360837</ele>
        <time>2020-07-25T13:00:02.991Z</time>
      </trkpt>
      <trkpt lat="60.75187" lon="4.95655">
        <ele>52.67148</ele>
        <time>2020-07-25T13:00:04.997Z</time>
      </trkpt>
      <trkpt lat="60.75197" lon="4.95657">
        <ele>52.985729</ele>
        <time>2020-07-25T13:00:07.010Z</time>
      </trkpt>
      <trkpt lat="60.75207" lon="4.95657">
        <ele>53.305736</ele>
        <time>2020-07-25T13:00:09.008Z</time>
      </trkpt>
      <trkpt lat="60.75217" lon="4.95657">
        <ele>53.628931</ele>
        <time>2020-07-25T13:00:11.016Z</time>
      </trkpt>
      <trkpt lat="60.75227" lon="4.95657">
        <ele>53.948926</ele>
        <time>2020-07-25T13:00:12.986Z</time>
      </trkpt>
      <trkpt lat="60.75236" lon="4.95655">
        <ele>54.251338</ele>
        <time>2020-07-25T13:00:15.008Z</time>
      </trkpt>
      <trkpt lat="60.75245" lon="4.95653">
        <ele>54.541566</ele>
        <time>2020-07-25T13:00:16.989Z</time>
      </trkpt>
      <trkpt lat="60.75259" lon="4.9565">
        <ele>54.972912</ele>
        <time>2020-07-25T13:00:19.996Z</time>
      </trkpt>
      <trkpt lat="60.75268" lon="4.95648">
        <ele>55.268501</ele>
        <time>2020-07-25T13:00:22.006Z</time>
      </trkpt>
      <trkpt lat="60.7528" lon="4.95643">
        <ele>55.66203</ele>
        <time>2020-07-25T13:00:24.984Z</time>
      </trkpt>
      <trkpt lat="60.75291" lon="4.95638">
        <ele>56.033703</ele>
        <time>2020-07-25T13:00:28.016Z</time>
      </trkpt>
      <trkpt lat="60.75304" lon="4.95633">
        <ele>56.460702</ele>
        <time>2020-07-25T13:00:30.986Z</time>
      </trkpt>
      <trkpt lat="60.75316" lon="4.95629">
        <ele>56.829808</ele>
        <time>2020-07-25T13:00:33.021Z</time>
      </trkpt>
      <trkpt lat="60.75327" lon="4.95625">
        <ele>57.196503</ele>
        <time>2020-07-25T13:00:35.009Z</time>
      </trkpt>
      <trkpt lat="60.75337" lon="4.95622">
        <ele>57.986315</ele>
        <time>2020-07-25T13:00:37.007Z</time>
      </trkpt>
      <trkpt lat="60.75346" lon="4.95618">
        <ele>59.065214</ele>
        <time>2020-07-25T13:00:38.980Z</time>
      </trkpt>
      <trkpt lat="60.75358" lon="4.95613">
        <ele>60.453343</ele>
        <time>2020-07-25T13:00:41.993Z</time>
      </trkpt>
      <trkpt lat="60.75371" lon="4.95608">
        <ele>61.894192</ele>
        <time>2020-07-25T13:00:44.998Z</time>
      </trkpt>
      <trkpt lat="60.75383" lon="4.95604">
        <ele>63.243322</ele>
        <time>2020-07-25T13:00:47.998Z</time>
      </trkpt>
      <trkpt lat="60.75393" lon="4.95597">
        <ele>64.431983</ele>
        <time>2020-07-25T13:00:51.014Z</time>
      </trkpt>
      <trkpt lat="60.75404" lon="4.9559">
        <ele>65.727816</ele>
        <time>2020-07-25T13:00:55.005Z</time>
      </trkpt>
      <trkpt lat="60.75414" lon="4.95584">
        <ele>66.896748</ele>
        <time>2020-07-25T13:01:00.017Z</time>
      </trkpt>
      <trkpt lat="60.75424" lon="4.95578">
        <ele>68.019836</ele>
        <time>2020-07-25T13:01:03.992Z</time>
      </trkpt>
      <trkpt lat="60.75433" lon="4.95571">
        <ele>69.139586</ele>
        <time>2020-07-25T13:01:09.004Z</time>
      </trkpt>
      <trkpt lat="60.75443" lon="4.95566">
        <ele>70.229988</ele>
        <time>2020-07-25T13:01:14.003Z</time>
      </trkpt>
      <trkpt lat="60.75452" lon="4.95563">
        <ele>71.279528</ele>
        <time>2020-07-25T13:01:18.043Z</time>
      </trkpt>
      <trkpt lat="60.75462" lon="4.95564">
        <ele>72.330291</ele>
        <time>2020-07-25T13:01:24.005Z</time>
      </trkpt>
      <trkpt lat="60.75472" lon="4.95565">
        <ele>73.492425</ele>
        <time>2020-07-25T13:01:28.995Z</time>
      </trkpt>
      <trkpt lat="60.75482" lon="4.95563">
        <ele>74.638532</ele>
        <time>2020-07-25T13:01:34.991Z</time>
      </trkpt>
      <trkpt lat="60.75491" lon="4.9556">
        <ele>75.68501</ele>
        <time>2020-07-25T13:01:39.995Z</time>
      </trkpt>
      <trkpt lat="60.75501" lon="4.9556">
        <ele>76.745789</ele>
        <time>2020-07-25T13:01:44.983Z</time>
      </trkpt>
      <trkpt lat="60.75512" lon="4.95553">
        <ele>77.448546</ele>
        <time>2020-07-25T13:01:49.998Z</time>
      </trkpt>
      <trkpt lat="60.75521" lon="4.95544">
        <ele>77.559577</ele>
        <time>2020-07-25T13:01:54.020Z</time>
      </trkpt>
      <trkpt lat="60.75529" lon="4.95534">
        <ele>77.668251</ele>
        <time>2020-07-25T13:01:58.007Z</time>
      </trkpt>
      <trkpt lat="60.75537" lon="4.95524">
        <ele>77.77056</ele>
        <time>2020-07-25T13:02:01.987Z</time>
      </trkpt>
      <trkpt lat="60.75546" lon="4.95511">
        <ele>77.89169</ele>
        <time>2020-07-25T13:02:06.023Z</time>
      </trkpt>
      <trkpt lat="60.75552" lon="4.95497">
        <ele>77.995944</ele>
        <time>2020-07-25T13:02:08.992Z</time>
      </trkpt>
      <trkpt lat="60.7556" lon="4.95484">
        <ele>78.104997</ele>
        <time>2020-07-25T13:02:11.992Z</time>
      </trkpt>
      <trkpt lat="60.75568" lon="4.95469">
        <ele>78.222157</ele>
        <time>2020-07-25T13:02:14.984Z</time>
      </trkpt>
      <trkpt lat="60.75576" lon="4.95451">
        <ele>78.358111</ele>
        <time>2020-07-25T13:02:18.028Z</time>
      </trkpt>
      <trkpt lat="60.75584" lon="4.95436">
        <ele>78.47764</ele>
        <time>2020-07-25T13:02:21.015Z</time>
      </trkpt>
      <trkpt lat="60.75591" lon="4.95422">
        <ele>78.587304</ele>
        <time>2020-07-25T13:02:23.989Z</time>
      </trkpt>
      <trkpt lat="60.75598" lon="4.95407">
        <ele>78.702745</ele>
        <time>2020-07-25T13:02:26.991Z</time>
      </trkpt>
      <trkpt lat="60.75606" lon="4.9539">
        <ele>78.827103</ele>
        <time>2020-07-25T13:02:29.993Z</time>
      </trkpt>
      <trkpt lat="60.75614" lon="4.95373">
        <ele>78.956134</ele>
        <time>2020-07-25T13:02:32.991Z</time>
      </trkpt>
      <trkpt lat="60.75621" lon="4.95355">
        <ele>79.082259</ele>
        <time>2020-07-25T13:02:36.001Z</time>
      </trkpt>
      <trkpt lat="60.75628" lon="4.95336">
        <ele>79.208975</ele>
        <time>2020-07-25T13:02:39.006Z</time>
      </trkpt>
      <trkpt lat="60.75636" lon="4.95318">
        <ele>79.340173</ele>
        <time>2020-07-25T13:02:41.989Z</time>
      </trkpt>
      <trkpt lat="60.75643" lon="4.953">
        <ele>79.3961</ele>
        <time>2020-07-25T13:02:44.991Z</time>
      </trkpt>
      <trkpt lat="60.7565" lon="4.95283">
        <ele>79.417004</ele>
        <time>2020-07-25T13:02:48.016Z</time>
      </trkpt>
      <trkpt lat="60.75657" lon="4.9527">
        <ele>79.435189</ele>
        <time>2020-07-25T13:02:50.986Z</time>
      </trkpt>
      <trkpt lat="60.75664" lon="4.95253">
        <ele>79.455741</ele>
        <time>2020-07-25T13:02:54.984Z</time>
      </trkpt>
      <trkpt lat="60.75672" lon="4.95238">
        <ele>79.476167</ele>
        <time>2020-07-25T13:02:58.993Z</time>
      </trkpt>
      <trkpt lat="60.75678" lon="4.95221">
        <ele>79.496108</ele>
        <time>2020-07-25T13:03:03.013Z</time>
      </trkpt>
      <trkpt lat="60.75686" lon="4.95205">
        <ele>79.517235</ele>
        <time>2020-07-25T13:03:07.004Z</time>
      </trkpt>
      <trkpt lat="60.75694" lon="4.95187">
        <ele>79.540308</ele>
        <time>2020-07-25T13:03:10.984Z</time>
      </trkpt>
      <trkpt lat="60.75701" lon="4.95169">
        <ele>79.562245</ele>
        <time>2020-07-25T13:03:14.988Z</time>
      </trkpt>
      <trkpt lat="60.75707" lon="4.95155">
        <ele>79.579351</ele>
        <time>2020-07-25T13:03:17.992Z</time>
      </trkpt>
      <trkpt lat="60.75713" lon="4.95141">
        <ele>79.596737</ele>
        <time>2020-07-25T13:03:21.019Z</time>
      </trkpt>
      <trkpt lat="60.75721" lon="4.95127">
        <ele>79.616874</ele>
        <time>2020-07-25T13:03:24.022Z</time>
      </trkpt>
      <trkpt lat="60.7573" lon="4.95112">
        <ele>79.63814</ele>
        <time>2020-07-25T13:03:26.981Z</time>
      </trkpt>
      <trkpt lat="60.75739" lon="4.95095">
        <ele>79.661507</ele>
        <time>2020-07-25T13:03:30.008Z</time>
      </trkpt>
      <trkpt lat="60.75748" lon="4.95078">
        <ele>79.685772</ele>
        <time>2020-07-25T13:03:33.055Z</time>
      </trkpt>
      <trkpt lat="60.75755" lon="4.95067">
        <ele>79.703094</ele>
        <time>2020-07-25T13:03:34.985Z</time>
      </trkpt>
      <trkpt lat="60.75765" lon="4.9505">
        <ele>79.71783</ele>
        <time>2020-07-25T13:03:38.030Z</time>
      </trkpt>
      <trkpt lat="60.75774" lon="4.95033">
        <ele>79.549481</ele>
        <time>2020-07-25T13:03:41.031Z</time>
      </trkpt>
      <trkpt lat="60.75783" lon="4.95015">
        <ele>79.381296</ele>
        <time>2020-07-25T13:03:43.987Z</time>
      </trkpt>
      <trkpt lat="60.75791" lon="4.94997">
        <ele>79.210813</ele>
        <time>2020-07-25T13:03:46.989Z</time>
      </trkpt>
      <trkpt lat="60.758" lon="4.94979">
        <ele>79.044072</ele>
        <time>2020-07-25T13:03:49.990Z</time>
      </trkpt>
      <trkpt lat="60.75809" lon="4.94962">
        <ele>78.874962</ele>
        <time>2020-07-25T13:03:52.995Z</time>
      </trkpt>
      <trkpt lat="60.75818" lon="4.94943">
        <ele>78.698766</ele>
        <time>2020-07-25T13:03:56.025Z</time>
      </trkpt>
      <trkpt lat="60.75827" lon="4.94922">
        <ele>78.518575</ele>
        <time>2020-07-25T13:03:58.994Z</time>
      </trkpt>
      <trkpt lat="60.75833" lon="4.94908">
        <ele>78.392571</ele>
        <time>2020-07-25T13:04:01.007Z</time>
      </trkpt>
      <trkpt lat="60.75839" lon="4.94894">
        <ele>78.26718</ele>
        <time>2020-07-25T13:04:02.992Z</time>
      </trkpt>
      <trkpt lat="60.75845" lon="4.9488">
        <ele>78.140945</ele>
        <time>2020-07-25T13:04:05.060Z</time>
      </trkpt>
      <trkpt lat="60.75851" lon="4.94866">
        <ele>78.017205</ele>
        <time>2020-07-25T13:04:07.002Z</time>
      </trkpt>
      <trkpt lat="60.75857" lon="4.94851">
        <ele>77.894148</ele>
        <time>2020-07-25T13:04:08.988Z</time>
      </trkpt>
      <trkpt lat="60.75863" lon="4.94836">
        <ele>77.767829</ele>
        <time>2020-07-25T13:04:11.023Z</time>
      </trkpt>
      <trkpt lat="60.75869" lon="4.94822">
        <ele>77.643339</ele>
        <time>2020-07-25T13:04:12.996Z</time>
      </trkpt>
      <trkpt lat="60.75874" lon="4.94808">
        <ele>77.520111</ele>
        <time>2020-07-25T13:04:15.024Z</time>
      </trkpt>
      <trkpt lat="60.7588" lon="4.94794">
        <ele>77.394477</ele>
        <time>2020-07-25T13:04:16.976Z</time>
      </trkpt>
      <trkpt lat="60.75886" lon="4.94779">
        <ele>77.272444</ele>
        <time>2020-07-25T13:04:18.995Z</time>
      </trkpt>
      <trkpt lat="60.75893" lon="4.94763">
        <ele>77.221707</ele>
        <time>2020-07-25T13:04:20.988Z</time>
      </trkpt>
      <trkpt lat="60.75899" lon="4.94746">
        <ele>77.169283</ele>
        <time>2020-07-25T13:04:22.986Z</time>
      </trkpt>
      <trkpt lat="60.75906" lon="4.9473">
        <ele>77.119689</ele>
        <time>2020-07-25T13:04:25.037Z</time>
      </trkpt>
      <trkpt lat="60.75911" lon="4.94714">
        <ele>77.070553</ele>
        <time>2020-07-25T13:04:26.986Z</time>
      </trkpt>
      <trkpt lat="60.75917" lon="4.94698">
        <ele>77.021898</ele>
        <time>2020-07-25T13:04:29.007Z</time>
      </trkpt>
      <trkpt lat="60.75922" lon="4.94681">
        <ele>76.974624</ele>
        <time>2020-07-25T13:04:30.997Z</time>
      </trkpt>
      <trkpt lat="60.75927" lon="4.94666">
        <ele>76.929863</ele>
        <time>2020-07-25T13:04:32.986Z</time>
      </trkpt>
      <trkpt lat="60.75933" lon="4.9465">
        <ele>76.882592</ele>
        <time>2020-07-25T13:04:35.012Z</time>
      </trkpt>
      <trkpt lat="60.75939" lon="4.94635">
        <ele>76.835115</ele>
        <time>2020-07-25T13:04:36.992Z</time>
      </trkpt>
      <trkpt lat="60.75944" lon="4.94619">
        <ele>76.787451</ele>
        <time>2020-07-25T13:04:39.047Z</time>
      </trkpt>
      <trkpt lat="60.7595" lon="4.94604">
        <ele>76.742039</ele>
        <time>2020-07-25T13:04:40.986Z</time>
      </trkpt>
      <trkpt lat="60.75955" lon="4.94589">
        <ele>76.69673</ele>
        <time>2020-07-25T13:04:42.987Z</time>
      </trkpt>
      <trkpt lat="60.75963" lon="4.94567">
        <ele>76.630531</ele>
        <time>2020-07-25T13:04:45.987Z</time>
      </trkpt>
      <trkpt lat="60.7597" lon="4.94546">
        <ele>76.566975</ele>
        <time>2020-07-25T13:04:49.001Z</time>
      </trkpt>
      <trkpt lat="60.75978" lon="4.94526">
        <ele>76.507344</ele>
        <time>2020-07-25T13:04:51.997Z</time>
      </trkpt>
      <trkpt lat="60.75985" lon="4.94507">
        <ele>76.448871</ele>
        <time>2020-07-25T13:04:55.025Z</time>
      </trkpt>
      <trkpt lat="60.75991" lon="4.94488">
        <ele>76.390303</ele>
        <time>2020-07-25T13:04:58.000Z</time>
      </trkpt>
      <trkpt lat="60.75999" lon="4.94467">
        <ele>76.4143</ele>
        <time>2020-07-25T13:05:00.991Z</time>
      </trkpt>
      <trkpt lat="60.76006" lon="4.94446">
        <ele>76.45696</ele>
        <time>2020-07-25T13:05:04.011Z</time>
      </trkpt>
      <trkpt lat="60.76014" lon="4.94425">
        <ele>76.500289</ele>
        <time>2020-07-25T13:05:06.988Z</time>
      </trkpt>
      <trkpt lat="60.76021" lon="4.94404">
        <ele>76.54382</ele>
        <time>2020-07-25T13:05:09.989Z</time>
      </trkpt>
      <trkpt lat="60.76029" lon="4.94381">
        <ele>76.590442</ele>
        <time>2020-07-25T13:05:12.983Z</time>
      </trkpt>
      <trkpt lat="60.76037" lon="4.9436">
        <ele>76.634855</ele>
        <time>2020-07-25T13:05:16.029Z</time>
      </trkpt>
      <trkpt lat="60.76045" lon="4.94339">
        <ele>76.679595</ele>
        <time>2020-07-25T13:05:19.012Z</time>
      </trkpt>
      <trkpt lat="60.7605" lon="4.94324">
        <ele>76.710701</ele>
        <time>2020-07-25T13:05:21.009Z</time>
      </trkpt>
      <trkpt lat="60.76059" lon="4.94302">
        <ele>76.756817</ele>
        <time>2020-07-25T13:05:23.991Z</time>
      </trkpt>
      <trkpt lat="60.76065" lon="4.94288">
        <ele>76.788342</ele>
        <time>2020-07-25T13:05:26.025Z</time>
      </trkpt>
      <trkpt lat="60.76071" lon="4.94274">
        <ele>76.81994</ele>
        <time>2020-07-25T13:05:28.011Z</time>
      </trkpt>
      <trkpt lat="60.76077" lon="4.9426">
        <ele>76.851645</ele>
        <time>2020-07-25T13:05:29.993Z</time>
      </trkpt>
      <trkpt lat="60.76084" lon="4.94247">
        <ele>76.883871</ele>
        <time>2020-07-25T13:05:31.999Z</time>
      </trkpt>
      <trkpt lat="60.76092" lon="4.94233">
        <ele>76.917082</ele>
        <time>2020-07-25T13:05:34.017Z</time>
      </trkpt>
      <trkpt lat="60.761" lon="4.9422">
        <ele>76.952117</ele>
        <time>2020-07-25T13:05:35.987Z</time>
      </trkpt>
      <trkpt lat="60.76108" lon="4.94208">
        <ele>76.987055</ele>
        <time>2020-07-25T13:05:37.994Z</time>
      </trkpt>
      <trkpt lat="60.76116" lon="4.94195">
        <ele>77.088766</ele>
        <time>2020-07-25T13:05:40.026Z</time>
      </trkpt>
      <trkpt lat="60.76125" lon="4.94182">
        <ele>77.206178</ele>
        <time>2020-07-25T13:05:41.988Z</time>
      </trkpt>
      <trkpt lat="60.76135" lon="4.94169">
        <ele>77.329208</ele>
        <time>2020-07-25T13:05:43.985Z</time>
      </trkpt>
      <trkpt lat="60.76144" lon="4.94156">
        <ele>77.453735</ele>
        <time>2020-07-25T13:05:45.994Z</time>
      </trkpt>
      <trkpt lat="60.76153" lon="4.94144">
        <ele>77.572578</ele>
        <time>2020-07-25T13:05:47.988Z</time>
      </trkpt>
      <trkpt lat="60.76162" lon="4.9413">
        <ele>77.696803</ele>
        <time>2020-07-25T13:05:50.023Z</time>
      </trkpt>
      <trkpt lat="60.76172" lon="4.94116">
        <ele>77.822495</ele>
        <time>2020-07-25T13:05:51.986Z</time>
      </trkpt>
      <trkpt lat="60.76181" lon="4.94102">
        <ele>77.946248</ele>
        <time>2020-07-25T13:05:54.008Z</time>
      </trkpt>
      <trkpt lat="60.7619" lon="4.94088">
        <ele>78.07032</ele>
        <time>2020-07-25T13:05:55.987Z</time>
      </trkpt>
      <trkpt lat="60.76199" lon="4.94075">
        <ele>78.195496</ele>
        <time>2020-07-25T13:05:58.006Z</time>
      </trkpt>
      <trkpt lat="60.76209" lon="4.94062">
        <ele>78.320317</ele>
        <time>2020-07-25T13:05:59.983Z</time>
      </trkpt>
      <trkpt lat="60.76219" lon="4.94049">
        <ele>78.446068</ele>
        <time>2020-07-25T13:06:01.995Z</time>
      </trkpt>
      <trkpt lat="60.76228" lon="4.94036">
        <ele>78.569418</ele>
        <time>2020-07-25T13:06:03.991Z</time>
      </trkpt>
      <trkpt lat="60.76237" lon="4.94021">
        <ele>78.695767</ele>
        <time>2020-07-25T13:06:06.007Z</time>
      </trkpt>
      <trkpt lat="60.76247" lon="4.94008">
        <ele>78.822988</ele>
        <time>2020-07-25T13:06:07.992Z</time>
      </trkpt>
      <trkpt lat="60.76256" lon="4.93995">
        <ele>78.943619</ele>
        <time>2020-07-25T13:06:10.007Z</time>
      </trkpt>
      <trkpt lat="60.76265" lon="4.93982">
        <ele>78.926034</ele>
        <time>2020-07-25T13:06:11.984Z</time>
      </trkpt>
      <trkpt lat="60.76275" lon="4.9397">
        <ele>78.903169</ele>
        <time>2020-07-25T13:06:14.003Z</time>
      </trkpt>
      <trkpt lat="60.76284" lon="4.93958">
        <ele>78.881251</ele>
        <time>2020-07-25T13:06:15.987Z</time>
      </trkpt>
      <trkpt lat="60.76293" lon="4.93946">
        <ele>78.859069</ele>
        <time>2020-07-25T13:06:17.997Z</time>
      </trkpt>
      <trkpt lat="60.76302" lon="4.93932">
        <ele>78.836748</ele>
        <time>2020-07-25T13:06:20.006Z</time>
      </trkpt>
      <trkpt lat="60.76311" lon="4.93918">
        <ele>78.813533</ele>
        <time>2020-07-25T13:06:22.008Z</time>
      </trkpt>
      <trkpt lat="60.76319" lon="4.93904">
        <ele>78.790436</ele>
        <time>2020-07-25T13:06:24.008Z</time>
      </trkpt>
      <trkpt lat="60.76328" lon="4.93888">
        <ele>78.766554</ele>
        <time>2020-07-25T13:06:25.989Z</time>
      </trkpt>
      <trkpt lat="60.76336" lon="4.93871">
        <ele>78.742821</ele>
        <time>2020-07-25T13:06:28.003Z</time>
      </trkpt>
      <trkpt lat="60.76345" lon="4.93853">
        <ele>78.71796</ele>
        <time>2020-07-25T13:06:29.989Z</time>
      </trkpt>
      <trkpt lat="60.76352" lon="4.93834">
        <ele>78.693094</ele>
        <time>2020-07-25T13:06:31.995Z</time>
      </trkpt>
      <trkpt lat="60.76359" lon="4.93812">
        <ele>78.667371</ele>
        <time>2020-07-25T13:06:33.986Z</time>
      </trkpt>
      <trkpt lat="60.76366" lon="4.93789">
        <ele>78.640862</ele>
        <time>2020-07-25T13:06:35.995Z</time>
      </trkpt>
      <trkpt lat="60.76372" lon="4.93766">
        <ele>78.614538</ele>
        <time>2020-07-25T13:06:38.012Z</time>
      </trkpt>
      <trkpt lat="60.76378" lon="4.93742">
        <ele>78.587696</ele>
        <time>2020-07-25T13:06:39.993Z</time>
      </trkpt>
      <trkpt lat="60.76384" lon="4.93718">
        <ele>78.367199</ele>
        <time>2020-07-25T13:06:41.996Z</time>
      </trkpt>
      <trkpt lat="60.76389" lon="4.9369">
        <ele>78.062877</ele>
        <time>2020-07-25T13:06:43.988Z</time>
      </trkpt>
      <trkpt lat="60.76393" lon="4.93664">
        <ele>77.775581</ele>
        <time>2020-07-25T13:06:46.011Z</time>
      </trkpt>
      <trkpt lat="60.76395" lon="4.93639">
        <ele>77.511824</ele>
        <time>2020-07-25T13:06:47.988Z</time>
      </trkpt>
      <trkpt lat="60.76397" lon="4.93618">
        <ele>77.282474</ele>
        <time>2020-07-25T13:06:50.008Z</time>
      </trkpt>
      <trkpt lat="60.76399" lon="4.93599">
        <ele>77.075459</ele>
        <time>2020-07-25T13:06:51.985Z</time>
      </trkpt>
      <trkpt lat="60.76402" lon="4.93576">
        <ele>76.833272</ele>
        <time>2020-07-25T13:06:55.001Z</time>
      </trkpt>
      <trkpt lat="60.76405" lon="4.93556">
        <ele>76.61546</ele>
        <time>2020-07-25T13:06:58.003Z</time>
      </trkpt>
      <trkpt lat="60.76408" lon="4.93539">
        <ele>76.418079</ele>
        <time>2020-07-25T13:07:01.005Z</time>
      </trkpt>
      <trkpt lat="60.76411" lon="4.93516">
        <ele>76.169849</ele>
        <time>2020-07-25T13:07:05.017Z</time>
      </trkpt>
      <trkpt lat="60.76414" lon="4.93494">
        <ele>75.926122</ele>
        <time>2020-07-25T13:07:09.003Z</time>
      </trkpt>
      <trkpt lat="60.76417" lon="4.93473">
        <ele>75.705113</ele>
        <time>2020-07-25T13:07:12.996Z</time>
      </trkpt>
      <trkpt lat="60.76419" lon="4.93453">
        <ele>75.487911</ele>
        <time>2020-07-25T13:07:17.008Z</time>
      </trkpt>
      <trkpt lat="60.76422" lon="4.93432">
        <ele>75.255802</ele>
        <time>2020-07-25T13:07:20.985Z</time>
      </trkpt>
      <trkpt lat="60.76426" lon="4.93409">
        <ele>75.007191</ele>
        <time>2020-07-25T13:07:25.011Z</time>
      </trkpt>
      <trkpt lat="60.76428" lon="4.93391">
        <ele>74.808735</ele>
        <time>2020-07-25T13:07:28.015Z</time>
      </trkpt>
      <trkpt lat="60.7643" lon="4.93372">
        <ele>74.76521</ele>
        <time>2020-07-25T13:07:30.988Z</time>
      </trkpt>
      <trkpt lat="60.76432" lon="4.93352">
        <ele>74.860871</ele>
        <time>2020-07-25T13:07:34.024Z</time>
      </trkpt>
      <trkpt lat="60.76434" lon="4.93333">
        <ele>74.951842</ele>
        <time>2020-07-25T13:07:36.993Z</time>
      </trkpt>
      <trkpt lat="60.76437" lon="4.93315">
        <ele>75.040696</ele>
        <time>2020-07-25T13:07:40.007Z</time>
      </trkpt>
      <trkpt lat="60.76439" lon="4.93297">
        <ele>75.131306</ele>
        <time>2020-07-25T13:07:42.993Z</time>
      </trkpt>
      <trkpt lat="60.76443" lon="4.93274">
        <ele>75.242484</ele>
        <time>2020-07-25T13:07:46.998Z</time>
      </trkpt>
      <trkpt lat="60.76446" lon="4.93253">
        <ele>75.349437</ele>
        <time>2020-07-25T13:07:51.018Z</time>
      </trkpt>
      <trkpt lat="60.76448" lon="4.9323">
        <ele>75.457972</ele>
        <time>2020-07-25T13:07:55.017Z</time>
      </trkpt>
      <trkpt lat="60.76451" lon="4.93209">
        <ele>75.56029</ele>
        <time>2020-07-25T13:07:59.008Z</time>
      </trkpt>
      <trkpt lat="60.76453" lon="4.93186">
        <ele>75.675327</ele>
        <time>2020-07-25T13:08:02.983Z</time>
      </trkpt>
      <trkpt lat="60.76457" lon="4.93166">
        <ele>75.775705</ele>
        <time>2020-07-25T13:08:05.996Z</time>
      </trkpt>
      <trkpt lat="60.7646" lon="4.93144">
        <ele>75.884033</ele>
        <time>2020-07-25T13:08:08.990Z</time>
      </trkpt>
      <trkpt lat="60.76463" lon="4.93121">
        <ele>75.995521</ele>
        <time>2020-07-25T13:08:12.015Z</time>
      </trkpt>
      <trkpt lat="60.76466" lon="4.93099">
        <ele>76.107096</ele>
        <time>2020-07-25T13:08:14.987Z</time>
      </trkpt>
      <trkpt lat="60.7647" lon="4.93074">
        <ele>76.228061</ele>
        <time>2020-07-25T13:08:18.017Z</time>
      </trkpt>
      <trkpt lat="60.76472" lon="4.93056">
        <ele>76.317194</ele>
        <time>2020-07-25T13:08:20.014Z</time>
      </trkpt>
      <trkpt lat="60.76475" lon="4.93038">
        <ele>76.404814</ele>
        <time>2020-07-25T13:08:21.988Z</time>
      </trkpt>
      <trkpt lat="60.76478" lon="4.9302">
        <ele>76.304546</ele>
        <time>2020-07-25T13:08:24.004Z</time>
      </trkpt>
      <trkpt lat="60.76482" lon="4.93">
        <ele>75.930697</ele>
        <time>2020-07-25T13:08:25.977Z</time>
      </trkpt>
      <trkpt lat="60.76485" lon="4.92978">
        <ele>75.522354</ele>
        <time>2020-07-25T13:08:28.011Z</time>
      </trkpt>
      <trkpt lat="60.76488" lon="4.92955">
        <ele>75.104769</ele>
        <time>2020-07-25T13:08:29.999Z</time>
      </trkpt>
      <trkpt lat="60.76491" lon="4.9293">
        <ele>74.649978</ele>
        <time>2020-07-25T13:08:32.002Z</time>
      </trkpt>
      <trkpt lat="60.76495" lon="4.92903">
        <ele>74.150551</ele>
        <time>2020-07-25T13:08:33.985Z</time>
      </trkpt>
      <trkpt lat="60.76498" lon="4.92877">
        <ele>73.668311</ele>
        <time>2020-07-25T13:08:35.987Z</time>
      </trkpt>
      <trkpt lat="60.76502" lon="4.92851">
        <ele>73.183371</ele>
        <time>2020-07-25T13:08:37.987Z</time>
      </trkpt>
      <trkpt lat="60.76506" lon="4.92825">
        <ele>72.691667</ele>
        <time>2020-07-25T13:08:40.016Z</time>
      </trkpt>
      <trkpt lat="60.7651" lon="4.92799">
        <ele>72.21534</ele>
        <time>2020-07-25T13:08:41.983Z</time>
      </trkpt>
      <trkpt lat="60.76513" lon="4.92773">
        <ele>71.744154</ele>
        <time>2020-07-25T13:08:43.984Z</time>
      </trkpt>
      <trkpt lat="60.76516" lon="4.92748">
        <ele>71.278405</ele>
        <time>2020-07-25T13:08:45.985Z</time>
      </trkpt>
      <trkpt lat="60.76519" lon="4.92722">
        <ele>70.807298</ele>
        <time>2020-07-25T13:08:47.987Z</time>
      </trkpt>
      <trkpt lat="60.76522" lon="4.92696">
        <ele>70.33379</ele>
        <time>2020-07-25T13:08:49.991Z</time>
      </trkpt>
      <trkpt lat="60.76523" lon="4.92669">
        <ele>69.857344</ele>
        <time>2020-07-25T13:08:51.990Z</time>
      </trkpt>
      <trkpt lat="60.76523" lon="4.92643">
        <ele>69.431825</ele>
        <time>2020-07-25T13:08:54.019Z</time>
      </trkpt>
      <trkpt lat="60.76522" lon="4.92616">
        <ele>69.005785</ele>
        <time>2020-07-25T13:08:56.023Z</time>
      </trkpt>
      <trkpt lat="60.7652" lon="4.9259">
        <ele>68.580008</ele>
        <time>2020-07-25T13:08:58.003Z</time>
      </trkpt>
      <trkpt lat="60.76517" lon="4.92565">
        <ele>68.169303</ele>
        <time>2020-07-25T13:08:59.999Z</time>
      </trkpt>
      <trkpt lat="60.76514" lon="4.92541">
        <ele>67.775964</ele>
        <time>2020-07-25T13:09:02.004Z</time>
      </trkpt>
      <trkpt lat="60.76511" lon="4.92519">
        <ele>67.40736</ele>
        <time>2020-07-25T13:09:04.020Z</time>
      </trkpt>
      <trkpt lat="60.76507" lon="4.92497">
        <ele>67.039689</ele>
        <time>2020-07-25T13:09:06.010Z</time>
      </trkpt>
      <trkpt lat="60.76503" lon="4.92476">
        <ele>66.667493</ele>
        <time>2020-07-25T13:09:07.992Z</time>
      </trkpt>
      <trkpt lat="60.765" lon="4.92454">
        <ele>66.300872</ele>
        <time>2020-07-25T13:09:10.013Z</time>
      </trkpt>
      <trkpt lat="60.76495" lon="4.92434">
        <ele>65.955555</ele>
        <time>2020-07-25T13:09:12.004Z</time>
      </trkpt>
      <trkpt lat="60.76491" lon="4.92412">
        <ele>65.585387</ele>
        <time>2020-07-25T13:09:13.983Z</time>
      </trkpt>
      <trkpt lat="60.76487" lon="4.9239">
        <ele>65.193223</ele>
        <time>2020-07-25T13:09:15.994Z</time>
      </trkpt>
      <trkpt lat="60.76482" lon="4.92367">
        <ele>64.803035</ele>
        <time>2020-07-25T13:09:18.026Z</time>
      </trkpt>
      <trkpt lat="60.76477" lon="4.92344">
        <ele>64.406937</ele>
        <time>2020-07-25T13:09:19.990Z</time>
      </trkpt>
      <trkpt lat="60.76473" lon="4.92321">
        <ele>64.018763</ele>
        <time>2020-07-25T13:09:21.997Z</time>
      </trkpt>
      <trkpt lat="60.76468" lon="4.92298">
        <ele>64.160233</ele>
        <time>2020-07-25T13:09:23.981Z</time>
      </trkpt>
      <trkpt lat="60.76463" lon="4.92277">
        <ele>64.290821</ele>
        <time>2020-07-25T13:09:26.031Z</time>
      </trkpt>
      <trkpt lat="60.76459" lon="4.92255">
        <ele>64.425443</ele>
        <time>2020-07-25T13:09:28.007Z</time>
      </trkpt>
      <trkpt lat="60.76455" lon="4.92233">
        <ele>64.55839</ele>
        <time>2020-07-25T13:09:29.997Z</time>
      </trkpt>
      <trkpt lat="60.7645" lon="4.92211">
        <ele>64.692735</ele>
        <time>2020-07-25T13:09:31.982Z</time>
      </trkpt>
      <trkpt lat="60.76445" lon="4.92189">
        <ele>64.829921</ele>
        <time>2020-07-25T13:09:33.980Z</time>
      </trkpt>
      <trkpt lat="60.7644" lon="4.92166">
        <ele>64.970284</ele>
        <time>2020-07-25T13:09:36.011Z</time>
      </trkpt>
      <trkpt lat="60.76437" lon="4.92143">
        <ele>65.108484</ele>
        <time>2020-07-25T13:09:37.989Z</time>
      </trkpt>
      <trkpt lat="60.76432" lon="4.9212">
        <ele>65.243349</ele>
        <time>2020-07-25T13:09:40.012Z</time>
      </trkpt>
      <trkpt lat="60.76427" lon="4.92098">
        <ele>65.37918</ele>
        <time>2020-07-25T13:09:41.995Z</time>
      </trkpt>
      <trkpt lat="60.76423" lon="4.92075">
        <ele>65.520579</ele>
        <time>2020-07-25T13:09:44.031Z</time>
      </trkpt>
      <trkpt lat="60.76419" lon="4.92052">
        <ele>65.656441</ele>
        <time>2020-07-25T13:09:46.014Z</time>
      </trkpt>
      <trkpt lat="60.76416" lon="4.92032">
        <ele>65.776547</ele>
        <time>2020-07-25T13:09:47.988Z</time>
      </trkpt>
      <trkpt lat="60.76414" lon="4.92011">
        <ele>65.894278</ele>
        <time>2020-07-25T13:09:50.001Z</time>
      </trkpt>
      <trkpt lat="60.76412" lon="4.91991">
        <ele>66.013685</ele>
        <time>2020-07-25T13:09:52.007Z</time>
      </trkpt>
      <trkpt lat="60.76411" lon="4.91967">
        <ele>66.131519</ele>
        <time>2020-07-25T13:09:54.007Z</time>
      </trkpt>
      <trkpt lat="60.7641" lon="4.91943">
        <ele>66.227148</ele>
        <time>2020-07-25T13:09:56.001Z</time>
      </trkpt>
      <trkpt lat="60.76411" lon="4.91921">
        <ele>66.31391</ele>
        <time>2020-07-25T13:09:58.004Z</time>
      </trkpt>
      <trkpt lat="60.76411" lon="4.91901">
        <ele>66.396121</ele>
        <time>2020-07-25T13:10:00.004Z</time>
      </trkpt>
      <trkpt lat="60.76412" lon="4.91882">
        <ele>66.470364</ele>
        <time>2020-07-25T13:10:02.003Z</time>
      </trkpt>
      <trkpt lat="60.76413" lon="4.91857">
        <ele>66.57263</ele>
        <time>2020-07-25T13:10:04.992Z</time>
      </trkpt>
      <trkpt lat="60.76414" lon="4.91833">
        <ele>66.666347</ele>
        <time>2020-07-25T13:10:08.030Z</time>
      </trkpt>
      <trkpt lat="60.76415" lon="4.91812">
        <ele>66.752496</ele>
        <time>2020-07-25T13:10:10.998Z</time>
      </trkpt>
      <trkpt lat="60.76417" lon="4.91791">
        <ele>66.835485</ele>
        <time>2020-07-25T13:10:14.029Z</time>
      </trkpt>
      <trkpt lat="60.76418" lon="4.91767">
        <ele>66.933696</ele>
        <time>2020-07-25T13:10:16.984Z</time>
      </trkpt>
      <trkpt lat="60.7642" lon="4.91742">
        <ele>67.036275</ele>
        <time>2020-07-25T13:10:20.007Z</time>
      </trkpt>
      <trkpt lat="60.76421" lon="4.91718">
        <ele>67.132564</ele>
        <time>2020-07-25T13:10:22.995Z</time>
      </trkpt>
      <trkpt lat="60.76423" lon="4.91694">
        <ele>67.228574</ele>
        <time>2020-07-25T13:10:25.984Z</time>
      </trkpt>
      <trkpt lat="60.76424" lon="4.91669">
        <ele>67.329476</ele>
        <time>2020-07-25T13:10:29.005Z</time>
      </trkpt>
      <trkpt lat="60.76426" lon="4.91643">
        <ele>67.434199</ele>
        <time>2020-07-25T13:10:31.995Z</time>
      </trkpt>
      <trkpt lat="60.76427" lon="4.91616">
        <ele>67.542578</ele>
        <time>2020-07-25T13:10:34.995Z</time>
      </trkpt>
      <trkpt lat="60.76428" lon="4.91597">
        <ele>67.407803</ele>
        <time>2020-07-25T13:10:37.024Z</time>
      </trkpt>
      <trkpt lat="60.76429" lon="4.91577">
        <ele>67.198128</ele>
        <time>2020-07-25T13:10:39.013Z</time>
      </trkpt>
      <trkpt lat="60.76432" lon="4.91557">
        <ele>66.978519</ele>
        <time>2020-07-25T13:10:41.015Z</time>
      </trkpt>
      <trkpt lat="60.76437" lon="4.91538">
        <ele>66.743917</ele>
        <time>2020-07-25T13:10:42.987Z</time>
      </trkpt>
      <trkpt lat="60.76446" lon="4.91523">
        <ele>66.495978</ele>
        <time>2020-07-25T13:10:45.010Z</time>
      </trkpt>
      <trkpt lat="60.76456" lon="4.91514">
        <ele>66.250075</ele>
        <time>2020-07-25T13:10:47.037Z</time>
      </trkpt>
      <trkpt lat="60.76467" lon="4.91516">
        <ele>66.013711</ele>
        <time>2020-07-25T13:10:48.985Z</time>
      </trkpt>
      <trkpt lat="60.76477" lon="4.91522">
        <ele>65.778915</ele>
        <time>2020-07-25T13:10:50.998Z</time>
      </trkpt>
      <trkpt lat="60.76488" lon="4.91529">
        <ele>65.541846</ele>
        <time>2020-07-25T13:10:52.990Z</time>
      </trkpt>
      <trkpt lat="60.76499" lon="4.91537">
        <ele>65.278248</ele>
        <time>2020-07-25T13:10:55.010Z</time>
      </trkpt>
      <trkpt lat="60.76511" lon="4.91545">
        <ele>65.002295</ele>
        <time>2020-07-25T13:10:56.994Z</time>
      </trkpt>
      <trkpt lat="60.76524" lon="4.91553">
        <ele>64.715465</ele>
        <time>2020-07-25T13:10:58.995Z</time>
      </trkpt>
      <trkpt lat="60.76537" lon="4.91559">
        <ele>64.420747</ele>
        <time>2020-07-25T13:11:01.018Z</time>
      </trkpt>
      <trkpt lat="60.76551" lon="4.91564">
        <ele>64.111931</ele>
        <time>2020-07-25T13:11:02.993Z</time>
      </trkpt>
      <trkpt lat="60.76563" lon="4.91567">
        <ele>63.8333</ele>
        <time>2020-07-25T13:11:05.003Z</time>
      </trkpt>
      <trkpt lat="60.76575" lon="4.91568">
        <ele>63.536262</ele>
        <time>2020-07-25T13:11:07.013Z</time>
      </trkpt>
      <trkpt lat="60.76587" lon="4.91567">
        <ele>63.008232</ele>
        <time>2020-07-25T13:11:09.994Z</time>
      </trkpt>
      <trkpt lat="60.766" lon="4.91565">
        <ele>62.461431</ele>
        <time>2020-07-25T13:11:12.993Z</time>
      </trkpt>
      <trkpt lat="60.76609" lon="4.91563">
        <ele>62.07149</ele>
        <time>2020-07-25T13:11:14.992Z</time>
      </trkpt>
      <trkpt lat="60.76621" lon="4.91557">
        <ele>61.514146</ele>
        <time>2020-07-25T13:11:18.008Z</time>
      </trkpt>
      <trkpt lat="60.76631" lon="4.91552">
        <ele>61.09116</ele>
        <time>2020-07-25T13:11:20.005Z</time>
      </trkpt>
      <trkpt lat="60.76641" lon="4.91547">
        <ele>60.638104</ele>
        <time>2020-07-25T13:11:22.007Z</time>
      </trkpt>
      <trkpt lat="60.76652" lon="4.9154">
        <ele>60.158678</ele>
        <time>2020-07-25T13:11:23.982Z</time>
      </trkpt>
      <trkpt lat="60.76663" lon="4.91534">
        <ele>59.657322</ele>
        <time>2020-07-25T13:11:25.997Z</time>
      </trkpt>
      <trkpt lat="60.76675" lon="4.9153">
        <ele>59.13431</ele>
        <time>2020-07-25T13:11:27.998Z</time>
      </trkpt>
      <trkpt lat="60.76688" lon="4.91529">
        <ele>58.59371</ele>
        <time>2020-07-25T13:11:29.991Z</time>
      </trkpt>
      <trkpt lat="60.767" lon="4.91536">
        <ele>58.063103</ele>
        <time>2020-07-25T13:11:31.991Z</time>
      </trkpt>
      <trkpt lat="60.76709" lon="4.91552">
        <ele>57.544576</ele>
        <time>2020-07-25T13:11:33.985Z</time>
      </trkpt>
      <trkpt lat="60.76717" lon="4.91567">
        <ele>57.062952</ele>
        <time>2020-07-25T13:11:36.016Z</time>
      </trkpt>
      <trkpt lat="60.76728" lon="4.91581">
        <ele>56.521549</ele>
        <time>2020-07-25T13:11:37.995Z</time>
      </trkpt>
      <trkpt lat="60.7674" lon="4.91598">
        <ele>55.920872</ele>
        <time>2020-07-25T13:11:40.011Z</time>
      </trkpt>
      <trkpt lat="60.7675" lon="4.9162">
        <ele>55.838755</ele>
        <time>2020-07-25T13:11:41.987Z</time>
      </trkpt>
      <trkpt lat="60.76759" lon="4.91645">
        <ele>55.753212</ele>
        <time>2020-07-25T13:11:44.007Z</time>
      </trkpt>
      <trkpt lat="60.7677" lon="4.91668">
        <ele>55.663126</ele>
        <time>2020-07-25T13:11:46.016Z</time>
      </trkpt>
      <trkpt lat="60.76783" lon="4.91691">
        <ele>55.569754</ele>
        <time>2020-07-25T13:11:48.018Z</time>
      </trkpt>
      <trkpt lat="60.76795" lon="4.91712">
        <ele>55.482856</ele>
        <time>2020-07-25T13:11:49.983Z</time>
      </trkpt>
      <trkpt lat="60.76806" lon="4.91731">
        <ele>55.403033</ele>
        <time>2020-07-25T13:11:51.996Z</time>
      </trkpt>
      <trkpt lat="60.76816" lon="4.91748">
        <ele>55.327986</ele>
        <time>2020-07-25T13:11:54.035Z</time>
      </trkpt>
      <trkpt lat="60.76825" lon="4.91763">
        <ele>55.261914</ele>
        <time>2020-07-25T13:11:55.996Z</time>
      </trkpt>
      <trkpt lat="60.76833" lon="4.91774">
        <ele>55.208699</ele>
        <time>2020-07-25T13:11:57.990Z</time>
      </trkpt>
      <trkpt lat="60.76845" lon="4.91769">
        <ele>55.144891</ele>
        <time>2020-07-25T13:12:00.995Z</time>
      </trkpt>
      <trkpt lat="60.76853" lon="4.9176">
        <ele>55.092575</ele>
        <time>2020-07-25T13:12:02.985Z</time>
      </trkpt>
      <trkpt lat="60.76863" lon="4.91767">
        <ele>55.032175</ele>
        <time>2020-07-25T13:12:05.999Z</time>
      </trkpt>
      <trkpt lat="60.7687" lon="4.91781">
        <ele>54.97795</ele>
        <time>2020-07-25T13:12:10.001Z</time>
      </trkpt>
      <trkpt lat="60.76878" lon="4.91798">
        <ele>54.950724</ele>
        <time>2020-07-25T13:12:14.989Z</time>
      </trkpt>
      <trkpt lat="60.76884" lon="4.91813">
        <ele>55.296018</ele>
        <time>2020-07-25T13:12:18.017Z</time>
      </trkpt>
      <trkpt lat="60.76888" lon="4.9183">
        <ele>55.662578</ele>
        <time>2020-07-25T13:12:20.995Z</time>
      </trkpt>
      <trkpt lat="60.76893" lon="4.91849">
        <ele>56.049663</ele>
        <time>2020-07-25T13:12:23.985Z</time>
      </trkpt>
      <trkpt lat="60.769" lon="4.91868">
        <ele>56.487153</ele>
        <time>2020-07-25T13:12:26.991Z</time>
      </trkpt>
      <trkpt lat="60.7691" lon="4.91884">
        <ele>56.957247</ele>
        <time>2020-07-25T13:12:30.008Z</time>
      </trkpt>
      <trkpt lat="60.7692" lon="4.91899">
        <ele>57.418455</ele>
        <time>2020-07-25T13:12:32.990Z</time>
      </trkpt>
      <trkpt lat="60.76928" lon="4.91913">
        <ele>57.843757</ele>
        <time>2020-07-25T13:12:35.985Z</time>
      </trkpt>
      <trkpt lat="60.76938" lon="4.91927">
        <ele>58.279953</ele>
        <time>2020-07-25T13:12:38.993Z</time>
      </trkpt>
      <trkpt lat="60.76945" lon="4.91943">
        <ele>58.688212</ele>
        <time>2020-07-25T13:12:42.017Z</time>
      </trkpt>
      <trkpt lat="60.76953" lon="4.91957">
        <ele>59.088504</ele>
        <time>2020-07-25T13:12:44.990Z</time>
      </trkpt>
      <trkpt lat="60.76961" lon="4.91972">
        <ele>59.477028</ele>
        <time>2020-07-25T13:12:48.051Z</time>
      </trkpt>
      <trkpt lat="60.76968" lon="4.91984">
        <ele>59.815995</ele>
        <time>2020-07-25T13:12:50.988Z</time>
      </trkpt>
      <trkpt lat="60.76975" lon="4.91994">
        <ele>60.162619</ele>
        <time>2020-07-25T13:12:53.982Z</time>
      </trkpt>
      <trkpt lat="60.76983" lon="4.92006">
        <ele>60.522784</ele>
        <time>2020-07-25T13:12:56.994Z</time>
      </trkpt>
      <trkpt lat="60.7699" lon="4.92018">
        <ele>60.874538</ele>
        <time>2020-07-25T13:12:59.991Z</time>
      </trkpt>
      <trkpt lat="60.76998" lon="4.92029">
        <ele>61.218152</ele>
        <time>2020-07-25T13:13:03.005Z</time>
      </trkpt>
      <trkpt lat="60.77006" lon="4.92039">
        <ele>61.588169</ele>
        <time>2020-07-25T13:13:05.990Z</time>
      </trkpt>
      <trkpt lat="60.77015" lon="4.92048">
        <ele>61.714204</ele>
        <time>2020-07-25T13:13:09.001Z</time>
      </trkpt>
      <trkpt lat="60.77025" lon="4.92057">
        <ele>61.739299</ele>
        <time>2020-07-25T13:13:11.986Z</time>
      </trkpt>
      <trkpt lat="60.77035" lon="4.92063">
        <ele>61.763098</ele>
        <time>2020-07-25T13:13:14.994Z</time>
      </trkpt>
      <trkpt lat="60.77044" lon="4.92066">
        <ele>61.785318</ele>
        <time>2020-07-25T13:13:17.983Z</time>
      </trkpt>
      <trkpt lat="60.77054" lon="4.92069">
        <ele>61.808026</ele>
        <time>2020-07-25T13:13:20.990Z</time>
      </trkpt>
      <trkpt lat="60.77064" lon="4.92069">
        <ele>61.831741</ele>
        <time>2020-07-25T13:13:23.976Z</time>
      </trkpt>
      <trkpt lat="60.77074" lon="4.92068">
        <ele>61.855025</ele>
        <time>2020-07-25T13:13:26.985Z</time>
      </trkpt>
      <trkpt lat="60.77084" lon="4.92066">
        <ele>61.877517</ele>
        <time>2020-07-25T13:13:30.001Z</time>
      </trkpt>
      <trkpt lat="60.77094" lon="4.92064">
        <ele>61.901094</ele>
        <time>2020-07-25T13:13:33.000Z</time>
      </trkpt>
      <trkpt lat="60.77104" lon="4.92063">
        <ele>61.924154</ele>
        <time>2020-07-25T13:13:36.004Z</time>
      </trkpt>
      <trkpt lat="60.77115" lon="4.92061">
        <ele>61.94791</ele>
        <time>2020-07-25T13:13:38.993Z</time>
      </trkpt>
      <trkpt lat="60.77125" lon="4.9206">
        <ele>61.971896</ele>
        <time>2020-07-25T13:13:41.995Z</time>
      </trkpt>
      <trkpt lat="60.77135" lon="4.92058">
        <ele>61.995474</ele>
        <time>2020-07-25T13:13:45.021Z</time>
      </trkpt>
      <trkpt lat="60.77145" lon="4.92058">
        <ele>62.018731</ele>
        <time>2020-07-25T13:13:48.010Z</time>
      </trkpt>
      <trkpt lat="60.77155" lon="4.92059">
        <ele>62.042027</ele>
        <time>2020-07-25T13:13:51.014Z</time>
      </trkpt>
      <trkpt lat="60.77166" lon="4.92064">
        <ele>62.065974</ele>
        <time>2020-07-25T13:13:53.993Z</time>
      </trkpt>
      <trkpt lat="60.77175" lon="4.92071">
        <ele>62.089068</ele>
        <time>2020-07-25T13:13:56.990Z</time>
      </trkpt>
      <trkpt lat="60.77184" lon="4.92079">
        <ele>62.118856</ele>
        <time>2020-07-25T13:13:59.991Z</time>
      </trkpt>
      <trkpt lat="60.77194" lon="4.9209">
        <ele>62.419919</ele>
        <time>2020-07-25T13:14:02.993Z</time>
      </trkpt>
      <trkpt lat="60.77202" lon="4.92102">
        <ele>62.716934</ele>
        <time>2020-07-25T13:14:05.994Z</time>
      </trkpt>
      <trkpt lat="60.7721" lon="4.92117">
        <ele>63.023939</ele>
        <time>2020-07-25T13:14:08.987Z</time>
      </trkpt>
      <trkpt lat="60.77219" lon="4.92132">
        <ele>63.347683</ele>
        <time>2020-07-25T13:14:11.981Z</time>
      </trkpt>
      <trkpt lat="60.77228" lon="4.92146">
        <ele>63.657365</ele>
        <time>2020-07-25T13:14:14.998Z</time>
      </trkpt>
      <trkpt lat="60.77236" lon="4.92159">
        <ele>63.957961</ele>
        <time>2020-07-25T13:14:17.999Z</time>
      </trkpt>
      <trkpt lat="60.77244" lon="4.92172">
        <ele>64.247581</ele>
        <time>2020-07-25T13:14:20.996Z</time>
      </trkpt>
      <trkpt lat="60.77252" lon="4.92184">
        <ele>64.533262</ele>
        <time>2020-07-25T13:14:23.995Z</time>
      </trkpt>
      <trkpt lat="60.7726" lon="4.92196">
        <ele>64.814167</ele>
        <time>2020-07-25T13:14:26.992Z</time>
      </trkpt>
      <trkpt lat="60.77268" lon="4.92209">
        <ele>65.094501</ele>
        <time>2020-07-25T13:14:29.981Z</time>
      </trkpt>
      <trkpt lat="60.77275" lon="4.92222">
        <ele>65.381033</ele>
        <time>2020-07-25T13:14:33.034Z</time>
      </trkpt>
      <trkpt lat="60.77284" lon="4.92235">
        <ele>65.668974</ele>
        <time>2020-07-25T13:14:36.035Z</time>
      </trkpt>
      <trkpt lat="60.77292" lon="4.92247">
        <ele>65.95298</ele>
        <time>2020-07-25T13:14:39.000Z</time>
      </trkpt>
      <trkpt lat="60.77299" lon="4.92258">
        <ele>66.224231</ele>
        <time>2020-07-25T13:14:42.036Z</time>
      </trkpt>
      <trkpt lat="60.77307" lon="4.9227">
        <ele>66.493169</ele>
        <time>2020-07-25T13:14:45.015Z</time>
      </trkpt>
      <trkpt lat="60.77315" lon="4.92279">
        <ele>66.755391</ele>
        <time>2020-07-25T13:14:48.042Z</time>
      </trkpt>
      <trkpt lat="60.77323" lon="4.92289">
        <ele>67.018333</ele>
        <time>2020-07-25T13:14:50.989Z</time>
      </trkpt>
      <trkpt lat="60.77331" lon="4.923">
        <ele>67.201915</ele>
        <time>2020-07-25T13:14:54.036Z</time>
      </trkpt>
      <trkpt lat="60.77339" lon="4.92308">
        <ele>67.141324</ele>
        <time>2020-07-25T13:14:57.013Z</time>
      </trkpt>
      <trkpt lat="60.7735" lon="4.92318">
        <ele>67.065304</ele>
        <time>2020-07-25T13:15:00.991Z</time>
      </trkpt>
      <trkpt lat="60.77359" lon="4.92326">
        <ele>67.002229</ele>
        <time>2020-07-25T13:15:03.994Z</time>
      </trkpt>
      <trkpt lat="60.77369" lon="4.92337">
        <ele>66.929057</ele>
        <time>2020-07-25T13:15:07.016Z</time>
      </trkpt>
      <trkpt lat="60.7738" lon="4.92349">
        <ele>66.846216</ele>
        <time>2020-07-25T13:15:10.001Z</time>
      </trkpt>
      <trkpt lat="60.77391" lon="4.92363">
        <ele>66.761464</ele>
        <time>2020-07-25T13:15:12.987Z</time>
      </trkpt>
      <trkpt lat="60.774" lon="4.92371">
        <ele>66.700288</ele>
        <time>2020-07-25T13:15:15.007Z</time>
      </trkpt>
      <trkpt lat="60.77409" lon="4.92379">
        <ele>66.637478</ele>
        <time>2020-07-25T13:15:17.000Z</time>
      </trkpt>
      <trkpt lat="60.77418" lon="4.92389">
        <ele>66.572711</ele>
        <time>2020-07-25T13:15:19.039Z</time>
      </trkpt>
      <trkpt lat="60.77426" lon="4.92398">
        <ele>66.507936</ele>
        <time>2020-07-25T13:15:20.983Z</time>
      </trkpt>
      <trkpt lat="60.77436" lon="4.92408">
        <ele>66.437242</ele>
        <time>2020-07-25T13:15:23.033Z</time>
      </trkpt>
      <trkpt lat="60.77446" lon="4.92419">
        <ele>66.364488</ele>
        <time>2020-07-25T13:15:24.987Z</time>
      </trkpt>
      <trkpt lat="60.77456" lon="4.92432">
        <ele>66.290537</ele>
        <time>2020-07-25T13:15:26.996Z</time>
      </trkpt>
      <trkpt lat="60.77466" lon="4.92444">
        <ele>66.212005</ele>
        <time>2020-07-25T13:15:29.010Z</time>
      </trkpt>
      <trkpt lat="60.77476" lon="4.92456">
        <ele>66.134547</ele>
        <time>2020-07-25T13:15:30.999Z</time>
      </trkpt>
      <trkpt lat="60.77486" lon="4.92468">
        <ele>66.061562</ele>
        <time>2020-07-25T13:15:33.010Z</time>
      </trkpt>
      <trkpt lat="60.77495" lon="4.9248">
        <ele>66.317958</ele>
        <time>2020-07-25T13:15:34.981Z</time>
      </trkpt>
      <trkpt lat="60.77504" lon="4.92492">
        <ele>66.621184</ele>
        <time>2020-07-25T13:15:36.996Z</time>
      </trkpt>
      <trkpt lat="60.77513" lon="4.92505">
        <ele>66.925026</ele>
        <time>2020-07-25T13:15:39.007Z</time>
      </trkpt>
      <trkpt lat="60.77521" lon="4.92519">
        <ele>67.223733</ele>
        <time>2020-07-25T13:15:41.032Z</time>
      </trkpt>
      <trkpt lat="60.77528" lon="4.92531">
        <ele>67.494456</ele>
        <time>2020-07-25T13:15:42.991Z</time>
      </trkpt>
      <trkpt lat="60.77539" lon="4.92546">
        <ele>67.867208</ele>
        <time>2020-07-25T13:15:46.013Z</time>
      </trkpt>
      <trkpt lat="60.77548" lon="4.92562">
        <ele>68.198882</ele>
        <time>2020-07-25T13:15:49.005Z</time>
      </trkpt>
      <trkpt lat="60.77544" lon="4.92583">
        <ele>68.51065</ele>
        <time>2020-07-25T13:15:52.984Z</time>
      </trkpt>
      <trkpt lat="60.77551" lon="4.926">
        <ele>68.817147</ele>
        <time>2020-07-25T13:15:58.004Z</time>
      </trkpt>
      <trkpt lat="60.7756" lon="4.92613">
        <ele>69.129719</ele>
        <time>2020-07-25T13:16:02.017Z</time>
      </trkpt>
      <trkpt lat="60.77568" lon="4.92623">
        <ele>69.390743</ele>
        <time>2020-07-25T13:16:05.994Z</time>
      </trkpt>
      <trkpt lat="60.77575" lon="4.9264">
        <ele>69.712056</ele>
        <time>2020-07-25T13:16:10.010Z</time>
      </trkpt>
      <trkpt lat="60.7758" lon="4.92659">
        <ele>70.015346</ele>
        <time>2020-07-25T13:16:14.003Z</time>
      </trkpt>
      <trkpt lat="60.77585" lon="4.92681">
        <ele>70.346613</ele>
        <time>2020-07-25T13:16:18.008Z</time>
      </trkpt>
      <trkpt lat="60.77589" lon="4.92699">
        <ele>70.619144</ele>
        <time>2020-07-25T13:16:20.995Z</time>
      </trkpt>
      <trkpt lat="60.77594" lon="4.92717">
        <ele>70.9101</ele>
        <time>2020-07-25T13:16:24.011Z</time>
      </trkpt>
      <trkpt lat="60.77598" lon="4.92734">
        <ele>71.17679</ele>
        <time>2020-07-25T13:16:26.995Z</time>
      </trkpt>
      <trkpt lat="60.77603" lon="4.92753">
        <ele>71.427578</ele>
        <time>2020-07-25T13:16:29.986Z</time>
      </trkpt>
      <trkpt lat="60.77607" lon="4.92772">
        <ele>71.676422</ele>
        <time>2020-07-25T13:16:32.987Z</time>
      </trkpt>
      <trkpt lat="60.77611" lon="4.92795">
        <ele>71.958452</ele>
        <time>2020-07-25T13:16:35.984Z</time>
      </trkpt>
      <trkpt lat="60.77615" lon="4.92817">
        <ele>72.24996</ele>
        <time>2020-07-25T13:16:38.990Z</time>
      </trkpt>
      <trkpt lat="60.7762" lon="4.92839">
        <ele>72.526564</ele>
        <time>2020-07-25T13:16:41.993Z</time>
      </trkpt>
      <trkpt lat="60.77624" lon="4.9286">
        <ele>72.799111</ele>
        <time>2020-07-25T13:16:44.994Z</time>
      </trkpt>
      <trkpt lat="60.77628" lon="4.92882">
        <ele>73.086402</ele>
        <time>2020-07-25T13:16:48.011Z</time>
      </trkpt>
      <trkpt lat="60.77633" lon="4.92905">
        <ele>73.388696</ele>
        <time>2020-07-25T13:16:51.014Z</time>
      </trkpt>
      <trkpt lat="60.77638" lon="4.92929">
        <ele>73.697851</ele>
        <time>2020-07-25T13:16:53.994Z</time>
      </trkpt>
      <trkpt lat="60.77644" lon="4.92954">
        <ele>74.028151</ele>
        <time>2020-07-25T13:16:56.982Z</time>
      </trkpt>
      <trkpt lat="60.77648" lon="4.92975">
        <ele>74.292062</ele>
        <time>2020-07-25T13:16:58.988Z</time>
      </trkpt>
      <trkpt lat="60.77652" lon="4.92996">
        <ele>74.570461</ele>
        <time>2020-07-25T13:17:00.993Z</time>
      </trkpt>
      <trkpt lat="60.77658" lon="4.93018">
        <ele>74.863119</ele>
        <time>2020-07-25T13:17:02.989Z</time>
      </trkpt>
      <trkpt lat="60.77662" lon="4.93038">
        <ele>75.126067</ele>
        <time>2020-07-25T13:17:05.010Z</time>
      </trkpt>
      <trkpt lat="60.77665" lon="4.93059">
        <ele>75.380479</ele>
        <time>2020-07-25T13:17:06.985Z</time>
      </trkpt>
      <trkpt lat="60.77669" lon="4.93078">
        <ele>75.528173</ele>
        <time>2020-07-25T13:17:09.011Z</time>
      </trkpt>
      <trkpt lat="60.77673" lon="4.93098">
        <ele>75.407015</ele>
        <time>2020-07-25T13:17:10.993Z</time>
      </trkpt>
      <trkpt lat="60.77676" lon="4.93118">
        <ele>75.289131</ele>
        <time>2020-07-25T13:17:13.027Z</time>
      </trkpt>
      <trkpt lat="60.7768" lon="4.93138">
        <ele>75.169262</ele>
        <time>2020-07-25T13:17:14.980Z</time>
      </trkpt>
      <trkpt lat="60.77684" lon="4.93157">
        <ele>75.051703</ele>
        <time>2020-07-25T13:17:16.988Z</time>
      </trkpt>
      <trkpt lat="60.77688" lon="4.93177">
        <ele>74.933819</ele>
        <time>2020-07-25T13:17:19.008Z</time>
      </trkpt>
      <trkpt lat="60.77691" lon="4.93196">
        <ele>74.821219</ele>
        <time>2020-07-25T13:17:20.995Z</time>
      </trkpt>
      <trkpt lat="60.77694" lon="4.93213">
        <ele>74.717729</ele>
        <time>2020-07-25T13:17:22.990Z</time>
      </trkpt>
      <trkpt lat="60.77699" lon="4.93237">
        <ele>74.569801</ele>
        <time>2020-07-25T13:17:25.994Z</time>
      </trkpt>
      <trkpt lat="60.77703" lon="4.93255">
        <ele>74.459899</ele>
        <time>2020-07-25T13:17:27.989Z</time>
      </trkpt>
      <trkpt lat="60.77709" lon="4.9328">
        <ele>74.305644</ele>
        <time>2020-07-25T13:17:30.989Z</time>
      </trkpt>
      <trkpt lat="60.77717" lon="4.93302">
        <ele>74.146785</ele>
        <time>2020-07-25T13:17:33.974Z</time>
      </trkpt>
      <trkpt lat="60.77724" lon="4.93317">
        <ele>74.03315</ele>
        <time>2020-07-25T13:17:35.984Z</time>
      </trkpt>
      <trkpt lat="60.77733" lon="4.93327">
        <ele>73.915502</ele>
        <time>2020-07-25T13:17:38.982Z</time>
      </trkpt>
      <trkpt lat="60.77743" lon="4.93329">
        <ele>73.801477</ele>
        <time>2020-07-25T13:17:40.971Z</time>
      </trkpt>
      <trkpt lat="60.77753" lon="4.93322">
        <ele>73.676206</ele>
        <time>2020-07-25T13:17:42.975Z</time>
      </trkpt>
      <trkpt lat="60.77764" lon="4.9331">
        <ele>73.534546</ele>
        <time>2020-07-25T13:17:45.012Z</time>
      </trkpt>
      <trkpt lat="60.77775" lon="4.93297">
        <ele>73.381656</ele>
        <time>2020-07-25T13:17:46.990Z</time>
      </trkpt>
      <trkpt lat="60.77785" lon="4.93285">
        <ele>73.245425</ele>
        <time>2020-07-25T13:17:48.978Z</time>
      </trkpt>
      <trkpt lat="60.77793" lon="4.93277">
        <ele>73.128645</ele>
        <time>2020-07-25T13:17:51.022Z</time>
      </trkpt>
      <trkpt lat="60.77806" lon="4.93266">
        <ele>72.965807</ele>
        <time>2020-07-25T13:17:53.986Z</time>
      </trkpt>
      <trkpt lat="60.77818" lon="4.9326">
        <ele>72.816686</ele>
        <time>2020-07-25T13:17:55.987Z</time>
      </trkpt>
      <trkpt lat="60.7783" lon="4.93259">
        <ele>72.66334</ele>
        <time>2020-07-25T13:17:57.994Z</time>
      </trkpt>
      <trkpt lat="60.77843" lon="4.93262">
        <ele>72.507642</ele>
        <time>2020-07-25T13:17:59.976Z</time>
      </trkpt>
      <trkpt lat="60.77857" lon="4.93266">
        <ele>72.335878</ele>
        <time>2020-07-25T13:18:01.998Z</time>
      </trkpt>
      <trkpt lat="60.77871" lon="4.93269">
        <ele>72.163505</ele>
        <time>2020-07-25T13:18:03.997Z</time>
      </trkpt>
      <trkpt lat="60.77884" lon="4.9327">
        <ele>71.999184</ele>
        <time>2020-07-25T13:18:05.981Z</time>
      </trkpt>
      <trkpt lat="60.77896" lon="4.9327">
        <ele>71.85803</ele>
        <time>2020-07-25T13:18:08.011Z</time>
      </trkpt>
      <trkpt lat="60.77906" lon="4.93271">
        <ele>71.739928</ele>
        <time>2020-07-25T13:18:09.986Z</time>
      </trkpt>
      <trkpt lat="60.77917" lon="4.93273">
        <ele>71.607865</ele>
        <time>2020-07-25T13:18:12.983Z</time>
      </trkpt>
      <trkpt lat="60.77927" lon="4.93279">
        <ele>71.470529</ele>
        <time>2020-07-25T13:18:16.974Z</time>
      </trkpt>
      <trkpt lat="60.77938" lon="4.93288">
        <ele>71.336977</ele>
        <time>2020-07-25T13:18:21.977Z</time>
      </trkpt>
      <trkpt lat="60.77948" lon="4.93292">
        <ele>71.536666</ele>
        <time>2020-07-25T13:18:28.002Z</time>
      </trkpt>
      <trkpt lat="60.77958" lon="4.93293">
        <ele>71.800476</ele>
        <time>2020-07-25T13:18:32.014Z</time>
      </trkpt>
      <trkpt lat="60.77968" lon="4.93292">
        <ele>72.072657</ele>
        <time>2020-07-25T13:18:35.975Z</time>
      </trkpt>
      <trkpt lat="60.77977" lon="4.93289">
        <ele>72.342576</ele>
        <time>2020-07-25T13:18:39.971Z</time>
      </trkpt>
      <trkpt lat="60.77987" lon="4.93286">
        <ele>72.632548</ele>
        <time>2020-07-25T13:18:45.012Z</time>
      </trkpt>
      <trkpt lat="60.78001" lon="4.93285">
        <ele>73.018355</ele>
        <time>2020-07-25T13:19:11.005Z</time>
      </trkpt>
      <trkpt lat="60.78011" lon="4.93289">
        <ele>73.300361</ele>
        <time>2020-07-25T13:19:16.987Z</time>
      </trkpt>
      <trkpt lat="60.78022" lon="4.93291">
        <ele>73.590005</ele>
        <time>2020-07-25T13:19:22.982Z</time>
      </trkpt>
      <trkpt lat="60.78032" lon="4.93293">
        <ele>73.864242</ele>
        <time>2020-07-25T13:19:29.010Z</time>
      </trkpt>
      <trkpt lat="60.78042" lon="4.93296">
        <ele>74.147662</ele>
        <time>2020-07-25T13:19:35.997Z</time>
      </trkpt>
      <trkpt lat="60.78051" lon="4.93299">
        <ele>74.405583</ele>
        <time>2020-07-25T13:19:42.029Z</time>
      </trkpt>
      <trkpt lat="60.7806" lon="4.93301">
        <ele>74.657119</ele>
        <time>2020-07-25T13:19:46.980Z</time>
      </trkpt>
      <trkpt lat="60.78069" lon="4.93304">
        <ele>74.92367</ele>
        <time>2020-07-25T13:19:51.974Z</time>
      </trkpt>
      <trkpt lat="60.78078" lon="4.93306">
        <ele>75.172451</ele>
        <time>2020-07-25T13:19:57.012Z</time>
      </trkpt>
      <trkpt lat="60.78088" lon="4.93308">
        <ele>75.431449</ele>
        <time>2020-07-25T13:20:02.994Z</time>
      </trkpt>
      <trkpt lat="60.78098" lon="4.93306">
        <ele>75.726624</ele>
        <time>2020-07-25T13:20:07.989Z</time>
      </trkpt>
      <trkpt lat="60.78108" lon="4.93304">
        <ele>75.988388</ele>
        <time>2020-07-25T13:20:12.036Z</time>
      </trkpt>
      <trkpt lat="60.78117" lon="4.93304">
        <ele>76.260569</ele>
        <time>2020-07-25T13:20:15.987Z</time>
      </trkpt>
      <trkpt lat="60.7813" lon="4.93301">
        <ele>75.994091</ele>
        <time>2020-07-25T13:20:19.990Z</time>
      </trkpt>
      <trkpt lat="60.78143" lon="4.93299">
        <ele>75.647022</ele>
        <time>2020-07-25T13:20:22.993Z</time>
      </trkpt>
      <trkpt lat="60.78152" lon="4.93297">
        <ele>75.404292</ele>
        <time>2020-07-25T13:20:25.001Z</time>
      </trkpt>
      <trkpt lat="60.78161" lon="4.93295">
        <ele>75.150021</ele>
        <time>2020-07-25T13:20:26.996Z</time>
      </trkpt>
      <trkpt lat="60.78171" lon="4.93293">
        <ele>74.885245</ele>
        <time>2020-07-25T13:20:29.030Z</time>
      </trkpt>
      <trkpt lat="60.78182" lon="4.93292">
        <ele>74.60064</ele>
        <time>2020-07-25T13:20:30.991Z</time>
      </trkpt>
      <trkpt lat="60.78192" lon="4.93293">
        <ele>74.310668</ele>
        <time>2020-07-25T13:20:32.996Z</time>
      </trkpt>
      <trkpt lat="60.78203" lon="4.93294">
        <ele>74.035862</ele>
        <time>2020-07-25T13:20:35.018Z</time>
      </trkpt>
      <trkpt lat="60.78214" lon="4.93297">
        <ele>73.73372</ele>
        <time>2020-07-25T13:20:37.000Z</time>
      </trkpt>
      <trkpt lat="60.78226" lon="4.933">
        <ele>73.401227</ele>
        <time>2020-07-25T13:20:39.007Z</time>
      </trkpt>
      <trkpt lat="60.78239" lon="4.93303">
        <ele>73.050352</ele>
        <time>2020-07-25T13:20:41.003Z</time>
      </trkpt>
      <trkpt lat="60.78253" lon="4.93305">
        <ele>72.681679</ele>
        <time>2020-07-25T13:20:42.984Z</time>
      </trkpt>
      <trkpt lat="60.78267" lon="4.93307">
        <ele>72.30664</ele>
        <time>2020-07-25T13:20:45.013Z</time>
      </trkpt>
      <trkpt lat="60.78281" lon="4.93308">
        <ele>71.919887</ele>
        <time>2020-07-25T13:20:47.051Z</time>
      </trkpt>
      <trkpt lat="60.78296" lon="4.9331">
        <ele>71.530036</ele>
        <time>2020-07-25T13:20:49.025Z</time>
      </trkpt>
      <trkpt lat="60.7831" lon="4.93313">
        <ele>71.255414</ele>
        <time>2020-07-25T13:20:50.996Z</time>
      </trkpt>
      <trkpt lat="60.78324" lon="4.93316">
        <ele>71.006118</ele>
        <time>2020-07-25T13:20:53.027Z</time>
      </trkpt>
      <trkpt lat="60.78337" lon="4.9332">
        <ele>70.767452</ele>
        <time>2020-07-25T13:20:54.983Z</time>
      </trkpt>
      <trkpt lat="60.7835" lon="4.93325">
        <ele>70.543281</ele>
        <time>2020-07-25T13:20:56.974Z</time>
      </trkpt>
      <trkpt lat="60.78361" lon="4.93332">
        <ele>70.335618</ele>
        <time>2020-07-25T13:20:59.019Z</time>
      </trkpt>
      <trkpt lat="60.78372" lon="4.93338">
        <ele>70.129978</ele>
        <time>2020-07-25T13:21:00.983Z</time>
      </trkpt>
      <trkpt lat="60.78384" lon="4.93346">
        <ele>69.91895</ele>
        <time>2020-07-25T13:21:03.009Z</time>
      </trkpt>
      <trkpt lat="60.78395" lon="4.93356">
        <ele>69.700263</ele>
        <time>2020-07-25T13:21:04.985Z</time>
      </trkpt>
      <trkpt lat="60.78406" lon="4.93368">
        <ele>69.481353</ele>
        <time>2020-07-25T13:21:07.059Z</time>
      </trkpt>
      <trkpt lat="60.78418" lon="4.93381">
        <ele>69.235822</ele>
        <time>2020-07-25T13:21:08.986Z</time>
      </trkpt>
      <trkpt lat="60.78432" lon="4.93398">
        <ele>68.961483</ele>
        <time>2020-07-25T13:21:10.996Z</time>
      </trkpt>
      <trkpt lat="60.78445" lon="4.93415">
        <ele>68.688639</ele>
        <time>2020-07-25T13:21:12.995Z</time>
      </trkpt>
      <trkpt lat="60.78457" lon="4.93431">
        <ele>68.427213</ele>
        <time>2020-07-25T13:21:15.024Z</time>
      </trkpt>
      <trkpt lat="60.7847" lon="4.93444">
        <ele>68.128159</ele>
        <time>2020-07-25T13:21:17.004Z</time>
      </trkpt>
      <trkpt lat="60.78482" lon="4.93459">
        <ele>67.773211</ele>
        <time>2020-07-25T13:21:18.990Z</time>
      </trkpt>
      <trkpt lat="60.78494" lon="4.93472">
        <ele>67.435601</ele>
        <time>2020-07-25T13:21:20.985Z</time>
      </trkpt>
      <trkpt lat="60.78504" lon="4.93484">
        <ele>67.127769</ele>
        <time>2020-07-25T13:21:23.010Z</time>
      </trkpt>
      <trkpt lat="60.78515" lon="4.93497">
        <ele>66.808741</ele>
        <time>2020-07-25T13:21:25.013Z</time>
      </trkpt>
      <trkpt lat="60.78527" lon="4.93509">
        <ele>66.476932</ele>
        <time>2020-07-25T13:21:26.993Z</time>
      </trkpt>
      <trkpt lat="60.78539" lon="4.93519">
        <ele>66.146434</ele>
        <time>2020-07-25T13:21:29.009Z</time>
      </trkpt>
      <trkpt lat="60.78551" lon="4.93528">
        <ele>65.838275</ele>
        <time>2020-07-25T13:21:31.012Z</time>
      </trkpt>
      <trkpt lat="60.78562" lon="4.9354">
        <ele>65.523828</ele>
        <time>2020-07-25T13:21:33.015Z</time>
      </trkpt>
      <trkpt lat="60.78573" lon="4.93549">
        <ele>65.224048</ele>
        <time>2020-07-25T13:21:35.004Z</time>
      </trkpt>
      <trkpt lat="60.78585" lon="4.93545">
        <ele>64.919407</ele>
        <time>2020-07-25T13:21:36.992Z</time>
      </trkpt>
      <trkpt lat="60.78595" lon="4.93535">
        <ele>64.630781</ele>
        <time>2020-07-25T13:21:39.027Z</time>
      </trkpt>
      <trkpt lat="60.78603" lon="4.93525">
        <ele>64.392293</ele>
        <time>2020-07-25T13:21:41.026Z</time>
      </trkpt>
      <trkpt lat="60.78613" lon="4.93513">
        <ele>64.11956</ele>
        <time>2020-07-25T13:21:43.996Z</time>
      </trkpt>
      <trkpt lat="60.7862" lon="4.93499">
        <ele>63.858139</ele>
        <time>2020-07-25T13:21:48.000Z</time>
      </trkpt>
      <trkpt lat="60.78627" lon="4.93482">
        <ele>63.842188</ele>
        <time>2020-07-25T13:21:52.055Z</time>
      </trkpt>
      <trkpt lat="60.78634" lon="4.93469">
        <ele>63.933651</ele>
        <time>2020-07-25T13:21:54.962Z</time>
      </trkpt>
      <trkpt lat="60.78641" lon="4.93455">
        <ele>64.035359</ele>
        <time>2020-07-25T13:21:58.027Z</time>
      </trkpt>
      <trkpt lat="60.78649" lon="4.9344">
        <ele>64.141539</ele>
        <time>2020-07-25T13:22:01.461Z</time>
      </trkpt>
      <trkpt lat="60.78657" lon="4.93424">
        <ele>64.254294</ele>
        <time>2020-07-25T13:22:04.170Z</time>
      </trkpt>
      <trkpt lat="60.78665" lon="4.93407">
        <ele>64.368543</ele>
        <time>2020-07-25T13:22:06.997Z</time>
      </trkpt>
      <trkpt lat="60.78673" lon="4.93391">
        <ele>64.479341</ele>
        <time>2020-07-25T13:22:10.359Z</time>
      </trkpt>
      <trkpt lat="60.78681" lon="4.93375">
        <ele>64.596167</ele>
        <time>2020-07-25T13:22:12.988Z</time>
      </trkpt>
      <trkpt lat="60.78689" lon="4.93359">
        <ele>64.710676</ele>
        <time>2020-07-25T13:22:16.004Z</time>
      </trkpt>
      <trkpt lat="60.78697" lon="4.93341">
        <ele>64.830108</ele>
        <time>2020-07-25T13:22:19.187Z</time>
      </trkpt>
      <trkpt lat="60.78707" lon="4.93324">
        <ele>64.957181</ele>
        <time>2020-07-25T13:22:21.991Z</time>
      </trkpt>
      <trkpt lat="60.78716" lon="4.93304">
        <ele>65.086822</ele>
        <time>2020-07-25T13:22:24.984Z</time>
      </trkpt>
      <trkpt lat="60.78725" lon="4.93286">
        <ele>65.215435</ele>
        <time>2020-07-25T13:22:27.984Z</time>
      </trkpt>
      <trkpt lat="60.78734" lon="4.93269">
        <ele>65.337137</ele>
        <time>2020-07-25T13:22:31.277Z</time>
      </trkpt>
      <trkpt lat="60.78743" lon="4.9325">
        <ele>65.471323</ele>
        <time>2020-07-25T13:22:34.124Z</time>
      </trkpt>
      <trkpt lat="60.78749" lon="4.93235">
        <ele>65.567599</ele>
        <time>2020-07-25T13:22:35.967Z</time>
      </trkpt>
      <trkpt lat="60.78756" lon="4.9322">
        <ele>65.307319</ele>
        <time>2020-07-25T13:22:38.319Z</time>
      </trkpt>
      <trkpt lat="60.78762" lon="4.93204">
        <ele>65.000577</ele>
        <time>2020-07-25T13:22:40.052Z</time>
      </trkpt>
      <trkpt lat="60.78768" lon="4.93187">
        <ele>64.686775</ele>
        <time>2020-07-25T13:22:41.996Z</time>
      </trkpt>
      <trkpt lat="60.78775" lon="4.93168">
        <ele>64.349126</ele>
        <time>2020-07-25T13:22:44.012Z</time>
      </trkpt>
      <trkpt lat="60.78782" lon="4.93148">
        <ele>63.985212</ele>
        <time>2020-07-25T13:22:45.984Z</time>
      </trkpt>
      <trkpt lat="60.78789" lon="4.93128">
        <ele>63.612925</ele>
        <time>2020-07-25T13:22:47.969Z</time>
      </trkpt>
      <trkpt lat="60.78797" lon="4.93107">
        <ele>63.23113</ele>
        <time>2020-07-25T13:22:49.985Z</time>
      </trkpt>
      <trkpt lat="60.78805" lon="4.93085">
        <ele>62.824879</ele>
        <time>2020-07-25T13:22:51.974Z</time>
      </trkpt>
      <trkpt lat="60.78813" lon="4.93062">
        <ele>62.392978</ele>
        <time>2020-07-25T13:22:53.980Z</time>
      </trkpt>
      <trkpt lat="60.78823" lon="4.93039">
        <ele>61.948262</ele>
        <time>2020-07-25T13:22:55.974Z</time>
      </trkpt>
      <trkpt lat="60.78833" lon="4.93015">
        <ele>61.47103</ele>
        <time>2020-07-25T13:22:57.978Z</time>
      </trkpt>
      <trkpt lat="60.78844" lon="4.92992">
        <ele>60.989566</ele>
        <time>2020-07-25T13:22:59.973Z</time>
      </trkpt>
      <trkpt lat="60.78856" lon="4.92969">
        <ele>60.511035</ele>
        <time>2020-07-25T13:23:01.969Z</time>
      </trkpt>
      <trkpt lat="60.78867" lon="4.92948">
        <ele>60.047458</ele>
        <time>2020-07-25T13:23:03.980Z</time>
      </trkpt>
      <trkpt lat="60.78879" lon="4.92929">
        <ele>59.606346</ele>
        <time>2020-07-25T13:23:05.987Z</time>
      </trkpt>
      <trkpt lat="60.78891" lon="4.92913">
        <ele>59.182232</ele>
        <time>2020-07-25T13:23:07.995Z</time>
      </trkpt>
      <trkpt lat="60.78903" lon="4.92899">
        <ele>58.775442</ele>
        <time>2020-07-25T13:23:10.004Z</time>
      </trkpt>
      <trkpt lat="60.78915" lon="4.92885">
        <ele>58.360683</ele>
        <time>2020-07-25T13:23:11.978Z</time>
      </trkpt>
      <trkpt lat="60.78926" lon="4.9287">
        <ele>57.969902</ele>
        <time>2020-07-25T13:23:13.983Z</time>
      </trkpt>
      <trkpt lat="60.78937" lon="4.92858">
        <ele>57.58702</ele>
        <time>2020-07-25T13:23:15.988Z</time>
      </trkpt>
      <trkpt lat="60.78949" lon="4.92846">
        <ele>57.212081</ele>
        <time>2020-07-25T13:23:17.987Z</time>
      </trkpt>
      <trkpt lat="60.7896" lon="4.92835">
        <ele>56.840365</ele>
        <time>2020-07-25T13:23:19.994Z</time>
      </trkpt>
      <trkpt lat="60.78972" lon="4.92823">
        <ele>56.458764</ele>
        <time>2020-07-25T13:23:22.004Z</time>
      </trkpt>
      <trkpt lat="60.78984" lon="4.92811">
        <ele>56.049993</ele>
        <time>2020-07-25T13:23:24.008Z</time>
      </trkpt>
      <trkpt lat="60.78997" lon="4.92802">
        <ele>55.652053</ele>
        <time>2020-07-25T13:23:26.047Z</time>
      </trkpt>
      <trkpt lat="60.79008" lon="4.92794">
        <ele>55.287257</ele>
        <time>2020-07-25T13:23:28.003Z</time>
      </trkpt>
      <trkpt lat="60.7902" lon="4.92786">
        <ele>54.928538</ele>
        <time>2020-07-25T13:23:30.004Z</time>
      </trkpt>
      <trkpt lat="60.79031" lon="4.92779">
        <ele>54.88409</ele>
        <time>2020-07-25T13:23:31.982Z</time>
      </trkpt>
      <trkpt lat="60.79042" lon="4.92771">
        <ele>55.013698</ele>
        <time>2020-07-25T13:23:34.030Z</time>
      </trkpt>
      <trkpt lat="60.79053" lon="4.92762">
        <ele>55.141799</ele>
        <time>2020-07-25T13:23:36.010Z</time>
      </trkpt>
      <trkpt lat="60.79065" lon="4.92753">
        <ele>55.276094</ele>
        <time>2020-07-25T13:23:38.000Z</time>
      </trkpt>
      <trkpt lat="60.79076" lon="4.92743">
        <ele>55.406985</ele>
        <time>2020-07-25T13:23:40.053Z</time>
      </trkpt>
      <trkpt lat="60.79087" lon="4.92734">
        <ele>55.532801</ele>
        <time>2020-07-25T13:23:41.989Z</time>
      </trkpt>
      <trkpt lat="60.79098" lon="4.92725">
        <ele>55.663462</ele>
        <time>2020-07-25T13:23:43.995Z</time>
      </trkpt>
      <trkpt lat="60.79109" lon="4.92715">
        <ele>55.799373</ele>
        <time>2020-07-25T13:23:45.996Z</time>
      </trkpt>
      <trkpt lat="60.79121" lon="4.92705">
        <ele>55.938717</ele>
        <time>2020-07-25T13:23:48.023Z</time>
      </trkpt>
      <trkpt lat="60.79132" lon="4.92694">
        <ele>56.076984</ele>
        <time>2020-07-25T13:23:49.989Z</time>
      </trkpt>
      <trkpt lat="60.79144" lon="4.92684">
        <ele>56.211727</ele>
        <time>2020-07-25T13:23:51.993Z</time>
      </trkpt>
      <trkpt lat="60.79155" lon="4.92672">
        <ele>56.347464</ele>
        <time>2020-07-25T13:23:53.987Z</time>
      </trkpt>
      <trkpt lat="60.79166" lon="4.92662">
        <ele>56.483854</ele>
        <time>2020-07-25T13:23:56.026Z</time>
      </trkpt>
      <trkpt lat="60.79176" lon="4.92651">
        <ele>56.607706</ele>
        <time>2020-07-25T13:23:57.991Z</time>
      </trkpt>
      <trkpt lat="60.79185" lon="4.92641">
        <ele>56.722106</ele>
        <time>2020-07-25T13:24:00.035Z</time>
      </trkpt>
      <trkpt lat="60.79193" lon="4.92629">
        <ele>56.803803</ele>
        <time>2020-07-25T13:24:01.993Z</time>
      </trkpt>
      <trkpt lat="60.79203" lon="4.92612">
        <ele>56.888469</ele>
        <time>2020-07-25T13:24:05.028Z</time>
      </trkpt>
      <trkpt lat="60.79211" lon="4.92593">
        <ele>56.96985</ele>
        <time>2020-07-25T13:24:07.991Z</time>
      </trkpt>
      <trkpt lat="60.79219" lon="4.92575">
        <ele>57.047874</ele>
        <time>2020-07-25T13:24:10.991Z</time>
      </trkpt>
      <trkpt lat="60.79227" lon="4.92556">
        <ele>57.128535</ele>
        <time>2020-07-25T13:24:14.001Z</time>
      </trkpt>
      <trkpt lat="60.79234" lon="4.92539">
        <ele>57.20269</ele>
        <time>2020-07-25T13:24:17.007Z</time>
      </trkpt>
      <trkpt lat="60.79243" lon="4.92524">
        <ele>57.275327</ele>
        <time>2020-07-25T13:24:20.000Z</time>
      </trkpt>
      <trkpt lat="60.79251" lon="4.92513">
        <ele>57.34307</ele>
        <time>2020-07-25T13:24:23.021Z</time>
      </trkpt>
      <trkpt lat="60.79262" lon="4.92504">
        <ele>57.421144</ele>
        <time>2020-07-25T13:24:26.987Z</time>
      </trkpt>
      <trkpt lat="60.79272" lon="4.92499">
        <ele>57.487117</ele>
        <time>2020-07-25T13:24:29.987Z</time>
      </trkpt>
      <trkpt lat="60.79281" lon="4.92495">
        <ele>57.549436</ele>
        <time>2020-07-25T13:24:32.988Z</time>
      </trkpt>
      <trkpt lat="60.7929" lon="4.92492">
        <ele>57.609321</ele>
        <time>2020-07-25T13:24:35.989Z</time>
      </trkpt>
      <trkpt lat="60.79301" lon="4.92488">
        <ele>57.684792</ele>
        <time>2020-07-25T13:24:39.995Z</time>
      </trkpt>
      <trkpt lat="60.79311" lon="4.92484">
        <ele>57.754215</ele>
        <time>2020-07-25T13:24:43.980Z</time>
      </trkpt>
      <trkpt lat="60.79323" lon="4.92481">
        <ele>57.832648</ele>
        <time>2020-07-25T13:24:48.022Z</time>
      </trkpt>
      <trkpt lat="60.79334" lon="4.92477">
        <ele>57.906047</ele>
        <time>2020-07-25T13:24:51.992Z</time>
      </trkpt>
      <trkpt lat="60.79346" lon="4.92473">
        <ele>57.955613</ele>
        <time>2020-07-25T13:24:56.031Z</time>
      </trkpt>
      <trkpt lat="60.79355" lon="4.9247">
        <ele>57.951593</ele>
        <time>2020-07-25T13:24:59.019Z</time>
      </trkpt>
      <trkpt lat="60.79365" lon="4.92467">
        <ele>57.947459</ele>
        <time>2020-07-25T13:25:01.994Z</time>
      </trkpt>
      <trkpt lat="60.79376" lon="4.92464">
        <ele>57.942889</ele>
        <time>2020-07-25T13:25:04.991Z</time>
      </trkpt>
      <trkpt lat="60.79386" lon="4.9246">
        <ele>57.938764</ele>
        <time>2020-07-25T13:25:07.984Z</time>
      </trkpt>
      <trkpt lat="60.79395" lon="4.92456">
        <ele>57.934723</ele>
        <time>2020-07-25T13:25:10.995Z</time>
      </trkpt>
      <trkpt lat="60.79405" lon="4.92452">
        <ele>57.930638</ele>
        <time>2020-07-25T13:25:14.000Z</time>
      </trkpt>
      <trkpt lat="60.79417" lon="4.92448">
        <ele>57.92564</ele>
        <time>2020-07-25T13:25:18.001Z</time>
      </trkpt>
      <trkpt lat="60.79427" lon="4.92446">
        <ele>57.921604</ele>
        <time>2020-07-25T13:25:20.995Z</time>
      </trkpt>
      <trkpt lat="60.79436" lon="4.92443">
        <ele>57.917536</ele>
        <time>2020-07-25T13:25:24.023Z</time>
      </trkpt>
      <trkpt lat="60.79446" lon="4.92438">
        <ele>57.91353</ele>
        <time>2020-07-25T13:25:27.024Z</time>
      </trkpt>
      <trkpt lat="60.79459" lon="4.92433">
        <ele>57.908025</ele>
        <time>2020-07-25T13:25:30.008Z</time>
      </trkpt>
      <trkpt lat="60.79469" lon="4.92429">
        <ele>57.903766</ele>
        <time>2020-07-25T13:25:31.996Z</time>
      </trkpt>
      <trkpt lat="60.7948" lon="4.92424">
        <ele>57.89907</ele>
        <time>2020-07-25T13:25:34.032Z</time>
      </trkpt>
      <trkpt lat="60.79492" lon="4.9242">
        <ele>57.894024</ele>
        <time>2020-07-25T13:25:35.978Z</time>
      </trkpt>
      <trkpt lat="60.79504" lon="4.92415">
        <ele>57.888922</ele>
        <time>2020-07-25T13:25:38.010Z</time>
      </trkpt>
      <trkpt lat="60.79516" lon="4.92409">
        <ele>57.883808</ele>
        <time>2020-07-25T13:25:39.980Z</time>
      </trkpt>
      <trkpt lat="60.79528" lon="4.92405">
        <ele>57.758015</ele>
        <time>2020-07-25T13:25:42.005Z</time>
      </trkpt>
      <trkpt lat="60.7954" lon="4.924">
        <ele>57.603061</ele>
        <time>2020-07-25T13:25:43.975Z</time>
      </trkpt>
      <trkpt lat="60.79552" lon="4.92396">
        <ele>57.452995</ele>
        <time>2020-07-25T13:25:46.027Z</time>
      </trkpt>
      <trkpt lat="60.79563" lon="4.92391">
        <ele>57.308401</ele>
        <time>2020-07-25T13:25:48.009Z</time>
      </trkpt>
      <trkpt lat="60.79574" lon="4.92386">
        <ele>57.166688</ele>
        <time>2020-07-25T13:25:49.994Z</time>
      </trkpt>
      <trkpt lat="60.79585" lon="4.92382">
        <ele>57.022072</ele>
        <time>2020-07-25T13:25:52.017Z</time>
      </trkpt>
      <trkpt lat="60.79596" lon="4.92377">
        <ele>56.875385</ele>
        <time>2020-07-25T13:25:54.005Z</time>
      </trkpt>
      <trkpt lat="60.79608" lon="4.92372">
        <ele>56.725281</ele>
        <time>2020-07-25T13:25:55.988Z</time>
      </trkpt>
      <trkpt lat="60.79619" lon="4.92366">
        <ele>56.581788</ele>
        <time>2020-07-25T13:25:58.013Z</time>
      </trkpt>
      <trkpt lat="60.7963" lon="4.92362">
        <ele>56.431241</ele>
        <time>2020-07-25T13:25:59.986Z</time>
      </trkpt>
      <trkpt lat="60.79642" lon="4.92354">
        <ele>56.279428</ele>
        <time>2020-07-25T13:26:01.992Z</time>
      </trkpt>
      <trkpt lat="60.79652" lon="4.92343">
        <ele>56.128392</ele>
        <time>2020-07-25T13:26:03.996Z</time>
      </trkpt>
      <trkpt lat="60.79662" lon="4.92327">
        <ele>55.964746</ele>
        <time>2020-07-25T13:26:05.997Z</time>
      </trkpt>
      <trkpt lat="60.79673" lon="4.92308">
        <ele>55.788179</ele>
        <time>2020-07-25T13:26:07.994Z</time>
      </trkpt>
      <trkpt lat="60.79684" lon="4.92289">
        <ele>55.600811</ele>
        <time>2020-07-25T13:26:10.039Z</time>
      </trkpt>
      <trkpt lat="60.79697" lon="4.92271">
        <ele>55.353831</ele>
        <time>2020-07-25T13:26:12.021Z</time>
      </trkpt>
      <trkpt lat="60.79709" lon="4.92254">
        <ele>55.100278</ele>
        <time>2020-07-25T13:26:14.003Z</time>
      </trkpt>
      <trkpt lat="60.79723" lon="4.92236">
        <ele>54.834668</ele>
        <time>2020-07-25T13:26:16.010Z</time>
      </trkpt>
      <trkpt lat="60.79737" lon="4.92219">
        <ele>54.568633</ele>
        <time>2020-07-25T13:26:18.036Z</time>
      </trkpt>
      <trkpt lat="60.79749" lon="4.92203">
        <ele>54.325451</ele>
        <time>2020-07-25T13:26:19.996Z</time>
      </trkpt>
      <trkpt lat="60.79763" lon="4.92187">
        <ele>54.073726</ele>
        <time>2020-07-25T13:26:22.003Z</time>
      </trkpt>
      <trkpt lat="60.79776" lon="4.92169">
        <ele>53.805977</ele>
        <time>2020-07-25T13:26:24.008Z</time>
      </trkpt>
      <trkpt lat="60.7979" lon="4.92151">
        <ele>53.537424</ele>
        <time>2020-07-25T13:26:25.993Z</time>
      </trkpt>
      <trkpt lat="60.79806" lon="4.92133">
        <ele>53.238341</ele>
        <time>2020-07-25T13:26:28.015Z</time>
      </trkpt>
      <trkpt lat="60.79815" lon="4.92124">
        <ele>53.063199</ele>
        <time>2020-07-25T13:26:29.006Z</time>
      </trkpt>
      <trkpt lat="60.79826" lon="4.92117">
        <ele>52.885592</ele>
        <time>2020-07-25T13:26:29.987Z</time>
      </trkpt>
      <trkpt lat="60.79837" lon="4.92113">
        <ele>52.701887</ele>
        <time>2020-07-25T13:26:31.017Z</time>
      </trkpt>
      <trkpt lat="60.79848" lon="4.92113">
        <ele>52.566026</ele>
        <time>2020-07-25T13:26:32.007Z</time>
      </trkpt>
      <trkpt lat="60.79859" lon="4.92117">
        <ele>52.46054</ele>
        <time>2020-07-25T13:26:32.996Z</time>
      </trkpt>
      <trkpt lat="60.79868" lon="4.92125">
        <ele>52.363913</ele>
        <time>2020-07-25T13:26:33.984Z</time>
      </trkpt>
      <trkpt lat="60.79876" lon="4.92135">
        <ele>52.277463</ele>
        <time>2020-07-25T13:26:34.987Z</time>
      </trkpt>
      <trkpt lat="60.79887" lon="4.92151">
        <ele>52.147862</ele>
        <time>2020-07-25T13:26:37.011Z</time>
      </trkpt>
      <trkpt lat="60.79897" lon="4.92159">
        <ele>52.051202</ele>
        <time>2020-07-25T13:26:39.036Z</time>
      </trkpt>
      <trkpt lat="60.79907" lon="4.92165">
        <ele>51.946612</ele>
        <time>2020-07-25T13:26:42.013Z</time>
      </trkpt>
      <trkpt lat="60.79917" lon="4.92169">
        <ele>51.85073</ele>
        <time>2020-07-25T13:26:46.012Z</time>
      </trkpt>
      <trkpt lat="60.79928" lon="4.92171">
        <ele>51.745517</ele>
        <time>2020-07-25T13:26:51.006Z</time>
      </trkpt>
      <trkpt lat="60.79939" lon="4.92171">
        <ele>51.640892</ele>
        <time>2020-07-25T13:26:55.000Z</time>
      </trkpt>
      <trkpt lat="60.79951" lon="4.92168">
        <ele>51.524535</ele>
        <time>2020-07-25T13:26:59.009Z</time>
      </trkpt>
      <trkpt lat="60.79964" lon="4.92159">
        <ele>51.39732</ele>
        <time>2020-07-25T13:27:02.034Z</time>
      </trkpt>
      <trkpt lat="60.79975" lon="4.9215">
        <ele>51.286783</ele>
        <time>2020-07-25T13:27:04.001Z</time>
      </trkpt>
      <trkpt lat="60.79987" lon="4.92138">
        <ele>51.159067</ele>
        <time>2020-07-25T13:27:05.991Z</time>
      </trkpt>
      <trkpt lat="60.8" lon="4.92127">
        <ele>51.018785</ele>
        <time>2020-07-25T13:27:07.987Z</time>
      </trkpt>
      <trkpt lat="60.80015" lon="4.92116">
        <ele>50.883898</ele>
        <time>2020-07-25T13:27:10.005Z</time>
      </trkpt>
      <trkpt lat="60.80032" lon="4.92102">
        <ele>50.767115</ele>
        <time>2020-07-25T13:27:12.012Z</time>
      </trkpt>
      <trkpt lat="60.80048" lon="4.92088">
        <ele>50.650327</ele>
        <time>2020-07-25T13:27:13.995Z</time>
      </trkpt>
      <trkpt lat="60.80057" lon="4.92081">
        <ele>50.587623</ele>
        <time>2020-07-25T13:27:14.994Z</time>
      </trkpt>
      <trkpt lat="60.80065" lon="4.92074">
        <ele>50.524189</ele>
        <time>2020-07-25T13:27:16.002Z</time>
      </trkpt>
      <trkpt lat="60.80074" lon="4.92066">
        <ele>50.463581</ele>
        <time>2020-07-25T13:27:17.012Z</time>
      </trkpt>
      <trkpt lat="60.80091" lon="4.92054">
        <ele>50.345592</ele>
        <time>2020-07-25T13:27:18.994Z</time>
      </trkpt>
      <trkpt lat="60.80105" lon="4.92042">
        <ele>50.239129</ele>
        <time>2020-07-25T13:27:21.003Z</time>
      </trkpt>
      <trkpt lat="60.80118" lon="4.92031">
        <ele>50.149514</ele>
        <time>2020-07-25T13:27:23.027Z</time>
      </trkpt>
      <trkpt lat="60.80128" lon="4.92023">
        <ele>50.079918</ele>
        <time>2020-07-25T13:27:24.980Z</time>
      </trkpt>
      <trkpt lat="60.80139" lon="4.92012">
        <ele>49.998298</ele>
        <time>2020-07-25T13:27:28.001Z</time>
      </trkpt>
      <trkpt lat="60.80148" lon="4.91999">
        <ele>49.922973</ele>
        <time>2020-07-25T13:27:32.000Z</time>
      </trkpt>
      <trkpt lat="60.80156" lon="4.91987">
        <ele>49.855872</ele>
        <time>2020-07-25T13:27:35.992Z</time>
      </trkpt>
      <trkpt lat="60.80165" lon="4.91975">
        <ele>49.784734</ele>
        <time>2020-07-25T13:27:39.978Z</time>
      </trkpt>
      <trkpt lat="60.80175" lon="4.9196">
        <ele>49.857997</ele>
        <time>2020-07-25T13:27:43.995Z</time>
      </trkpt>
      <trkpt lat="60.80184" lon="4.91952">
        <ele>50.27182</ele>
        <time>2020-07-25T13:27:46.984Z</time>
      </trkpt>
      <trkpt lat="60.80193" lon="4.91943">
        <ele>50.678029</ele>
        <time>2020-07-25T13:27:49.989Z</time>
      </trkpt>
      <trkpt lat="60.80201" lon="4.91933">
        <ele>51.074387</ele>
        <time>2020-07-25T13:27:52.997Z</time>
      </trkpt>
      <trkpt lat="60.8021" lon="4.91922">
        <ele>51.494026</ele>
        <time>2020-07-25T13:27:55.987Z</time>
      </trkpt>
      <trkpt lat="60.80218" lon="4.91912">
        <ele>51.896396</ele>
        <time>2020-07-25T13:27:58.999Z</time>
      </trkpt>
      <trkpt lat="60.80227" lon="4.91902">
        <ele>52.318602</ele>
        <time>2020-07-25T13:28:01.991Z</time>
      </trkpt>
      <trkpt lat="60.80236" lon="4.91892">
        <ele>52.739817</ele>
        <time>2020-07-25T13:28:05.009Z</time>
      </trkpt>
      <trkpt lat="60.80245" lon="4.91881">
        <ele>53.151962</ele>
        <time>2020-07-25T13:28:07.996Z</time>
      </trkpt>
      <trkpt lat="60.80253" lon="4.91871">
        <ele>53.550957</ele>
        <time>2020-07-25T13:28:10.985Z</time>
      </trkpt>
      <trkpt lat="60.80263" lon="4.9186">
        <ele>54.005199</ele>
        <time>2020-07-25T13:28:15.008Z</time>
      </trkpt>
      <trkpt lat="60.80272" lon="4.91853">
        <ele>54.43357</ele>
        <time>2020-07-25T13:28:19.003Z</time>
      </trkpt>
      <trkpt lat="60.80283" lon="4.91847">
        <ele>54.883902</ele>
        <time>2020-07-25T13:28:23.015Z</time>
      </trkpt>
      <trkpt lat="60.80292" lon="4.91844">
        <ele>55.272883</ele>
        <time>2020-07-25T13:28:26.993Z</time>
      </trkpt>
      <trkpt lat="60.80302" lon="4.91843">
        <ele>55.660307</ele>
        <time>2020-07-25T13:28:31.058Z</time>
      </trkpt>
      <trkpt lat="60.80311" lon="4.91847">
        <ele>56.046313</ele>
        <time>2020-07-25T13:28:35.016Z</time>
      </trkpt>
      <trkpt lat="60.8032" lon="4.91851">
        <ele>56.434762</ele>
        <time>2020-07-25T13:28:39.001Z</time>
      </trkpt>
      <trkpt lat="60.8033" lon="4.91862">
        <ele>56.884425</ele>
        <time>2020-07-25T13:28:44.031Z</time>
      </trkpt>
      <trkpt lat="60.80338" lon="4.91874">
        <ele>57.110299</ele>
        <time>2020-07-25T13:28:48.005Z</time>
      </trkpt>
      <trkpt lat="60.80346" lon="4.9189">
        <ele>57.024665</ele>
        <time>2020-07-25T13:28:52.048Z</time>
      </trkpt>
      <trkpt lat="60.80353" lon="4.91908">
        <ele>56.937361</ele>
        <time>2020-07-25T13:28:54.999Z</time>
      </trkpt>
      <trkpt lat="60.80357" lon="4.91924">
        <ele>56.868036</ele>
        <time>2020-07-25T13:28:57.002Z</time>
      </trkpt>
      <trkpt lat="60.80362" lon="4.91943">
        <ele>56.79046</ele>
        <time>2020-07-25T13:28:59.007Z</time>
      </trkpt>
      <trkpt lat="60.80365" lon="4.91964">
        <ele>56.705887</ele>
        <time>2020-07-25T13:29:01.041Z</time>
      </trkpt>
      <trkpt lat="60.80367" lon="4.9199">
        <ele>56.609184</ele>
        <time>2020-07-25T13:29:03.028Z</time>
      </trkpt>
      <trkpt lat="60.80366" lon="4.9202">
        <ele>56.498704</ele>
        <time>2020-07-25T13:29:04.983Z</time>
      </trkpt>
      <trkpt lat="60.80361" lon="4.92051">
        <ele>56.378003</ele>
        <time>2020-07-25T13:29:07.005Z</time>
      </trkpt>
      <trkpt lat="60.80354" lon="4.92084">
        <ele>56.238614</ele>
        <time>2020-07-25T13:29:09.014Z</time>
      </trkpt>
      <trkpt lat="60.80349" lon="4.92101">
        <ele>56.166581</ele>
        <time>2020-07-25T13:29:09.995Z</time>
      </trkpt>
      <trkpt lat="60.80344" lon="4.92118">
        <ele>56.094091</ele>
        <time>2020-07-25T13:29:10.986Z</time>
      </trkpt>
      <trkpt lat="60.80339" lon="4.92134">
        <ele>56.021427</ele>
        <time>2020-07-25T13:29:12.006Z</time>
      </trkpt>
      <trkpt lat="60.80334" lon="4.9215">
        <ele>55.949478</ele>
        <time>2020-07-25T13:29:13.032Z</time>
      </trkpt>
      <trkpt lat="60.80329" lon="4.92166">
        <ele>55.878486</ele>
        <time>2020-07-25T13:29:14.012Z</time>
      </trkpt>
      <trkpt lat="60.80324" lon="4.92181">
        <ele>55.809792</ele>
        <time>2020-07-25T13:29:14.997Z</time>
      </trkpt>
      <trkpt lat="60.80315" lon="4.9221">
        <ele>55.68826</ele>
        <time>2020-07-25T13:29:16.988Z</time>
      </trkpt>
      <trkpt lat="60.80307" lon="4.92236">
        <ele>55.583034</ele>
        <time>2020-07-25T13:29:18.997Z</time>
      </trkpt>
      <trkpt lat="60.80299" lon="4.92256">
        <ele>55.492711</ele>
        <time>2020-07-25T13:29:20.982Z</time>
      </trkpt>
      <trkpt lat="60.80293" lon="4.92275">
        <ele>55.416757</ele>
        <time>2020-07-25T13:29:23.004Z</time>
      </trkpt>
      <trkpt lat="60.80288" lon="4.92291">
        <ele>55.349743</ele>
        <time>2020-07-25T13:29:24.992Z</time>
      </trkpt>
      <trkpt lat="60.80284" lon="4.92308">
        <ele>55.283098</ele>
        <time>2020-07-25T13:29:27.009Z</time>
      </trkpt>
      <trkpt lat="60.80282" lon="4.92326">
        <ele>55.217889</ele>
        <time>2020-07-25T13:29:28.985Z</time>
      </trkpt>
      <trkpt lat="60.80279" lon="4.92353">
        <ele>55.12395</ele>
        <time>2020-07-25T13:29:31.990Z</time>
      </trkpt>
      <trkpt lat="60.80277" lon="4.92378">
        <ele>55.033827</ele>
        <time>2020-07-25T13:29:34.979Z</time>
      </trkpt>
      <trkpt lat="60.80275" lon="4.92404">
        <ele>54.942327</ele>
        <time>2020-07-25T13:29:38.008Z</time>
      </trkpt>
      <trkpt lat="60.80274" lon="4.92422">
        <ele>54.87823</ele>
        <time>2020-07-25T13:29:40.038Z</time>
      </trkpt>
      <trkpt lat="60.80272" lon="4.92441">
        <ele>54.81155</ele>
        <time>2020-07-25T13:29:42.034Z</time>
      </trkpt>
      <trkpt lat="60.8027" lon="4.9246">
        <ele>54.743758</ele>
        <time>2020-07-25T13:29:44.004Z</time>
      </trkpt>
      <trkpt lat="60.80269" lon="4.9248">
        <ele>54.674708</ele>
        <time>2020-07-25T13:29:45.991Z</time>
      </trkpt>
      <trkpt lat="60.80267" lon="4.92498">
        <ele>54.609312</ele>
        <time>2020-07-25T13:29:47.984Z</time>
      </trkpt>
      <trkpt lat="60.80266" lon="4.92517">
        <ele>54.543668</ele>
        <time>2020-07-25T13:29:50.006Z</time>
      </trkpt>
      <trkpt lat="60.80265" lon="4.92536">
        <ele>54.483753</ele>
        <time>2020-07-25T13:29:51.985Z</time>
      </trkpt>
      <trkpt lat="60.80262" lon="4.92563">
        <ele>55.081273</ele>
        <time>2020-07-25T13:29:54.984Z</time>
      </trkpt>
      <trkpt lat="60.80261" lon="4.92582">
        <ele>55.496272</ele>
        <time>2020-07-25T13:29:56.982Z</time>
      </trkpt>
      <trkpt lat="60.80259" lon="4.92601">
        <ele>55.908061</ele>
        <time>2020-07-25T13:29:59.011Z</time>
      </trkpt>
      <trkpt lat="60.80258" lon="4.92619">
        <ele>56.315335</ele>
        <time>2020-07-25T13:30:01.014Z</time>
      </trkpt>
      <trkpt lat="60.80254" lon="4.92645">
        <ele>56.888431</ele>
        <time>2020-07-25T13:30:04.002Z</time>
      </trkpt>
      <trkpt lat="60.8025" lon="4.92668">
        <ele>57.416697</ele>
        <time>2020-07-25T13:30:06.992Z</time>
      </trkpt>
      <trkpt lat="60.80246" lon="4.92689">
        <ele>57.920855</ele>
        <time>2020-07-25T13:30:09.991Z</time>
      </trkpt>
      <trkpt lat="60.80241" lon="4.92709">
        <ele>58.401287</ele>
        <time>2020-07-25T13:30:13.040Z</time>
      </trkpt>
      <trkpt lat="60.80236" lon="4.92728">
        <ele>58.860174</ele>
        <time>2020-07-25T13:30:16.002Z</time>
      </trkpt>
      <trkpt lat="60.80232" lon="4.92746">
        <ele>59.295987</ele>
        <time>2020-07-25T13:30:19.011Z</time>
      </trkpt>
      <trkpt lat="60.80228" lon="4.92763">
        <ele>59.69689</ele>
        <time>2020-07-25T13:30:22.000Z</time>
      </trkpt>
      <trkpt lat="60.80223" lon="4.92782">
        <ele>60.179581</ele>
        <time>2020-07-25T13:30:26.006Z</time>
      </trkpt>
      <trkpt lat="60.80219" lon="4.928">
        <ele>60.599649</ele>
        <time>2020-07-25T13:30:29.001Z</time>
      </trkpt>
      <trkpt lat="60.80215" lon="4.92818">
        <ele>61.021638</ele>
        <time>2020-07-25T13:30:31.988Z</time>
      </trkpt>
      <trkpt lat="60.8021" lon="4.9284">
        <ele>61.556544</ele>
        <time>2020-07-25T13:30:35.989Z</time>
      </trkpt>
      <trkpt lat="60.80206" lon="4.92857">
        <ele>61.980913</ele>
        <time>2020-07-25T13:30:39.006Z</time>
      </trkpt>
      <trkpt lat="60.802" lon="4.92874">
        <ele>62.402915</ele>
        <time>2020-07-25T13:30:41.983Z</time>
      </trkpt>
      <trkpt lat="60.80194" lon="4.92895">
        <ele>62.602847</ele>
        <time>2020-07-25T13:30:45.990Z</time>
      </trkpt>
      <trkpt lat="60.80189" lon="4.92911">
        <ele>62.731772</ele>
        <time>2020-07-25T13:30:48.983Z</time>
      </trkpt>
      <trkpt lat="60.80184" lon="4.92931">
        <ele>62.881889</ele>
        <time>2020-07-25T13:30:52.991Z</time>
      </trkpt>
      <trkpt lat="60.8018" lon="4.92952">
        <ele>63.033811</ele>
        <time>2020-07-25T13:30:57.009Z</time>
      </trkpt>
      <trkpt lat="60.80174" lon="4.92969">
        <ele>63.172733</ele>
        <time>2020-07-25T13:31:00.988Z</time>
      </trkpt>
      <trkpt lat="60.80168" lon="4.92987">
        <ele>63.31499</ele>
        <time>2020-07-25T13:31:05.027Z</time>
      </trkpt>
      <trkpt lat="60.80162" lon="4.93002">
        <ele>63.441305</ele>
        <time>2020-07-25T13:31:07.996Z</time>
      </trkpt>
      <trkpt lat="60.80157" lon="4.93018">
        <ele>63.571071</ele>
        <time>2020-07-25T13:31:11.016Z</time>
      </trkpt>
      <trkpt lat="60.80151" lon="4.93036">
        <ele>63.716173</ele>
        <time>2020-07-25T13:31:14.018Z</time>
      </trkpt>
      <trkpt lat="60.80144" lon="4.93055">
        <ele>63.875776</ele>
        <time>2020-07-25T13:31:17.029Z</time>
      </trkpt>
      <trkpt lat="60.80136" lon="4.93075">
        <ele>64.050325</ele>
        <time>2020-07-25T13:31:20.002Z</time>
      </trkpt>
      <trkpt lat="60.80129" lon="4.93088">
        <ele>64.179508</ele>
        <time>2020-07-25T13:31:22.007Z</time>
      </trkpt>
      <trkpt lat="60.80122" lon="4.93101">
        <ele>64.308562</ele>
        <time>2020-07-25T13:31:24.017Z</time>
      </trkpt>
      <trkpt lat="60.80115" lon="4.93115">
        <ele>64.44864</ele>
        <time>2020-07-25T13:31:26.004Z</time>
      </trkpt>
      <trkpt lat="60.80107" lon="4.93129">
        <ele>64.590045</ele>
        <time>2020-07-25T13:31:27.989Z</time>
      </trkpt>
      <trkpt lat="60.80099" lon="4.93144">
        <ele>64.739098</ele>
        <time>2020-07-25T13:31:29.996Z</time>
      </trkpt>
      <trkpt lat="60.80091" lon="4.93158">
        <ele>64.884908</ele>
        <time>2020-07-25T13:31:31.984Z</time>
      </trkpt>
      <trkpt lat="60.80083" lon="4.93173">
        <ele>65.085552</ele>
        <time>2020-07-25T13:31:34.002Z</time>
      </trkpt>
      <trkpt lat="60.80075" lon="4.93186">
        <ele>65.293115</ele>
        <time>2020-07-25T13:31:35.991Z</time>
      </trkpt>
      <trkpt lat="60.80067" lon="4.932">
        <ele>65.498011</ele>
        <time>2020-07-25T13:31:37.997Z</time>
      </trkpt>
      <trkpt lat="60.8006" lon="4.93213">
        <ele>65.688827</ele>
        <time>2020-07-25T13:31:39.995Z</time>
      </trkpt>
      <trkpt lat="60.80052" lon="4.93228">
        <ele>65.900505</ele>
        <time>2020-07-25T13:31:41.989Z</time>
      </trkpt>
      <trkpt lat="60.80044" lon="4.93243">
        <ele>66.129096</ele>
        <time>2020-07-25T13:31:43.985Z</time>
      </trkpt>
      <trkpt lat="60.80036" lon="4.93258">
        <ele>66.345093</ele>
        <time>2020-07-25T13:31:46.015Z</time>
      </trkpt>
      <trkpt lat="60.80028" lon="4.93272">
        <ele>66.563902</ele>
        <time>2020-07-25T13:31:47.986Z</time>
      </trkpt>
      <trkpt lat="60.80019" lon="4.93287">
        <ele>66.785266</ele>
        <time>2020-07-25T13:31:50.016Z</time>
      </trkpt>
      <trkpt lat="60.8001" lon="4.93302">
        <ele>67.024671</ele>
        <time>2020-07-25T13:31:51.991Z</time>
      </trkpt>
      <trkpt lat="60.8" lon="4.93318">
        <ele>67.279473</ele>
        <time>2020-07-25T13:31:54.000Z</time>
      </trkpt>
      <trkpt lat="60.7999" lon="4.93335">
        <ele>67.547076</ele>
        <time>2020-07-25T13:31:55.994Z</time>
      </trkpt>
      <trkpt lat="60.79978" lon="4.93352">
        <ele>67.839281</ele>
        <time>2020-07-25T13:31:57.988Z</time>
      </trkpt>
      <trkpt lat="60.79966" lon="4.93368">
        <ele>68.129798</ele>
        <time>2020-07-25T13:31:59.988Z</time>
      </trkpt>
      <trkpt lat="60.79955" lon="4.93383">
        <ele>68.397132</ele>
        <time>2020-07-25T13:32:01.999Z</time>
      </trkpt>
      <trkpt lat="60.79943" lon="4.934">
        <ele>68.399049</ele>
        <time>2020-07-25T13:32:03.998Z</time>
      </trkpt>
      <trkpt lat="60.79931" lon="4.93417">
        <ele>68.110575</ele>
        <time>2020-07-25T13:32:06.004Z</time>
      </trkpt>
      <trkpt lat="60.7992" lon="4.93431">
        <ele>67.844384</ele>
        <time>2020-07-25T13:32:07.996Z</time>
      </trkpt>
      <trkpt lat="60.7991" lon="4.93446">
        <ele>67.594421</ele>
        <time>2020-07-25T13:32:09.997Z</time>
      </trkpt>
      <trkpt lat="60.799" lon="4.93459">
        <ele>67.348197</ele>
        <time>2020-07-25T13:32:12.015Z</time>
      </trkpt>
      <trkpt lat="60.79889" lon="4.93473">
        <ele>67.099202</ele>
        <time>2020-07-25T13:32:13.990Z</time>
      </trkpt>
      <trkpt lat="60.79878" lon="4.93486">
        <ele>66.84</ele>
        <time>2020-07-25T13:32:16.033Z</time>
      </trkpt>
      <trkpt lat="60.79868" lon="4.93499">
        <ele>66.590315</ele>
        <time>2020-07-25T13:32:17.989Z</time>
      </trkpt>
      <trkpt lat="60.79858" lon="4.93513">
        <ele>66.347673</ele>
        <time>2020-07-25T13:32:19.992Z</time>
      </trkpt>
      <trkpt lat="60.79848" lon="4.93527">
        <ele>66.107197</ele>
        <time>2020-07-25T13:32:21.990Z</time>
      </trkpt>
      <trkpt lat="60.79839" lon="4.93541">
        <ele>65.880173</ele>
        <time>2020-07-25T13:32:23.986Z</time>
      </trkpt>
      <trkpt lat="60.7983" lon="4.93554">
        <ele>65.65468</ele>
        <time>2020-07-25T13:32:25.997Z</time>
      </trkpt>
      <trkpt lat="60.79821" lon="4.93571">
        <ele>65.410067</ele>
        <time>2020-07-25T13:32:28.003Z</time>
      </trkpt>
      <trkpt lat="60.79813" lon="4.93589">
        <ele>65.155396</ele>
        <time>2020-07-25T13:32:30.019Z</time>
      </trkpt>
      <trkpt lat="60.79805" lon="4.93612">
        <ele>64.875077</ele>
        <time>2020-07-25T13:32:32.000Z</time>
      </trkpt>
      <trkpt lat="60.79801" lon="4.93637">
        <ele>64.250905</ele>
        <time>2020-07-25T13:32:33.993Z</time>
      </trkpt>
      <trkpt lat="60.79797" lon="4.93666">
        <ele>63.576051</ele>
        <time>2020-07-25T13:32:36.006Z</time>
      </trkpt>
      <trkpt lat="60.79796" lon="4.93695">
        <ele>62.914227</ele>
        <time>2020-07-25T13:32:38.031Z</time>
      </trkpt>
      <trkpt lat="60.79798" lon="4.93727">
        <ele>62.203074</ele>
        <time>2020-07-25T13:32:40.035Z</time>
      </trkpt>
      <trkpt lat="60.79799" lon="4.93759">
        <ele>61.463938</ele>
        <time>2020-07-25T13:32:41.984Z</time>
      </trkpt>
      <trkpt lat="60.798" lon="4.93791">
        <ele>60.731288</ele>
        <time>2020-07-25T13:32:44.002Z</time>
      </trkpt>
      <trkpt lat="60.79801" lon="4.93822">
        <ele>60.02507</ele>
        <time>2020-07-25T13:32:46.033Z</time>
      </trkpt>
      <trkpt lat="60.79802" lon="4.93854">
        <ele>59.316358</ele>
        <time>2020-07-25T13:32:48.005Z</time>
      </trkpt>
      <trkpt lat="60.79803" lon="4.93886">
        <ele>58.578079</ele>
        <time>2020-07-25T13:32:49.987Z</time>
      </trkpt>
      <trkpt lat="60.79804" lon="4.93919">
        <ele>57.819469</ele>
        <time>2020-07-25T13:32:51.992Z</time>
      </trkpt>
      <trkpt lat="60.79802" lon="4.93952">
        <ele>57.067625</ele>
        <time>2020-07-25T13:32:54.015Z</time>
      </trkpt>
      <trkpt lat="60.79796" lon="4.93984">
        <ele>56.648563</ele>
        <time>2020-07-25T13:32:55.998Z</time>
      </trkpt>
      <trkpt lat="60.79787" lon="4.94012">
        <ele>57.058153</ele>
        <time>2020-07-25T13:32:57.994Z</time>
      </trkpt>
      <trkpt lat="60.79777" lon="4.94037">
        <ele>57.446458</ele>
        <time>2020-07-25T13:33:00.018Z</time>
      </trkpt>
      <trkpt lat="60.79769" lon="4.94059">
        <ele>57.788543</ele>
        <time>2020-07-25T13:33:01.993Z</time>
      </trkpt>
      <trkpt lat="60.79761" lon="4.94078">
        <ele>58.080393</ele>
        <time>2020-07-25T13:33:04.019Z</time>
      </trkpt>
      <trkpt lat="60.79756" lon="4.94093">
        <ele>58.304907</ele>
        <time>2020-07-25T13:33:05.984Z</time>
      </trkpt>
      <trkpt lat="60.7975" lon="4.94109">
        <ele>58.546424</ele>
        <time>2020-07-25T13:33:09.009Z</time>
      </trkpt>
      <trkpt lat="60.79745" lon="4.94124">
        <ele>58.770416</ele>
        <time>2020-07-25T13:33:14.990Z</time>
      </trkpt>
      <trkpt lat="60.79738" lon="4.94137">
        <ele>58.994156</ele>
        <time>2020-07-25T13:33:22.997Z</time>
      </trkpt>
      <trkpt lat="60.79732" lon="4.94161">
        <ele>59.317011</ele>
        <time>2020-07-25T13:35:11.005Z</time>
      </trkpt>
      <trkpt lat="60.79724" lon="4.9417">
        <ele>59.539606</ele>
        <time>2020-07-25T13:35:29.011Z</time>
      </trkpt>
      <trkpt lat="60.79718" lon="4.94188">
        <ele>59.813291</ele>
        <time>2020-07-25T13:35:34.991Z</time>
      </trkpt>
      <trkpt lat="60.79712" lon="4.94205">
        <ele>60.055852</ele>
        <time>2020-07-25T13:35:40.022Z</time>
      </trkpt>
      <trkpt lat="60.79705" lon="4.94221">
        <ele>60.309391</ele>
        <time>2020-07-25T13:35:45.991Z</time>
      </trkpt>
      <trkpt lat="60.797" lon="4.94238">
        <ele>60.562316</ele>
        <time>2020-07-25T13:35:52.012Z</time>
      </trkpt>
      <trkpt lat="60.79694" lon="4.94256">
        <ele>60.818624</ele>
        <time>2020-07-25T13:35:58.003Z</time>
      </trkpt>
      <trkpt lat="60.79691" lon="4.94275">
        <ele>60.997061</ele>
        <time>2020-07-25T13:36:05.016Z</time>
      </trkpt>
      <trkpt lat="60.79688" lon="4.94295">
        <ele>61.055825</ele>
        <time>2020-07-25T13:36:11.013Z</time>
      </trkpt>
      <trkpt lat="60.79686" lon="4.94316">
        <ele>61.117841</ele>
        <time>2020-07-25T13:36:16.993Z</time>
      </trkpt>
      <trkpt lat="60.79685" lon="4.94335">
        <ele>61.173391</ele>
        <time>2020-07-25T13:36:22.017Z</time>
      </trkpt>
      <trkpt lat="60.79685" lon="4.94354">
        <ele>61.229841</ele>
        <time>2020-07-25T13:36:27.010Z</time>
      </trkpt>
      <trkpt lat="60.79686" lon="4.94376">
        <ele>61.292853</ele>
        <time>2020-07-25T13:36:32.003Z</time>
      </trkpt>
      <trkpt lat="60.79686" lon="4.94398">
        <ele>61.356189</ele>
        <time>2020-07-25T13:36:35.984Z</time>
      </trkpt>
      <trkpt lat="60.79685" lon="4.94417">
        <ele>61.410943</ele>
        <time>2020-07-25T13:36:39.021Z</time>
      </trkpt>
      <trkpt lat="60.79684" lon="4.94437">
        <ele>61.47079</ele>
        <time>2020-07-25T13:36:42.009Z</time>
      </trkpt>
      <trkpt lat="60.79684" lon="4.9446">
        <ele>61.537292</ele>
        <time>2020-07-25T13:36:44.993Z</time>
      </trkpt>
      <trkpt lat="60.79684" lon="4.94487">
        <ele>61.613033</ele>
        <time>2020-07-25T13:36:47.982Z</time>
      </trkpt>
      <trkpt lat="60.79685" lon="4.94507">
        <ele>61.673167</ele>
        <time>2020-07-25T13:36:50.003Z</time>
      </trkpt>
      <trkpt lat="60.79684" lon="4.94531">
        <ele>61.741692</ele>
        <time>2020-07-25T13:36:51.989Z</time>
      </trkpt>
      <trkpt lat="60.79683" lon="4.94559">
        <ele>61.821989</ele>
        <time>2020-07-25T13:36:53.996Z</time>
      </trkpt>
      <trkpt lat="60.79681" lon="4.94589">
        <ele>61.909612</ele>
        <time>2020-07-25T13:36:55.985Z</time>
      </trkpt>
      <trkpt lat="60.79676" lon="4.94621">
        <ele>62.0073</ele>
        <time>2020-07-25T13:36:58.016Z</time>
      </trkpt>
      <trkpt lat="60.79668" lon="4.94654">
        <ele>62.042364</ele>
        <time>2020-07-25T13:37:00.000Z</time>
      </trkpt>
      <trkpt lat="60.79659" lon="4.94686">
        <ele>62.042432</ele>
        <time>2020-07-25T13:37:01.990Z</time>
      </trkpt>
      <trkpt lat="60.7965" lon="4.94717">
        <ele>62.042498</ele>
        <time>2020-07-25T13:37:04.000Z</time>
      </trkpt>
      <trkpt lat="60.79643" lon="4.94744">
        <ele>62.042556</ele>
        <time>2020-07-25T13:37:05.994Z</time>
      </trkpt>
      <trkpt lat="60.79638" lon="4.94769">
        <ele>62.042607</ele>
        <time>2020-07-25T13:37:08.019Z</time>
      </trkpt>
      <trkpt lat="60.79632" lon="4.94791">
        <ele>62.042654</ele>
        <time>2020-07-25T13:37:09.988Z</time>
      </trkpt>
      <trkpt lat="60.79627" lon="4.94812">
        <ele>62.042696</ele>
        <time>2020-07-25T13:37:12.017Z</time>
      </trkpt>
      <trkpt lat="60.79623" lon="4.9483">
        <ele>62.042734</ele>
        <time>2020-07-25T13:37:14.005Z</time>
      </trkpt>
      <trkpt lat="60.79618" lon="4.94848">
        <ele>62.042771</ele>
        <time>2020-07-25T13:37:15.984Z</time>
      </trkpt>
      <trkpt lat="60.79614" lon="4.94864">
        <ele>62.042806</ele>
        <time>2020-07-25T13:37:17.992Z</time>
      </trkpt>
      <trkpt lat="60.79607" lon="4.94887">
        <ele>62.042856</ele>
        <time>2020-07-25T13:37:21.009Z</time>
      </trkpt>
      <trkpt lat="60.79599" lon="4.94905">
        <ele>62.042901</ele>
        <time>2020-07-25T13:37:24.016Z</time>
      </trkpt>
      <trkpt lat="60.7959" lon="4.9492">
        <ele>62.042942</ele>
        <time>2020-07-25T13:37:27.002Z</time>
      </trkpt>
      <trkpt lat="60.79582" lon="4.94931">
        <ele>62.042979</ele>
        <time>2020-07-25T13:37:29.993Z</time>
      </trkpt>
      <trkpt lat="60.79574" lon="4.94943">
        <ele>62.042653</ele>
        <time>2020-07-25T13:37:33.026Z</time>
      </trkpt>
      <trkpt lat="60.79566" lon="4.94953">
        <ele>62.041842</ele>
        <time>2020-07-25T13:37:35.994Z</time>
      </trkpt>
      <trkpt lat="60.79558" lon="4.9496">
        <ele>62.041027</ele>
        <time>2020-07-25T13:37:39.041Z</time>
      </trkpt>
      <trkpt lat="60.79549" lon="4.94964">
        <ele>62.040221</ele>
        <time>2020-07-25T13:37:41.979Z</time>
      </trkpt>
      <trkpt lat="60.79539" lon="4.94966">
        <ele>62.039309</ele>
        <time>2020-07-25T13:37:44.989Z</time>
      </trkpt>
      <trkpt lat="60.79527" lon="4.94967">
        <ele>62.038277</ele>
        <time>2020-07-25T13:37:48.011Z</time>
      </trkpt>
      <trkpt lat="60.79514" lon="4.94968">
        <ele>62.037121</ele>
        <time>2020-07-25T13:37:51.015Z</time>
      </trkpt>
      <trkpt lat="60.79503" lon="4.94968">
        <ele>62.036205</ele>
        <time>2020-07-25T13:37:53.007Z</time>
      </trkpt>
      <trkpt lat="60.79492" lon="4.94967">
        <ele>62.035235</ele>
        <time>2020-07-25T13:37:55.016Z</time>
      </trkpt>
      <trkpt lat="60.79481" lon="4.94968">
        <ele>62.034247</ele>
        <time>2020-07-25T13:37:56.986Z</time>
      </trkpt>
      <trkpt lat="60.7947" lon="4.94969">
        <ele>62.033284</ele>
        <time>2020-07-25T13:37:58.994Z</time>
      </trkpt>
      <trkpt lat="60.79459" lon="4.9497">
        <ele>62.032323</ele>
        <time>2020-07-25T13:38:01.011Z</time>
      </trkpt>
      <trkpt lat="60.79449" lon="4.94972">
        <ele>62.031411</ele>
        <time>2020-07-25T13:38:02.989Z</time>
      </trkpt>
      <trkpt lat="60.79438" lon="4.94976">
        <ele>62.030445</ele>
        <time>2020-07-25T13:38:05.016Z</time>
      </trkpt>
      <trkpt lat="60.79428" lon="4.94981">
        <ele>62.029479</ele>
        <time>2020-07-25T13:38:06.988Z</time>
      </trkpt>
      <trkpt lat="60.79417" lon="4.94987">
        <ele>62.028477</ele>
        <time>2020-07-25T13:38:09.015Z</time>
      </trkpt>
      <trkpt lat="60.79406" lon="4.94995">
        <ele>62.02744</ele>
        <time>2020-07-25T13:38:11.009Z</time>
      </trkpt>
      <trkpt lat="60.79396" lon="4.95006">
        <ele>62.181925</ele>
        <time>2020-07-25T13:38:13.004Z</time>
      </trkpt>
      <trkpt lat="60.79387" lon="4.95018">
        <ele>62.392406</ele>
        <time>2020-07-25T13:38:15.001Z</time>
      </trkpt>
      <trkpt lat="60.79378" lon="4.95031">
        <ele>62.61004</ele>
        <time>2020-07-25T13:38:16.995Z</time>
      </trkpt>
      <trkpt lat="60.7937" lon="4.95045">
        <ele>62.828115</ele>
        <time>2020-07-25T13:38:19.004Z</time>
      </trkpt>
      <trkpt lat="60.79361" lon="4.95059">
        <ele>63.041285</ele>
        <time>2020-07-25T13:38:21.015Z</time>
      </trkpt>
      <trkpt lat="60.79353" lon="4.95072">
        <ele>63.248324</ele>
        <time>2020-07-25T13:38:23.010Z</time>
      </trkpt>
      <trkpt lat="60.79345" lon="4.95085">
        <ele>63.454766</ele>
        <time>2020-07-25T13:38:25.024Z</time>
      </trkpt>
      <trkpt lat="60.79337" lon="4.95097">
        <ele>63.646225</ele>
        <time>2020-07-25T13:38:26.999Z</time>
      </trkpt>
      <trkpt lat="60.79327" lon="4.95113">
        <ele>63.902223</ele>
        <time>2020-07-25T13:38:30.012Z</time>
      </trkpt>
      <trkpt lat="60.79319" lon="4.95125">
        <ele>64.108369</ele>
        <time>2020-07-25T13:38:33.010Z</time>
      </trkpt>
      <trkpt lat="60.7931" lon="4.95139">
        <ele>64.329891</ele>
        <time>2020-07-25T13:38:36.979Z</time>
      </trkpt>
      <trkpt lat="60.79301" lon="4.95151">
        <ele>64.538719</ele>
        <time>2020-07-25T13:38:40.987Z</time>
      </trkpt>
      <trkpt lat="60.79292" lon="4.95164">
        <ele>64.752097</ele>
        <time>2020-07-25T13:38:45.017Z</time>
      </trkpt>
      <trkpt lat="60.79283" lon="4.95177">
        <ele>64.97846</ele>
        <time>2020-07-25T13:38:49.009Z</time>
      </trkpt>
      <trkpt lat="60.79274" lon="4.95189">
        <ele>65.198172</ele>
        <time>2020-07-25T13:38:53.011Z</time>
      </trkpt>
      <trkpt lat="60.79264" lon="4.952">
        <ele>65.422089</ele>
        <time>2020-07-25T13:38:56.998Z</time>
      </trkpt>
      <trkpt lat="60.79254" lon="4.95211">
        <ele>65.750543</ele>
        <time>2020-07-25T13:39:00.984Z</time>
      </trkpt>
      <trkpt lat="60.79243" lon="4.95221">
        <ele>66.569307</ele>
        <time>2020-07-25T13:39:05.000Z</time>
      </trkpt>
      <trkpt lat="60.79234" lon="4.95231">
        <ele>67.322328</ele>
        <time>2020-07-25T13:39:08.991Z</time>
      </trkpt>
      <trkpt lat="60.79225" lon="4.95241">
        <ele>68.038597</ele>
        <time>2020-07-25T13:39:12.999Z</time>
      </trkpt>
      <trkpt lat="60.79215" lon="4.95251">
        <ele>68.778755</ele>
        <time>2020-07-25T13:39:17.000Z</time>
      </trkpt>
      <trkpt lat="60.79206" lon="4.95263">
        <ele>69.549091</ele>
        <time>2020-07-25T13:39:21.038Z</time>
      </trkpt>
      <trkpt lat="60.79196" lon="4.95271">
        <ele>70.302508</ele>
        <time>2020-07-25T13:39:24.996Z</time>
      </trkpt>
      <trkpt lat="60.79188" lon="4.95283">
        <ele>71.018709</ele>
        <time>2020-07-25T13:39:28.991Z</time>
      </trkpt>
      <trkpt lat="60.79178" lon="4.95293">
        <ele>71.770944</ele>
        <time>2020-07-25T13:39:32.992Z</time>
      </trkpt>
      <trkpt lat="60.79169" lon="4.95304">
        <ele>72.541282</ele>
        <time>2020-07-25T13:39:36.995Z</time>
      </trkpt>
      <trkpt lat="60.79159" lon="4.95316">
        <ele>73.329286</ele>
        <time>2020-07-25T13:39:41.005Z</time>
      </trkpt>
      <trkpt lat="60.79149" lon="4.9533">
        <ele>74.153498</ele>
        <time>2020-07-25T13:39:44.984Z</time>
      </trkpt>
      <trkpt lat="60.79142" lon="4.95341">
        <ele>74.787473</ele>
        <time>2020-07-25T13:39:48.025Z</time>
      </trkpt>
      <trkpt lat="60.79136" lon="4.95355">
        <ele>75.438463</ele>
        <time>2020-07-25T13:39:51.004Z</time>
      </trkpt>
      <trkpt lat="60.79131" lon="4.95372">
        <ele>76.123828</ele>
        <time>2020-07-25T13:39:53.998Z</time>
      </trkpt>
      <trkpt lat="60.79125" lon="4.95387">
        <ele>76.771477</ele>
        <time>2020-07-25T13:39:57.006Z</time>
      </trkpt>
      <trkpt lat="60.79121" lon="4.95404">
        <ele>77.413823</ele>
        <time>2020-07-25T13:40:00.023Z</time>
      </trkpt>
      <trkpt lat="60.79116" lon="4.9542">
        <ele>78.084644</ele>
        <time>2020-07-25T13:40:04.011Z</time>
      </trkpt>
      <trkpt lat="60.79112" lon="4.95438">
        <ele>78.448767</ele>
        <time>2020-07-25T13:40:09.002Z</time>
      </trkpt>
      <trkpt lat="60.79108" lon="4.95455">
        <ele>78.705417</ele>
        <time>2020-07-25T13:40:13.990Z</time>
      </trkpt>
      <trkpt lat="60.79103" lon="4.95473">
        <ele>78.979608</ele>
        <time>2020-07-25T13:40:18.987Z</time>
      </trkpt>
      <trkpt lat="60.79097" lon="4.9549">
        <ele>79.276272</ele>
        <time>2020-07-25T13:40:23.990Z</time>
      </trkpt>
      <trkpt lat="60.79091" lon="4.95504">
        <ele>79.530185</ele>
        <time>2020-07-25T13:40:28.018Z</time>
      </trkpt>
      <trkpt lat="60.79086" lon="4.95522">
        <ele>79.818243</ele>
        <time>2020-07-25T13:40:32.992Z</time>
      </trkpt>
      <trkpt lat="60.79079" lon="4.95539">
        <ele>80.11924</ele>
        <time>2020-07-25T13:40:38.010Z</time>
      </trkpt>
      <trkpt lat="60.79072" lon="4.95553">
        <ele>80.38274</ele>
        <time>2020-07-25T13:40:43.001Z</time>
      </trkpt>
      <trkpt lat="60.79065" lon="4.95565">
        <ele>80.655126</ele>
        <time>2020-07-25T13:40:48.003Z</time>
      </trkpt>
      <trkpt lat="60.79056" lon="4.95578">
        <ele>80.949068</ele>
        <time>2020-07-25T13:40:53.018Z</time>
      </trkpt>
      <trkpt lat="60.79047" lon="4.95593">
        <ele>81.270931</ele>
        <time>2020-07-25T13:40:56.995Z</time>
      </trkpt>
      <trkpt lat="60.79038" lon="4.95603">
        <ele>81.57076</ele>
        <time>2020-07-25T13:40:59.984Z</time>
      </trkpt>
      <trkpt lat="60.79029" lon="4.95613">
        <ele>81.855541</ele>
        <time>2020-07-25T13:41:02.985Z</time>
      </trkpt>
      <trkpt lat="60.7902" lon="4.95625">
        <ele>82.154768</ele>
        <time>2020-07-25T13:41:06.007Z</time>
      </trkpt>
      <trkpt lat="60.79011" lon="4.95641">
        <ele>82.491971</ele>
        <time>2020-07-25T13:41:08.990Z</time>
      </trkpt>
      <trkpt lat="60.79" lon="4.95655">
        <ele>82.845804</ele>
        <time>2020-07-25T13:41:12.044Z</time>
      </trkpt>
      <trkpt lat="60.78989" lon="4.95669">
        <ele>83.21004</ele>
        <time>2020-07-25T13:41:15.021Z</time>
      </trkpt>
      <trkpt lat="60.78981" lon="4.9568">
        <ele>83.114807</ele>
        <time>2020-07-25T13:41:16.990Z</time>
      </trkpt>
      <trkpt lat="60.7897" lon="4.95696">
        <ele>82.795902</ele>
        <time>2020-07-25T13:41:20.014Z</time>
      </trkpt>
      <trkpt lat="60.7896" lon="4.95711">
        <ele>82.489959</ele>
        <time>2020-07-25T13:41:23.004Z</time>
      </trkpt>
      <trkpt lat="60.7895" lon="4.95726">
        <ele>82.197531</ele>
        <time>2020-07-25T13:41:26.002Z</time>
      </trkpt>
      <trkpt lat="60.78939" lon="4.95741">
        <ele>81.898755</ele>
        <time>2020-07-25T13:41:28.995Z</time>
      </trkpt>
      <trkpt lat="60.78929" lon="4.95755">
        <ele>81.610354</ele>
        <time>2020-07-25T13:41:32.007Z</time>
      </trkpt>
      <trkpt lat="60.7892" lon="4.95769">
        <ele>81.336266</ele>
        <time>2020-07-25T13:41:35.016Z</time>
      </trkpt>
      <trkpt lat="60.7891" lon="4.95781">
        <ele>81.071103</ele>
        <time>2020-07-25T13:41:37.988Z</time>
      </trkpt>
      <trkpt lat="60.78901" lon="4.95793">
        <ele>80.821678</ele>
        <time>2020-07-25T13:41:41.023Z</time>
      </trkpt>
      <trkpt lat="60.78892" lon="4.95805">
        <ele>80.566329</ele>
        <time>2020-07-25T13:41:43.997Z</time>
      </trkpt>
      <trkpt lat="60.78884" lon="4.95817">
        <ele>80.326537</ele>
        <time>2020-07-25T13:41:46.992Z</time>
      </trkpt>
      <trkpt lat="60.78875" lon="4.95829">
        <ele>80.080985</ele>
        <time>2020-07-25T13:41:50.010Z</time>
      </trkpt>
      <trkpt lat="60.78867" lon="4.95842">
        <ele>79.833772</ele>
        <time>2020-07-25T13:41:53.013Z</time>
      </trkpt>
      <trkpt lat="60.78858" lon="4.95854">
        <ele>79.580404</ele>
        <time>2020-07-25T13:41:56.011Z</time>
      </trkpt>
      <trkpt lat="60.78849" lon="4.95866">
        <ele>79.320564</ele>
        <time>2020-07-25T13:41:59.015Z</time>
      </trkpt>
      <trkpt lat="60.7884" lon="4.95878">
        <ele>79.075699</ele>
        <time>2020-07-25T13:42:01.987Z</time>
      </trkpt>
      <trkpt lat="60.78831" lon="4.95891">
        <ele>79.097325</ele>
        <time>2020-07-25T13:42:04.994Z</time>
      </trkpt>
      <trkpt lat="60.78823" lon="4.95906">
        <ele>79.17367</ele>
        <time>2020-07-25T13:42:08.024Z</time>
      </trkpt>
      <trkpt lat="60.78814" lon="4.95921">
        <ele>79.249279</ele>
        <time>2020-07-25T13:42:11.021Z</time>
      </trkpt>
      <trkpt lat="60.78805" lon="4.95937">
        <ele>79.32962</ele>
        <time>2020-07-25T13:42:14.003Z</time>
      </trkpt>
      <trkpt lat="60.78797" lon="4.95952">
        <ele>79.405609</ele>
        <time>2020-07-25T13:42:16.985Z</time>
      </trkpt>
      <trkpt lat="60.78789" lon="4.95969">
        <ele>79.484342</ele>
        <time>2020-07-25T13:42:20.004Z</time>
      </trkpt>
      <trkpt lat="60.78782" lon="4.95986">
        <ele>79.56152</ele>
        <time>2020-07-25T13:42:23.000Z</time>
      </trkpt>
      <trkpt lat="60.78774" lon="4.96005">
        <ele>79.640907</ele>
        <time>2020-07-25T13:42:25.996Z</time>
      </trkpt>
      <trkpt lat="60.78768" lon="4.96024">
        <ele>79.720381</ele>
        <time>2020-07-25T13:42:29.043Z</time>
      </trkpt>
      <trkpt lat="60.78762" lon="4.96044">
        <ele>79.79789</ele>
        <time>2020-07-25T13:42:31.989Z</time>
      </trkpt>
      <trkpt lat="60.78756" lon="4.96063">
        <ele>79.873662</ele>
        <time>2020-07-25T13:42:34.995Z</time>
      </trkpt>
      <trkpt lat="60.78749" lon="4.96083">
        <ele>79.953567</ele>
        <time>2020-07-25T13:42:37.995Z</time>
      </trkpt>
      <trkpt lat="60.78743" lon="4.96103">
        <ele>80.035227</ele>
        <time>2020-07-25T13:42:41.037Z</time>
      </trkpt>
      <trkpt lat="60.78736" lon="4.96124">
        <ele>80.11782</ele>
        <time>2020-07-25T13:42:43.994Z</time>
      </trkpt>
      <trkpt lat="60.7873" lon="4.96145">
        <ele>80.200251</ele>
        <time>2020-07-25T13:42:46.980Z</time>
      </trkpt>
      <trkpt lat="60.78724" lon="4.96165">
        <ele>80.322622</ele>
        <time>2020-07-25T13:42:50.029Z</time>
      </trkpt>
      <trkpt lat="60.78718" lon="4.96187">
        <ele>80.680344</ele>
        <time>2020-07-25T13:42:53.007Z</time>
      </trkpt>
      <trkpt lat="60.78711" lon="4.96208">
        <ele>81.036345</ele>
        <time>2020-07-25T13:42:55.985Z</time>
      </trkpt>
      <trkpt lat="60.78706" lon="4.96229">
        <ele>81.379371</ele>
        <time>2020-07-25T13:42:59.016Z</time>
      </trkpt>
      <trkpt lat="60.787" lon="4.9625">
        <ele>81.712106</ele>
        <time>2020-07-25T13:43:02.016Z</time>
      </trkpt>
      <trkpt lat="60.78694" lon="4.96269">
        <ele>82.036205</ele>
        <time>2020-07-25T13:43:05.013Z</time>
      </trkpt>
      <trkpt lat="60.7869" lon="4.96287">
        <ele>82.329051</ele>
        <time>2020-07-25T13:43:08.004Z</time>
      </trkpt>
      <trkpt lat="60.78685" lon="4.96305">
        <ele>82.619401</ele>
        <time>2020-07-25T13:43:11.004Z</time>
      </trkpt>
      <trkpt lat="60.7868" lon="4.96324">
        <ele>82.917162</ele>
        <time>2020-07-25T13:43:13.988Z</time>
      </trkpt>
      <trkpt lat="60.78675" lon="4.96342">
        <ele>83.210362</ele>
        <time>2020-07-25T13:43:17.020Z</time>
      </trkpt>
      <trkpt lat="60.7867" lon="4.96359">
        <ele>83.489568</ele>
        <time>2020-07-25T13:43:19.988Z</time>
      </trkpt>
      <trkpt lat="60.78666" lon="4.96375">
        <ele>83.759709</ele>
        <time>2020-07-25T13:43:23.002Z</time>
      </trkpt>
      <trkpt lat="60.78661" lon="4.96392">
        <ele>84.036458</ele>
        <time>2020-07-25T13:43:25.995Z</time>
      </trkpt>
      <trkpt lat="60.78656" lon="4.9641">
        <ele>84.321538</ele>
        <time>2020-07-25T13:43:28.982Z</time>
      </trkpt>
      <trkpt lat="60.78652" lon="4.96427">
        <ele>84.598786</ele>
        <time>2020-07-25T13:43:31.991Z</time>
      </trkpt>
      <trkpt lat="60.78647" lon="4.96448">
        <ele>84.93791</ele>
        <time>2020-07-25T13:43:36.017Z</time>
      </trkpt>
      <trkpt lat="60.78641" lon="4.96468">
        <ele>85.251318</ele>
        <time>2020-07-25T13:43:39.991Z</time>
      </trkpt>
      <trkpt lat="60.78637" lon="4.96489">
        <ele>85.560022</ele>
        <time>2020-07-25T13:43:43.998Z</time>
      </trkpt>
      <trkpt lat="60.78633" lon="4.9651">
        <ele>85.773872</ele>
        <time>2020-07-25T13:43:48.006Z</time>
      </trkpt>
      <trkpt lat="60.78626" lon="4.96527">
        <ele>85.985219</ele>
        <time>2020-07-25T13:43:50.988Z</time>
      </trkpt>
      <trkpt lat="60.7862" lon="4.96547">
        <ele>86.213853</ele>
        <time>2020-07-25T13:43:53.994Z</time>
      </trkpt>
      <trkpt lat="60.78614" lon="4.96569">
        <ele>86.459798</ele>
        <time>2020-07-25T13:43:56.992Z</time>
      </trkpt>
      <trkpt lat="60.78607" lon="4.9659">
        <ele>86.696498</ele>
        <time>2020-07-25T13:44:00.003Z</time>
      </trkpt>
      <trkpt lat="60.78602" lon="4.9661">
        <ele>86.925243</ele>
        <time>2020-07-25T13:44:03.024Z</time>
      </trkpt>
      <trkpt lat="60.78597" lon="4.96629">
        <ele>87.125778</ele>
        <time>2020-07-25T13:44:06.047Z</time>
      </trkpt>
      <trkpt lat="60.78593" lon="4.96646">
        <ele>87.30723</ele>
        <time>2020-07-25T13:44:09.006Z</time>
      </trkpt>
      <trkpt lat="60.78588" lon="4.96666">
        <ele>87.527742</ele>
        <time>2020-07-25T13:44:13.004Z</time>
      </trkpt>
      <trkpt lat="60.78584" lon="4.96686">
        <ele>87.743114</ele>
        <time>2020-07-25T13:44:17.002Z</time>
      </trkpt>
      <trkpt lat="60.78579" lon="4.96707">
        <ele>87.961946</ele>
        <time>2020-07-25T13:44:21.010Z</time>
      </trkpt>
      <trkpt lat="60.78573" lon="4.96728">
        <ele>88.194906</ele>
        <time>2020-07-25T13:44:25.006Z</time>
      </trkpt>
      <trkpt lat="60.78569" lon="4.96744">
        <ele>88.373741</ele>
        <time>2020-07-25T13:44:27.980Z</time>
      </trkpt>
      <trkpt lat="60.78565" lon="4.96761">
        <ele>88.554429</ele>
        <time>2020-07-25T13:44:31.071Z</time>
      </trkpt>
      <trkpt lat="60.78561" lon="4.96785">
        <ele>88.799622</ele>
        <time>2020-07-25T13:44:35.007Z</time>
      </trkpt>
      <trkpt lat="60.78556" lon="4.96807">
        <ele>89.032492</ele>
        <time>2020-07-25T13:44:38.016Z</time>
      </trkpt>
      <trkpt lat="60.78551" lon="4.96832">
        <ele>88.650502</ele>
        <time>2020-07-25T13:44:41.042Z</time>
      </trkpt>
      <trkpt lat="60.78549" lon="4.96853">
        <ele>88.261761</ele>
        <time>2020-07-25T13:44:42.982Z</time>
      </trkpt>
      <trkpt lat="60.78547" lon="4.96877">
        <ele>87.824856</ele>
        <time>2020-07-25T13:44:44.985Z</time>
      </trkpt>
      <trkpt lat="60.78546" lon="4.96904">
        <ele>87.340821</ele>
        <time>2020-07-25T13:44:47.031Z</time>
      </trkpt>
      <trkpt lat="60.78548" lon="4.96933">
        <ele>86.81411</ele>
        <time>2020-07-25T13:44:48.985Z</time>
      </trkpt>
      <trkpt lat="60.78551" lon="4.96963">
        <ele>86.276521</ele>
        <time>2020-07-25T13:44:51.001Z</time>
      </trkpt>
      <trkpt lat="60.78556" lon="4.9699">
        <ele>85.751045</ele>
        <time>2020-07-25T13:44:52.999Z</time>
      </trkpt>
      <trkpt lat="60.78564" lon="4.97021">
        <ele>85.140722</ele>
        <time>2020-07-25T13:44:54.983Z</time>
      </trkpt>
      <trkpt lat="60.78574" lon="4.97051">
        <ele>84.480639</ele>
        <time>2020-07-25T13:44:57.001Z</time>
      </trkpt>
      <trkpt lat="60.78581" lon="4.97067">
        <ele>84.117835</ele>
        <time>2020-07-25T13:44:58.027Z</time>
      </trkpt>
      <trkpt lat="60.78588" lon="4.9708">
        <ele>83.760528</ele>
        <time>2020-07-25T13:44:59.012Z</time>
      </trkpt>
      <trkpt lat="60.78596" lon="4.97093">
        <ele>83.391701</ele>
        <time>2020-07-25T13:45:00.009Z</time>
      </trkpt>
      <trkpt lat="60.78605" lon="4.97107">
        <ele>82.987105</ele>
        <time>2020-07-25T13:45:00.994Z</time>
      </trkpt>
      <trkpt lat="60.78614" lon="4.9712">
        <ele>82.581055</ele>
        <time>2020-07-25T13:45:02.046Z</time>
      </trkpt>
      <trkpt lat="60.78623" lon="4.97133">
        <ele>82.255236</ele>
        <time>2020-07-25T13:45:03.024Z</time>
      </trkpt>
      <trkpt lat="60.78633" lon="4.97145">
        <ele>81.939952</ele>
        <time>2020-07-25T13:45:04.037Z</time>
      </trkpt>
      <trkpt lat="60.78644" lon="4.97157">
        <ele>81.610232</ele>
        <time>2020-07-25T13:45:05.012Z</time>
      </trkpt>
      <trkpt lat="60.78656" lon="4.97168">
        <ele>81.253017</ele>
        <time>2020-07-25T13:45:06.007Z</time>
      </trkpt>
      <trkpt lat="60.78669" lon="4.97178">
        <ele>80.878441</ele>
        <time>2020-07-25T13:45:07.018Z</time>
      </trkpt>
      <trkpt lat="60.78682" lon="4.97188">
        <ele>80.506647</ele>
        <time>2020-07-25T13:45:08.008Z</time>
      </trkpt>
      <trkpt lat="60.78695" lon="4.97196">
        <ele>80.128177</ele>
        <time>2020-07-25T13:45:09.000Z</time>
      </trkpt>
      <trkpt lat="60.78708" lon="4.97202">
        <ele>79.7531</ele>
        <time>2020-07-25T13:45:10.013Z</time>
      </trkpt>
      <trkpt lat="60.78722" lon="4.97208">
        <ele>79.377827</ele>
        <time>2020-07-25T13:45:10.993Z</time>
      </trkpt>
      <trkpt lat="60.78736" lon="4.97211">
        <ele>78.997943</ele>
        <time>2020-07-25T13:45:11.995Z</time>
      </trkpt>
      <trkpt lat="60.7875" lon="4.97213">
        <ele>78.626134</ele>
        <time>2020-07-25T13:45:12.987Z</time>
      </trkpt>
      <trkpt lat="60.78764" lon="4.97212">
        <ele>78.249439</ele>
        <time>2020-07-25T13:45:14.008Z</time>
      </trkpt>
      <trkpt lat="60.78777" lon="4.9721">
        <ele>77.876956</ele>
        <time>2020-07-25T13:45:14.987Z</time>
      </trkpt>
      <trkpt lat="60.78791" lon="4.97208">
        <ele>77.420123</ele>
        <time>2020-07-25T13:45:16.004Z</time>
      </trkpt>
      <trkpt lat="60.78804" lon="4.97205">
        <ele>76.775289</ele>
        <time>2020-07-25T13:45:16.991Z</time>
      </trkpt>
      <trkpt lat="60.78818" lon="4.97202">
        <ele>76.129364</ele>
        <time>2020-07-25T13:45:18.014Z</time>
      </trkpt>
      <trkpt lat="60.78831" lon="4.97199">
        <ele>75.492334</ele>
        <time>2020-07-25T13:45:19.025Z</time>
      </trkpt>
      <trkpt lat="60.78845" lon="4.97196">
        <ele>74.864692</ele>
        <time>2020-07-25T13:45:20.004Z</time>
      </trkpt>
      <trkpt lat="60.78858" lon="4.97193">
        <ele>74.236508</ele>
        <time>2020-07-25T13:45:21.003Z</time>
      </trkpt>
      <trkpt lat="60.78871" lon="4.9719">
        <ele>73.609374</ele>
        <time>2020-07-25T13:45:22.019Z</time>
      </trkpt>
      <trkpt lat="60.78884" lon="4.97187">
        <ele>72.982714</ele>
        <time>2020-07-25T13:45:23.014Z</time>
      </trkpt>
      <trkpt lat="60.78898" lon="4.97184">
        <ele>72.345685</ele>
        <time>2020-07-25T13:45:23.995Z</time>
      </trkpt>
      <trkpt lat="60.78911" lon="4.97181">
        <ele>71.704458</ele>
        <time>2020-07-25T13:45:25.004Z</time>
      </trkpt>
      <trkpt lat="60.78925" lon="4.97178">
        <ele>71.062987</ele>
        <time>2020-07-25T13:45:25.995Z</time>
      </trkpt>
      <trkpt lat="60.78938" lon="4.97175">
        <ele>70.42176</ele>
        <time>2020-07-25T13:45:26.974Z</time>
      </trkpt>
      <trkpt lat="60.78952" lon="4.97172">
        <ele>69.784197</ele>
        <time>2020-07-25T13:45:28.006Z</time>
      </trkpt>
      <trkpt lat="60.78965" lon="4.97169">
        <ele>69.166938</ele>
        <time>2020-07-25T13:45:28.989Z</time>
      </trkpt>
      <trkpt lat="60.78977" lon="4.97168">
        <ele>68.750603</ele>
        <time>2020-07-25T13:45:29.990Z</time>
      </trkpt>
      <trkpt lat="60.78989" lon="4.97167">
        <ele>68.359827</ele>
        <time>2020-07-25T13:45:31.020Z</time>
      </trkpt>
      <trkpt lat="60.79001" lon="4.97168">
        <ele>67.969081</ele>
        <time>2020-07-25T13:45:31.999Z</time>
      </trkpt>
      <trkpt lat="60.79012" lon="4.97167">
        <ele>67.591354</ele>
        <time>2020-07-25T13:45:33.009Z</time>
      </trkpt>
      <trkpt lat="60.79023" lon="4.97168">
        <ele>67.236717</ele>
        <time>2020-07-25T13:45:33.981Z</time>
      </trkpt>
      <trkpt lat="60.79033" lon="4.97169">
        <ele>66.920495</ele>
        <time>2020-07-25T13:45:35.012Z</time>
      </trkpt>
      <trkpt lat="60.79049" lon="4.97174">
        <ele>66.364441</ele>
        <time>2020-07-25T13:45:37.006Z</time>
      </trkpt>
      <trkpt lat="60.79062" lon="4.97177">
        <ele>65.96021</ele>
        <time>2020-07-25T13:45:38.998Z</time>
      </trkpt>
      <trkpt lat="60.79071" lon="4.97181">
        <ele>65.641136</ele>
        <time>2020-07-25T13:45:41.006Z</time>
      </trkpt>
      <trkpt lat="60.79082" lon="4.97188">
        <ele>65.26752</ele>
        <time>2020-07-25T13:45:43.988Z</time>
      </trkpt>
      <trkpt lat="60.79091" lon="4.97192">
        <ele>64.950227</ele>
        <time>2020-07-25T13:45:46.978Z</time>
      </trkpt>
      <trkpt lat="60.79103" lon="4.97198">
        <ele>64.565346</ele>
        <time>2020-07-25T13:45:51.008Z</time>
      </trkpt>
      <trkpt lat="60.79112" lon="4.97205">
        <ele>64.245848</ele>
        <time>2020-07-25T13:45:54.994Z</time>
      </trkpt>
      <trkpt lat="60.79121" lon="4.97211">
        <ele>63.931998</ele>
        <time>2020-07-25T13:45:59.988Z</time>
      </trkpt>
      <trkpt lat="60.79131" lon="4.97219">
        <ele>63.584462</ele>
        <time>2020-07-25T13:46:05.021Z</time>
      </trkpt>
      <trkpt lat="60.79141" lon="4.97227">
        <ele>63.236236</ele>
        <time>2020-07-25T13:46:09.997Z</time>
      </trkpt>
      <trkpt lat="60.7915" lon="4.97234">
        <ele>63.679437</ele>
        <time>2020-07-25T13:46:15.024Z</time>
      </trkpt>
      <trkpt lat="60.79158" lon="4.97243">
        <ele>64.139386</ele>
        <time>2020-07-25T13:46:19.991Z</time>
      </trkpt>
      <trkpt lat="60.79166" lon="4.97253">
        <ele>64.599678</ele>
        <time>2020-07-25T13:46:24.991Z</time>
      </trkpt>
      <trkpt lat="60.79174" lon="4.97264">
        <ele>65.084469</ele>
        <time>2020-07-25T13:46:29.995Z</time>
      </trkpt>
      <trkpt lat="60.79182" lon="4.97274">
        <ele>65.567659</ele>
        <time>2020-07-25T13:46:34.989Z</time>
      </trkpt>
      <trkpt lat="60.79191" lon="4.97285">
        <ele>66.066383</ele>
        <time>2020-07-25T13:46:39.993Z</time>
      </trkpt>
      <trkpt lat="60.792" lon="4.97297">
        <ele>66.599958</ele>
        <time>2020-07-25T13:46:46.006Z</time>
      </trkpt>
      <trkpt lat="60.79208" lon="4.97309">
        <ele>67.092837</ele>
        <time>2020-07-25T13:46:50.985Z</time>
      </trkpt>
      <trkpt lat="60.79216" lon="4.97322">
        <ele>67.618297</ele>
        <time>2020-07-25T13:46:55.984Z</time>
      </trkpt>
      <trkpt lat="60.79225" lon="4.97335">
        <ele>68.133695</ele>
        <time>2020-07-25T13:47:00.985Z</time>
      </trkpt>
      <trkpt lat="60.79232" lon="4.97347">
        <ele>68.614688</ele>
        <time>2020-07-25T13:47:06.001Z</time>
      </trkpt>
      <trkpt lat="60.79241" lon="4.9736">
        <ele>69.163185</ele>
        <time>2020-07-25T13:47:10.992Z</time>
      </trkpt>
      <trkpt lat="60.79249" lon="4.97371">
        <ele>69.624354</ele>
        <time>2020-07-25T13:47:15.023Z</time>
      </trkpt>
      <trkpt lat="60.79257" lon="4.97384">
        <ele>70.148797</ele>
        <time>2020-07-25T13:47:18.991Z</time>
      </trkpt>
      <trkpt lat="60.79266" lon="4.97399">
        <ele>70.692591</ele>
        <time>2020-07-25T13:47:22.983Z</time>
      </trkpt>
      <trkpt lat="60.79276" lon="4.97413">
        <ele>71.297047</ele>
        <time>2020-07-25T13:47:27.030Z</time>
      </trkpt>
      <trkpt lat="60.79285" lon="4.97427">
        <ele>71.855349</ele>
        <time>2020-07-25T13:47:30.003Z</time>
      </trkpt>
      <trkpt lat="60.79295" lon="4.97443">
        <ele>71.973051</ele>
        <time>2020-07-25T13:47:33.003Z</time>
      </trkpt>
      <trkpt lat="60.79302" lon="4.97454">
        <ele>71.750951</ele>
        <time>2020-07-25T13:47:34.995Z</time>
      </trkpt>
      <trkpt lat="60.79311" lon="4.97466">
        <ele>71.507329</ele>
        <time>2020-07-25T13:47:36.984Z</time>
      </trkpt>
      <trkpt lat="60.7932" lon="4.9748">
        <ele>71.243965</ele>
        <time>2020-07-25T13:47:38.993Z</time>
      </trkpt>
      <trkpt lat="60.7933" lon="4.97495">
        <ele>70.949894</ele>
        <time>2020-07-25T13:47:40.991Z</time>
      </trkpt>
      <trkpt lat="60.79341" lon="4.9751">
        <ele>70.632381</ele>
        <time>2020-07-25T13:47:42.985Z</time>
      </trkpt>
      <trkpt lat="60.79353" lon="4.97525">
        <ele>70.286671</ele>
        <time>2020-07-25T13:47:44.997Z</time>
      </trkpt>
      <trkpt lat="60.79367" lon="4.97541">
        <ele>69.90691</ele>
        <time>2020-07-25T13:47:46.994Z</time>
      </trkpt>
      <trkpt lat="60.79382" lon="4.97556">
        <ele>69.514198</ele>
        <time>2020-07-25T13:47:49.047Z</time>
      </trkpt>
      <trkpt lat="60.79397" lon="4.97568">
        <ele>69.118686</ele>
        <time>2020-07-25T13:47:50.995Z</time>
      </trkpt>
      <trkpt lat="60.79414" lon="4.97577">
        <ele>68.709965</ele>
        <time>2020-07-25T13:47:53.010Z</time>
      </trkpt>
      <trkpt lat="60.79432" lon="4.97582">
        <ele>68.281808</ele>
        <time>2020-07-25T13:47:55.028Z</time>
      </trkpt>
      <trkpt lat="60.79441" lon="4.97583">
        <ele>68.067128</ele>
        <time>2020-07-25T13:47:55.994Z</time>
      </trkpt>
      <trkpt lat="60.7945" lon="4.97585">
        <ele>67.829501</ele>
        <time>2020-07-25T13:47:56.987Z</time>
      </trkpt>
      <trkpt lat="60.7946" lon="4.97586">
        <ele>67.472309</ele>
        <time>2020-07-25T13:47:57.993Z</time>
      </trkpt>
      <trkpt lat="60.7947" lon="4.97585">
        <ele>67.10019</ele>
        <time>2020-07-25T13:47:58.998Z</time>
      </trkpt>
      <trkpt lat="60.79481" lon="4.97582">
        <ele>66.704787</ele>
        <time>2020-07-25T13:47:59.988Z</time>
      </trkpt>
      <trkpt lat="60.79492" lon="4.97578">
        <ele>66.305262</ele>
        <time>2020-07-25T13:48:01.002Z</time>
      </trkpt>
      <trkpt lat="60.79503" lon="4.97573">
        <ele>65.897937</ele>
        <time>2020-07-25T13:48:01.992Z</time>
      </trkpt>
      <trkpt lat="60.79514" lon="4.97567">
        <ele>65.486291</ele>
        <time>2020-07-25T13:48:02.997Z</time>
      </trkpt>
      <trkpt lat="60.79525" lon="4.97561">
        <ele>65.069216</ele>
        <time>2020-07-25T13:48:04.012Z</time>
      </trkpt>
      <trkpt lat="60.79536" lon="4.97554">
        <ele>64.649124</ele>
        <time>2020-07-25T13:48:04.981Z</time>
      </trkpt>
      <trkpt lat="60.79547" lon="4.97548">
        <ele>64.218501</ele>
        <time>2020-07-25T13:48:05.996Z</time>
      </trkpt>
      <trkpt lat="60.79559" lon="4.97542">
        <ele>63.790997</ele>
        <time>2020-07-25T13:48:06.993Z</time>
      </trkpt>
      <trkpt lat="60.7957" lon="4.97538">
        <ele>63.380088</ele>
        <time>2020-07-25T13:48:07.993Z</time>
      </trkpt>
      <trkpt lat="60.7958" lon="4.97535">
        <ele>62.990246</ele>
        <time>2020-07-25T13:48:08.983Z</time>
      </trkpt>
      <trkpt lat="60.79591" lon="4.97533">
        <ele>62.60952</ele>
        <time>2020-07-25T13:48:09.992Z</time>
      </trkpt>
      <trkpt lat="60.79601" lon="4.97532">
        <ele>62.244677</ele>
        <time>2020-07-25T13:48:11.018Z</time>
      </trkpt>
      <trkpt lat="60.7961" lon="4.97532">
        <ele>61.894913</ele>
        <time>2020-07-25T13:48:12.003Z</time>
      </trkpt>
      <trkpt lat="60.79619" lon="4.97533">
        <ele>61.566718</ele>
        <time>2020-07-25T13:48:13.002Z</time>
      </trkpt>
      <trkpt lat="60.79635" lon="4.97536">
        <ele>61.239512</ele>
        <time>2020-07-25T13:48:14.996Z</time>
      </trkpt>
      <trkpt lat="60.7965" lon="4.97541">
        <ele>61.124648</ele>
        <time>2020-07-25T13:48:16.985Z</time>
      </trkpt>
      <trkpt lat="60.79664" lon="4.97546">
        <ele>61.014041</ele>
        <time>2020-07-25T13:48:19.007Z</time>
      </trkpt>
      <trkpt lat="60.79677" lon="4.97553">
        <ele>60.908387</ele>
        <time>2020-07-25T13:48:20.991Z</time>
      </trkpt>
      <trkpt lat="60.7969" lon="4.97561">
        <ele>60.807617</ele>
        <time>2020-07-25T13:48:22.994Z</time>
      </trkpt>
      <trkpt lat="60.79701" lon="4.9757">
        <ele>60.713568</ele>
        <time>2020-07-25T13:48:24.991Z</time>
      </trkpt>
      <trkpt lat="60.79712" lon="4.97579">
        <ele>60.623272</ele>
        <time>2020-07-25T13:48:27.056Z</time>
      </trkpt>
      <trkpt lat="60.79723" lon="4.97587">
        <ele>60.53474</ele>
        <time>2020-07-25T13:48:28.991Z</time>
      </trkpt>
      <trkpt lat="60.79733" lon="4.97595">
        <ele>60.448515</ele>
        <time>2020-07-25T13:48:30.999Z</time>
      </trkpt>
      <trkpt lat="60.79744" lon="4.97602">
        <ele>60.36387</ele>
        <time>2020-07-25T13:48:33.007Z</time>
      </trkpt>
      <trkpt lat="60.79753" lon="4.97611">
        <ele>60.282275</ele>
        <time>2020-07-25T13:48:34.986Z</time>
      </trkpt>
      <trkpt lat="60.79763" lon="4.97619">
        <ele>60.201379</ele>
        <time>2020-07-25T13:48:36.983Z</time>
      </trkpt>
      <trkpt lat="60.79772" lon="4.97626">
        <ele>60.125934</ele>
        <time>2020-07-25T13:48:39.026Z</time>
      </trkpt>
      <trkpt lat="60.79782" lon="4.97632">
        <ele>60.04849</ele>
        <time>2020-07-25T13:48:41.012Z</time>
      </trkpt>
      <trkpt lat="60.79791" lon="4.97641">
        <ele>59.97245</ele>
        <time>2020-07-25T13:48:43.010Z</time>
      </trkpt>
      <trkpt lat="60.798" lon="4.97649">
        <ele>59.910583</ele>
        <time>2020-07-25T13:48:44.987Z</time>
      </trkpt>
      <trkpt lat="60.79809" lon="4.97658">
        <ele>59.882697</ele>
        <time>2020-07-25T13:48:47.008Z</time>
      </trkpt>
      <trkpt lat="60.79818" lon="4.97666">
        <ele>59.853916</ele>
        <time>2020-07-25T13:48:49.006Z</time>
      </trkpt>
      <trkpt lat="60.79828" lon="4.97673">
        <ele>59.822135</ele>
        <time>2020-07-25T13:48:50.990Z</time>
      </trkpt>
      <trkpt lat="60.7984" lon="4.97682">
        <ele>59.7869</ele>
        <time>2020-07-25T13:48:52.985Z</time>
      </trkpt>
      <trkpt lat="60.79853" lon="4.97692">
        <ele>59.746952</ele>
        <time>2020-07-25T13:48:55.008Z</time>
      </trkpt>
      <trkpt lat="60.79867" lon="4.97703">
        <ele>59.703487</ele>
        <time>2020-07-25T13:48:56.984Z</time>
      </trkpt>
      <trkpt lat="60.79881" lon="4.97715">
        <ele>59.658858</ele>
        <time>2020-07-25T13:48:58.995Z</time>
      </trkpt>
      <trkpt lat="60.79897" lon="4.97727">
        <ele>59.611747</ele>
        <time>2020-07-25T13:49:00.986Z</time>
      </trkpt>
      <trkpt lat="60.79911" lon="4.97738">
        <ele>59.566669</ele>
        <time>2020-07-25T13:49:03.001Z</time>
      </trkpt>
      <trkpt lat="60.79927" lon="4.97749">
        <ele>59.52011</ele>
        <time>2020-07-25T13:49:05.034Z</time>
      </trkpt>
      <trkpt lat="60.79942" lon="4.97761">
        <ele>59.473122</ele>
        <time>2020-07-25T13:49:07.003Z</time>
      </trkpt>
      <trkpt lat="60.79957" lon="4.97773">
        <ele>59.426622</ele>
        <time>2020-07-25T13:49:08.990Z</time>
      </trkpt>
      <trkpt lat="60.79971" lon="4.97784">
        <ele>59.427544</ele>
        <time>2020-07-25T13:49:10.995Z</time>
      </trkpt>
      <trkpt lat="60.79985" lon="4.97796">
        <ele>59.480331</ele>
        <time>2020-07-25T13:49:13.020Z</time>
      </trkpt>
      <trkpt lat="60.79998" lon="4.97806">
        <ele>59.529082</ele>
        <time>2020-07-25T13:49:14.988Z</time>
      </trkpt>
      <trkpt lat="60.80009" lon="4.97816">
        <ele>59.57327</ele>
        <time>2020-07-25T13:49:17.015Z</time>
      </trkpt>
      <trkpt lat="60.8002" lon="4.97824">
        <ele>59.613354</ele>
        <time>2020-07-25T13:49:19.022Z</time>
      </trkpt>
      <trkpt lat="60.8003" lon="4.97831">
        <ele>59.65203</ele>
        <time>2020-07-25T13:49:21.000Z</time>
      </trkpt>
      <trkpt lat="60.80039" lon="4.97838">
        <ele>59.688563</ele>
        <time>2020-07-25T13:49:23.024Z</time>
      </trkpt>
      <trkpt lat="60.80048" lon="4.97845">
        <ele>59.723034</ele>
        <time>2020-07-25T13:49:25.007Z</time>
      </trkpt>
      <trkpt lat="60.80057" lon="4.97852">
        <ele>59.756506</ele>
        <time>2020-07-25T13:49:27.020Z</time>
      </trkpt>
      <trkpt lat="60.8007" lon="4.9786">
        <ele>59.804533</ele>
        <time>2020-07-25T13:49:30.004Z</time>
      </trkpt>
      <trkpt lat="60.80079" lon="4.97865">
        <ele>59.837566</ele>
        <time>2020-07-25T13:49:32.020Z</time>
      </trkpt>
      <trkpt lat="60.80088" lon="4.9787">
        <ele>59.870207</ele>
        <time>2020-07-25T13:49:34.011Z</time>
      </trkpt>
      <trkpt lat="60.80097" lon="4.97873">
        <ele>59.90324</ele>
        <time>2020-07-25T13:49:36.017Z</time>
      </trkpt>
      <trkpt lat="60.80106" lon="4.97876">
        <ele>59.935922</ele>
        <time>2020-07-25T13:49:38.011Z</time>
      </trkpt>
      <trkpt lat="60.80118" lon="4.97881">
        <ele>59.981797</ele>
        <time>2020-07-25T13:49:41.007Z</time>
      </trkpt>
      <trkpt lat="60.8013" lon="4.97887">
        <ele>60.02556</ele>
        <time>2020-07-25T13:49:43.982Z</time>
      </trkpt>
      <trkpt lat="60.80142" lon="4.97892">
        <ele>60.147606</ele>
        <time>2020-07-25T13:49:46.997Z</time>
      </trkpt>
      <trkpt lat="60.80152" lon="4.97898">
        <ele>60.3296</ele>
        <time>2020-07-25T13:49:50.003Z</time>
      </trkpt>
      <trkpt lat="60.80162" lon="4.97903">
        <ele>60.508251</ele>
        <time>2020-07-25T13:49:53.008Z</time>
      </trkpt>
      <trkpt lat="60.80172" lon="4.97908">
        <ele>60.697843</ele>
        <time>2020-07-25T13:49:55.989Z</time>
      </trkpt>
      <trkpt lat="60.80184" lon="4.97912">
        <ele>60.899642</ele>
        <time>2020-07-25T13:49:58.995Z</time>
      </trkpt>
      <trkpt lat="60.80195" lon="4.97915">
        <ele>61.094367</ele>
        <time>2020-07-25T13:50:02.002Z</time>
      </trkpt>
      <trkpt lat="60.80206" lon="4.97918">
        <ele>61.284593</ele>
        <time>2020-07-25T13:50:05.003Z</time>
      </trkpt>
      <trkpt lat="60.80216" lon="4.97923">
        <ele>61.46822</ele>
        <time>2020-07-25T13:50:08.013Z</time>
      </trkpt>
      <trkpt lat="60.80226" lon="4.97928">
        <ele>61.642543</ele>
        <time>2020-07-25T13:50:11.021Z</time>
      </trkpt>
      <trkpt lat="60.80235" lon="4.97934">
        <ele>61.809528</ele>
        <time>2020-07-25T13:50:14.000Z</time>
      </trkpt>
      <trkpt lat="60.80245" lon="4.97939">
        <ele>61.982527</ele>
        <time>2020-07-25T13:50:17.008Z</time>
      </trkpt>
      <trkpt lat="60.80254" lon="4.97945">
        <ele>62.147097</ele>
        <time>2020-07-25T13:50:19.987Z</time>
      </trkpt>
      <trkpt lat="60.80263" lon="4.97952">
        <ele>62.317222</ele>
        <time>2020-07-25T13:50:22.984Z</time>
      </trkpt>
      <trkpt lat="60.80272" lon="4.97961">
        <ele>62.481352</ele>
        <time>2020-07-25T13:50:26.045Z</time>
      </trkpt>
      <trkpt lat="60.80283" lon="4.97971">
        <ele>62.686779</ele>
        <time>2020-07-25T13:50:30.019Z</time>
      </trkpt>
      <trkpt lat="60.80291" lon="4.97979">
        <ele>62.842846</ele>
        <time>2020-07-25T13:50:32.996Z</time>
      </trkpt>
      <trkpt lat="60.80302" lon="4.97976">
        <ele>63.031611</ele>
        <time>2020-07-25T13:50:36.992Z</time>
      </trkpt>
      <trkpt lat="60.80311" lon="4.9797">
        <ele>63.135967</ele>
        <time>2020-07-25T13:50:40.993Z</time>
      </trkpt>
      <trkpt lat="60.8032" lon="4.97978">
        <ele>63.088723</ele>
        <time>2020-07-25T13:50:44.990Z</time>
      </trkpt>
      <trkpt lat="60.80326" lon="4.97996">
        <ele>63.0346</ele>
        <time>2020-07-25T13:50:49.000Z</time>
      </trkpt>
      <trkpt lat="60.80331" lon="4.98011">
        <ele>62.988013</ele>
        <time>2020-07-25T13:50:51.995Z</time>
      </trkpt>
      <trkpt lat="60.8034" lon="4.98032">
        <ele>62.919614</ele>
        <time>2020-07-25T13:50:55.047Z</time>
      </trkpt>
      <trkpt lat="60.80347" lon="4.98047">
        <ele>62.868081</ele>
        <time>2020-07-25T13:50:56.978Z</time>
      </trkpt>
      <trkpt lat="60.80354" lon="4.98061">
        <ele>62.817788</ele>
        <time>2020-07-25T13:50:59.004Z</time>
      </trkpt>
      <trkpt lat="60.80361" lon="4.98076">
        <ele>62.767674</ele>
        <time>2020-07-25T13:51:01.005Z</time>
      </trkpt>
      <trkpt lat="60.80367" lon="4.98091">
        <ele>62.718387</ele>
        <time>2020-07-25T13:51:03.014Z</time>
      </trkpt>
      <trkpt lat="60.80374" lon="4.98106">
        <ele>62.667076</ele>
        <time>2020-07-25T13:51:05.025Z</time>
      </trkpt>
      <trkpt lat="60.8038" lon="4.98124">
        <ele>62.612043</ele>
        <time>2020-07-25T13:51:06.998Z</time>
      </trkpt>
      <trkpt lat="60.80387" lon="4.98143">
        <ele>62.551236</ele>
        <time>2020-07-25T13:51:09.039Z</time>
      </trkpt>
      <trkpt lat="60.80394" lon="4.98164">
        <ele>62.488584</ele>
        <time>2020-07-25T13:51:11.003Z</time>
      </trkpt>
      <trkpt lat="60.80401" lon="4.98184">
        <ele>62.430273</ele>
        <time>2020-07-25T13:51:13.051Z</time>
      </trkpt>
      <trkpt lat="60.80407" lon="4.98202">
        <ele>62.375469</ele>
        <time>2020-07-25T13:51:14.988Z</time>
      </trkpt>
      <trkpt lat="60.80411" lon="4.98219">
        <ele>62.328035</ele>
        <time>2020-07-25T13:51:17.010Z</time>
      </trkpt>
      <trkpt lat="60.80417" lon="4.98242">
        <ele>62.262169</ele>
        <time>2020-07-25T13:51:20.010Z</time>
      </trkpt>
      <trkpt lat="60.80423" lon="4.98264">
        <ele>62.45821</ele>
        <time>2020-07-25T13:51:22.979Z</time>
      </trkpt>
      <trkpt lat="60.80428" lon="4.98283">
        <ele>62.805756</ele>
        <time>2020-07-25T13:51:26.019Z</time>
      </trkpt>
      <trkpt lat="60.80434" lon="4.98302">
        <ele>63.148817</ele>
        <time>2020-07-25T13:51:29.000Z</time>
      </trkpt>
      <trkpt lat="60.80436" lon="4.9832">
        <ele>63.436484</ele>
        <time>2020-07-25T13:51:32.018Z</time>
      </trkpt>
      <trkpt lat="60.80429" lon="4.98336">
        <ele>63.770073</ele>
        <time>2020-07-25T13:51:35.993Z</time>
      </trkpt>
      <trkpt lat="60.80427" lon="4.98356">
        <ele>64.077763</ele>
        <time>2020-07-25T13:51:38.987Z</time>
      </trkpt>
      <trkpt lat="60.80429" lon="4.98377">
        <ele>64.402941</ele>
        <time>2020-07-25T13:51:42.013Z</time>
      </trkpt>
      <trkpt lat="60.80431" lon="4.98398">
        <ele>64.731183</ele>
        <time>2020-07-25T13:51:45.000Z</time>
      </trkpt>
      <trkpt lat="60.80431" lon="4.98419">
        <ele>65.057299</ele>
        <time>2020-07-25T13:51:48.027Z</time>
      </trkpt>
      <trkpt lat="60.80431" lon="4.9844">
        <ele>65.386671</ele>
        <time>2020-07-25T13:51:51.005Z</time>
      </trkpt>
      <trkpt lat="60.80431" lon="4.98461">
        <ele>65.703639</ele>
        <time>2020-07-25T13:51:54.027Z</time>
      </trkpt>
      <trkpt lat="60.8043" lon="4.9848">
        <ele>66.006779</ele>
        <time>2020-07-25T13:51:57.018Z</time>
      </trkpt>
      <trkpt lat="60.80428" lon="4.98499">
        <ele>66.294802</ele>
        <time>2020-07-25T13:52:00.019Z</time>
      </trkpt>
      <trkpt lat="60.80426" lon="4.98518">
        <ele>66.590086</ele>
        <time>2020-07-25T13:52:03.030Z</time>
      </trkpt>
      <trkpt lat="60.80424" lon="4.98537">
        <ele>66.892904</ele>
        <time>2020-07-25T13:52:06.013Z</time>
      </trkpt>
      <trkpt lat="60.80422" lon="4.98556">
        <ele>67.19548</ele>
        <time>2020-07-25T13:52:08.999Z</time>
      </trkpt>
      <trkpt lat="60.8042" lon="4.98575">
        <ele>67.489918</ele>
        <time>2020-07-25T13:52:11.984Z</time>
      </trkpt>
      <trkpt lat="60.80418" lon="4.98593">
        <ele>67.777677</ele>
        <time>2020-07-25T13:52:14.996Z</time>
      </trkpt>
      <trkpt lat="60.80415" lon="4.98612">
        <ele>68.116133</ele>
        <time>2020-07-25T13:52:17.996Z</time>
      </trkpt>
      <trkpt lat="60.80413" lon="4.98632">
        <ele>68.495769</ele>
        <time>2020-07-25T13:52:21.018Z</time>
      </trkpt>
      <trkpt lat="60.80412" lon="4.98653">
        <ele>68.885406</ele>
        <time>2020-07-25T13:52:24.028Z</time>
      </trkpt>
      <trkpt lat="60.80409" lon="4.98673">
        <ele>69.27756</ele>
        <time>2020-07-25T13:52:26.992Z</time>
      </trkpt>
      <trkpt lat="60.80407" lon="4.98694">
        <ele>69.665169</ele>
        <time>2020-07-25T13:52:30.038Z</time>
      </trkpt>
      <trkpt lat="60.80405" lon="4.98713">
        <ele>70.043767</ele>
        <time>2020-07-25T13:52:33.004Z</time>
      </trkpt>
      <trkpt lat="60.80403" lon="4.98733">
        <ele>70.413536</ele>
        <time>2020-07-25T13:52:35.988Z</time>
      </trkpt>
      <trkpt lat="60.80401" lon="4.98753">
        <ele>70.789824</ele>
        <time>2020-07-25T13:52:38.989Z</time>
      </trkpt>
      <trkpt lat="60.80399" lon="4.98774">
        <ele>71.178165</ele>
        <time>2020-07-25T13:52:41.992Z</time>
      </trkpt>
      <trkpt lat="60.80397" lon="4.98794">
        <ele>71.561282</ele>
        <time>2020-07-25T13:52:45.019Z</time>
      </trkpt>
      <trkpt lat="60.80395" lon="4.98814">
        <ele>71.95442</ele>
        <time>2020-07-25T13:52:47.998Z</time>
      </trkpt>
      <trkpt lat="60.80392" lon="4.98836">
        <ele>72.362766</ele>
        <time>2020-07-25T13:52:50.982Z</time>
      </trkpt>
      <trkpt lat="60.8039" lon="4.98858">
        <ele>72.780381</ele>
        <time>2020-07-25T13:52:53.997Z</time>
      </trkpt>
      <trkpt lat="60.80389" lon="4.9888">
        <ele>73.18525</ele>
        <time>2020-07-25T13:52:57.012Z</time>
      </trkpt>
      <trkpt lat="60.80387" lon="4.98899">
        <ele>73.550363</ele>
        <time>2020-07-25T13:53:00.001Z</time>
      </trkpt>
      <trkpt lat="60.80384" lon="4.98921">
        <ele>73.981716</ele>
        <time>2020-07-25T13:53:02.996Z</time>
      </trkpt>
      <trkpt lat="60.80381" lon="4.98947">
        <ele>74.482915</ele>
        <time>2020-07-25T13:53:06.015Z</time>
      </trkpt>
      <trkpt lat="60.80379" lon="4.98966">
        <ele>74.681835</ele>
        <time>2020-07-25T13:53:08.014Z</time>
      </trkpt>
      <trkpt lat="60.80377" lon="4.98985">
        <ele>74.384634</ele>
        <time>2020-07-25T13:53:09.984Z</time>
      </trkpt>
      <trkpt lat="60.80376" lon="4.99005">
        <ele>74.059479</ele>
        <time>2020-07-25T13:53:12.011Z</time>
      </trkpt>
      <trkpt lat="60.80374" lon="4.99026">
        <ele>73.734406</ele>
        <time>2020-07-25T13:53:13.999Z</time>
      </trkpt>
      <trkpt lat="60.80372" lon="4.99046">
        <ele>73.41753</ele>
        <time>2020-07-25T13:53:15.981Z</time>
      </trkpt>
      <trkpt lat="60.8037" lon="4.99066">
        <ele>73.107492</ele>
        <time>2020-07-25T13:53:18.009Z</time>
      </trkpt>
      <trkpt lat="60.80369" lon="4.99085">
        <ele>72.800339</ele>
        <time>2020-07-25T13:53:20.017Z</time>
      </trkpt>
      <trkpt lat="60.80367" lon="4.99105">
        <ele>72.490022</ele>
        <time>2020-07-25T13:53:21.994Z</time>
      </trkpt>
      <trkpt lat="60.80365" lon="4.99125">
        <ele>72.16688</ele>
        <time>2020-07-25T13:53:24.010Z</time>
      </trkpt>
      <trkpt lat="60.80363" lon="4.99146">
        <ele>71.835131</ele>
        <time>2020-07-25T13:53:26.024Z</time>
      </trkpt>
      <trkpt lat="60.80362" lon="4.99167">
        <ele>71.509974</ele>
        <time>2020-07-25T13:53:27.996Z</time>
      </trkpt>
      <trkpt lat="60.80361" lon="4.99188">
        <ele>71.17711</ele>
        <time>2020-07-25T13:53:30.005Z</time>
      </trkpt>
      <trkpt lat="60.80359" lon="4.99208">
        <ele>70.85302</ele>
        <time>2020-07-25T13:53:31.986Z</time>
      </trkpt>
      <trkpt lat="60.80357" lon="4.99229">
        <ele>70.533071</ele>
        <time>2020-07-25T13:53:33.988Z</time>
      </trkpt>
      <trkpt lat="60.80355" lon="4.9925">
        <ele>70.201321</ele>
        <time>2020-07-25T13:53:35.991Z</time>
      </trkpt>
      <trkpt lat="60.80354" lon="4.99271">
        <ele>69.873177</ele>
        <time>2020-07-25T13:53:38.000Z</time>
      </trkpt>
      <trkpt lat="60.80352" lon="4.99292">
        <ele>69.537209</ele>
        <time>2020-07-25T13:53:40.016Z</time>
      </trkpt>
      <trkpt lat="60.8035" lon="4.99313">
        <ele>69.202768</ele>
        <time>2020-07-25T13:53:42.003Z</time>
      </trkpt>
      <trkpt lat="60.80348" lon="4.99333">
        <ele>69.103414</ele>
        <time>2020-07-25T13:53:44.031Z</time>
      </trkpt>
      <trkpt lat="60.80346" lon="4.99353">
        <ele>69.320028</ele>
        <time>2020-07-25T13:53:45.991Z</time>
      </trkpt>
      <trkpt lat="60.80345" lon="4.99372">
        <ele>69.529282</ele>
        <time>2020-07-25T13:53:48.010Z</time>
      </trkpt>
      <trkpt lat="60.80343" lon="4.99391">
        <ele>69.737159</ele>
        <time>2020-07-25T13:53:49.990Z</time>
      </trkpt>
      <trkpt lat="60.80342" lon="4.9941">
        <ele>69.93964</ele>
        <time>2020-07-25T13:53:52.004Z</time>
      </trkpt>
      <trkpt lat="60.8034" lon="4.99429">
        <ele>70.151336</ele>
        <time>2020-07-25T13:53:54.016Z</time>
      </trkpt>
      <trkpt lat="60.80339" lon="4.99449">
        <ele>70.362298</ele>
        <time>2020-07-25T13:53:55.986Z</time>
      </trkpt>
      <trkpt lat="60.80337" lon="4.99468">
        <ele>70.572558</ele>
        <time>2020-07-25T13:53:58.000Z</time>
      </trkpt>
      <trkpt lat="60.80335" lon="4.99487">
        <ele>70.778971</ele>
        <time>2020-07-25T13:53:59.993Z</time>
      </trkpt>
      <trkpt lat="60.80333" lon="4.99513">
        <ele>71.069139</ele>
        <time>2020-07-25T13:54:02.986Z</time>
      </trkpt>
      <trkpt lat="60.8033" lon="4.99538">
        <ele>71.337972</ele>
        <time>2020-07-25T13:54:06.011Z</time>
      </trkpt>
      <trkpt lat="60.80329" lon="4.99562">
        <ele>71.601593</ele>
        <time>2020-07-25T13:54:09.008Z</time>
      </trkpt>
      <trkpt lat="60.80327" lon="4.99584">
        <ele>71.837325</ele>
        <time>2020-07-25T13:54:11.999Z</time>
      </trkpt>
      <trkpt lat="60.80325" lon="4.99604">
        <ele>72.06067</ele>
        <time>2020-07-25T13:54:14.994Z</time>
      </trkpt>
      <trkpt lat="60.80324" lon="4.99628">
        <ele>72.314025</ele>
        <time>2020-07-25T13:54:19.034Z</time>
      </trkpt>
      <trkpt lat="60.80321" lon="4.99648">
        <ele>72.536322</ele>
        <time>2020-07-25T13:54:22.996Z</time>
      </trkpt>
      <trkpt lat="60.80319" lon="4.99671">
        <ele>72.785129</ele>
        <time>2020-07-25T13:54:27.979Z</time>
      </trkpt>
      <trkpt lat="60.80318" lon="4.9969">
        <ele>73.041746</ele>
        <time>2020-07-25T13:54:31.993Z</time>
      </trkpt>
      <trkpt lat="60.80316" lon="4.99709">
        <ele>73.763286</ele>
        <time>2020-07-25T13:54:35.991Z</time>
      </trkpt>
      <trkpt lat="60.80314" lon="4.99727">
        <ele>74.440229</ele>
        <time>2020-07-25T13:54:40.011Z</time>
      </trkpt>
      <trkpt lat="60.80312" lon="4.99746">
        <ele>75.114832</ele>
        <time>2020-07-25T13:54:44.020Z</time>
      </trkpt>
      <trkpt lat="60.8031" lon="4.99766">
        <ele>75.869856</ele>
        <time>2020-07-25T13:54:48.996Z</time>
      </trkpt>
      <trkpt lat="60.80308" lon="4.99786">
        <ele>76.617326</ele>
        <time>2020-07-25T13:54:53.995Z</time>
      </trkpt>
      <trkpt lat="60.80307" lon="4.99805">
        <ele>77.313498</ele>
        <time>2020-07-25T13:54:58.987Z</time>
      </trkpt>
      <trkpt lat="60.80303" lon="4.99825">
        <ele>78.096433</ele>
        <time>2020-07-25T13:55:04.016Z</time>
      </trkpt>
      <trkpt lat="60.80301" lon="4.99844">
        <ele>78.799992</ele>
        <time>2020-07-25T13:55:08.990Z</time>
      </trkpt>
      <trkpt lat="60.80298" lon="4.99863">
        <ele>79.511995</ele>
        <time>2020-07-25T13:55:13.980Z</time>
      </trkpt>
      <trkpt lat="60.80295" lon="4.99883">
        <ele>80.27346</ele>
        <time>2020-07-25T13:55:18.980Z</time>
      </trkpt>
      <trkpt lat="60.80291" lon="4.99904">
        <ele>81.070879</ele>
        <time>2020-07-25T13:55:23.991Z</time>
      </trkpt>
      <trkpt lat="60.80288" lon="4.99921">
        <ele>81.749513</ele>
        <time>2020-07-25T13:55:27.998Z</time>
      </trkpt>
      <trkpt lat="60.80285" lon="4.99943">
        <ele>82.569625</ele>
        <time>2020-07-25T13:55:32.988Z</time>
      </trkpt>
      <trkpt lat="60.80282" lon="4.99961">
        <ele>83.264728</ele>
        <time>2020-07-25T13:55:36.996Z</time>
      </trkpt>
      <trkpt lat="60.80277" lon="4.99977">
        <ele>83.953317</ele>
        <time>2020-07-25T13:55:41.046Z</time>
      </trkpt>
      <trkpt lat="60.80272" lon="4.99994">
        <ele>84.649766</ele>
        <time>2020-07-25T13:55:45.037Z</time>
      </trkpt>
      <trkpt lat="60.80268" lon="5.00012">
        <ele>85.419538</ele>
        <time>2020-07-25T13:55:48.997Z</time>
      </trkpt>
      <trkpt lat="60.80263" lon="5.00033">
        <ele>86.225918</ele>
        <time>2020-07-25T13:55:53.009Z</time>
      </trkpt>
      <trkpt lat="60.80258" lon="5.00052">
        <ele>86.062555</ele>
        <time>2020-07-25T13:55:57.006Z</time>
      </trkpt>
      <trkpt lat="60.80252" lon="5.00071">
        <ele>85.677564</ele>
        <time>2020-07-25T13:56:01.006Z</time>
      </trkpt>
      <trkpt lat="60.80246" lon="5.00088">
        <ele>85.353158</ele>
        <time>2020-07-25T13:56:04.006Z</time>
      </trkpt>
      <trkpt lat="60.80239" lon="5.00104">
        <ele>84.984034</ele>
        <time>2020-07-25T13:56:06.981Z</time>
      </trkpt>
      <trkpt lat="60.8023" lon="5.00121">
        <ele>84.597606</ele>
        <time>2020-07-25T13:56:10.008Z</time>
      </trkpt>
      <trkpt lat="60.80223" lon="5.00138">
        <ele>84.228304</ele>
        <time>2020-07-25T13:56:12.988Z</time>
      </trkpt>
      <trkpt lat="60.80215" lon="5.00156">
        <ele>83.831368</ele>
        <time>2020-07-25T13:56:15.986Z</time>
      </trkpt>
      <trkpt lat="60.80207" lon="5.00175">
        <ele>83.423588</ele>
        <time>2020-07-25T13:56:18.980Z</time>
      </trkpt>
      <trkpt lat="60.80198" lon="5.00193">
        <ele>83.010439</ele>
        <time>2020-07-25T13:56:22.040Z</time>
      </trkpt>
      <trkpt lat="60.8019" lon="5.0021">
        <ele>82.619365</ele>
        <time>2020-07-25T13:56:25.009Z</time>
      </trkpt>
      <trkpt lat="60.80181" lon="5.0023">
        <ele>82.182339</ele>
        <time>2020-07-25T13:56:28.002Z</time>
      </trkpt>
      <trkpt lat="60.80174" lon="5.00243">
        <ele>81.877184</ele>
        <time>2020-07-25T13:56:30.036Z</time>
      </trkpt>
      <trkpt lat="60.80168" lon="5.00256">
        <ele>81.574177</ele>
        <time>2020-07-25T13:56:32.006Z</time>
      </trkpt>
      <trkpt lat="60.80161" lon="5.00271">
        <ele>81.236563</ele>
        <time>2020-07-25T13:56:33.982Z</time>
      </trkpt>
      <trkpt lat="60.80154" lon="5.00287">
        <ele>80.900881</ele>
        <time>2020-07-25T13:56:35.993Z</time>
      </trkpt>
      <trkpt lat="60.80147" lon="5.00302">
        <ele>80.551604</ele>
        <time>2020-07-25T13:56:38.021Z</time>
      </trkpt>
      <trkpt lat="60.8014" lon="5.00318">
        <ele>80.461037</ele>
        <time>2020-07-25T13:56:40.006Z</time>
      </trkpt>
      <trkpt lat="60.80134" lon="5.00333">
        <ele>80.624576</ele>
        <time>2020-07-25T13:56:41.995Z</time>
      </trkpt>
      <trkpt lat="60.80127" lon="5.00348">
        <ele>80.787326</ele>
        <time>2020-07-25T13:56:44.031Z</time>
      </trkpt>
      <trkpt lat="60.80121" lon="5.00362">
        <ele>80.947129</ele>
        <time>2020-07-25T13:56:46.010Z</time>
      </trkpt>
      <trkpt lat="60.80114" lon="5.00375">
        <ele>81.101108</ele>
        <time>2020-07-25T13:56:47.987Z</time>
      </trkpt>
      <trkpt lat="60.80108" lon="5.00388">
        <ele>81.256188</ele>
        <time>2020-07-25T13:56:50.042Z</time>
      </trkpt>
      <trkpt lat="60.80101" lon="5.00402">
        <ele>81.414206</ele>
        <time>2020-07-25T13:56:51.992Z</time>
      </trkpt>
      <trkpt lat="60.80094" lon="5.00416">
        <ele>81.572805</ele>
        <time>2020-07-25T13:56:54.029Z</time>
      </trkpt>
      <trkpt lat="60.80088" lon="5.0043">
        <ele>81.725123</ele>
        <time>2020-07-25T13:56:55.999Z</time>
      </trkpt>
      <trkpt lat="60.8008" lon="5.00451">
        <ele>81.949511</ele>
        <time>2020-07-25T13:56:59.007Z</time>
      </trkpt>
      <trkpt lat="60.80072" lon="5.0047">
        <ele>82.157599</ele>
        <time>2020-07-25T13:57:02.005Z</time>
      </trkpt>
      <trkpt lat="60.80063" lon="5.00487">
        <ele>82.357316</ele>
        <time>2020-07-25T13:57:05.010Z</time>
      </trkpt>
      <trkpt lat="60.80056" lon="5.00504">
        <ele>82.539514</ele>
        <time>2020-07-25T13:57:08.016Z</time>
      </trkpt>
      <trkpt lat="60.80049" lon="5.00517">
        <ele>82.698137</ele>
        <time>2020-07-25T13:57:10.993Z</time>
      </trkpt>
      <trkpt lat="60.80043" lon="5.00531">
        <ele>82.850456</ele>
        <time>2020-07-25T13:57:14.000Z</time>
      </trkpt>
      <trkpt lat="60.80036" lon="5.00546">
        <ele>83.024351</ele>
        <time>2020-07-25T13:57:16.984Z</time>
      </trkpt>
      <trkpt lat="60.8003" lon="5.00563">
        <ele>83.195276</ele>
        <time>2020-07-25T13:57:19.976Z</time>
      </trkpt>
      <trkpt lat="60.80024" lon="5.00577">
        <ele>83.353515</ele>
        <time>2020-07-25T13:57:23.037Z</time>
      </trkpt>
      <trkpt lat="60.80017" lon="5.00591">
        <ele>83.521769</ele>
        <time>2020-07-25T13:57:26.008Z</time>
      </trkpt>
      <trkpt lat="60.8001" lon="5.00609">
        <ele>83.741734</ele>
        <time>2020-07-25T13:57:30.005Z</time>
      </trkpt>
      <trkpt lat="60.80004" lon="5.00624">
        <ele>83.912577</ele>
        <time>2020-07-25T13:57:32.996Z</time>
      </trkpt>
      <trkpt lat="60.79999" lon="5.00639">
        <ele>84.087891</ele>
        <time>2020-07-25T13:57:35.987Z</time>
      </trkpt>
      <trkpt lat="60.79993" lon="5.00655">
        <ele>84.26725</ele>
        <time>2020-07-25T13:57:38.990Z</time>
      </trkpt>
      <trkpt lat="60.79988" lon="5.0067">
        <ele>84.43925</ele>
        <time>2020-07-25T13:57:42.015Z</time>
      </trkpt>
      <trkpt lat="60.79981" lon="5.00688">
        <ele>84.653707</ele>
        <time>2020-07-25T13:57:45.990Z</time>
      </trkpt>
      <trkpt lat="60.79974" lon="5.00706">
        <ele>84.866586</ele>
        <time>2020-07-25T13:57:49.989Z</time>
      </trkpt>
      <trkpt lat="60.79967" lon="5.00726">
        <ele>85.088978</ele>
        <time>2020-07-25T13:57:53.980Z</time>
      </trkpt>
      <trkpt lat="60.7996" lon="5.00746">
        <ele>85.311881</ele>
        <time>2020-07-25T13:57:57.994Z</time>
      </trkpt>
      <trkpt lat="60.79955" lon="5.00762">
        <ele>85.486122</ele>
        <time>2020-07-25T13:58:00.991Z</time>
      </trkpt>
      <trkpt lat="60.79948" lon="5.00781">
        <ele>85.708724</ele>
        <time>2020-07-25T13:58:05.000Z</time>
      </trkpt>
      <trkpt lat="60.79943" lon="5.00796">
        <ele>85.880302</ele>
        <time>2020-07-25T13:58:07.997Z</time>
      </trkpt>
      <trkpt lat="60.79937" lon="5.00811">
        <ele>86.057135</ele>
        <time>2020-07-25T13:58:11.020Z</time>
      </trkpt>
      <trkpt lat="60.79931" lon="5.00831">
        <ele>86.280879</ele>
        <time>2020-07-25T13:58:15.012Z</time>
      </trkpt>
      <trkpt lat="60.79925" lon="5.0085">
        <ele>86.489365</ele>
        <time>2020-07-25T13:58:18.993Z</time>
      </trkpt>
      <trkpt lat="60.79918" lon="5.0087">
        <ele>86.706408</ele>
        <time>2020-07-25T13:58:23.006Z</time>
      </trkpt>
      <trkpt lat="60.79912" lon="5.00886">
        <ele>86.776425</ele>
        <time>2020-07-25T13:58:25.983Z</time>
      </trkpt>
      <trkpt lat="60.79907" lon="5.00903">
        <ele>86.724657</ele>
        <time>2020-07-25T13:58:29.026Z</time>
      </trkpt>
      <trkpt lat="60.79902" lon="5.00919">
        <ele>86.673381</ele>
        <time>2020-07-25T13:58:32.006Z</time>
      </trkpt>
      <trkpt lat="60.79896" lon="5.00934">
        <ele>86.621764</ele>
        <time>2020-07-25T13:58:34.994Z</time>
      </trkpt>
      <trkpt lat="60.7989" lon="5.00951">
        <ele>86.567405</ele>
        <time>2020-07-25T13:58:37.995Z</time>
      </trkpt>
      <trkpt lat="60.79884" lon="5.00966">
        <ele>86.51507</ele>
        <time>2020-07-25T13:58:41.001Z</time>
      </trkpt>
      <trkpt lat="60.79878" lon="5.00982">
        <ele>86.462908</ele>
        <time>2020-07-25T13:58:43.996Z</time>
      </trkpt>
      <trkpt lat="60.79872" lon="5.00997">
        <ele>86.409715</ele>
        <time>2020-07-25T13:58:46.988Z</time>
      </trkpt>
      <trkpt lat="60.79865" lon="5.01013">
        <ele>86.353151</ele>
        <time>2020-07-25T13:58:49.989Z</time>
      </trkpt>
      <trkpt lat="60.79858" lon="5.01029">
        <ele>86.29613</ele>
        <time>2020-07-25T13:58:53.020Z</time>
      </trkpt>
      <trkpt lat="60.79851" lon="5.01044">
        <ele>86.240227</ele>
        <time>2020-07-25T13:58:55.990Z</time>
      </trkpt>
      <trkpt lat="60.79843" lon="5.0106">
        <ele>86.181104</ele>
        <time>2020-07-25T13:58:59.009Z</time>
      </trkpt>
      <trkpt lat="60.79834" lon="5.01077">
        <ele>86.113791</ele>
        <time>2020-07-25T13:59:01.993Z</time>
      </trkpt>
      <trkpt lat="60.79825" lon="5.01092">
        <ele>86.049676</ele>
        <time>2020-07-25T13:59:04.992Z</time>
      </trkpt>
      <trkpt lat="60.79815" lon="5.01109">
        <ele>85.981629</ele>
        <time>2020-07-25T13:59:08.018Z</time>
      </trkpt>
      <trkpt lat="60.79808" lon="5.0112">
        <ele>85.932318</ele>
        <time>2020-07-25T13:59:10.010Z</time>
      </trkpt>
      <trkpt lat="60.79795" lon="5.01127">
        <ele>85.863065</ele>
        <time>2020-07-25T13:59:13.040Z</time>
      </trkpt>
      <trkpt lat="60.79786" lon="5.01125">
        <ele>85.848442</ele>
        <time>2020-07-25T13:59:14.996Z</time>
      </trkpt>
      <trkpt lat="60.79777" lon="5.01119">
        <ele>85.932973</ele>
        <time>2020-07-25T13:59:17.001Z</time>
      </trkpt>
      <trkpt lat="60.79767" lon="5.01107">
        <ele>86.043604</ele>
        <time>2020-07-25T13:59:20.007Z</time>
      </trkpt>
      <trkpt lat="60.79755" lon="5.01111">
        <ele>86.151177</ele>
        <time>2020-07-25T13:59:23.015Z</time>
      </trkpt>
      <trkpt lat="60.79744" lon="5.01124">
        <ele>86.263404</ele>
        <time>2020-07-25T13:59:25.995Z</time>
      </trkpt>
      <trkpt lat="60.79735" lon="5.01139">
        <ele>86.36932</ele>
        <time>2020-07-25T13:59:29.013Z</time>
      </trkpt>
      <trkpt lat="60.79732" lon="5.01156">
        <ele>86.450392</ele>
        <time>2020-07-25T13:59:31.990Z</time>
      </trkpt>
      <trkpt lat="60.79723" lon="5.01159">
        <ele>86.537051</ele>
        <time>2020-07-25T14:08:36.992Z</time>
      </trkpt>
      <trkpt lat="60.79759" lon="5.01133">
        <ele>86.882171</ele>
        <time>2020-07-25T14:10:16.997Z</time>
      </trkpt>
      <trkpt lat="60.79766" lon="5.01118">
        <ele>86.975921</ele>
        <time>2020-07-25T14:10:20.008Z</time>
      </trkpt>
      <trkpt lat="60.79776" lon="5.01122">
        <ele>87.061657</ele>
        <time>2020-07-25T14:10:23.000Z</time>
      </trkpt>
      <trkpt lat="60.79782" lon="5.01141">
        <ele>87.158213</ele>
        <time>2020-07-25T14:10:25.986Z</time>
      </trkpt>
      <trkpt lat="60.79786" lon="5.01163">
        <ele>87.263115</ele>
        <time>2020-07-25T14:10:28.993Z</time>
      </trkpt>
      <trkpt lat="60.79792" lon="5.0118">
        <ele>87.359315</ele>
        <time>2020-07-25T14:10:31.993Z</time>
      </trkpt>
      <trkpt lat="60.79804" lon="5.01174">
        <ele>87.464778</ele>
        <time>2020-07-25T14:10:34.983Z</time>
      </trkpt>
      <trkpt lat="60.7981" lon="5.0116">
        <ele>87.545975</ele>
        <time>2020-07-25T14:10:36.976Z</time>
      </trkpt>
      <trkpt lat="60.79815" lon="5.01144">
        <ele>87.627924</ele>
        <time>2020-07-25T14:10:38.992Z</time>
      </trkpt>
      <trkpt lat="60.79823" lon="5.01123">
        <ele>87.745157</ele>
        <time>2020-07-25T14:10:41.987Z</time>
      </trkpt>
      <trkpt lat="60.7983" lon="5.01109">
        <ele>87.828632</ele>
        <time>2020-07-25T14:10:43.996Z</time>
      </trkpt>
      <trkpt lat="60.7984" lon="5.01089">
        <ele>87.947716</ele>
        <time>2020-07-25T14:10:46.988Z</time>
      </trkpt>
      <trkpt lat="60.79846" lon="5.01076">
        <ele>88.028121</ele>
        <time>2020-07-25T14:10:48.979Z</time>
      </trkpt>
      <trkpt lat="60.79852" lon="5.01062">
        <ele>88.108244</ele>
        <time>2020-07-25T14:10:50.980Z</time>
      </trkpt>
      <trkpt lat="60.79859" lon="5.01048">
        <ele>88.190541</ele>
        <time>2020-07-25T14:10:52.997Z</time>
      </trkpt>
      <trkpt lat="60.79865" lon="5.01034">
        <ele>88.274381</ele>
        <time>2020-07-25T14:10:54.999Z</time>
      </trkpt>
      <trkpt lat="60.79872" lon="5.01019">
        <ele>88.36099</ele>
        <time>2020-07-25T14:10:56.994Z</time>
      </trkpt>
      <trkpt lat="60.79878" lon="5.01003">
        <ele>88.450049</ele>
        <time>2020-07-25T14:10:58.991Z</time>
      </trkpt>
      <trkpt lat="60.79885" lon="5.00987">
        <ele>88.540972</ele>
        <time>2020-07-25T14:11:00.989Z</time>
      </trkpt>
      <trkpt lat="60.79892" lon="5.0097">
        <ele>88.634937</ele>
        <time>2020-07-25T14:11:02.992Z</time>
      </trkpt>
      <trkpt lat="60.79899" lon="5.00951">
        <ele>88.737365</ele>
        <time>2020-07-25T14:11:04.993Z</time>
      </trkpt>
      <trkpt lat="60.79905" lon="5.00932">
        <ele>88.838422</ele>
        <time>2020-07-25T14:11:06.989Z</time>
      </trkpt>
      <trkpt lat="60.79912" lon="5.00912">
        <ele>88.939419</ele>
        <time>2020-07-25T14:11:08.990Z</time>
      </trkpt>
      <trkpt lat="60.79918" lon="5.00892">
        <ele>89.005992</ele>
        <time>2020-07-25T14:11:10.986Z</time>
      </trkpt>
      <trkpt lat="60.79925" lon="5.0087">
        <ele>88.821418</ele>
        <time>2020-07-25T14:11:12.986Z</time>
      </trkpt>
      <trkpt lat="60.79932" lon="5.00849">
        <ele>88.640039</ele>
        <time>2020-07-25T14:11:14.987Z</time>
      </trkpt>
      <trkpt lat="60.79939" lon="5.00828">
        <ele>88.453402</ele>
        <time>2020-07-25T14:11:16.992Z</time>
      </trkpt>
      <trkpt lat="60.79946" lon="5.00807">
        <ele>88.265925</ele>
        <time>2020-07-25T14:11:18.996Z</time>
      </trkpt>
      <trkpt lat="60.79953" lon="5.00785">
        <ele>88.075086</ele>
        <time>2020-07-25T14:11:20.990Z</time>
      </trkpt>
      <trkpt lat="60.79961" lon="5.00762">
        <ele>87.87421</ele>
        <time>2020-07-25T14:11:22.994Z</time>
      </trkpt>
      <trkpt lat="60.79969" lon="5.00738">
        <ele>87.667142</ele>
        <time>2020-07-25T14:11:24.997Z</time>
      </trkpt>
      <trkpt lat="60.79977" lon="5.00715">
        <ele>87.454898</ele>
        <time>2020-07-25T14:11:26.995Z</time>
      </trkpt>
      <trkpt lat="60.79986" lon="5.0069">
        <ele>87.237121</ele>
        <time>2020-07-25T14:11:29.003Z</time>
      </trkpt>
      <trkpt lat="60.79995" lon="5.00667">
        <ele>87.015763</ele>
        <time>2020-07-25T14:11:30.985Z</time>
      </trkpt>
      <trkpt lat="60.80005" lon="5.00642">
        <ele>86.786721</ele>
        <time>2020-07-25T14:11:32.991Z</time>
      </trkpt>
      <trkpt lat="60.80016" lon="5.00618">
        <ele>86.548904</ele>
        <time>2020-07-25T14:11:34.977Z</time>
      </trkpt>
      <trkpt lat="60.80027" lon="5.00593">
        <ele>86.267406</ele>
        <time>2020-07-25T14:11:36.991Z</time>
      </trkpt>
      <trkpt lat="60.80037" lon="5.00569">
        <ele>85.837715</ele>
        <time>2020-07-25T14:11:38.995Z</time>
      </trkpt>
      <trkpt lat="60.80047" lon="5.00546">
        <ele>85.415748</ele>
        <time>2020-07-25T14:11:41.002Z</time>
      </trkpt>
      <trkpt lat="60.80056" lon="5.00523">
        <ele>85.014935</ele>
        <time>2020-07-25T14:11:42.984Z</time>
      </trkpt>
      <trkpt lat="60.80066" lon="5.00502">
        <ele>84.620373</ele>
        <time>2020-07-25T14:11:44.998Z</time>
      </trkpt>
      <trkpt lat="60.80078" lon="5.00476">
        <ele>84.136609</ele>
        <time>2020-07-25T14:11:47.004Z</time>
      </trkpt>
      <trkpt lat="60.80089" lon="5.0045">
        <ele>83.669999</ele>
        <time>2020-07-25T14:11:48.991Z</time>
      </trkpt>
      <trkpt lat="60.801" lon="5.00425">
        <ele>83.213127</ele>
        <time>2020-07-25T14:11:50.998Z</time>
      </trkpt>
      <trkpt lat="60.80111" lon="5.00402">
        <ele>82.771182</ele>
        <time>2020-07-25T14:11:53.008Z</time>
      </trkpt>
      <trkpt lat="60.80126" lon="5.00387">
        <ele>82.323627</ele>
        <time>2020-07-25T14:11:54.969Z</time>
      </trkpt>
      <trkpt lat="60.80141" lon="5.00392">
        <ele>81.897488</ele>
        <time>2020-07-25T14:11:56.975Z</time>
      </trkpt>
      <trkpt lat="60.80156" lon="5.0041">
        <ele>81.427028</ele>
        <time>2020-07-25T14:11:58.980Z</time>
      </trkpt>
      <trkpt lat="60.80169" lon="5.00433">
        <ele>80.831322</ele>
        <time>2020-07-25T14:12:00.986Z</time>
      </trkpt>
      <trkpt lat="60.80183" lon="5.00455">
        <ele>80.196107</ele>
        <time>2020-07-25T14:12:02.998Z</time>
      </trkpt>
      <trkpt lat="60.80191" lon="5.00466">
        <ele>79.869399</ele>
        <time>2020-07-25T14:12:03.975Z</time>
      </trkpt>
      <trkpt lat="60.80199" lon="5.00475">
        <ele>79.536889</ele>
        <time>2020-07-25T14:12:04.983Z</time>
      </trkpt>
      <trkpt lat="60.80208" lon="5.00484">
        <ele>79.202344</ele>
        <time>2020-07-25T14:12:05.994Z</time>
      </trkpt>
      <trkpt lat="60.80216" lon="5.00493">
        <ele>78.86372</ele>
        <time>2020-07-25T14:12:06.999Z</time>
      </trkpt>
      <trkpt lat="60.80225" lon="5.00501">
        <ele>78.518981</ele>
        <time>2020-07-25T14:12:08.036Z</time>
      </trkpt>
      <trkpt lat="60.80235" lon="5.00508">
        <ele>78.160517</ele>
        <time>2020-07-25T14:12:08.998Z</time>
      </trkpt>
      <trkpt lat="60.80245" lon="5.00515">
        <ele>77.797293</ele>
        <time>2020-07-25T14:12:10.018Z</time>
      </trkpt>
      <trkpt lat="60.80255" lon="5.00521">
        <ele>77.438595</ele>
        <time>2020-07-25T14:12:10.999Z</time>
      </trkpt>
      <trkpt lat="60.80264" lon="5.00525">
        <ele>77.079979</ele>
        <time>2020-07-25T14:12:12.008Z</time>
      </trkpt>
      <trkpt lat="60.80275" lon="5.00529">
        <ele>76.70567</ele>
        <time>2020-07-25T14:12:13.006Z</time>
      </trkpt>
      <trkpt lat="60.80285" lon="5.00531">
        <ele>76.334018</ele>
        <time>2020-07-25T14:12:14.006Z</time>
      </trkpt>
      <trkpt lat="60.80295" lon="5.00532">
        <ele>75.988219</ele>
        <time>2020-07-25T14:12:15.009Z</time>
      </trkpt>
      <trkpt lat="60.80305" lon="5.00533">
        <ele>75.653489</ele>
        <time>2020-07-25T14:12:16.002Z</time>
      </trkpt>
      <trkpt lat="60.80314" lon="5.00533">
        <ele>75.318971</ele>
        <time>2020-07-25T14:12:17.016Z</time>
      </trkpt>
      <trkpt lat="60.80324" lon="5.00533">
        <ele>74.958759</ele>
        <time>2020-07-25T14:12:18.004Z</time>
      </trkpt>
      <trkpt lat="60.80334" lon="5.00531">
        <ele>74.553299</ele>
        <time>2020-07-25T14:12:19.009Z</time>
      </trkpt>
      <trkpt lat="60.80344" lon="5.00528">
        <ele>74.140807</ele>
        <time>2020-07-25T14:12:20.019Z</time>
      </trkpt>
      <trkpt lat="60.80354" lon="5.00524">
        <ele>73.724942</ele>
        <time>2020-07-25T14:12:20.994Z</time>
      </trkpt>
      <trkpt lat="60.80364" lon="5.00519">
        <ele>73.3219</ele>
        <time>2020-07-25T14:12:21.997Z</time>
      </trkpt>
      <trkpt lat="60.80373" lon="5.00514">
        <ele>72.933061</ele>
        <time>2020-07-25T14:12:23.016Z</time>
      </trkpt>
      <trkpt lat="60.80383" lon="5.00508">
        <ele>72.52161</ele>
        <time>2020-07-25T14:12:24.009Z</time>
      </trkpt>
      <trkpt lat="60.80393" lon="5.00501">
        <ele>72.109422</ele>
        <time>2020-07-25T14:12:24.993Z</time>
      </trkpt>
      <trkpt lat="60.80401" lon="5.00495">
        <ele>71.739207</ele>
        <time>2020-07-25T14:12:26.012Z</time>
      </trkpt>
      <trkpt lat="60.80417" lon="5.00481">
        <ele>71.034997</ele>
        <time>2020-07-25T14:12:27.995Z</time>
      </trkpt>
      <trkpt lat="60.80433" lon="5.00468">
        <ele>70.347346</ele>
        <time>2020-07-25T14:12:30.026Z</time>
      </trkpt>
      <trkpt lat="60.8045" lon="5.00457">
        <ele>69.64331</ele>
        <time>2020-07-25T14:12:32.003Z</time>
      </trkpt>
      <trkpt lat="60.80459" lon="5.00452">
        <ele>69.274474</ele>
        <time>2020-07-25T14:12:32.993Z</time>
      </trkpt>
      <trkpt lat="60.80468" lon="5.00448">
        <ele>68.893346</ele>
        <time>2020-07-25T14:12:34.000Z</time>
      </trkpt>
      <trkpt lat="60.80477" lon="5.00443">
        <ele>68.514784</ele>
        <time>2020-07-25T14:12:35.012Z</time>
      </trkpt>
      <trkpt lat="60.80486" lon="5.0044">
        <ele>68.133566</ele>
        <time>2020-07-25T14:12:36.004Z</time>
      </trkpt>
      <trkpt lat="60.80504" lon="5.00436">
        <ele>67.438467</ele>
        <time>2020-07-25T14:12:38.005Z</time>
      </trkpt>
      <trkpt lat="60.80513" lon="5.00436">
        <ele>67.093462</ele>
        <time>2020-07-25T14:12:38.999Z</time>
      </trkpt>
      <trkpt lat="60.80531" lon="5.00439">
        <ele>66.413342</ele>
        <time>2020-07-25T14:12:41.014Z</time>
      </trkpt>
      <trkpt lat="60.8054" lon="5.00441">
        <ele>66.064788</ele>
        <time>2020-07-25T14:12:42.000Z</time>
      </trkpt>
      <trkpt lat="60.80549" lon="5.00444">
        <ele>65.715098</ele>
        <time>2020-07-25T14:12:42.999Z</time>
      </trkpt>
      <trkpt lat="60.80558" lon="5.00448">
        <ele>65.363774</ele>
        <time>2020-07-25T14:12:44.020Z</time>
      </trkpt>
      <trkpt lat="60.80567" lon="5.00452">
        <ele>65.007267</ele>
        <time>2020-07-25T14:12:44.997Z</time>
      </trkpt>
      <trkpt lat="60.80576" lon="5.00456">
        <ele>64.658173</ele>
        <time>2020-07-25T14:12:45.997Z</time>
      </trkpt>
      <trkpt lat="60.80585" lon="5.0046">
        <ele>64.314807</ele>
        <time>2020-07-25T14:12:47.003Z</time>
      </trkpt>
      <trkpt lat="60.80603" lon="5.00469">
        <ele>63.641705</ele>
        <time>2020-07-25T14:12:49.000Z</time>
      </trkpt>
      <trkpt lat="60.8062" lon="5.00476">
        <ele>62.972526</ele>
        <time>2020-07-25T14:12:51.002Z</time>
      </trkpt>
      <trkpt lat="60.80637" lon="5.00482">
        <ele>62.310512</ele>
        <time>2020-07-25T14:12:53.006Z</time>
      </trkpt>
      <trkpt lat="60.80654" lon="5.00486">
        <ele>61.647751</ele>
        <time>2020-07-25T14:12:55.000Z</time>
      </trkpt>
      <trkpt lat="60.80672" lon="5.00487">
        <ele>60.983787</ele>
        <time>2020-07-25T14:12:56.995Z</time>
      </trkpt>
      <trkpt lat="60.80689" lon="5.00487">
        <ele>60.436161</ele>
        <time>2020-07-25T14:12:59.003Z</time>
      </trkpt>
      <trkpt lat="60.80705" lon="5.00486">
        <ele>59.897129</ele>
        <time>2020-07-25T14:13:00.978Z</time>
      </trkpt>
      <trkpt lat="60.80722" lon="5.00481">
        <ele>59.367481</ele>
        <time>2020-07-25T14:13:03.037Z</time>
      </trkpt>
      <trkpt lat="60.80737" lon="5.00475">
        <ele>58.852653</ele>
        <time>2020-07-25T14:13:04.995Z</time>
      </trkpt>
      <trkpt lat="60.80753" lon="5.0047">
        <ele>58.344781</ele>
        <time>2020-07-25T14:13:07.026Z</time>
      </trkpt>
      <trkpt lat="60.80768" lon="5.00464">
        <ele>57.833999</ele>
        <time>2020-07-25T14:13:08.992Z</time>
      </trkpt>
      <trkpt lat="60.80783" lon="5.00458">
        <ele>57.338286</ele>
        <time>2020-07-25T14:13:10.992Z</time>
      </trkpt>
      <trkpt lat="60.80798" lon="5.00452">
        <ele>56.847497</ele>
        <time>2020-07-25T14:13:13.017Z</time>
      </trkpt>
      <trkpt lat="60.80813" lon="5.00448">
        <ele>56.355308</ele>
        <time>2020-07-25T14:13:14.999Z</time>
      </trkpt>
      <trkpt lat="60.80828" lon="5.00445">
        <ele>55.857065</ele>
        <time>2020-07-25T14:13:17.000Z</time>
      </trkpt>
      <trkpt lat="60.80844" lon="5.00444">
        <ele>55.354244</ele>
        <time>2020-07-25T14:13:18.999Z</time>
      </trkpt>
      <trkpt lat="60.80861" lon="5.00445">
        <ele>54.932434</ele>
        <time>2020-07-25T14:13:21.002Z</time>
      </trkpt>
      <trkpt lat="60.80878" lon="5.00449">
        <ele>54.592856</ele>
        <time>2020-07-25T14:13:23.003Z</time>
      </trkpt>
      <trkpt lat="60.80896" lon="5.00456">
        <ele>54.239303</ele>
        <time>2020-07-25T14:13:25.019Z</time>
      </trkpt>
      <trkpt lat="60.80905" lon="5.0046">
        <ele>54.051793</ele>
        <time>2020-07-25T14:13:26.011Z</time>
      </trkpt>
      <trkpt lat="60.80914" lon="5.00465">
        <ele>53.860739</ele>
        <time>2020-07-25T14:13:27.000Z</time>
      </trkpt>
      <trkpt lat="60.80924" lon="5.00471">
        <ele>53.669706</ele>
        <time>2020-07-25T14:13:28.026Z</time>
      </trkpt>
      <trkpt lat="60.80933" lon="5.00477">
        <ele>53.476516</ele>
        <time>2020-07-25T14:13:29.002Z</time>
      </trkpt>
      <trkpt lat="60.80942" lon="5.00484">
        <ele>53.282154</ele>
        <time>2020-07-25T14:13:29.999Z</time>
      </trkpt>
      <trkpt lat="60.80952" lon="5.0049">
        <ele>53.08718</ele>
        <time>2020-07-25T14:13:31.025Z</time>
      </trkpt>
      <trkpt lat="60.80961" lon="5.00497">
        <ele>52.892514</ele>
        <time>2020-07-25T14:13:32.002Z</time>
      </trkpt>
      <trkpt lat="60.8097" lon="5.00504">
        <ele>52.70093</ele>
        <time>2020-07-25T14:13:32.999Z</time>
      </trkpt>
      <trkpt lat="60.8098" lon="5.0051">
        <ele>52.511833</ele>
        <time>2020-07-25T14:13:33.998Z</time>
      </trkpt>
      <trkpt lat="60.80988" lon="5.00517">
        <ele>52.327293</ele>
        <time>2020-07-25T14:13:35.006Z</time>
      </trkpt>
      <trkpt lat="60.80997" lon="5.00524">
        <ele>52.148249</ele>
        <time>2020-07-25T14:13:35.997Z</time>
      </trkpt>
      <trkpt lat="60.81013" lon="5.00536">
        <ele>51.806414</ele>
        <time>2020-07-25T14:13:38.019Z</time>
      </trkpt>
      <trkpt lat="60.81029" lon="5.00548">
        <ele>51.710036</ele>
        <time>2020-07-25T14:13:40.011Z</time>
      </trkpt>
      <trkpt lat="60.81045" lon="5.0056">
        <ele>51.972845</ele>
        <time>2020-07-25T14:13:42.010Z</time>
      </trkpt>
      <trkpt lat="60.8106" lon="5.00571">
        <ele>52.227373</ele>
        <time>2020-07-25T14:13:44.000Z</time>
      </trkpt>
      <trkpt lat="60.81074" lon="5.00582">
        <ele>52.469302</ele>
        <time>2020-07-25T14:13:46.007Z</time>
      </trkpt>
      <trkpt lat="60.81088" lon="5.00592">
        <ele>52.698904</ele>
        <time>2020-07-25T14:13:48.012Z</time>
      </trkpt>
      <trkpt lat="60.81101" lon="5.00602">
        <ele>52.923039</ele>
        <time>2020-07-25T14:13:49.994Z</time>
      </trkpt>
      <trkpt lat="60.81114" lon="5.00612">
        <ele>53.145018</ele>
        <time>2020-07-25T14:13:51.995Z</time>
      </trkpt>
      <trkpt lat="60.81126" lon="5.00622">
        <ele>53.360172</ele>
        <time>2020-07-25T14:13:54.001Z</time>
      </trkpt>
      <trkpt lat="60.81139" lon="5.00632">
        <ele>53.577523</ele>
        <time>2020-07-25T14:13:56.003Z</time>
      </trkpt>
      <trkpt lat="60.81152" lon="5.00642">
        <ele>53.794205</ele>
        <time>2020-07-25T14:13:58.030Z</time>
      </trkpt>
      <trkpt lat="60.81164" lon="5.0065">
        <ele>53.997427</ele>
        <time>2020-07-25T14:14:00.007Z</time>
      </trkpt>
      <trkpt lat="60.81176" lon="5.00659">
        <ele>54.191353</ele>
        <time>2020-07-25T14:14:02.000Z</time>
      </trkpt>
      <trkpt lat="60.81187" lon="5.00666">
        <ele>54.378243</ele>
        <time>2020-07-25T14:14:03.999Z</time>
      </trkpt>
      <trkpt lat="60.81197" lon="5.00675">
        <ele>54.504191</ele>
        <time>2020-07-25T14:14:05.996Z</time>
      </trkpt>
      <trkpt lat="60.81208" lon="5.00682">
        <ele>54.576784</ele>
        <time>2020-07-25T14:14:08.006Z</time>
      </trkpt>
      <trkpt lat="60.81219" lon="5.00687">
        <ele>54.648174</ele>
        <time>2020-07-25T14:14:09.995Z</time>
      </trkpt>
      <trkpt lat="60.8123" lon="5.00693">
        <ele>54.719712</ele>
        <time>2020-07-25T14:14:12.003Z</time>
      </trkpt>
      <trkpt lat="60.8124" lon="5.00697">
        <ele>54.78993</ele>
        <time>2020-07-25T14:14:13.998Z</time>
      </trkpt>
      <trkpt lat="60.81251" lon="5.007">
        <ele>54.856725</ele>
        <time>2020-07-25T14:14:16.011Z</time>
      </trkpt>
      <trkpt lat="60.81261" lon="5.00702">
        <ele>54.926358</ele>
        <time>2020-07-25T14:14:17.997Z</time>
      </trkpt>
      <trkpt lat="60.81273" lon="5.00702">
        <ele>55.000311</ele>
        <time>2020-07-25T14:14:19.980Z</time>
      </trkpt>
      <trkpt lat="60.81285" lon="5.007">
        <ele>55.076454</ele>
        <time>2020-07-25T14:14:22.007Z</time>
      </trkpt>
      <trkpt lat="60.81296" lon="5.00698">
        <ele>55.150036</ele>
        <time>2020-07-25T14:14:24.003Z</time>
      </trkpt>
      <trkpt lat="60.81308" lon="5.00695">
        <ele>55.22614</ele>
        <time>2020-07-25T14:14:25.993Z</time>
      </trkpt>
      <trkpt lat="60.8132" lon="5.00689">
        <ele>55.30846</ele>
        <time>2020-07-25T14:14:28.009Z</time>
      </trkpt>
      <trkpt lat="60.81332" lon="5.00682">
        <ele>55.388311</ele>
        <time>2020-07-25T14:14:30.003Z</time>
      </trkpt>
      <trkpt lat="60.81344" lon="5.00673">
        <ele>55.465474</ele>
        <time>2020-07-25T14:14:32.009Z</time>
      </trkpt>
      <trkpt lat="60.81355" lon="5.00663">
        <ele>55.548756</ele>
        <time>2020-07-25T14:14:33.984Z</time>
      </trkpt>
      <trkpt lat="60.81367" lon="5.00651">
        <ele>55.610375</ele>
        <time>2020-07-25T14:14:35.987Z</time>
      </trkpt>
      <trkpt lat="60.81379" lon="5.00638">
        <ele>55.51217</ele>
        <time>2020-07-25T14:14:37.995Z</time>
      </trkpt>
      <trkpt lat="60.8139" lon="5.00621">
        <ele>55.408271</ele>
        <time>2020-07-25T14:14:40.006Z</time>
      </trkpt>
      <trkpt lat="60.81401" lon="5.00604">
        <ele>55.307606</ele>
        <time>2020-07-25T14:14:42.001Z</time>
      </trkpt>
      <trkpt lat="60.81411" lon="5.00584">
        <ele>55.201627</ele>
        <time>2020-07-25T14:14:43.996Z</time>
      </trkpt>
      <trkpt lat="60.81422" lon="5.00564">
        <ele>55.092695</ele>
        <time>2020-07-25T14:14:46.009Z</time>
      </trkpt>
      <trkpt lat="60.81434" lon="5.00544">
        <ele>54.979701</ele>
        <time>2020-07-25T14:14:47.995Z</time>
      </trkpt>
      <trkpt lat="60.81445" lon="5.00524">
        <ele>54.868117</ele>
        <time>2020-07-25T14:14:49.999Z</time>
      </trkpt>
      <trkpt lat="60.81457" lon="5.00506">
        <ele>54.75877</ele>
        <time>2020-07-25T14:14:51.997Z</time>
      </trkpt>
      <trkpt lat="60.81468" lon="5.00494">
        <ele>54.670141</ele>
        <time>2020-07-25T14:14:54.010Z</time>
      </trkpt>
      <trkpt lat="60.81478" lon="5.00484">
        <ele>54.583736</ele>
        <time>2020-07-25T14:14:57.015Z</time>
      </trkpt>
      <trkpt lat="60.81488" lon="5.00484">
        <ele>54.507182</ele>
        <time>2020-07-25T14:15:03.011Z</time>
      </trkpt>
      <trkpt lat="60.815" lon="5.00485">
        <ele>54.422336</ele>
        <time>2020-07-25T14:15:42.016Z</time>
      </trkpt>
      <trkpt lat="60.8151" lon="5.00483">
        <ele>54.348994</ele>
        <time>2020-07-25T14:15:49.002Z</time>
      </trkpt>
      <trkpt lat="60.8152" lon="5.00487">
        <ele>54.414388</ele>
        <time>2020-07-25T14:15:54.002Z</time>
      </trkpt>
      <trkpt lat="60.81531" lon="5.00488">
        <ele>54.969125</ele>
        <time>2020-07-25T14:15:58.996Z</time>
      </trkpt>
      <trkpt lat="60.81541" lon="5.00484">
        <ele>55.551026</ele>
        <time>2020-07-25T14:16:05.003Z</time>
      </trkpt>
      <trkpt lat="60.81551" lon="5.00482">
        <ele>56.099539</ele>
        <time>2020-07-25T14:16:09.996Z</time>
      </trkpt>
      <trkpt lat="60.81562" lon="5.00478">
        <ele>56.677718</ele>
        <time>2020-07-25T14:16:14.004Z</time>
      </trkpt>
      <trkpt lat="60.81572" lon="5.00475">
        <ele>57.251814</ele>
        <time>2020-07-25T14:16:18.006Z</time>
      </trkpt>
      <trkpt lat="60.81584" lon="5.00476">
        <ele>57.876749</ele>
        <time>2020-07-25T14:16:21.993Z</time>
      </trkpt>
      <trkpt lat="60.81594" lon="5.00481">
        <ele>58.445717</ele>
        <time>2020-07-25T14:16:25.006Z</time>
      </trkpt>
      <trkpt lat="60.81604" lon="5.00488">
        <ele>59.036199</ele>
        <time>2020-07-25T14:16:28.007Z</time>
      </trkpt>
      <trkpt lat="60.81614" lon="5.00496">
        <ele>59.632185</ele>
        <time>2020-07-25T14:16:30.992Z</time>
      </trkpt>
      <trkpt lat="60.81623" lon="5.00507">
        <ele>60.175249</ele>
        <time>2020-07-25T14:16:34.006Z</time>
      </trkpt>
      <trkpt lat="60.81631" lon="5.00519">
        <ele>60.719501</ele>
        <time>2020-07-25T14:16:36.998Z</time>
      </trkpt>
      <trkpt lat="60.8164" lon="5.00535">
        <ele>61.340778</ele>
        <time>2020-07-25T14:16:39.991Z</time>
      </trkpt>
      <trkpt lat="60.81649" lon="5.00551">
        <ele>62.036975</ele>
        <time>2020-07-25T14:16:43.019Z</time>
      </trkpt>
      <trkpt lat="60.81657" lon="5.00564">
        <ele>62.547608</ele>
        <time>2020-07-25T14:16:45.001Z</time>
      </trkpt>
      <trkpt lat="60.81665" lon="5.00576">
        <ele>63.100675</ele>
        <time>2020-07-25T14:16:46.988Z</time>
      </trkpt>
      <trkpt lat="60.81673" lon="5.00587">
        <ele>63.632836</ele>
        <time>2020-07-25T14:16:49.023Z</time>
      </trkpt>
      <trkpt lat="60.8168" lon="5.00599">
        <ele>64.085402</ele>
        <time>2020-07-25T14:16:51.019Z</time>
      </trkpt>
      <trkpt lat="60.81691" lon="5.00616">
        <ele>64.344323</ele>
        <time>2020-07-25T14:16:54.000Z</time>
      </trkpt>
      <trkpt lat="60.81701" lon="5.00634">
        <ele>64.600216</ele>
        <time>2020-07-25T14:16:57.006Z</time>
      </trkpt>
      <trkpt lat="60.81709" lon="5.00645">
        <ele>64.783696</ele>
        <time>2020-07-25T14:16:59.020Z</time>
      </trkpt>
      <trkpt lat="60.81716" lon="5.00658">
        <ele>64.975769</ele>
        <time>2020-07-25T14:17:01.004Z</time>
      </trkpt>
      <trkpt lat="60.81724" lon="5.0067">
        <ele>65.171235</ele>
        <time>2020-07-25T14:17:03.013Z</time>
      </trkpt>
      <trkpt lat="60.81733" lon="5.00683">
        <ele>65.372473</ele>
        <time>2020-07-25T14:17:04.996Z</time>
      </trkpt>
      <trkpt lat="60.81741" lon="5.00695">
        <ele>65.570848</ele>
        <time>2020-07-25T14:17:06.990Z</time>
      </trkpt>
      <trkpt lat="60.81749" lon="5.00707">
        <ele>65.766154</ele>
        <time>2020-07-25T14:17:08.982Z</time>
      </trkpt>
      <trkpt lat="60.81758" lon="5.0072">
        <ele>65.975217</ele>
        <time>2020-07-25T14:17:10.995Z</time>
      </trkpt>
      <trkpt lat="60.81767" lon="5.00733">
        <ele>66.183254</ele>
        <time>2020-07-25T14:17:13.015Z</time>
      </trkpt>
      <trkpt lat="60.81776" lon="5.00748">
        <ele>66.405037</ele>
        <time>2020-07-25T14:17:15.014Z</time>
      </trkpt>
      <trkpt lat="60.81784" lon="5.00761">
        <ele>66.620111</ele>
        <time>2020-07-25T14:17:16.986Z</time>
      </trkpt>
      <trkpt lat="60.81793" lon="5.00773">
        <ele>66.817438</ele>
        <time>2020-07-25T14:17:19.031Z</time>
      </trkpt>
      <trkpt lat="60.81802" lon="5.00785">
        <ele>67.020073</ele>
        <time>2020-07-25T14:17:20.996Z</time>
      </trkpt>
      <trkpt lat="60.8181" lon="5.00799">
        <ele>67.230151</ele>
        <time>2020-07-25T14:17:22.993Z</time>
      </trkpt>
      <trkpt lat="60.81818" lon="5.00812">
        <ele>67.433681</ele>
        <time>2020-07-25T14:17:25.001Z</time>
      </trkpt>
      <trkpt lat="60.81827" lon="5.00824">
        <ele>67.335803</ele>
        <time>2020-07-25T14:17:26.993Z</time>
      </trkpt>
      <trkpt lat="60.81835" lon="5.00835">
        <ele>66.900342</ele>
        <time>2020-07-25T14:17:28.989Z</time>
      </trkpt>
      <trkpt lat="60.81843" lon="5.00846">
        <ele>66.486065</ele>
        <time>2020-07-25T14:17:31.004Z</time>
      </trkpt>
      <trkpt lat="60.81851" lon="5.00857">
        <ele>66.047868</ele>
        <time>2020-07-25T14:17:32.998Z</time>
      </trkpt>
      <trkpt lat="60.8186" lon="5.00869">
        <ele>65.600094</ele>
        <time>2020-07-25T14:17:34.998Z</time>
      </trkpt>
      <trkpt lat="60.81869" lon="5.00881">
        <ele>65.128697</ele>
        <time>2020-07-25T14:17:37.011Z</time>
      </trkpt>
      <trkpt lat="60.81879" lon="5.00893">
        <ele>64.643258</ele>
        <time>2020-07-25T14:17:38.995Z</time>
      </trkpt>
      <trkpt lat="60.81888" lon="5.00907">
        <ele>64.155249</ele>
        <time>2020-07-25T14:17:40.988Z</time>
      </trkpt>
      <trkpt lat="60.81896" lon="5.00921">
        <ele>63.680932</ele>
        <time>2020-07-25T14:17:43.002Z</time>
      </trkpt>
      <trkpt lat="60.81904" lon="5.00935">
        <ele>63.20324</ele>
        <time>2020-07-25T14:17:45.009Z</time>
      </trkpt>
      <trkpt lat="60.81912" lon="5.00949">
        <ele>62.747057</ele>
        <time>2020-07-25T14:17:46.995Z</time>
      </trkpt>
      <trkpt lat="60.8192" lon="5.00964">
        <ele>62.297353</ele>
        <time>2020-07-25T14:17:49.005Z</time>
      </trkpt>
      <trkpt lat="60.81928" lon="5.00978">
        <ele>61.838912</ele>
        <time>2020-07-25T14:17:51.007Z</time>
      </trkpt>
      <trkpt lat="60.81936" lon="5.00991">
        <ele>61.392718</ele>
        <time>2020-07-25T14:17:52.982Z</time>
      </trkpt>
      <trkpt lat="60.81944" lon="5.01003">
        <ele>60.941348</ele>
        <time>2020-07-25T14:17:55.017Z</time>
      </trkpt>
      <trkpt lat="60.81953" lon="5.01015">
        <ele>60.483997</ele>
        <time>2020-07-25T14:17:57.001Z</time>
      </trkpt>
      <trkpt lat="60.81961" lon="5.01026">
        <ele>60.082594</ele>
        <time>2020-07-25T14:17:59.010Z</time>
      </trkpt>
      <trkpt lat="60.81968" lon="5.01038">
        <ele>59.717692</ele>
        <time>2020-07-25T14:18:01.006Z</time>
      </trkpt>
      <trkpt lat="60.81975" lon="5.01051">
        <ele>59.765806</ele>
        <time>2020-07-25T14:18:03.004Z</time>
      </trkpt>
      <trkpt lat="60.81983" lon="5.01063">
        <ele>59.81447</ele>
        <time>2020-07-25T14:18:04.983Z</time>
      </trkpt>
      <trkpt lat="60.81992" lon="5.01077">
        <ele>59.869246</ele>
        <time>2020-07-25T14:18:07.006Z</time>
      </trkpt>
      <trkpt lat="60.82002" lon="5.0109">
        <ele>59.925501</ele>
        <time>2020-07-25T14:18:09.000Z</time>
      </trkpt>
      <trkpt lat="60.82011" lon="5.01101">
        <ele>59.976393</ele>
        <time>2020-07-25T14:18:11.001Z</time>
      </trkpt>
      <trkpt lat="60.8202" lon="5.01112">
        <ele>60.028154</ele>
        <time>2020-07-25T14:18:13.001Z</time>
      </trkpt>
      <trkpt lat="60.82029" lon="5.01124">
        <ele>60.079045</ele>
        <time>2020-07-25T14:18:15.010Z</time>
      </trkpt>
      <trkpt lat="60.82037" lon="5.01135">
        <ele>60.127372</ele>
        <time>2020-07-25T14:18:17.000Z</time>
      </trkpt>
      <trkpt lat="60.82046" lon="5.01146">
        <ele>60.178423</ele>
        <time>2020-07-25T14:18:18.995Z</time>
      </trkpt>
      <trkpt lat="60.82055" lon="5.01158">
        <ele>60.23106</ele>
        <time>2020-07-25T14:18:21.038Z</time>
      </trkpt>
      <trkpt lat="60.82064" lon="5.01168">
        <ele>60.280243</ele>
        <time>2020-07-25T14:18:22.999Z</time>
      </trkpt>
      <trkpt lat="60.82072" lon="5.01179">
        <ele>60.328394</ele>
        <time>2020-07-25T14:18:25.024Z</time>
      </trkpt>
      <trkpt lat="60.82081" lon="5.0119">
        <ele>60.378321</ele>
        <time>2020-07-25T14:18:27.012Z</time>
      </trkpt>
      <trkpt lat="60.82089" lon="5.01202">
        <ele>60.425968</ele>
        <time>2020-07-25T14:18:28.983Z</time>
      </trkpt>
      <trkpt lat="60.82097" lon="5.01212">
        <ele>60.473405</ele>
        <time>2020-07-25T14:18:31.012Z</time>
      </trkpt>
      <trkpt lat="60.82106" lon="5.01223">
        <ele>60.5233</ele>
        <time>2020-07-25T14:18:33.024Z</time>
      </trkpt>
      <trkpt lat="60.82114" lon="5.01234">
        <ele>60.571368</ele>
        <time>2020-07-25T14:18:34.976Z</time>
      </trkpt>
      <trkpt lat="60.82124" lon="5.01245">
        <ele>60.984246</ele>
        <time>2020-07-25T14:18:37.006Z</time>
      </trkpt>
      <trkpt lat="60.82133" lon="5.01255">
        <ele>61.57308</ele>
        <time>2020-07-25T14:18:39.005Z</time>
      </trkpt>
      <trkpt lat="60.82141" lon="5.01265">
        <ele>62.134602</ele>
        <time>2020-07-25T14:18:40.979Z</time>
      </trkpt>
      <trkpt lat="60.8215" lon="5.01275">
        <ele>62.72623</ele>
        <time>2020-07-25T14:18:43.028Z</time>
      </trkpt>
      <trkpt lat="60.82159" lon="5.01287">
        <ele>63.326062</ele>
        <time>2020-07-25T14:18:45.028Z</time>
      </trkpt>
      <trkpt lat="60.82167" lon="5.01298">
        <ele>63.871832</ele>
        <time>2020-07-25T14:18:46.984Z</time>
      </trkpt>
      <trkpt lat="60.82175" lon="5.01309">
        <ele>64.428722</ele>
        <time>2020-07-25T14:18:49.025Z</time>
      </trkpt>
      <trkpt lat="60.82183" lon="5.01319">
        <ele>64.978066</ele>
        <time>2020-07-25T14:18:51.004Z</time>
      </trkpt>
      <trkpt lat="60.82191" lon="5.0133">
        <ele>65.53173</ele>
        <time>2020-07-25T14:18:52.992Z</time>
      </trkpt>
      <trkpt lat="60.822" lon="5.01342">
        <ele>66.157443</ele>
        <time>2020-07-25T14:18:54.995Z</time>
      </trkpt>
      <trkpt lat="60.82211" lon="5.01352">
        <ele>66.830523</ele>
        <time>2020-07-25T14:18:56.996Z</time>
      </trkpt>
      <trkpt lat="60.8222" lon="5.01362">
        <ele>67.394498</ele>
        <time>2020-07-25T14:18:58.981Z</time>
      </trkpt>
      <trkpt lat="60.8223" lon="5.01372">
        <ele>68.046699</ele>
        <time>2020-07-25T14:19:00.998Z</time>
      </trkpt>
      <trkpt lat="60.82239" lon="5.01385">
        <ele>68.709536</ele>
        <time>2020-07-25T14:19:03.000Z</time>
      </trkpt>
      <trkpt lat="60.8225" lon="5.01401">
        <ele>69.467766</ele>
        <time>2020-07-25T14:19:05.013Z</time>
      </trkpt>
      <trkpt lat="60.82261" lon="5.01419">
        <ele>70.280032</ele>
        <time>2020-07-25T14:19:06.994Z</time>
      </trkpt>
      <trkpt lat="60.82272" lon="5.01435">
        <ele>70.977149</ele>
        <time>2020-07-25T14:19:09.006Z</time>
      </trkpt>
      <trkpt lat="60.8228" lon="5.01451">
        <ele>71.274711</ele>
        <time>2020-07-25T14:19:10.993Z</time>
      </trkpt>
      <trkpt lat="60.82289" lon="5.01466">
        <ele>71.563974</ele>
        <time>2020-07-25T14:19:13.000Z</time>
      </trkpt>
      <trkpt lat="60.82297" lon="5.01479">
        <ele>71.84546</ele>
        <time>2020-07-25T14:19:15.030Z</time>
      </trkpt>
      <trkpt lat="60.82306" lon="5.01494">
        <ele>72.129953</ele>
        <time>2020-07-25T14:19:17.005Z</time>
      </trkpt>
      <trkpt lat="60.82315" lon="5.01509">
        <ele>72.421612</ele>
        <time>2020-07-25T14:19:18.997Z</time>
      </trkpt>
      <trkpt lat="60.82323" lon="5.01524">
        <ele>72.702227</ele>
        <time>2020-07-25T14:19:21.049Z</time>
      </trkpt>
      <trkpt lat="60.82331" lon="5.01543">
        <ele>73.013404</ele>
        <time>2020-07-25T14:19:22.992Z</time>
      </trkpt>
      <trkpt lat="60.8234" lon="5.01559">
        <ele>73.321834</ele>
        <time>2020-07-25T14:19:25.003Z</time>
      </trkpt>
      <trkpt lat="60.82349" lon="5.01576">
        <ele>73.655923</ele>
        <time>2020-07-25T14:19:27.003Z</time>
      </trkpt>
      <trkpt lat="60.82361" lon="5.0159">
        <ele>73.999415</ele>
        <time>2020-07-25T14:19:28.991Z</time>
      </trkpt>
      <trkpt lat="60.82373" lon="5.01602">
        <ele>74.349096</ele>
        <time>2020-07-25T14:19:31.004Z</time>
      </trkpt>
      <trkpt lat="60.82386" lon="5.0162">
        <ele>74.738643</ele>
        <time>2020-07-25T14:19:33.013Z</time>
      </trkpt>
      <trkpt lat="60.82398" lon="5.01638">
        <ele>75.141674</ele>
        <time>2020-07-25T14:19:34.992Z</time>
      </trkpt>
      <trkpt lat="60.82411" lon="5.01656">
        <ele>75.542605</ele>
        <time>2020-07-25T14:19:36.997Z</time>
      </trkpt>
      <trkpt lat="60.82424" lon="5.01677">
        <ele>74.749366</ele>
        <time>2020-07-25T14:19:39.006Z</time>
      </trkpt>
      <trkpt lat="60.82437" lon="5.01696">
        <ele>73.936101</ele>
        <time>2020-07-25T14:19:41.002Z</time>
      </trkpt>
      <trkpt lat="60.82451" lon="5.01716">
        <ele>73.089894</ele>
        <time>2020-07-25T14:19:43.012Z</time>
      </trkpt>
      <trkpt lat="60.82463" lon="5.0174">
        <ele>72.214216</ele>
        <time>2020-07-25T14:19:45.007Z</time>
      </trkpt>
      <trkpt lat="60.82473" lon="5.01757">
        <ele>71.544791</ele>
        <time>2020-07-25T14:19:46.986Z</time>
      </trkpt>
      <trkpt lat="60.82481" lon="5.01773">
        <ele>70.959316</ele>
        <time>2020-07-25T14:19:49.001Z</time>
      </trkpt>
      <trkpt lat="60.8249" lon="5.01788">
        <ele>70.399842</ele>
        <time>2020-07-25T14:19:51.011Z</time>
      </trkpt>
      <trkpt lat="60.82498" lon="5.01802">
        <ele>69.843867</ele>
        <time>2020-07-25T14:19:52.983Z</time>
      </trkpt>
      <trkpt lat="60.82507" lon="5.01815">
        <ele>69.292178</ele>
        <time>2020-07-25T14:19:54.999Z</time>
      </trkpt>
      <trkpt lat="60.82515" lon="5.01828">
        <ele>68.75228</ele>
        <time>2020-07-25T14:19:57.014Z</time>
      </trkpt>
      <trkpt lat="60.82524" lon="5.01841">
        <ele>68.202578</ele>
        <time>2020-07-25T14:19:58.992Z</time>
      </trkpt>
      <trkpt lat="60.82532" lon="5.01855">
        <ele>67.66482</ele>
        <time>2020-07-25T14:20:01.003Z</time>
      </trkpt>
      <trkpt lat="60.8254" lon="5.01868">
        <ele>67.129352</ele>
        <time>2020-07-25T14:20:03.007Z</time>
      </trkpt>
      <trkpt lat="60.82548" lon="5.01882">
        <ele>66.581271</ele>
        <time>2020-07-25T14:20:05.058Z</time>
      </trkpt>
      <trkpt lat="60.8256" lon="5.01901">
        <ele>65.813914</ele>
        <time>2020-07-25T14:20:07.998Z</time>
      </trkpt>
      <trkpt lat="60.82568" lon="5.01913">
        <ele>65.282439</ele>
        <time>2020-07-25T14:20:09.971Z</time>
      </trkpt>
      <trkpt lat="60.82577" lon="5.01925">
        <ele>64.733709</ele>
        <time>2020-07-25T14:20:11.975Z</time>
      </trkpt>
      <trkpt lat="60.82585" lon="5.01938">
        <ele>64.163236</ele>
        <time>2020-07-25T14:20:14.041Z</time>
      </trkpt>
      <trkpt lat="60.82594" lon="5.01952">
        <ele>63.581263</ele>
        <time>2020-07-25T14:20:16.007Z</time>
      </trkpt>
      <trkpt lat="60.82603" lon="5.01965">
        <ele>63.024987</ele>
        <time>2020-07-25T14:20:17.986Z</time>
      </trkpt>
      <trkpt lat="60.82611" lon="5.01977">
        <ele>62.490744</ele>
        <time>2020-07-25T14:20:19.972Z</time>
      </trkpt>
      <trkpt lat="60.8262" lon="5.01988">
        <ele>61.966669</ele>
        <time>2020-07-25T14:20:21.998Z</time>
      </trkpt>
      <trkpt lat="60.82628" lon="5.01999">
        <ele>61.451211</ele>
        <time>2020-07-25T14:20:24.004Z</time>
      </trkpt>
      <trkpt lat="60.82636" lon="5.02011">
        <ele>60.931233</ele>
        <time>2020-07-25T14:20:25.995Z</time>
      </trkpt>
      <trkpt lat="60.82644" lon="5.02023">
        <ele>60.416604</ele>
        <time>2020-07-25T14:20:27.988Z</time>
      </trkpt>
      <trkpt lat="60.82651" lon="5.02036">
        <ele>59.900421</ele>
        <time>2020-07-25T14:20:30.062Z</time>
      </trkpt>
      <trkpt lat="60.82659" lon="5.02048">
        <ele>59.40232</ele>
        <time>2020-07-25T14:20:32.041Z</time>
      </trkpt>
      <trkpt lat="60.82666" lon="5.0206">
        <ele>58.888712</ele>
        <time>2020-07-25T14:20:33.971Z</time>
      </trkpt>
      <trkpt lat="60.82674" lon="5.02073">
        <ele>58.371931</ele>
        <time>2020-07-25T14:20:36.005Z</time>
      </trkpt>
      <trkpt lat="60.82682" lon="5.02087">
        <ele>57.83318</ele>
        <time>2020-07-25T14:20:38.027Z</time>
      </trkpt>
      <trkpt lat="60.82689" lon="5.021">
        <ele>57.315302</ele>
        <time>2020-07-25T14:20:39.981Z</time>
      </trkpt>
      <trkpt lat="60.82697" lon="5.02113">
        <ele>56.925886</ele>
        <time>2020-07-25T14:20:42.011Z</time>
      </trkpt>
      <trkpt lat="60.82705" lon="5.02127">
        <ele>57.010507</ele>
        <time>2020-07-25T14:20:43.988Z</time>
      </trkpt>
      <trkpt lat="60.82714" lon="5.02141">
        <ele>57.09833</ele>
        <time>2020-07-25T14:20:45.979Z</time>
      </trkpt>
      <trkpt lat="60.82723" lon="5.02155">
        <ele>57.191022</ele>
        <time>2020-07-25T14:20:48.020Z</time>
      </trkpt>
      <trkpt lat="60.82732" lon="5.02169">
        <ele>57.277255</ele>
        <time>2020-07-25T14:20:49.969Z</time>
      </trkpt>
      <trkpt lat="60.8274" lon="5.02182">
        <ele>57.360563</ele>
        <time>2020-07-25T14:20:52.015Z</time>
      </trkpt>
      <trkpt lat="60.82748" lon="5.02195">
        <ele>57.445315</ele>
        <time>2020-07-25T14:20:54.008Z</time>
      </trkpt>
      <trkpt lat="60.82757" lon="5.02208">
        <ele>57.52874</ele>
        <time>2020-07-25T14:20:55.982Z</time>
      </trkpt>
      <trkpt lat="60.82766" lon="5.0222">
        <ele>57.613236</ele>
        <time>2020-07-25T14:20:58.019Z</time>
      </trkpt>
      <trkpt lat="60.82774" lon="5.02234">
        <ele>57.698846</ele>
        <time>2020-07-25T14:20:59.988Z</time>
      </trkpt>
      <trkpt lat="60.82781" lon="5.02247">
        <ele>57.777032</ele>
        <time>2020-07-25T14:21:01.995Z</time>
      </trkpt>
      <trkpt lat="60.82788" lon="5.0226">
        <ele>57.851628</ele>
        <time>2020-07-25T14:21:03.994Z</time>
      </trkpt>
      <trkpt lat="60.82796" lon="5.02274">
        <ele>57.929813</ele>
        <time>2020-07-25T14:21:05.975Z</time>
      </trkpt>
      <trkpt lat="60.82803" lon="5.02288">
        <ele>58.008669</ele>
        <time>2020-07-25T14:21:08.020Z</time>
      </trkpt>
      <trkpt lat="60.82809" lon="5.02303">
        <ele>58.086414</ele>
        <time>2020-07-25T14:21:10.004Z</time>
      </trkpt>
      <trkpt lat="60.82817" lon="5.02316">
        <ele>58.16512</ele>
        <time>2020-07-25T14:21:11.984Z</time>
      </trkpt>
      <trkpt lat="60.82824" lon="5.0233">
        <ele>58.243565</ele>
        <time>2020-07-25T14:21:13.979Z</time>
      </trkpt>
      <trkpt lat="60.8283" lon="5.02344">
        <ele>58.316599</ele>
        <time>2020-07-25T14:21:15.981Z</time>
      </trkpt>
      <trkpt lat="60.82837" lon="5.02359">
        <ele>58.502077</ele>
        <time>2020-07-25T14:21:18.008Z</time>
      </trkpt>
      <trkpt lat="60.82844" lon="5.02374">
        <ele>58.730046</ele>
        <time>2020-07-25T14:21:20.031Z</time>
      </trkpt>
      <trkpt lat="60.82851" lon="5.0239">
        <ele>58.961791</ele>
        <time>2020-07-25T14:21:22.010Z</time>
      </trkpt>
      <trkpt lat="60.82858" lon="5.02402">
        <ele>59.177939</ele>
        <time>2020-07-25T14:21:24.024Z</time>
      </trkpt>
      <trkpt lat="60.82866" lon="5.02415">
        <ele>59.404247</ele>
        <time>2020-07-25T14:21:25.983Z</time>
      </trkpt>
      <trkpt lat="60.82874" lon="5.02428">
        <ele>59.642866</ele>
        <time>2020-07-25T14:21:28.013Z</time>
      </trkpt>
      <trkpt lat="60.82883" lon="5.02444">
        <ele>59.910532</ele>
        <time>2020-07-25T14:21:29.984Z</time>
      </trkpt>
      <trkpt lat="60.82892" lon="5.02458">
        <ele>60.16626</ele>
        <time>2020-07-25T14:21:32.020Z</time>
      </trkpt>
      <trkpt lat="60.82901" lon="5.02473">
        <ele>60.422012</ele>
        <time>2020-07-25T14:21:33.989Z</time>
      </trkpt>
      <trkpt lat="60.82909" lon="5.02488">
        <ele>60.666304</ele>
        <time>2020-07-25T14:21:36.039Z</time>
      </trkpt>
      <trkpt lat="60.82917" lon="5.02502">
        <ele>60.918883</ele>
        <time>2020-07-25T14:21:38.003Z</time>
      </trkpt>
      <trkpt lat="60.82926" lon="5.02515">
        <ele>61.152572</ele>
        <time>2020-07-25T14:21:40.018Z</time>
      </trkpt>
      <trkpt lat="60.82933" lon="5.0253">
        <ele>61.388113</ele>
        <time>2020-07-25T14:21:42.009Z</time>
      </trkpt>
      <trkpt lat="60.82941" lon="5.02544">
        <ele>61.625119</ele>
        <time>2020-07-25T14:21:44.015Z</time>
      </trkpt>
      <trkpt lat="60.82949" lon="5.02558">
        <ele>61.860203</ele>
        <time>2020-07-25T14:21:46.050Z</time>
      </trkpt>
      <trkpt lat="60.82957" lon="5.02572">
        <ele>62.098174</ele>
        <time>2020-07-25T14:21:48.028Z</time>
      </trkpt>
      <trkpt lat="60.82965" lon="5.02587">
        <ele>62.334828</ele>
        <time>2020-07-25T14:21:49.992Z</time>
      </trkpt>
      <trkpt lat="60.82972" lon="5.02601">
        <ele>62.412107</ele>
        <time>2020-07-25T14:21:52.004Z</time>
      </trkpt>
      <trkpt lat="60.8298" lon="5.02615">
        <ele>62.406532</ele>
        <time>2020-07-25T14:21:54.011Z</time>
      </trkpt>
      <trkpt lat="60.82988" lon="5.02629">
        <ele>62.401065</ele>
        <time>2020-07-25T14:21:56.002Z</time>
      </trkpt>
      <trkpt lat="60.82996" lon="5.02643">
        <ele>62.395672</ele>
        <time>2020-07-25T14:21:58.036Z</time>
      </trkpt>
      <trkpt lat="60.83004" lon="5.02658">
        <ele>62.390037</ele>
        <time>2020-07-25T14:21:59.995Z</time>
      </trkpt>
      <trkpt lat="60.83011" lon="5.02671">
        <ele>62.38511</ele>
        <time>2020-07-25T14:22:01.994Z</time>
      </trkpt>
      <trkpt lat="60.83019" lon="5.02686">
        <ele>62.379635</ele>
        <time>2020-07-25T14:22:03.994Z</time>
      </trkpt>
      <trkpt lat="60.83027" lon="5.02699">
        <ele>62.374137</ele>
        <time>2020-07-25T14:22:06.020Z</time>
      </trkpt>
      <trkpt lat="60.83034" lon="5.02713">
        <ele>62.368944</ele>
        <time>2020-07-25T14:22:07.995Z</time>
      </trkpt>
      <trkpt lat="60.83041" lon="5.02726">
        <ele>62.363945</ele>
        <time>2020-07-25T14:22:10.006Z</time>
      </trkpt>
      <trkpt lat="60.83048" lon="5.02739">
        <ele>62.359048</ele>
        <time>2020-07-25T14:22:12.000Z</time>
      </trkpt>
      <trkpt lat="60.83056" lon="5.02755">
        <ele>62.35336</ele>
        <time>2020-07-25T14:22:14.029Z</time>
      </trkpt>
      <trkpt lat="60.83064" lon="5.02771">
        <ele>62.347656</ele>
        <time>2020-07-25T14:22:15.991Z</time>
      </trkpt>
      <trkpt lat="60.83071" lon="5.02786">
        <ele>62.341987</ele>
        <time>2020-07-25T14:22:18.018Z</time>
      </trkpt>
      <trkpt lat="60.83079" lon="5.02799">
        <ele>62.336663</ele>
        <time>2020-07-25T14:22:20.008Z</time>
      </trkpt>
      <trkpt lat="60.83088" lon="5.02812">
        <ele>62.3311</ele>
        <time>2020-07-25T14:22:22.040Z</time>
      </trkpt>
      <trkpt lat="60.83096" lon="5.02825">
        <ele>62.32573</ele>
        <time>2020-07-25T14:22:24.001Z</time>
      </trkpt>
      <trkpt lat="60.83104" lon="5.0284">
        <ele>62.313769</ele>
        <time>2020-07-25T14:22:25.997Z</time>
      </trkpt>
      <trkpt lat="60.83111" lon="5.02856">
        <ele>62.283514</ele>
        <time>2020-07-25T14:22:28.006Z</time>
      </trkpt>
      <trkpt lat="60.83119" lon="5.02873">
        <ele>62.252201</ele>
        <time>2020-07-25T14:22:30.012Z</time>
      </trkpt>
      <trkpt lat="60.83128" lon="5.02887">
        <ele>62.220714</ele>
        <time>2020-07-25T14:22:31.987Z</time>
      </trkpt>
      <trkpt lat="60.83137" lon="5.02901">
        <ele>62.191318</ele>
        <time>2020-07-25T14:22:34.027Z</time>
      </trkpt>
      <trkpt lat="60.83145" lon="5.02915">
        <ele>62.161875</ele>
        <time>2020-07-25T14:22:36.023Z</time>
      </trkpt>
      <trkpt lat="60.83153" lon="5.02929">
        <ele>62.132175</ele>
        <time>2020-07-25T14:22:37.992Z</time>
      </trkpt>
      <trkpt lat="60.83161" lon="5.02944">
        <ele>62.102919</ele>
        <time>2020-07-25T14:22:40.006Z</time>
      </trkpt>
      <trkpt lat="60.83169" lon="5.02958">
        <ele>62.074454</ele>
        <time>2020-07-25T14:22:41.999Z</time>
      </trkpt>
      <trkpt lat="60.83176" lon="5.02973">
        <ele>62.045898</ele>
        <time>2020-07-25T14:22:43.990Z</time>
      </trkpt>
      <trkpt lat="60.83184" lon="5.02988">
        <ele>62.015896</ele>
        <time>2020-07-25T14:22:46.008Z</time>
      </trkpt>
      <trkpt lat="60.83192" lon="5.03002">
        <ele>61.986934</ele>
        <time>2020-07-25T14:22:48.014Z</time>
      </trkpt>
      <trkpt lat="60.832" lon="5.03016">
        <ele>61.959214</ele>
        <time>2020-07-25T14:22:50.018Z</time>
      </trkpt>
      <trkpt lat="60.83208" lon="5.0303">
        <ele>61.930961</ele>
        <time>2020-07-25T14:22:52.020Z</time>
      </trkpt>
      <trkpt lat="60.83215" lon="5.03044">
        <ele>61.902446</ele>
        <time>2020-07-25T14:22:54.036Z</time>
      </trkpt>
      <trkpt lat="60.83223" lon="5.03058">
        <ele>61.87313</ele>
        <time>2020-07-25T14:22:56.020Z</time>
      </trkpt>
      <trkpt lat="60.83232" lon="5.03071">
        <ele>61.844415</ele>
        <time>2020-07-25T14:22:58.052Z</time>
      </trkpt>
      <trkpt lat="60.83239" lon="5.03085">
        <ele>61.625736</ele>
        <time>2020-07-25T14:22:59.986Z</time>
      </trkpt>
      <trkpt lat="60.83246" lon="5.03098">
        <ele>61.073795</ele>
        <time>2020-07-25T14:23:02.014Z</time>
      </trkpt>
      <trkpt lat="60.83253" lon="5.03111">
        <ele>60.55755</ele>
        <time>2020-07-25T14:23:03.983Z</time>
      </trkpt>
      <trkpt lat="60.83261" lon="5.03122">
        <ele>60.026761</ele>
        <time>2020-07-25T14:23:06.003Z</time>
      </trkpt>
      <trkpt lat="60.83269" lon="5.03136">
        <ele>59.457471</ele>
        <time>2020-07-25T14:23:07.993Z</time>
      </trkpt>
      <trkpt lat="60.83276" lon="5.0315">
        <ele>58.87971</ele>
        <time>2020-07-25T14:23:10.003Z</time>
      </trkpt>
      <trkpt lat="60.83284" lon="5.03164">
        <ele>58.30745</ele>
        <time>2020-07-25T14:23:11.992Z</time>
      </trkpt>
      <trkpt lat="60.83291" lon="5.03178">
        <ele>57.731531</ele>
        <time>2020-07-25T14:23:14.024Z</time>
      </trkpt>
      <trkpt lat="60.83299" lon="5.03193">
        <ele>57.136614</ele>
        <time>2020-07-25T14:23:15.999Z</time>
      </trkpt>
      <trkpt lat="60.83307" lon="5.03208">
        <ele>56.538276</ele>
        <time>2020-07-25T14:23:18.046Z</time>
      </trkpt>
      <trkpt lat="60.83314" lon="5.03223">
        <ele>55.969089</ele>
        <time>2020-07-25T14:23:20.040Z</time>
      </trkpt>
      <trkpt lat="60.83322" lon="5.03238">
        <ele>55.370402</ele>
        <time>2020-07-25T14:23:22.019Z</time>
      </trkpt>
      <trkpt lat="60.83329" lon="5.03253">
        <ele>54.771942</ele>
        <time>2020-07-25T14:23:24.000Z</time>
      </trkpt>
      <trkpt lat="60.83337" lon="5.03267">
        <ele>54.1798</ele>
        <time>2020-07-25T14:23:26.001Z</time>
      </trkpt>
      <trkpt lat="60.83345" lon="5.03281">
        <ele>53.599704</ele>
        <time>2020-07-25T14:23:28.025Z</time>
      </trkpt>
      <trkpt lat="60.83352" lon="5.03294">
        <ele>53.053914</ele>
        <time>2020-07-25T14:23:30.006Z</time>
      </trkpt>
      <trkpt lat="60.8336" lon="5.03307">
        <ele>52.481356</ele>
        <time>2020-07-25T14:23:32.011Z</time>
      </trkpt>
      <trkpt lat="60.83368" lon="5.0332">
        <ele>51.911137</ele>
        <time>2020-07-25T14:23:34.011Z</time>
      </trkpt>
      <trkpt lat="60.83375" lon="5.03332">
        <ele>51.589775</ele>
        <time>2020-07-25T14:23:36.004Z</time>
      </trkpt>
      <trkpt lat="60.83386" lon="5.03351">
        <ele>51.287752</ele>
        <time>2020-07-25T14:23:39.006Z</time>
      </trkpt>
      <trkpt lat="60.83394" lon="5.03366">
        <ele>51.056788</ele>
        <time>2020-07-25T14:23:41.014Z</time>
      </trkpt>
      <trkpt lat="60.83402" lon="5.03381">
        <ele>50.825825</ele>
        <time>2020-07-25T14:23:43.012Z</time>
      </trkpt>
      <trkpt lat="60.8341" lon="5.03394">
        <ele>50.597711</ele>
        <time>2020-07-25T14:23:45.004Z</time>
      </trkpt>
      <trkpt lat="60.83419" lon="5.03408">
        <ele>50.367878</ele>
        <time>2020-07-25T14:23:47.020Z</time>
      </trkpt>
      <trkpt lat="60.83427" lon="5.03421">
        <ele>50.139764</ele>
        <time>2020-07-25T14:23:49.028Z</time>
      </trkpt>
      <trkpt lat="60.83436" lon="5.03434">
        <ele>49.911021</ele>
        <time>2020-07-25T14:23:51.036Z</time>
      </trkpt>
      <trkpt lat="60.83445" lon="5.03447">
        <ele>49.681303</ele>
        <time>2020-07-25T14:23:53.017Z</time>
      </trkpt>
      <trkpt lat="60.83453" lon="5.0346">
        <ele>49.452347</ele>
        <time>2020-07-25T14:23:55.022Z</time>
      </trkpt>
      <trkpt lat="60.83461" lon="5.03473">
        <ele>49.236057</ele>
        <time>2020-07-25T14:23:56.990Z</time>
      </trkpt>
      <trkpt lat="60.83468" lon="5.03487">
        <ele>49.016198</ele>
        <time>2020-07-25T14:23:58.994Z</time>
      </trkpt>
      <trkpt lat="60.83477" lon="5.03502">
        <ele>48.782289</ele>
        <time>2020-07-25T14:24:01.037Z</time>
      </trkpt>
      <trkpt lat="60.83485" lon="5.03516">
        <ele>48.543441</ele>
        <time>2020-07-25T14:24:03.016Z</time>
      </trkpt>
      <trkpt lat="60.83493" lon="5.03532">
        <ele>48.309793</ele>
        <time>2020-07-25T14:24:04.994Z</time>
      </trkpt>
      <trkpt lat="60.83501" lon="5.03549">
        <ele>48.071646</ele>
        <time>2020-07-25T14:24:07.003Z</time>
      </trkpt>
      <trkpt lat="60.83509" lon="5.03564">
        <ele>47.870588</ele>
        <time>2020-07-25T14:24:08.983Z</time>
      </trkpt>
      <trkpt lat="60.83517" lon="5.03578">
        <ele>48.049947</ele>
        <time>2020-07-25T14:24:11.034Z</time>
      </trkpt>
      <trkpt lat="60.83524" lon="5.03593">
        <ele>48.2173</ele>
        <time>2020-07-25T14:24:12.999Z</time>
      </trkpt>
      <trkpt lat="60.8353" lon="5.03608">
        <ele>48.383504</ele>
        <time>2020-07-25T14:24:15.017Z</time>
      </trkpt>
      <trkpt lat="60.83538" lon="5.03623">
        <ele>48.554957</ele>
        <time>2020-07-25T14:24:16.996Z</time>
      </trkpt>
      <trkpt lat="60.83545" lon="5.03637">
        <ele>48.729249</ele>
        <time>2020-07-25T14:24:18.997Z</time>
      </trkpt>
      <trkpt lat="60.83553" lon="5.03651">
        <ele>48.90607</ele>
        <time>2020-07-25T14:24:21.000Z</time>
      </trkpt>
      <trkpt lat="60.83562" lon="5.03664">
        <ele>49.08365</ele>
        <time>2020-07-25T14:24:23.004Z</time>
      </trkpt>
      <trkpt lat="60.8357" lon="5.03678">
        <ele>49.25941</ele>
        <time>2020-07-25T14:24:24.992Z</time>
      </trkpt>
      <trkpt lat="60.83578" lon="5.03691">
        <ele>49.431784</ele>
        <time>2020-07-25T14:24:27.030Z</time>
      </trkpt>
      <trkpt lat="60.83586" lon="5.03705">
        <ele>49.601303</ele>
        <time>2020-07-25T14:24:28.999Z</time>
      </trkpt>
      <trkpt lat="60.83593" lon="5.03717">
        <ele>49.76177</ele>
        <time>2020-07-25T14:24:31.032Z</time>
      </trkpt>
      <trkpt lat="60.836" lon="5.0373">
        <ele>49.920068</ele>
        <time>2020-07-25T14:24:32.996Z</time>
      </trkpt>
      <trkpt lat="60.83607" lon="5.03744">
        <ele>50.083045</ele>
        <time>2020-07-25T14:24:34.997Z</time>
      </trkpt>
      <trkpt lat="60.83614" lon="5.03757">
        <ele>50.243135</ele>
        <time>2020-07-25T14:24:36.991Z</time>
      </trkpt>
      <trkpt lat="60.83622" lon="5.0377">
        <ele>50.413698</ele>
        <time>2020-07-25T14:24:39.020Z</time>
      </trkpt>
      <trkpt lat="60.8363" lon="5.03785">
        <ele>50.594659</ele>
        <time>2020-07-25T14:24:41.010Z</time>
      </trkpt>
      <trkpt lat="60.83638" lon="5.038">
        <ele>50.782142</ele>
        <time>2020-07-25T14:24:42.997Z</time>
      </trkpt>
      <trkpt lat="60.83646" lon="5.03816">
        <ele>51.090293</ele>
        <time>2020-07-25T14:24:45.000Z</time>
      </trkpt>
      <trkpt lat="60.83654" lon="5.03831">
        <ele>51.51317</ele>
        <time>2020-07-25T14:24:47.003Z</time>
      </trkpt>
      <trkpt lat="60.83662" lon="5.03844">
        <ele>51.894221</ele>
        <time>2020-07-25T14:24:48.991Z</time>
      </trkpt>
      <trkpt lat="60.83669" lon="5.03858">
        <ele>52.282354</ele>
        <time>2020-07-25T14:24:51.010Z</time>
      </trkpt>
      <trkpt lat="60.83676" lon="5.03871">
        <ele>52.644898</ele>
        <time>2020-07-25T14:24:53.016Z</time>
      </trkpt>
      <trkpt lat="60.83683" lon="5.03886">
        <ele>53.044487</ele>
        <time>2020-07-25T14:24:54.997Z</time>
      </trkpt>
      <trkpt lat="60.83691" lon="5.039">
        <ele>53.457246</ele>
        <time>2020-07-25T14:24:57.001Z</time>
      </trkpt>
      <trkpt lat="60.83699" lon="5.03914">
        <ele>53.859645</ele>
        <time>2020-07-25T14:24:59.042Z</time>
      </trkpt>
      <trkpt lat="60.83707" lon="5.03927">
        <ele>54.26624</ele>
        <time>2020-07-25T14:25:01.000Z</time>
      </trkpt>
      <trkpt lat="60.83716" lon="5.03941">
        <ele>54.686054</ele>
        <time>2020-07-25T14:25:03.048Z</time>
      </trkpt>
      <trkpt lat="60.83724" lon="5.03955">
        <ele>55.106154</ele>
        <time>2020-07-25T14:25:05.001Z</time>
      </trkpt>
      <trkpt lat="60.83733" lon="5.03968">
        <ele>55.521249</ele>
        <time>2020-07-25T14:25:06.995Z</time>
      </trkpt>
      <trkpt lat="60.83741" lon="5.03983">
        <ele>55.952493</ele>
        <time>2020-07-25T14:25:09.016Z</time>
      </trkpt>
      <trkpt lat="60.8375" lon="5.03996">
        <ele>56.364924</ele>
        <time>2020-07-25T14:25:10.999Z</time>
      </trkpt>
      <trkpt lat="60.83758" lon="5.0401">
        <ele>56.779387</ele>
        <time>2020-07-25T14:25:13.001Z</time>
      </trkpt>
      <trkpt lat="60.83765" lon="5.04024">
        <ele>57.178365</ele>
        <time>2020-07-25T14:25:14.999Z</time>
      </trkpt>
      <trkpt lat="60.83773" lon="5.04039">
        <ele>57.595805</ele>
        <time>2020-07-25T14:25:16.984Z</time>
      </trkpt>
      <trkpt lat="60.83781" lon="5.04052">
        <ele>57.94781</ele>
        <time>2020-07-25T14:25:19.009Z</time>
      </trkpt>
      <trkpt lat="60.83789" lon="5.04066">
        <ele>58.201183</ele>
        <time>2020-07-25T14:25:21.006Z</time>
      </trkpt>
      <trkpt lat="60.83797" lon="5.0408">
        <ele>58.451961</ele>
        <time>2020-07-25T14:25:23.012Z</time>
      </trkpt>
      <trkpt lat="60.83805" lon="5.04094">
        <ele>58.701563</ele>
        <time>2020-07-25T14:25:24.988Z</time>
      </trkpt>
      <trkpt lat="60.83812" lon="5.04108">
        <ele>58.944767</ele>
        <time>2020-07-25T14:25:27.000Z</time>
      </trkpt>
      <trkpt lat="60.8382" lon="5.04123">
        <ele>59.20143</ele>
        <time>2020-07-25T14:25:29.005Z</time>
      </trkpt>
      <trkpt lat="60.83827" lon="5.04138">
        <ele>59.452915</ele>
        <time>2020-07-25T14:25:31.012Z</time>
      </trkpt>
      <trkpt lat="60.83835" lon="5.04154">
        <ele>59.70437</ele>
        <time>2020-07-25T14:25:33.023Z</time>
      </trkpt>
      <trkpt lat="60.83842" lon="5.04169">
        <ele>59.960029</ele>
        <time>2020-07-25T14:25:35.047Z</time>
      </trkpt>
      <trkpt lat="60.8385" lon="5.04184">
        <ele>60.217018</ele>
        <time>2020-07-25T14:25:36.992Z</time>
      </trkpt>
      <trkpt lat="60.83858" lon="5.04199">
        <ele>60.478637</ele>
        <time>2020-07-25T14:25:39.003Z</time>
      </trkpt>
      <trkpt lat="60.83867" lon="5.04214">
        <ele>60.750335</ele>
        <time>2020-07-25T14:25:41.002Z</time>
      </trkpt>
      <trkpt lat="60.83875" lon="5.04229">
        <ele>61.01723</ele>
        <time>2020-07-25T14:25:42.994Z</time>
      </trkpt>
      <trkpt lat="60.83883" lon="5.04244">
        <ele>61.285107</ele>
        <time>2020-07-25T14:25:45.015Z</time>
      </trkpt>
      <trkpt lat="60.83891" lon="5.04259">
        <ele>61.541307</ele>
        <time>2020-07-25T14:25:47.026Z</time>
      </trkpt>
      <trkpt lat="60.83899" lon="5.04273">
        <ele>61.796351</ele>
        <time>2020-07-25T14:25:49.027Z</time>
      </trkpt>
      <trkpt lat="60.83906" lon="5.04288">
        <ele>62.041933</ele>
        <time>2020-07-25T14:25:50.994Z</time>
      </trkpt>
      <trkpt lat="60.83914" lon="5.04302">
        <ele>62.156429</ele>
        <time>2020-07-25T14:25:53.010Z</time>
      </trkpt>
      <trkpt lat="60.83921" lon="5.04318">
        <ele>62.003858</ele>
        <time>2020-07-25T14:25:55.027Z</time>
      </trkpt>
      <trkpt lat="60.83929" lon="5.04334">
        <ele>61.844961</ele>
        <time>2020-07-25T14:25:56.981Z</time>
      </trkpt>
      <trkpt lat="60.83937" lon="5.0435">
        <ele>61.689989</ele>
        <time>2020-07-25T14:25:58.993Z</time>
      </trkpt>
      <trkpt lat="60.83945" lon="5.04366">
        <ele>61.532953</ele>
        <time>2020-07-25T14:26:00.992Z</time>
      </trkpt>
      <trkpt lat="60.83954" lon="5.04381">
        <ele>61.372639</ele>
        <time>2020-07-25T14:26:03.016Z</time>
      </trkpt>
      <trkpt lat="60.83963" lon="5.04396">
        <ele>61.21688</ele>
        <time>2020-07-25T14:26:05.046Z</time>
      </trkpt>
      <trkpt lat="60.83971" lon="5.0441">
        <ele>61.064778</ele>
        <time>2020-07-25T14:26:07.016Z</time>
      </trkpt>
      <trkpt lat="60.83979" lon="5.04425">
        <ele>60.911327</ele>
        <time>2020-07-25T14:26:09.079Z</time>
      </trkpt>
      <trkpt lat="60.83987" lon="5.04439">
        <ele>60.758601</ele>
        <time>2020-07-25T14:26:11.035Z</time>
      </trkpt>
      <trkpt lat="60.83995" lon="5.04453">
        <ele>60.617171</ele>
        <time>2020-07-25T14:26:13.000Z</time>
      </trkpt>
      <trkpt lat="60.84003" lon="5.04469">
        <ele>60.460977</ele>
        <time>2020-07-25T14:26:14.997Z</time>
      </trkpt>
      <trkpt lat="60.84011" lon="5.04484">
        <ele>60.306163</ele>
        <time>2020-07-25T14:26:17.017Z</time>
      </trkpt>
      <trkpt lat="60.84019" lon="5.04499">
        <ele>60.1546</ele>
        <time>2020-07-25T14:26:19.010Z</time>
      </trkpt>
      <trkpt lat="60.84026" lon="5.04513">
        <ele>60.015595</ele>
        <time>2020-07-25T14:26:20.987Z</time>
      </trkpt>
      <trkpt lat="60.84033" lon="5.04526">
        <ele>59.880512</ele>
        <time>2020-07-25T14:26:23.034Z</time>
      </trkpt>
      <trkpt lat="60.8404" lon="5.04538">
        <ele>59.754041</ele>
        <time>2020-07-25T14:26:25.024Z</time>
      </trkpt>
      <trkpt lat="60.84047" lon="5.04552">
        <ele>59.91809</ele>
        <time>2020-07-25T14:26:27.005Z</time>
      </trkpt>
      <trkpt lat="60.84054" lon="5.04564">
        <ele>60.430172</ele>
        <time>2020-07-25T14:26:28.992Z</time>
      </trkpt>
      <trkpt lat="60.84061" lon="5.04577">
        <ele>60.949363</ele>
        <time>2020-07-25T14:26:31.001Z</time>
      </trkpt>
      <trkpt lat="60.84069" lon="5.0459">
        <ele>61.480476</ele>
        <time>2020-07-25T14:26:33.031Z</time>
      </trkpt>
      <trkpt lat="60.84076" lon="5.04602">
        <ele>62.00453</ele>
        <time>2020-07-25T14:26:35.015Z</time>
      </trkpt>
      <trkpt lat="60.84083" lon="5.04615">
        <ele>62.517765</ele>
        <time>2020-07-25T14:26:37.000Z</time>
      </trkpt>
      <trkpt lat="60.8409" lon="5.04628">
        <ele>63.067547</ele>
        <time>2020-07-25T14:26:39.008Z</time>
      </trkpt>
      <trkpt lat="60.84098" lon="5.0464">
        <ele>63.605391</ele>
        <time>2020-07-25T14:26:41.018Z</time>
      </trkpt>
      <trkpt lat="60.84106" lon="5.04653">
        <ele>64.156992</ele>
        <time>2020-07-25T14:26:43.006Z</time>
      </trkpt>
      <trkpt lat="60.84113" lon="5.04665">
        <ele>64.677976</ele>
        <time>2020-07-25T14:26:44.993Z</time>
      </trkpt>
      <trkpt lat="60.8412" lon="5.04679">
        <ele>65.215818</ele>
        <time>2020-07-25T14:26:47.012Z</time>
      </trkpt>
      <trkpt lat="60.84128" lon="5.04693">
        <ele>65.806572</ele>
        <time>2020-07-25T14:26:49.008Z</time>
      </trkpt>
      <trkpt lat="60.84136" lon="5.0471">
        <ele>66.457537</ele>
        <time>2020-07-25T14:26:50.983Z</time>
      </trkpt>
      <trkpt lat="60.84145" lon="5.04726">
        <ele>67.106693</ele>
        <time>2020-07-25T14:26:53.052Z</time>
      </trkpt>
      <trkpt lat="60.84154" lon="5.04742">
        <ele>67.767227</ele>
        <time>2020-07-25T14:26:54.991Z</time>
      </trkpt>
      <trkpt lat="60.84162" lon="5.04758">
        <ele>68.405589</ele>
        <time>2020-07-25T14:26:57.033Z</time>
      </trkpt>
      <trkpt lat="60.8417" lon="5.04774">
        <ele>69.026909</ele>
        <time>2020-07-25T14:26:58.998Z</time>
      </trkpt>
      <trkpt lat="60.84179" lon="5.04788">
        <ele>69.62838</ele>
        <time>2020-07-25T14:27:01.051Z</time>
      </trkpt>
      <trkpt lat="60.84187" lon="5.04802">
        <ele>69.812158</ele>
        <time>2020-07-25T14:27:02.985Z</time>
      </trkpt>
      <trkpt lat="60.84194" lon="5.04816">
        <ele>69.965175</ele>
        <time>2020-07-25T14:27:04.992Z</time>
      </trkpt>
      <trkpt lat="60.84375" lon="5.05141">
        <ele>64.659479</ele>
        <time>2020-07-25T14:27:51.696Z</time>
      </trkpt>
      <trkpt lat="60.84361" lon="5.05199">
        <ele>61.655369</ele>
        <time>2020-07-25T14:27:52.861Z</time>
      </trkpt>
      <trkpt lat="60.84401" lon="5.05196">
        <ele>57.910133</ele>
        <time>2020-07-25T14:27:53.856Z</time>
      </trkpt>
      <trkpt lat="60.84409" lon="5.05214">
        <ele>56.776362</ele>
        <time>2020-07-25T14:27:59.016Z</time>
      </trkpt>
      <trkpt lat="60.84418" lon="5.05229">
        <ele>55.688103</ele>
        <time>2020-07-25T14:28:00.995Z</time>
      </trkpt>
      <trkpt lat="60.84427" lon="5.05245">
        <ele>55.633116</ele>
        <time>2020-07-25T14:28:03.052Z</time>
      </trkpt>
      <trkpt lat="60.84434" lon="5.05259">
        <ele>56.172876</ele>
        <time>2020-07-25T14:28:05.001Z</time>
      </trkpt>
      <trkpt lat="60.84442" lon="5.05275">
        <ele>56.711883</ele>
        <time>2020-07-25T14:28:07.002Z</time>
      </trkpt>
      <trkpt lat="60.8445" lon="5.0529">
        <ele>57.233603</ele>
        <time>2020-07-25T14:28:08.986Z</time>
      </trkpt>
      <trkpt lat="60.84498" lon="5.05385">
        <ele>60.593318</ele>
        <time>2020-07-25T14:28:23.784Z</time>
      </trkpt>
      <trkpt lat="60.84493" lon="5.05411">
        <ele>61.2736</ele>
        <time>2020-07-25T14:28:24.977Z</time>
      </trkpt>
      <trkpt lat="60.84506" lon="5.05408">
        <ele>61.917639</ele>
        <time>2020-07-25T14:28:25.982Z</time>
      </trkpt>
      <trkpt lat="60.84513" lon="5.05421">
        <ele>62.412479</ele>
        <time>2020-07-25T14:28:27.015Z</time>
      </trkpt>
      <trkpt lat="60.84535" lon="5.05433">
        <ele>63.532146</ele>
        <time>2020-07-25T14:28:31.996Z</time>
      </trkpt>
      <trkpt lat="60.84549" lon="5.05459">
        <ele>64.20677</ele>
        <time>2020-07-25T14:28:36.004Z</time>
      </trkpt>
      <trkpt lat="60.84563" lon="5.05486">
        <ele>63.64062</ele>
        <time>2020-07-25T14:28:40.021Z</time>
      </trkpt>
      <trkpt lat="60.84576" lon="5.05512">
        <ele>63.118347</ele>
        <time>2020-07-25T14:28:41.981Z</time>
      </trkpt>
      <trkpt lat="60.84587" lon="5.05534">
        <ele>62.657398</ele>
        <time>2020-07-25T14:28:44.019Z</time>
      </trkpt>
      <trkpt lat="60.84597" lon="5.05553">
        <ele>62.263911</ele>
        <time>2020-07-25T14:28:45.989Z</time>
      </trkpt>
      <trkpt lat="60.84606" lon="5.05571">
        <ele>61.901953</ele>
        <time>2020-07-25T14:28:48.012Z</time>
      </trkpt>
      <trkpt lat="60.84615" lon="5.05588">
        <ele>61.555186</ele>
        <time>2020-07-25T14:28:49.985Z</time>
      </trkpt>
      <trkpt lat="60.84623" lon="5.05605">
        <ele>61.203195</ele>
        <time>2020-07-25T14:28:51.996Z</time>
      </trkpt>
      <trkpt lat="60.84632" lon="5.05621">
        <ele>60.857932</ele>
        <time>2020-07-25T14:28:54.036Z</time>
      </trkpt>
      <trkpt lat="60.84641" lon="5.05636">
        <ele>60.518851</ele>
        <time>2020-07-25T14:28:56.009Z</time>
      </trkpt>
      <trkpt lat="60.8465" lon="5.05651">
        <ele>60.188812</ele>
        <time>2020-07-25T14:28:57.987Z</time>
      </trkpt>
      <trkpt lat="60.84658" lon="5.05666">
        <ele>59.866748</ele>
        <time>2020-07-25T14:28:59.985Z</time>
      </trkpt>
      <trkpt lat="60.84666" lon="5.0568">
        <ele>59.556126</ele>
        <time>2020-07-25T14:29:01.996Z</time>
      </trkpt>
      <trkpt lat="60.84675" lon="5.05693">
        <ele>59.237573</ele>
        <time>2020-07-25T14:29:03.977Z</time>
      </trkpt>
      <trkpt lat="60.84683" lon="5.05706">
        <ele>59.254253</ele>
        <time>2020-07-25T14:29:05.986Z</time>
      </trkpt>
      <trkpt lat="60.84692" lon="5.05718">
        <ele>59.710865</ele>
        <time>2020-07-25T14:29:07.996Z</time>
      </trkpt>
      <trkpt lat="60.847" lon="5.05732">
        <ele>60.188288</ele>
        <time>2020-07-25T14:29:10.024Z</time>
      </trkpt>
      <trkpt lat="60.84708" lon="5.05746">
        <ele>60.661568</ele>
        <time>2020-07-25T14:29:12.002Z</time>
      </trkpt>
      <trkpt lat="60.84716" lon="5.05758">
        <ele>61.095849</ele>
        <time>2020-07-25T14:29:14.002Z</time>
      </trkpt>
      <trkpt lat="60.84724" lon="5.0577">
        <ele>61.514819</ele>
        <time>2020-07-25T14:29:15.974Z</time>
      </trkpt>
      <trkpt lat="60.84732" lon="5.05782">
        <ele>61.982419</ele>
        <time>2020-07-25T14:29:17.975Z</time>
      </trkpt>
      <trkpt lat="60.84741" lon="5.05795">
        <ele>62.47578</ele>
        <time>2020-07-25T14:29:20.002Z</time>
      </trkpt>
      <trkpt lat="60.8475" lon="5.05809">
        <ele>62.949744</ele>
        <time>2020-07-25T14:29:21.994Z</time>
      </trkpt>
      <trkpt lat="60.84758" lon="5.05823">
        <ele>63.425796</ele>
        <time>2020-07-25T14:29:23.980Z</time>
      </trkpt>
      <trkpt lat="60.84766" lon="5.05837">
        <ele>63.902493</ele>
        <time>2020-07-25T14:29:25.990Z</time>
      </trkpt>
      <trkpt lat="60.84774" lon="5.05851">
        <ele>64.356599</ele>
        <time>2020-07-25T14:29:27.998Z</time>
      </trkpt>
      <trkpt lat="60.84782" lon="5.05863">
        <ele>64.780483</ele>
        <time>2020-07-25T14:29:29.994Z</time>
      </trkpt>
      <trkpt lat="60.8479" lon="5.05876">
        <ele>65.233244</ele>
        <time>2020-07-25T14:29:32.007Z</time>
      </trkpt>
      <trkpt lat="60.84798" lon="5.05889">
        <ele>65.692167</ele>
        <time>2020-07-25T14:29:33.996Z</time>
      </trkpt>
      <trkpt lat="60.84806" lon="5.05903">
        <ele>66.184041</ele>
        <time>2020-07-25T14:29:36.000Z</time>
      </trkpt>
      <trkpt lat="60.84816" lon="5.05918">
        <ele>66.698734</ele>
        <time>2020-07-25T14:29:37.998Z</time>
      </trkpt>
      <trkpt lat="60.84824" lon="5.05932">
        <ele>67.008323</ele>
        <time>2020-07-25T14:29:40.018Z</time>
      </trkpt>
      <trkpt lat="60.84832" lon="5.05945">
        <ele>66.894595</ele>
        <time>2020-07-25T14:29:41.987Z</time>
      </trkpt>
      <trkpt lat="60.84841" lon="5.05959">
        <ele>66.779594</ele>
        <time>2020-07-25T14:29:44.037Z</time>
      </trkpt>
      <trkpt lat="60.84849" lon="5.05972">
        <ele>66.660959</ele>
        <time>2020-07-25T14:29:45.977Z</time>
      </trkpt>
      <trkpt lat="60.84858" lon="5.05986">
        <ele>66.542411</ele>
        <time>2020-07-25T14:29:48.032Z</time>
      </trkpt>
      <trkpt lat="60.84867" lon="5.06">
        <ele>66.423507</ele>
        <time>2020-07-25T14:29:49.994Z</time>
      </trkpt>
      <trkpt lat="60.84875" lon="5.06013">
        <ele>66.309259</ele>
        <time>2020-07-25T14:29:52.020Z</time>
      </trkpt>
      <trkpt lat="60.84884" lon="5.06025">
        <ele>66.199116</ele>
        <time>2020-07-25T14:29:54.028Z</time>
      </trkpt>
      <trkpt lat="60.84892" lon="5.06038">
        <ele>66.081194</ele>
        <time>2020-07-25T14:29:55.982Z</time>
      </trkpt>
      <trkpt lat="60.84901" lon="5.06051">
        <ele>65.967448</ele>
        <time>2020-07-25T14:29:57.998Z</time>
      </trkpt>
      <trkpt lat="60.84909" lon="5.06063">
        <ele>65.857254</ele>
        <time>2020-07-25T14:29:59.983Z</time>
      </trkpt>
      <trkpt lat="60.84918" lon="5.06075">
        <ele>65.74385</ele>
        <time>2020-07-25T14:30:01.981Z</time>
      </trkpt>
      <trkpt lat="60.84927" lon="5.06088">
        <ele>65.622385</ele>
        <time>2020-07-25T14:30:03.992Z</time>
      </trkpt>
      <trkpt lat="60.84937" lon="5.06101">
        <ele>65.498817</ele>
        <time>2020-07-25T14:30:05.998Z</time>
      </trkpt>
      <trkpt lat="60.84946" lon="5.06114">
        <ele>65.376187</ele>
        <time>2020-07-25T14:30:07.980Z</time>
      </trkpt>
      <trkpt lat="60.84955" lon="5.06127">
        <ele>65.254442</ele>
        <time>2020-07-25T14:30:10.044Z</time>
      </trkpt>
      <trkpt lat="60.84964" lon="5.0614">
        <ele>65.135646</ele>
        <time>2020-07-25T14:30:12.011Z</time>
      </trkpt>
      <trkpt lat="60.84973" lon="5.06154">
        <ele>64.85207</ele>
        <time>2020-07-25T14:30:13.986Z</time>
      </trkpt>
      <trkpt lat="60.84983" lon="5.06168">
        <ele>64.493799</ele>
        <time>2020-07-25T14:30:16.016Z</time>
      </trkpt>
      <trkpt lat="60.84993" lon="5.06181">
        <ele>64.145452</ele>
        <time>2020-07-25T14:30:17.980Z</time>
      </trkpt>
      <trkpt lat="60.85002" lon="5.06193">
        <ele>63.804798</ele>
        <time>2020-07-25T14:30:19.985Z</time>
      </trkpt>
      <trkpt lat="60.85011" lon="5.06205">
        <ele>63.481491</ele>
        <time>2020-07-25T14:30:21.984Z</time>
      </trkpt>
      <trkpt lat="60.8502" lon="5.06214">
        <ele>63.164579</ele>
        <time>2020-07-25T14:30:24.005Z</time>
      </trkpt>
      <trkpt lat="60.8503" lon="5.06225">
        <ele>62.836447</ele>
        <time>2020-07-25T14:30:25.994Z</time>
      </trkpt>
      <trkpt lat="60.8537" lon="5.06467">
        <ele>54.151848</ele>
        <time>2020-07-25T14:31:45.859Z</time>
      </trkpt>
      <trkpt lat="60.85401" lon="5.06479">
        <ele>55.146699</ele>
        <time>2020-07-25T14:31:53.992Z</time>
      </trkpt>
      <trkpt lat="60.85409" lon="5.06481">
        <ele>55.436031</ele>
        <time>2020-07-25T14:31:56.985Z</time>
      </trkpt>
      <trkpt lat="60.8542" lon="5.06486">
        <ele>55.790729</ele>
        <time>2020-07-25T14:32:00.004Z</time>
      </trkpt>
      <trkpt lat="60.85431" lon="5.06491">
        <ele>56.16331</ele>
        <time>2020-07-25T14:32:02.996Z</time>
      </trkpt>
      <trkpt lat="60.85442" lon="5.06496">
        <ele>56.528869</ele>
        <time>2020-07-25T14:32:05.985Z</time>
      </trkpt>
      <trkpt lat="60.85453" lon="5.065">
        <ele>56.869437</ele>
        <time>2020-07-25T14:32:08.984Z</time>
      </trkpt>
      <trkpt lat="60.85462" lon="5.06502">
        <ele>57.17299</ele>
        <time>2020-07-25T14:32:11.994Z</time>
      </trkpt>
      <trkpt lat="60.85473" lon="5.06505">
        <ele>57.520438</ele>
        <time>2020-07-25T14:32:15.983Z</time>
      </trkpt>
      <trkpt lat="60.85482" lon="5.06506">
        <ele>57.377997</ele>
        <time>2020-07-25T14:32:20.022Z</time>
      </trkpt>
      <trkpt lat="60.85492" lon="5.06507">
        <ele>57.174565</ele>
        <time>2020-07-25T14:32:24.004Z</time>
      </trkpt>
      <trkpt lat="60.85503" lon="5.0651">
        <ele>56.951667</ele>
        <time>2020-07-25T14:32:29.999Z</time>
      </trkpt>
      <trkpt lat="60.85512" lon="5.06513">
        <ele>56.758762</ele>
        <time>2020-07-25T14:32:34.988Z</time>
      </trkpt>
      <trkpt lat="60.85522" lon="5.06511">
        <ele>56.548434</ele>
        <time>2020-07-25T14:32:39.994Z</time>
      </trkpt>
      <trkpt lat="60.85531" lon="5.06504">
        <ele>56.353485</ele>
        <time>2020-07-25T14:32:44.007Z</time>
      </trkpt>
      <trkpt lat="60.8554" lon="5.06502">
        <ele>56.167726</ele>
        <time>2020-07-25T14:32:48.993Z</time>
      </trkpt>
      <trkpt lat="60.85549" lon="5.065">
        <ele>55.972127</ele>
        <time>2020-07-25T14:32:53.004Z</time>
      </trkpt>
      <trkpt lat="60.85558" lon="5.06501">
        <ele>55.783152</ele>
        <time>2020-07-25T14:32:57.019Z</time>
      </trkpt>
      <trkpt lat="60.85568" lon="5.06499">
        <ele>55.575088</ele>
        <time>2020-07-25T14:33:02.986Z</time>
      </trkpt>
      <trkpt lat="60.85578" lon="5.06492">
        <ele>55.369731</ele>
        <time>2020-07-25T14:33:10.988Z</time>
      </trkpt>
      <trkpt lat="60.85587" lon="5.0649">
        <ele>55.182268</ele>
        <time>2020-07-25T14:33:16.036Z</time>
      </trkpt>
      <trkpt lat="60.85597" lon="5.06487">
        <ele>54.968436</ele>
        <time>2020-07-25T14:33:22.001Z</time>
      </trkpt>
      <trkpt lat="60.85606" lon="5.06479">
        <ele>54.762701</ele>
        <time>2020-07-25T14:33:30.028Z</time>
      </trkpt>
      <trkpt lat="60.85614" lon="5.0647">
        <ele>54.571099</ele>
        <time>2020-07-25T14:33:37.004Z</time>
      </trkpt>
      <trkpt lat="60.85623" lon="5.06462">
        <ele>54.364487</ele>
        <time>2020-07-25T14:33:45.988Z</time>
      </trkpt>
      <trkpt lat="60.8563" lon="5.0645">
        <ele>54.178153</ele>
        <time>2020-07-25T14:33:55.022Z</time>
      </trkpt>
      <trkpt lat="60.85639" lon="5.06442">
        <ele>53.971244</ele>
        <time>2020-07-25T14:34:05.028Z</time>
      </trkpt>
      <trkpt lat="60.85648" lon="5.06434">
        <ele>53.759001</ele>
        <time>2020-07-25T14:34:16.986Z</time>
      </trkpt>
      <trkpt lat="60.85666" lon="5.0641">
        <ele>53.065916</ele>
        <time>2020-07-25T14:37:06.009Z</time>
      </trkpt>
      <trkpt lat="60.85679" lon="5.064">
        <ele>52.65355</ele>
        <time>2020-07-25T14:37:07.996Z</time>
      </trkpt>
      <trkpt lat="60.85691" lon="5.06391">
        <ele>52.256534</ele>
        <time>2020-07-25T14:37:09.998Z</time>
      </trkpt>
      <trkpt lat="60.85701" lon="5.06383">
        <ele>51.902982</ele>
        <time>2020-07-25T14:37:12.005Z</time>
      </trkpt>
      <trkpt lat="60.85711" lon="5.0638">
        <ele>51.59396</ele>
        <time>2020-07-25T14:37:14.024Z</time>
      </trkpt>
      <trkpt lat="60.85722" lon="5.06382">
        <ele>51.270455</ele>
        <time>2020-07-25T14:37:16.028Z</time>
      </trkpt>
      <trkpt lat="60.8573" lon="5.0639">
        <ele>50.979139</ele>
        <time>2020-07-25T14:37:18.007Z</time>
      </trkpt>
      <trkpt lat="60.85736" lon="5.06413">
        <ele>50.578118</ele>
        <time>2020-07-25T14:37:21.018Z</time>
      </trkpt>
      <trkpt lat="60.85735" lon="5.06431">
        <ele>50.299372</ele>
        <time>2020-07-25T14:37:22.984Z</time>
      </trkpt>
      <trkpt lat="60.85727" lon="5.0645">
        <ele>49.916715</ele>
        <time>2020-07-25T14:37:25.995Z</time>
      </trkpt>
      <trkpt lat="60.85716" lon="5.06461">
        <ele>49.540225</ele>
        <time>2020-07-25T14:37:29.012Z</time>
      </trkpt>
      <trkpt lat="60.85705" lon="5.06473">
        <ele>49.149172</ele>
        <time>2020-07-25T14:37:31.985Z</time>
      </trkpt>
      <trkpt lat="60.85695" lon="5.06486">
        <ele>48.791771</ele>
        <time>2020-07-25T14:37:34.986Z</time>
      </trkpt>
      <trkpt lat="60.85686" lon="5.06499">
        <ele>48.440837</ele>
        <time>2020-07-25T14:37:38.013Z</time>
      </trkpt>
      <trkpt lat="60.85676" lon="5.06512">
        <ele>48.194928</ele>
        <time>2020-07-25T14:37:40.989Z</time>
      </trkpt>
      <trkpt lat="60.85667" lon="5.06525">
        <ele>48.116757</ele>
        <time>2020-07-25T14:37:44.004Z</time>
      </trkpt>
      <trkpt lat="60.85657" lon="5.06536">
        <ele>48.04313</ele>
        <time>2020-07-25T14:37:46.996Z</time>
      </trkpt>
      <trkpt lat="60.85648" lon="5.06545">
        <ele>47.968543</ele>
        <time>2020-07-25T14:37:50.015Z</time>
      </trkpt>
      <trkpt lat="60.85637" lon="5.06555">
        <ele>47.890786</ele>
        <time>2020-07-25T14:37:52.996Z</time>
      </trkpt>
      <trkpt lat="60.85628" lon="5.06564">
        <ele>47.818727</ele>
        <time>2020-07-25T14:37:56.024Z</time>
      </trkpt>
      <trkpt lat="60.85619" lon="5.06572">
        <ele>47.748032</ele>
        <time>2020-07-25T14:37:58.996Z</time>
      </trkpt>
      <trkpt lat="60.85609" lon="5.0658">
        <ele>47.674885</ele>
        <time>2020-07-25T14:38:02.002Z</time>
      </trkpt>
      <trkpt lat="60.85599" lon="5.06588">
        <ele>47.599795</ele>
        <time>2020-07-25T14:38:05.016Z</time>
      </trkpt>
      <trkpt lat="60.85589" lon="5.06597">
        <ele>47.524435</ele>
        <time>2020-07-25T14:38:07.983Z</time>
      </trkpt>
      <trkpt lat="60.85579" lon="5.06605">
        <ele>47.449994</ele>
        <time>2020-07-25T14:38:10.998Z</time>
      </trkpt>
      <trkpt lat="60.85568" lon="5.06613">
        <ele>47.371824</ele>
        <time>2020-07-25T14:38:14.004Z</time>
      </trkpt>
      <trkpt lat="60.85558" lon="5.06622">
        <ele>47.296368</ele>
        <time>2020-07-25T14:38:16.985Z</time>
      </trkpt>
      <trkpt lat="60.85549" lon="5.06631">
        <ele>47.224592</ele>
        <time>2020-07-25T14:38:19.993Z</time>
      </trkpt>
      <trkpt lat="60.8554" lon="5.06639">
        <ele>47.152816</ele>
        <time>2020-07-25T14:38:23.019Z</time>
      </trkpt>
      <trkpt lat="60.8553" lon="5.06649">
        <ele>47.081241</ele>
        <time>2020-07-25T14:38:25.983Z</time>
      </trkpt>
      <trkpt lat="60.85521" lon="5.06657">
        <ele>47.013817</ele>
        <time>2020-07-25T14:38:29.004Z</time>
      </trkpt>
      <trkpt lat="60.85513" lon="5.06666">
        <ele>47.153416</ele>
        <time>2020-07-25T14:38:31.987Z</time>
      </trkpt>
      <trkpt lat="60.85503" lon="5.06676">
        <ele>47.463924</ele>
        <time>2020-07-25T14:38:34.998Z</time>
      </trkpt>
      <trkpt lat="60.85494" lon="5.06687">
        <ele>47.783835</ele>
        <time>2020-07-25T14:38:37.997Z</time>
      </trkpt>
      <trkpt lat="60.85485" lon="5.06697">
        <ele>48.097376</ele>
        <time>2020-07-25T14:38:40.999Z</time>
      </trkpt>
      <trkpt lat="60.85476" lon="5.06708">
        <ele>48.399895</ele>
        <time>2020-07-25T14:38:44.023Z</time>
      </trkpt>
      <trkpt lat="60.85468" lon="5.06719">
        <ele>48.697095</ele>
        <time>2020-07-25T14:38:47.003Z</time>
      </trkpt>
      <trkpt lat="60.85459" lon="5.0673">
        <ele>49.003411</ele>
        <time>2020-07-25T14:38:49.998Z</time>
      </trkpt>
      <trkpt lat="60.85451" lon="5.06741">
        <ele>49.296396</ele>
        <time>2020-07-25T14:38:52.984Z</time>
      </trkpt>
      <trkpt lat="60.85443" lon="5.06755">
        <ele>49.603458</ele>
        <time>2020-07-25T14:38:56.045Z</time>
      </trkpt>
      <trkpt lat="60.85435" lon="5.06768">
        <ele>49.900832</ele>
        <time>2020-07-25T14:38:58.996Z</time>
      </trkpt>
      <trkpt lat="60.85428" lon="5.06781">
        <ele>50.181416</ele>
        <time>2020-07-25T14:39:01.996Z</time>
      </trkpt>
      <trkpt lat="60.85421" lon="5.06793">
        <ele>50.454415</ele>
        <time>2020-07-25T14:39:04.993Z</time>
      </trkpt>
      <trkpt lat="60.85415" lon="5.06806">
        <ele>50.727413</ele>
        <time>2020-07-25T14:39:08.008Z</time>
      </trkpt>
      <trkpt lat="60.85406" lon="5.06823">
        <ele>51.080955</ele>
        <time>2020-07-25T14:39:12.012Z</time>
      </trkpt>
      <trkpt lat="60.85397" lon="5.06838">
        <ele>51.422013</ele>
        <time>2020-07-25T14:39:16.015Z</time>
      </trkpt>
      <trkpt lat="60.8539" lon="5.06852">
        <ele>51.715551</ele>
        <time>2020-07-25T14:39:20.004Z</time>
      </trkpt>
      <trkpt lat="60.85384" lon="5.06866">
        <ele>51.998648</ele>
        <time>2020-07-25T14:39:23.998Z</time>
      </trkpt>
      <trkpt lat="60.85376" lon="5.06881">
        <ele>52.309866</ele>
        <time>2020-07-25T14:39:28.014Z</time>
      </trkpt>
      <trkpt lat="60.85369" lon="5.06898">
        <ele>52.75589</ele>
        <time>2020-07-25T14:39:32.044Z</time>
      </trkpt>
      <trkpt lat="60.85362" lon="5.06915">
        <ele>53.221787</ele>
        <time>2020-07-25T14:39:36.011Z</time>
      </trkpt>
      <trkpt lat="60.85354" lon="5.0693">
        <ele>53.671056</ele>
        <time>2020-07-25T14:39:40.024Z</time>
      </trkpt>
      <trkpt lat="60.85347" lon="5.06945">
        <ele>54.127677</ele>
        <time>2020-07-25T14:39:43.989Z</time>
      </trkpt>
      <trkpt lat="60.85341" lon="5.06961">
        <ele>54.546045</ele>
        <time>2020-07-25T14:39:48.009Z</time>
      </trkpt>
      <trkpt lat="60.85335" lon="5.06976">
        <ele>54.947687</ele>
        <time>2020-07-25T14:39:52.015Z</time>
      </trkpt>
      <trkpt lat="60.85328" lon="5.06992">
        <ele>55.382878</ele>
        <time>2020-07-25T14:39:56.001Z</time>
      </trkpt>
      <trkpt lat="60.85322" lon="5.07009">
        <ele>55.838432</ele>
        <time>2020-07-25T14:40:00.021Z</time>
      </trkpt>
      <trkpt lat="60.85315" lon="5.07026">
        <ele>56.272554</ele>
        <time>2020-07-25T14:40:04.022Z</time>
      </trkpt>
      <trkpt lat="60.85309" lon="5.07041">
        <ele>56.685567</ele>
        <time>2020-07-25T14:40:07.990Z</time>
      </trkpt>
      <trkpt lat="60.85303" lon="5.07057">
        <ele>57.110935</ele>
        <time>2020-07-25T14:40:12.011Z</time>
      </trkpt>
      <trkpt lat="60.85297" lon="5.07072">
        <ele>57.51528</ele>
        <time>2020-07-25T14:40:16.025Z</time>
      </trkpt>
      <trkpt lat="60.85292" lon="5.07087">
        <ele>57.902731</ele>
        <time>2020-07-25T14:40:19.976Z</time>
      </trkpt>
      <trkpt lat="60.85287" lon="5.07104">
        <ele>58.305782</ele>
        <time>2020-07-25T14:40:23.994Z</time>
      </trkpt>
      <trkpt lat="60.85282" lon="5.07119">
        <ele>58.689603</ele>
        <time>2020-07-25T14:40:28.031Z</time>
      </trkpt>
      <trkpt lat="60.85277" lon="5.07136">
        <ele>59.104398</ele>
        <time>2020-07-25T14:40:31.996Z</time>
      </trkpt>
      <trkpt lat="60.85271" lon="5.07152">
        <ele>59.519194</ele>
        <time>2020-07-25T14:40:36.004Z</time>
      </trkpt>
      <trkpt lat="60.85266" lon="5.07169">
        <ele>59.934421</ele>
        <time>2020-07-25T14:40:40.023Z</time>
      </trkpt>
      <trkpt lat="60.85259" lon="5.07187">
        <ele>60.500221</ele>
        <time>2020-07-25T14:40:44.991Z</time>
      </trkpt>
      <trkpt lat="60.85254" lon="5.07206">
        <ele>61.093584</ele>
        <time>2020-07-25T14:40:50.021Z</time>
      </trkpt>
      <trkpt lat="60.8525" lon="5.07222">
        <ele>61.587344</ele>
        <time>2020-07-25T14:40:54.034Z</time>
      </trkpt>
      <trkpt lat="60.85245" lon="5.07241">
        <ele>62.162439</ele>
        <time>2020-07-25T14:40:59.040Z</time>
      </trkpt>
      <trkpt lat="60.8524" lon="5.07258">
        <ele>62.692968</ele>
        <time>2020-07-25T14:41:03.996Z</time>
      </trkpt>
      <trkpt lat="60.85236" lon="5.07275">
        <ele>63.186278</ele>
        <time>2020-07-25T14:41:08.000Z</time>
      </trkpt>
      <trkpt lat="60.85232" lon="5.07292">
        <ele>63.700638</ele>
        <time>2020-07-25T14:41:12.037Z</time>
      </trkpt>
      <trkpt lat="60.85227" lon="5.07309">
        <ele>64.218459</ele>
        <time>2020-07-25T14:41:16.022Z</time>
      </trkpt>
      <trkpt lat="60.85223" lon="5.07326">
        <ele>64.728554</ele>
        <time>2020-07-25T14:41:19.988Z</time>
      </trkpt>
      <trkpt lat="60.85219" lon="5.07343">
        <ele>65.253253</ele>
        <time>2020-07-25T14:41:24.016Z</time>
      </trkpt>
      <trkpt lat="60.85214" lon="5.0736">
        <ele>65.768475</ele>
        <time>2020-07-25T14:41:28.006Z</time>
      </trkpt>
      <trkpt lat="60.85211" lon="5.07379">
        <ele>66.306622</ele>
        <time>2020-07-25T14:41:32.003Z</time>
      </trkpt>
      <trkpt lat="60.85206" lon="5.07399">
        <ele>66.896396</ele>
        <time>2020-07-25T14:41:36.992Z</time>
      </trkpt>
      <trkpt lat="60.85201" lon="5.07419">
        <ele>67.505146</ele>
        <time>2020-07-25T14:41:41.991Z</time>
      </trkpt>
      <trkpt lat="60.85198" lon="5.07437">
        <ele>68.023442</ele>
        <time>2020-07-25T14:41:45.987Z</time>
      </trkpt>
      <trkpt lat="60.85194" lon="5.07457">
        <ele>68.607032</ele>
        <time>2020-07-25T14:41:50.994Z</time>
      </trkpt>
      <trkpt lat="60.8519" lon="5.07474">
        <ele>69.105114</ele>
        <time>2020-07-25T14:41:54.995Z</time>
      </trkpt>
      <trkpt lat="60.85185" lon="5.07494">
        <ele>69.694643</ele>
        <time>2020-07-25T14:42:00.013Z</time>
      </trkpt>
      <trkpt lat="60.8518" lon="5.07514">
        <ele>70.058985</ele>
        <time>2020-07-25T14:42:05.003Z</time>
      </trkpt>
      <trkpt lat="60.85176" lon="5.0753">
        <ele>70.245973</ele>
        <time>2020-07-25T14:42:09.039Z</time>
      </trkpt>
      <trkpt lat="60.85171" lon="5.0755">
        <ele>70.465396</ele>
        <time>2020-07-25T14:42:14.007Z</time>
      </trkpt>
      <trkpt lat="60.85167" lon="5.07567">
        <ele>70.657864</ele>
        <time>2020-07-25T14:42:17.988Z</time>
      </trkpt>
      <trkpt lat="60.85162" lon="5.07583">
        <ele>70.851103</ele>
        <time>2020-07-25T14:42:21.997Z</time>
      </trkpt>
      <trkpt lat="60.85158" lon="5.07599">
        <ele>71.035123</ele>
        <time>2020-07-25T14:42:25.999Z</time>
      </trkpt>
      <trkpt lat="60.85152" lon="5.07616">
        <ele>71.242951</ele>
        <time>2020-07-25T14:42:30.011Z</time>
      </trkpt>
      <trkpt lat="60.85146" lon="5.07632">
        <ele>71.450489</ele>
        <time>2020-07-25T14:42:33.983Z</time>
      </trkpt>
      <trkpt lat="60.8514" lon="5.07647">
        <ele>71.644757</ele>
        <time>2020-07-25T14:42:37.996Z</time>
      </trkpt>
      <trkpt lat="60.85134" lon="5.07664">
        <ele>71.861356</ele>
        <time>2020-07-25T14:42:41.991Z</time>
      </trkpt>
      <trkpt lat="60.85127" lon="5.0768">
        <ele>72.073124</ele>
        <time>2020-07-25T14:42:45.998Z</time>
      </trkpt>
      <trkpt lat="60.85121" lon="5.07696">
        <ele>72.277533</ele>
        <time>2020-07-25T14:42:49.989Z</time>
      </trkpt>
      <trkpt lat="60.85114" lon="5.0771">
        <ele>72.468907</ele>
        <time>2020-07-25T14:42:53.999Z</time>
      </trkpt>
      <trkpt lat="60.85107" lon="5.07725">
        <ele>72.685519</ele>
        <time>2020-07-25T14:42:57.984Z</time>
      </trkpt>
      <trkpt lat="60.85099" lon="5.07742">
        <ele>72.923692</ele>
        <time>2020-07-25T14:43:02.009Z</time>
      </trkpt>
      <trkpt lat="60.85092" lon="5.07755">
        <ele>73.116323</ele>
        <time>2020-07-25T14:43:04.995Z</time>
      </trkpt>
      <trkpt lat="60.85085" lon="5.07768">
        <ele>73.309439</ele>
        <time>2020-07-25T14:43:08.043Z</time>
      </trkpt>
      <trkpt lat="60.85077" lon="5.07779">
        <ele>73.506977</ele>
        <time>2020-07-25T14:43:10.989Z</time>
      </trkpt>
      <trkpt lat="60.8507" lon="5.07792">
        <ele>73.582541</ele>
        <time>2020-07-25T14:43:14.006Z</time>
      </trkpt>
      <trkpt lat="60.85062" lon="5.07805">
        <ele>73.425489</ele>
        <time>2020-07-25T14:43:17.034Z</time>
      </trkpt>
      <trkpt lat="60.85053" lon="5.07819">
        <ele>73.252047</ele>
        <time>2020-07-25T14:43:20.008Z</time>
      </trkpt>
      <trkpt lat="60.85045" lon="5.07832">
        <ele>73.084883</ele>
        <time>2020-07-25T14:43:23.024Z</time>
      </trkpt>
      <trkpt lat="60.85036" lon="5.07846">
        <ele>72.912866</ele>
        <time>2020-07-25T14:43:25.996Z</time>
      </trkpt>
      <trkpt lat="60.85027" lon="5.0786">
        <ele>72.722868</ele>
        <time>2020-07-25T14:43:29.030Z</time>
      </trkpt>
      <trkpt lat="60.85019" lon="5.07871">
        <ele>72.578494</ele>
        <time>2020-07-25T14:43:30.990Z</time>
      </trkpt>
      <trkpt lat="60.85012" lon="5.07882">
        <ele>72.434119</ele>
        <time>2020-07-25T14:43:33.000Z</time>
      </trkpt>
      <trkpt lat="60.85005" lon="5.07894">
        <ele>72.287294</ele>
        <time>2020-07-25T14:43:34.987Z</time>
      </trkpt>
      <trkpt lat="60.84997" lon="5.07905">
        <ele>72.137972</ele>
        <time>2020-07-25T14:43:36.980Z</time>
      </trkpt>
      <trkpt lat="60.8499" lon="5.07918">
        <ele>71.985314</ele>
        <time>2020-07-25T14:43:39.033Z</time>
      </trkpt>
      <trkpt lat="60.84982" lon="5.07931">
        <ele>71.825318</ele>
        <time>2020-07-25T14:43:41.006Z</time>
      </trkpt>
      <trkpt lat="60.84974" lon="5.07945">
        <ele>71.667852</ele>
        <time>2020-07-25T14:43:42.989Z</time>
      </trkpt>
      <trkpt lat="60.84967" lon="5.07959">
        <ele>71.505459</ele>
        <time>2020-07-25T14:43:45.017Z</time>
      </trkpt>
      <trkpt lat="60.84959" lon="5.07973">
        <ele>71.347069</ele>
        <time>2020-07-25T14:43:46.997Z</time>
      </trkpt>
      <trkpt lat="60.84952" lon="5.07987">
        <ele>71.192131</ele>
        <time>2020-07-25T14:43:49.030Z</time>
      </trkpt>
      <trkpt lat="60.84946" lon="5.08002">
        <ele>71.036604</ele>
        <time>2020-07-25T14:43:50.987Z</time>
      </trkpt>
      <trkpt lat="60.8494" lon="5.08016">
        <ele>70.894104</ele>
        <time>2020-07-25T14:43:52.990Z</time>
      </trkpt>
      <trkpt lat="60.84931" lon="5.08036">
        <ele>70.952762</ele>
        <time>2020-07-25T14:43:55.998Z</time>
      </trkpt>
      <trkpt lat="60.84923" lon="5.08056">
        <ele>71.265146</ele>
        <time>2020-07-25T14:43:58.995Z</time>
      </trkpt>
      <trkpt lat="60.84916" lon="5.08076">
        <ele>71.579112</ele>
        <time>2020-07-25T14:44:01.990Z</time>
      </trkpt>
      <trkpt lat="60.84909" lon="5.08095">
        <ele>71.869516</ele>
        <time>2020-07-25T14:44:04.995Z</time>
      </trkpt>
      <trkpt lat="60.84903" lon="5.08113">
        <ele>72.132695</ele>
        <time>2020-07-25T14:44:07.992Z</time>
      </trkpt>
      <trkpt lat="60.84898" lon="5.0813">
        <ele>72.387839</ele>
        <time>2020-07-25T14:44:10.979Z</time>
      </trkpt>
      <trkpt lat="60.84891" lon="5.08148">
        <ele>72.655013</ele>
        <time>2020-07-25T14:44:14.039Z</time>
      </trkpt>
      <trkpt lat="60.84885" lon="5.08165">
        <ele>72.9103</ele>
        <time>2020-07-25T14:44:16.998Z</time>
      </trkpt>
      <trkpt lat="60.8488" lon="5.08182">
        <ele>73.158259</ele>
        <time>2020-07-25T14:44:19.997Z</time>
      </trkpt>
      <trkpt lat="60.84875" lon="5.08199">
        <ele>73.400694</ele>
        <time>2020-07-25T14:44:22.998Z</time>
      </trkpt>
      <trkpt lat="60.8487" lon="5.08215">
        <ele>73.629837</ele>
        <time>2020-07-25T14:44:25.985Z</time>
      </trkpt>
      <trkpt lat="60.84865" lon="5.08236">
        <ele>73.924786</ele>
        <time>2020-07-25T14:44:29.997Z</time>
      </trkpt>
      <trkpt lat="60.8486" lon="5.08258">
        <ele>74.219481</ele>
        <time>2020-07-25T14:44:33.990Z</time>
      </trkpt>
      <trkpt lat="60.84856" lon="5.08279">
        <ele>74.492457</ele>
        <time>2020-07-25T14:44:38.014Z</time>
      </trkpt>
      <trkpt lat="60.84852" lon="5.08299">
        <ele>74.76186</ele>
        <time>2020-07-25T14:44:41.976Z</time>
      </trkpt>
      <trkpt lat="60.84848" lon="5.08319">
        <ele>75.026117</ele>
        <time>2020-07-25T14:44:46.004Z</time>
      </trkpt>
      <trkpt lat="60.84845" lon="5.08339">
        <ele>75.280888</ele>
        <time>2020-07-25T14:44:49.998Z</time>
      </trkpt>
      <trkpt lat="60.84841" lon="5.08358">
        <ele>75.961932</ele>
        <time>2020-07-25T14:44:54.022Z</time>
      </trkpt>
      <trkpt lat="60.84837" lon="5.0838">
        <ele>76.788158</ele>
        <time>2020-07-25T14:44:58.046Z</time>
      </trkpt>
      <trkpt lat="60.84834" lon="5.08399">
        <ele>77.522274</ele>
        <time>2020-07-25T14:45:01.983Z</time>
      </trkpt>
      <trkpt lat="60.84831" lon="5.08419">
        <ele>78.290719</ele>
        <time>2020-07-25T14:45:07.048Z</time>
      </trkpt>
      <trkpt lat="60.84827" lon="5.08436">
        <ele>78.956927</ele>
        <time>2020-07-25T14:45:10.997Z</time>
      </trkpt>
      <trkpt lat="60.84823" lon="5.08457">
        <ele>79.752314</ele>
        <time>2020-07-25T14:45:15.986Z</time>
      </trkpt>
      <trkpt lat="60.84821" lon="5.08475">
        <ele>80.428774</ele>
        <time>2020-07-25T14:45:21.009Z</time>
      </trkpt>
      <trkpt lat="60.84818" lon="5.08493">
        <ele>81.105234</ele>
        <time>2020-07-25T14:45:26.035Z</time>
      </trkpt>
      <trkpt lat="60.84815" lon="5.08511">
        <ele>81.772293</ele>
        <time>2020-07-25T14:45:30.987Z</time>
      </trkpt>
      <trkpt lat="60.84811" lon="5.0853">
        <ele>82.52746</ele>
        <time>2020-07-25T14:45:37.020Z</time>
      </trkpt>
      <trkpt lat="60.84807" lon="5.08549">
        <ele>83.258518</ele>
        <time>2020-07-25T14:45:43.015Z</time>
      </trkpt>
      <trkpt lat="60.84803" lon="5.08567">
        <ele>84.025173</ele>
        <time>2020-07-25T14:45:48.994Z</time>
      </trkpt>
      <trkpt lat="60.84798" lon="5.08585">
        <ele>84.733138</ele>
        <time>2020-07-25T14:45:55.002Z</time>
      </trkpt>
      <trkpt lat="60.84793" lon="5.08604">
        <ele>85.515499</ele>
        <time>2020-07-25T14:46:00.988Z</time>
      </trkpt>
      <trkpt lat="60.84789" lon="5.08622">
        <ele>86.25591</ele>
        <time>2020-07-25T14:46:07.017Z</time>
      </trkpt>
      <trkpt lat="60.84783" lon="5.08637">
        <ele>86.941702</ele>
        <time>2020-07-25T14:46:12.002Z</time>
      </trkpt>
      <trkpt lat="60.84778" lon="5.08654">
        <ele>87.650812</ele>
        <time>2020-07-25T14:46:17.010Z</time>
      </trkpt>
      <trkpt lat="60.84774" lon="5.08672">
        <ele>88.345832</ele>
        <time>2020-07-25T14:46:21.986Z</time>
      </trkpt>
      <trkpt lat="60.84768" lon="5.08689">
        <ele>88.710169</ele>
        <time>2020-07-25T14:46:28.001Z</time>
      </trkpt>
      <trkpt lat="60.84762" lon="5.08705">
        <ele>88.870601</ele>
        <time>2020-07-25T14:46:33.003Z</time>
      </trkpt>
      <trkpt lat="60.84756" lon="5.0872">
        <ele>89.04301</ele>
        <time>2020-07-25T14:46:38.024Z</time>
      </trkpt>
      <trkpt lat="60.84749" lon="5.08735">
        <ele>89.2196</ele>
        <time>2020-07-25T14:46:43.021Z</time>
      </trkpt>
      <trkpt lat="60.84741" lon="5.08751">
        <ele>89.405285</ele>
        <time>2020-07-25T14:46:48.017Z</time>
      </trkpt>
      <trkpt lat="60.84735" lon="5.08765">
        <ele>89.572773</ele>
        <time>2020-07-25T14:46:51.993Z</time>
      </trkpt>
      <trkpt lat="60.84728" lon="5.08779">
        <ele>89.740961</ele>
        <time>2020-07-25T14:46:56.010Z</time>
      </trkpt>
      <trkpt lat="60.84722" lon="5.08798">
        <ele>89.931623</ele>
        <time>2020-07-25T14:47:01.043Z</time>
      </trkpt>
      <trkpt lat="60.84716" lon="5.08815">
        <ele>90.112581</ele>
        <time>2020-07-25T14:47:06.034Z</time>
      </trkpt>
      <trkpt lat="60.8471" lon="5.08831">
        <ele>90.281239</ele>
        <time>2020-07-25T14:47:11.006Z</time>
      </trkpt>
      <trkpt lat="60.84704" lon="5.08846">
        <ele>90.445967</ele>
        <time>2020-07-25T14:47:15.054Z</time>
      </trkpt>
      <trkpt lat="60.84698" lon="5.08862">
        <ele>90.614928</ele>
        <time>2020-07-25T14:47:19.038Z</time>
      </trkpt>
      <trkpt lat="60.84692" lon="5.08877">
        <ele>90.778416</ele>
        <time>2020-07-25T14:47:22.989Z</time>
      </trkpt>
      <trkpt lat="60.84687" lon="5.08897">
        <ele>90.964267</ele>
        <time>2020-07-25T14:47:27.985Z</time>
      </trkpt>
      <trkpt lat="60.84686" lon="5.08919">
        <ele>91.159947</ele>
        <time>2020-07-25T14:47:33.000Z</time>
      </trkpt>
      <trkpt lat="60.84684" lon="5.0894">
        <ele>91.33779</ele>
        <time>2020-07-25T14:47:37.997Z</time>
      </trkpt>
      <trkpt lat="60.84683" lon="5.08961">
        <ele>91.514315</ele>
        <time>2020-07-25T14:47:43.036Z</time>
      </trkpt>
      <trkpt lat="60.84683" lon="5.08982">
        <ele>91.69392</ele>
        <time>2020-07-25T14:47:48.003Z</time>
      </trkpt>
      <trkpt lat="60.84683" lon="5.09001">
        <ele>91.629101</ele>
        <time>2020-07-25T14:47:53.996Z</time>
      </trkpt>
      <trkpt lat="60.84688" lon="5.09033">
        <ele>91.461789</ele>
        <time>2020-07-25T14:49:48.996Z</time>
      </trkpt>
      <trkpt lat="60.84692" lon="5.09051">
        <ele>91.36221</ele>
        <time>2020-07-25T14:49:52.999Z</time>
      </trkpt>
      <trkpt lat="60.84697" lon="5.09073">
        <ele>91.243469</ele>
        <time>2020-07-25T14:49:57.034Z</time>
      </trkpt>
      <trkpt lat="60.84703" lon="5.0909">
        <ele>91.135829</ele>
        <time>2020-07-25T14:50:00.998Z</time>
      </trkpt>
      <trkpt lat="60.84711" lon="5.0911">
        <ele>91.012873</ele>
        <time>2020-07-25T14:50:05.007Z</time>
      </trkpt>
      <trkpt lat="60.84719" lon="5.09123">
        <ele>90.907016</ele>
        <time>2020-07-25T14:50:08.017Z</time>
      </trkpt>
      <trkpt lat="60.84729" lon="5.09137">
        <ele>90.779887</ele>
        <time>2020-07-25T14:50:11.023Z</time>
      </trkpt>
      <trkpt lat="60.84741" lon="5.09148">
        <ele>90.649739</ele>
        <time>2020-07-25T14:50:13.984Z</time>
      </trkpt>
      <trkpt lat="60.84753" lon="5.09159">
        <ele>90.515075</ele>
        <time>2020-07-25T14:50:17.003Z</time>
      </trkpt>
      <trkpt lat="60.84761" lon="5.09166">
        <ele>90.420233</ele>
        <time>2020-07-25T14:50:18.986Z</time>
      </trkpt>
      <trkpt lat="60.8477" lon="5.09175">
        <ele>90.322991</ele>
        <time>2020-07-25T14:50:21.018Z</time>
      </trkpt>
      <trkpt lat="60.84778" lon="5.09184">
        <ele>90.230507</ele>
        <time>2020-07-25T14:50:22.995Z</time>
      </trkpt>
      <trkpt lat="60.84789" lon="5.09197">
        <ele>90.097892</ele>
        <time>2020-07-25T14:50:26.006Z</time>
      </trkpt>
      <trkpt lat="60.84799" lon="5.09211">
        <ele>89.978711</ele>
        <time>2020-07-25T14:50:29.023Z</time>
      </trkpt>
      <trkpt lat="60.84807" lon="5.09227">
        <ele>89.913966</ele>
        <time>2020-07-25T14:50:32.014Z</time>
      </trkpt>
      <trkpt lat="60.84814" lon="5.0924">
        <ele>90.285525</ele>
        <time>2020-07-25T14:50:35.003Z</time>
      </trkpt>
      <trkpt lat="60.84821" lon="5.09253">
        <ele>90.610543</ele>
        <time>2020-07-25T14:50:37.994Z</time>
      </trkpt>
      <trkpt lat="60.84829" lon="5.0927">
        <ele>91.02779</ele>
        <time>2020-07-25T14:50:42.011Z</time>
      </trkpt>
      <trkpt lat="60.84837" lon="5.09283">
        <ele>91.415074</ele>
        <time>2020-07-25T14:50:46.026Z</time>
      </trkpt>
      <trkpt lat="60.84844" lon="5.09296">
        <ele>91.751269</ele>
        <time>2020-07-25T14:50:50.014Z</time>
      </trkpt>
      <trkpt lat="60.84852" lon="5.09309">
        <ele>92.096873</ele>
        <time>2020-07-25T14:50:54.007Z</time>
      </trkpt>
      <trkpt lat="60.84861" lon="5.09322">
        <ele>92.502597</ele>
        <time>2020-07-25T14:50:57.998Z</time>
      </trkpt>
      <trkpt lat="60.84869" lon="5.09335">
        <ele>92.887003</ele>
        <time>2020-07-25T14:51:02.009Z</time>
      </trkpt>
      <trkpt lat="60.84878" lon="5.09346">
        <ele>93.26345</ele>
        <time>2020-07-25T14:51:06.004Z</time>
      </trkpt>
      <trkpt lat="60.84886" lon="5.09356">
        <ele>93.596687</ele>
        <time>2020-07-25T14:51:08.976Z</time>
      </trkpt>
      <trkpt lat="60.84895" lon="5.09365">
        <ele>93.956199</ele>
        <time>2020-07-25T14:51:12.023Z</time>
      </trkpt>
      <trkpt lat="60.84904" lon="5.09374">
        <ele>94.34489</ele>
        <time>2020-07-25T14:51:15.015Z</time>
      </trkpt>
      <trkpt lat="60.84914" lon="5.09382">
        <ele>94.733801</ele>
        <time>2020-07-25T14:51:18.014Z</time>
      </trkpt>
      <trkpt lat="60.84924" lon="5.09389">
        <ele>95.085329</ele>
        <time>2020-07-25T14:51:21.017Z</time>
      </trkpt>
      <trkpt lat="60.84933" lon="5.09395">
        <ele>95.455405</ele>
        <time>2020-07-25T14:51:23.987Z</time>
      </trkpt>
      <trkpt lat="60.84944" lon="5.09401">
        <ele>95.850356</ele>
        <time>2020-07-25T14:51:27.023Z</time>
      </trkpt>
      <trkpt lat="60.84954" lon="5.09407">
        <ele>96.223423</ele>
        <time>2020-07-25T14:51:29.016Z</time>
      </trkpt>
      <trkpt lat="60.84965" lon="5.0941">
        <ele>96.434234</ele>
        <time>2020-07-25T14:51:31.012Z</time>
      </trkpt>
      <trkpt lat="60.84976" lon="5.09413">
        <ele>96.498237</ele>
        <time>2020-07-25T14:51:32.990Z</time>
      </trkpt>
      <trkpt lat="60.84987" lon="5.09415">
        <ele>96.562303</ele>
        <time>2020-07-25T14:51:35.013Z</time>
      </trkpt>
      <trkpt lat="60.84997" lon="5.09417">
        <ele>96.622589</ele>
        <time>2020-07-25T14:51:37.007Z</time>
      </trkpt>
      <trkpt lat="60.85008" lon="5.09418">
        <ele>96.687575</ele>
        <time>2020-07-25T14:51:38.991Z</time>
      </trkpt>
      <trkpt lat="60.85019" lon="5.0942">
        <ele>96.752048</ele>
        <time>2020-07-25T14:51:41.023Z</time>
      </trkpt>
      <trkpt lat="60.85031" lon="5.09422">
        <ele>96.823928</ele>
        <time>2020-07-25T14:51:42.987Z</time>
      </trkpt>
      <trkpt lat="60.85044" lon="5.09424">
        <ele>96.896211</ele>
        <time>2020-07-25T14:51:45.000Z</time>
      </trkpt>
      <trkpt lat="60.85057" lon="5.09432">
        <ele>96.979065</ele>
        <time>2020-07-25T14:51:47.005Z</time>
      </trkpt>
      <trkpt lat="60.85072" lon="5.09441">
        <ele>97.067588</ele>
        <time>2020-07-25T14:51:49.014Z</time>
      </trkpt>
      <trkpt lat="60.85085" lon="5.09453">
        <ele>97.153055</ele>
        <time>2020-07-25T14:51:50.998Z</time>
      </trkpt>
      <trkpt lat="60.85097" lon="5.09469">
        <ele>97.236625</ele>
        <time>2020-07-25T14:51:53.026Z</time>
      </trkpt>
      <trkpt lat="60.85108" lon="5.09489">
        <ele>97.320782</ele>
        <time>2020-07-25T14:51:54.995Z</time>
      </trkpt>
      <trkpt lat="60.85117" lon="5.0951">
        <ele>97.400326</ele>
        <time>2020-07-25T14:51:57.002Z</time>
      </trkpt>
      <trkpt lat="60.85124" lon="5.09532">
        <ele>97.325981</ele>
        <time>2020-07-25T14:51:58.992Z</time>
      </trkpt>
      <trkpt lat="60.85129" lon="5.09556">
        <ele>97.016702</ele>
        <time>2020-07-25T14:52:01.030Z</time>
      </trkpt>
      <trkpt lat="60.85132" lon="5.09581">
        <ele>96.721426</ele>
        <time>2020-07-25T14:52:03.004Z</time>
      </trkpt>
      <trkpt lat="60.85133" lon="5.09605">
        <ele>96.44016</ele>
        <time>2020-07-25T14:52:04.999Z</time>
      </trkpt>
      <trkpt lat="60.85133" lon="5.09628">
        <ele>96.164383</ele>
        <time>2020-07-25T14:52:06.992Z</time>
      </trkpt>
      <trkpt lat="60.85132" lon="5.09651">
        <ele>95.892475</ele>
        <time>2020-07-25T14:52:08.999Z</time>
      </trkpt>
      <trkpt lat="60.8513" lon="5.09673">
        <ele>95.639125</ele>
        <time>2020-07-25T14:52:10.992Z</time>
      </trkpt>
      <trkpt lat="60.85129" lon="5.09693">
        <ele>95.395426</ele>
        <time>2020-07-25T14:52:13.018Z</time>
      </trkpt>
      <trkpt lat="60.85126" lon="5.09714">
        <ele>95.143352</ele>
        <time>2020-07-25T14:52:14.985Z</time>
      </trkpt>
      <trkpt lat="60.85123" lon="5.09736">
        <ele>94.878678</ele>
        <time>2020-07-25T14:52:16.987Z</time>
      </trkpt>
      <trkpt lat="60.8512" lon="5.09756">
        <ele>94.624574</ele>
        <time>2020-07-25T14:52:18.997Z</time>
      </trkpt>
      <trkpt lat="60.85116" lon="5.09776">
        <ele>94.374582</ele>
        <time>2020-07-25T14:52:20.984Z</time>
      </trkpt>
      <trkpt lat="60.85113" lon="5.09796">
        <ele>94.133471</ele>
        <time>2020-07-25T14:52:22.996Z</time>
      </trkpt>
      <trkpt lat="60.85109" lon="5.09815">
        <ele>93.887581</ele>
        <time>2020-07-25T14:52:24.989Z</time>
      </trkpt>
      <trkpt lat="60.85105" lon="5.09834">
        <ele>93.645889</ele>
        <time>2020-07-25T14:52:26.994Z</time>
      </trkpt>
      <trkpt lat="60.85101" lon="5.09852">
        <ele>93.41276</ele>
        <time>2020-07-25T14:52:28.982Z</time>
      </trkpt>
      <trkpt lat="60.85096" lon="5.09868">
        <ele>93.19027</ele>
        <time>2020-07-25T14:52:31.020Z</time>
      </trkpt>
      <trkpt lat="60.85089" lon="5.09891">
        <ele>93.260604</ele>
        <time>2020-07-25T14:52:33.993Z</time>
      </trkpt>
      <trkpt lat="60.85083" lon="5.09912">
        <ele>93.440997</ele>
        <time>2020-07-25T14:52:37.019Z</time>
      </trkpt>
      <trkpt lat="60.85076" lon="5.09932">
        <ele>93.613047</ele>
        <time>2020-07-25T14:52:39.992Z</time>
      </trkpt>
      <trkpt lat="60.85071" lon="5.09951">
        <ele>93.772977</ele>
        <time>2020-07-25T14:52:43.018Z</time>
      </trkpt>
      <trkpt lat="60.85067" lon="5.09971">
        <ele>93.932862</ele>
        <time>2020-07-25T14:52:45.988Z</time>
      </trkpt>
      <trkpt lat="60.85063" lon="5.09991">
        <ele>94.085006</ele>
        <time>2020-07-25T14:52:49.029Z</time>
      </trkpt>
      <trkpt lat="60.85058" lon="5.10009">
        <ele>94.239751</ele>
        <time>2020-07-25T14:52:51.995Z</time>
      </trkpt>
      <trkpt lat="60.85053" lon="5.10029">
        <ele>94.399612</ele>
        <time>2020-07-25T14:52:55.003Z</time>
      </trkpt>
      <trkpt lat="60.85049" lon="5.10049">
        <ele>94.555959</ele>
        <time>2020-07-25T14:52:58.016Z</time>
      </trkpt>
      <trkpt lat="60.85046" lon="5.10069">
        <ele>94.706206</ele>
        <time>2020-07-25T14:53:00.998Z</time>
      </trkpt>
      <trkpt lat="60.85043" lon="5.1009">
        <ele>94.864763</ele>
        <time>2020-07-25T14:53:04.038Z</time>
      </trkpt>
      <trkpt lat="60.8504" lon="5.10108">
        <ele>95.00701</ele>
        <time>2020-07-25T14:53:06.977Z</time>
      </trkpt>
      <trkpt lat="60.85038" lon="5.1013">
        <ele>95.169213</ele>
        <time>2020-07-25T14:53:10.016Z</time>
      </trkpt>
      <trkpt lat="60.85036" lon="5.10153">
        <ele>95.339709</ele>
        <time>2020-07-25T14:53:12.976Z</time>
      </trkpt>
      <trkpt lat="60.85034" lon="5.10181">
        <ele>95.540066</ele>
        <time>2020-07-25T14:53:15.987Z</time>
      </trkpt>
      <trkpt lat="60.85033" lon="5.102">
        <ele>95.68334</ele>
        <time>2020-07-25T14:53:18.018Z</time>
      </trkpt>
      <trkpt lat="60.85031" lon="5.10221">
        <ele>95.822965</ele>
        <time>2020-07-25T14:53:20.003Z</time>
      </trkpt>
      <trkpt lat="60.8503" lon="5.10241">
        <ele>95.929565</ele>
        <time>2020-07-25T14:53:22.029Z</time>
      </trkpt>
      <trkpt lat="60.85028" lon="5.10262">
        <ele>96.041496</ele>
        <time>2020-07-25T14:53:23.993Z</time>
      </trkpt>
      <trkpt lat="60.85025" lon="5.10283">
        <ele>96.154457</ele>
        <time>2020-07-25T14:53:26.000Z</time>
      </trkpt>
      <trkpt lat="60.85022" lon="5.10304">
        <ele>96.267218</ele>
        <time>2020-07-25T14:53:28.001Z</time>
      </trkpt>
      <trkpt lat="60.85019" lon="5.10324">
        <ele>96.379121</ele>
        <time>2020-07-25T14:53:29.987Z</time>
      </trkpt>
      <trkpt lat="60.85015" lon="5.10343">
        <ele>96.488786</ele>
        <time>2020-07-25T14:53:32.004Z</time>
      </trkpt>
      <trkpt lat="60.85011" lon="5.10363">
        <ele>96.602506</ele>
        <time>2020-07-25T14:53:34.003Z</time>
      </trkpt>
      <trkpt lat="60.85006" lon="5.10382">
        <ele>96.714789</ele>
        <time>2020-07-25T14:53:36.000Z</time>
      </trkpt>
      <trkpt lat="60.85" lon="5.10401">
        <ele>96.829461</ele>
        <time>2020-07-25T14:53:38.010Z</time>
      </trkpt>
      <trkpt lat="60.84994" lon="5.1042">
        <ele>96.947932</ele>
        <time>2020-07-25T14:53:39.983Z</time>
      </trkpt>
      <trkpt lat="60.84988" lon="5.10438">
        <ele>97.064069</ele>
        <time>2020-07-25T14:53:42.002Z</time>
      </trkpt>
      <trkpt lat="60.84982" lon="5.10456">
        <ele>97.178306</ele>
        <time>2020-07-25T14:53:43.999Z</time>
      </trkpt>
      <trkpt lat="60.84976" lon="5.10474">
        <ele>97.290131</ele>
        <time>2020-07-25T14:53:46.037Z</time>
      </trkpt>
      <trkpt lat="60.8497" lon="5.1049">
        <ele>97.394359</ele>
        <time>2020-07-25T14:53:48.003Z</time>
      </trkpt>
      <trkpt lat="60.84965" lon="5.10508">
        <ele>97.502816</ele>
        <time>2020-07-25T14:53:49.983Z</time>
      </trkpt>
      <trkpt lat="60.8496" lon="5.10527">
        <ele>97.616051</ele>
        <time>2020-07-25T14:53:51.998Z</time>
      </trkpt>
      <trkpt lat="60.84955" lon="5.1055">
        <ele>97.658848</ele>
        <time>2020-07-25T14:53:54.009Z</time>
      </trkpt>
      <trkpt lat="60.8495" lon="5.10573">
        <ele>97.29193</ele>
        <time>2020-07-25T14:53:55.996Z</time>
      </trkpt>
      <trkpt lat="60.84946" lon="5.10597">
        <ele>96.940638</ele>
        <time>2020-07-25T14:53:58.013Z</time>
      </trkpt>
      <trkpt lat="60.84942" lon="5.1062">
        <ele>96.591467</ele>
        <time>2020-07-25T14:53:59.994Z</time>
      </trkpt>
      <trkpt lat="60.8494" lon="5.10645">
        <ele>96.237682</ele>
        <time>2020-07-25T14:54:02.009Z</time>
      </trkpt>
      <trkpt lat="60.84939" lon="5.10673">
        <ele>95.844286</ele>
        <time>2020-07-25T14:54:04.008Z</time>
      </trkpt>
      <trkpt lat="60.84938" lon="5.10701">
        <ele>95.441469</ele>
        <time>2020-07-25T14:54:05.997Z</time>
      </trkpt>
      <trkpt lat="60.84938" lon="5.1073">
        <ele>95.023543</ele>
        <time>2020-07-25T14:54:08.006Z</time>
      </trkpt>
      <trkpt lat="60.8494" lon="5.1076">
        <ele>94.601668</ele>
        <time>2020-07-25T14:54:10.023Z</time>
      </trkpt>
      <trkpt lat="60.84943" lon="5.10791">
        <ele>94.15673</ele>
        <time>2020-07-25T14:54:12.005Z</time>
      </trkpt>
      <trkpt lat="60.84947" lon="5.10822">
        <ele>93.698513</ele>
        <time>2020-07-25T14:54:13.993Z</time>
      </trkpt>
      <trkpt lat="60.84954" lon="5.10852">
        <ele>93.23688</ele>
        <time>2020-07-25T14:54:15.992Z</time>
      </trkpt>
      <trkpt lat="60.84962" lon="5.10883">
        <ele>92.74243</ele>
        <time>2020-07-25T14:54:17.993Z</time>
      </trkpt>
      <trkpt lat="60.84971" lon="5.10913">
        <ele>92.035627</ele>
        <time>2020-07-25T14:54:20.040Z</time>
      </trkpt>
      <trkpt lat="60.84977" lon="5.10929">
        <ele>91.563197</ele>
        <time>2020-07-25T14:54:20.996Z</time>
      </trkpt>
      <trkpt lat="60.84983" lon="5.10945">
        <ele>91.07365</ele>
        <time>2020-07-25T14:54:22.003Z</time>
      </trkpt>
      <trkpt lat="60.84989" lon="5.1096">
        <ele>90.580761</ele>
        <time>2020-07-25T14:54:22.994Z</time>
      </trkpt>
      <trkpt lat="60.84996" lon="5.10975">
        <ele>90.065896</ele>
        <time>2020-07-25T14:54:23.996Z</time>
      </trkpt>
      <trkpt lat="60.85004" lon="5.1099">
        <ele>89.525952</ele>
        <time>2020-07-25T14:54:25.011Z</time>
      </trkpt>
      <trkpt lat="60.85012" lon="5.11005">
        <ele>88.976066</ele>
        <time>2020-07-25T14:54:26.022Z</time>
      </trkpt>
      <trkpt lat="60.8502" lon="5.11019">
        <ele>88.428773</ele>
        <time>2020-07-25T14:54:27.023Z</time>
      </trkpt>
      <trkpt lat="60.85028" lon="5.11034">
        <ele>87.889134</ele>
        <time>2020-07-25T14:54:27.995Z</time>
      </trkpt>
      <trkpt lat="60.85036" lon="5.11047">
        <ele>87.362881</ele>
        <time>2020-07-25T14:54:28.982Z</time>
      </trkpt>
      <trkpt lat="60.85044" lon="5.1106">
        <ele>86.87011</ele>
        <time>2020-07-25T14:54:29.986Z</time>
      </trkpt>
      <trkpt lat="60.85058" lon="5.11083">
        <ele>85.969708</ele>
        <time>2020-07-25T14:54:31.995Z</time>
      </trkpt>
      <trkpt lat="60.85066" lon="5.11093">
        <ele>85.512443</ele>
        <time>2020-07-25T14:54:32.993Z</time>
      </trkpt>
      <trkpt lat="60.85074" lon="5.11105">
        <ele>85.014894</ele>
        <time>2020-07-25T14:54:33.977Z</time>
      </trkpt>
      <trkpt lat="60.85082" lon="5.11118">
        <ele>84.481075</ele>
        <time>2020-07-25T14:54:34.985Z</time>
      </trkpt>
      <trkpt lat="60.85091" lon="5.1113">
        <ele>83.947495</ele>
        <time>2020-07-25T14:54:36.040Z</time>
      </trkpt>
      <trkpt lat="60.851" lon="5.11142">
        <ele>83.391679</ele>
        <time>2020-07-25T14:54:37.017Z</time>
      </trkpt>
      <trkpt lat="60.85109" lon="5.11155">
        <ele>82.74912</ele>
        <time>2020-07-25T14:54:38.025Z</time>
      </trkpt>
      <trkpt lat="60.85119" lon="5.11167">
        <ele>82.087368</ele>
        <time>2020-07-25T14:54:39.001Z</time>
      </trkpt>
      <trkpt lat="60.85129" lon="5.1118">
        <ele>81.395118</ele>
        <time>2020-07-25T14:54:40.015Z</time>
      </trkpt>
      <trkpt lat="60.8514" lon="5.11194">
        <ele>80.673238</ele>
        <time>2020-07-25T14:54:40.999Z</time>
      </trkpt>
      <trkpt lat="60.85151" lon="5.11207">
        <ele>79.9221</ele>
        <time>2020-07-25T14:54:41.999Z</time>
      </trkpt>
      <trkpt lat="60.85163" lon="5.1122">
        <ele>79.154965</ele>
        <time>2020-07-25T14:54:42.983Z</time>
      </trkpt>
      <trkpt lat="60.85174" lon="5.11233">
        <ele>78.390535</ele>
        <time>2020-07-25T14:54:44.027Z</time>
      </trkpt>
      <trkpt lat="60.85186" lon="5.11245">
        <ele>77.632693</ele>
        <time>2020-07-25T14:54:44.999Z</time>
      </trkpt>
      <trkpt lat="60.85198" lon="5.11256">
        <ele>76.875322</ele>
        <time>2020-07-25T14:54:45.990Z</time>
      </trkpt>
      <trkpt lat="60.8521" lon="5.11266">
        <ele>76.118253</ele>
        <time>2020-07-25T14:54:46.994Z</time>
      </trkpt>
      <trkpt lat="60.85222" lon="5.11274">
        <ele>75.375282</ele>
        <time>2020-07-25T14:54:47.990Z</time>
      </trkpt>
      <trkpt lat="60.85234" lon="5.11281">
        <ele>74.652424</ele>
        <time>2020-07-25T14:54:48.992Z</time>
      </trkpt>
      <trkpt lat="60.85246" lon="5.11286">
        <ele>73.945626</ele>
        <time>2020-07-25T14:54:49.993Z</time>
      </trkpt>
      <trkpt lat="60.85258" lon="5.1129">
        <ele>73.275478</ele>
        <time>2020-07-25T14:54:51.005Z</time>
      </trkpt>
      <trkpt lat="60.85268" lon="5.11293">
        <ele>72.586794</ele>
        <time>2020-07-25T14:54:52.008Z</time>
      </trkpt>
      <trkpt lat="60.85279" lon="5.11295">
        <ele>71.872048</ele>
        <time>2020-07-25T14:54:52.994Z</time>
      </trkpt>
      <trkpt lat="60.8529" lon="5.11296">
        <ele>71.164348</ele>
        <time>2020-07-25T14:54:54.004Z</time>
      </trkpt>
      <trkpt lat="60.853" lon="5.11298">
        <ele>70.48999</ele>
        <time>2020-07-25T14:54:54.999Z</time>
      </trkpt>
      <trkpt lat="60.8531" lon="5.11298">
        <ele>69.836217</ele>
        <time>2020-07-25T14:54:56.018Z</time>
      </trkpt>
      <trkpt lat="60.8532" lon="5.11299">
        <ele>69.196075</ele>
        <time>2020-07-25T14:54:56.993Z</time>
      </trkpt>
      <trkpt lat="60.85329" lon="5.11299">
        <ele>68.569072</ele>
        <time>2020-07-25T14:54:57.999Z</time>
      </trkpt>
      <trkpt lat="60.85338" lon="5.113">
        <ele>67.961859</ele>
        <time>2020-07-25T14:54:58.996Z</time>
      </trkpt>
      <trkpt lat="60.85355" lon="5.11302">
        <ele>66.850378</ele>
        <time>2020-07-25T14:55:01.002Z</time>
      </trkpt>
      <trkpt lat="60.8537" lon="5.11304">
        <ele>65.865997</ele>
        <time>2020-07-25T14:55:03.012Z</time>
      </trkpt>
      <trkpt lat="60.85384" lon="5.1131">
        <ele>64.953862</ele>
        <time>2020-07-25T14:55:05.011Z</time>
      </trkpt>
      <trkpt lat="60.85395" lon="5.11325">
        <ele>64.065954</ele>
        <time>2020-07-25T14:55:06.986Z</time>
      </trkpt>
      <trkpt lat="60.85402" lon="5.11345">
        <ele>63.254909</ele>
        <time>2020-07-25T14:55:08.984Z</time>
      </trkpt>
      <trkpt lat="60.85402" lon="5.11367">
        <ele>62.544662</ele>
        <time>2020-07-25T14:55:10.997Z</time>
      </trkpt>
      <trkpt lat="60.85395" lon="5.11387">
        <ele>61.772635</ele>
        <time>2020-07-25T14:55:12.996Z</time>
      </trkpt>
      <trkpt lat="60.85385" lon="5.11399">
        <ele>61.108179</ele>
        <time>2020-07-25T14:55:14.988Z</time>
      </trkpt>
      <trkpt lat="60.85376" lon="5.11411">
        <ele>60.899862</ele>
        <time>2020-07-25T14:55:17.034Z</time>
      </trkpt>
      <trkpt lat="60.85367" lon="5.11424">
        <ele>60.697941</ele>
        <time>2020-07-25T14:55:19.003Z</time>
      </trkpt>
      <trkpt lat="60.85358" lon="5.11437">
        <ele>60.495582</ele>
        <time>2020-07-25T14:55:20.991Z</time>
      </trkpt>
      <trkpt lat="60.85349" lon="5.11449">
        <ele>60.288853</ele>
        <time>2020-07-25T14:55:23.008Z</time>
      </trkpt>
      <trkpt lat="60.85339" lon="5.11461">
        <ele>60.085286</ele>
        <time>2020-07-25T14:55:24.992Z</time>
      </trkpt>
      <trkpt lat="60.85331" lon="5.11473">
        <ele>59.890079</ele>
        <time>2020-07-25T14:55:26.997Z</time>
      </trkpt>
      <trkpt lat="60.85322" lon="5.11485">
        <ele>59.699461</ele>
        <time>2020-07-25T14:55:28.991Z</time>
      </trkpt>
      <trkpt lat="60.85314" lon="5.11496">
        <ele>59.52316</ele>
        <time>2020-07-25T14:55:30.994Z</time>
      </trkpt>
      <trkpt lat="60.85307" lon="5.11506">
        <ele>59.354016</ele>
        <time>2020-07-25T14:55:32.998Z</time>
      </trkpt>
      <trkpt lat="60.85299" lon="5.11517">
        <ele>59.185892</ele>
        <time>2020-07-25T14:55:34.999Z</time>
      </trkpt>
      <trkpt lat="60.85292" lon="5.11527">
        <ele>59.019271</ele>
        <time>2020-07-25T14:55:36.987Z</time>
      </trkpt>
      <trkpt lat="60.85284" lon="5.11537">
        <ele>58.851093</ele>
        <time>2020-07-25T14:55:38.988Z</time>
      </trkpt>
      <trkpt lat="60.85273" lon="5.11553">
        <ele>58.600057</ele>
        <time>2020-07-25T14:55:42.010Z</time>
      </trkpt>
      <trkpt lat="60.85266" lon="5.11565">
        <ele>58.431152</ele>
        <time>2020-07-25T14:55:43.997Z</time>
      </trkpt>
      <trkpt lat="60.85259" lon="5.11576">
        <ele>58.260772</ele>
        <time>2020-07-25T14:55:46.023Z</time>
      </trkpt>
      <trkpt lat="60.85249" lon="5.11592">
        <ele>58.026917</ele>
        <time>2020-07-25T14:55:48.998Z</time>
      </trkpt>
      <trkpt lat="60.8524" lon="5.11608">
        <ele>57.810424</ele>
        <time>2020-07-25T14:55:51.995Z</time>
      </trkpt>
      <trkpt lat="60.85232" lon="5.11626">
        <ele>58.756648</ele>
        <time>2020-07-25T14:55:54.992Z</time>
      </trkpt>
      <trkpt lat="60.85224" lon="5.11644">
        <ele>59.660243</ele>
        <time>2020-07-25T14:55:57.982Z</time>
      </trkpt>
      <trkpt lat="60.85217" lon="5.11663">
        <ele>60.586699</ele>
        <time>2020-07-25T14:56:01.000Z</time>
      </trkpt>
      <trkpt lat="60.8521" lon="5.11681">
        <ele>61.489026</ele>
        <time>2020-07-25T14:56:03.998Z</time>
      </trkpt>
      <trkpt lat="60.85203" lon="5.11701">
        <ele>62.408762</ele>
        <time>2020-07-25T14:56:07.020Z</time>
      </trkpt>
      <trkpt lat="60.85197" lon="5.11721">
        <ele>63.334815</ele>
        <time>2020-07-25T14:56:10.006Z</time>
      </trkpt>
      <trkpt lat="60.85191" lon="5.11743">
        <ele>64.303801</ele>
        <time>2020-07-25T14:56:12.992Z</time>
      </trkpt>
      <trkpt lat="60.85184" lon="5.11764">
        <ele>65.270296</ele>
        <time>2020-07-25T14:56:15.994Z</time>
      </trkpt>
      <trkpt lat="60.85177" lon="5.11782">
        <ele>66.17483</ele>
        <time>2020-07-25T14:56:18.999Z</time>
      </trkpt>
      <trkpt lat="60.85172" lon="5.11798">
        <ele>66.892669</ele>
        <time>2020-07-25T14:56:22.006Z</time>
      </trkpt>
      <trkpt lat="60.85166" lon="5.11814">
        <ele>67.692384</ele>
        <time>2020-07-25T14:56:25.986Z</time>
      </trkpt>
      <trkpt lat="60.85159" lon="5.1183">
        <ele>68.524897</ele>
        <time>2020-07-25T14:56:31.005Z</time>
      </trkpt>
      <trkpt lat="60.85152" lon="5.11844">
        <ele>69.277317</ele>
        <time>2020-07-25T14:56:36.039Z</time>
      </trkpt>
      <trkpt lat="60.85146" lon="5.11862">
        <ele>70.130157</ele>
        <time>2020-07-25T14:56:42.002Z</time>
      </trkpt>
      <trkpt lat="60.8514" lon="5.11876">
        <ele>70.85893</ele>
        <time>2020-07-25T14:56:45.995Z</time>
      </trkpt>
      <trkpt lat="60.85133" lon="5.1189">
        <ele>71.619868</ele>
        <time>2020-07-25T14:56:50.996Z</time>
      </trkpt>
      <trkpt lat="60.85126" lon="5.11904">
        <ele>72.212521</ele>
        <time>2020-07-25T14:56:56.000Z</time>
      </trkpt>
      <trkpt lat="60.85119" lon="5.11915">
        <ele>72.568283</ele>
        <time>2020-07-25T14:57:02.006Z</time>
      </trkpt>
      <trkpt lat="60.85111" lon="5.11928">
        <ele>72.955068</ele>
        <time>2020-07-25T14:57:09.004Z</time>
      </trkpt>
      <trkpt lat="60.85101" lon="5.11935">
        <ele>73.354511</ele>
        <time>2020-07-25T14:57:15.993Z</time>
      </trkpt>
      <trkpt lat="60.85093" lon="5.11943">
        <ele>73.73324</ele>
        <time>2020-07-25T14:57:22.002Z</time>
      </trkpt>
      <trkpt lat="60.85083" lon="5.1195">
        <ele>74.10831</ele>
        <time>2020-07-25T14:57:28.013Z</time>
      </trkpt>
      <trkpt lat="60.85074" lon="5.11957">
        <ele>74.479757</ele>
        <time>2020-07-25T14:57:34.011Z</time>
      </trkpt>
      <trkpt lat="60.85065" lon="5.11964">
        <ele>74.852285</ele>
        <time>2020-07-25T14:57:39.984Z</time>
      </trkpt>
      <trkpt lat="60.85056" lon="5.11968">
        <ele>75.215553</ele>
        <time>2020-07-25T14:57:46.006Z</time>
      </trkpt>
      <trkpt lat="60.85047" lon="5.11977">
        <ele>75.619032</ele>
        <time>2020-07-25T14:57:53.985Z</time>
      </trkpt>
      <trkpt lat="60.85037" lon="5.11984">
        <ele>76.018396</ele>
        <time>2020-07-25T14:58:00.994Z</time>
      </trkpt>
      <trkpt lat="60.85028" lon="5.11988">
        <ele>76.371905</ele>
        <time>2020-07-25T14:58:06.996Z</time>
      </trkpt>
      <trkpt lat="60.85018" lon="5.11992">
        <ele>76.755589</ele>
        <time>2020-07-25T14:58:12.992Z</time>
      </trkpt>
      <trkpt lat="60.85008" lon="5.11995">
        <ele>77.162467</ele>
        <time>2020-07-25T14:58:18.982Z</time>
      </trkpt>
      <trkpt lat="60.84998" lon="5.12004">
        <ele>77.570986</ele>
        <time>2020-07-25T14:58:23.998Z</time>
      </trkpt>
      <trkpt lat="60.8499" lon="5.12015">
        <ele>77.950925</ele>
        <time>2020-07-25T14:58:29.018Z</time>
      </trkpt>
      <trkpt lat="60.84982" lon="5.12031">
        <ele>78.384451</ele>
        <time>2020-07-25T14:58:33.991Z</time>
      </trkpt>
      <trkpt lat="60.84974" lon="5.12044">
        <ele>78.758932</ele>
        <time>2020-07-25T14:58:37.993Z</time>
      </trkpt>
      <trkpt lat="60.84967" lon="5.1206">
        <ele>79.081767</ele>
        <time>2020-07-25T14:58:42.031Z</time>
      </trkpt>
      <trkpt lat="60.84958" lon="5.12076">
        <ele>79.261803</ele>
        <time>2020-07-25T14:58:46.013Z</time>
      </trkpt>
      <trkpt lat="60.84951" lon="5.12089">
        <ele>79.406809</ele>
        <time>2020-07-25T14:58:48.998Z</time>
      </trkpt>
      <trkpt lat="60.84944" lon="5.12103">
        <ele>79.545262</ele>
        <time>2020-07-25T14:58:52.039Z</time>
      </trkpt>
      <trkpt lat="60.84938" lon="5.12116">
        <ele>79.685327</ele>
        <time>2020-07-25T14:58:55.005Z</time>
      </trkpt>
      <trkpt lat="60.84931" lon="5.12129">
        <ele>79.825724</ele>
        <time>2020-07-25T14:58:58.003Z</time>
      </trkpt>
      <trkpt lat="60.84925" lon="5.12143">
        <ele>79.96737</ele>
        <time>2020-07-25T14:59:01.020Z</time>
      </trkpt>
      <trkpt lat="60.84918" lon="5.12157">
        <ele>80.111676</ele>
        <time>2020-07-25T14:59:04.020Z</time>
      </trkpt>
      <trkpt lat="60.84912" lon="5.12171">
        <ele>80.254005</ele>
        <time>2020-07-25T14:59:07.008Z</time>
      </trkpt>
      <trkpt lat="60.84906" lon="5.12186">
        <ele>80.395254</ele>
        <time>2020-07-25T14:59:09.992Z</time>
      </trkpt>
      <trkpt lat="60.849" lon="5.122">
        <ele>80.538478</ele>
        <time>2020-07-25T14:59:13.027Z</time>
      </trkpt>
      <trkpt lat="60.84893" lon="5.12213">
        <ele>80.677536</ele>
        <time>2020-07-25T14:59:15.998Z</time>
      </trkpt>
      <trkpt lat="60.84886" lon="5.12226">
        <ele>80.824666</ele>
        <time>2020-07-25T14:59:19.015Z</time>
      </trkpt>
      <trkpt lat="60.84879" lon="5.1224">
        <ele>80.970036</ele>
        <time>2020-07-25T14:59:21.991Z</time>
      </trkpt>
      <trkpt lat="60.84872" lon="5.12253">
        <ele>81.116474</ele>
        <time>2020-07-25T14:59:25.012Z</time>
      </trkpt>
      <trkpt lat="60.84865" lon="5.12266">
        <ele>81.258859</ele>
        <time>2020-07-25T14:59:28.050Z</time>
      </trkpt>
      <trkpt lat="60.84858" lon="5.12279">
        <ele>81.396502</ele>
        <time>2020-07-25T14:59:31.028Z</time>
      </trkpt>
      <trkpt lat="60.84852" lon="5.12291">
        <ele>81.532417</ele>
        <time>2020-07-25T14:59:33.996Z</time>
      </trkpt>
      <trkpt lat="60.84845" lon="5.12305">
        <ele>81.674065</ele>
        <time>2020-07-25T14:59:37.015Z</time>
      </trkpt>
      <trkpt lat="60.84838" lon="5.12318">
        <ele>81.859493</ele>
        <time>2020-07-25T14:59:39.990Z</time>
      </trkpt>
      <trkpt lat="60.84832" lon="5.12332">
        <ele>82.089149</ele>
        <time>2020-07-25T14:59:42.990Z</time>
      </trkpt>
      <trkpt lat="60.84825" lon="5.12346">
        <ele>82.319397</ele>
        <time>2020-07-25T14:59:45.993Z</time>
      </trkpt>
      <trkpt lat="60.84817" lon="5.12363">
        <ele>82.60531</ele>
        <time>2020-07-25T14:59:50.006Z</time>
      </trkpt>
      <trkpt lat="60.84809" lon="5.12379">
        <ele>82.881889</ele>
        <time>2020-07-25T14:59:54.000Z</time>
      </trkpt>
      <trkpt lat="60.84801" lon="5.12397">
        <ele>83.164381</ele>
        <time>2020-07-25T14:59:58.000Z</time>
      </trkpt>
      <trkpt lat="60.84794" lon="5.12411">
        <ele>83.414395</ele>
        <time>2020-07-25T15:00:01.996Z</time>
      </trkpt>
      <trkpt lat="60.84787" lon="5.12426">
        <ele>83.663702</ele>
        <time>2020-07-25T15:00:06.021Z</time>
      </trkpt>
      <trkpt lat="60.84779" lon="5.1244">
        <ele>83.911965</ele>
        <time>2020-07-25T15:00:10.032Z</time>
      </trkpt>
      <trkpt lat="60.84773" lon="5.12453">
        <ele>84.137715</ele>
        <time>2020-07-25T15:00:14.018Z</time>
      </trkpt>
      <trkpt lat="60.84765" lon="5.12465">
        <ele>84.36639</ele>
        <time>2020-07-25T15:00:17.996Z</time>
      </trkpt>
      <trkpt lat="60.84758" lon="5.12479">
        <ele>84.606131</ele>
        <time>2020-07-25T15:00:21.991Z</time>
      </trkpt>
      <trkpt lat="60.84752" lon="5.12493">
        <ele>84.843282</ele>
        <time>2020-07-25T15:00:25.993Z</time>
      </trkpt>
      <trkpt lat="60.84745" lon="5.12505">
        <ele>85.067769</ele>
        <time>2020-07-25T15:00:30.011Z</time>
      </trkpt>
      <trkpt lat="60.84738" lon="5.12522">
        <ele>85.331043</ele>
        <time>2020-07-25T15:00:35.014Z</time>
      </trkpt>
      <trkpt lat="60.84731" lon="5.12537">
        <ele>85.572035</ele>
        <time>2020-07-25T15:00:39.012Z</time>
      </trkpt>
      <trkpt lat="60.84723" lon="5.12552">
        <ele>85.829172</ele>
        <time>2020-07-25T15:00:42.992Z</time>
      </trkpt>
      <trkpt lat="60.84716" lon="5.12565">
        <ele>86.061764</ele>
        <time>2020-07-25T15:00:47.014Z</time>
      </trkpt>
      <trkpt lat="60.84709" lon="5.12578">
        <ele>86.393589</ele>
        <time>2020-07-25T15:00:50.996Z</time>
      </trkpt>
      <trkpt lat="60.84703" lon="5.1259">
        <ele>86.782264</ele>
        <time>2020-07-25T15:00:55.012Z</time>
      </trkpt>
      <trkpt lat="60.84695" lon="5.12605">
        <ele>87.240546</ele>
        <time>2020-07-25T15:01:00.001Z</time>
      </trkpt>
      <trkpt lat="60.84687" lon="5.1262">
        <ele>87.706328</ele>
        <time>2020-07-25T15:01:04.983Z</time>
      </trkpt>
      <trkpt lat="60.84679" lon="5.12636">
        <ele>88.196656</ele>
        <time>2020-07-25T15:01:10.012Z</time>
      </trkpt>
      <trkpt lat="60.84671" lon="5.12651">
        <ele>88.670119</ele>
        <time>2020-07-25T15:01:14.998Z</time>
      </trkpt>
      <trkpt lat="60.84664" lon="5.12665">
        <ele>89.099723</ele>
        <time>2020-07-25T15:01:20.000Z</time>
      </trkpt>
      <trkpt lat="60.84657" lon="5.12679">
        <ele>89.497647</ele>
        <time>2020-07-25T15:01:23.987Z</time>
      </trkpt>
      <trkpt lat="60.84651" lon="5.12695">
        <ele>89.914193</ele>
        <time>2020-07-25T15:01:28.043Z</time>
      </trkpt>
      <trkpt lat="60.84645" lon="5.12709">
        <ele>90.339287</ele>
        <time>2020-07-25T15:01:32.000Z</time>
      </trkpt>
      <trkpt lat="60.84637" lon="5.12726">
        <ele>90.800916</ele>
        <time>2020-07-25T15:01:35.982Z</time>
      </trkpt>
      <trkpt lat="60.84632" lon="5.12743">
        <ele>91.24009</ele>
        <time>2020-07-25T15:01:40.008Z</time>
      </trkpt>
      <trkpt lat="60.84626" lon="5.12758">
        <ele>91.639387</ele>
        <time>2020-07-25T15:01:43.999Z</time>
      </trkpt>
      <trkpt lat="60.84621" lon="5.12773">
        <ele>92.029451</ele>
        <time>2020-07-25T15:01:47.988Z</time>
      </trkpt>
      <trkpt lat="60.84616" lon="5.12789">
        <ele>92.427983</ele>
        <time>2020-07-25T15:01:51.988Z</time>
      </trkpt>
      <trkpt lat="60.84612" lon="5.12807">
        <ele>92.82344</ele>
        <time>2020-07-25T15:01:56.004Z</time>
      </trkpt>
      <trkpt lat="60.84609" lon="5.12824">
        <ele>93.217897</ele>
        <time>2020-07-25T15:01:59.992Z</time>
      </trkpt>
      <trkpt lat="60.84605" lon="5.12842">
        <ele>93.638394</ele>
        <time>2020-07-25T15:02:03.993Z</time>
      </trkpt>
      <trkpt lat="60.84602" lon="5.1286">
        <ele>94.006555</ele>
        <time>2020-07-25T15:02:08.000Z</time>
      </trkpt>
      <trkpt lat="60.84599" lon="5.12882">
        <ele>94.355907</ele>
        <time>2020-07-25T15:02:12.980Z</time>
      </trkpt>
      <trkpt lat="60.84596" lon="5.12904">
        <ele>94.70973</ele>
        <time>2020-07-25T15:02:18.039Z</time>
      </trkpt>
      <trkpt lat="60.84594" lon="5.12923">
        <ele>95.007298</ele>
        <time>2020-07-25T15:02:23.014Z</time>
      </trkpt>
      <trkpt lat="60.84593" lon="5.12942">
        <ele>95.308681</ele>
        <time>2020-07-25T15:02:28.056Z</time>
      </trkpt>
      <trkpt lat="60.8459" lon="5.12961">
        <ele>95.60443</ele>
        <time>2020-07-25T15:02:32.989Z</time>
      </trkpt>
      <trkpt lat="60.84589" lon="5.12979">
        <ele>95.892088</ele>
        <time>2020-07-25T15:02:37.995Z</time>
      </trkpt>
      <trkpt lat="60.84586" lon="5.13">
        <ele>96.215832</ele>
        <time>2020-07-25T15:02:42.991Z</time>
      </trkpt>
      <trkpt lat="60.84585" lon="5.13021">
        <ele>96.554671</ele>
        <time>2020-07-25T15:02:48.004Z</time>
      </trkpt>
      <trkpt lat="60.84584" lon="5.13043">
        <ele>96.895038</ele>
        <time>2020-07-25T15:02:53.000Z</time>
      </trkpt>
      <trkpt lat="60.84584" lon="5.13065">
        <ele>97.227469</ele>
        <time>2020-07-25T15:02:57.005Z</time>
      </trkpt>
      <trkpt lat="60.84585" lon="5.13086">
        <ele>97.554792</ele>
        <time>2020-07-25T15:03:01.015Z</time>
      </trkpt>
      <trkpt lat="60.84585" lon="5.13105">
        <ele>97.839531</ele>
        <time>2020-07-25T15:03:04.988Z</time>
      </trkpt>
      <trkpt lat="60.84585" lon="5.13128">
        <ele>98.198181</ele>
        <time>2020-07-25T15:03:09.984Z</time>
      </trkpt>
      <trkpt lat="60.84585" lon="5.13147">
        <ele>98.493693</ele>
        <time>2020-07-25T15:03:13.030Z</time>
      </trkpt>
      <trkpt lat="60.84585" lon="5.13169">
        <ele>98.8308</ele>
        <time>2020-07-25T15:03:15.985Z</time>
      </trkpt>
      <trkpt lat="60.84585" lon="5.13192">
        <ele>99.18952</ele>
        <time>2020-07-25T15:03:19.013Z</time>
      </trkpt>
      <trkpt lat="60.84585" lon="5.13218">
        <ele>99.578896</ele>
        <time>2020-07-25T15:03:21.979Z</time>
      </trkpt>
      <trkpt lat="60.84585" lon="5.13244">
        <ele>98.783365</ele>
        <time>2020-07-25T15:03:25.020Z</time>
      </trkpt>
      <trkpt lat="60.84585" lon="5.1327">
        <ele>97.859712</ele>
        <time>2020-07-25T15:03:28.039Z</time>
      </trkpt>
      <trkpt lat="60.84585" lon="5.13291">
        <ele>97.137944</ele>
        <time>2020-07-25T15:03:30.021Z</time>
      </trkpt>
      <trkpt lat="60.84584" lon="5.13316">
        <ele>96.273009</ele>
        <time>2020-07-25T15:03:31.987Z</time>
      </trkpt>
      <trkpt lat="60.84585" lon="5.13349">
        <ele>95.136568</ele>
        <time>2020-07-25T15:03:33.995Z</time>
      </trkpt>
      <trkpt lat="60.84584" lon="5.13386">
        <ele>93.861162</ele>
        <time>2020-07-25T15:03:35.999Z</time>
      </trkpt>
      <trkpt lat="60.84583" lon="5.13404">
        <ele>93.222125</ele>
        <time>2020-07-25T15:03:37.004Z</time>
      </trkpt>
      <trkpt lat="60.84582" lon="5.13423">
        <ele>92.578963</ele>
        <time>2020-07-25T15:03:37.999Z</time>
      </trkpt>
      <trkpt lat="60.84579" lon="5.13441">
        <ele>91.914831</ele>
        <time>2020-07-25T15:03:39.016Z</time>
      </trkpt>
      <trkpt lat="60.84576" lon="5.1346">
        <ele>91.227197</ele>
        <time>2020-07-25T15:03:40.012Z</time>
      </trkpt>
      <trkpt lat="60.84573" lon="5.13479">
        <ele>90.535031</ele>
        <time>2020-07-25T15:03:40.985Z</time>
      </trkpt>
      <trkpt lat="60.84569" lon="5.13498">
        <ele>89.818128</ele>
        <time>2020-07-25T15:03:41.998Z</time>
      </trkpt>
      <trkpt lat="60.84565" lon="5.13519">
        <ele>89.049664</ele>
        <time>2020-07-25T15:03:42.995Z</time>
      </trkpt>
      <trkpt lat="60.84562" lon="5.13538">
        <ele>88.347685</ele>
        <time>2020-07-25T15:03:44.004Z</time>
      </trkpt>
      <trkpt lat="60.84561" lon="5.13558">
        <ele>87.643145</ele>
        <time>2020-07-25T15:03:45.002Z</time>
      </trkpt>
      <trkpt lat="60.8456" lon="5.13578">
        <ele>86.936576</ele>
        <time>2020-07-25T15:03:46.003Z</time>
      </trkpt>
      <trkpt lat="60.84559" lon="5.136">
        <ele>86.095917</ele>
        <time>2020-07-25T15:03:47.001Z</time>
      </trkpt>
      <trkpt lat="60.8456" lon="5.1362">
        <ele>85.26531</ele>
        <time>2020-07-25T15:03:47.982Z</time>
      </trkpt>
      <trkpt lat="60.84562" lon="5.1364">
        <ele>84.445052</ele>
        <time>2020-07-25T15:03:48.999Z</time>
      </trkpt>
      <trkpt lat="60.84565" lon="5.13659">
        <ele>83.598409</ele>
        <time>2020-07-25T15:03:50.057Z</time>
      </trkpt>
      <trkpt lat="60.84569" lon="5.13679">
        <ele>82.725681</ele>
        <time>2020-07-25T15:03:50.989Z</time>
      </trkpt>
      <trkpt lat="60.84575" lon="5.13699">
        <ele>81.787163</ele>
        <time>2020-07-25T15:03:52.001Z</time>
      </trkpt>
      <trkpt lat="60.84582" lon="5.13718">
        <ele>80.835112</ele>
        <time>2020-07-25T15:03:52.993Z</time>
      </trkpt>
      <trkpt lat="60.8459" lon="5.13736">
        <ele>79.852979</ele>
        <time>2020-07-25T15:03:54.004Z</time>
      </trkpt>
      <trkpt lat="60.84598" lon="5.13755">
        <ele>78.845364</ele>
        <time>2020-07-25T15:03:54.987Z</time>
      </trkpt>
      <trkpt lat="60.84606" lon="5.13774">
        <ele>77.8223</ele>
        <time>2020-07-25T15:03:56.012Z</time>
      </trkpt>
      <trkpt lat="60.84613" lon="5.13793">
        <ele>76.820349</ele>
        <time>2020-07-25T15:03:57.000Z</time>
      </trkpt>
      <trkpt lat="60.8462" lon="5.13813">
        <ele>75.853689</ele>
        <time>2020-07-25T15:03:58.002Z</time>
      </trkpt>
      <trkpt lat="60.84626" lon="5.13832">
        <ele>74.907463</ele>
        <time>2020-07-25T15:03:58.992Z</time>
      </trkpt>
      <trkpt lat="60.84631" lon="5.13852">
        <ele>74.006161</ele>
        <time>2020-07-25T15:03:59.994Z</time>
      </trkpt>
      <trkpt lat="60.84634" lon="5.13872">
        <ele>73.136389</ele>
        <time>2020-07-25T15:04:01.035Z</time>
      </trkpt>
      <trkpt lat="60.84636" lon="5.13893">
        <ele>72.297818</ele>
        <time>2020-07-25T15:04:01.985Z</time>
      </trkpt>
      <trkpt lat="60.84636" lon="5.13913">
        <ele>72.083149</ele>
        <time>2020-07-25T15:04:03.000Z</time>
      </trkpt>
      <trkpt lat="60.84636" lon="5.13932">
        <ele>72.535918</ele>
        <time>2020-07-25T15:04:04.039Z</time>
      </trkpt>
      <trkpt lat="60.84634" lon="5.13966">
        <ele>73.388175</ele>
        <time>2020-07-25T15:04:05.982Z</time>
      </trkpt>
      <trkpt lat="60.8463" lon="5.13998">
        <ele>74.173206</ele>
        <time>2020-07-25T15:04:07.994Z</time>
      </trkpt>
      <trkpt lat="60.84624" lon="5.14025">
        <ele>74.913007</ele>
        <time>2020-07-25T15:04:10.004Z</time>
      </trkpt>
      <trkpt lat="60.84617" lon="5.14046">
        <ele>75.533944</ele>
        <time>2020-07-25T15:04:11.996Z</time>
      </trkpt>
      <trkpt lat="60.84608" lon="5.14062">
        <ele>76.107779</ele>
        <time>2020-07-25T15:04:14.015Z</time>
      </trkpt>
      <trkpt lat="60.84601" lon="5.14075">
        <ele>76.58842</ele>
        <time>2020-07-25T15:04:15.997Z</time>
      </trkpt>
      <trkpt lat="60.84591" lon="5.14089">
        <ele>77.178123</ele>
        <time>2020-07-25T15:04:19.000Z</time>
      </trkpt>
      <trkpt lat="60.84581" lon="5.141">
        <ele>77.752594</ele>
        <time>2020-07-25T15:04:23.012Z</time>
      </trkpt>
      <trkpt lat="60.84573" lon="5.14108">
        <ele>78.204858</ele>
        <time>2020-07-25T15:04:27.057Z</time>
      </trkpt>
      <trkpt lat="60.84564" lon="5.14121">
        <ele>78.739495</ele>
        <time>2020-07-25T15:04:31.994Z</time>
      </trkpt>
      <trkpt lat="60.84556" lon="5.14134">
        <ele>79.281405</ele>
        <time>2020-07-25T15:04:37.002Z</time>
      </trkpt>
      <trkpt lat="60.84548" lon="5.14148">
        <ele>79.799021</ele>
        <time>2020-07-25T15:04:41.988Z</time>
      </trkpt>
      <trkpt lat="60.84541" lon="5.1416">
        <ele>80.264722</ele>
        <time>2020-07-25T15:04:45.979Z</time>
      </trkpt>
      <trkpt lat="60.84534" lon="5.14176">
        <ele>80.773925</ele>
        <time>2020-07-25T15:04:50.012Z</time>
      </trkpt>
      <trkpt lat="60.84528" lon="5.14191">
        <ele>81.314243</ele>
        <time>2020-07-25T15:04:54.005Z</time>
      </trkpt>
      <trkpt lat="60.84522" lon="5.14208">
        <ele>81.911159</ele>
        <time>2020-07-25T15:04:58.996Z</time>
      </trkpt>
      <trkpt lat="60.84516" lon="5.14226">
        <ele>82.525414</ele>
        <time>2020-07-25T15:05:04.012Z</time>
      </trkpt>
      <trkpt lat="60.84511" lon="5.14245">
        <ele>83.145263</ele>
        <time>2020-07-25T15:05:08.995Z</time>
      </trkpt>
      <trkpt lat="60.84507" lon="5.14263">
        <ele>83.702313</ele>
        <time>2020-07-25T15:05:14.012Z</time>
      </trkpt>
      <trkpt lat="60.84503" lon="5.14281">
        <ele>84.263763</ele>
        <time>2020-07-25T15:05:17.981Z</time>
      </trkpt>
      <trkpt lat="60.84501" lon="5.14299">
        <ele>84.80084</ele>
        <time>2020-07-25T15:05:22.025Z</time>
      </trkpt>
      <trkpt lat="60.84497" lon="5.14317">
        <ele>85.330119</ele>
        <time>2020-07-25T15:05:25.994Z</time>
      </trkpt>
      <trkpt lat="60.84493" lon="5.14334">
        <ele>85.864205</ele>
        <time>2020-07-25T15:05:29.993Z</time>
      </trkpt>
      <trkpt lat="60.84489" lon="5.14353">
        <ele>86.47779</ele>
        <time>2020-07-25T15:05:35.026Z</time>
      </trkpt>
      <trkpt lat="60.84485" lon="5.14374">
        <ele>87.117126</ele>
        <time>2020-07-25T15:05:40.007Z</time>
      </trkpt>
      <trkpt lat="60.8448" lon="5.14393">
        <ele>87.720279</ele>
        <time>2020-07-25T15:05:43.989Z</time>
      </trkpt>
      <trkpt lat="60.84476" lon="5.14411">
        <ele>88.293973</ele>
        <time>2020-07-25T15:05:47.998Z</time>
      </trkpt>
      <trkpt lat="60.84473" lon="5.1443">
        <ele>88.849672</ele>
        <time>2020-07-25T15:05:52.002Z</time>
      </trkpt>
      <trkpt lat="60.84469" lon="5.1445">
        <ele>89.463079</ele>
        <time>2020-07-25T15:05:57.011Z</time>
      </trkpt>
      <trkpt lat="60.84466" lon="5.14468">
        <ele>90.009174</ele>
        <time>2020-07-25T15:06:01.011Z</time>
      </trkpt>
      <trkpt lat="60.84462" lon="5.1449">
        <ele>90.661781</ele>
        <time>2020-07-25T15:06:05.995Z</time>
      </trkpt>
      <trkpt lat="60.8446" lon="5.1451">
        <ele>91.270884</ele>
        <time>2020-07-25T15:06:10.009Z</time>
      </trkpt>
      <trkpt lat="60.84457" lon="5.14532">
        <ele>91.00377</ele>
        <time>2020-07-25T15:06:14.008Z</time>
      </trkpt>
      <trkpt lat="60.84456" lon="5.14551">
        <ele>90.691866</ele>
        <time>2020-07-25T15:06:17.041Z</time>
      </trkpt>
      <trkpt lat="60.84456" lon="5.14571">
        <ele>90.353865</ele>
        <time>2020-07-25T15:06:20.021Z</time>
      </trkpt>
      <trkpt lat="60.84457" lon="5.14594">
        <ele>89.975596</ele>
        <time>2020-07-25T15:06:23.005Z</time>
      </trkpt>
      <trkpt lat="60.84457" lon="5.14617">
        <ele>89.587348</ele>
        <time>2020-07-25T15:06:26.015Z</time>
      </trkpt>
      <trkpt lat="60.84459" lon="5.14643">
        <ele>89.150182</ele>
        <time>2020-07-25T15:06:28.994Z</time>
      </trkpt>
      <trkpt lat="60.8446" lon="5.14662">
        <ele>88.831666</ele>
        <time>2020-07-25T15:06:30.983Z</time>
      </trkpt>
      <trkpt lat="60.84462" lon="5.14682">
        <ele>88.495913</ele>
        <time>2020-07-25T15:06:33.020Z</time>
      </trkpt>
      <trkpt lat="60.84464" lon="5.14704">
        <ele>88.122047</ele>
        <time>2020-07-25T15:06:34.997Z</time>
      </trkpt>
      <trkpt lat="60.84467" lon="5.14728">
        <ele>87.709515</ele>
        <time>2020-07-25T15:06:36.996Z</time>
      </trkpt>
      <trkpt lat="60.84469" lon="5.14755">
        <ele>87.247632</ele>
        <time>2020-07-25T15:06:38.986Z</time>
      </trkpt>
      <trkpt lat="60.84473" lon="5.14783">
        <ele>86.771312</ele>
        <time>2020-07-25T15:06:41.028Z</time>
      </trkpt>
      <trkpt lat="60.84475" lon="5.14813">
        <ele>86.255362</ele>
        <time>2020-07-25T15:06:43.001Z</time>
      </trkpt>
      <trkpt lat="60.84477" lon="5.14851">
        <ele>85.628251</ele>
        <time>2020-07-25T15:06:45.001Z</time>
      </trkpt>
      <trkpt lat="60.84479" lon="5.14872">
        <ele>85.279161</ele>
        <time>2020-07-25T15:06:46.004Z</time>
      </trkpt>
      <trkpt lat="60.84481" lon="5.14894">
        <ele>84.706047</ele>
        <time>2020-07-25T15:06:47.004Z</time>
      </trkpt>
      <trkpt lat="60.84483" lon="5.14917">
        <ele>84.061397</ele>
        <time>2020-07-25T15:06:48.004Z</time>
      </trkpt>
      <trkpt lat="60.84484" lon="5.14939">
        <ele>83.432599</ele>
        <time>2020-07-25T15:06:49.018Z</time>
      </trkpt>
      <trkpt lat="60.84486" lon="5.1496">
        <ele>82.817658</ele>
        <time>2020-07-25T15:06:49.993Z</time>
      </trkpt>
      <trkpt lat="60.84488" lon="5.14982">
        <ele>82.20089</ele>
        <time>2020-07-25T15:06:51.003Z</time>
      </trkpt>
      <trkpt lat="60.8449" lon="5.15005">
        <ele>81.562806</ele>
        <time>2020-07-25T15:06:51.990Z</time>
      </trkpt>
      <trkpt lat="60.84492" lon="5.15027">
        <ele>80.925296</ele>
        <time>2020-07-25T15:06:53.004Z</time>
      </trkpt>
      <trkpt lat="60.84494" lon="5.15049">
        <ele>80.293277</ele>
        <time>2020-07-25T15:06:54.035Z</time>
      </trkpt>
      <trkpt lat="60.84496" lon="5.15071">
        <ele>79.659635</ele>
        <time>2020-07-25T15:06:55.018Z</time>
      </trkpt>
      <trkpt lat="60.84498" lon="5.15093">
        <ele>79.035328</ele>
        <time>2020-07-25T15:06:56.008Z</time>
      </trkpt>
      <trkpt lat="60.845" lon="5.15114">
        <ele>78.440648</ele>
        <time>2020-07-25T15:06:56.992Z</time>
      </trkpt>
      <trkpt lat="60.84502" lon="5.15133">
        <ele>77.882299</ele>
        <time>2020-07-25T15:06:57.981Z</time>
      </trkpt>
      <trkpt lat="60.84506" lon="5.15167">
        <ele>76.929302</ele>
        <time>2020-07-25T15:07:00.034Z</time>
      </trkpt>
      <trkpt lat="60.8451" lon="5.15194">
        <ele>76.100959</ele>
        <time>2020-07-25T15:07:02.023Z</time>
      </trkpt>
      <trkpt lat="60.84516" lon="5.15222">
        <ele>75.276161</ele>
        <time>2020-07-25T15:07:04.026Z</time>
      </trkpt>
      <trkpt lat="60.84524" lon="5.15247">
        <ele>74.331398</ele>
        <time>2020-07-25T15:07:06.032Z</time>
      </trkpt>
      <trkpt lat="60.84531" lon="5.15272">
        <ele>73.297899</ele>
        <time>2020-07-25T15:07:07.997Z</time>
      </trkpt>
      <trkpt lat="60.84541" lon="5.15298">
        <ele>72.167203</ele>
        <time>2020-07-25T15:07:10.007Z</time>
      </trkpt>
      <trkpt lat="60.84553" lon="5.15325">
        <ele>70.912732</ele>
        <time>2020-07-25T15:07:11.996Z</time>
      </trkpt>
      <trkpt lat="60.8456" lon="5.15337">
        <ele>70.250152</ele>
        <time>2020-07-25T15:07:12.981Z</time>
      </trkpt>
      <trkpt lat="60.84574" lon="5.15359">
        <ele>69.026432</ele>
        <time>2020-07-25T15:07:15.007Z</time>
      </trkpt>
      <trkpt lat="60.84581" lon="5.1537">
        <ele>68.343682</ele>
        <time>2020-07-25T15:07:16.013Z</time>
      </trkpt>
      <trkpt lat="60.84589" lon="5.15382">
        <ele>67.647158</ele>
        <time>2020-07-25T15:07:17.008Z</time>
      </trkpt>
      <trkpt lat="60.84598" lon="5.15393">
        <ele>66.90318</ele>
        <time>2020-07-25T15:07:17.994Z</time>
      </trkpt>
      <trkpt lat="60.84607" lon="5.15404">
        <ele>66.14648</ele>
        <time>2020-07-25T15:07:19.038Z</time>
      </trkpt>
      <trkpt lat="60.84617" lon="5.15414">
        <ele>65.410457</ele>
        <time>2020-07-25T15:07:19.994Z</time>
      </trkpt>
      <trkpt lat="60.84626" lon="5.15423">
        <ele>64.696492</ele>
        <time>2020-07-25T15:07:21.016Z</time>
      </trkpt>
      <trkpt lat="60.84635" lon="5.15431">
        <ele>63.957418</ele>
        <time>2020-07-25T15:07:21.984Z</time>
      </trkpt>
      <trkpt lat="60.84645" lon="5.15439">
        <ele>63.213185</ele>
        <time>2020-07-25T15:07:23.026Z</time>
      </trkpt>
      <trkpt lat="60.84655" lon="5.15447">
        <ele>62.451492</ele>
        <time>2020-07-25T15:07:23.998Z</time>
      </trkpt>
      <trkpt lat="60.84665" lon="5.15455">
        <ele>61.810638</ele>
        <time>2020-07-25T15:07:25.006Z</time>
      </trkpt>
      <trkpt lat="60.84675" lon="5.15462">
        <ele>61.358239</ele>
        <time>2020-07-25T15:07:26.039Z</time>
      </trkpt>
      <trkpt lat="60.84685" lon="5.15469">
        <ele>60.918016</ele>
        <time>2020-07-25T15:07:26.995Z</time>
      </trkpt>
      <trkpt lat="60.84694" lon="5.15476">
        <ele>60.500545</ele>
        <time>2020-07-25T15:07:27.998Z</time>
      </trkpt>
      <trkpt lat="60.84703" lon="5.15482">
        <ele>60.095673</ele>
        <time>2020-07-25T15:07:29.002Z</time>
      </trkpt>
      <trkpt lat="60.84718" lon="5.15498">
        <ele>59.388593</ele>
        <time>2020-07-25T15:07:30.985Z</time>
      </trkpt>
      <trkpt lat="60.84725" lon="5.15513">
        <ele>58.969632</ele>
        <time>2020-07-25T15:07:32.005Z</time>
      </trkpt>
      <trkpt lat="60.8473" lon="5.15531">
        <ele>58.540676</ele>
        <time>2020-07-25T15:07:32.996Z</time>
      </trkpt>
      <trkpt lat="60.84733" lon="5.15553">
        <ele>58.074735</ele>
        <time>2020-07-25T15:07:34.021Z</time>
      </trkpt>
      <trkpt lat="60.84733" lon="5.15575">
        <ele>57.609647</ele>
        <time>2020-07-25T15:07:35.003Z</time>
      </trkpt>
      <trkpt lat="60.84731" lon="5.15597">
        <ele>57.158485</ele>
        <time>2020-07-25T15:07:36.014Z</time>
      </trkpt>
      <trkpt lat="60.84726" lon="5.15613">
        <ele>56.76524</ele>
        <time>2020-07-25T15:07:37.031Z</time>
      </trkpt>
      <trkpt lat="60.84718" lon="5.15625">
        <ele>56.333344</ele>
        <time>2020-07-25T15:07:38.060Z</time>
      </trkpt>
      <trkpt lat="60.84709" lon="5.15634">
        <ele>55.904799</ele>
        <time>2020-07-25T15:07:38.997Z</time>
      </trkpt>
      <trkpt lat="60.84699" lon="5.1564">
        <ele>55.489543</ele>
        <time>2020-07-25T15:07:40.010Z</time>
      </trkpt>
      <trkpt lat="60.8469" lon="5.15643">
        <ele>55.07931</ele>
        <time>2020-07-25T15:07:40.994Z</time>
      </trkpt>
      <trkpt lat="60.84674" lon="5.15646">
        <ele>54.407302</ele>
        <time>2020-07-25T15:07:42.990Z</time>
      </trkpt>
      <trkpt lat="60.84662" lon="5.15647">
        <ele>54.289091</ele>
        <time>2020-07-25T15:07:44.991Z</time>
      </trkpt>
      <trkpt lat="60.84651" lon="5.15651">
        <ele>54.203269</ele>
        <time>2020-07-25T15:07:46.998Z</time>
      </trkpt>
      <trkpt lat="60.84639" lon="5.15658">
        <ele>54.099316</ele>
        <time>2020-07-25T15:07:49.994Z</time>
      </trkpt>
      <trkpt lat="60.84629" lon="5.1567">
        <ele>54.004423</ele>
        <time>2020-07-25T15:07:53.039Z</time>
      </trkpt>
      <trkpt lat="60.84619" lon="5.15688">
        <ele>53.898511</ele>
        <time>2020-07-25T15:07:56.003Z</time>
      </trkpt>
      <trkpt lat="60.84614" lon="5.15705">
        <ele>53.816665</ele>
        <time>2020-07-25T15:07:58.005Z</time>
      </trkpt>
      <trkpt lat="60.84609" lon="5.15726">
        <ele>53.720164</ele>
        <time>2020-07-25T15:08:00.019Z</time>
      </trkpt>
      <trkpt lat="60.84603" lon="5.15751">
        <ele>53.613276</ele>
        <time>2020-07-25T15:08:02.014Z</time>
      </trkpt>
      <trkpt lat="60.84598" lon="5.15777">
        <ele>53.499561</ele>
        <time>2020-07-25T15:08:04.002Z</time>
      </trkpt>
      <trkpt lat="60.84594" lon="5.15805">
        <ele>53.384874</ele>
        <time>2020-07-25T15:08:06.024Z</time>
      </trkpt>
      <trkpt lat="60.84589" lon="5.15832">
        <ele>53.270792</ele>
        <time>2020-07-25T15:08:08.003Z</time>
      </trkpt>
      <trkpt lat="60.84584" lon="5.15859">
        <ele>53.152536</ele>
        <time>2020-07-25T15:08:10.014Z</time>
      </trkpt>
      <trkpt lat="60.84579" lon="5.15886">
        <ele>53.03882</ele>
        <time>2020-07-25T15:08:11.996Z</time>
      </trkpt>
      <trkpt lat="60.84574" lon="5.15909">
        <ele>52.938326</ele>
        <time>2020-07-25T15:08:14.023Z</time>
      </trkpt>
      <trkpt lat="60.84571" lon="5.15931">
        <ele>53.331546</ele>
        <time>2020-07-25T15:08:15.995Z</time>
      </trkpt>
      <trkpt lat="60.84567" lon="5.15951">
        <ele>53.856484</ele>
        <time>2020-07-25T15:08:18.002Z</time>
      </trkpt>
      <trkpt lat="60.84562" lon="5.15969">
        <ele>54.359885</ele>
        <time>2020-07-25T15:08:20.003Z</time>
      </trkpt>
      <trkpt lat="60.84557" lon="5.15992">
        <ele>54.993766</ele>
        <time>2020-07-25T15:08:23.001Z</time>
      </trkpt>
      <trkpt lat="60.84552" lon="5.16009">
        <ele>55.473827</ele>
        <time>2020-07-25T15:08:25.997Z</time>
      </trkpt>
      <trkpt lat="60.84546" lon="5.16024">
        <ele>55.936503</ele>
        <time>2020-07-25T15:08:29.996Z</time>
      </trkpt>
      <trkpt lat="60.8454" lon="5.1604">
        <ele>56.436295</ele>
        <time>2020-07-25T15:08:35.014Z</time>
      </trkpt>
      <trkpt lat="60.84534" lon="5.16055">
        <ele>56.91296</ele>
        <time>2020-07-25T15:08:40.000Z</time>
      </trkpt>
      <trkpt lat="60.84528" lon="5.16069">
        <ele>57.374255</ele>
        <time>2020-07-25T15:08:44.995Z</time>
      </trkpt>
      <trkpt lat="60.8452" lon="5.16081">
        <ele>57.872163</ele>
        <time>2020-07-25T15:08:50.009Z</time>
      </trkpt>
      <trkpt lat="60.84513" lon="5.16094">
        <ele>58.360987</ele>
        <time>2020-07-25T15:08:54.991Z</time>
      </trkpt>
      <trkpt lat="60.84505" lon="5.16105">
        <ele>58.823039</ele>
        <time>2020-07-25T15:09:00.002Z</time>
      </trkpt>
      <trkpt lat="60.84498" lon="5.16117">
        <ele>59.297607</ele>
        <time>2020-07-25T15:09:04.996Z</time>
      </trkpt>
      <trkpt lat="60.84491" lon="5.16131">
        <ele>59.774526</ele>
        <time>2020-07-25T15:09:10.001Z</time>
      </trkpt>
      <trkpt lat="60.84483" lon="5.16142">
        <ele>60.261359</ele>
        <time>2020-07-25T15:09:15.040Z</time>
      </trkpt>
      <trkpt lat="60.84476" lon="5.16153">
        <ele>60.716445</ele>
        <time>2020-07-25T15:09:19.031Z</time>
      </trkpt>
      <trkpt lat="60.84467" lon="5.16167">
        <ele>61.282274</ele>
        <time>2020-07-25T15:09:24.018Z</time>
      </trkpt>
      <trkpt lat="60.8446" lon="5.1618">
        <ele>61.769317</ele>
        <time>2020-07-25T15:09:28.025Z</time>
      </trkpt>
      <trkpt lat="60.84451" lon="5.16193">
        <ele>61.848943</ele>
        <time>2020-07-25T15:09:32.021Z</time>
      </trkpt>
      <trkpt lat="60.84441" lon="5.16206">
        <ele>61.596622</ele>
        <time>2020-07-25T15:09:36.023Z</time>
      </trkpt>
      <trkpt lat="60.84434" lon="5.16218">
        <ele>61.395435</ele>
        <time>2020-07-25T15:09:39.019Z</time>
      </trkpt>
      <trkpt lat="60.84425" lon="5.16231">
        <ele>61.17456</ele>
        <time>2020-07-25T15:09:41.996Z</time>
      </trkpt>
      <trkpt lat="60.84417" lon="5.16245">
        <ele>60.949106</ele>
        <time>2020-07-25T15:09:45.018Z</time>
      </trkpt>
      <trkpt lat="60.84408" lon="5.16259">
        <ele>60.714482</ele>
        <time>2020-07-25T15:09:48.050Z</time>
      </trkpt>
      <trkpt lat="60.84399" lon="5.16272">
        <ele>60.47385</ele>
        <time>2020-07-25T15:09:51.007Z</time>
      </trkpt>
      <trkpt lat="60.8439" lon="5.16288">
        <ele>60.224328</ele>
        <time>2020-07-25T15:09:54.003Z</time>
      </trkpt>
      <trkpt lat="60.8438" lon="5.16303">
        <ele>59.965663</ele>
        <time>2020-07-25T15:09:57.014Z</time>
      </trkpt>
      <trkpt lat="60.8437" lon="5.16316">
        <ele>59.706192</ele>
        <time>2020-07-25T15:10:00.013Z</time>
      </trkpt>
      <trkpt lat="60.84359" lon="5.16331">
        <ele>59.433029</ele>
        <time>2020-07-25T15:10:02.999Z</time>
      </trkpt>
      <trkpt lat="60.8435" lon="5.1635">
        <ele>59.172553</ele>
        <time>2020-07-25T15:10:06.009Z</time>
      </trkpt>
      <trkpt lat="60.84343" lon="5.16369">
        <ele>58.921796</ele>
        <time>2020-07-25T15:10:09.019Z</time>
      </trkpt>
      <trkpt lat="60.84335" lon="5.16393">
        <ele>58.629508</ele>
        <time>2020-07-25T15:10:12.000Z</time>
      </trkpt>
      <trkpt lat="60.84329" lon="5.16412">
        <ele>58.389285</ele>
        <time>2020-07-25T15:10:13.995Z</time>
      </trkpt>
      <trkpt lat="60.84323" lon="5.16434">
        <ele>58.204894</ele>
        <time>2020-07-25T15:10:16.013Z</time>
      </trkpt>
      <trkpt lat="60.84318" lon="5.1646">
        <ele>58.265714</ele>
        <time>2020-07-25T15:10:17.993Z</time>
      </trkpt>
      <trkpt lat="60.84314" lon="5.16488">
        <ele>58.330495</ele>
        <time>2020-07-25T15:10:19.986Z</time>
      </trkpt>
      <trkpt lat="60.84311" lon="5.16518">
        <ele>58.3988</ele>
        <time>2020-07-25T15:10:22.004Z</time>
      </trkpt>
      <trkpt lat="60.8431" lon="5.16551">
        <ele>58.471307</ele>
        <time>2020-07-25T15:10:24.019Z</time>
      </trkpt>
      <trkpt lat="60.84311" lon="5.16585">
        <ele>58.547532</ele>
        <time>2020-07-25T15:10:26.006Z</time>
      </trkpt>
      <trkpt lat="60.84312" lon="5.16622">
        <ele>58.627803</ele>
        <time>2020-07-25T15:10:28.023Z</time>
      </trkpt>
      <trkpt lat="60.84314" lon="5.16658">
        <ele>58.708972</ele>
        <time>2020-07-25T15:10:29.999Z</time>
      </trkpt>
      <trkpt lat="60.84316" lon="5.16693">
        <ele>58.785814</ele>
        <time>2020-07-25T15:10:32.006Z</time>
      </trkpt>
      <trkpt lat="60.84318" lon="5.16726">
        <ele>58.858709</ele>
        <time>2020-07-25T15:10:33.982Z</time>
      </trkpt>
      <trkpt lat="60.8432" lon="5.16754">
        <ele>58.922518</ele>
        <time>2020-07-25T15:10:36.020Z</time>
      </trkpt>
      <trkpt lat="60.84321" lon="5.16778">
        <ele>58.975495</ele>
        <time>2020-07-25T15:10:38.022Z</time>
      </trkpt>
      <trkpt lat="60.84322" lon="5.16798">
        <ele>59.006685</ele>
        <time>2020-07-25T15:10:40.002Z</time>
      </trkpt>
      <trkpt lat="60.84325" lon="5.16824">
        <ele>59.006685</ele>
        <time>2020-07-25T15:10:43.004Z</time>
      </trkpt>
      <trkpt lat="60.84326" lon="5.16844">
        <ele>59.006685</ele>
        <time>2020-07-25T15:10:46.010Z</time>
      </trkpt>
      <trkpt lat="60.84327" lon="5.16867">
        <ele>59.006685</ele>
        <time>2020-07-25T15:10:50.029Z</time>
      </trkpt>
      <trkpt lat="60.84328" lon="5.16889">
        <ele>59.006685</ele>
        <time>2020-07-25T15:10:53.989Z</time>
      </trkpt>
      <trkpt lat="60.8433" lon="5.16912">
        <ele>59.006685</ele>
        <time>2020-07-25T15:10:57.987Z</time>
      </trkpt>
      <trkpt lat="60.84331" lon="5.16936">
        <ele>59.006685</ele>
        <time>2020-07-25T15:11:02.000Z</time>
      </trkpt>
      <trkpt lat="60.84332" lon="5.16959">
        <ele>59.006685</ele>
        <time>2020-07-25T15:11:05.992Z</time>
      </trkpt>
      <trkpt lat="60.84333" lon="5.16977">
        <ele>59.006685</ele>
        <time>2020-07-25T15:11:09.031Z</time>
      </trkpt>
      <trkpt lat="60.84335" lon="5.16996">
        <ele>59.006685</ele>
        <time>2020-07-25T15:11:11.992Z</time>
      </trkpt>
      <trkpt lat="60.84336" lon="5.17018">
        <ele>59.006685</ele>
        <time>2020-07-25T15:11:14.989Z</time>
      </trkpt>
      <trkpt lat="60.84338" lon="5.17042">
        <ele>59.006685</ele>
        <time>2020-07-25T15:11:18.020Z</time>
      </trkpt>
      <trkpt lat="60.8434" lon="5.17066">
        <ele>59.006685</ele>
        <time>2020-07-25T15:11:20.997Z</time>
      </trkpt>
      <trkpt lat="60.84342" lon="5.17091">
        <ele>59.006685</ele>
        <time>2020-07-25T15:11:23.997Z</time>
      </trkpt>
      <trkpt lat="60.84343" lon="5.17117">
        <ele>59.006685</ele>
        <time>2020-07-25T15:11:27.031Z</time>
      </trkpt>
      <trkpt lat="60.84345" lon="5.17143">
        <ele>59.006685</ele>
        <time>2020-07-25T15:11:30.020Z</time>
      </trkpt>
      <trkpt lat="60.84346" lon="5.17168">
        <ele>59.006685</ele>
        <time>2020-07-25T15:11:32.992Z</time>
      </trkpt>
      <trkpt lat="60.84347" lon="5.17193">
        <ele>59.006685</ele>
        <time>2020-07-25T15:11:36.018Z</time>
      </trkpt>
      <trkpt lat="60.84349" lon="5.17218">
        <ele>59.006685</ele>
        <time>2020-07-25T15:11:39.005Z</time>
      </trkpt>
      <trkpt lat="60.84341" lon="5.17231">
        <ele>59.006685</ele>
        <time>2020-07-25T15:11:48.032Z</time>
      </trkpt>
      <trkpt lat="60.84336" lon="5.17224">
        <ele>59.006685</ele>
        <time>2020-07-25T15:13:16.538Z</time>
      </trkpt>
    </trkseg>
  </trk>
</gpx>